<?xml version='1.0' encoding='UTF-8'?><gpx version="1.1" creator="JPX - https://github.com/jenetics/jpx" xmlns="http://www.topografix.com/GPX/1/1"><trk><trkseg><trkpt lat="45.71853873271962" lon="9.770975917752706"><ele>333.0</ele><time>2026-04-25T08:47:12Z</time></trkpt><trkpt lat="45.71842636563842" lon="9.770965155605577"><ele>333.0</ele><time>2026-04-25T08:47:15Z</time></trkpt><trkpt lat="45.71836600891193" lon="9.770917708689845"><ele>333.0</ele><time>2026-04-25T08:47:16Z</time></trkpt><trkpt lat="45.71830210575034" lon="9.770862796580174"><ele>333.0</ele><time>2026-04-25T08:47:17Z</time></trkpt><trkpt lat="45.71824119392264" lon="9.77080129775802"><ele>333.0</ele><time>2026-04-25T08:47:18Z</time></trkpt><trkpt lat="45.71814018184589" lon="9.770733018205899"><ele>333.0</ele><time>2026-04-25T08:47:20Z</time></trkpt><trkpt lat="45.71804252474957" lon="9.770673238464951"><ele>333.0</ele><time>2026-04-25T08:47:22Z</time></trkpt><trkpt lat="45.71796256557521" lon="9.770590580705681"><ele>333.0</ele><time>2026-04-25T08:47:24Z</time></trkpt><trkpt lat="45.71788677914017" lon="9.770583413609733"><ele>333.0</ele><time>2026-04-25T08:47:26Z</time></trkpt><trkpt lat="45.71780257077455" lon="9.770601140952744"><ele>333.0</ele><time>2026-04-25T08:47:28Z</time></trkpt><trkpt lat="45.71771874989196" lon="9.770514824747933"><ele>333.0</ele><time>2026-04-25T08:47:30Z</time></trkpt><trkpt lat="45.717667022359905" lon="9.77045524294261"><ele>333.0</ele><time>2026-04-25T08:47:31Z</time></trkpt><trkpt lat="45.71761557555558" lon="9.770398635901842"><ele>331.8333333333333</ele><time>2026-04-25T08:47:32Z</time></trkpt><trkpt lat="45.71752587459753" lon="9.770300455758239"><ele>330.6666666666667</ele><time>2026-04-25T08:47:34Z</time></trkpt><trkpt lat="45.71747165099248" lon="9.770238098484608"><ele>329.5</ele><time>2026-04-25T08:47:36Z</time></trkpt><trkpt lat="45.71750493531201" lon="9.770138860008565"><ele>328.33333333333337</ele><time>2026-04-25T08:47:38Z</time></trkpt><trkpt lat="45.71760025394385" lon="9.77003530662196"><ele>327.1666666666667</ele><time>2026-04-25T08:47:40Z</time></trkpt><trkpt lat="45.717646232991534" lon="9.769965627845309"><ele>326.0</ele><time>2026-04-25T08:47:41Z</time></trkpt><trkpt lat="45.7176966282337" lon="9.769905198755241"><ele>326.4</ele><time>2026-04-25T08:47:42Z</time></trkpt><trkpt lat="45.71774237973507" lon="9.769843113875003"><ele>326.8</ele><time>2026-04-25T08:47:43Z</time></trkpt><trkpt lat="45.717831489063606" lon="9.769715810218578"><ele>327.2</ele><time>2026-04-25T08:47:45Z</time></trkpt><trkpt lat="45.7179110130083" lon="9.769593774795153"><ele>327.59999999999997</ele><time>2026-04-25T08:47:47Z</time></trkpt><trkpt lat="45.71795943562757" lon="9.769521464082729"><ele>328.0</ele><time>2026-04-25T08:47:48Z</time></trkpt><trkpt lat="45.71803298316947" lon="9.769374915271419"><ele>327.0</ele><time>2026-04-25T08:47:50Z</time></trkpt><trkpt lat="45.718080385401294" lon="9.769308004324875"><ele>326.0</ele><time>2026-04-25T08:47:51Z</time></trkpt><trkpt lat="45.718167587834806" lon="9.769170325696157"><ele>325.0</ele><time>2026-04-25T08:47:53Z</time></trkpt><trkpt lat="45.71821361332567" lon="9.769101562656884"><ele>324.0</ele><time>2026-04-25T08:47:54Z</time></trkpt><trkpt lat="45.71825871570048" lon="9.769033387015412"><ele>323.0</ele><time>2026-04-25T08:47:55Z</time></trkpt><trkpt lat="45.718307795594335" lon="9.76897636672075"><ele>322.0</ele><time>2026-04-25T08:47:56Z</time></trkpt><trkpt lat="45.71835986872322" lon="9.768921651285353"><ele>322.0</ele><time>2026-04-25T08:47:57Z</time></trkpt><trkpt lat="45.71841259094752" lon="9.768868211987924"><ele>322.0</ele><time>2026-04-25T08:47:58Z</time></trkpt><trkpt lat="45.71846739373043" lon="9.768813132801311"><ele>322.0</ele><time>2026-04-25T08:47:59Z</time></trkpt><trkpt lat="45.7185781442844" lon="9.76871395347322"><ele>322.0</ele><time>2026-04-25T08:48:01Z</time></trkpt><trkpt lat="45.71863441190822" lon="9.768660563333922"><ele>322.0</ele><time>2026-04-25T08:48:02Z</time></trkpt><trkpt lat="45.71869350190184" lon="9.76861247630929"><ele>322.0</ele><time>2026-04-25T08:48:03Z</time></trkpt><trkpt lat="45.718747314857325" lon="9.76854610223222"><ele>322.20000000000005</ele><time>2026-04-25T08:48:04Z</time></trkpt><trkpt lat="45.71885492088931" lon="9.768444619069513"><ele>322.4</ele><time>2026-04-25T08:48:06Z</time></trkpt><trkpt lat="45.71891148373008" lon="9.768389472299367"><ele>322.6</ele><time>2026-04-25T08:48:07Z</time></trkpt><trkpt lat="45.71901223823653" lon="9.76827922151198"><ele>322.79999999999995</ele><time>2026-04-25T08:48:09Z</time></trkpt><trkpt lat="45.71907235262137" lon="9.768229975467998"><ele>323.0</ele><time>2026-04-25T08:48:10Z</time></trkpt><trkpt lat="45.71912349376191" lon="9.768174696162927"><ele>323.0</ele><time>2026-04-25T08:48:11Z</time></trkpt><trkpt lat="45.71923666337193" lon="9.768073921760886"><ele>323.0</ele><time>2026-04-25T08:48:13Z</time></trkpt><trkpt lat="45.71933553239211" lon="9.767973993084249"><ele>323.0</ele><time>2026-04-25T08:48:15Z</time></trkpt><trkpt lat="45.71944415992255" lon="9.767868600104524"><ele>323.0</ele><time>2026-04-25T08:48:17Z</time></trkpt><trkpt lat="45.71949670204534" lon="9.767814181871532"><ele>323.42857142857144</ele><time>2026-04-25T08:48:18Z</time></trkpt><trkpt lat="45.719552158911576" lon="9.767754524800548"><ele>323.8571428571429</ele><time>2026-04-25T08:48:19Z</time></trkpt><trkpt lat="45.71960625279323" lon="9.767702347318314"><ele>324.28571428571433</ele><time>2026-04-25T08:48:20Z</time></trkpt><trkpt lat="45.71966321787938" lon="9.767646779543949"><ele>324.7142857142857</ele><time>2026-04-25T08:48:21Z</time></trkpt><trkpt lat="45.71972112131261" lon="9.76759256751768"><ele>325.1428571428571</ele><time>2026-04-25T08:48:22Z</time></trkpt><trkpt lat="45.71977621702494" lon="9.767536854262156"><ele>325.5714285714286</ele><time>2026-04-25T08:48:23Z</time></trkpt><trkpt lat="45.71983098342706" lon="9.767484442368385"><ele>326.0</ele><time>2026-04-25T08:48:24Z</time></trkpt><trkpt lat="45.71989097221789" lon="9.7674401781649"><ele>326.0</ele><time>2026-04-25T08:48:25Z</time></trkpt><trkpt lat="45.71994235483542" lon="9.76737599681252"><ele>326.0</ele><time>2026-04-25T08:48:26Z</time></trkpt><trkpt lat="45.719997432480284" lon="9.767314810587228"><ele>326.0</ele><time>2026-04-25T08:48:27Z</time></trkpt><trkpt lat="45.72004957283816" lon="9.767264162856716"><ele>326.0</ele><time>2026-04-25T08:48:28Z</time></trkpt><trkpt lat="45.720101940763136" lon="9.767206358314645"><ele>326.0</ele><time>2026-04-25T08:48:29Z</time></trkpt><trkpt lat="45.720157698451466" lon="9.767151267891819"><ele>326.0</ele><time>2026-04-25T08:48:30Z</time></trkpt><trkpt lat="45.72020009509663" lon="9.767081864637776"><ele>326.0</ele><time>2026-04-25T08:48:31Z</time></trkpt><trkpt lat="45.72025766324467" lon="9.767022323919175"><ele>325.20000000000005</ele><time>2026-04-25T08:48:32Z</time></trkpt><trkpt lat="45.720355039644275" lon="9.766913287849476"><ele>324.40000000000003</ele><time>2026-04-25T08:48:34Z</time></trkpt><trkpt lat="45.72042096426626" lon="9.766867671994973"><ele>323.6</ele><time>2026-04-25T08:48:35Z</time></trkpt><trkpt lat="45.720532181184936" lon="9.766773265631572"><ele>322.8</ele><time>2026-04-25T08:48:37Z</time></trkpt><trkpt lat="45.72058183391602" lon="9.766701846275629"><ele>322.0</ele><time>2026-04-25T08:48:38Z</time></trkpt><trkpt lat="45.72063423889929" lon="9.766633425735453"><ele>322.0</ele><time>2026-04-25T08:48:39Z</time></trkpt><trkpt lat="45.72073477477207" lon="9.766514539325383"><ele>322.0</ele><time>2026-04-25T08:48:41Z</time></trkpt><trkpt lat="45.72079362368016" lon="9.766450177444339"><ele>322.0</ele><time>2026-04-25T08:48:42Z</time></trkpt><trkpt lat="45.72083916280114" lon="9.76636582956525"><ele>322.0</ele><time>2026-04-25T08:48:43Z</time></trkpt><trkpt lat="45.72088969081575" lon="9.766311865741104"><ele>322.0</ele><time>2026-04-25T08:48:44Z</time></trkpt><trkpt lat="45.720939157280654" lon="9.766245046940782"><ele>322.0</ele><time>2026-04-25T08:48:45Z</time></trkpt><trkpt lat="45.7209907123265" lon="9.766191634995012"><ele>322.0</ele><time>2026-04-25T08:48:46Z</time></trkpt><trkpt lat="45.72103763966169" lon="9.76611142665398"><ele>322.0</ele><time>2026-04-25T08:48:47Z</time></trkpt><trkpt lat="45.72113983613808" lon="9.766004950512192"><ele>322.0</ele><time>2026-04-25T08:48:49Z</time></trkpt><trkpt lat="45.72123281600033" lon="9.765893465526817"><ele>322.0</ele><time>2026-04-25T08:48:51Z</time></trkpt><trkpt lat="45.721331867065885" lon="9.765779086530227"><ele>322.0</ele><time>2026-04-25T08:48:53Z</time></trkpt><trkpt lat="45.72138750503506" lon="9.765735234981106"><ele>321.5</ele><time>2026-04-25T08:48:54Z</time></trkpt><trkpt lat="45.72143616078184" lon="9.76566978518642"><ele>321.0</ele><time>2026-04-25T08:48:55Z</time></trkpt><trkpt lat="45.721492277816175" lon="9.765617446955256"><ele>320.5</ele><time>2026-04-25T08:48:56Z</time></trkpt><trkpt lat="45.72154150065145" lon="9.765550969102964"><ele>320.0</ele><time>2026-04-25T08:48:57Z</time></trkpt><trkpt lat="45.72165390781218" lon="9.765487297759917"><ele>319.5</ele><time>2026-04-25T08:48:59Z</time></trkpt><trkpt lat="45.72170720271278" lon="9.765397560290191"><ele>319.0</ele><time>2026-04-25T08:49:00Z</time></trkpt><trkpt lat="45.72176366187961" lon="9.76534485820265"><ele>319.0</ele><time>2026-04-25T08:49:01Z</time></trkpt><trkpt lat="45.72186596418163" lon="9.765239233861491"><ele>319.0</ele><time>2026-04-25T08:49:03Z</time></trkpt><trkpt lat="45.721918542155684" lon="9.765182766099786"><ele>319.0</ele><time>2026-04-25T08:49:04Z</time></trkpt><trkpt lat="45.72197279224835" lon="9.765131913232814"><ele>319.0</ele><time>2026-04-25T08:49:05Z</time></trkpt><trkpt lat="45.7220261939119" lon="9.765076690557745"><ele>319.0</ele><time>2026-04-25T08:49:06Z</time></trkpt><trkpt lat="45.72208522164077" lon="9.765019299218986"><ele>319.0</ele><time>2026-04-25T08:49:07Z</time></trkpt><trkpt lat="45.72214329837561" lon="9.764968984368961"><ele>319.0</ele><time>2026-04-25T08:49:08Z</time></trkpt><trkpt lat="45.722200567792584" lon="9.764916149911889"><ele>319.0</ele><time>2026-04-25T08:49:09Z</time></trkpt><trkpt lat="45.72225393386956" lon="9.764860710984495"><ele>319.0</ele><time>2026-04-25T08:49:10Z</time></trkpt><trkpt lat="45.72231807480273" lon="9.764809704220534"><ele>319.0</ele><time>2026-04-25T08:49:11Z</time></trkpt><trkpt lat="45.722376641347516" lon="9.764759869128966"><ele>319.0</ele><time>2026-04-25T08:49:12Z</time></trkpt><trkpt lat="45.72243563618354" lon="9.76470888203091"><ele>319.0</ele><time>2026-04-25T08:49:13Z</time></trkpt><trkpt lat="45.722499011889944" lon="9.76464453196"><ele>319.0</ele><time>2026-04-25T08:49:14Z</time></trkpt><trkpt lat="45.72256073732389" lon="9.764585632288076"><ele>319.0</ele><time>2026-04-25T08:49:15Z</time></trkpt><trkpt lat="45.72262320228173" lon="9.764519591262328"><ele>319.0</ele><time>2026-04-25T08:49:16Z</time></trkpt><trkpt lat="45.722683914059445" lon="9.764462364145167"><ele>319.0</ele><time>2026-04-25T08:49:17Z</time></trkpt><trkpt lat="45.72274306638666" lon="9.764406176224263"><ele>319.0</ele><time>2026-04-25T08:49:18Z</time></trkpt><trkpt lat="45.722804952094904" lon="9.764342313174136"><ele>319.0</ele><time>2026-04-25T08:49:19Z</time></trkpt><trkpt lat="45.722868884620524" lon="9.764282417384585"><ele>319.0</ele><time>2026-04-25T08:49:20Z</time></trkpt><trkpt lat="45.72292165709274" lon="9.764226639104779"><ele>319.0</ele><time>2026-04-25T08:49:21Z</time></trkpt><trkpt lat="45.72298361092072" lon="9.764156871339829"><ele>318.2857142857143</ele><time>2026-04-25T08:49:22Z</time></trkpt><trkpt lat="45.72304814661647" lon="9.764092001433648"><ele>317.57142857142856</ele><time>2026-04-25T08:49:23Z</time></trkpt><trkpt lat="45.72310155118506" lon="9.76403067520718"><ele>316.85714285714283</ele><time>2026-04-25T08:49:24Z</time></trkpt><trkpt lat="45.72315512933489" lon="9.763963242686224"><ele>316.1428571428571</ele><time>2026-04-25T08:49:25Z</time></trkpt><trkpt lat="45.72320815533103" lon="9.763881904301897"><ele>315.42857142857144</ele><time>2026-04-25T08:49:26Z</time></trkpt><trkpt lat="45.72325995797054" lon="9.763812604982329"><ele>314.71428571428567</ele><time>2026-04-25T08:49:27Z</time></trkpt><trkpt lat="45.72331230668114" lon="9.763744036642507"><ele>314.0</ele><time>2026-04-25T08:49:28Z</time></trkpt><trkpt lat="45.72335761435331" lon="9.763668904404321"><ele>313.99999999999994</ele><time>2026-04-25T08:49:29Z</time></trkpt><trkpt lat="45.723411236038295" lon="9.763606906786746"><ele>314.0</ele><time>2026-04-25T08:49:30Z</time></trkpt><trkpt lat="45.72346307346906" lon="9.763528579830828"><ele>314.0</ele><time>2026-04-25T08:49:31Z</time></trkpt><trkpt lat="45.72351974430126" lon="9.763458443781367"><ele>314.0</ele><time>2026-04-25T08:49:32Z</time></trkpt><trkpt lat="45.72356441015239" lon="9.76338936015438"><ele>314.0</ele><time>2026-04-25T08:49:33Z</time></trkpt><trkpt lat="45.72361875540807" lon="9.763325791468084"><ele>313.99999999999994</ele><time>2026-04-25T08:49:34Z</time></trkpt><trkpt lat="45.72366959680813" lon="9.76325928726275"><ele>314.0</ele><time>2026-04-25T08:49:35Z</time></trkpt><trkpt lat="45.7237047947703" lon="9.763180397242795"><ele>314.4285714285714</ele><time>2026-04-25T08:49:36Z</time></trkpt><trkpt lat="45.72375394343397" lon="9.763110643023758"><ele>314.85714285714283</ele><time>2026-04-25T08:49:37Z</time></trkpt><trkpt lat="45.72383633154799" lon="9.763083675173016"><ele>315.2857142857143</ele><time>2026-04-25T08:49:38Z</time></trkpt><trkpt lat="45.72390793663283" lon="9.76304953733772"><ele>315.71428571428567</ele><time>2026-04-25T08:49:39Z</time></trkpt><trkpt lat="45.72393110494416" lon="9.76296364356695"><ele>316.1428571428571</ele><time>2026-04-25T08:49:40Z</time></trkpt><trkpt lat="45.72397929634931" lon="9.762905087081831"><ele>316.57142857142856</ele><time>2026-04-25T08:49:41Z</time></trkpt><trkpt lat="45.724032313819905" lon="9.762853008065592"><ele>317.0</ele><time>2026-04-25T08:49:42Z</time></trkpt><trkpt lat="45.72412831822127" lon="9.762744340277054"><ele>316.5</ele><time>2026-04-25T08:49:44Z</time></trkpt><trkpt lat="45.72421452684171" lon="9.762641946171096"><ele>316.0</ele><time>2026-04-25T08:49:46Z</time></trkpt><trkpt lat="45.72429598104999" lon="9.762519453282458"><ele>315.5</ele><time>2026-04-25T08:49:48Z</time></trkpt><trkpt lat="45.72433610684123" lon="9.762440054296446"><ele>315.0</ele><time>2026-04-25T08:49:49Z</time></trkpt><trkpt lat="45.72437753622081" lon="9.762362865199654"><ele>314.5</ele><time>2026-04-25T08:49:50Z</time></trkpt><trkpt lat="45.72441045230541" lon="9.762276967143729"><ele>314.0</ele><time>2026-04-25T08:49:51Z</time></trkpt><trkpt lat="45.72444290335046" lon="9.762189841357351"><ele>314.1428571428571</ele><time>2026-04-25T08:49:52Z</time></trkpt><trkpt lat="45.72448030518141" lon="9.762104919588545"><ele>314.2857142857143</ele><time>2026-04-25T08:49:53Z</time></trkpt><trkpt lat="45.72450607061327" lon="9.762016928683993"><ele>314.42857142857144</ele><time>2026-04-25T08:49:54Z</time></trkpt><trkpt lat="45.7245454281849" lon="9.761924194154693"><ele>314.57142857142856</ele><time>2026-04-25T08:49:55Z</time></trkpt><trkpt lat="45.724582292512345" lon="9.761837145319793"><ele>314.7142857142857</ele><time>2026-04-25T08:49:56Z</time></trkpt><trkpt lat="45.72462092484701" lon="9.761749554422023"><ele>314.85714285714283</ele><time>2026-04-25T08:49:57Z</time></trkpt><trkpt lat="45.724662991686934" lon="9.761657464638256"><ele>315.0</ele><time>2026-04-25T08:49:58Z</time></trkpt><trkpt lat="45.72470346027286" lon="9.761578734288756"><ele>315.0</ele><time>2026-04-25T08:49:59Z</time></trkpt><trkpt lat="45.724755534904865" lon="9.761512997092385"><ele>315.0</ele><time>2026-04-25T08:50:00Z</time></trkpt><trkpt lat="45.724799336436824" lon="9.76143456737894"><ele>315.0</ele><time>2026-04-25T08:50:01Z</time></trkpt><trkpt lat="45.72491952386571" lon="9.761337484172245"><ele>315.0</ele><time>2026-04-25T08:50:03Z</time></trkpt><trkpt lat="45.72498165174678" lon="9.761261861228785"><ele>315.0</ele><time>2026-04-25T08:50:04Z</time></trkpt><trkpt lat="45.72509648548613" lon="9.761176480034093"><ele>315.0</ele><time>2026-04-25T08:50:06Z</time></trkpt><trkpt lat="45.72515944847401" lon="9.76113781736342"><ele>315.0</ele><time>2026-04-25T08:50:07Z</time></trkpt><trkpt lat="45.72522391118069" lon="9.76109980300717"><ele>315.0</ele><time>2026-04-25T08:50:08Z</time></trkpt><trkpt lat="45.725288974354676" lon="9.761059263892763"><ele>315.0</ele><time>2026-04-25T08:50:09Z</time></trkpt><trkpt lat="45.72535312078042" lon="9.76102931724303"><ele>315.0</ele><time>2026-04-25T08:50:10Z</time></trkpt><trkpt lat="45.72542078254632" lon="9.760996749170385"><ele>315.0</ele><time>2026-04-25T08:50:11Z</time></trkpt><trkpt lat="45.72548377061539" lon="9.760986656416662"><ele>315.0</ele><time>2026-04-25T08:50:12Z</time></trkpt><trkpt lat="45.72554703178223" lon="9.760946202029544"><ele>314.1666666666667</ele><time>2026-04-25T08:50:13Z</time></trkpt><trkpt lat="45.725610565572886" lon="9.760918717484797"><ele>313.3333333333333</ele><time>2026-04-25T08:50:14Z</time></trkpt><trkpt lat="45.725680935184265" lon="9.76089306439132"><ele>312.5</ele><time>2026-04-25T08:50:15Z</time></trkpt><trkpt lat="45.7257558351781" lon="9.760845060376402"><ele>311.66666666666663</ele><time>2026-04-25T08:50:16Z</time></trkpt><trkpt lat="45.725833371152056" lon="9.760791578387984"><ele>310.8333333333333</ele><time>2026-04-25T08:50:17Z</time></trkpt><trkpt lat="45.725944439922024" lon="9.760792430336828"><ele>310.0</ele><time>2026-04-25T08:50:19Z</time></trkpt><trkpt lat="45.726013524119566" lon="9.760763531309586"><ele>310.42857142857144</ele><time>2026-04-25T08:50:20Z</time></trkpt><trkpt lat="45.72607919734014" lon="9.760741461764697"><ele>310.85714285714283</ele><time>2026-04-25T08:50:21Z</time></trkpt><trkpt lat="45.72614361987054" lon="9.760717550733457"><ele>311.2857142857143</ele><time>2026-04-25T08:50:22Z</time></trkpt><trkpt lat="45.72620596009659" lon="9.76068979612916"><ele>311.7142857142857</ele><time>2026-04-25T08:50:23Z</time></trkpt><trkpt lat="45.726275734379065" lon="9.760664133165644"><ele>312.14285714285717</ele><time>2026-04-25T08:50:24Z</time></trkpt><trkpt lat="45.72634565271077" lon="9.760637377323018"><ele>312.57142857142856</ele><time>2026-04-25T08:50:25Z</time></trkpt><trkpt lat="45.72641058016694" lon="9.760616676874548"><ele>313.0</ele><time>2026-04-25T08:50:26Z</time></trkpt><trkpt lat="45.726538270750545" lon="9.760565644548205"><ele>313.0</ele><time>2026-04-25T08:50:28Z</time></trkpt><trkpt lat="45.7266041559523" lon="9.76053683027726"><ele>313.0</ele><time>2026-04-25T08:50:29Z</time></trkpt><trkpt lat="45.72666826873068" lon="9.760503779341095"><ele>313.0</ele><time>2026-04-25T08:50:30Z</time></trkpt><trkpt lat="45.72672975614882" lon="9.760479610563735"><ele>313.0</ele><time>2026-04-25T08:50:31Z</time></trkpt><trkpt lat="45.72679613685848" lon="9.760457080744356"><ele>313.0</ele><time>2026-04-25T08:50:32Z</time></trkpt><trkpt lat="45.726866530928575" lon="9.760428707536553"><ele>313.0</ele><time>2026-04-25T08:50:33Z</time></trkpt><trkpt lat="45.726930584269375" lon="9.760407521537434"><ele>313.0</ele><time>2026-04-25T08:50:34Z</time></trkpt><trkpt lat="45.727002516242614" lon="9.760391076180666"><ele>314.0</ele><time>2026-04-25T08:50:35Z</time></trkpt><trkpt lat="45.72712233570774" lon="9.76036013263687"><ele>315.0</ele><time>2026-04-25T08:50:37Z</time></trkpt><trkpt lat="45.72724471090775" lon="9.760321161087251"><ele>316.0</ele><time>2026-04-25T08:50:39Z</time></trkpt><trkpt lat="45.72736050952381" lon="9.760285339368092"><ele>317.0</ele><time>2026-04-25T08:50:41Z</time></trkpt><trkpt lat="45.72747830267249" lon="9.760235918914198"><ele>315.6</ele><time>2026-04-25T08:50:43Z</time></trkpt><trkpt lat="45.72759367016161" lon="9.76017570067391"><ele>314.2</ele><time>2026-04-25T08:50:45Z</time></trkpt><trkpt lat="45.727701360863605" lon="9.760113667814895"><ele>312.8</ele><time>2026-04-25T08:50:47Z</time></trkpt><trkpt lat="45.72778032674603" lon="9.760102540893877"><ele>311.4</ele><time>2026-04-25T08:50:49Z</time></trkpt><trkpt lat="45.727852766412205" lon="9.760116538618595"><ele>310.0</ele><time>2026-04-25T08:51:33Z</time></trkpt><trkpt lat="45.72792696510403" lon="9.760103274662034"><ele>310.0</ele><time>2026-04-25T08:51:35Z</time></trkpt><trkpt lat="45.728028580377014" lon="9.760077997618895"><ele>310.0</ele><time>2026-04-25T08:51:37Z</time></trkpt><trkpt lat="45.728121396003694" lon="9.760021288908145"><ele>310.0</ele><time>2026-04-25T08:51:39Z</time></trkpt><trkpt lat="45.728199447641224" lon="9.759929933768682"><ele>310.0</ele><time>2026-04-25T08:51:41Z</time></trkpt><trkpt lat="45.728259619488426" lon="9.759821142419993"><ele>310.0</ele><time>2026-04-25T08:51:43Z</time></trkpt><trkpt lat="45.72836743322855" lon="9.759757479332533"><ele>310.0</ele><time>2026-04-25T08:51:45Z</time></trkpt><trkpt lat="45.72843315426797" lon="9.759734352079091"><ele>310.0</ele><time>2026-04-25T08:51:46Z</time></trkpt><trkpt lat="45.72849304544637" lon="9.75970205982301"><ele>310.0</ele><time>2026-04-25T08:51:47Z</time></trkpt><trkpt lat="45.72855250755878" lon="9.759663853896965"><ele>310.0</ele><time>2026-04-25T08:51:48Z</time></trkpt><trkpt lat="45.728660999218455" lon="9.759598564913"><ele>310.0</ele><time>2026-04-25T08:51:50Z</time></trkpt><trkpt lat="45.728767324438074" lon="9.759545904609451"><ele>310.0</ele><time>2026-04-25T08:51:52Z</time></trkpt><trkpt lat="45.72887015313851" lon="9.759499991190797"><ele>310.8</ele><time>2026-04-25T08:51:54Z</time></trkpt><trkpt lat="45.728973617331725" lon="9.759442999543781"><ele>311.6</ele><time>2026-04-25T08:51:56Z</time></trkpt><trkpt lat="45.729099823434865" lon="9.75941036736511"><ele>312.4</ele><time>2026-04-25T08:51:58Z</time></trkpt><trkpt lat="45.72923662133986" lon="9.7593945318899"><ele>313.2</ele><time>2026-04-25T08:52:00Z</time></trkpt><trkpt lat="45.72929807559257" lon="9.75937081615639"><ele>314.0</ele><time>2026-04-25T08:52:01Z</time></trkpt><trkpt lat="45.72942152107195" lon="9.759369752327858"><ele>314.1666666666667</ele><time>2026-04-25T08:52:03Z</time></trkpt><trkpt lat="45.72955066194158" lon="9.759369142128863"><ele>314.33333333333337</ele><time>2026-04-25T08:52:05Z</time></trkpt><trkpt lat="45.729624367706045" lon="9.759368909978209"><ele>314.5</ele><time>2026-04-25T08:52:06Z</time></trkpt><trkpt lat="45.72972615425925" lon="9.759327256410016"><ele>314.6666666666667</ele><time>2026-04-25T08:52:08Z</time></trkpt><trkpt lat="45.72978905564386" lon="9.759322454416505"><ele>314.8333333333333</ele><time>2026-04-25T08:52:09Z</time></trkpt><trkpt lat="45.72985283383705" lon="9.75932239007673"><ele>315.0</ele><time>2026-04-25T08:52:10Z</time></trkpt><trkpt lat="45.72992166369802" lon="9.759320854081807"><ele>313.2</ele><time>2026-04-25T08:52:11Z</time></trkpt><trkpt lat="45.730042926674486" lon="9.759291231791375"><ele>311.4</ele><time>2026-04-25T08:52:13Z</time></trkpt><trkpt lat="45.730159060431916" lon="9.759288939560147"><ele>309.6</ele><time>2026-04-25T08:52:15Z</time></trkpt><trkpt lat="45.73022293345579" lon="9.759286580535985"><ele>307.8</ele><time>2026-04-25T08:52:16Z</time></trkpt><trkpt lat="45.73028642613967" lon="9.759270607711443"><ele>306.0</ele><time>2026-04-25T08:52:17Z</time></trkpt><trkpt lat="45.73040294699659" lon="9.759244928374024"><ele>306.0</ele><time>2026-04-25T08:52:19Z</time></trkpt><trkpt lat="45.730472790606946" lon="9.75923041084967"><ele>306.0</ele><time>2026-04-25T08:52:20Z</time></trkpt><trkpt lat="45.7305912583337" lon="9.759216678348121"><ele>306.0</ele><time>2026-04-25T08:52:22Z</time></trkpt><trkpt lat="45.7306671373507" lon="9.759188480669966"><ele>306.0</ele><time>2026-04-25T08:52:23Z</time></trkpt><trkpt lat="45.73072626565621" lon="9.759156657408756"><ele>306.0</ele><time>2026-04-25T08:52:24Z</time></trkpt><trkpt lat="45.73078779481097" lon="9.759110689817778"><ele>306.0</ele><time>2026-04-25T08:52:25Z</time></trkpt><trkpt lat="45.73084968151718" lon="9.759069765556822"><ele>306.0</ele><time>2026-04-25T08:52:26Z</time></trkpt><trkpt lat="45.73091642409405" lon="9.759021604915977"><ele>306.0</ele><time>2026-04-25T08:52:27Z</time></trkpt><trkpt lat="45.730978397159284" lon="9.75896070384722"><ele>306.0</ele><time>2026-04-25T08:52:28Z</time></trkpt><trkpt lat="45.73104213823208" lon="9.75890789438584"><ele>306.0</ele><time>2026-04-25T08:52:29Z</time></trkpt><trkpt lat="45.731114569900036" lon="9.758874497985191"><ele>306.0</ele><time>2026-04-25T08:52:30Z</time></trkpt><trkpt lat="45.73118967222165" lon="9.758847716491871"><ele>306.0</ele><time>2026-04-25T08:52:31Z</time></trkpt><trkpt lat="45.73126176052036" lon="9.75883160225216"><ele>306.0</ele><time>2026-04-25T08:52:32Z</time></trkpt><trkpt lat="45.73132870365557" lon="9.758810270059842"><ele>306.0</ele><time>2026-04-25T08:52:33Z</time></trkpt><trkpt lat="45.731411194237445" lon="9.758712626312743"><ele>306.0</ele><time>2026-04-25T08:52:35Z</time></trkpt><trkpt lat="45.73142768092457" lon="9.758546211666753"><ele>306.0</ele><time>2026-04-25T08:52:37Z</time></trkpt><trkpt lat="45.7314121999712" lon="9.758455739265615"><ele>306.0</ele><time>2026-04-25T08:52:38Z</time></trkpt><trkpt lat="45.73142271487354" lon="9.758335873313"><ele>306.0</ele><time>2026-04-25T08:52:40Z</time></trkpt><trkpt lat="45.731526004159" lon="9.758241075554913"><ele>306.0</ele><time>2026-04-25T08:52:42Z</time></trkpt><trkpt lat="45.73158269002895" lon="9.758198709039426"><ele>306.0</ele><time>2026-04-25T08:52:43Z</time></trkpt><trkpt lat="45.73166049589231" lon="9.758132503534108"><ele>306.0</ele><time>2026-04-25T08:52:45Z</time></trkpt><trkpt lat="45.73172738770283" lon="9.758087940366067"><ele>306.0</ele><time>2026-04-25T08:52:48Z</time></trkpt><trkpt lat="45.73180097432674" lon="9.758040574361535"><ele>306.0</ele><time>2026-04-25T08:52:49Z</time></trkpt><trkpt lat="45.73187805182256" lon="9.757990466676768"><ele>306.0</ele><time>2026-04-25T08:52:50Z</time></trkpt><trkpt lat="45.73194461146658" lon="9.757928407609942"><ele>306.0</ele><time>2026-04-25T08:52:51Z</time></trkpt><trkpt lat="45.73200849771156" lon="9.75786191737505"><ele>306.0</ele><time>2026-04-25T08:52:52Z</time></trkpt><trkpt lat="45.73205948071324" lon="9.757793333204914"><ele>306.0</ele><time>2026-04-25T08:52:53Z</time></trkpt><trkpt lat="45.732116717979586" lon="9.757736395528802"><ele>306.0</ele><time>2026-04-25T08:52:54Z</time></trkpt><trkpt lat="45.73218668680091" lon="9.75770370460296"><ele>306.0</ele><time>2026-04-25T08:52:55Z</time></trkpt><trkpt lat="45.73225834314539" lon="9.757675312011543"><ele>306.0</ele><time>2026-04-25T08:52:56Z</time></trkpt><trkpt lat="45.73233009295592" lon="9.757652593595065"><ele>306.0</ele><time>2026-04-25T08:52:57Z</time></trkpt><trkpt lat="45.73240475951764" lon="9.757632921748252"><ele>306.0</ele><time>2026-04-25T08:52:58Z</time></trkpt><trkpt lat="45.732465595090474" lon="9.757583610048412"><ele>306.0</ele><time>2026-04-25T08:52:59Z</time></trkpt><trkpt lat="45.73254047348261" lon="9.757552006140436"><ele>306.0</ele><time>2026-04-25T08:53:00Z</time></trkpt><trkpt lat="45.73261753900664" lon="9.757513999592149"><ele>306.0</ele><time>2026-04-25T08:53:01Z</time></trkpt><trkpt lat="45.73269789832164" lon="9.757485278378407"><ele>306.0</ele><time>2026-04-25T08:53:02Z</time></trkpt><trkpt lat="45.73276420120833" lon="9.757453328613956"><ele>306.0</ele><time>2026-04-25T08:53:03Z</time></trkpt><trkpt lat="45.73284555987664" lon="9.757417501601873"><ele>305.2</ele><time>2026-04-25T08:53:04Z</time></trkpt><trkpt lat="45.73293136643625" lon="9.757394982179308"><ele>304.40000000000003</ele><time>2026-04-25T08:53:05Z</time></trkpt><trkpt lat="45.733004781032804" lon="9.757379608921012"><ele>303.6</ele><time>2026-04-25T08:53:06Z</time></trkpt><trkpt lat="45.7330667435488" lon="9.757361180899844"><ele>302.8</ele><time>2026-04-25T08:53:07Z</time></trkpt><trkpt lat="45.733218533908364" lon="9.757286337322759"><ele>302.0</ele><time>2026-04-25T08:53:09Z</time></trkpt><trkpt lat="45.73328459730905" lon="9.75718784199552"><ele>302.0</ele><time>2026-04-25T08:53:10Z</time></trkpt><trkpt lat="45.7333266136974" lon="9.757110157154601"><ele>302.0</ele><time>2026-04-25T08:53:11Z</time></trkpt><trkpt lat="45.73338259508525" lon="9.757043273491496"><ele>302.0</ele><time>2026-04-25T08:53:12Z</time></trkpt><trkpt lat="45.733439142141954" lon="9.756985023445896"><ele>302.0</ele><time>2026-04-25T08:53:13Z</time></trkpt><trkpt lat="45.73350639851588" lon="9.756951222447931"><ele>302.0</ele><time>2026-04-25T08:53:14Z</time></trkpt><trkpt lat="45.733621025136955" lon="9.756897067858425"><ele>302.0</ele><time>2026-04-25T08:53:16Z</time></trkpt><trkpt lat="45.73373280148827" lon="9.756814824046257"><ele>302.0</ele><time>2026-04-25T08:53:18Z</time></trkpt><trkpt lat="45.73379548795629" lon="9.756779927660668"><ele>302.0</ele><time>2026-04-25T08:53:19Z</time></trkpt><trkpt lat="45.733859317847134" lon="9.756757830394355"><ele>302.0</ele><time>2026-04-25T08:53:20Z</time></trkpt><trkpt lat="45.733918841524755" lon="9.756718868700062"><ele>302.0</ele><time>2026-04-25T08:53:21Z</time></trkpt><trkpt lat="45.733978915984785" lon="9.7566872031994"><ele>302.0</ele><time>2026-04-25T08:53:22Z</time></trkpt><trkpt lat="45.73410507037031" lon="9.756636095931958"><ele>302.0</ele><time>2026-04-25T08:53:24Z</time></trkpt><trkpt lat="45.734211157055455" lon="9.756570584824722"><ele>302.0</ele><time>2026-04-25T08:53:26Z</time></trkpt><trkpt lat="45.7342611976766" lon="9.75650911723623"><ele>302.0</ele><time>2026-04-25T08:53:27Z</time></trkpt><trkpt lat="45.73429653252831" lon="9.756428782577812"><ele>302.0</ele><time>2026-04-25T08:53:28Z</time></trkpt><trkpt lat="45.73430417245627" lon="9.756328860087324"><ele>302.0</ele><time>2026-04-25T08:53:29Z</time></trkpt><trkpt lat="45.734305208952485" lon="9.756230870646853"><ele>302.0</ele><time>2026-04-25T08:53:30Z</time></trkpt><trkpt lat="45.73436155213214" lon="9.756069202301171"><ele>302.0</ele><time>2026-04-25T08:53:32Z</time></trkpt><trkpt lat="45.73440991151614" lon="9.756006178919016"><ele>300.83333333333337</ele><time>2026-04-25T08:53:33Z</time></trkpt><trkpt lat="45.734482313792526" lon="9.755982861499882"><ele>299.6666666666667</ele><time>2026-04-25T08:53:34Z</time></trkpt><trkpt lat="45.73454798662874" lon="9.755976768718824"><ele>298.5</ele><time>2026-04-25T08:53:35Z</time></trkpt><trkpt lat="45.734664342267855" lon="9.755923048538637"><ele>297.3333333333333</ele><time>2026-04-25T08:53:37Z</time></trkpt><trkpt lat="45.73472478830193" lon="9.755897056124212"><ele>296.16666666666663</ele><time>2026-04-25T08:53:38Z</time></trkpt><trkpt lat="45.734787295631456" lon="9.75587805378229"><ele>295.0</ele><time>2026-04-25T08:53:39Z</time></trkpt><trkpt lat="45.73484858213476" lon="9.755855233265944"><ele>295.0</ele><time>2026-04-25T08:53:40Z</time></trkpt><trkpt lat="45.73497104301157" lon="9.755817275619671"><ele>295.0</ele><time>2026-04-25T08:53:42Z</time></trkpt><trkpt lat="45.735096013740105" lon="9.755759532257622"><ele>295.0</ele><time>2026-04-25T08:53:44Z</time></trkpt><trkpt lat="45.7351485488679" lon="9.755697521053504"><ele>295.0</ele><time>2026-04-25T08:53:45Z</time></trkpt><trkpt lat="45.73524071235517" lon="9.755574219015651"><ele>294.3333333333333</ele><time>2026-04-25T08:53:47Z</time></trkpt><trkpt lat="45.73530071359838" lon="9.75553898674213"><ele>293.66666666666663</ele><time>2026-04-25T08:53:48Z</time></trkpt><trkpt lat="45.73536662734206" lon="9.755541296918766"><ele>293.0</ele><time>2026-04-25T08:53:49Z</time></trkpt><trkpt lat="45.73543029977162" lon="9.755561520821225"><ele>292.3333333333333</ele><time>2026-04-25T08:53:50Z</time></trkpt><trkpt lat="45.73555178362789" lon="9.755544417565195"><ele>291.6666666666667</ele><time>2026-04-25T08:53:52Z</time></trkpt><trkpt lat="45.73560114680147" lon="9.755463104642606"><ele>291.0</ele><time>2026-04-25T08:53:53Z</time></trkpt><trkpt lat="45.735635043786594" lon="9.755367191439728"><ele>291.0</ele><time>2026-04-25T08:53:54Z</time></trkpt><trkpt lat="45.73566533599998" lon="9.755268416373868"><ele>291.0</ele><time>2026-04-25T08:53:55Z</time></trkpt><trkpt lat="45.7356798643924" lon="9.75514048447612"><ele>291.0</ele><time>2026-04-25T08:53:56Z</time></trkpt><trkpt lat="45.735637510539426" lon="9.755032867026943"><ele>291.0</ele><time>2026-04-25T08:53:57Z</time></trkpt><trkpt lat="45.735588166419895" lon="9.754935166932457"><ele>291.0</ele><time>2026-04-25T08:53:58Z</time></trkpt><trkpt lat="45.73555067812142" lon="9.754847191237731"><ele>291.0</ele><time>2026-04-25T08:53:59Z</time></trkpt><trkpt lat="45.73552030630164" lon="9.75474045475335"><ele>290.6666666666667</ele><time>2026-04-25T08:54:00Z</time></trkpt><trkpt lat="45.73548533274527" lon="9.754642525558268"><ele>290.3333333333333</ele><time>2026-04-25T08:54:01Z</time></trkpt><trkpt lat="45.735454979886924" lon="9.75453850475829"><ele>290.0</ele><time>2026-04-25T08:54:02Z</time></trkpt><trkpt lat="45.73542485984801" lon="9.754436969547015"><ele>289.66666666666663</ele><time>2026-04-25T08:54:03Z</time></trkpt><trkpt lat="45.73540111881091" lon="9.754329498280102"><ele>289.3333333333333</ele><time>2026-04-25T08:54:04Z</time></trkpt><trkpt lat="45.73537356396915" lon="9.754225136389943"><ele>289.0</ele><time>2026-04-25T08:54:05Z</time></trkpt><trkpt lat="45.73534392799305" lon="9.754126228441589"><ele>288.7142857142857</ele><time>2026-04-25T08:54:06Z</time></trkpt><trkpt lat="45.73530124409713" lon="9.754032325731927"><ele>288.42857142857144</ele><time>2026-04-25T08:54:07Z</time></trkpt><trkpt lat="45.735276111609835" lon="9.753938034809565"><ele>288.1428571428571</ele><time>2026-04-25T08:54:08Z</time></trkpt><trkpt lat="45.73525396912021" lon="9.753836415916192"><ele>287.8571428571429</ele><time>2026-04-25T08:54:09Z</time></trkpt><trkpt lat="45.735225919971484" lon="9.753740159918424"><ele>287.57142857142856</ele><time>2026-04-25T08:54:10Z</time></trkpt><trkpt lat="45.73519988107176" lon="9.753645591911399"><ele>287.2857142857143</ele><time>2026-04-25T08:54:11Z</time></trkpt><trkpt lat="45.735164038319795" lon="9.753551379583007"><ele>287.0</ele><time>2026-04-25T08:54:12Z</time></trkpt><trkpt lat="45.735132249521094" lon="9.753466614129112"><ele>287.83333333333337</ele><time>2026-04-25T08:54:13Z</time></trkpt><trkpt lat="45.7350954675113" lon="9.753382197723116"><ele>288.6666666666667</ele><time>2026-04-25T08:54:14Z</time></trkpt><trkpt lat="45.73506697856575" lon="9.753300336753751"><ele>289.5</ele><time>2026-04-25T08:54:15Z</time></trkpt><trkpt lat="45.73500255873968" lon="9.753136805802017"><ele>290.3333333333333</ele><time>2026-04-25T08:54:17Z</time></trkpt><trkpt lat="45.73497236737726" lon="9.753056032445134"><ele>291.16666666666663</ele><time>2026-04-25T08:54:18Z</time></trkpt><trkpt lat="45.73495218295518" lon="9.752958755819504"><ele>292.0</ele><time>2026-04-25T08:54:19Z</time></trkpt><trkpt lat="45.73492996961713" lon="9.75277488934815"><ele>291.66666666666663</ele><time>2026-04-25T08:54:21Z</time></trkpt><trkpt lat="45.73491893279165" lon="9.752682996014217"><ele>291.3333333333333</ele><time>2026-04-25T08:54:22Z</time></trkpt><trkpt lat="45.73487804948329" lon="9.752499051317006"><ele>291.0</ele><time>2026-04-25T08:54:24Z</time></trkpt><trkpt lat="45.73486305328964" lon="9.75240344966386"><ele>290.6666666666667</ele><time>2026-04-25T08:54:25Z</time></trkpt><trkpt lat="45.73484973171333" lon="9.752300178574844"><ele>290.33333333333337</ele><time>2026-04-25T08:54:26Z</time></trkpt><trkpt lat="45.73482538278351" lon="9.752200758716352"><ele>290.0</ele><time>2026-04-25T08:54:27Z</time></trkpt><trkpt lat="45.73480490697871" lon="9.752095421930454"><ele>290.0</ele><time>2026-04-25T08:54:28Z</time></trkpt><trkpt lat="45.73477312605588" lon="9.75198765617826"><ele>290.0</ele><time>2026-04-25T08:54:29Z</time></trkpt><trkpt lat="45.73473979818419" lon="9.751887351195496"><ele>290.0</ele><time>2026-04-25T08:54:30Z</time></trkpt><trkpt lat="45.73470377239192" lon="9.75178745113345"><ele>290.0</ele><time>2026-04-25T08:54:31Z</time></trkpt><trkpt lat="45.73467491122282" lon="9.751686569289626"><ele>290.0</ele><time>2026-04-25T08:54:32Z</time></trkpt><trkpt lat="45.73462731248127" lon="9.751582023806739"><ele>290.0</ele><time>2026-04-25T08:54:33Z</time></trkpt><trkpt lat="45.73458717308216" lon="9.751471860530343"><ele>289.83333333333337</ele><time>2026-04-25T08:54:34Z</time></trkpt><trkpt lat="45.73454270369214" lon="9.751378720168491"><ele>289.6666666666667</ele><time>2026-04-25T08:54:35Z</time></trkpt><trkpt lat="45.73449489661616" lon="9.751283751632199"><ele>289.5</ele><time>2026-04-25T08:54:36Z</time></trkpt><trkpt lat="45.734462288980964" lon="9.751188627377502"><ele>289.3333333333333</ele><time>2026-04-25T08:54:37Z</time></trkpt><trkpt lat="45.73443325723153" lon="9.75110611111252"><ele>289.16666666666663</ele><time>2026-04-25T08:54:38Z</time></trkpt><trkpt lat="45.73437565488278" lon="9.7509697722947"><ele>289.0</ele><time>2026-04-25T08:54:40Z</time></trkpt><trkpt lat="45.73432692117609" lon="9.750838197074701"><ele>291.4</ele><time>2026-04-25T08:54:42Z</time></trkpt><trkpt lat="45.73427068488281" lon="9.750725077307331"><ele>293.79999999999995</ele><time>2026-04-25T08:54:44Z</time></trkpt><trkpt lat="45.73424136139322" lon="9.750632980641884"><ele>296.20000000000005</ele><time>2026-04-25T08:54:45Z</time></trkpt><trkpt lat="45.73418927317886" lon="9.750476750637281"><ele>298.6</ele><time>2026-04-25T08:54:47Z</time></trkpt><trkpt lat="45.73415280040785" lon="9.750398818394071"><ele>301.0</ele><time>2026-04-25T08:54:48Z</time></trkpt><trkpt lat="45.73409692694957" lon="9.75023049935768"><ele>299.5</ele><time>2026-04-25T08:54:50Z</time></trkpt><trkpt lat="45.7340746297089" lon="9.750143582815356"><ele>298.0</ele><time>2026-04-25T08:54:51Z</time></trkpt><trkpt lat="45.734034615702804" lon="9.74998327626687"><ele>296.5</ele><time>2026-04-25T08:54:53Z</time></trkpt><trkpt lat="45.73399616922755" lon="9.7498960565872"><ele>295.0</ele><time>2026-04-25T08:54:54Z</time></trkpt><trkpt lat="45.7339693116276" lon="9.7498083357793"><ele>293.5</ele><time>2026-04-25T08:54:55Z</time></trkpt><trkpt lat="45.733935001273665" lon="9.749726870863986"><ele>292.0</ele><time>2026-04-25T08:54:56Z</time></trkpt><trkpt lat="45.73390355875479" lon="9.749639903348205"><ele>292.0</ele><time>2026-04-25T08:54:57Z</time></trkpt><trkpt lat="45.73384697257604" lon="9.749478762410533"><ele>292.0</ele><time>2026-04-25T08:54:59Z</time></trkpt><trkpt lat="45.73380962802692" lon="9.74939998874669"><ele>292.0</ele><time>2026-04-25T08:55:00Z</time></trkpt><trkpt lat="45.733786073670586" lon="9.749312625559678"><ele>292.0</ele><time>2026-04-25T08:55:01Z</time></trkpt><trkpt lat="45.7337649661231" lon="9.749227219012386"><ele>292.0</ele><time>2026-04-25T08:55:02Z</time></trkpt><trkpt lat="45.73370959804677" lon="9.749057893295685"><ele>291.57142857142856</ele><time>2026-04-25T08:55:04Z</time></trkpt><trkpt lat="45.733679085447285" lon="9.748978136242169"><ele>291.14285714285717</ele><time>2026-04-25T08:55:05Z</time></trkpt><trkpt lat="45.73364021986868" lon="9.748901294657527"><ele>290.7142857142857</ele><time>2026-04-25T08:55:06Z</time></trkpt><trkpt lat="45.73359721911222" lon="9.748828685081508"><ele>290.2857142857143</ele><time>2026-04-25T08:55:07Z</time></trkpt><trkpt lat="45.73354914688432" lon="9.748761411170573"><ele>289.85714285714283</ele><time>2026-04-25T08:55:08Z</time></trkpt><trkpt lat="45.73349968063818" lon="9.748699249793024"><ele>289.42857142857144</ele><time>2026-04-25T08:55:09Z</time></trkpt><trkpt lat="45.733450742511216" lon="9.748640110379045"><ele>289.0</ele><time>2026-04-25T08:55:10Z</time></trkpt><trkpt lat="45.73340077246851" lon="9.748567582829347"><ele>289.5</ele><time>2026-04-25T08:55:11Z</time></trkpt><trkpt lat="45.733364806963934" lon="9.748490515146027"><ele>290.0</ele><time>2026-04-25T08:55:12Z</time></trkpt><trkpt lat="45.73333611102997" lon="9.748403088888065"><ele>290.5</ele><time>2026-04-25T08:55:13Z</time></trkpt><trkpt lat="45.733316473164116" lon="9.748234147257989"><ele>291.0</ele><time>2026-04-25T08:55:15Z</time></trkpt><trkpt lat="45.73329263842794" lon="9.7481437166788"><ele>291.5</ele><time>2026-04-25T08:55:16Z</time></trkpt><trkpt lat="45.73326952842215" lon="9.748042156142079"><ele>292.0</ele><time>2026-04-25T08:55:17Z</time></trkpt><trkpt lat="45.73321387524009" lon="9.747883990300505"><ele>292.0</ele><time>2026-04-25T08:55:19Z</time></trkpt><trkpt lat="45.73317334805571" lon="9.747807657137747"><ele>292.0</ele><time>2026-04-25T08:55:20Z</time></trkpt><trkpt lat="45.733085835881255" lon="9.747670050224764"><ele>292.0</ele><time>2026-04-25T08:55:22Z</time></trkpt><trkpt lat="45.733033719581044" lon="9.747615683272487"><ele>292.0</ele><time>2026-04-25T08:55:23Z</time></trkpt><trkpt lat="45.73299424699634" lon="9.747541929299105"><ele>292.0</ele><time>2026-04-25T08:55:24Z</time></trkpt><trkpt lat="45.73293832399832" lon="9.747498708374128"><ele>292.0</ele><time>2026-04-25T08:55:25Z</time></trkpt><trkpt lat="45.73285825458872" lon="9.74737680155515"><ele>291.5</ele><time>2026-04-25T08:55:27Z</time></trkpt><trkpt lat="45.732845765245386" lon="9.747286133828906"><ele>291.0</ele><time>2026-04-25T08:55:28Z</time></trkpt><trkpt lat="45.73284822106497" lon="9.747186665276004"><ele>290.5</ele><time>2026-04-25T08:55:29Z</time></trkpt><trkpt lat="45.73283476026591" lon="9.747005772898575"><ele>290.0</ele><time>2026-04-25T08:55:31Z</time></trkpt><trkpt lat="45.732827198748645" lon="9.74691000882765"><ele>289.5</ele><time>2026-04-25T08:55:32Z</time></trkpt><trkpt lat="45.73281760109819" lon="9.746814259596585"><ele>289.0</ele><time>2026-04-25T08:55:33Z</time></trkpt><trkpt lat="45.7328130238255" lon="9.746722942165643"><ele>288.57142857142856</ele><time>2026-04-25T08:55:34Z</time></trkpt><trkpt lat="45.732813200697194" lon="9.74662742388739"><ele>288.1428571428571</ele><time>2026-04-25T08:55:35Z</time></trkpt><trkpt lat="45.73281408618094" lon="9.746531874455805"><ele>287.71428571428567</ele><time>2026-04-25T08:55:36Z</time></trkpt><trkpt lat="45.732809867584535" lon="9.74644093303997"><ele>287.2857142857143</ele><time>2026-04-25T08:55:37Z</time></trkpt><trkpt lat="45.73280871682467" lon="9.746350414163807"><ele>286.85714285714283</ele><time>2026-04-25T08:55:38Z</time></trkpt><trkpt lat="45.732797160270124" lon="9.746252519952707"><ele>286.4285714285714</ele><time>2026-04-25T08:55:39Z</time></trkpt><trkpt lat="45.73277449614852" lon="9.746152384185166"><ele>286.0</ele><time>2026-04-25T08:55:40Z</time></trkpt><trkpt lat="45.73274830484078" lon="9.746058090308114"><ele>285.57142857142856</ele><time>2026-04-25T08:55:41Z</time></trkpt><trkpt lat="45.73272470407384" lon="9.74596189284718"><ele>285.1428571428571</ele><time>2026-04-25T08:55:42Z</time></trkpt><trkpt lat="45.7326996454023" lon="9.745868559867365"><ele>284.7142857142857</ele><time>2026-04-25T08:55:43Z</time></trkpt><trkpt lat="45.73267635044657" lon="9.745776366975386"><ele>284.2857142857143</ele><time>2026-04-25T08:55:44Z</time></trkpt><trkpt lat="45.73265746132012" lon="9.745681671519414"><ele>283.8571428571429</ele><time>2026-04-25T08:55:45Z</time></trkpt><trkpt lat="45.73264038565122" lon="9.7455922117954"><ele>283.42857142857144</ele><time>2026-04-25T08:55:46Z</time></trkpt><trkpt lat="45.73262390627961" lon="9.745501275856176"><ele>283.0</ele><time>2026-04-25T08:55:47Z</time></trkpt><trkpt lat="45.7326067914358" lon="9.745414159130542"><ele>284.8</ele><time>2026-04-25T08:55:48Z</time></trkpt><trkpt lat="45.73256479829596" lon="9.74525602888532"><ele>286.6</ele><time>2026-04-25T08:55:50Z</time></trkpt><trkpt lat="45.73251441883479" lon="9.745074745202386"><ele>288.4</ele><time>2026-04-25T08:55:52Z</time></trkpt><trkpt lat="45.73248772656251" lon="9.744991046457873"><ele>290.2</ele><time>2026-04-25T08:55:53Z</time></trkpt><trkpt lat="45.7324591586981" lon="9.744907161485663"><ele>292.0</ele><time>2026-04-25T08:55:54Z</time></trkpt><trkpt lat="45.732412382431015" lon="9.744734806300421"><ele>292.0</ele><time>2026-04-25T08:55:56Z</time></trkpt><trkpt lat="45.73239543464743" lon="9.744643758647179"><ele>292.0</ele><time>2026-04-25T08:55:57Z</time></trkpt><trkpt lat="45.732376242361525" lon="9.744553324850585"><ele>292.0</ele><time>2026-04-25T08:55:58Z</time></trkpt><trkpt lat="45.73236039839206" lon="9.744462252224265"><ele>292.0</ele><time>2026-04-25T08:55:59Z</time></trkpt><trkpt lat="45.73234479539892" lon="9.744371971077603"><ele>292.0</ele><time>2026-04-25T08:56:00Z</time></trkpt><trkpt lat="45.73233003800238" lon="9.74428049401397"><ele>292.0</ele><time>2026-04-25T08:56:01Z</time></trkpt><trkpt lat="45.73231195498039" lon="9.744184658376392"><ele>292.0</ele><time>2026-04-25T08:56:02Z</time></trkpt><trkpt lat="45.732276909377006" lon="9.744026425243339"><ele>291.0</ele><time>2026-04-25T08:56:04Z</time></trkpt><trkpt lat="45.73224534616067" lon="9.743872635327493"><ele>290.0</ele><time>2026-04-25T08:56:06Z</time></trkpt><trkpt lat="45.732210077001916" lon="9.743701694069422"><ele>289.0</ele><time>2026-04-25T08:56:08Z</time></trkpt><trkpt lat="45.73219086377157" lon="9.743607874224782"><ele>288.0</ele><time>2026-04-25T08:56:09Z</time></trkpt><trkpt lat="45.73217366744997" lon="9.74351727099866"><ele>287.0</ele><time>2026-04-25T08:56:10Z</time></trkpt><trkpt lat="45.73213490430586" lon="9.743354309937516"><ele>286.6666666666667</ele><time>2026-04-25T08:56:12Z</time></trkpt><trkpt lat="45.73209867164754" lon="9.743197989516228"><ele>286.33333333333337</ele><time>2026-04-25T08:56:14Z</time></trkpt><trkpt lat="45.73205960413571" lon="9.743048233984997"><ele>286.0</ele><time>2026-04-25T08:56:16Z</time></trkpt><trkpt lat="45.73203417690468" lon="9.742965216131925"><ele>285.6666666666667</ele><time>2026-04-25T08:56:17Z</time></trkpt><trkpt lat="45.73201120099317" lon="9.742877810223494"><ele>285.3333333333333</ele><time>2026-04-25T08:56:18Z</time></trkpt><trkpt lat="45.731986133819085" lon="9.742792340406973"><ele>285.0</ele><time>2026-04-25T08:56:19Z</time></trkpt><trkpt lat="45.73195900622516" lon="9.742707409583943"><ele>284.8</ele><time>2026-04-25T08:56:20Z</time></trkpt><trkpt lat="45.73190986818631" lon="9.742559038298625"><ele>284.6</ele><time>2026-04-25T08:56:22Z</time></trkpt><trkpt lat="45.73187704021244" lon="9.74247805987242"><ele>284.4</ele><time>2026-04-25T08:56:23Z</time></trkpt><trkpt lat="45.73179549099474" lon="9.742347039671648"><ele>284.2</ele><time>2026-04-25T08:56:25Z</time></trkpt><trkpt lat="45.73170425411308" lon="9.742236496885523"><ele>284.0</ele><time>2026-04-25T08:56:27Z</time></trkpt><trkpt lat="45.73161719380059" lon="9.742104412466054"><ele>285.0</ele><time>2026-04-25T08:56:29Z</time></trkpt><trkpt lat="45.73153826526586" lon="9.741986245517618"><ele>286.0</ele><time>2026-04-25T08:56:31Z</time></trkpt><trkpt lat="45.731459042795805" lon="9.741869123702724"><ele>287.0</ele><time>2026-04-25T08:56:33Z</time></trkpt><trkpt lat="45.731366644263595" lon="9.741730194091302"><ele>288.0</ele><time>2026-04-25T08:56:35Z</time></trkpt><trkpt lat="45.73127483516145" lon="9.741606734093105"><ele>288.00000000000006</ele><time>2026-04-25T08:56:37Z</time></trkpt><trkpt lat="45.73122193342041" lon="9.74155114277778"><ele>288.0</ele><time>2026-04-25T08:56:38Z</time></trkpt><trkpt lat="45.7311643226426" lon="9.741507136268071"><ele>288.0</ele><time>2026-04-25T08:56:39Z</time></trkpt><trkpt lat="45.7311052853941" lon="9.74146320773818"><ele>288.0</ele><time>2026-04-25T08:56:40Z</time></trkpt><trkpt lat="45.731044869380476" lon="9.741424731459185"><ele>288.0</ele><time>2026-04-25T08:56:41Z</time></trkpt><trkpt lat="45.730984118190314" lon="9.741390639610762"><ele>288.00000000000006</ele><time>2026-04-25T08:56:42Z</time></trkpt><trkpt lat="45.73092343984395" lon="9.741359016585726"><ele>288.0</ele><time>2026-04-25T08:56:43Z</time></trkpt><trkpt lat="45.730796393873824" lon="9.741298512179004"><ele>287.6666666666667</ele><time>2026-04-25T08:56:45Z</time></trkpt><trkpt lat="45.730670725177916" lon="9.741246763749972"><ele>287.3333333333333</ele><time>2026-04-25T08:56:47Z</time></trkpt><trkpt lat="45.730612372246206" lon="9.741209367341412"><ele>287.0</ele><time>2026-04-25T08:56:48Z</time></trkpt><trkpt lat="45.73055053758736" lon="9.74117375019616"><ele>286.66666666666663</ele><time>2026-04-25T08:56:49Z</time></trkpt><trkpt lat="45.73049335067967" lon="9.741128834474713"><ele>286.3333333333333</ele><time>2026-04-25T08:56:50Z</time></trkpt><trkpt lat="45.73043967368196" lon="9.741074579842108"><ele>286.0</ele><time>2026-04-25T08:56:51Z</time></trkpt><trkpt lat="45.7303890150803" lon="9.741013198753672"><ele>286.0</ele><time>2026-04-25T08:56:52Z</time></trkpt><trkpt lat="45.73034238641604" lon="9.740947578077364"><ele>286.0</ele><time>2026-04-25T08:56:53Z</time></trkpt><trkpt lat="45.7302932971754" lon="9.740883640517243"><ele>286.0</ele><time>2026-04-25T08:56:54Z</time></trkpt><trkpt lat="45.730247341357426" lon="9.740816158766489"><ele>286.0</ele><time>2026-04-25T08:56:55Z</time></trkpt><trkpt lat="45.73020060133005" lon="9.740755285348403"><ele>286.0</ele><time>2026-04-25T08:56:56Z</time></trkpt><trkpt lat="45.73015684147142" lon="9.740687432458214"><ele>286.0</ele><time>2026-04-25T08:56:57Z</time></trkpt><trkpt lat="45.73006606145011" lon="9.74056033061295"><ele>286.40000000000003</ele><time>2026-04-25T08:56:59Z</time></trkpt><trkpt lat="45.73001943161231" lon="9.740496198934482"><ele>286.8</ele><time>2026-04-25T08:57:00Z</time></trkpt><trkpt lat="45.72993320096212" lon="9.740362385119266"><ele>287.20000000000005</ele><time>2026-04-25T08:57:02Z</time></trkpt><trkpt lat="45.72988550399501" lon="9.740299831605439"><ele>287.6</ele><time>2026-04-25T08:57:03Z</time></trkpt><trkpt lat="45.72983408537382" lon="9.740242302752204"><ele>288.0</ele><time>2026-04-25T08:57:04Z</time></trkpt><trkpt lat="45.72972457021241" lon="9.740146682219356"><ele>287.0</ele><time>2026-04-25T08:57:06Z</time></trkpt><trkpt lat="45.729606296435406" lon="9.740100887019416"><ele>286.0</ele><time>2026-04-25T08:57:08Z</time></trkpt><trkpt lat="45.72954742796419" lon="9.740059233705878"><ele>285.0</ele><time>2026-04-25T08:57:09Z</time></trkpt><trkpt lat="45.729427279724135" lon="9.740028992035883"><ele>284.0</ele><time>2026-04-25T08:57:11Z</time></trkpt><trkpt lat="45.72930600724593" lon="9.740014740932727"><ele>283.0</ele><time>2026-04-25T08:57:13Z</time></trkpt><trkpt lat="45.72918509092037" lon="9.740020915187854"><ele>283.0</ele><time>2026-04-25T08:57:15Z</time></trkpt><trkpt lat="45.729067729241855" lon="9.740035951822794"><ele>283.0</ele><time>2026-04-25T08:57:17Z</time></trkpt><trkpt lat="45.72894967146395" lon="9.740069388453387"><ele>283.0</ele><time>2026-04-25T08:57:19Z</time></trkpt><trkpt lat="45.72883049784077" lon="9.740087468626973"><ele>283.0</ele><time>2026-04-25T08:57:21Z</time></trkpt><trkpt lat="45.72871214078083" lon="9.740111354307254"><ele>283.0</ele><time>2026-04-25T08:57:23Z</time></trkpt><trkpt lat="45.72864707626807" lon="9.740128483029174"><ele>283.0</ele><time>2026-04-25T08:57:24Z</time></trkpt><trkpt lat="45.72857863059942" lon="9.740135754038729"><ele>283.0</ele><time>2026-04-25T08:57:25Z</time></trkpt><trkpt lat="45.728515734440016" lon="9.740151357573785"><ele>283.0</ele><time>2026-04-25T08:57:26Z</time></trkpt><trkpt lat="45.728451077210266" lon="9.740164063184132"><ele>283.0</ele><time>2026-04-25T08:57:27Z</time></trkpt><trkpt lat="45.72838523643654" lon="9.740171564600818"><ele>283.0</ele><time>2026-04-25T08:57:28Z</time></trkpt><trkpt lat="45.728319921591414" lon="9.740177294349376"><ele>283.0</ele><time>2026-04-25T08:57:29Z</time></trkpt><trkpt lat="45.728256668037645" lon="9.740177278911158"><ele>282.75</ele><time>2026-04-25T08:57:30Z</time></trkpt><trkpt lat="45.72812668537926" lon="9.740177992203128"><ele>282.5</ele><time>2026-04-25T08:57:32Z</time></trkpt><trkpt lat="45.727933348158295" lon="9.740154583804744"><ele>282.25</ele><time>2026-04-25T08:57:35Z</time></trkpt><trkpt lat="45.72786997049811" lon="9.740149632726707"><ele>282.0</ele><time>2026-04-25T08:57:36Z</time></trkpt><trkpt lat="45.72780696056655" lon="9.740147989085518"><ele>282.0</ele><time>2026-04-25T08:57:37Z</time></trkpt><trkpt lat="45.727685554100006" lon="9.740139884462605"><ele>282.0</ele><time>2026-04-25T08:57:39Z</time></trkpt><trkpt lat="45.72757248586868" lon="9.740126262613003"><ele>282.0</ele><time>2026-04-25T08:57:41Z</time></trkpt><trkpt lat="45.72745631006724" lon="9.740100892245794"><ele>282.0</ele><time>2026-04-25T08:57:43Z</time></trkpt><trkpt lat="45.72733322388505" lon="9.74006699573474"><ele>282.0</ele><time>2026-04-25T08:57:45Z</time></trkpt><trkpt lat="45.727271678270206" lon="9.740045350370151"><ele>282.0</ele><time>2026-04-25T08:57:46Z</time></trkpt><trkpt lat="45.727158668748686" lon="9.739995909913114"><ele>282.0</ele><time>2026-04-25T08:57:48Z</time></trkpt><trkpt lat="45.72705031681872" lon="9.739939531519473"><ele>282.0</ele><time>2026-04-25T08:57:50Z</time></trkpt><trkpt lat="45.72699046979642" lon="9.739908862260625"><ele>282.0</ele><time>2026-04-25T08:57:51Z</time></trkpt><trkpt lat="45.72692772597786" lon="9.73987997056797"><ele>282.0</ele><time>2026-04-25T08:57:52Z</time></trkpt><trkpt lat="45.726868118324774" lon="9.73984654744405"><ele>282.0</ele><time>2026-04-25T08:57:53Z</time></trkpt><trkpt lat="45.7268021111855" lon="9.739821790177412"><ele>282.0</ele><time>2026-04-25T08:57:54Z</time></trkpt><trkpt lat="45.726694011633434" lon="9.739740540098893"><ele>282.0</ele><time>2026-04-25T08:57:56Z</time></trkpt><trkpt lat="45.72662875184836" lon="9.739714359817699"><ele>282.0</ele><time>2026-04-25T08:57:57Z</time></trkpt><trkpt lat="45.72657024552792" lon="9.739677574363514"><ele>282.0</ele><time>2026-04-25T08:57:58Z</time></trkpt><trkpt lat="45.72651166402632" lon="9.739634741084892"><ele>282.0</ele><time>2026-04-25T08:57:59Z</time></trkpt><trkpt lat="45.72644609904717" lon="9.739609172177113"><ele>282.0</ele><time>2026-04-25T08:58:00Z</time></trkpt><trkpt lat="45.726384838366535" lon="9.739570917100147"><ele>282.0</ele><time>2026-04-25T08:58:01Z</time></trkpt><trkpt lat="45.726325921888304" lon="9.739535342999986"><ele>282.0</ele><time>2026-04-25T08:58:02Z</time></trkpt><trkpt lat="45.72626663339614" lon="9.739495631945632"><ele>282.0</ele><time>2026-04-25T08:58:03Z</time></trkpt><trkpt lat="45.72620932552081" lon="9.739452399578516"><ele>282.0</ele><time>2026-04-25T08:58:04Z</time></trkpt><trkpt lat="45.72615518198021" lon="9.739393485208371"><ele>282.0</ele><time>2026-04-25T08:58:05Z</time></trkpt><trkpt lat="45.726054203121365" lon="9.73929254722045"><ele>282.2</ele><time>2026-04-25T08:58:07Z</time></trkpt><trkpt lat="45.725942638882074" lon="9.739193162495479"><ele>282.4</ele><time>2026-04-25T08:58:09Z</time></trkpt><trkpt lat="45.725891107154695" lon="9.739125897871382"><ele>282.6</ele><time>2026-04-25T08:58:10Z</time></trkpt><trkpt lat="45.725786484622205" lon="9.739030828888486"><ele>282.8</ele><time>2026-04-25T08:58:12Z</time></trkpt><trkpt lat="45.7257471527735" lon="9.738959943245499"><ele>283.0</ele><time>2026-04-25T08:58:13Z</time></trkpt><trkpt lat="45.725696919800434" lon="9.738902113683892"><ele>283.0</ele><time>2026-04-25T08:58:14Z</time></trkpt><trkpt lat="45.725604670458914" lon="9.738777385222615"><ele>283.0</ele><time>2026-04-25T08:58:16Z</time></trkpt><trkpt lat="45.7255115710357" lon="9.738661981462688"><ele>283.0</ele><time>2026-04-25T08:58:18Z</time></trkpt><trkpt lat="45.72544669988436" lon="9.73862961914841"><ele>283.0</ele><time>2026-04-25T08:58:19Z</time></trkpt><trkpt lat="45.72533204353915" lon="9.738558364417305"><ele>283.0</ele><time>2026-04-25T08:58:21Z</time></trkpt><trkpt lat="45.725220506257706" lon="9.738504185516632"><ele>282.6</ele><time>2026-04-25T08:58:23Z</time></trkpt><trkpt lat="45.72510915101271" lon="9.738464835589125"><ele>282.20000000000005</ele><time>2026-04-25T08:58:25Z</time></trkpt><trkpt lat="45.725036789487525" lon="9.738443469307972"><ele>281.8</ele><time>2026-04-25T08:58:26Z</time></trkpt><trkpt lat="45.72492565464472" lon="9.73835901121281"><ele>281.40000000000003</ele><time>2026-04-25T08:58:28Z</time></trkpt><trkpt lat="45.724858449856555" lon="9.738330017377972"><ele>281.0</ele><time>2026-04-25T08:58:29Z</time></trkpt><trkpt lat="45.724789128849025" lon="9.738309958640047"><ele>281.0</ele><time>2026-04-25T08:58:30Z</time></trkpt><trkpt lat="45.72469247793876" lon="9.738204812997532"><ele>281.0</ele><time>2026-04-25T08:58:32Z</time></trkpt><trkpt lat="45.72462735326287" lon="9.738154384887597"><ele>281.0</ele><time>2026-04-25T08:58:33Z</time></trkpt><trkpt lat="45.7245318377573" lon="9.738040879039124"><ele>281.0</ele><time>2026-04-25T08:58:35Z</time></trkpt><trkpt lat="45.7244648440369" lon="9.737994033165144"><ele>281.0</ele><time>2026-04-25T08:58:36Z</time></trkpt><trkpt lat="45.72437389878139" lon="9.737870093270912"><ele>281.0</ele><time>2026-04-25T08:58:38Z</time></trkpt><trkpt lat="45.72432092586695" lon="9.737806691781616"><ele>281.0</ele><time>2026-04-25T08:58:39Z</time></trkpt><trkpt lat="45.72423400399832" lon="9.737689871327238"><ele>281.0</ele><time>2026-04-25T08:58:41Z</time></trkpt><trkpt lat="45.724176052497654" lon="9.737634642429262"><ele>281.0</ele><time>2026-04-25T08:58:42Z</time></trkpt><trkpt lat="45.724114253825554" lon="9.737538751649787"><ele>281.0</ele><time>2026-04-25T08:58:44Z</time></trkpt><trkpt lat="45.72405597539034" lon="9.737447152137257"><ele>281.0</ele><time>2026-04-25T08:58:46Z</time></trkpt><trkpt lat="45.72402542246015" lon="9.737363385838584"><ele>281.0</ele><time>2026-04-25T08:58:48Z</time></trkpt><trkpt lat="45.724096985082014" lon="9.73738822408463"><ele>281.0</ele><time>2026-04-25T08:58:51Z</time></trkpt><trkpt lat="45.72410387919215" lon="9.737518655771856"><ele>281.0</ele><time>2026-04-25T08:58:53Z</time></trkpt><trkpt lat="45.72416661039245" lon="9.737624007591673"><ele>281.0</ele><time>2026-04-25T08:58:55Z</time></trkpt><trkpt lat="45.724242301083194" lon="9.737598203793763"><ele>281.0</ele><time>2026-04-25T08:58:56Z</time></trkpt><trkpt lat="45.72430839897722" lon="9.737534710320176"><ele>281.0</ele><time>2026-04-25T08:58:57Z</time></trkpt><trkpt lat="45.72436432367036" lon="9.73746145715135"><ele>280.5714285714286</ele><time>2026-04-25T08:58:58Z</time></trkpt><trkpt lat="45.72441943706831" lon="9.737390360602893"><ele>280.14285714285717</ele><time>2026-04-25T08:58:59Z</time></trkpt><trkpt lat="45.724474069059916" lon="9.737318709964237"><ele>279.7142857142857</ele><time>2026-04-25T08:59:00Z</time></trkpt><trkpt lat="45.72453045349623" lon="9.737250776344498"><ele>279.28571428571433</ele><time>2026-04-25T08:59:01Z</time></trkpt><trkpt lat="45.724575405088174" lon="9.737178103727532"><ele>278.8571428571429</ele><time>2026-04-25T08:59:02Z</time></trkpt><trkpt lat="45.72462914887708" lon="9.737102316397033"><ele>278.42857142857144</ele><time>2026-04-25T08:59:03Z</time></trkpt><trkpt lat="45.72468352566926" lon="9.737029237128986"><ele>278.0</ele><time>2026-04-25T08:59:04Z</time></trkpt><trkpt lat="45.72472430604986" lon="9.736951445825312"><ele>277.83333333333337</ele><time>2026-04-25T08:59:05Z</time></trkpt><trkpt lat="45.72476227304504" lon="9.736872359253077"><ele>277.6666666666667</ele><time>2026-04-25T08:59:06Z</time></trkpt><trkpt lat="45.72483916580781" lon="9.736796238031722"><ele>277.5</ele><time>2026-04-25T08:59:07Z</time></trkpt><trkpt lat="45.72488307633367" lon="9.736728969665057"><ele>277.3333333333333</ele><time>2026-04-25T08:59:08Z</time></trkpt><trkpt lat="45.724947342047145" lon="9.736657186184019"><ele>277.16666666666663</ele><time>2026-04-25T08:59:09Z</time></trkpt><trkpt lat="45.72500057724762" lon="9.736589002868358"><ele>277.0</ele><time>2026-04-25T08:59:10Z</time></trkpt><trkpt lat="45.725054912997585" lon="9.736518398796644"><ele>277.0</ele><time>2026-04-25T08:59:11Z</time></trkpt><trkpt lat="45.725101262251826" lon="9.73645090494465"><ele>277.0</ele><time>2026-04-25T08:59:12Z</time></trkpt><trkpt lat="45.725150204156876" lon="9.736378963520997"><ele>277.0</ele><time>2026-04-25T08:59:13Z</time></trkpt><trkpt lat="45.72519969377767" lon="9.736309830298296"><ele>277.0</ele><time>2026-04-25T08:59:14Z</time></trkpt><trkpt lat="45.72524706513117" lon="9.736234853166032"><ele>277.0</ele><time>2026-04-25T08:59:15Z</time></trkpt><trkpt lat="45.72529091212937" lon="9.736164649446321"><ele>277.0</ele><time>2026-04-25T08:59:16Z</time></trkpt><trkpt lat="45.72534183990169" lon="9.736101717215035"><ele>277.0</ele><time>2026-04-25T08:59:17Z</time></trkpt><trkpt lat="45.72538606403737" lon="9.73603698794137"><ele>276.8333333333333</ele><time>2026-04-25T08:59:18Z</time></trkpt><trkpt lat="45.72542990030062" lon="9.735967478078418"><ele>276.66666666666663</ele><time>2026-04-25T08:59:19Z</time></trkpt><trkpt lat="45.72550961494135" lon="9.735823528918209"><ele>276.5</ele><time>2026-04-25T08:59:21Z</time></trkpt><trkpt lat="45.72554981280199" lon="9.735750557337571"><ele>276.3333333333333</ele><time>2026-04-25T08:59:22Z</time></trkpt><trkpt lat="45.72559407615182" lon="9.735682627587344"><ele>276.1666666666667</ele><time>2026-04-25T08:59:23Z</time></trkpt><trkpt lat="45.725668136911246" lon="9.735551419762274"><ele>276.0</ele><time>2026-04-25T08:59:25Z</time></trkpt><trkpt lat="45.72566782598027" lon="9.735437579542548"><ele>276.0</ele><time>2026-04-25T08:59:27Z</time></trkpt><trkpt lat="45.72559005133979" lon="9.735413240434106"><ele>276.0</ele><time>2026-04-25T08:59:29Z</time></trkpt><trkpt lat="45.72556221488502" lon="9.735325180618863"><ele>276.0</ele><time>2026-04-25T08:59:33Z</time></trkpt><trkpt lat="45.72548553147656" lon="9.73525823607028"><ele>276.0</ele><time>2026-04-25T08:59:35Z</time></trkpt><trkpt lat="45.72540854831775" lon="9.73511859649637"><ele>276.0</ele><time>2026-04-25T08:59:37Z</time></trkpt><trkpt lat="45.72536731806012" lon="9.735050325934079"><ele>276.0</ele><time>2026-04-25T08:59:38Z</time></trkpt><trkpt lat="45.72529533281966" lon="9.734909050539068"><ele>275.6666666666667</ele><time>2026-04-25T08:59:40Z</time></trkpt><trkpt lat="45.725256785161" lon="9.734830561749918"><ele>275.3333333333333</ele><time>2026-04-25T08:59:41Z</time></trkpt><trkpt lat="45.72521673792795" lon="9.734758876073531"><ele>275.0</ele><time>2026-04-25T08:59:42Z</time></trkpt><trkpt lat="45.72516592501622" lon="9.73469503724696"><ele>274.66666666666663</ele><time>2026-04-25T08:59:43Z</time></trkpt><trkpt lat="45.725124674594994" lon="9.734623705825047"><ele>274.3333333333333</ele><time>2026-04-25T08:59:44Z</time></trkpt><trkpt lat="45.72508547020546" lon="9.734546783062434"><ele>274.0</ele><time>2026-04-25T08:59:45Z</time></trkpt><trkpt lat="45.72500320127426" lon="9.734406937882119"><ele>274.16666666666663</ele><time>2026-04-25T08:59:47Z</time></trkpt><trkpt lat="45.72496384004897" lon="9.73433543765775"><ele>274.3333333333333</ele><time>2026-04-25T08:59:48Z</time></trkpt><trkpt lat="45.724926213157744" lon="9.73426082197311"><ele>274.5</ele><time>2026-04-25T08:59:49Z</time></trkpt><trkpt lat="45.72488270229223" lon="9.734181474714871"><ele>274.6666666666667</ele><time>2026-04-25T08:59:50Z</time></trkpt><trkpt lat="45.724806146221525" lon="9.734050237682725"><ele>274.83333333333337</ele><time>2026-04-25T08:59:52Z</time></trkpt><trkpt lat="45.724740798292004" lon="9.733906096964"><ele>275.0</ele><time>2026-04-25T08:59:54Z</time></trkpt><trkpt lat="45.72470550532144" lon="9.733819482728574"><ele>275.0</ele><time>2026-04-25T08:59:55Z</time></trkpt><trkpt lat="45.72467054308897" lon="9.73372167337367"><ele>275.0</ele><time>2026-04-25T08:59:56Z</time></trkpt><trkpt lat="45.724744186695816" lon="9.73376128145544"><ele>275.0</ele><time>2026-04-25T08:59:57Z</time></trkpt><trkpt lat="45.72480745247381" lon="9.733740116553857"><ele>275.0</ele><time>2026-04-25T08:59:59Z</time></trkpt><trkpt lat="45.72486753237976" lon="9.733695896950547"><ele>275.0</ele><time>2026-04-25T09:00:01Z</time></trkpt><trkpt lat="45.72496938146872" lon="9.733650402000283"><ele>275.0</ele><time>2026-04-25T09:00:03Z</time></trkpt><trkpt lat="45.725035405616126" lon="9.733634443748937"><ele>275.0</ele><time>2026-04-25T09:00:04Z</time></trkpt><trkpt lat="45.72510086270758" lon="9.733600484795732"><ele>275.0</ele><time>2026-04-25T09:00:05Z</time></trkpt><trkpt lat="45.72519367244472" lon="9.733452913181878"><ele>275.0</ele><time>2026-04-25T09:00:07Z</time></trkpt><trkpt lat="45.72519997084366" lon="9.733356321966404"><ele>275.0</ele><time>2026-04-25T09:00:08Z</time></trkpt><trkpt lat="45.725172462213926" lon="9.733253371471413"><ele>275.0</ele><time>2026-04-25T09:00:09Z</time></trkpt><trkpt lat="45.72514088611857" lon="9.733160856716212"><ele>275.0</ele><time>2026-04-25T09:00:10Z</time></trkpt><trkpt lat="45.72511617823003" lon="9.733068015208856"><ele>275.0</ele><time>2026-04-25T09:00:11Z</time></trkpt><trkpt lat="45.72508412376803" lon="9.732974219144415"><ele>275.0</ele><time>2026-04-25T09:00:12Z</time></trkpt><trkpt lat="45.72505457279563" lon="9.732882889147843"><ele>275.0</ele><time>2026-04-25T09:00:13Z</time></trkpt><trkpt lat="45.725027495932345" lon="9.732795573018596"><ele>275.0</ele><time>2026-04-25T09:00:14Z</time></trkpt><trkpt lat="45.72501024784781" lon="9.732708582023497"><ele>275.0</ele><time>2026-04-25T09:00:15Z</time></trkpt><trkpt lat="45.72499460558947" lon="9.732616417874667"><ele>275.0</ele><time>2026-04-25T09:00:16Z</time></trkpt><trkpt lat="45.7249781271852" lon="9.732526357476798"><ele>275.0</ele><time>2026-04-25T09:00:17Z</time></trkpt><trkpt lat="45.72496059154357" lon="9.732436964292635"><ele>274.7142857142857</ele><time>2026-04-25T09:00:18Z</time></trkpt><trkpt lat="45.72494322740143" lon="9.732347877000343"><ele>274.42857142857144</ele><time>2026-04-25T09:00:19Z</time></trkpt><trkpt lat="45.72491742922434" lon="9.73225844700049"><ele>274.1428571428571</ele><time>2026-04-25T09:00:20Z</time></trkpt><trkpt lat="45.72488780799198" lon="9.732173267858013"><ele>273.8571428571429</ele><time>2026-04-25T09:00:21Z</time></trkpt><trkpt lat="45.724853950850225" lon="9.73208642791798"><ele>273.57142857142856</ele><time>2026-04-25T09:00:22Z</time></trkpt><trkpt lat="45.7248223484133" lon="9.732005341292952"><ele>273.2857142857143</ele><time>2026-04-25T09:00:23Z</time></trkpt><trkpt lat="45.72478405594168" lon="9.731925207621826"><ele>273.0</ele><time>2026-04-25T09:00:24Z</time></trkpt><trkpt lat="45.72473932643736" lon="9.731854000623425"><ele>273.0</ele><time>2026-04-25T09:00:25Z</time></trkpt><trkpt lat="45.72468908989335" lon="9.73178274924219"><ele>273.0</ele><time>2026-04-25T09:00:26Z</time></trkpt><trkpt lat="45.72464993112756" lon="9.731705465119608"><ele>273.0</ele><time>2026-04-25T09:00:27Z</time></trkpt><trkpt lat="45.72459588724964" lon="9.731636874909903"><ele>273.0</ele><time>2026-04-25T09:00:28Z</time></trkpt><trkpt lat="45.72449252630701" lon="9.731527912106005"><ele>273.0</ele><time>2026-04-25T09:00:30Z</time></trkpt><trkpt lat="45.72444603802313" lon="9.731464559076873"><ele>273.0</ele><time>2026-04-25T09:00:31Z</time></trkpt><trkpt lat="45.724345674242926" lon="9.731344447149839"><ele>273.0</ele><time>2026-04-25T09:00:33Z</time></trkpt><trkpt lat="45.724296920363386" lon="9.73128006683643"><ele>273.0</ele><time>2026-04-25T09:00:34Z</time></trkpt><trkpt lat="45.72424569950086" lon="9.731222322561043"><ele>273.0</ele><time>2026-04-25T09:00:35Z</time></trkpt><trkpt lat="45.724195187669096" lon="9.731162756905357"><ele>273.0</ele><time>2026-04-25T09:00:36Z</time></trkpt><trkpt lat="45.72414909753508" lon="9.731097407999385"><ele>273.0</ele><time>2026-04-25T09:00:37Z</time></trkpt><trkpt lat="45.724099146948106" lon="9.73103673608422"><ele>273.0</ele><time>2026-04-25T09:00:38Z</time></trkpt><trkpt lat="45.72404465892756" lon="9.730976701750038"><ele>273.0</ele><time>2026-04-25T09:00:39Z</time></trkpt><trkpt lat="45.723991266425635" lon="9.73092269947708"><ele>273.0</ele><time>2026-04-25T09:00:40Z</time></trkpt><trkpt lat="45.72393944571992" lon="9.730868667855763"><ele>273.0</ele><time>2026-04-25T09:00:41Z</time></trkpt><trkpt lat="45.723886166200536" lon="9.730813581566009"><ele>273.0</ele><time>2026-04-25T09:00:42Z</time></trkpt><trkpt lat="45.723837906907505" lon="9.730754957322754"><ele>273.0</ele><time>2026-04-25T09:00:43Z</time></trkpt><trkpt lat="45.72378628485267" lon="9.730691941654975"><ele>273.0</ele><time>2026-04-25T09:00:44Z</time></trkpt><trkpt lat="45.72373675247157" lon="9.730629311452686"><ele>273.0</ele><time>2026-04-25T09:00:45Z</time></trkpt><trkpt lat="45.723683679252375" lon="9.730569010318485"><ele>273.0</ele><time>2026-04-25T09:00:46Z</time></trkpt><trkpt lat="45.723633891986836" lon="9.730503049071682"><ele>273.0</ele><time>2026-04-25T09:00:47Z</time></trkpt><trkpt lat="45.72358365387186" lon="9.730439395050404"><ele>273.0</ele><time>2026-04-25T09:00:48Z</time></trkpt><trkpt lat="45.72353410025592" lon="9.730381431723686"><ele>273.0</ele><time>2026-04-25T09:00:49Z</time></trkpt><trkpt lat="45.72348360358043" lon="9.730323578939043"><ele>273.0</ele><time>2026-04-25T09:00:50Z</time></trkpt><trkpt lat="45.723431463975054" lon="9.73026033078397"><ele>273.0</ele><time>2026-04-25T09:00:51Z</time></trkpt><trkpt lat="45.72332588549601" lon="9.730172257384442"><ele>273.0</ele><time>2026-04-25T09:00:53Z</time></trkpt><trkpt lat="45.72327069974624" lon="9.730117790314836"><ele>272.8333333333333</ele><time>2026-04-25T09:00:54Z</time></trkpt><trkpt lat="45.72321703067967" lon="9.730070155163544"><ele>272.6666666666667</ele><time>2026-04-25T09:00:55Z</time></trkpt><trkpt lat="45.72316220082899" lon="9.73002295534403"><ele>272.5</ele><time>2026-04-25T09:00:56Z</time></trkpt><trkpt lat="45.72310691533142" lon="9.729971761947477"><ele>272.33333333333337</ele><time>2026-04-25T09:00:57Z</time></trkpt><trkpt lat="45.723052477603595" lon="9.729925202753018"><ele>272.1666666666667</ele><time>2026-04-25T09:00:58Z</time></trkpt><trkpt lat="45.722938611962185" lon="9.729820738167307"><ele>272.0</ele><time>2026-04-25T09:01:00Z</time></trkpt><trkpt lat="45.72282827583426" lon="9.729733716797941"><ele>272.0</ele><time>2026-04-25T09:01:02Z</time></trkpt><trkpt lat="45.72277222843492" lon="9.72969052727559"><ele>272.0</ele><time>2026-04-25T09:01:03Z</time></trkpt><trkpt lat="45.72271481037188" lon="9.729638552371492"><ele>272.0</ele><time>2026-04-25T09:01:04Z</time></trkpt><trkpt lat="45.72260748931575" lon="9.72955224118076"><ele>272.0</ele><time>2026-04-25T09:01:06Z</time></trkpt><trkpt lat="45.72255135034012" lon="9.729490582042757"><ele>272.0</ele><time>2026-04-25T09:01:07Z</time></trkpt><trkpt lat="45.72246313443089" lon="9.729355027306218"><ele>271.6666666666667</ele><time>2026-04-25T09:01:09Z</time></trkpt><trkpt lat="45.722419869421685" lon="9.72928836852464"><ele>271.33333333333337</ele><time>2026-04-25T09:01:10Z</time></trkpt><trkpt lat="45.72236397543708" lon="9.729234304682949"><ele>271.0</ele><time>2026-04-25T09:01:11Z</time></trkpt><trkpt lat="45.72231089186144" lon="9.729185192118509"><ele>270.6666666666667</ele><time>2026-04-25T09:01:12Z</time></trkpt><trkpt lat="45.722246873749626" lon="9.729161826613158"><ele>270.3333333333333</ele><time>2026-04-25T09:01:13Z</time></trkpt><trkpt lat="45.72211818654256" lon="9.729119568976023"><ele>270.0</ele><time>2026-04-25T09:01:15Z</time></trkpt><trkpt lat="45.72205538520595" lon="9.729095629281522"><ele>270.0</ele><time>2026-04-25T09:01:16Z</time></trkpt><trkpt lat="45.721998631261044" lon="9.7290419898266"><ele>270.0</ele><time>2026-04-25T09:01:17Z</time></trkpt><trkpt lat="45.721944361770156" lon="9.728990767303712"><ele>270.0</ele><time>2026-04-25T09:01:18Z</time></trkpt><trkpt lat="45.72188996327464" lon="9.728936723557256"><ele>270.0</ele><time>2026-04-25T09:01:19Z</time></trkpt><trkpt lat="45.72183460955287" lon="9.728893251845566"><ele>270.0</ele><time>2026-04-25T09:01:20Z</time></trkpt><trkpt lat="45.721776577107065" lon="9.728850604085713"><ele>270.0</ele><time>2026-04-25T09:01:21Z</time></trkpt><trkpt lat="45.7217205475546" lon="9.728802619145661"><ele>270.0</ele><time>2026-04-25T09:01:22Z</time></trkpt><trkpt lat="45.72161252972811" lon="9.728702961810155"><ele>269.8333333333333</ele><time>2026-04-25T09:01:24Z</time></trkpt><trkpt lat="45.72155781097793" lon="9.728655735751513"><ele>269.6666666666667</ele><time>2026-04-25T09:01:25Z</time></trkpt><trkpt lat="45.7215013238194" lon="9.728612961524869"><ele>269.5</ele><time>2026-04-25T09:01:26Z</time></trkpt><trkpt lat="45.72139939084748" lon="9.728514400296556"><ele>269.33333333333337</ele><time>2026-04-25T09:01:28Z</time></trkpt><trkpt lat="45.72133549198578" lon="9.728472647223471"><ele>269.1666666666667</ele><time>2026-04-25T09:01:29Z</time></trkpt><trkpt lat="45.72124065526434" lon="9.728424927002505"><ele>269.0</ele><time>2026-04-25T09:01:31Z</time></trkpt><trkpt lat="45.721137468956144" lon="9.728363232989105"><ele>269.0</ele><time>2026-04-25T09:01:33Z</time></trkpt><trkpt lat="45.721077056291165" lon="9.72833467040549"><ele>269.0</ele><time>2026-04-25T09:01:34Z</time></trkpt><trkpt lat="45.72101857848578" lon="9.72830066371011"><ele>269.0</ele><time>2026-04-25T09:01:35Z</time></trkpt><trkpt lat="45.720955790842055" lon="9.728273722956958"><ele>269.0</ele><time>2026-04-25T09:01:36Z</time></trkpt><trkpt lat="45.720891487609336" lon="9.728254096998857"><ele>269.0</ele><time>2026-04-25T09:01:37Z</time></trkpt><trkpt lat="45.72075686957903" lon="9.728237104572466"><ele>269.0</ele><time>2026-04-25T09:01:39Z</time></trkpt><trkpt lat="45.72063806197016" lon="9.728207365824515"><ele>269.0</ele><time>2026-04-25T09:01:41Z</time></trkpt><trkpt lat="45.72054206711312" lon="9.728209357187577"><ele>269.0</ele><time>2026-04-25T09:01:43Z</time></trkpt><trkpt lat="45.72046153931804" lon="9.728192111463535"><ele>269.0</ele><time>2026-04-25T09:01:44Z</time></trkpt><trkpt lat="45.72036778391871" lon="9.728175324977132"><ele>269.0</ele><time>2026-04-25T09:01:46Z</time></trkpt><trkpt lat="45.720243969197796" lon="9.728149669891387"><ele>269.0</ele><time>2026-04-25T09:01:48Z</time></trkpt><trkpt lat="45.72017642237487" lon="9.728144968827033"><ele>268.83333333333337</ele><time>2026-04-25T09:01:49Z</time></trkpt><trkpt lat="45.72005854168927" lon="9.72812040441046"><ele>268.6666666666667</ele><time>2026-04-25T09:01:51Z</time></trkpt><trkpt lat="45.719989758373565" lon="9.728108571408393"><ele>268.5</ele><time>2026-04-25T09:01:52Z</time></trkpt><trkpt lat="45.71986156602578" lon="9.728082826516005"><ele>268.3333333333333</ele><time>2026-04-25T09:01:54Z</time></trkpt><trkpt lat="45.719797332973904" lon="9.728077356978728"><ele>268.16666666666663</ele><time>2026-04-25T09:01:55Z</time></trkpt><trkpt lat="45.719733859036666" lon="9.728062252452107"><ele>268.0</ele><time>2026-04-25T09:01:56Z</time></trkpt><trkpt lat="45.719607976982104" lon="9.728076162290552"><ele>268.0</ele><time>2026-04-25T09:01:58Z</time></trkpt><trkpt lat="45.719489294149724" lon="9.728070878917647"><ele>268.0</ele><time>2026-04-25T09:02:00Z</time></trkpt><trkpt lat="45.719359545271864" lon="9.728108287292278"><ele>268.0</ele><time>2026-04-25T09:02:02Z</time></trkpt><trkpt lat="45.71923935203705" lon="9.72813166232879"><ele>268.0</ele><time>2026-04-25T09:02:04Z</time></trkpt><trkpt lat="45.71917494217624" lon="9.728148470704854"><ele>268.0</ele><time>2026-04-25T09:02:05Z</time></trkpt><trkpt lat="45.71905100970076" lon="9.72817218543353"><ele>268.16666666666663</ele><time>2026-04-25T09:02:07Z</time></trkpt><trkpt lat="45.71898474786521" lon="9.728187204553576"><ele>268.3333333333333</ele><time>2026-04-25T09:02:08Z</time></trkpt><trkpt lat="45.71886499524793" lon="9.728208035191493"><ele>268.5</ele><time>2026-04-25T09:02:10Z</time></trkpt><trkpt lat="45.718798664235536" lon="9.728223282744967"><ele>268.6666666666667</ele><time>2026-04-25T09:02:11Z</time></trkpt><trkpt lat="45.718672210729764" lon="9.728251565634643"><ele>268.83333333333337</ele><time>2026-04-25T09:02:13Z</time></trkpt><trkpt lat="45.718606677349946" lon="9.728265676274795"><ele>269.0</ele><time>2026-04-25T09:02:14Z</time></trkpt><trkpt lat="45.718540316076876" lon="9.728277652700866"><ele>269.0</ele><time>2026-04-25T09:02:15Z</time></trkpt><trkpt lat="45.718413075068725" lon="9.728305695956943"><ele>269.0</ele><time>2026-04-25T09:02:17Z</time></trkpt><trkpt lat="45.71833375359854" lon="9.728320685015543"><ele>269.0</ele><time>2026-04-25T09:02:18Z</time></trkpt><trkpt lat="45.7182169507242" lon="9.728345453789057"><ele>269.0</ele><time>2026-04-25T09:02:20Z</time></trkpt><trkpt lat="45.71815345243911" lon="9.728356944594832"><ele>269.0</ele><time>2026-04-25T09:02:21Z</time></trkpt><trkpt lat="45.71808611151478" lon="9.728365659884505"><ele>269.0</ele><time>2026-04-25T09:02:22Z</time></trkpt><trkpt lat="45.717956370482966" lon="9.728365617042027"><ele>269.0</ele><time>2026-04-25T09:02:24Z</time></trkpt><trkpt lat="45.717892692552205" lon="9.728352489930378"><ele>269.0</ele><time>2026-04-25T09:02:25Z</time></trkpt><trkpt lat="45.717765720999225" lon="9.728350572564663"><ele>269.0</ele><time>2026-04-25T09:02:27Z</time></trkpt><trkpt lat="45.717640241090635" lon="9.728324506775733"><ele>269.0</ele><time>2026-04-25T09:02:29Z</time></trkpt><trkpt lat="45.717572810620105" lon="9.728311942779749"><ele>269.0</ele><time>2026-04-25T09:02:30Z</time></trkpt><trkpt lat="45.717447805716645" lon="9.72828735513841"><ele>269.0</ele><time>2026-04-25T09:02:32Z</time></trkpt><trkpt lat="45.7173830755667" lon="9.728276159347423"><ele>269.0</ele><time>2026-04-25T09:02:33Z</time></trkpt><trkpt lat="45.71732043344244" lon="9.728263252746071"><ele>269.0</ele><time>2026-04-25T09:02:34Z</time></trkpt><trkpt lat="45.717256553542015" lon="9.728252681152771"><ele>269.0</ele><time>2026-04-25T09:02:35Z</time></trkpt><trkpt lat="45.717135429625145" lon="9.72821634198934"><ele>269.0</ele><time>2026-04-25T09:02:37Z</time></trkpt><trkpt lat="45.71707019466885" lon="9.728195630971651"><ele>269.0</ele><time>2026-04-25T09:02:38Z</time></trkpt><trkpt lat="45.71700544977219" lon="9.728199331191687"><ele>269.0</ele><time>2026-04-25T09:02:39Z</time></trkpt><trkpt lat="45.71694044414235" lon="9.728192968558592"><ele>269.0</ele><time>2026-04-25T09:02:40Z</time></trkpt><trkpt lat="45.71681401987184" lon="9.728163331438825"><ele>269.0</ele><time>2026-04-25T09:02:42Z</time></trkpt><trkpt lat="45.71670031154777" lon="9.728157355847928"><ele>269.0</ele><time>2026-04-25T09:02:44Z</time></trkpt><trkpt lat="45.71663548626493" lon="9.728161493465809"><ele>269.0</ele><time>2026-04-25T09:02:45Z</time></trkpt><trkpt lat="45.71651809823136" lon="9.72814726304509"><ele>269.0</ele><time>2026-04-25T09:02:47Z</time></trkpt><trkpt lat="45.71641318097233" lon="9.728143970716914"><ele>269.0</ele><time>2026-04-25T09:02:49Z</time></trkpt><trkpt lat="45.716291053868126" lon="9.72813351218448"><ele>269.0</ele><time>2026-04-25T09:02:51Z</time></trkpt><trkpt lat="45.71622678968221" lon="9.728123942452592"><ele>269.0</ele><time>2026-04-25T09:02:52Z</time></trkpt><trkpt lat="45.71616037469998" lon="9.72812017909792"><ele>269.0</ele><time>2026-04-25T09:02:53Z</time></trkpt><trkpt lat="45.71609411961253" lon="9.728116870193187"><ele>269.0</ele><time>2026-04-25T09:02:54Z</time></trkpt><trkpt lat="45.71602828963333" lon="9.728110222275111"><ele>269.0</ele><time>2026-04-25T09:02:55Z</time></trkpt><trkpt lat="45.71596284082857" lon="9.728111179931457"><ele>269.0</ele><time>2026-04-25T09:02:56Z</time></trkpt><trkpt lat="45.715896599594075" lon="9.728108189062096"><ele>269.0</ele><time>2026-04-25T09:02:57Z</time></trkpt><trkpt lat="45.715832768817826" lon="9.728100060232963"><ele>269.0</ele><time>2026-04-25T09:02:58Z</time></trkpt><trkpt lat="45.71576414794392" lon="9.728095689159284"><ele>269.0</ele><time>2026-04-25T09:02:59Z</time></trkpt><trkpt lat="45.71570179555271" lon="9.728078654425293"><ele>269.0</ele><time>2026-04-25T09:03:00Z</time></trkpt><trkpt lat="45.715636716877036" lon="9.72806773892238"><ele>269.0</ele><time>2026-04-25T09:03:01Z</time></trkpt><trkpt lat="45.71557267230537" lon="9.728050577372521"><ele>269.0</ele><time>2026-04-25T09:03:02Z</time></trkpt><trkpt lat="45.71550726667239" lon="9.728038824479453"><ele>269.0</ele><time>2026-04-25T09:03:03Z</time></trkpt><trkpt lat="45.715444330122125" lon="9.728015420348454"><ele>269.0</ele><time>2026-04-25T09:03:04Z</time></trkpt><trkpt lat="45.71538157813844" lon="9.728000676018656"><ele>269.0</ele><time>2026-04-25T09:03:05Z</time></trkpt><trkpt lat="45.71531569122521" lon="9.727986519012044"><ele>269.0</ele><time>2026-04-25T09:03:06Z</time></trkpt><trkpt lat="45.71525347613531" lon="9.727967312511787"><ele>269.0</ele><time>2026-04-25T09:03:07Z</time></trkpt><trkpt lat="45.71518681648087" lon="9.727956055867216"><ele>269.0</ele><time>2026-04-25T09:03:08Z</time></trkpt><trkpt lat="45.715123987722144" lon="9.727936575941374"><ele>268.6666666666667</ele><time>2026-04-25T09:03:09Z</time></trkpt><trkpt lat="45.715060328143736" lon="9.727923676533406"><ele>268.33333333333337</ele><time>2026-04-25T09:03:10Z</time></trkpt><trkpt lat="45.71499694339881" lon="9.727906697869416"><ele>268.0</ele><time>2026-04-25T09:03:11Z</time></trkpt><trkpt lat="45.71493282068715" lon="9.727887874494144"><ele>267.6666666666667</ele><time>2026-04-25T09:03:12Z</time></trkpt><trkpt lat="45.714865168778005" lon="9.727863809111513"><ele>267.3333333333333</ele><time>2026-04-25T09:03:13Z</time></trkpt><trkpt lat="45.71474290998693" lon="9.727824792410939"><ele>267.0</ele><time>2026-04-25T09:03:15Z</time></trkpt><trkpt lat="45.71467881555537" lon="9.72780004818978"><ele>267.0</ele><time>2026-04-25T09:03:16Z</time></trkpt><trkpt lat="45.71461627239934" lon="9.727781566495056"><ele>267.0</ele><time>2026-04-25T09:03:17Z</time></trkpt><trkpt lat="45.714556038977236" lon="9.727750337065357"><ele>267.0</ele><time>2026-04-25T09:03:18Z</time></trkpt><trkpt lat="45.71443219889442" lon="9.72770155359058"><ele>267.0</ele><time>2026-04-25T09:03:20Z</time></trkpt><trkpt lat="45.714313046270384" lon="9.727642063700156"><ele>267.0</ele><time>2026-04-25T09:03:22Z</time></trkpt><trkpt lat="45.71425008004698" lon="9.727626084064717"><ele>267.0</ele><time>2026-04-25T09:03:23Z</time></trkpt><trkpt lat="45.71418928830392" lon="9.727601715096233"><ele>267.4</ele><time>2026-04-25T09:03:24Z</time></trkpt><trkpt lat="45.714121202128275" lon="9.72758599982037"><ele>267.79999999999995</ele><time>2026-04-25T09:03:25Z</time></trkpt><trkpt lat="45.71399344964169" lon="9.727571549832849"><ele>268.2</ele><time>2026-04-25T09:03:27Z</time></trkpt><trkpt lat="45.71392853600418" lon="9.727572427966294"><ele>268.59999999999997</ele><time>2026-04-25T09:03:28Z</time></trkpt><trkpt lat="45.71379822842758" lon="9.72756847161396"><ele>269.0</ele><time>2026-04-25T09:03:30Z</time></trkpt><trkpt lat="45.713669035533464" lon="9.727563557296953"><ele>269.0</ele><time>2026-04-25T09:03:32Z</time></trkpt><trkpt lat="45.71354249872499" lon="9.727550691444529"><ele>269.0</ele><time>2026-04-25T09:03:34Z</time></trkpt><trkpt lat="45.71347919165894" lon="9.727548523823312"><ele>269.0</ele><time>2026-04-25T09:03:35Z</time></trkpt><trkpt lat="45.713413541326176" lon="9.727553082164222"><ele>269.0</ele><time>2026-04-25T09:03:36Z</time></trkpt><trkpt lat="45.71334903690937" lon="9.727553647064788"><ele>269.0</ele><time>2026-04-25T09:03:37Z</time></trkpt><trkpt lat="45.713222314350226" lon="9.727558835928107"><ele>269.0</ele><time>2026-04-25T09:03:39Z</time></trkpt><trkpt lat="45.71309701782327" lon="9.727582585573492"><ele>269.0</ele><time>2026-04-25T09:03:41Z</time></trkpt><trkpt lat="45.71303117801775" lon="9.727589051549515"><ele>269.0</ele><time>2026-04-25T09:03:42Z</time></trkpt><trkpt lat="45.712906954162214" lon="9.727557011714087"><ele>269.0</ele><time>2026-04-25T09:03:44Z</time></trkpt><trkpt lat="45.71284101300727" lon="9.727565483922831"><ele>269.0</ele><time>2026-04-25T09:03:45Z</time></trkpt><trkpt lat="45.71277742959682" lon="9.727590343724419"><ele>269.0</ele><time>2026-04-25T09:03:46Z</time></trkpt><trkpt lat="45.71271895228564" lon="9.7276313769455"><ele>269.0</ele><time>2026-04-25T09:03:47Z</time></trkpt><trkpt lat="45.712589898744355" lon="9.727646591280953"><ele>268.83333333333337</ele><time>2026-04-25T09:03:49Z</time></trkpt><trkpt lat="45.71252375672309" lon="9.727625676096983"><ele>268.6666666666667</ele><time>2026-04-25T09:03:50Z</time></trkpt><trkpt lat="45.71246028010676" lon="9.727607636813294"><ele>268.5</ele><time>2026-04-25T09:03:51Z</time></trkpt><trkpt lat="45.71239252268351" lon="9.727597605659593"><ele>268.3333333333333</ele><time>2026-04-25T09:03:52Z</time></trkpt><trkpt lat="45.712268495726605" lon="9.727592918524238"><ele>268.16666666666663</ele><time>2026-04-25T09:03:54Z</time></trkpt><trkpt lat="45.71219875566211" lon="9.727584780784372"><ele>268.0</ele><time>2026-04-25T09:03:55Z</time></trkpt><trkpt lat="45.71213063610122" lon="9.727580299439994"><ele>268.0</ele><time>2026-04-25T09:03:56Z</time></trkpt><trkpt lat="45.71200819283588" lon="9.727552251405159"><ele>268.0</ele><time>2026-04-25T09:03:58Z</time></trkpt><trkpt lat="45.711941552197075" lon="9.727546892774795"><ele>268.0</ele><time>2026-04-25T09:03:59Z</time></trkpt><trkpt lat="45.711872651726765" lon="9.727535282731244"><ele>268.0</ele><time>2026-04-25T09:04:00Z</time></trkpt><trkpt lat="45.711809794516974" lon="9.727525109673985"><ele>268.0</ele><time>2026-04-25T09:04:01Z</time></trkpt><trkpt lat="45.71174606318429" lon="9.72751643912653"><ele>268.0</ele><time>2026-04-25T09:04:02Z</time></trkpt><trkpt lat="45.71167918720489" lon="9.727507698512827"><ele>267.7142857142857</ele><time>2026-04-25T09:04:03Z</time></trkpt><trkpt lat="45.7116136442679" lon="9.72749685064257"><ele>267.42857142857144</ele><time>2026-04-25T09:04:04Z</time></trkpt><trkpt lat="45.71154815225752" lon="9.727486859608176"><ele>267.1428571428571</ele><time>2026-04-25T09:04:05Z</time></trkpt><trkpt lat="45.71148373602302" lon="9.72747766365919"><ele>266.8571428571429</ele><time>2026-04-25T09:04:06Z</time></trkpt><trkpt lat="45.71141868246266" lon="9.727466689262984"><ele>266.57142857142856</ele><time>2026-04-25T09:04:07Z</time></trkpt><trkpt lat="45.71135160882711" lon="9.727466142689256"><ele>266.2857142857143</ele><time>2026-04-25T09:04:08Z</time></trkpt><trkpt lat="45.711285658937015" lon="9.727451235191786"><ele>266.0</ele><time>2026-04-25T09:04:09Z</time></trkpt><trkpt lat="45.71122282240138" lon="9.727444350310494"><ele>266.0</ele><time>2026-04-25T09:04:10Z</time></trkpt><trkpt lat="45.71115794886438" lon="9.727435532872594"><ele>266.0</ele><time>2026-04-25T09:04:11Z</time></trkpt><trkpt lat="45.7110922900842" lon="9.727425416325378"><ele>266.0</ele><time>2026-04-25T09:04:12Z</time></trkpt><trkpt lat="45.71102821661022" lon="9.727417069227137"><ele>266.0</ele><time>2026-04-25T09:04:13Z</time></trkpt><trkpt lat="45.71096392664429" lon="9.727406050122045"><ele>266.0</ele><time>2026-04-25T09:04:14Z</time></trkpt><trkpt lat="45.71090034601806" lon="9.727395669705386"><ele>266.0</ele><time>2026-04-25T09:04:15Z</time></trkpt><trkpt lat="45.710836228234285" lon="9.727387005911128"><ele>266.0</ele><time>2026-04-25T09:04:16Z</time></trkpt><trkpt lat="45.71070814309936" lon="9.727365364363443"><ele>265.57142857142856</ele><time>2026-04-25T09:04:18Z</time></trkpt><trkpt lat="45.7106434166112" lon="9.727357962706762"><ele>265.1428571428571</ele><time>2026-04-25T09:04:19Z</time></trkpt><trkpt lat="45.710578402357335" lon="9.72735099593336"><ele>264.7142857142857</ele><time>2026-04-25T09:04:20Z</time></trkpt><trkpt lat="45.710514880040414" lon="9.727339171304003"><ele>264.2857142857143</ele><time>2026-04-25T09:04:21Z</time></trkpt><trkpt lat="45.71045107775074" lon="9.72732804402113"><ele>263.85714285714283</ele><time>2026-04-25T09:04:22Z</time></trkpt><trkpt lat="45.71038563153352" lon="9.727319227260768"><ele>263.42857142857144</ele><time>2026-04-25T09:04:23Z</time></trkpt><trkpt lat="45.71032149255274" lon="9.727311220533297"><ele>263.0</ele><time>2026-04-25T09:04:24Z</time></trkpt><trkpt lat="45.710256241702275" lon="9.727303078643287"><ele>263.57142857142856</ele><time>2026-04-25T09:04:25Z</time></trkpt><trkpt lat="45.71019178641237" lon="9.727295397239427"><ele>264.1428571428571</ele><time>2026-04-25T09:04:26Z</time></trkpt><trkpt lat="45.71012634975962" lon="9.727285023900599"><ele>264.7142857142857</ele><time>2026-04-25T09:04:27Z</time></trkpt><trkpt lat="45.71006274798866" lon="9.727279048485084"><ele>265.2857142857143</ele><time>2026-04-25T09:04:28Z</time></trkpt><trkpt lat="45.70999983493286" lon="9.727267511655265"><ele>265.8571428571429</ele><time>2026-04-25T09:04:29Z</time></trkpt><trkpt lat="45.709936719059215" lon="9.727264219482583"><ele>266.42857142857144</ele><time>2026-04-25T09:04:30Z</time></trkpt><trkpt lat="45.70986947914541" lon="9.727250923837927"><ele>267.0</ele><time>2026-04-25T09:04:31Z</time></trkpt><trkpt lat="45.709804114659235" lon="9.727238702319957"><ele>267.0</ele><time>2026-04-25T09:04:32Z</time></trkpt><trkpt lat="45.70968565443257" lon="9.727223330606192"><ele>267.0</ele><time>2026-04-25T09:04:34Z</time></trkpt><trkpt lat="45.709622543443" lon="9.727209413784676"><ele>267.0</ele><time>2026-04-25T09:04:35Z</time></trkpt><trkpt lat="45.709495197639306" lon="9.727192435758047"><ele>267.0</ele><time>2026-04-25T09:04:37Z</time></trkpt><trkpt lat="45.70936613316727" lon="9.727178030938722"><ele>267.0</ele><time>2026-04-25T09:04:39Z</time></trkpt><trkpt lat="45.70930344752026" lon="9.727160465945442"><ele>267.1666666666667</ele><time>2026-04-25T09:04:40Z</time></trkpt><trkpt lat="45.70923671099621" lon="9.727158265652104"><ele>267.3333333333333</ele><time>2026-04-25T09:04:41Z</time></trkpt><trkpt lat="45.70917263064294" lon="9.727149487136558"><ele>267.5</ele><time>2026-04-25T09:04:42Z</time></trkpt><trkpt lat="45.709048387181454" lon="9.727139772213691"><ele>267.66666666666663</ele><time>2026-04-25T09:04:44Z</time></trkpt><trkpt lat="45.708929820132234" lon="9.727123318120038"><ele>267.8333333333333</ele><time>2026-04-25T09:04:46Z</time></trkpt><trkpt lat="45.70886513854888" lon="9.727119492390681"><ele>268.0</ele><time>2026-04-25T09:04:47Z</time></trkpt><trkpt lat="45.70879913871558" lon="9.727114272110462"><ele>268.0</ele><time>2026-04-25T09:04:48Z</time></trkpt><trkpt lat="45.70873361593304" lon="9.727107817750227"><ele>268.0</ele><time>2026-04-25T09:04:49Z</time></trkpt><trkpt lat="45.70867043630788" lon="9.72708740746312"><ele>268.0</ele><time>2026-04-25T09:04:50Z</time></trkpt><trkpt lat="45.70855025775029" lon="9.727089419447202"><ele>268.0</ele><time>2026-04-25T09:04:52Z</time></trkpt><trkpt lat="45.708429698228066" lon="9.727073351636687"><ele>268.0</ele><time>2026-04-25T09:04:54Z</time></trkpt><trkpt lat="45.708319672919515" lon="9.727058628482453"><ele>267.66666666666663</ele><time>2026-04-25T09:04:56Z</time></trkpt><trkpt lat="45.70820988056344" lon="9.727046175072253"><ele>267.3333333333333</ele><time>2026-04-25T09:04:58Z</time></trkpt><trkpt lat="45.70810552252481" lon="9.727050953400967"><ele>267.0</ele><time>2026-04-25T09:05:00Z</time></trkpt><trkpt lat="45.7080393723409" lon="9.727038009824849"><ele>266.6666666666667</ele><time>2026-04-25T09:05:01Z</time></trkpt><trkpt lat="45.70797487584253" lon="9.727029267890961"><ele>266.33333333333337</ele><time>2026-04-25T09:05:02Z</time></trkpt><trkpt lat="45.70790961285493" lon="9.727021357727734"><ele>266.0</ele><time>2026-04-25T09:05:03Z</time></trkpt><trkpt lat="45.707845706084136" lon="9.727010354886401"><ele>266.0</ele><time>2026-04-25T09:05:04Z</time></trkpt><trkpt lat="45.707781966669934" lon="9.727003321892782"><ele>266.0</ele><time>2026-04-25T09:05:05Z</time></trkpt><trkpt lat="45.707713040506896" lon="9.727001217228029"><ele>266.0</ele><time>2026-04-25T09:05:06Z</time></trkpt><trkpt lat="45.70758295414674" lon="9.72698370138447"><ele>266.0</ele><time>2026-04-25T09:05:08Z</time></trkpt><trkpt lat="45.707526969683485" lon="9.72694007261602"><ele>266.0</ele><time>2026-04-25T09:05:09Z</time></trkpt><trkpt lat="45.7075038588707" lon="9.726848057106281"><ele>266.0</ele><time>2026-04-25T09:05:10Z</time></trkpt><trkpt lat="45.70750258618383" lon="9.726748699574538"><ele>266.0</ele><time>2026-04-25T09:05:11Z</time></trkpt><trkpt lat="45.70750945764577" lon="9.72664847925675"><ele>266.0</ele><time>2026-04-25T09:05:12Z</time></trkpt><trkpt lat="45.707520083605445" lon="9.726555955723681"><ele>266.0</ele><time>2026-04-25T09:05:13Z</time></trkpt><trkpt lat="45.70752473311342" lon="9.7264656809074"><ele>266.0</ele><time>2026-04-25T09:05:14Z</time></trkpt><trkpt lat="45.70753645466863" lon="9.726278149263763"><ele>266.0</ele><time>2026-04-25T09:05:16Z</time></trkpt><trkpt lat="45.70754122958533" lon="9.726187353830637"><ele>266.0</ele><time>2026-04-25T09:05:17Z</time></trkpt><trkpt lat="45.70754392459662" lon="9.726096618907532"><ele>266.0</ele><time>2026-04-25T09:05:18Z</time></trkpt><trkpt lat="45.707544334535" lon="9.726004408861762"><ele>266.0</ele><time>2026-04-25T09:05:19Z</time></trkpt><trkpt lat="45.707538702800555" lon="9.72591445811023"><ele>266.0</ele><time>2026-04-25T09:05:20Z</time></trkpt><trkpt lat="45.70750675677729" lon="9.725748562702927"><ele>266.0</ele><time>2026-04-25T09:05:22Z</time></trkpt><trkpt lat="45.70746326718949" lon="9.725675898802468"><ele>266.0</ele><time>2026-04-25T09:05:23Z</time></trkpt><trkpt lat="45.70740769896243" lon="9.725629022218417"><ele>266.0</ele><time>2026-04-25T09:05:24Z</time></trkpt><trkpt lat="45.707340766256" lon="9.725582552010302"><ele>266.0</ele><time>2026-04-25T09:05:25Z</time></trkpt><trkpt lat="45.70722488850399" lon="9.72553020140526"><ele>266.0</ele><time>2026-04-25T09:05:27Z</time></trkpt><trkpt lat="45.7071612755517" lon="9.725515718300334"><ele>266.0</ele><time>2026-04-25T09:05:28Z</time></trkpt><trkpt lat="45.707032051880695" lon="9.725443801371874"><ele>266.0</ele><time>2026-04-25T09:05:30Z</time></trkpt><trkpt lat="45.70696781484081" lon="9.725410587546715"><ele>266.0</ele><time>2026-04-25T09:05:31Z</time></trkpt><trkpt lat="45.70690178165624" lon="9.725389027828077"><ele>266.0</ele><time>2026-04-25T09:05:32Z</time></trkpt><trkpt lat="45.706839330793066" lon="9.725368468855766"><ele>266.0</ele><time>2026-04-25T09:05:33Z</time></trkpt><trkpt lat="45.70677718819537" lon="9.725346231964657"><ele>266.0</ele><time>2026-04-25T09:05:34Z</time></trkpt><trkpt lat="45.70671702153591" lon="9.725316182180864"><ele>266.0</ele><time>2026-04-25T09:05:35Z</time></trkpt><trkpt lat="45.706657037826474" lon="9.725288313438568"><ele>266.0</ele><time>2026-04-25T09:05:36Z</time></trkpt><trkpt lat="45.7065383154596" lon="9.725231847110205"><ele>266.0</ele><time>2026-04-25T09:05:38Z</time></trkpt><trkpt lat="45.70647995702007" lon="9.725195852681678"><ele>266.0</ele><time>2026-04-25T09:05:39Z</time></trkpt><trkpt lat="45.70636205743358" lon="9.72513670726611"><ele>266.0</ele><time>2026-04-25T09:05:41Z</time></trkpt><trkpt lat="45.70624461477085" lon="9.725108670951156"><ele>266.0</ele><time>2026-04-25T09:05:43Z</time></trkpt><trkpt lat="45.70612788467416" lon="9.725086137777984"><ele>266.0</ele><time>2026-04-25T09:05:45Z</time></trkpt><trkpt lat="45.70600385787935" lon="9.72505699176222"><ele>266.0</ele><time>2026-04-25T09:05:47Z</time></trkpt><trkpt lat="45.70593919708013" lon="9.725048036472936"><ele>266.0</ele><time>2026-04-25T09:05:48Z</time></trkpt><trkpt lat="45.70582957765078" lon="9.725026660663138"><ele>266.0</ele><time>2026-04-25T09:05:50Z</time></trkpt><trkpt lat="45.70576416688148" lon="9.724987556512152"><ele>266.0</ele><time>2026-04-25T09:05:51Z</time></trkpt><trkpt lat="45.705724460126106" lon="9.724908689450185"><ele>266.0</ele><time>2026-04-25T09:05:52Z</time></trkpt><trkpt lat="45.705623938130294" lon="9.724848579997209"><ele>266.0</ele><time>2026-04-25T09:05:53Z</time></trkpt><trkpt lat="45.70572212243127" lon="9.724716590602668"><ele>266.0</ele><time>2026-04-25T09:05:54Z</time></trkpt><trkpt lat="45.70572829038542" lon="9.724622590415978"><ele>266.0</ele><time>2026-04-25T09:05:55Z</time></trkpt><trkpt lat="45.70573208403622" lon="9.724531087928693"><ele>266.0</ele><time>2026-04-25T09:05:56Z</time></trkpt><trkpt lat="45.705723275405994" lon="9.724433558404787"><ele>266.0</ele><time>2026-04-25T09:05:57Z</time></trkpt><trkpt lat="45.70572203752023" lon="9.72433650202452"><ele>266.0</ele><time>2026-04-25T09:05:58Z</time></trkpt><trkpt lat="45.70571071500054" lon="9.724154401762931"><ele>266.0</ele><time>2026-04-25T09:06:00Z</time></trkpt><trkpt lat="45.7057107671034" lon="9.724054457012784"><ele>266.0</ele><time>2026-04-25T09:06:01Z</time></trkpt><trkpt lat="45.7057028783614" lon="9.723958404187535"><ele>266.0</ele><time>2026-04-25T09:06:02Z</time></trkpt><trkpt lat="45.70569850635339" lon="9.723863615966938"><ele>265.8</ele><time>2026-04-25T09:06:03Z</time></trkpt><trkpt lat="45.705694645062586" lon="9.723690025705887"><ele>265.6</ele><time>2026-04-25T09:06:05Z</time></trkpt><trkpt lat="45.70569367599128" lon="9.7235151971706"><ele>265.4</ele><time>2026-04-25T09:06:07Z</time></trkpt><trkpt lat="45.70568905879958" lon="9.723420628643249"><ele>265.2</ele><time>2026-04-25T09:06:08Z</time></trkpt><trkpt lat="45.70567949372209" lon="9.723319012933024"><ele>265.0</ele><time>2026-04-25T09:06:09Z</time></trkpt><trkpt lat="45.705673998430285" lon="9.72313927233849"><ele>265.0</ele><time>2026-04-25T09:06:11Z</time></trkpt><trkpt lat="45.70567172253205" lon="9.723038244866189"><ele>265.0</ele><time>2026-04-25T09:06:12Z</time></trkpt><trkpt lat="45.705670915830844" lon="9.722943151837873"><ele>265.0</ele><time>2026-04-25T09:06:13Z</time></trkpt><trkpt lat="45.70566901357771" lon="9.722843743317068"><ele>265.0</ele><time>2026-04-25T09:06:14Z</time></trkpt><trkpt lat="45.70566601253141" lon="9.722739398700982"><ele>265.0</ele><time>2026-04-25T09:06:15Z</time></trkpt><trkpt lat="45.70565837591736" lon="9.722566578845315"><ele>265.0</ele><time>2026-04-25T09:06:17Z</time></trkpt><trkpt lat="45.70565410447826" lon="9.72237657779624"><ele>264.8</ele><time>2026-04-25T09:06:19Z</time></trkpt><trkpt lat="45.70564570461637" lon="9.72220067357744"><ele>264.6</ele><time>2026-04-25T09:06:21Z</time></trkpt><trkpt lat="45.705628168163294" lon="9.722040231535512"><ele>264.4</ele><time>2026-04-25T09:06:23Z</time></trkpt><trkpt lat="45.70561375960375" lon="9.721943573972325"><ele>264.2</ele><time>2026-04-25T09:06:24Z</time></trkpt><trkpt lat="45.70559967830914" lon="9.721771727884867"><ele>264.0</ele><time>2026-04-25T09:06:26Z</time></trkpt><trkpt lat="45.70557025664481" lon="9.721604976331426"><ele>264.0</ele><time>2026-04-25T09:06:28Z</time></trkpt><trkpt lat="45.705490475943" lon="9.721470184589826"><ele>264.0</ele><time>2026-04-25T09:06:30Z</time></trkpt><trkpt lat="45.70537238914841" lon="9.72140789180501"><ele>264.0</ele><time>2026-04-25T09:06:32Z</time></trkpt><trkpt lat="45.70531053170737" lon="9.721384895321753"><ele>264.0</ele><time>2026-04-25T09:06:33Z</time></trkpt><trkpt lat="45.70524358481764" lon="9.721355264327157"><ele>264.0</ele><time>2026-04-25T09:06:34Z</time></trkpt><trkpt lat="45.705137363358524" lon="9.72128328459651"><ele>264.1428571428571</ele><time>2026-04-25T09:06:36Z</time></trkpt><trkpt lat="45.70507509738375" lon="9.721245827354311"><ele>264.2857142857143</ele><time>2026-04-25T09:06:37Z</time></trkpt><trkpt lat="45.70501509862082" lon="9.721208629353981"><ele>264.42857142857144</ele><time>2026-04-25T09:06:38Z</time></trkpt><trkpt lat="45.704957244649584" lon="9.72117255509986"><ele>264.57142857142856</ele><time>2026-04-25T09:06:39Z</time></trkpt><trkpt lat="45.70489736502843" lon="9.721136751150134"><ele>264.7142857142857</ele><time>2026-04-25T09:06:40Z</time></trkpt><trkpt lat="45.70483930161733" lon="9.72109269001592"><ele>264.85714285714283</ele><time>2026-04-25T09:06:41Z</time></trkpt><trkpt lat="45.704728956489184" lon="9.72101636589827"><ele>265.0</ele><time>2026-04-25T09:06:43Z</time></trkpt><trkpt lat="45.70461784567119" lon="9.720933431281027"><ele>265.75</ele><time>2026-04-25T09:06:45Z</time></trkpt><trkpt lat="45.704528659919454" lon="9.720814836076423"><ele>266.5</ele><time>2026-04-25T09:06:47Z</time></trkpt><trkpt lat="45.70450932221321" lon="9.720641190643155"><ele>267.25</ele><time>2026-04-25T09:06:49Z</time></trkpt><trkpt lat="45.70454641070532" lon="9.720483036614016"><ele>268.0</ele><time>2026-04-25T09:06:51Z</time></trkpt><trkpt lat="45.704422908712374" lon="9.720318397859494"><ele>268.6</ele><time>2026-04-25T09:06:53Z</time></trkpt><trkpt lat="45.704385341321334" lon="9.720148147758236"><ele>269.20000000000005</ele><time>2026-04-25T09:06:55Z</time></trkpt><trkpt lat="45.704355162344655" lon="9.719981389388712"><ele>269.8</ele><time>2026-04-25T09:06:57Z</time></trkpt><trkpt lat="45.704320259611535" lon="9.719813976912153"><ele>270.40000000000003</ele><time>2026-04-25T09:06:59Z</time></trkpt><trkpt lat="45.70430353428531" lon="9.719726370606429"><ele>271.0</ele><time>2026-04-25T09:07:00Z</time></trkpt><trkpt lat="45.704266505100996" lon="9.719558752350213"><ele>271.3333333333333</ele><time>2026-04-25T09:07:02Z</time></trkpt><trkpt lat="45.704236423344256" lon="9.719389427302158"><ele>271.66666666666663</ele><time>2026-04-25T09:07:04Z</time></trkpt><trkpt lat="45.704221027929584" lon="9.719299828280741"><ele>272.0</ele><time>2026-04-25T09:07:05Z</time></trkpt><trkpt lat="45.70420498081247" lon="9.71920911207743"><ele>272.3333333333333</ele><time>2026-04-25T09:07:06Z</time></trkpt><trkpt lat="45.70418798829529" lon="9.719116119390264"><ele>272.6666666666667</ele><time>2026-04-25T09:07:07Z</time></trkpt><trkpt lat="45.704156250849" lon="9.71893687071321"><ele>273.0</ele><time>2026-04-25T09:07:09Z</time></trkpt><trkpt lat="45.70412383689284" lon="9.718766817437423"><ele>273.0</ele><time>2026-04-25T09:07:11Z</time></trkpt><trkpt lat="45.70410406381591" lon="9.718677422273132"><ele>273.0</ele><time>2026-04-25T09:07:12Z</time></trkpt><trkpt lat="45.70408474914602" lon="9.718586642576513"><ele>273.0</ele><time>2026-04-25T09:07:13Z</time></trkpt><trkpt lat="45.70406553963679" lon="9.718495229294447"><ele>273.0</ele><time>2026-04-25T09:07:14Z</time></trkpt><trkpt lat="45.70405847723425" lon="9.718314234694821"><ele>273.0</ele><time>2026-04-25T09:07:16Z</time></trkpt><trkpt lat="45.70406011731697" lon="9.718218829934038"><ele>273.0</ele><time>2026-04-25T09:07:17Z</time></trkpt><trkpt lat="45.70406635536272" lon="9.718048974058599"><ele>272.8333333333333</ele><time>2026-04-25T09:07:19Z</time></trkpt><trkpt lat="45.70406771799555" lon="9.717958513713063"><ele>272.6666666666667</ele><time>2026-04-25T09:07:20Z</time></trkpt><trkpt lat="45.704067990233376" lon="9.717868259432795"><ele>272.5</ele><time>2026-04-25T09:07:21Z</time></trkpt><trkpt lat="45.70406701208887" lon="9.717687654367179"><ele>272.33333333333337</ele><time>2026-04-25T09:07:23Z</time></trkpt><trkpt lat="45.70406902919626" lon="9.717596570795173"><ele>272.1666666666667</ele><time>2026-04-25T09:07:24Z</time></trkpt><trkpt lat="45.70407390920665" lon="9.717414797577476"><ele>272.0</ele><time>2026-04-25T09:07:26Z</time></trkpt><trkpt lat="45.70407549716436" lon="9.717322827105585"><ele>271.99999999999994</ele><time>2026-04-25T09:07:27Z</time></trkpt><trkpt lat="45.704079903204736" lon="9.717231440290636"><ele>272.0</ele><time>2026-04-25T09:07:28Z</time></trkpt><trkpt lat="45.70409108118606" lon="9.717140585126849"><ele>272.0</ele><time>2026-04-25T09:07:29Z</time></trkpt><trkpt lat="45.70410386342691" lon="9.717049019838502"><ele>272.0</ele><time>2026-04-25T09:07:30Z</time></trkpt><trkpt lat="45.70412864910283" lon="9.716965398701543"><ele>272.0</ele><time>2026-04-25T09:07:31Z</time></trkpt><trkpt lat="45.70415759226014" lon="9.716881856321153"><ele>271.99999999999994</ele><time>2026-04-25T09:07:32Z</time></trkpt><trkpt lat="45.70418807732621" lon="9.71680097454066"><ele>272.0</ele><time>2026-04-25T09:07:33Z</time></trkpt><trkpt lat="45.70424408837275" lon="9.71663934275458"><ele>271.99999999999994</ele><time>2026-04-25T09:07:35Z</time></trkpt><trkpt lat="45.70429980891408" lon="9.716479060679244"><ele>272.0</ele><time>2026-04-25T09:07:37Z</time></trkpt><trkpt lat="45.70432918431699" lon="9.716396624484837"><ele>272.0</ele><time>2026-04-25T09:07:38Z</time></trkpt><trkpt lat="45.70435916572631" lon="9.71631705023251"><ele>272.0</ele><time>2026-04-25T09:07:39Z</time></trkpt><trkpt lat="45.70438823725871" lon="9.716236591138598"><ele>272.0</ele><time>2026-04-25T09:07:40Z</time></trkpt><trkpt lat="45.7044161001605" lon="9.71615530304138"><ele>271.99999999999994</ele><time>2026-04-25T09:07:41Z</time></trkpt><trkpt lat="45.704447925389935" lon="9.716076360993553"><ele>272.0</ele><time>2026-04-25T09:07:42Z</time></trkpt><trkpt lat="45.704478780174526" lon="9.71599608842166"><ele>272.0</ele><time>2026-04-25T09:07:43Z</time></trkpt><trkpt lat="45.70450967835008" lon="9.715916546329673"><ele>272.0</ele><time>2026-04-25T09:07:44Z</time></trkpt><trkpt lat="45.70456885294993" lon="9.715757875647332"><ele>272.0</ele><time>2026-04-25T09:07:46Z</time></trkpt><trkpt lat="45.70459963812012" lon="9.715674924683501"><ele>272.0</ele><time>2026-04-25T09:07:47Z</time></trkpt><trkpt lat="45.704663022337016" lon="9.715517019818831"><ele>272.0</ele><time>2026-04-25T09:07:49Z</time></trkpt><trkpt lat="45.70469244314217" lon="9.715435502249532"><ele>272.0</ele><time>2026-04-25T09:07:50Z</time></trkpt><trkpt lat="45.7047435517173" lon="9.715273527259352"><ele>272.1666666666667</ele><time>2026-04-25T09:07:52Z</time></trkpt><trkpt lat="45.70478493764" lon="9.71510611664333"><ele>272.33333333333337</ele><time>2026-04-25T09:07:54Z</time></trkpt><trkpt lat="45.70479933812771" lon="9.715018298604454"><ele>272.5</ele><time>2026-04-25T09:07:55Z</time></trkpt><trkpt lat="45.70480522979144" lon="9.714928380930859"><ele>272.6666666666667</ele><time>2026-04-25T09:07:56Z</time></trkpt><trkpt lat="45.70482257471932" lon="9.714840672833223"><ele>272.8333333333333</ele><time>2026-04-25T09:07:57Z</time></trkpt><trkpt lat="45.70488633551917" lon="9.714686849242723"><ele>273.0</ele><time>2026-04-25T09:07:59Z</time></trkpt><trkpt lat="45.70496793258583" lon="9.714549669734554"><ele>273.0</ele><time>2026-04-25T09:08:01Z</time></trkpt><trkpt lat="45.70499733352374" lon="9.7144688063638"><ele>273.0</ele><time>2026-04-25T09:08:02Z</time></trkpt><trkpt lat="45.70500315621483" lon="9.71437623018224"><ele>273.0</ele><time>2026-04-25T09:08:03Z</time></trkpt><trkpt lat="45.70499337663102" lon="9.714283299673829"><ele>273.0</ele><time>2026-04-25T09:08:04Z</time></trkpt><trkpt lat="45.704959252968294" lon="9.71420376318478"><ele>273.0</ele><time>2026-04-25T09:08:05Z</time></trkpt><trkpt lat="45.70490365484952" lon="9.714147406233355"><ele>273.0</ele><time>2026-04-25T09:08:06Z</time></trkpt><trkpt lat="45.70484189035998" lon="9.71411121305583"><ele>273.0</ele><time>2026-04-25T09:08:07Z</time></trkpt><trkpt lat="45.70478211849745" lon="9.714082230273787"><ele>272.85714285714283</ele><time>2026-04-25T09:08:08Z</time></trkpt><trkpt lat="45.704726788343905" lon="9.714037645482472"><ele>272.7142857142857</ele><time>2026-04-25T09:08:09Z</time></trkpt><trkpt lat="45.70467739621658" lon="9.713979657078431"><ele>272.57142857142856</ele><time>2026-04-25T09:08:10Z</time></trkpt><trkpt lat="45.7046345953917" lon="9.713906846544575"><ele>272.42857142857144</ele><time>2026-04-25T09:08:11Z</time></trkpt><trkpt lat="45.704597842013825" lon="9.7138267121605"><ele>272.2857142857143</ele><time>2026-04-25T09:08:12Z</time></trkpt><trkpt lat="45.70456471376367" lon="9.713745813525628"><ele>272.1428571428571</ele><time>2026-04-25T09:08:13Z</time></trkpt><trkpt lat="45.70454669260148" lon="9.713654609242907"><ele>272.0</ele><time>2026-04-25T09:08:14Z</time></trkpt><trkpt lat="45.70453309907233" lon="9.71356560219743"><ele>271.99999999999994</ele><time>2026-04-25T09:08:15Z</time></trkpt><trkpt lat="45.70451881413657" lon="9.713475744504292"><ele>272.0</ele><time>2026-04-25T09:08:16Z</time></trkpt><trkpt lat="45.704499505455566" lon="9.71338749219552"><ele>272.0</ele><time>2026-04-25T09:08:17Z</time></trkpt><trkpt lat="45.70448020262093" lon="9.71329851471631"><ele>272.0</ele><time>2026-04-25T09:08:18Z</time></trkpt><trkpt lat="45.704460712387196" lon="9.713211904376198"><ele>272.0</ele><time>2026-04-25T09:08:19Z</time></trkpt><trkpt lat="45.70443961612096" lon="9.713123600119815"><ele>271.99999999999994</ele><time>2026-04-25T09:08:20Z</time></trkpt><trkpt lat="45.70441923498964" lon="9.713036714508984"><ele>272.0</ele><time>2026-04-25T09:08:21Z</time></trkpt><trkpt lat="45.70439967492438" lon="9.712949326476588"><ele>271.99999999999994</ele><time>2026-04-25T09:08:22Z</time></trkpt><trkpt lat="45.704380792284475" lon="9.712861035055331"><ele>272.0</ele><time>2026-04-25T09:08:23Z</time></trkpt><trkpt lat="45.70436189609328" lon="9.712772464980526"><ele>272.0</ele><time>2026-04-25T09:08:24Z</time></trkpt><trkpt lat="45.7043455390489" lon="9.712683452937748"><ele>272.0</ele><time>2026-04-25T09:08:25Z</time></trkpt><trkpt lat="45.704329299350874" lon="9.71259354158585"><ele>272.0</ele><time>2026-04-25T09:08:26Z</time></trkpt><trkpt lat="45.70431326003619" lon="9.712504687124106"><ele>271.99999999999994</ele><time>2026-04-25T09:08:27Z</time></trkpt><trkpt lat="45.704296721225276" lon="9.712416229355707"><ele>272.0</ele><time>2026-04-25T09:08:28Z</time></trkpt><trkpt lat="45.70427817018274" lon="9.712327946507523"><ele>271.85714285714283</ele><time>2026-04-25T09:08:29Z</time></trkpt><trkpt lat="45.70425918475534" lon="9.712239087874146"><ele>271.7142857142857</ele><time>2026-04-25T09:08:30Z</time></trkpt><trkpt lat="45.70423883798368" lon="9.712151745155792"><ele>271.57142857142856</ele><time>2026-04-25T09:08:31Z</time></trkpt><trkpt lat="45.704218454899724" lon="9.712063663564068"><ele>271.42857142857144</ele><time>2026-04-25T09:08:32Z</time></trkpt><trkpt lat="45.70419549168813" lon="9.711979088145728"><ele>271.2857142857143</ele><time>2026-04-25T09:08:33Z</time></trkpt><trkpt lat="45.70417193166366" lon="9.711892909278816"><ele>271.1428571428571</ele><time>2026-04-25T09:08:34Z</time></trkpt><trkpt lat="45.70414576261778" lon="9.711808725510028"><ele>271.0</ele><time>2026-04-25T09:08:35Z</time></trkpt><trkpt lat="45.70411930220841" lon="9.711726312870873"><ele>270.75</ele><time>2026-04-25T09:08:36Z</time></trkpt><trkpt lat="45.7040650643645" lon="9.711562638250662"><ele>270.5</ele><time>2026-04-25T09:08:38Z</time></trkpt><trkpt lat="45.704010229153454" lon="9.711392426861817"><ele>270.25</ele><time>2026-04-25T09:08:40Z</time></trkpt><trkpt lat="45.70399203080468" lon="9.711298510895878"><ele>270.0</ele><time>2026-04-25T09:08:41Z</time></trkpt><trkpt lat="45.703936532938805" lon="9.711137333423453"><ele>269.85714285714283</ele><time>2026-04-25T09:08:43Z</time></trkpt><trkpt lat="45.70392094640699" lon="9.711042253478091"><ele>269.71428571428567</ele><time>2026-04-25T09:08:44Z</time></trkpt><trkpt lat="45.70391501188263" lon="9.710870517770507"><ele>269.57142857142856</ele><time>2026-04-25T09:08:46Z</time></trkpt><trkpt lat="45.70390233459978" lon="9.710775699371712"><ele>269.42857142857144</ele><time>2026-04-25T09:08:47Z</time></trkpt><trkpt lat="45.703880290015654" lon="9.710690130123954"><ele>269.28571428571433</ele><time>2026-04-25T09:08:48Z</time></trkpt><trkpt lat="45.70383899663325" lon="9.710618375051839"><ele>269.14285714285717</ele><time>2026-04-25T09:08:49Z</time></trkpt><trkpt lat="45.7037950198701" lon="9.71055066541912"><ele>269.0</ele><time>2026-04-25T09:08:50Z</time></trkpt><trkpt lat="45.70372444926622" lon="9.710405541864779"><ele>268.83333333333337</ele><time>2026-04-25T09:08:52Z</time></trkpt><trkpt lat="45.70370574494364" lon="9.710228569622773"><ele>268.6666666666667</ele><time>2026-04-25T09:08:54Z</time></trkpt><trkpt lat="45.703703118305626" lon="9.710135068881762"><ele>268.5</ele><time>2026-04-25T09:08:55Z</time></trkpt><trkpt lat="45.70369879765012" lon="9.71004253867754"><ele>268.3333333333333</ele><time>2026-04-25T09:08:56Z</time></trkpt><trkpt lat="45.70369296169003" lon="9.709949123343828"><ele>268.16666666666663</ele><time>2026-04-25T09:08:57Z</time></trkpt><trkpt lat="45.703682328006444" lon="9.709855155469212"><ele>268.0</ele><time>2026-04-25T09:08:58Z</time></trkpt><trkpt lat="45.70367532256085" lon="9.70976396497006"><ele>268.0</ele><time>2026-04-25T09:08:59Z</time></trkpt><trkpt lat="45.70366544257582" lon="9.709673448215453"><ele>268.0</ele><time>2026-04-25T09:09:00Z</time></trkpt><trkpt lat="45.7036672394882" lon="9.709581218931357"><ele>268.0</ele><time>2026-04-25T09:09:01Z</time></trkpt><trkpt lat="45.70366037421932" lon="9.709490501062508"><ele>268.0</ele><time>2026-04-25T09:09:02Z</time></trkpt><trkpt lat="45.70367053360375" lon="9.709394384953278"><ele>268.0</ele><time>2026-04-25T09:09:03Z</time></trkpt><trkpt lat="45.70367539290767" lon="9.709212580287991"><ele>268.0</ele><time>2026-04-25T09:09:05Z</time></trkpt><trkpt lat="45.70367838149042" lon="9.709120348408765"><ele>268.0</ele><time>2026-04-25T09:09:06Z</time></trkpt><trkpt lat="45.70368156250662" lon="9.709029433056065"><ele>268.0</ele><time>2026-04-25T09:09:07Z</time></trkpt><trkpt lat="45.703682358566866" lon="9.70893726614746"><ele>268.0</ele><time>2026-04-25T09:09:08Z</time></trkpt><trkpt lat="45.70368132841889" lon="9.70884575925486"><ele>268.0</ele><time>2026-04-25T09:09:09Z</time></trkpt><trkpt lat="45.70368556390948" lon="9.708754658321107"><ele>268.0</ele><time>2026-04-25T09:09:10Z</time></trkpt><trkpt lat="45.70368912815275" lon="9.708664287485263"><ele>268.0</ele><time>2026-04-25T09:09:11Z</time></trkpt><trkpt lat="45.70369312574871" lon="9.708572116481223"><ele>268.0</ele><time>2026-04-25T09:09:12Z</time></trkpt><trkpt lat="45.703692491020504" lon="9.708479518717674"><ele>268.0</ele><time>2026-04-25T09:09:13Z</time></trkpt><trkpt lat="45.703696854221576" lon="9.708298793351197"><ele>268.14285714285717</ele><time>2026-04-25T09:09:15Z</time></trkpt><trkpt lat="45.703699742115695" lon="9.708205885507844"><ele>268.2857142857143</ele><time>2026-04-25T09:09:16Z</time></trkpt><trkpt lat="45.70370416637855" lon="9.708113591180863"><ele>268.42857142857144</ele><time>2026-04-25T09:09:17Z</time></trkpt><trkpt lat="45.70370830322504" lon="9.70802118803989"><ele>268.57142857142856</ele><time>2026-04-25T09:09:18Z</time></trkpt><trkpt lat="45.70371251921187" lon="9.707928416783215"><ele>268.7142857142857</ele><time>2026-04-25T09:09:19Z</time></trkpt><trkpt lat="45.703711463257285" lon="9.70783539773972"><ele>268.8571428571429</ele><time>2026-04-25T09:09:20Z</time></trkpt><trkpt lat="45.70371222584653" lon="9.707741849468167"><ele>269.0</ele><time>2026-04-25T09:09:21Z</time></trkpt><trkpt lat="45.70371473156541" lon="9.707647899677742"><ele>269.0</ele><time>2026-04-25T09:09:22Z</time></trkpt><trkpt lat="45.70371992152159" lon="9.70755512055935"><ele>269.0</ele><time>2026-04-25T09:09:23Z</time></trkpt><trkpt lat="45.703728827939024" lon="9.707374730654418"><ele>269.0</ele><time>2026-04-25T09:09:25Z</time></trkpt><trkpt lat="45.703734075119115" lon="9.707281649954261"><ele>269.0</ele><time>2026-04-25T09:09:26Z</time></trkpt><trkpt lat="45.70373606587013" lon="9.707189626076532"><ele>269.0</ele><time>2026-04-25T09:09:27Z</time></trkpt><trkpt lat="45.70373818156509" lon="9.707094781769499"><ele>269.0</ele><time>2026-04-25T09:09:28Z</time></trkpt><trkpt lat="45.70374414367028" lon="9.707003775070218"><ele>268.8571428571429</ele><time>2026-04-25T09:09:29Z</time></trkpt><trkpt lat="45.703745752051624" lon="9.70691095531315"><ele>268.7142857142857</ele><time>2026-04-25T09:09:30Z</time></trkpt><trkpt lat="45.703746329902216" lon="9.706818392597361"><ele>268.57142857142856</ele><time>2026-04-25T09:09:31Z</time></trkpt><trkpt lat="45.70374872230427" lon="9.706727973776744"><ele>268.42857142857144</ele><time>2026-04-25T09:09:32Z</time></trkpt><trkpt lat="45.70375250530114" lon="9.706636783439412"><ele>268.2857142857143</ele><time>2026-04-25T09:09:33Z</time></trkpt><trkpt lat="45.70375695561139" lon="9.70654461367311"><ele>268.14285714285717</ele><time>2026-04-25T09:09:34Z</time></trkpt><trkpt lat="45.70375917261359" lon="9.706450792687287"><ele>268.0</ele><time>2026-04-25T09:09:35Z</time></trkpt><trkpt lat="45.70376014517028" lon="9.706358854348691"><ele>268.0</ele><time>2026-04-25T09:09:36Z</time></trkpt><trkpt lat="45.70376442618771" lon="9.7061764457237"><ele>268.0</ele><time>2026-04-25T09:09:38Z</time></trkpt><trkpt lat="45.703764864971824" lon="9.705995885562489"><ele>268.0</ele><time>2026-04-25T09:09:40Z</time></trkpt><trkpt lat="45.70376624512487" lon="9.705900684521758"><ele>268.0</ele><time>2026-04-25T09:09:41Z</time></trkpt><trkpt lat="45.70376841480501" lon="9.705718969239545"><ele>268.0</ele><time>2026-04-25T09:09:43Z</time></trkpt><trkpt lat="45.70376933678917" lon="9.705625203826239"><ele>268.0</ele><time>2026-04-25T09:09:44Z</time></trkpt><trkpt lat="45.703768208205396" lon="9.705531514698864"><ele>268.0</ele><time>2026-04-25T09:09:45Z</time></trkpt><trkpt lat="45.70376498271109" lon="9.705440727893981"><ele>268.0</ele><time>2026-04-25T09:09:46Z</time></trkpt><trkpt lat="45.703764069866835" lon="9.705346698373754"><ele>268.0</ele><time>2026-04-25T09:09:47Z</time></trkpt><trkpt lat="45.70376281849666" lon="9.705250876071519"><ele>268.0</ele><time>2026-04-25T09:09:48Z</time></trkpt><trkpt lat="45.703763989020764" lon="9.705160252941246"><ele>268.0</ele><time>2026-04-25T09:09:49Z</time></trkpt><trkpt lat="45.703755658435675" lon="9.705068922564152"><ele>268.0</ele><time>2026-04-25T09:09:50Z</time></trkpt><trkpt lat="45.70375299107811" lon="9.704975052003183"><ele>268.14285714285717</ele><time>2026-04-25T09:09:51Z</time></trkpt><trkpt lat="45.703748645077084" lon="9.70488261250876"><ele>268.2857142857143</ele><time>2026-04-25T09:09:52Z</time></trkpt><trkpt lat="45.70374189951994" lon="9.70478873936567"><ele>268.42857142857144</ele><time>2026-04-25T09:09:53Z</time></trkpt><trkpt lat="45.70374045592045" lon="9.704696323799041"><ele>268.57142857142856</ele><time>2026-04-25T09:09:54Z</time></trkpt><trkpt lat="45.703736342255674" lon="9.704603960233685"><ele>268.7142857142857</ele><time>2026-04-25T09:09:55Z</time></trkpt><trkpt lat="45.70373277632259" lon="9.70451096254796"><ele>268.8571428571429</ele><time>2026-04-25T09:09:56Z</time></trkpt><trkpt lat="45.70372885954066" lon="9.704418708797949"><ele>269.0</ele><time>2026-04-25T09:09:57Z</time></trkpt><trkpt lat="45.703725022909275" lon="9.704326994929554"><ele>268.7142857142857</ele><time>2026-04-25T09:09:58Z</time></trkpt><trkpt lat="45.703718324479105" lon="9.704146504985687"><ele>268.42857142857144</ele><time>2026-04-25T09:10:00Z</time></trkpt><trkpt lat="45.703711104899774" lon="9.704055444187382"><ele>268.14285714285717</ele><time>2026-04-25T09:10:01Z</time></trkpt><trkpt lat="45.70370934270392" lon="9.703964434821671"><ele>267.8571428571429</ele><time>2026-04-25T09:10:02Z</time></trkpt><trkpt lat="45.703702732810676" lon="9.703873153908303"><ele>267.57142857142856</ele><time>2026-04-25T09:10:03Z</time></trkpt><trkpt lat="45.70369724181454" lon="9.70378172703192"><ele>267.28571428571433</ele><time>2026-04-25T09:10:04Z</time></trkpt><trkpt lat="45.70369314375969" lon="9.703689527884498"><ele>267.0</ele><time>2026-04-25T09:10:05Z</time></trkpt><trkpt lat="45.70368929161696" lon="9.703598537061474"><ele>267.14285714285717</ele><time>2026-04-25T09:10:06Z</time></trkpt><trkpt lat="45.70368275711829" lon="9.703503903232342"><ele>267.2857142857143</ele><time>2026-04-25T09:10:07Z</time></trkpt><trkpt lat="45.70367689674457" lon="9.70341311929798"><ele>267.42857142857144</ele><time>2026-04-25T09:10:08Z</time></trkpt><trkpt lat="45.70367159503604" lon="9.703320833517324"><ele>267.57142857142856</ele><time>2026-04-25T09:10:09Z</time></trkpt><trkpt lat="45.70366603736534" lon="9.703228906077703"><ele>267.7142857142857</ele><time>2026-04-25T09:10:10Z</time></trkpt><trkpt lat="45.70365616445846" lon="9.703138547414301"><ele>267.8571428571429</ele><time>2026-04-25T09:10:11Z</time></trkpt><trkpt lat="45.703647523380354" lon="9.703046287987043"><ele>268.0</ele><time>2026-04-25T09:10:12Z</time></trkpt><trkpt lat="45.7036385131788" lon="9.70295373141008"><ele>268.0</ele><time>2026-04-25T09:10:13Z</time></trkpt><trkpt lat="45.703627961859965" lon="9.702863424260038"><ele>268.0</ele><time>2026-04-25T09:10:14Z</time></trkpt><trkpt lat="45.70361459393014" lon="9.702771927033487"><ele>268.0</ele><time>2026-04-25T09:10:15Z</time></trkpt><trkpt lat="45.703603377902326" lon="9.702681303214787"><ele>268.0</ele><time>2026-04-25T09:10:16Z</time></trkpt><trkpt lat="45.70357742253746" lon="9.702513491601552"><ele>268.0</ele><time>2026-04-25T09:10:18Z</time></trkpt><trkpt lat="45.70356246094212" lon="9.702420031581779"><ele>268.0</ele><time>2026-04-25T09:10:19Z</time></trkpt><trkpt lat="45.7035270594667" lon="9.702243262786478"><ele>267.5</ele><time>2026-04-25T09:10:21Z</time></trkpt><trkpt lat="45.70350156561802" lon="9.702065826505692"><ele>267.0</ele><time>2026-04-25T09:10:23Z</time></trkpt><trkpt lat="45.703489129799735" lon="9.701973653106498"><ele>266.5</ele><time>2026-04-25T09:10:24Z</time></trkpt><trkpt lat="45.70347697260398" lon="9.701884206573434"><ele>266.0</ele><time>2026-04-25T09:10:25Z</time></trkpt><trkpt lat="45.70346411097599" lon="9.701792691808775"><ele>265.5</ele><time>2026-04-25T09:10:26Z</time></trkpt><trkpt lat="45.70345027554972" lon="9.701704169213498"><ele>265.0</ele><time>2026-04-25T09:10:27Z</time></trkpt><trkpt lat="45.70343744775588" lon="9.701612038364583"><ele>265.0</ele><time>2026-04-25T09:10:28Z</time></trkpt><trkpt lat="45.703409092535644" lon="9.701435538211054"><ele>265.0</ele><time>2026-04-25T09:10:30Z</time></trkpt><trkpt lat="45.70339521179432" lon="9.701345366701903"><ele>265.0</ele><time>2026-04-25T09:10:31Z</time></trkpt><trkpt lat="45.70338679161031" lon="9.70124966624176"><ele>265.0</ele><time>2026-04-25T09:10:32Z</time></trkpt><trkpt lat="45.703353104887924" lon="9.701075040651768"><ele>265.0</ele><time>2026-04-25T09:10:34Z</time></trkpt><trkpt lat="45.703340763306116" lon="9.700985789956684"><ele>265.0</ele><time>2026-04-25T09:10:35Z</time></trkpt><trkpt lat="45.703312717423614" lon="9.70080578335203"><ele>265.4</ele><time>2026-04-25T09:10:37Z</time></trkpt><trkpt lat="45.70330226210055" lon="9.700715334632132"><ele>265.8</ele><time>2026-04-25T09:10:38Z</time></trkpt><trkpt lat="45.70327213386116" lon="9.700533378799012"><ele>266.2</ele><time>2026-04-25T09:10:40Z</time></trkpt><trkpt lat="45.70324840006858" lon="9.700354522211644"><ele>266.6</ele><time>2026-04-25T09:10:42Z</time></trkpt><trkpt lat="45.703225309786625" lon="9.700176288179309"><ele>267.0</ele><time>2026-04-25T09:10:44Z</time></trkpt><trkpt lat="45.70321308211114" lon="9.700086313871951"><ele>267.00000000000006</ele><time>2026-04-25T09:10:45Z</time></trkpt><trkpt lat="45.70320179185568" lon="9.699996219678171"><ele>267.0</ele><time>2026-04-25T09:10:46Z</time></trkpt><trkpt lat="45.70317810820637" lon="9.699820005051848"><ele>267.0</ele><time>2026-04-25T09:10:48Z</time></trkpt><trkpt lat="45.703165667732826" lon="9.699730542820626"><ele>267.0</ele><time>2026-04-25T09:10:49Z</time></trkpt><trkpt lat="45.703152408000385" lon="9.699638714963507"><ele>267.0</ele><time>2026-04-25T09:10:50Z</time></trkpt><trkpt lat="45.703140518504796" lon="9.699550101119879"><ele>267.00000000000006</ele><time>2026-04-25T09:10:51Z</time></trkpt><trkpt lat="45.70312513445377" lon="9.699457870116486"><ele>267.0</ele><time>2026-04-25T09:10:52Z</time></trkpt><trkpt lat="45.7031135491636" lon="9.69936838753916"><ele>266.8571428571429</ele><time>2026-04-25T09:10:53Z</time></trkpt><trkpt lat="45.70310090500429" lon="9.69927962274371"><ele>266.7142857142857</ele><time>2026-04-25T09:10:54Z</time></trkpt><trkpt lat="45.70308887420423" lon="9.69918711016923"><ele>266.57142857142856</ele><time>2026-04-25T09:10:55Z</time></trkpt><trkpt lat="45.7030782170525" lon="9.699097338199762"><ele>266.42857142857144</ele><time>2026-04-25T09:10:56Z</time></trkpt><trkpt lat="45.70305625351322" lon="9.69891831051554"><ele>266.2857142857143</ele><time>2026-04-25T09:10:58Z</time></trkpt><trkpt lat="45.70304379404433" lon="9.698828739863382"><ele>266.14285714285717</ele><time>2026-04-25T09:10:59Z</time></trkpt><trkpt lat="45.70303104701712" lon="9.698740120332712"><ele>266.0</ele><time>2026-04-25T09:11:00Z</time></trkpt><trkpt lat="45.70301980079914" lon="9.698650559560283"><ele>265.6666666666667</ele><time>2026-04-25T09:11:01Z</time></trkpt><trkpt lat="45.70299301709306" lon="9.698471837465727"><ele>265.33333333333337</ele><time>2026-04-25T09:11:03Z</time></trkpt><trkpt lat="45.70298001234558" lon="9.698381501523802"><ele>265.0</ele><time>2026-04-25T09:11:04Z</time></trkpt><trkpt lat="45.702956785681835" lon="9.698204173418404"><ele>264.6666666666667</ele><time>2026-04-25T09:11:06Z</time></trkpt><trkpt lat="45.702944687098615" lon="9.698114821196143"><ele>264.3333333333333</ele><time>2026-04-25T09:11:07Z</time></trkpt><trkpt lat="45.70293404291455" lon="9.69802581641056"><ele>264.0</ele><time>2026-04-25T09:11:08Z</time></trkpt><trkpt lat="45.70291141754371" lon="9.697850228447374"><ele>264.1428571428571</ele><time>2026-04-25T09:11:10Z</time></trkpt><trkpt lat="45.70289303745791" lon="9.697671897128341"><ele>264.2857142857143</ele><time>2026-04-25T09:11:12Z</time></trkpt><trkpt lat="45.70288619491004" lon="9.697580730352136"><ele>264.42857142857144</ele><time>2026-04-25T09:11:13Z</time></trkpt><trkpt lat="45.70287730717338" lon="9.697489834931492"><ele>264.57142857142856</ele><time>2026-04-25T09:11:14Z</time></trkpt><trkpt lat="45.702875751816116" lon="9.697398365211512"><ele>264.7142857142857</ele><time>2026-04-25T09:11:15Z</time></trkpt><trkpt lat="45.70288233366927" lon="9.69730507955396"><ele>264.85714285714283</ele><time>2026-04-25T09:11:16Z</time></trkpt><trkpt lat="45.70289337242111" lon="9.697212957826174"><ele>265.0</ele><time>2026-04-25T09:11:17Z</time></trkpt><trkpt lat="45.70290993038996" lon="9.697123207345362"><ele>265.0</ele><time>2026-04-25T09:11:18Z</time></trkpt><trkpt lat="45.70293056942985" lon="9.69703565544331"><ele>265.0</ele><time>2026-04-25T09:11:19Z</time></trkpt><trkpt lat="45.7029846501629" lon="9.696873033435883"><ele>265.0</ele><time>2026-04-25T09:11:21Z</time></trkpt><trkpt lat="45.703014679859805" lon="9.696792651090416"><ele>265.0</ele><time>2026-04-25T09:11:22Z</time></trkpt><trkpt lat="45.703081549345455" lon="9.696643038595688"><ele>265.0</ele><time>2026-04-25T09:11:24Z</time></trkpt><trkpt lat="45.70315017319151" lon="9.69649317380349"><ele>265.0</ele><time>2026-04-25T09:11:26Z</time></trkpt><trkpt lat="45.703181981756465" lon="9.696413581716921"><ele>265.0</ele><time>2026-04-25T09:11:27Z</time></trkpt><trkpt lat="45.70321972380108" lon="9.696339896321001"><ele>265.0</ele><time>2026-04-25T09:11:28Z</time></trkpt><trkpt lat="45.703254039948284" lon="9.69626026890443"><ele>265.0</ele><time>2026-04-25T09:11:29Z</time></trkpt><trkpt lat="45.70331658841616" lon="9.6961012263794"><ele>265.0</ele><time>2026-04-25T09:11:31Z</time></trkpt><trkpt lat="45.703382308575264" lon="9.695955365896065"><ele>265.0</ele><time>2026-04-25T09:11:33Z</time></trkpt><trkpt lat="45.703481984769546" lon="9.695859276475217"><ele>265.25</ele><time>2026-04-25T09:11:35Z</time></trkpt><trkpt lat="45.703593048908154" lon="9.695836327465592"><ele>265.5</ele><time>2026-04-25T09:11:37Z</time></trkpt><trkpt lat="45.70370338466473" lon="9.695851649695115"><ele>265.75</ele><time>2026-04-25T09:11:39Z</time></trkpt><trkpt lat="45.703831275264676" lon="9.695862085465777"><ele>266.0</ele><time>2026-04-25T09:11:41Z</time></trkpt><trkpt lat="45.703957317716174" lon="9.695853358644253"><ele>266.0</ele><time>2026-04-25T09:11:43Z</time></trkpt><trkpt lat="45.70401861398978" lon="9.695828366711538"><ele>266.0</ele><time>2026-04-25T09:11:44Z</time></trkpt><trkpt lat="45.70407318407683" lon="9.695782003194735"><ele>266.0</ele><time>2026-04-25T09:11:45Z</time></trkpt><trkpt lat="45.70412107054282" lon="9.695722664615403"><ele>266.0</ele><time>2026-04-25T09:11:46Z</time></trkpt><trkpt lat="45.70419086433848" lon="9.695575338441184"><ele>266.0</ele><time>2026-04-25T09:11:48Z</time></trkpt><trkpt lat="45.70423555411311" lon="9.69549838310167"><ele>266.0</ele><time>2026-04-25T09:11:49Z</time></trkpt><trkpt lat="45.70434106751873" lon="9.69542569786701"><ele>266.0</ele><time>2026-04-25T09:11:51Z</time></trkpt><trkpt lat="45.70440537111939" lon="9.695416110666352"><ele>266.0</ele><time>2026-04-25T09:11:52Z</time></trkpt><trkpt lat="45.70446934995165" lon="9.695404310402857"><ele>266.0</ele><time>2026-04-25T09:11:53Z</time></trkpt><trkpt lat="45.70453332019787" lon="9.695390784411845"><ele>266.0</ele><time>2026-04-25T09:11:54Z</time></trkpt><trkpt lat="45.70459536899754" lon="9.695361526368066"><ele>266.0</ele><time>2026-04-25T09:11:55Z</time></trkpt><trkpt lat="45.704654510711244" lon="9.695329092154346"><ele>266.0</ele><time>2026-04-25T09:11:56Z</time></trkpt><trkpt lat="45.70471050329899" lon="9.695279850920969"><ele>266.0</ele><time>2026-04-25T09:11:57Z</time></trkpt><trkpt lat="45.70480439672223" lon="9.69515916674924"><ele>266.33333333333337</ele><time>2026-04-25T09:11:59Z</time></trkpt><trkpt lat="45.70484763948239" lon="9.695089789440761"><ele>266.6666666666667</ele><time>2026-04-25T09:12:00Z</time></trkpt><trkpt lat="45.704882231874095" lon="9.695013728632583"><ele>267.0</ele><time>2026-04-25T09:12:01Z</time></trkpt><trkpt lat="45.70491332225852" lon="9.69493182952364"><ele>267.3333333333333</ele><time>2026-04-25T09:12:02Z</time></trkpt><trkpt lat="45.70497483876952" lon="9.694776117764835"><ele>267.66666666666663</ele><time>2026-04-25T09:12:04Z</time></trkpt><trkpt lat="45.70507063293016" lon="9.694655919882761"><ele>268.0</ele><time>2026-04-25T09:12:06Z</time></trkpt><trkpt lat="45.705130115191224" lon="9.694621782526092"><ele>268.0</ele><time>2026-04-25T09:12:07Z</time></trkpt><trkpt lat="45.705191631901414" lon="9.69459177058336"><ele>268.0</ele><time>2026-04-25T09:12:08Z</time></trkpt><trkpt lat="45.70525313641612" lon="9.69457034993777"><ele>268.0</ele><time>2026-04-25T09:12:09Z</time></trkpt><trkpt lat="45.7053740812009" lon="9.69452123891926"><ele>268.0</ele><time>2026-04-25T09:12:11Z</time></trkpt><trkpt lat="45.705434427342624" lon="9.694492174513691"><ele>268.0</ele><time>2026-04-25T09:12:12Z</time></trkpt><trkpt lat="45.70549255922933" lon="9.694456070106437"><ele>268.0</ele><time>2026-04-25T09:12:13Z</time></trkpt><trkpt lat="45.705550590388036" lon="9.694419019974209"><ele>268.0</ele><time>2026-04-25T09:12:14Z</time></trkpt><trkpt lat="45.70560915115945" lon="9.694382597321798"><ele>268.0</ele><time>2026-04-25T09:12:15Z</time></trkpt><trkpt lat="45.705725047256244" lon="9.694318330383588"><ele>268.0</ele><time>2026-04-25T09:12:17Z</time></trkpt><trkpt lat="45.70578539049906" lon="9.694286943496866"><ele>268.0</ele><time>2026-04-25T09:12:18Z</time></trkpt><trkpt lat="45.70584480926506" lon="9.694255132863066"><ele>268.0</ele><time>2026-04-25T09:12:19Z</time></trkpt><trkpt lat="45.70590757580753" lon="9.694230171830378"><ele>268.0</ele><time>2026-04-25T09:12:20Z</time></trkpt><trkpt lat="45.705967323041335" lon="9.69419955217886"><ele>268.0</ele><time>2026-04-25T09:12:21Z</time></trkpt><trkpt lat="45.706027147218244" lon="9.694169110927561"><ele>268.0</ele><time>2026-04-25T09:12:22Z</time></trkpt><trkpt lat="45.70609021452286" lon="9.694137036088396"><ele>268.0</ele><time>2026-04-25T09:12:23Z</time></trkpt><trkpt lat="45.70620727085174" lon="9.694069173337345"><ele>268.0</ele><time>2026-04-25T09:12:25Z</time></trkpt><trkpt lat="45.70626566717441" lon="9.69402806038405"><ele>268.0</ele><time>2026-04-25T09:12:26Z</time></trkpt><trkpt lat="45.70632341929308" lon="9.693986419985062"><ele>268.0</ele><time>2026-04-25T09:12:27Z</time></trkpt><trkpt lat="45.706436167421096" lon="9.693898174193679"><ele>268.0</ele><time>2026-04-25T09:12:29Z</time></trkpt><trkpt lat="45.70649088789142" lon="9.693848354807967"><ele>268.0</ele><time>2026-04-25T09:12:30Z</time></trkpt><trkpt lat="45.70654649986398" lon="9.693797510263083"><ele>268.0</ele><time>2026-04-25T09:12:31Z</time></trkpt><trkpt lat="45.70659857220695" lon="9.693743568791495"><ele>268.0</ele><time>2026-04-25T09:12:32Z</time></trkpt><trkpt lat="45.70665073465056" lon="9.69368774000518"><ele>268.0</ele><time>2026-04-25T09:12:33Z</time></trkpt><trkpt lat="45.70670454436826" lon="9.69363897378455"><ele>268.0</ele><time>2026-04-25T09:12:34Z</time></trkpt><trkpt lat="45.70675741281332" lon="9.693589842153557"><ele>268.0</ele><time>2026-04-25T09:12:35Z</time></trkpt><trkpt lat="45.7068570454997" lon="9.693486772960817"><ele>268.0</ele><time>2026-04-25T09:12:37Z</time></trkpt><trkpt lat="45.70695402171182" lon="9.693375830139193"><ele>267.5</ele><time>2026-04-25T09:12:39Z</time></trkpt><trkpt lat="45.70704314112349" lon="9.69325992978782"><ele>267.0</ele><time>2026-04-25T09:12:41Z</time></trkpt><trkpt lat="45.70712917360777" lon="9.693135941194726"><ele>266.5</ele><time>2026-04-25T09:12:43Z</time></trkpt><trkpt lat="45.70721232782523" lon="9.693007497084988"><ele>266.0</ele><time>2026-04-25T09:12:45Z</time></trkpt><trkpt lat="45.70729542861894" lon="9.692878987889925"><ele>265.6666666666667</ele><time>2026-04-25T09:12:47Z</time></trkpt><trkpt lat="45.70734547173177" lon="9.692755090804138"><ele>265.33333333333337</ele><time>2026-04-25T09:12:49Z</time></trkpt><trkpt lat="45.707418294519194" lon="9.692691028223498"><ele>265.0</ele><time>2026-04-25T09:12:50Z</time></trkpt><trkpt lat="45.70749591776675" lon="9.69255862899168"><ele>264.6666666666667</ele><time>2026-04-25T09:12:52Z</time></trkpt><trkpt lat="45.70754221285028" lon="9.692489180975176"><ele>264.3333333333333</ele><time>2026-04-25T09:12:53Z</time></trkpt><trkpt lat="45.70758612825527" lon="9.692422984779364"><ele>264.0</ele><time>2026-04-25T09:12:54Z</time></trkpt><trkpt lat="45.70766918412082" lon="9.692291748556613"><ele>264.8333333333333</ele><time>2026-04-25T09:12:56Z</time></trkpt><trkpt lat="45.7077539417782" lon="9.692163162715637"><ele>265.6666666666667</ele><time>2026-04-25T09:12:58Z</time></trkpt><trkpt lat="45.707807517714684" lon="9.692089832829362"><ele>266.5</ele><time>2026-04-25T09:12:59Z</time></trkpt><trkpt lat="45.707882286578155" lon="9.691960461052595"><ele>267.33333333333337</ele><time>2026-04-25T09:13:01Z</time></trkpt><trkpt lat="45.707921083244585" lon="9.691887974321814"><ele>268.1666666666667</ele><time>2026-04-25T09:13:02Z</time></trkpt><trkpt lat="45.707970748536226" lon="9.691823413758042"><ele>269.0</ele><time>2026-04-25T09:13:03Z</time></trkpt><trkpt lat="45.70805552442919" lon="9.691674587179344"><ele>269.0</ele><time>2026-04-25T09:13:05Z</time></trkpt><trkpt lat="45.70810175359472" lon="9.691609278177246"><ele>269.0</ele><time>2026-04-25T09:13:06Z</time></trkpt><trkpt lat="45.70818605074218" lon="9.691472648695095"><ele>269.0</ele><time>2026-04-25T09:13:08Z</time></trkpt><trkpt lat="45.70827394551753" lon="9.69133907423116"><ele>269.0</ele><time>2026-04-25T09:13:10Z</time></trkpt><trkpt lat="45.70831936189452" lon="9.691267391967898"><ele>269.0</ele><time>2026-04-25T09:13:11Z</time></trkpt><trkpt lat="45.70836468018378" lon="9.69119170693357"><ele>269.0</ele><time>2026-04-25T09:13:12Z</time></trkpt><trkpt lat="45.70841170395884" lon="9.691122308514844"><ele>269.0</ele><time>2026-04-25T09:13:13Z</time></trkpt><trkpt lat="45.70846245300021" lon="9.6910600815793"><ele>269.0</ele><time>2026-04-25T09:13:14Z</time></trkpt><trkpt lat="45.70850943264413" lon="9.690958285094128"><ele>269.0</ele><time>2026-04-25T09:13:15Z</time></trkpt><trkpt lat="45.70855918068832" lon="9.690892026638954"><ele>269.0</ele><time>2026-04-25T09:13:16Z</time></trkpt><trkpt lat="45.70861395873232" lon="9.69081032132994"><ele>269.0</ele><time>2026-04-25T09:13:17Z</time></trkpt><trkpt lat="45.70866725560001" lon="9.690726380998077"><ele>269.0</ele><time>2026-04-25T09:13:18Z</time></trkpt><trkpt lat="45.708724769030354" lon="9.690636603592635"><ele>269.0</ele><time>2026-04-25T09:13:19Z</time></trkpt><trkpt lat="45.708776722540435" lon="9.690554442799572"><ele>269.0</ele><time>2026-04-25T09:13:20Z</time></trkpt><trkpt lat="45.708822387873305" lon="9.690471060116417"><ele>269.0</ele><time>2026-04-25T09:13:21Z</time></trkpt><trkpt lat="45.708886970822235" lon="9.690381538162763"><ele>269.0</ele><time>2026-04-25T09:13:22Z</time></trkpt><trkpt lat="45.7089389114649" lon="9.690303956290014"><ele>269.0</ele><time>2026-04-25T09:13:23Z</time></trkpt><trkpt lat="45.708994672359644" lon="9.690228830048202"><ele>269.0</ele><time>2026-04-25T09:13:24Z</time></trkpt><trkpt lat="45.70905022945032" lon="9.690170479539882"><ele>269.0</ele><time>2026-04-25T09:13:25Z</time></trkpt><trkpt lat="45.70910412270143" lon="9.6900899677505"><ele>269.0</ele><time>2026-04-25T09:13:26Z</time></trkpt><trkpt lat="45.709154933452176" lon="9.690027257855006"><ele>269.0</ele><time>2026-04-25T09:13:27Z</time></trkpt><trkpt lat="45.70921273262105" lon="9.689976802895625"><ele>269.0</ele><time>2026-04-25T09:13:28Z</time></trkpt><trkpt lat="45.70926355447773" lon="9.689917270062672"><ele>269.0</ele><time>2026-04-25T09:13:29Z</time></trkpt><trkpt lat="45.70931639090154" lon="9.689864423057323"><ele>269.0</ele><time>2026-04-25T09:13:30Z</time></trkpt><trkpt lat="45.709368113615895" lon="9.689809375182028"><ele>269.0</ele><time>2026-04-25T09:13:31Z</time></trkpt><trkpt lat="45.709427401586346" lon="9.689772773520302"><ele>269.0</ele><time>2026-04-25T09:13:32Z</time></trkpt><trkpt lat="45.70948189879273" lon="9.689712120406407"><ele>269.0</ele><time>2026-04-25T09:13:33Z</time></trkpt><trkpt lat="45.709588285480024" lon="9.689628195752418"><ele>269.0</ele><time>2026-04-25T09:13:35Z</time></trkpt><trkpt lat="45.7096979543317" lon="9.68952321449881"><ele>269.0</ele><time>2026-04-25T09:13:37Z</time></trkpt><trkpt lat="45.709792352174276" lon="9.68943111068167"><ele>269.0</ele><time>2026-04-25T09:13:39Z</time></trkpt><trkpt lat="45.70985696691585" lon="9.689394028172845"><ele>269.0</ele><time>2026-04-25T09:13:40Z</time></trkpt><trkpt lat="45.70996111654604" lon="9.689301521368607"><ele>269.0</ele><time>2026-04-25T09:13:42Z</time></trkpt><trkpt lat="45.71006633119543" lon="9.68920791760506"><ele>269.0</ele><time>2026-04-25T09:13:44Z</time></trkpt><trkpt lat="45.7101215514751" lon="9.689162592624529"><ele>269.0</ele><time>2026-04-25T09:13:45Z</time></trkpt><trkpt lat="45.710228941762416" lon="9.689072898436471"><ele>269.0</ele><time>2026-04-25T09:13:47Z</time></trkpt><trkpt lat="45.710337754665716" lon="9.688971882366426"><ele>269.5</ele><time>2026-04-25T09:13:49Z</time></trkpt><trkpt lat="45.710443664400266" lon="9.688882508423248"><ele>270.0</ele><time>2026-04-25T09:13:51Z</time></trkpt><trkpt lat="45.71054964173674" lon="9.688792349600437"><ele>270.5</ele><time>2026-04-25T09:13:53Z</time></trkpt><trkpt lat="45.71065830197836" lon="9.688699778807361"><ele>271.0</ele><time>2026-04-25T09:13:55Z</time></trkpt><trkpt lat="45.710762379789365" lon="9.688604712973468"><ele>271.0</ele><time>2026-04-25T09:13:57Z</time></trkpt><trkpt lat="45.71086488245178" lon="9.688512061409936"><ele>271.0</ele><time>2026-04-25T09:13:59Z</time></trkpt><trkpt lat="45.71097204652718" lon="9.688425928557088"><ele>271.0</ele><time>2026-04-25T09:14:01Z</time></trkpt><trkpt lat="45.71107171533406" lon="9.688327119406095"><ele>271.0</ele><time>2026-04-25T09:14:03Z</time></trkpt><trkpt lat="45.711167368952495" lon="9.688223404213863"><ele>271.5</ele><time>2026-04-25T09:14:05Z</time></trkpt><trkpt lat="45.71126170803452" lon="9.688121505598485"><ele>272.0</ele><time>2026-04-25T09:14:07Z</time></trkpt><trkpt lat="45.7113596488127" lon="9.688005449331204"><ele>272.5</ele><time>2026-04-25T09:14:09Z</time></trkpt><trkpt lat="45.711446447854506" lon="9.687894015207604"><ele>273.0</ele><time>2026-04-25T09:14:11Z</time></trkpt><trkpt lat="45.7115405046714" lon="9.687772532689207"><ele>272.8</ele><time>2026-04-25T09:14:13Z</time></trkpt><trkpt lat="45.711587691943635" lon="9.687708500806059"><ele>272.6</ele><time>2026-04-25T09:14:14Z</time></trkpt><trkpt lat="45.71168202990139" lon="9.687578792650005"><ele>272.4</ele><time>2026-04-25T09:14:16Z</time></trkpt><trkpt lat="45.711753632006314" lon="9.68744590438747"><ele>272.2</ele><time>2026-04-25T09:14:18Z</time></trkpt><trkpt lat="45.7117976682761" lon="9.687371785623537"><ele>272.0</ele><time>2026-04-25T09:14:19Z</time></trkpt><trkpt lat="45.71187254177192" lon="9.687228059477338"><ele>272.1428571428571</ele><time>2026-04-25T09:14:21Z</time></trkpt><trkpt lat="45.711949527254795" lon="9.687085307934645"><ele>272.2857142857143</ele><time>2026-04-25T09:14:23Z</time></trkpt><trkpt lat="45.71199107458178" lon="9.68701287338801"><ele>272.42857142857144</ele><time>2026-04-25T09:14:24Z</time></trkpt><trkpt lat="45.71202502313461" lon="9.686936708232537"><ele>272.57142857142856</ele><time>2026-04-25T09:14:25Z</time></trkpt><trkpt lat="45.7120617049379" lon="9.686860907076165"><ele>272.7142857142857</ele><time>2026-04-25T09:14:26Z</time></trkpt><trkpt lat="45.7120966774285" lon="9.68678218487339"><ele>272.85714285714283</ele><time>2026-04-25T09:14:27Z</time></trkpt><trkpt lat="45.71213232174687" lon="9.686704812934655"><ele>273.0</ele><time>2026-04-25T09:14:28Z</time></trkpt><trkpt lat="45.71220018838596" lon="9.686545944060796"><ele>273.5</ele><time>2026-04-25T09:14:30Z</time></trkpt><trkpt lat="45.71222939217954" lon="9.686464462836023"><ele>274.0</ele><time>2026-04-25T09:14:31Z</time></trkpt><trkpt lat="45.712296819546175" lon="9.686303859028127"><ele>274.5</ele><time>2026-04-25T09:14:33Z</time></trkpt><trkpt lat="45.71232423464566" lon="9.686221761815546"><ele>275.0</ele><time>2026-04-25T09:14:34Z</time></trkpt><trkpt lat="45.71236497213664" lon="9.686144842184357"><ele>275.5</ele><time>2026-04-25T09:14:35Z</time></trkpt><trkpt lat="45.712399872884056" lon="9.686067713470258"><ele>276.0</ele><time>2026-04-25T09:14:36Z</time></trkpt><trkpt lat="45.71242940328868" lon="9.6859826981679"><ele>276.0</ele><time>2026-04-25T09:14:37Z</time></trkpt><trkpt lat="45.712452044152265" lon="9.685896325636168"><ele>276.0</ele><time>2026-04-25T09:14:38Z</time></trkpt><trkpt lat="45.71249367890516" lon="9.685826565549704"><ele>276.0</ele><time>2026-04-25T09:14:39Z</time></trkpt><trkpt lat="45.71252524279493" lon="9.68573894774777"><ele>276.0</ele><time>2026-04-25T09:14:40Z</time></trkpt><trkpt lat="45.7125592237869" lon="9.68565603270001"><ele>276.0</ele><time>2026-04-25T09:14:41Z</time></trkpt><trkpt lat="45.7126278942246" lon="9.685497331746028"><ele>276.0</ele><time>2026-04-25T09:14:43Z</time></trkpt><trkpt lat="45.712664684493454" lon="9.68542321591897"><ele>276.3333333333333</ele><time>2026-04-25T09:14:44Z</time></trkpt><trkpt lat="45.71272087273" lon="9.685259003446085"><ele>276.6666666666667</ele><time>2026-04-25T09:14:46Z</time></trkpt><trkpt lat="45.71275761562679" lon="9.685178023135427"><ele>277.0</ele><time>2026-04-25T09:14:47Z</time></trkpt><trkpt lat="45.71278882558401" lon="9.685096360327169"><ele>277.33333333333337</ele><time>2026-04-25T09:14:48Z</time></trkpt><trkpt lat="45.71282200626257" lon="9.685018977000134"><ele>277.6666666666667</ele><time>2026-04-25T09:14:49Z</time></trkpt><trkpt lat="45.71285629156459" lon="9.684941246426382"><ele>278.0</ele><time>2026-04-25T09:14:50Z</time></trkpt><trkpt lat="45.71288436753091" lon="9.684859161055995"><ele>278.4</ele><time>2026-04-25T09:14:51Z</time></trkpt><trkpt lat="45.71292287874881" lon="9.684778267526031"><ele>278.8</ele><time>2026-04-25T09:14:52Z</time></trkpt><trkpt lat="45.71298711633667" lon="9.684641451495754"><ele>279.2</ele><time>2026-04-25T09:14:54Z</time></trkpt><trkpt lat="45.713024529240066" lon="9.684547648847374"><ele>279.6</ele><time>2026-04-25T09:14:55Z</time></trkpt><trkpt lat="45.713050349174196" lon="9.68445138380956"><ele>280.0</ele><time>2026-04-25T09:14:56Z</time></trkpt><trkpt lat="45.71311739419939" lon="9.684305325124683"><ele>279.16666666666663</ele><time>2026-04-25T09:14:58Z</time></trkpt><trkpt lat="45.71315173584392" lon="9.684224240535828"><ele>278.3333333333333</ele><time>2026-04-25T09:14:59Z</time></trkpt><trkpt lat="45.713185974106665" lon="9.684140345632933"><ele>277.5</ele><time>2026-04-25T09:15:00Z</time></trkpt><trkpt lat="45.71325472376898" lon="9.683986633705723"><ele>276.6666666666667</ele><time>2026-04-25T09:15:02Z</time></trkpt><trkpt lat="45.71327697689458" lon="9.683899726550958"><ele>275.83333333333337</ele><time>2026-04-25T09:15:03Z</time></trkpt><trkpt lat="45.713320717587884" lon="9.683826070607472"><ele>275.0</ele><time>2026-04-25T09:15:04Z</time></trkpt><trkpt lat="45.71334916628783" lon="9.683741475564013"><ele>275.4</ele><time>2026-04-25T09:15:05Z</time></trkpt><trkpt lat="45.713399107304475" lon="9.683584939161783"><ele>275.8</ele><time>2026-04-25T09:15:07Z</time></trkpt><trkpt lat="45.71344249075133" lon="9.68350869906593"><ele>276.2</ele><time>2026-04-25T09:15:08Z</time></trkpt><trkpt lat="45.71347911696108" lon="9.683428999542873"><ele>276.6</ele><time>2026-04-25T09:15:09Z</time></trkpt><trkpt lat="45.713542753157256" lon="9.683269957116241"><ele>277.0</ele><time>2026-04-25T09:15:11Z</time></trkpt><trkpt lat="45.71358419214934" lon="9.683096907699776"><ele>277.0</ele><time>2026-04-25T09:15:13Z</time></trkpt><trkpt lat="45.713645744253675" lon="9.682944471064985"><ele>277.0</ele><time>2026-04-25T09:15:15Z</time></trkpt><trkpt lat="45.713668516096035" lon="9.682859368378447"><ele>277.0</ele><time>2026-04-25T09:15:16Z</time></trkpt><trkpt lat="45.71369460901427" lon="9.682776659273008"><ele>277.0</ele><time>2026-04-25T09:15:17Z</time></trkpt><trkpt lat="45.71374604416748" lon="9.682615183939264"><ele>277.0</ele><time>2026-04-25T09:15:19Z</time></trkpt><trkpt lat="45.71376341529388" lon="9.682524494099752"><ele>277.0</ele><time>2026-04-25T09:15:20Z</time></trkpt><trkpt lat="45.71380306661188" lon="9.682355676336744"><ele>276.3333333333333</ele><time>2026-04-25T09:15:22Z</time></trkpt><trkpt lat="45.713824743991026" lon="9.682266409372223"><ele>275.66666666666663</ele><time>2026-04-25T09:15:23Z</time></trkpt><trkpt lat="45.713841628717084" lon="9.6821767690656"><ele>275.0</ele><time>2026-04-25T09:15:24Z</time></trkpt><trkpt lat="45.71387574003435" lon="9.681998344877526"><ele>274.3333333333333</ele><time>2026-04-25T09:15:26Z</time></trkpt><trkpt lat="45.713891489741755" lon="9.681905383086484"><ele>273.6666666666667</ele><time>2026-04-25T09:15:27Z</time></trkpt><trkpt lat="45.7139093740827" lon="9.681818130988406"><ele>273.0</ele><time>2026-04-25T09:15:28Z</time></trkpt><trkpt lat="45.71392549630514" lon="9.681725078497882"><ele>272.7142857142857</ele><time>2026-04-25T09:15:29Z</time></trkpt><trkpt lat="45.71394100678898" lon="9.681633370761014"><ele>272.42857142857144</ele><time>2026-04-25T09:15:30Z</time></trkpt><trkpt lat="45.713959239541424" lon="9.681541050030125"><ele>272.1428571428571</ele><time>2026-04-25T09:15:31Z</time></trkpt><trkpt lat="45.713980419230374" lon="9.681444205152797"><ele>271.8571428571429</ele><time>2026-04-25T09:15:32Z</time></trkpt><trkpt lat="45.71399803964927" lon="9.681355804008474"><ele>271.57142857142856</ele><time>2026-04-25T09:15:33Z</time></trkpt><trkpt lat="45.71401349639696" lon="9.681254259099532"><ele>271.2857142857143</ele><time>2026-04-25T09:15:34Z</time></trkpt><trkpt lat="45.71403320177336" lon="9.681155822461019"><ele>271.0</ele><time>2026-04-25T09:15:35Z</time></trkpt><trkpt lat="45.71405318820771" lon="9.681048487237279"><ele>271.0</ele><time>2026-04-25T09:15:36Z</time></trkpt><trkpt lat="45.714073121693254" lon="9.680946524678035"><ele>271.0</ele><time>2026-04-25T09:15:37Z</time></trkpt><trkpt lat="45.714093684598865" lon="9.68083678719109"><ele>271.0</ele><time>2026-04-25T09:15:38Z</time></trkpt><trkpt lat="45.71411619701207" lon="9.680728431365566"><ele>271.0</ele><time>2026-04-25T09:15:39Z</time></trkpt><trkpt lat="45.714134984689515" lon="9.68061938886822"><ele>271.0</ele><time>2026-04-25T09:15:40Z</time></trkpt><trkpt lat="45.71415542796977" lon="9.680510676415029"><ele>271.0</ele><time>2026-04-25T09:15:41Z</time></trkpt><trkpt lat="45.714177224288946" lon="9.680397608693283"><ele>271.0</ele><time>2026-04-25T09:15:42Z</time></trkpt><trkpt lat="45.714195278828406" lon="9.680297819500524"><ele>271.0</ele><time>2026-04-25T09:15:43Z</time></trkpt><trkpt lat="45.71421367568798" lon="9.680190186969515"><ele>271.0</ele><time>2026-04-25T09:15:44Z</time></trkpt><trkpt lat="45.71423263496881" lon="9.68008997660837"><ele>271.0</ele><time>2026-04-25T09:15:45Z</time></trkpt><trkpt lat="45.71425034473512" lon="9.679990332600063"><ele>271.0</ele><time>2026-04-25T09:15:46Z</time></trkpt><trkpt lat="45.71427010330577" lon="9.679896652773612"><ele>271.0</ele><time>2026-04-25T09:15:47Z</time></trkpt><trkpt lat="45.714287988817624" lon="9.679804275556897"><ele>271.0</ele><time>2026-04-25T09:15:48Z</time></trkpt><trkpt lat="45.714308357668855" lon="9.679714521670105"><ele>271.2</ele><time>2026-04-25T09:15:49Z</time></trkpt><trkpt lat="45.71432603047552" lon="9.679624138471135"><ele>271.40000000000003</ele><time>2026-04-25T09:15:50Z</time></trkpt><trkpt lat="45.7143545766861" lon="9.679446632887673"><ele>271.6</ele><time>2026-04-25T09:15:52Z</time></trkpt><trkpt lat="45.71438604428052" lon="9.679275295613166"><ele>271.8</ele><time>2026-04-25T09:15:54Z</time></trkpt><trkpt lat="45.71442156641035" lon="9.679103145827835"><ele>272.0</ele><time>2026-04-25T09:15:56Z</time></trkpt><trkpt lat="45.71443884330601" lon="9.679016130478894"><ele>272.2</ele><time>2026-04-25T09:15:57Z</time></trkpt><trkpt lat="45.71447028688311" lon="9.678844316876424"><ele>272.4</ele><time>2026-04-25T09:15:59Z</time></trkpt><trkpt lat="45.71450357847777" lon="9.678670077458213"><ele>272.6</ele><time>2026-04-25T09:16:01Z</time></trkpt><trkpt lat="45.71452080548884" lon="9.67858142873609"><ele>272.8</ele><time>2026-04-25T09:16:02Z</time></trkpt><trkpt lat="45.71455457757898" lon="9.678409219095178"><ele>273.0</ele><time>2026-04-25T09:16:04Z</time></trkpt><trkpt lat="45.71457096470392" lon="9.678321392832943"><ele>273.0</ele><time>2026-04-25T09:16:05Z</time></trkpt><trkpt lat="45.714600059061375" lon="9.67814729719258"><ele>273.0</ele><time>2026-04-25T09:16:07Z</time></trkpt><trkpt lat="45.71463244862306" lon="9.6779758930962"><ele>273.0</ele><time>2026-04-25T09:16:09Z</time></trkpt><trkpt lat="45.71466772653868" lon="9.677804905207253"><ele>273.0</ele><time>2026-04-25T09:16:11Z</time></trkpt><trkpt lat="45.71469290324305" lon="9.677661568094512"><ele>272.75</ele><time>2026-04-25T09:16:13Z</time></trkpt><trkpt lat="45.714712909402415" lon="9.677549907713056"><ele>272.5</ele><time>2026-04-25T09:16:14Z</time></trkpt><trkpt lat="45.71474684488109" lon="9.677384353998994"><ele>272.25</ele><time>2026-04-25T09:16:16Z</time></trkpt><trkpt lat="45.71477934707389" lon="9.67721197032302"><ele>272.0</ele><time>2026-04-25T09:16:18Z</time></trkpt><trkpt lat="45.714812148082736" lon="9.677037878643912"><ele>272.2</ele><time>2026-04-25T09:16:20Z</time></trkpt><trkpt lat="45.71484925363399" lon="9.67685858924311"><ele>272.4</ele><time>2026-04-25T09:16:22Z</time></trkpt><trkpt lat="45.714880187691676" lon="9.676686653530558"><ele>272.6</ele><time>2026-04-25T09:16:24Z</time></trkpt><trkpt lat="45.714897280309074" lon="9.67659791947436"><ele>272.8</ele><time>2026-04-25T09:16:25Z</time></trkpt><trkpt lat="45.71493136089757" lon="9.676421727577763"><ele>273.0</ele><time>2026-04-25T09:16:27Z</time></trkpt><trkpt lat="45.7149464638633" lon="9.676333521619782"><ele>273.0</ele><time>2026-04-25T09:16:28Z</time></trkpt><trkpt lat="45.71498057238149" lon="9.676158340821855"><ele>273.0</ele><time>2026-04-25T09:16:30Z</time></trkpt><trkpt lat="45.71501217238039" lon="9.675984046054554"><ele>273.0</ele><time>2026-04-25T09:16:32Z</time></trkpt><trkpt lat="45.71504705739121" lon="9.67580957878383"><ele>273.0</ele><time>2026-04-25T09:16:34Z</time></trkpt><trkpt lat="45.71506357660058" lon="9.675721714318067"><ele>273.0</ele><time>2026-04-25T09:16:35Z</time></trkpt><trkpt lat="45.71508250572784" lon="9.675635597909208"><ele>272.8</ele><time>2026-04-25T09:16:36Z</time></trkpt><trkpt lat="45.715097754510865" lon="9.675543098003278"><ele>272.6</ele><time>2026-04-25T09:16:37Z</time></trkpt><trkpt lat="45.715132751496476" lon="9.67536808381286"><ele>272.4</ele><time>2026-04-25T09:16:39Z</time></trkpt><trkpt lat="45.715167602390885" lon="9.675187114034907"><ele>272.2</ele><time>2026-04-25T09:16:41Z</time></trkpt><trkpt lat="45.71518653831006" lon="9.675101002020366"><ele>272.0</ele><time>2026-04-25T09:16:42Z</time></trkpt><trkpt lat="45.71520679602347" lon="9.67500788842879"><ele>272.0</ele><time>2026-04-25T09:16:43Z</time></trkpt><trkpt lat="45.71523158335446" lon="9.674919090892129"><ele>272.0</ele><time>2026-04-25T09:16:44Z</time></trkpt><trkpt lat="45.71525365969282" lon="9.67482658918247"><ele>272.0</ele><time>2026-04-25T09:16:45Z</time></trkpt><trkpt lat="45.715294129574005" lon="9.674706656488695"><ele>272.0</ele><time>2026-04-25T09:16:47Z</time></trkpt><trkpt lat="45.715330382199745" lon="9.67455971701645"><ele>272.0</ele><time>2026-04-25T09:16:48Z</time></trkpt><trkpt lat="45.71537967184713" lon="9.674382035818946"><ele>272.5</ele><time>2026-04-25T09:16:50Z</time></trkpt><trkpt lat="45.715413158455235" lon="9.674286810460234"><ele>273.0</ele><time>2026-04-25T09:16:51Z</time></trkpt><trkpt lat="45.71544468769078" lon="9.674186635856907"><ele>273.5</ele><time>2026-04-25T09:16:52Z</time></trkpt><trkpt lat="45.71547716453765" lon="9.67408999126413"><ele>274.0</ele><time>2026-04-25T09:16:53Z</time></trkpt><trkpt lat="45.715508005147285" lon="9.673995799045226"><ele>274.5</ele><time>2026-04-25T09:16:54Z</time></trkpt><trkpt lat="45.715537939848375" lon="9.673892453882534"><ele>275.0</ele><time>2026-04-25T09:16:55Z</time></trkpt><trkpt lat="45.71557035001764" lon="9.673795806192112"><ele>275.0</ele><time>2026-04-25T09:16:56Z</time></trkpt><trkpt lat="45.715602199481175" lon="9.673698084787386"><ele>275.0</ele><time>2026-04-25T09:16:57Z</time></trkpt><trkpt lat="45.71563688599754" lon="9.673616227821864"><ele>275.0</ele><time>2026-04-25T09:16:58Z</time></trkpt><trkpt lat="45.71576510336854" lon="9.673485192767806"><ele>275.0</ele><time>2026-04-25T09:17:00Z</time></trkpt><trkpt lat="45.71582297316082" lon="9.673422747790736"><ele>275.0</ele><time>2026-04-25T09:17:01Z</time></trkpt><trkpt lat="45.71592321204873" lon="9.673313824650538"><ele>274.4</ele><time>2026-04-25T09:17:03Z</time></trkpt><trkpt lat="45.715954972568454" lon="9.673235876784707"><ele>273.8</ele><time>2026-04-25T09:17:04Z</time></trkpt><trkpt lat="45.71601806387849" lon="9.673094575645946"><ele>273.2</ele><time>2026-04-25T09:17:06Z</time></trkpt><trkpt lat="45.71609093151335" lon="9.672991671925685"><ele>272.6</ele><time>2026-04-25T09:17:08Z</time></trkpt><trkpt lat="45.716184032532304" lon="9.672949284225139"><ele>272.0</ele><time>2026-04-25T09:17:10Z</time></trkpt><trkpt lat="45.71623584272458" lon="9.672878894781034"><ele>272.8</ele><time>2026-04-25T09:17:12Z</time></trkpt><trkpt lat="45.7162419880416" lon="9.672753128261093"><ele>273.6</ele><time>2026-04-25T09:19:32Z</time></trkpt><trkpt lat="45.71625349757192" lon="9.672647777298431"><ele>274.40000000000003</ele><time>2026-04-25T09:19:34Z</time></trkpt><trkpt lat="45.71626112277056" lon="9.672518793658897"><ele>275.2</ele><time>2026-04-25T09:19:36Z</time></trkpt><trkpt lat="45.71622658766588" lon="9.67237991373964"><ele>276.0</ele><time>2026-04-25T09:19:38Z</time></trkpt><trkpt lat="45.71616080961442" lon="9.672269119986007"><ele>276.0</ele><time>2026-04-25T09:19:40Z</time></trkpt><trkpt lat="45.71612668698733" lon="9.672128596803216"><ele>276.0</ele><time>2026-04-25T09:19:42Z</time></trkpt><trkpt lat="45.71613860866501" lon="9.67202705217576"><ele>276.0</ele><time>2026-04-25T09:19:43Z</time></trkpt><trkpt lat="45.716192770541134" lon="9.671885699673053"><ele>276.0</ele><time>2026-04-25T09:19:45Z</time></trkpt><trkpt lat="45.71621955424572" lon="9.671803307061554"><ele>276.0</ele><time>2026-04-25T09:19:46Z</time></trkpt><trkpt lat="45.71624119413744" lon="9.671716659252844"><ele>276.0</ele><time>2026-04-25T09:19:47Z</time></trkpt><trkpt lat="45.71626314373657" lon="9.67162914947655"><ele>276.2</ele><time>2026-04-25T09:19:48Z</time></trkpt><trkpt lat="45.71630272649347" lon="9.671461780986705"><ele>276.40000000000003</ele><time>2026-04-25T09:19:50Z</time></trkpt><trkpt lat="45.71632152639344" lon="9.67137464516611"><ele>276.6</ele><time>2026-04-25T09:19:51Z</time></trkpt><trkpt lat="45.716341839194605" lon="9.671288893648669"><ele>276.8</ele><time>2026-04-25T09:19:52Z</time></trkpt><trkpt lat="45.71637407567056" lon="9.6711100128768"><ele>277.0</ele><time>2026-04-25T09:19:54Z</time></trkpt><trkpt lat="45.71641054168311" lon="9.670937761942943"><ele>277.2</ele><time>2026-04-25T09:19:56Z</time></trkpt><trkpt lat="45.71643101657363" lon="9.670852442352386"><ele>277.4</ele><time>2026-04-25T09:19:57Z</time></trkpt><trkpt lat="45.71646743238959" lon="9.670679014844985"><ele>277.6</ele><time>2026-04-25T09:19:59Z</time></trkpt><trkpt lat="45.716504481936305" lon="9.670507851457115"><ele>277.8</ele><time>2026-04-25T09:20:01Z</time></trkpt><trkpt lat="45.71653929238886" lon="9.670334755770936"><ele>278.0</ele><time>2026-04-25T09:20:03Z</time></trkpt><trkpt lat="45.716572845385926" lon="9.670247221090843"><ele>278.0</ele><time>2026-04-25T09:20:04Z</time></trkpt><trkpt lat="45.71659791117069" lon="9.670079265539453"><ele>278.0</ele><time>2026-04-25T09:20:06Z</time></trkpt><trkpt lat="45.71663317822763" lon="9.669909777662324"><ele>278.0</ele><time>2026-04-25T09:20:08Z</time></trkpt><trkpt lat="45.716670207440636" lon="9.669741430490951"><ele>278.0</ele><time>2026-04-25T09:20:10Z</time></trkpt><trkpt lat="45.7167019107959" lon="9.669565758982975"><ele>278.0</ele><time>2026-04-25T09:20:12Z</time></trkpt><trkpt lat="45.71674106866535" lon="9.669409071923873"><ele>278.0</ele><time>2026-04-25T09:20:14Z</time></trkpt><trkpt lat="45.71676304969768" lon="9.669323798092352"><ele>278.0</ele><time>2026-04-25T09:20:15Z</time></trkpt><trkpt lat="45.71680424582773" lon="9.669162855899321"><ele>278.0</ele><time>2026-04-25T09:20:17Z</time></trkpt><trkpt lat="45.71685613566823" lon="9.669003578843288"><ele>278.0</ele><time>2026-04-25T09:20:19Z</time></trkpt><trkpt lat="45.71690935416266" lon="9.668847195026125"><ele>278.6</ele><time>2026-04-25T09:20:21Z</time></trkpt><trkpt lat="45.716937176263784" lon="9.668762578229353"><ele>279.20000000000005</ele><time>2026-04-25T09:20:22Z</time></trkpt><trkpt lat="45.7169847038072" lon="9.668599464137543"><ele>279.8</ele><time>2026-04-25T09:20:24Z</time></trkpt><trkpt lat="45.717041103414516" lon="9.668437956098751"><ele>280.40000000000003</ele><time>2026-04-25T09:20:26Z</time></trkpt><trkpt lat="45.717069788165645" lon="9.668352699523979"><ele>281.0</ele><time>2026-04-25T09:20:27Z</time></trkpt><trkpt lat="45.71712325550362" lon="9.66818992317512"><ele>281.0</ele><time>2026-04-25T09:20:29Z</time></trkpt><trkpt lat="45.71715433475331" lon="9.668109259511144"><ele>281.0</ele><time>2026-04-25T09:20:30Z</time></trkpt><trkpt lat="45.717182145501184" lon="9.66802810677641"><ele>281.0</ele><time>2026-04-25T09:20:31Z</time></trkpt><trkpt lat="45.71723869898445" lon="9.667865617223605"><ele>281.0</ele><time>2026-04-25T09:20:33Z</time></trkpt><trkpt lat="45.71726716866157" lon="9.667781612096864"><ele>281.0</ele><time>2026-04-25T09:20:34Z</time></trkpt><trkpt lat="45.717295485040665" lon="9.667695293203565"><ele>281.0</ele><time>2026-04-25T09:20:35Z</time></trkpt><trkpt lat="45.717323757681314" lon="9.667610167866318"><ele>281.00000000000006</ele><time>2026-04-25T09:20:36Z</time></trkpt><trkpt lat="45.71734938228547" lon="9.667523303409531"><ele>281.0</ele><time>2026-04-25T09:20:37Z</time></trkpt><trkpt lat="45.71738117201612" lon="9.667441239394922"><ele>281.0</ele><time>2026-04-25T09:20:38Z</time></trkpt><trkpt lat="45.71741073725865" lon="9.667357618627431"><ele>281.0</ele><time>2026-04-25T09:20:39Z</time></trkpt><trkpt lat="45.71743965262433" lon="9.667274075992148"><ele>281.0</ele><time>2026-04-25T09:20:40Z</time></trkpt><trkpt lat="45.71746853317127" lon="9.667189361248552"><ele>281.00000000000006</ele><time>2026-04-25T09:20:41Z</time></trkpt><trkpt lat="45.71749581727131" lon="9.667101521512617"><ele>281.0</ele><time>2026-04-25T09:20:42Z</time></trkpt><trkpt lat="45.71755411377044" lon="9.666937817672906"><ele>281.00000000000006</ele><time>2026-04-25T09:20:44Z</time></trkpt><trkpt lat="45.71758100102584" lon="9.666853331731724"><ele>281.0</ele><time>2026-04-25T09:20:45Z</time></trkpt><trkpt lat="45.71761022369823" lon="9.66676861326202"><ele>281.0</ele><time>2026-04-25T09:20:46Z</time></trkpt><trkpt lat="45.71763658687311" lon="9.66668142308132"><ele>281.0</ele><time>2026-04-25T09:20:47Z</time></trkpt><trkpt lat="45.71766625506569" lon="9.666596904089353"><ele>281.0</ele><time>2026-04-25T09:20:48Z</time></trkpt><trkpt lat="45.7176996493919" lon="9.666516827422408"><ele>281.00000000000006</ele><time>2026-04-25T09:20:49Z</time></trkpt><trkpt lat="45.71774543461471" lon="9.666362383923314"><ele>281.0</ele><time>2026-04-25T09:20:51Z</time></trkpt><trkpt lat="45.717774285202616" lon="9.666277014266996"><ele>281.0</ele><time>2026-04-25T09:20:52Z</time></trkpt><trkpt lat="45.71780951303236" lon="9.666190279288797"><ele>281.0</ele><time>2026-04-25T09:20:53Z</time></trkpt><trkpt lat="45.71785821160329" lon="9.666037036408103"><ele>281.0</ele><time>2026-04-25T09:20:55Z</time></trkpt><trkpt lat="45.717915713228" lon="9.66587934285721"><ele>281.0</ele><time>2026-04-25T09:20:57Z</time></trkpt><trkpt lat="45.71796976732216" lon="9.665712952854715"><ele>281.0</ele><time>2026-04-25T09:20:59Z</time></trkpt><trkpt lat="45.71802245511421" lon="9.665556388860681"><ele>281.1666666666667</ele><time>2026-04-25T09:21:01Z</time></trkpt><trkpt lat="45.718073000138155" lon="9.66539210708079"><ele>281.33333333333337</ele><time>2026-04-25T09:21:03Z</time></trkpt><trkpt lat="45.71809938080276" lon="9.665309664096464"><ele>281.5</ele><time>2026-04-25T09:21:04Z</time></trkpt><trkpt lat="45.71812887944153" lon="9.66522883202003"><ele>281.6666666666667</ele><time>2026-04-25T09:21:05Z</time></trkpt><trkpt lat="45.71815763141206" lon="9.665139018731837"><ele>281.8333333333333</ele><time>2026-04-25T09:21:06Z</time></trkpt><trkpt lat="45.7181871217404" lon="9.665059078713066"><ele>282.0</ele><time>2026-04-25T09:21:07Z</time></trkpt><trkpt lat="45.718212539721065" lon="9.66497267772733"><ele>282.2857142857143</ele><time>2026-04-25T09:21:08Z</time></trkpt><trkpt lat="45.7182434430727" lon="9.664889427465836"><ele>282.57142857142856</ele><time>2026-04-25T09:21:09Z</time></trkpt><trkpt lat="45.718272454989325" lon="9.664804822860741"><ele>282.85714285714283</ele><time>2026-04-25T09:21:10Z</time></trkpt><trkpt lat="45.71829903022864" lon="9.664716335405627"><ele>283.1428571428571</ele><time>2026-04-25T09:21:11Z</time></trkpt><trkpt lat="45.7183275288887" lon="9.664630265912388"><ele>283.4285714285714</ele><time>2026-04-25T09:21:12Z</time></trkpt><trkpt lat="45.718352977671785" lon="9.664541516941336"><ele>283.7142857142857</ele><time>2026-04-25T09:21:13Z</time></trkpt><trkpt lat="45.71839059912356" lon="9.664450633706414"><ele>284.0</ele><time>2026-04-25T09:21:14Z</time></trkpt><trkpt lat="45.718418692044196" lon="9.664362804027988"><ele>284.33333333333337</ele><time>2026-04-25T09:21:15Z</time></trkpt><trkpt lat="45.71845321664267" lon="9.664280735657675"><ele>284.6666666666667</ele><time>2026-04-25T09:21:16Z</time></trkpt><trkpt lat="45.718493335948914" lon="9.66419192241693"><ele>285.0</ele><time>2026-04-25T09:21:17Z</time></trkpt><trkpt lat="45.718538109116835" lon="9.664115684458574"><ele>285.3333333333333</ele><time>2026-04-25T09:21:18Z</time></trkpt><trkpt lat="45.71857793095217" lon="9.664044640490427"><ele>285.66666666666663</ele><time>2026-04-25T09:21:19Z</time></trkpt><trkpt lat="45.71864375429412" lon="9.663889182218877"><ele>286.0</ele><time>2026-04-25T09:21:21Z</time></trkpt><trkpt lat="45.7187105912371" lon="9.663812843371451"><ele>286.16666666666663</ele><time>2026-04-25T09:21:22Z</time></trkpt><trkpt lat="45.718781494944245" lon="9.663758877118061"><ele>286.3333333333333</ele><time>2026-04-25T09:21:23Z</time></trkpt><trkpt lat="45.718786763738514" lon="9.663573579074242"><ele>286.5</ele><time>2026-04-25T09:21:25Z</time></trkpt><trkpt lat="45.718806863231556" lon="9.663485766799816"><ele>286.6666666666667</ele><time>2026-04-25T09:21:26Z</time></trkpt><trkpt lat="45.718831051924006" lon="9.663402282100051"><ele>286.83333333333337</ele><time>2026-04-25T09:21:27Z</time></trkpt><trkpt lat="45.71885697124038" lon="9.663320075483176"><ele>287.0</ele><time>2026-04-25T09:21:28Z</time></trkpt><trkpt lat="45.71886725877027" lon="9.663213371514493"><ele>287.0</ele><time>2026-04-25T09:21:29Z</time></trkpt><trkpt lat="45.718871681648004" lon="9.663114638244052"><ele>287.0</ele><time>2026-04-25T09:21:30Z</time></trkpt><trkpt lat="45.718868017303485" lon="9.663018118013872"><ele>287.0</ele><time>2026-04-25T09:21:31Z</time></trkpt><trkpt lat="45.71887915733135" lon="9.662844417613476"><ele>287.0</ele><time>2026-04-25T09:21:33Z</time></trkpt><trkpt lat="45.71891837283809" lon="9.662688085032265"><ele>287.0</ele><time>2026-04-25T09:21:35Z</time></trkpt><trkpt lat="45.718965025117704" lon="9.662529013363626"><ele>287.2</ele><time>2026-04-25T09:21:37Z</time></trkpt><trkpt lat="45.71897846815818" lon="9.662439989406892"><ele>287.4</ele><time>2026-04-25T09:21:38Z</time></trkpt><trkpt lat="45.71901681627774" lon="9.662271929871718"><ele>287.6</ele><time>2026-04-25T09:21:40Z</time></trkpt><trkpt lat="45.71898556684892" lon="9.66218665533439"><ele>287.8</ele><time>2026-04-25T09:21:41Z</time></trkpt><trkpt lat="45.71899278195891" lon="9.662026450892123"><ele>288.0</ele><time>2026-04-25T09:21:43Z</time></trkpt><trkpt lat="45.7190018577579" lon="9.661877235307452"><ele>288.25</ele><time>2026-04-25T09:21:45Z</time></trkpt><trkpt lat="45.719038581427974" lon="9.66173211165578"><ele>288.5</ele><time>2026-04-25T09:21:47Z</time></trkpt><trkpt lat="45.71908883828515" lon="9.661575402207417"><ele>288.75</ele><time>2026-04-25T09:21:49Z</time></trkpt><trkpt lat="45.71912763073425" lon="9.661407656410361"><ele>289.0</ele><time>2026-04-25T09:21:51Z</time></trkpt><trkpt lat="45.71917905077135" lon="9.661246489434884"><ele>289.0</ele><time>2026-04-25T09:21:53Z</time></trkpt><trkpt lat="45.71921583840443" lon="9.661167909132244"><ele>289.0</ele><time>2026-04-25T09:21:54Z</time></trkpt><trkpt lat="45.719296844778626" lon="9.661037089736904"><ele>289.0</ele><time>2026-04-25T09:21:56Z</time></trkpt><trkpt lat="45.71934119896698" lon="9.660973081312665"><ele>289.0</ele><time>2026-04-25T09:21:57Z</time></trkpt><trkpt lat="45.719416875216204" lon="9.660827661312856"><ele>289.0</ele><time>2026-04-25T09:21:59Z</time></trkpt><trkpt lat="45.719459997210606" lon="9.660760816718136"><ele>289.0</ele><time>2026-04-25T09:22:00Z</time></trkpt><trkpt lat="45.71950656429895" lon="9.660699030219376"><ele>289.59999999999997</ele><time>2026-04-25T09:22:01Z</time></trkpt><trkpt lat="45.719555713188505" lon="9.660637624800554"><ele>290.2</ele><time>2026-04-25T09:22:02Z</time></trkpt><trkpt lat="45.71965594163431" lon="9.660537025697339"><ele>290.79999999999995</ele><time>2026-04-25T09:22:04Z</time></trkpt><trkpt lat="45.71970680607973" lon="9.660474775311615"><ele>291.4</ele><time>2026-04-25T09:22:05Z</time></trkpt><trkpt lat="45.71976634516795" lon="9.66041607834215"><ele>292.0</ele><time>2026-04-25T09:22:06Z</time></trkpt><trkpt lat="45.719857654197725" lon="9.660293607206711"><ele>291.85714285714283</ele><time>2026-04-25T09:22:08Z</time></trkpt><trkpt lat="45.719907087275104" lon="9.660224467726605"><ele>291.7142857142857</ele><time>2026-04-25T09:22:09Z</time></trkpt><trkpt lat="45.71995495610601" lon="9.660165244352722"><ele>291.57142857142856</ele><time>2026-04-25T09:22:10Z</time></trkpt><trkpt lat="45.720001049027296" lon="9.660100211208757"><ele>291.42857142857144</ele><time>2026-04-25T09:22:11Z</time></trkpt><trkpt lat="45.720047185438624" lon="9.660036422799047"><ele>291.2857142857143</ele><time>2026-04-25T09:22:12Z</time></trkpt><trkpt lat="45.720085418427026" lon="9.659963876221154"><ele>291.1428571428571</ele><time>2026-04-25T09:22:13Z</time></trkpt><trkpt lat="45.72018155006919" lon="9.659851348621308"><ele>291.0</ele><time>2026-04-25T09:22:15Z</time></trkpt><trkpt lat="45.72026081952019" lon="9.659729243723364"><ele>291.40000000000003</ele><time>2026-04-25T09:22:17Z</time></trkpt><trkpt lat="45.72030537860834" lon="9.65966100814157"><ele>291.8</ele><time>2026-04-25T09:22:18Z</time></trkpt><trkpt lat="45.72039271967484" lon="9.659534276057789"><ele>292.20000000000005</ele><time>2026-04-25T09:22:20Z</time></trkpt><trkpt lat="45.720483919606004" lon="9.659426116563283"><ele>292.6</ele><time>2026-04-25T09:22:22Z</time></trkpt><trkpt lat="45.72055672607099" lon="9.659363424538533"><ele>293.0</ele><time>2026-04-25T09:22:24Z</time></trkpt><trkpt lat="45.72061115620429" lon="9.659313489001246"><ele>293.1666666666667</ele><time>2026-04-25T09:22:26Z</time></trkpt><trkpt lat="45.72067417951896" lon="9.65923911881981"><ele>293.33333333333337</ele><time>2026-04-25T09:22:29Z</time></trkpt><trkpt lat="45.72068640718091" lon="9.659140394777339"><ele>293.5</ele><time>2026-04-25T09:24:32Z</time></trkpt><trkpt lat="45.720731384249575" lon="9.659061733701504"><ele>293.6666666666667</ele><time>2026-04-25T09:24:34Z</time></trkpt><trkpt lat="45.72079694880403" lon="9.658978192995809"><ele>293.8333333333333</ele><time>2026-04-25T09:24:36Z</time></trkpt><trkpt lat="45.720865893936896" lon="9.65892154870268"><ele>294.0</ele><time>2026-04-25T09:24:38Z</time></trkpt><trkpt lat="45.720931548694246" lon="9.658785985350269"><ele>294.0</ele><time>2026-04-25T09:24:40Z</time></trkpt><trkpt lat="45.721019883766544" lon="9.65865823379925"><ele>294.0</ele><time>2026-04-25T09:24:42Z</time></trkpt><trkpt lat="45.72111760774477" lon="9.658574096799335"><ele>294.0</ele><time>2026-04-25T09:24:44Z</time></trkpt><trkpt lat="45.72122374725615" lon="9.65849835321933"><ele>294.0</ele><time>2026-04-25T09:24:46Z</time></trkpt><trkpt lat="45.72127031686471" lon="9.658436752454278"><ele>294.0</ele><time>2026-04-25T09:24:47Z</time></trkpt><trkpt lat="45.72134272475653" lon="9.658286289831716"><ele>294.1666666666667</ele><time>2026-04-25T09:24:49Z</time></trkpt><trkpt lat="45.7213965881262" lon="9.658215823727572"><ele>294.3333333333333</ele><time>2026-04-25T09:24:50Z</time></trkpt><trkpt lat="45.72145196700875" lon="9.65815389406386"><ele>294.5</ele><time>2026-04-25T09:24:51Z</time></trkpt><trkpt lat="45.72150528157238" lon="9.658095743141088"><ele>294.66666666666663</ele><time>2026-04-25T09:24:52Z</time></trkpt><trkpt lat="45.72160430650318" lon="9.657975762684666"><ele>294.8333333333333</ele><time>2026-04-25T09:24:54Z</time></trkpt><trkpt lat="45.721649237520516" lon="9.657906110850496"><ele>295.0</ele><time>2026-04-25T09:24:55Z</time></trkpt><trkpt lat="45.721691560683134" lon="9.65783802938696"><ele>295.14285714285717</ele><time>2026-04-25T09:24:56Z</time></trkpt><trkpt lat="45.72173040590703" lon="9.657762777693605"><ele>295.2857142857143</ele><time>2026-04-25T09:24:57Z</time></trkpt><trkpt lat="45.7217729711308" lon="9.657685562335491"><ele>295.42857142857144</ele><time>2026-04-25T09:24:58Z</time></trkpt><trkpt lat="45.721811568168356" lon="9.657612076718584"><ele>295.57142857142856</ele><time>2026-04-25T09:24:59Z</time></trkpt><trkpt lat="45.721844457317864" lon="9.657534355280761"><ele>295.7142857142857</ele><time>2026-04-25T09:25:00Z</time></trkpt><trkpt lat="45.72188033787719" lon="9.657459120373655"><ele>295.8571428571429</ele><time>2026-04-25T09:25:01Z</time></trkpt><trkpt lat="45.72191654527459" lon="9.657384493753641"><ele>296.0</ele><time>2026-04-25T09:25:02Z</time></trkpt><trkpt lat="45.72194970697135" lon="9.657305382268012"><ele>296.0</ele><time>2026-04-25T09:25:03Z</time></trkpt><trkpt lat="45.72198361432866" lon="9.657229388364104"><ele>296.0</ele><time>2026-04-25T09:25:04Z</time></trkpt><trkpt lat="45.72202575512786" lon="9.657156708100517"><ele>296.0</ele><time>2026-04-25T09:25:05Z</time></trkpt><trkpt lat="45.72205929756821" lon="9.657076818301183"><ele>296.0</ele><time>2026-04-25T09:25:06Z</time></trkpt><trkpt lat="45.72209600307173" lon="9.657001861935388"><ele>296.0</ele><time>2026-04-25T09:25:07Z</time></trkpt><trkpt lat="45.72213021838613" lon="9.656918643682012"><ele>296.0</ele><time>2026-04-25T09:25:08Z</time></trkpt><trkpt lat="45.72216221530333" lon="9.656839376236947"><ele>296.0</ele><time>2026-04-25T09:25:09Z</time></trkpt><trkpt lat="45.722204284737735" lon="9.656767490613605"><ele>295.40000000000003</ele><time>2026-04-25T09:25:10Z</time></trkpt><trkpt lat="45.722244964783314" lon="9.656685921018251"><ele>294.8</ele><time>2026-04-25T09:25:11Z</time></trkpt><trkpt lat="45.72231425758413" lon="9.656539295666159"><ele>294.20000000000005</ele><time>2026-04-25T09:25:13Z</time></trkpt><trkpt lat="45.72238321785449" lon="9.656391719210779"><ele>293.6</ele><time>2026-04-25T09:25:15Z</time></trkpt><trkpt lat="45.722420858102744" lon="9.656298868177362"><ele>293.0</ele><time>2026-04-25T09:25:16Z</time></trkpt><trkpt lat="45.72248652317068" lon="9.656158932110825"><ele>293.0</ele><time>2026-04-25T09:25:18Z</time></trkpt><trkpt lat="45.722564970237535" lon="9.656012477722603"><ele>293.0</ele><time>2026-04-25T09:25:20Z</time></trkpt><trkpt lat="45.7226292905357" lon="9.655861483652954"><ele>293.0</ele><time>2026-04-25T09:25:22Z</time></trkpt><trkpt lat="45.722672073237206" lon="9.655789939008455"><ele>293.0</ele><time>2026-04-25T09:25:23Z</time></trkpt><trkpt lat="45.72270078316906" lon="9.655708413101737"><ele>293.0</ele><time>2026-04-25T09:25:24Z</time></trkpt><trkpt lat="45.72277711184555" lon="9.655563226740409"><ele>293.2</ele><time>2026-04-25T09:25:26Z</time></trkpt><trkpt lat="45.72284674920708" lon="9.655415970638803"><ele>293.4</ele><time>2026-04-25T09:25:28Z</time></trkpt><trkpt lat="45.72291603799482" lon="9.655266015907843"><ele>293.59999999999997</ele><time>2026-04-25T09:25:30Z</time></trkpt><trkpt lat="45.722952719440684" lon="9.655188582350748"><ele>293.8</ele><time>2026-04-25T09:25:31Z</time></trkpt><trkpt lat="45.72302006610629" lon="9.655044718771304"><ele>294.0</ele><time>2026-04-25T09:25:33Z</time></trkpt><trkpt lat="45.72308882399651" lon="9.654893133759265"><ele>294.8</ele><time>2026-04-25T09:25:35Z</time></trkpt><trkpt lat="45.723156294610085" lon="9.654743660993528"><ele>295.59999999999997</ele><time>2026-04-25T09:25:37Z</time></trkpt><trkpt lat="45.72323073637275" lon="9.654591542404429"><ele>296.4</ele><time>2026-04-25T09:25:39Z</time></trkpt><trkpt lat="45.72330115037002" lon="9.654442869340103"><ele>297.2</ele><time>2026-04-25T09:25:41Z</time></trkpt><trkpt lat="45.723336473366906" lon="9.654363968259931"><ele>298.0</ele><time>2026-04-25T09:25:42Z</time></trkpt><trkpt lat="45.72337089853695" lon="9.654288353528761"><ele>298.0</ele><time>2026-04-25T09:25:43Z</time></trkpt><trkpt lat="45.7234068925158" lon="9.654213488881949"><ele>298.0</ele><time>2026-04-25T09:25:44Z</time></trkpt><trkpt lat="45.7234427267135" lon="9.654138489104481"><ele>298.0</ele><time>2026-04-25T09:25:45Z</time></trkpt><trkpt lat="45.7234786421809" lon="9.654063597097622"><ele>298.0</ele><time>2026-04-25T09:25:46Z</time></trkpt><trkpt lat="45.72351274738961" lon="9.653987364297782"><ele>298.0</ele><time>2026-04-25T09:25:47Z</time></trkpt><trkpt lat="45.723546572844086" lon="9.653910084866736"><ele>298.0</ele><time>2026-04-25T09:25:48Z</time></trkpt><trkpt lat="45.72358150361414" lon="9.653834453273099"><ele>298.0</ele><time>2026-04-25T09:25:49Z</time></trkpt><trkpt lat="45.72365747174216" lon="9.653687570308279"><ele>298.4</ele><time>2026-04-25T09:25:51Z</time></trkpt><trkpt lat="45.72373188038355" lon="9.653539648558487"><ele>298.8</ele><time>2026-04-25T09:25:53Z</time></trkpt><trkpt lat="45.723781902524564" lon="9.653398644159177"><ele>299.2</ele><time>2026-04-25T09:25:55Z</time></trkpt><trkpt lat="45.72385678649407" lon="9.65325361185239"><ele>299.6</ele><time>2026-04-25T09:25:57Z</time></trkpt><trkpt lat="45.72389139208332" lon="9.65317711924875"><ele>300.0</ele><time>2026-04-25T09:25:58Z</time></trkpt><trkpt lat="45.72393225610218" lon="9.653105114544037"><ele>300.0</ele><time>2026-04-25T09:25:59Z</time></trkpt><trkpt lat="45.72397046052971" lon="9.653031983649125"><ele>300.0</ele><time>2026-04-25T09:26:00Z</time></trkpt><trkpt lat="45.72404671535899" lon="9.65289295200614"><ele>300.0</ele><time>2026-04-25T09:26:02Z</time></trkpt><trkpt lat="45.72408982968071" lon="9.65282224943787"><ele>300.0</ele><time>2026-04-25T09:26:03Z</time></trkpt><trkpt lat="45.72413862256004" lon="9.65276066825779"><ele>300.0</ele><time>2026-04-25T09:26:04Z</time></trkpt><trkpt lat="45.72423880574909" lon="9.652666246400413"><ele>300.0</ele><time>2026-04-25T09:26:06Z</time></trkpt><trkpt lat="45.724342785433" lon="9.652578451462762"><ele>301.2</ele><time>2026-04-25T09:26:08Z</time></trkpt><trkpt lat="45.72445496723743" lon="9.65249809054153"><ele>302.4</ele><time>2026-04-25T09:26:10Z</time></trkpt><trkpt lat="45.72455937409982" lon="9.6524212801208"><ele>303.6</ele><time>2026-04-25T09:26:12Z</time></trkpt><trkpt lat="45.724663386832326" lon="9.65236160341921"><ele>304.8</ele><time>2026-04-25T09:26:14Z</time></trkpt><trkpt lat="45.724723722755975" lon="9.652315206875315"><ele>306.0</ele><time>2026-04-25T09:26:15Z</time></trkpt><trkpt lat="45.72482501909216" lon="9.65224728103669"><ele>306.0</ele><time>2026-04-25T09:26:17Z</time></trkpt><trkpt lat="45.72489547512296" lon="9.652217115309131"><ele>306.0</ele><time>2026-04-25T09:26:18Z</time></trkpt><trkpt lat="45.72496888274191" lon="9.65218136198937"><ele>306.0</ele><time>2026-04-25T09:26:19Z</time></trkpt><trkpt lat="45.72506174167309" lon="9.652133437017559"><ele>306.0</ele><time>2026-04-25T09:26:21Z</time></trkpt><trkpt lat="45.725170424457254" lon="9.652071034468365"><ele>306.0</ele><time>2026-04-25T09:26:23Z</time></trkpt><trkpt lat="45.72523113853874" lon="9.65204187030243"><ele>306.0</ele><time>2026-04-25T09:26:24Z</time></trkpt><trkpt lat="45.72534317923519" lon="9.65198399490964"><ele>306.75</ele><time>2026-04-25T09:26:26Z</time></trkpt><trkpt lat="45.72545659033335" lon="9.651925361082663"><ele>307.5</ele><time>2026-04-25T09:26:28Z</time></trkpt><trkpt lat="45.725568671603966" lon="9.651862350347617"><ele>308.25</ele><time>2026-04-25T09:26:30Z</time></trkpt><trkpt lat="45.725686498361426" lon="9.651799725036344"><ele>309.0</ele><time>2026-04-25T09:26:32Z</time></trkpt><trkpt lat="45.72579446714315" lon="9.65174278327799"><ele>309.0</ele><time>2026-04-25T09:26:34Z</time></trkpt><trkpt lat="45.72586796960274" lon="9.651690897897547"><ele>309.0</ele><time>2026-04-25T09:26:35Z</time></trkpt><trkpt lat="45.72594105470121" lon="9.651635175172197"><ele>309.0</ele><time>2026-04-25T09:26:36Z</time></trkpt><trkpt lat="45.72604426289207" lon="9.651646333065363"><ele>309.0</ele><time>2026-04-25T09:26:38Z</time></trkpt><trkpt lat="45.72610507371157" lon="9.651615587962018"><ele>309.0</ele><time>2026-04-25T09:26:39Z</time></trkpt><trkpt lat="45.72621564822802" lon="9.651551619453626"><ele>309.6666666666667</ele><time>2026-04-25T09:26:41Z</time></trkpt><trkpt lat="45.72627637010742" lon="9.651521236739617"><ele>310.3333333333333</ele><time>2026-04-25T09:26:42Z</time></trkpt><trkpt lat="45.72639020783084" lon="9.651456463818107"><ele>311.0</ele><time>2026-04-25T09:26:44Z</time></trkpt><trkpt lat="45.72645116973011" lon="9.651430630969712"><ele>311.66666666666663</ele><time>2026-04-25T09:26:45Z</time></trkpt><trkpt lat="45.726571266550955" lon="9.651374116796134"><ele>312.3333333333333</ele><time>2026-04-25T09:26:47Z</time></trkpt><trkpt lat="45.72663066503574" lon="9.651336398067402"><ele>313.0</ele><time>2026-04-25T09:26:48Z</time></trkpt><trkpt lat="45.72674351576419" lon="9.651269738349189"><ele>313.0</ele><time>2026-04-25T09:26:50Z</time></trkpt><trkpt lat="45.72685282844387" lon="9.651207250882964"><ele>313.0</ele><time>2026-04-25T09:26:52Z</time></trkpt><trkpt lat="45.72696678901546" lon="9.651142750140826"><ele>313.0</ele><time>2026-04-25T09:26:54Z</time></trkpt><trkpt lat="45.72707524319785" lon="9.651075636288102"><ele>313.0</ele><time>2026-04-25T09:26:56Z</time></trkpt><trkpt lat="45.727135208589296" lon="9.651041006401844"><ele>313.0</ele><time>2026-04-25T09:26:57Z</time></trkpt><trkpt lat="45.727250144504815" lon="9.650993399334281"><ele>313.3333333333333</ele><time>2026-04-25T09:26:59Z</time></trkpt><trkpt lat="45.72730935230153" lon="9.650962231487458"><ele>313.66666666666663</ele><time>2026-04-25T09:27:00Z</time></trkpt><trkpt lat="45.72742626898336" lon="9.650904174042878"><ele>314.0</ele><time>2026-04-25T09:27:02Z</time></trkpt><trkpt lat="45.72754104418796" lon="9.650837750950595"><ele>314.3333333333333</ele><time>2026-04-25T09:27:04Z</time></trkpt><trkpt lat="45.727600099200416" lon="9.650801079148936"><ele>314.6666666666667</ele><time>2026-04-25T09:27:05Z</time></trkpt><trkpt lat="45.72766034834699" lon="9.650765257440101"><ele>315.0</ele><time>2026-04-25T09:27:06Z</time></trkpt><trkpt lat="45.727767570284676" lon="9.650678537709481"><ele>315.0</ele><time>2026-04-25T09:27:08Z</time></trkpt><trkpt lat="45.72787893227757" lon="9.650643281481777"><ele>315.0</ele><time>2026-04-25T09:27:10Z</time></trkpt><trkpt lat="45.72793217099911" lon="9.650566820229699"><ele>315.0</ele><time>2026-04-25T09:27:11Z</time></trkpt><trkpt lat="45.72798699191698" lon="9.650510413815006"><ele>315.0</ele><time>2026-04-25T09:27:12Z</time></trkpt><trkpt lat="45.728037656166656" lon="9.650452609887203"><ele>315.0</ele><time>2026-04-25T09:27:13Z</time></trkpt><trkpt lat="45.72808483554485" lon="9.650384801915246"><ele>315.0</ele><time>2026-04-25T09:27:14Z</time></trkpt><trkpt lat="45.728130299387374" lon="9.650310154778147"><ele>314.85714285714283</ele><time>2026-04-25T09:27:15Z</time></trkpt><trkpt lat="45.72818523732882" lon="9.650258107564403"><ele>314.7142857142857</ele><time>2026-04-25T09:27:16Z</time></trkpt><trkpt lat="45.728227752345745" lon="9.650183997468625"><ele>314.57142857142856</ele><time>2026-04-25T09:27:17Z</time></trkpt><trkpt lat="45.72827242078523" lon="9.650114628199143"><ele>314.42857142857144</ele><time>2026-04-25T09:27:18Z</time></trkpt><trkpt lat="45.72831712093981" lon="9.650050685863942"><ele>314.2857142857143</ele><time>2026-04-25T09:27:19Z</time></trkpt><trkpt lat="45.72835598051404" lon="9.649978701965708"><ele>314.1428571428571</ele><time>2026-04-25T09:27:20Z</time></trkpt><trkpt lat="45.728440505369434" lon="9.649861013043513"><ele>314.0</ele><time>2026-04-25T09:27:22Z</time></trkpt><trkpt lat="45.72851608255201" lon="9.649721946904256"><ele>314.0</ele><time>2026-04-25T09:27:24Z</time></trkpt><trkpt lat="45.72858568340846" lon="9.649590239954497"><ele>314.0</ele><time>2026-04-25T09:27:26Z</time></trkpt><trkpt lat="45.72866098895019" lon="9.649454958787793"><ele>314.0</ele><time>2026-04-25T09:27:28Z</time></trkpt><trkpt lat="45.72873836916718" lon="9.649317155471758"><ele>314.0</ele><time>2026-04-25T09:27:30Z</time></trkpt><trkpt lat="45.72882019616928" lon="9.649183508637076"><ele>313.6666666666667</ele><time>2026-04-25T09:27:32Z</time></trkpt><trkpt lat="45.7289020764978" lon="9.64904524119794"><ele>313.33333333333337</ele><time>2026-04-25T09:27:34Z</time></trkpt><trkpt lat="45.72894446100217" lon="9.648972142598586"><ele>313.0</ele><time>2026-04-25T09:27:35Z</time></trkpt><trkpt lat="45.728986025458155" lon="9.648897625406553"><ele>312.6666666666667</ele><time>2026-04-25T09:27:36Z</time></trkpt><trkpt lat="45.7290308130653" lon="9.648820120109287"><ele>312.3333333333333</ele><time>2026-04-25T09:27:37Z</time></trkpt><trkpt lat="45.72907516047149" lon="9.648737820398347"><ele>312.0</ele><time>2026-04-25T09:27:38Z</time></trkpt><trkpt lat="45.7291164771518" lon="9.64866142087518"><ele>312.0</ele><time>2026-04-25T09:27:39Z</time></trkpt><trkpt lat="45.72916204115731" lon="9.648590558084303"><ele>312.0</ele><time>2026-04-25T09:27:40Z</time></trkpt><trkpt lat="45.729203487658765" lon="9.648514642013993"><ele>312.0</ele><time>2026-04-25T09:27:41Z</time></trkpt><trkpt lat="45.72924532340166" lon="9.648440598785626"><ele>312.0</ele><time>2026-04-25T09:27:42Z</time></trkpt><trkpt lat="45.72929005196564" lon="9.648371675839366"><ele>312.0</ele><time>2026-04-25T09:27:43Z</time></trkpt><trkpt lat="45.729333366494295" lon="9.64829607653084"><ele>312.0</ele><time>2026-04-25T09:27:44Z</time></trkpt><trkpt lat="45.72937256034026" lon="9.64821759726"><ele>312.0</ele><time>2026-04-25T09:27:45Z</time></trkpt><trkpt lat="45.729418728012014" lon="9.64813612563133"><ele>312.0</ele><time>2026-04-25T09:27:46Z</time></trkpt><trkpt lat="45.72945748793495" lon="9.648058473748069"><ele>312.0</ele><time>2026-04-25T09:27:47Z</time></trkpt><trkpt lat="45.72949827310674" lon="9.647979926812171"><ele>312.0</ele><time>2026-04-25T09:27:48Z</time></trkpt><trkpt lat="45.72954613616308" lon="9.647904450832312"><ele>312.0</ele><time>2026-04-25T09:27:49Z</time></trkpt><trkpt lat="45.72959071744951" lon="9.64783020494699"><ele>312.0</ele><time>2026-04-25T09:27:50Z</time></trkpt><trkpt lat="45.72963432708157" lon="9.647749012173701"><ele>312.0</ele><time>2026-04-25T09:27:51Z</time></trkpt><trkpt lat="45.7296782680382" lon="9.64767291715657"><ele>312.0</ele><time>2026-04-25T09:27:52Z</time></trkpt><trkpt lat="45.729721979755915" lon="9.64759264513779"><ele>311.2857142857143</ele><time>2026-04-25T09:27:53Z</time></trkpt><trkpt lat="45.72976636634051" lon="9.647512970002461"><ele>310.57142857142856</ele><time>2026-04-25T09:27:54Z</time></trkpt><trkpt lat="45.729810134416056" lon="9.647432408286315"><ele>309.85714285714283</ele><time>2026-04-25T09:27:55Z</time></trkpt><trkpt lat="45.72985417706443" lon="9.647352322020891"><ele>309.1428571428571</ele><time>2026-04-25T09:27:56Z</time></trkpt><trkpt lat="45.72990204097378" lon="9.647271437623953"><ele>308.42857142857144</ele><time>2026-04-25T09:27:57Z</time></trkpt><trkpt lat="45.7299470895597" lon="9.64719007963017"><ele>307.71428571428567</ele><time>2026-04-25T09:27:58Z</time></trkpt><trkpt lat="45.72999260277729" lon="9.64710807763901"><ele>307.0</ele><time>2026-04-25T09:27:59Z</time></trkpt><trkpt lat="45.730040898838794" lon="9.647025504655488"><ele>306.4285714285714</ele><time>2026-04-25T09:28:00Z</time></trkpt><trkpt lat="45.730085692523" lon="9.646943138636916"><ele>305.85714285714283</ele><time>2026-04-25T09:28:01Z</time></trkpt><trkpt lat="45.730131808763886" lon="9.646858938741909"><ele>305.2857142857143</ele><time>2026-04-25T09:28:02Z</time></trkpt><trkpt lat="45.73017463138203" lon="9.646778482939187"><ele>304.71428571428567</ele><time>2026-04-25T09:28:03Z</time></trkpt><trkpt lat="45.73022040388388" lon="9.646695546478243"><ele>304.1428571428571</ele><time>2026-04-25T09:28:04Z</time></trkpt><trkpt lat="45.730269042713395" lon="9.646613671794425"><ele>303.57142857142856</ele><time>2026-04-25T09:28:05Z</time></trkpt><trkpt lat="45.730315365606934" lon="9.646534142660407"><ele>303.0</ele><time>2026-04-25T09:28:06Z</time></trkpt><trkpt lat="45.730361828931436" lon="9.646449836302724"><ele>302.8571428571429</ele><time>2026-04-25T09:28:07Z</time></trkpt><trkpt lat="45.73040724614698" lon="9.646365497898284"><ele>302.7142857142857</ele><time>2026-04-25T09:28:08Z</time></trkpt><trkpt lat="45.73045486109602" lon="9.646282440049998"><ele>302.57142857142856</ele><time>2026-04-25T09:28:09Z</time></trkpt><trkpt lat="45.73050058250698" lon="9.646199147370687"><ele>302.42857142857144</ele><time>2026-04-25T09:28:10Z</time></trkpt><trkpt lat="45.730544361866095" lon="9.64611798173817"><ele>302.2857142857143</ele><time>2026-04-25T09:28:11Z</time></trkpt><trkpt lat="45.73059165661645" lon="9.646040260903947"><ele>302.14285714285717</ele><time>2026-04-25T09:28:12Z</time></trkpt><trkpt lat="45.73063738665337" lon="9.645960876189733"><ele>302.0</ele><time>2026-04-25T09:28:13Z</time></trkpt><trkpt lat="45.73067875880522" lon="9.645882331978722"><ele>301.8571428571429</ele><time>2026-04-25T09:28:14Z</time></trkpt><trkpt lat="45.730722123408924" lon="9.645804990275897"><ele>301.7142857142857</ele><time>2026-04-25T09:28:15Z</time></trkpt><trkpt lat="45.730765789863106" lon="9.645725811299668"><ele>301.57142857142856</ele><time>2026-04-25T09:28:16Z</time></trkpt><trkpt lat="45.73080702558937" lon="9.645649277316492"><ele>301.42857142857144</ele><time>2026-04-25T09:28:17Z</time></trkpt><trkpt lat="45.73085012306261" lon="9.645573102479526"><ele>301.2857142857143</ele><time>2026-04-25T09:28:18Z</time></trkpt><trkpt lat="45.73089094632933" lon="9.645498159817492"><ele>301.14285714285717</ele><time>2026-04-25T09:28:19Z</time></trkpt><trkpt lat="45.730931954272506" lon="9.645423427780798"><ele>301.0</ele><time>2026-04-25T09:28:20Z</time></trkpt><trkpt lat="45.73101167457204" lon="9.645267963421565"><ele>301.0</ele><time>2026-04-25T09:28:22Z</time></trkpt><trkpt lat="45.731094622975995" lon="9.645134718291798"><ele>301.0</ele><time>2026-04-25T09:28:24Z</time></trkpt><trkpt lat="45.73113483385891" lon="9.645063779484362"><ele>301.0</ele><time>2026-04-25T09:28:25Z</time></trkpt><trkpt lat="45.731215113700024" lon="9.64492476932986"><ele>301.0</ele><time>2026-04-25T09:28:27Z</time></trkpt><trkpt lat="45.73125447485969" lon="9.644850568173242"><ele>301.0</ele><time>2026-04-25T09:28:28Z</time></trkpt><trkpt lat="45.73129217984409" lon="9.64477745435743"><ele>301.0</ele><time>2026-04-25T09:28:29Z</time></trkpt><trkpt lat="45.731376747988925" lon="9.644637708079403"><ele>301.0</ele><time>2026-04-25T09:28:31Z</time></trkpt><trkpt lat="45.7314162769393" lon="9.644566498333193"><ele>301.0</ele><time>2026-04-25T09:28:32Z</time></trkpt><trkpt lat="45.731456715439045" lon="9.644494397777725"><ele>301.0</ele><time>2026-04-25T09:28:33Z</time></trkpt><trkpt lat="45.73149432275371" lon="9.644421756080714"><ele>301.0</ele><time>2026-04-25T09:28:34Z</time></trkpt><trkpt lat="45.73153423950875" lon="9.644348852329074"><ele>301.0</ele><time>2026-04-25T09:28:35Z</time></trkpt><trkpt lat="45.73157029581262" lon="9.644273691656347"><ele>301.0</ele><time>2026-04-25T09:28:36Z</time></trkpt><trkpt lat="45.731606202380505" lon="9.644196403258196"><ele>301.0</ele><time>2026-04-25T09:28:37Z</time></trkpt><trkpt lat="45.73163963765738" lon="9.644118882861418"><ele>301.0</ele><time>2026-04-25T09:28:38Z</time></trkpt><trkpt lat="45.731676600177046" lon="9.644040475311455"><ele>301.0</ele><time>2026-04-25T09:28:39Z</time></trkpt><trkpt lat="45.7317120442036" lon="9.643962171318195"><ele>301.0</ele><time>2026-04-25T09:28:40Z</time></trkpt><trkpt lat="45.73177164656069" lon="9.64380139313178"><ele>301.0</ele><time>2026-04-25T09:28:42Z</time></trkpt><trkpt lat="45.73182127736094" lon="9.643637639920106"><ele>301.0</ele><time>2026-04-25T09:28:44Z</time></trkpt><trkpt lat="45.73184285998117" lon="9.643550872070161"><ele>301.0</ele><time>2026-04-25T09:28:45Z</time></trkpt><trkpt lat="45.73188889340342" lon="9.643381459357634"><ele>302.0</ele><time>2026-04-25T09:28:47Z</time></trkpt><trkpt lat="45.731909121332464" lon="9.643295005253407"><ele>303.0</ele><time>2026-04-25T09:28:48Z</time></trkpt><trkpt lat="45.73194095858106" lon="9.643127114440615"><ele>304.0</ele><time>2026-04-25T09:28:50Z</time></trkpt><trkpt lat="45.73196324408776" lon="9.64296690359465"><ele>305.0</ele><time>2026-04-25T09:28:52Z</time></trkpt><trkpt lat="45.73199194941009" lon="9.642816147500886"><ele>306.0</ele><time>2026-04-25T09:28:54Z</time></trkpt><trkpt lat="45.7320197987482" lon="9.642671999417914"><ele>306.0</ele><time>2026-04-25T09:28:56Z</time></trkpt><trkpt lat="45.732036739051566" lon="9.64252614648202"><ele>306.0</ele><time>2026-04-25T09:28:58Z</time></trkpt><trkpt lat="45.7320434612219" lon="9.642428767294902"><ele>306.0</ele><time>2026-04-25T09:28:59Z</time></trkpt><trkpt lat="45.73206291112711" lon="9.64225223486796"><ele>306.0</ele><time>2026-04-25T09:29:01Z</time></trkpt><trkpt lat="45.732065804155404" lon="9.64215447283676"><ele>306.0</ele><time>2026-04-25T09:29:02Z</time></trkpt><trkpt lat="45.73207761043529" lon="9.642064836494548"><ele>306.0</ele><time>2026-04-25T09:29:03Z</time></trkpt><trkpt lat="45.7320994059955" lon="9.641974414001895"><ele>305.8333333333333</ele><time>2026-04-25T09:29:04Z</time></trkpt><trkpt lat="45.73214108448033" lon="9.641797459858841"><ele>305.6666666666667</ele><time>2026-04-25T09:29:06Z</time></trkpt><trkpt lat="45.73215937633686" lon="9.641707559244733"><ele>305.5</ele><time>2026-04-25T09:29:07Z</time></trkpt><trkpt lat="45.732173824110006" lon="9.64161484854517"><ele>305.33333333333337</ele><time>2026-04-25T09:29:08Z</time></trkpt><trkpt lat="45.73218579958076" lon="9.64151980508489"><ele>305.1666666666667</ele><time>2026-04-25T09:29:09Z</time></trkpt><trkpt lat="45.73219589862981" lon="9.641427938573951"><ele>305.0</ele><time>2026-04-25T09:29:10Z</time></trkpt><trkpt lat="45.732211408703996" lon="9.641337725485753"><ele>305.0</ele><time>2026-04-25T09:29:11Z</time></trkpt><trkpt lat="45.732228106779075" lon="9.641245670214015"><ele>305.0</ele><time>2026-04-25T09:29:12Z</time></trkpt><trkpt lat="45.73224333308304" lon="9.641156325083124"><ele>305.0</ele><time>2026-04-25T09:29:13Z</time></trkpt><trkpt lat="45.73225683192669" lon="9.64106638828289"><ele>305.0</ele><time>2026-04-25T09:29:14Z</time></trkpt><trkpt lat="45.73226764080318" lon="9.640974438924157"><ele>305.0</ele><time>2026-04-25T09:29:15Z</time></trkpt><trkpt lat="45.73227789832323" lon="9.640884457496306"><ele>305.0</ele><time>2026-04-25T09:29:16Z</time></trkpt><trkpt lat="45.732292845567216" lon="9.640794898703952"><ele>305.0</ele><time>2026-04-25T09:29:17Z</time></trkpt><trkpt lat="45.7323095331356" lon="9.640706225732231"><ele>304.7142857142857</ele><time>2026-04-25T09:29:18Z</time></trkpt><trkpt lat="45.732324095114215" lon="9.64061551222083"><ele>304.4285714285714</ele><time>2026-04-25T09:29:19Z</time></trkpt><trkpt lat="45.732338747105715" lon="9.64052397108572"><ele>304.1428571428571</ele><time>2026-04-25T09:29:20Z</time></trkpt><trkpt lat="45.7323526231378" lon="9.64043355498051"><ele>303.8571428571429</ele><time>2026-04-25T09:29:21Z</time></trkpt><trkpt lat="45.73236331981832" lon="9.640342525321902"><ele>303.57142857142856</ele><time>2026-04-25T09:29:22Z</time></trkpt><trkpt lat="45.73237549279935" lon="9.640248489423323"><ele>303.2857142857143</ele><time>2026-04-25T09:29:23Z</time></trkpt><trkpt lat="45.732392455181554" lon="9.640161255611737"><ele>303.0</ele><time>2026-04-25T09:29:24Z</time></trkpt><trkpt lat="45.73240908054336" lon="9.640067232238545"><ele>302.7142857142857</ele><time>2026-04-25T09:29:25Z</time></trkpt><trkpt lat="45.732424261088305" lon="9.639977610948081"><ele>302.42857142857144</ele><time>2026-04-25T09:29:26Z</time></trkpt><trkpt lat="45.732438393996375" lon="9.639882998676875"><ele>302.1428571428571</ele><time>2026-04-25T09:29:27Z</time></trkpt><trkpt lat="45.7324568369918" lon="9.639796478204588"><ele>301.8571428571429</ele><time>2026-04-25T09:29:28Z</time></trkpt><trkpt lat="45.73247075958075" lon="9.639700180248049"><ele>301.57142857142856</ele><time>2026-04-25T09:29:29Z</time></trkpt><trkpt lat="45.73248988386879" lon="9.63961360691527"><ele>301.2857142857143</ele><time>2026-04-25T09:29:30Z</time></trkpt><trkpt lat="45.73250988943637" lon="9.639521465226242"><ele>301.0</ele><time>2026-04-25T09:29:31Z</time></trkpt><trkpt lat="45.73253271136929" lon="9.639434038811237"><ele>300.85714285714283</ele><time>2026-04-25T09:29:32Z</time></trkpt><trkpt lat="45.732554381363464" lon="9.639344158650736"><ele>300.7142857142857</ele><time>2026-04-25T09:29:33Z</time></trkpt><trkpt lat="45.73257321687723" lon="9.639257531129855"><ele>300.57142857142856</ele><time>2026-04-25T09:29:34Z</time></trkpt><trkpt lat="45.73259190113715" lon="9.639170474581226"><ele>300.42857142857144</ele><time>2026-04-25T09:29:35Z</time></trkpt><trkpt lat="45.73261240779973" lon="9.639083551460683"><ele>300.2857142857143</ele><time>2026-04-25T09:29:36Z</time></trkpt><trkpt lat="45.732636902982854" lon="9.638997360198298"><ele>300.1428571428571</ele><time>2026-04-25T09:29:37Z</time></trkpt><trkpt lat="45.73265972333481" lon="9.63891243962782"><ele>300.0</ele><time>2026-04-25T09:29:38Z</time></trkpt><trkpt lat="45.73267951771311" lon="9.638824248470193"><ele>299.8</ele><time>2026-04-25T09:29:39Z</time></trkpt><trkpt lat="45.73272665943356" lon="9.6386501709506"><ele>299.6</ele><time>2026-04-25T09:29:41Z</time></trkpt><trkpt lat="45.7327824329203" lon="9.638480955121654"><ele>299.4</ele><time>2026-04-25T09:29:43Z</time></trkpt><trkpt lat="45.7328127032322" lon="9.638394435049609"><ele>299.2</ele><time>2026-04-25T09:29:44Z</time></trkpt><trkpt lat="45.732840966903204" lon="9.638305544270795"><ele>299.0</ele><time>2026-04-25T09:29:45Z</time></trkpt><trkpt lat="45.73286553512463" lon="9.638221892856212"><ele>299.0</ele><time>2026-04-25T09:29:46Z</time></trkpt><trkpt lat="45.73289616878191" lon="9.638128006489335"><ele>299.0</ele><time>2026-04-25T09:29:47Z</time></trkpt><trkpt lat="45.732923582318506" lon="9.638040523907252"><ele>299.0</ele><time>2026-04-25T09:29:48Z</time></trkpt><trkpt lat="45.73295282702735" lon="9.637955283180723"><ele>299.0</ele><time>2026-04-25T09:29:49Z</time></trkpt><trkpt lat="45.73298086969077" lon="9.63786779601478"><ele>299.0</ele><time>2026-04-25T09:29:50Z</time></trkpt><trkpt lat="45.73300954578556" lon="9.637784097187858"><ele>299.0</ele><time>2026-04-25T09:29:51Z</time></trkpt><trkpt lat="45.73303849117091" lon="9.637701446105927"><ele>299.0</ele><time>2026-04-25T09:29:52Z</time></trkpt><trkpt lat="45.73306768878696" lon="9.637613702218774"><ele>299.0</ele><time>2026-04-25T09:29:53Z</time></trkpt><trkpt lat="45.733098509211295" lon="9.637532680649791"><ele>299.0</ele><time>2026-04-25T09:29:54Z</time></trkpt><trkpt lat="45.73312191475671" lon="9.637446295252282"><ele>299.0</ele><time>2026-04-25T09:29:55Z</time></trkpt><trkpt lat="45.73317655711568" lon="9.637282009368635"><ele>299.0</ele><time>2026-04-25T09:29:57Z</time></trkpt><trkpt lat="45.733222760690154" lon="9.637110659930102"><ele>299.0</ele><time>2026-04-25T09:29:59Z</time></trkpt><trkpt lat="45.73324982837298" lon="9.637027590617542"><ele>299.0</ele><time>2026-04-25T09:30:00Z</time></trkpt><trkpt lat="45.73326926309359" lon="9.636940622044477"><ele>299.2</ele><time>2026-04-25T09:30:01Z</time></trkpt><trkpt lat="45.73332056212846" lon="9.63677869423524"><ele>299.4</ele><time>2026-04-25T09:30:03Z</time></trkpt><trkpt lat="45.73334442974296" lon="9.636694068856581"><ele>299.6</ele><time>2026-04-25T09:30:04Z</time></trkpt><trkpt lat="45.73339257132041" lon="9.636531452905592"><ele>299.8</ele><time>2026-04-25T09:30:06Z</time></trkpt><trkpt lat="45.733441517672425" lon="9.63637088761075"><ele>300.0</ele><time>2026-04-25T09:30:08Z</time></trkpt><trkpt lat="45.733495094831284" lon="9.636208707785078"><ele>300.0</ele><time>2026-04-25T09:30:10Z</time></trkpt><trkpt lat="45.73355097743867" lon="9.636052300042545"><ele>300.0</ele><time>2026-04-25T09:30:12Z</time></trkpt><trkpt lat="45.73360142559325" lon="9.635888237796879"><ele>300.0</ele><time>2026-04-25T09:30:14Z</time></trkpt><trkpt lat="45.733623778557956" lon="9.635803319842477"><ele>300.0</ele><time>2026-04-25T09:30:15Z</time></trkpt><trkpt lat="45.73364684632248" lon="9.635718864376202"><ele>300.0</ele><time>2026-04-25T09:30:16Z</time></trkpt><trkpt lat="45.733672919062705" lon="9.63563675015266"><ele>300.0</ele><time>2026-04-25T09:30:17Z</time></trkpt><trkpt lat="45.733730162252115" lon="9.63548380856066"><ele>300.1666666666667</ele><time>2026-04-25T09:30:19Z</time></trkpt><trkpt lat="45.73377388019341" lon="9.635414698759693"><ele>300.3333333333333</ele><time>2026-04-25T09:30:20Z</time></trkpt><trkpt lat="45.73383205454433" lon="9.635282013524584"><ele>300.5</ele><time>2026-04-25T09:30:22Z</time></trkpt><trkpt lat="45.73387983759208" lon="9.635123543948945"><ele>300.66666666666663</ele><time>2026-04-25T09:30:24Z</time></trkpt><trkpt lat="45.73386768925333" lon="9.635028932228652"><ele>300.8333333333333</ele><time>2026-04-25T09:30:25Z</time></trkpt><trkpt lat="45.733866756056166" lon="9.63493667619072"><ele>301.0</ele><time>2026-04-25T09:30:26Z</time></trkpt><trkpt lat="45.73385022471257" lon="9.634787286628304"><ele>301.6</ele><time>2026-04-25T09:30:28Z</time></trkpt><trkpt lat="45.73385010908704" lon="9.634670954696032"><ele>302.20000000000005</ele><time>2026-04-25T09:30:46Z</time></trkpt><trkpt lat="45.73384680363306" lon="9.634528584302014"><ele>302.79999999999995</ele><time>2026-04-25T09:30:49Z</time></trkpt><trkpt lat="45.7338155466358" lon="9.634387424805178"><ele>303.4</ele><time>2026-04-25T09:30:51Z</time></trkpt><trkpt lat="45.73379481563065" lon="9.634239351151376"><ele>304.0</ele><time>2026-04-25T09:30:53Z</time></trkpt><trkpt lat="45.7338035199268" lon="9.634145411333767"><ele>303.85714285714283</ele><time>2026-04-25T09:30:54Z</time></trkpt><trkpt lat="45.73380634985212" lon="9.634044194846147"><ele>303.7142857142857</ele><time>2026-04-25T09:30:55Z</time></trkpt><trkpt lat="45.733807365660674" lon="9.633949678366879"><ele>303.57142857142856</ele><time>2026-04-25T09:30:56Z</time></trkpt><trkpt lat="45.733810853555816" lon="9.633851719245078"><ele>303.42857142857144</ele><time>2026-04-25T09:30:57Z</time></trkpt><trkpt lat="45.733813829895574" lon="9.633755809070372"><ele>303.2857142857143</ele><time>2026-04-25T09:30:58Z</time></trkpt><trkpt lat="45.73381562256349" lon="9.63366007298133"><ele>303.14285714285717</ele><time>2026-04-25T09:30:59Z</time></trkpt><trkpt lat="45.733822421278326" lon="9.633564048466466"><ele>303.0</ele><time>2026-04-25T09:31:00Z</time></trkpt><trkpt lat="45.733831070125284" lon="9.633469084967215"><ele>303.0</ele><time>2026-04-25T09:31:01Z</time></trkpt><trkpt lat="45.73383335229155" lon="9.63337421105243"><ele>303.0</ele><time>2026-04-25T09:31:02Z</time></trkpt><trkpt lat="45.73383072194397" lon="9.633281541898844"><ele>303.0</ele><time>2026-04-25T09:31:03Z</time></trkpt><trkpt lat="45.73383100844163" lon="9.63318675326392"><ele>303.0</ele><time>2026-04-25T09:31:04Z</time></trkpt><trkpt lat="45.7338341913207" lon="9.633092325351601"><ele>303.0</ele><time>2026-04-25T09:31:05Z</time></trkpt><trkpt lat="45.73383612878107" lon="9.63299663115066"><ele>303.0</ele><time>2026-04-25T09:31:06Z</time></trkpt><trkpt lat="45.73383979241142" lon="9.632902888582661"><ele>303.0</ele><time>2026-04-25T09:31:07Z</time></trkpt><trkpt lat="45.73384100565034" lon="9.632807741296034"><ele>302.8571428571429</ele><time>2026-04-25T09:31:08Z</time></trkpt><trkpt lat="45.73384475710704" lon="9.632710670149132"><ele>302.7142857142857</ele><time>2026-04-25T09:31:09Z</time></trkpt><trkpt lat="45.73384598205788" lon="9.632612823641958"><ele>302.57142857142856</ele><time>2026-04-25T09:31:10Z</time></trkpt><trkpt lat="45.733846614557294" lon="9.632513959792991"><ele>302.42857142857144</ele><time>2026-04-25T09:31:11Z</time></trkpt><trkpt lat="45.73385116902709" lon="9.632416256471146"><ele>302.2857142857143</ele><time>2026-04-25T09:31:12Z</time></trkpt><trkpt lat="45.73384846472293" lon="9.632319129287552"><ele>302.14285714285717</ele><time>2026-04-25T09:31:13Z</time></trkpt><trkpt lat="45.73384947225542" lon="9.632216680769483"><ele>302.0</ele><time>2026-04-25T09:31:14Z</time></trkpt><trkpt lat="45.733848294648624" lon="9.632113800127165"><ele>302.00000000000006</ele><time>2026-04-25T09:31:15Z</time></trkpt><trkpt lat="45.7338474859038" lon="9.632013895318694"><ele>302.0</ele><time>2026-04-25T09:31:16Z</time></trkpt><trkpt lat="45.73384927522896" lon="9.631913033400163"><ele>302.0</ele><time>2026-04-25T09:31:17Z</time></trkpt><trkpt lat="45.73385033510012" lon="9.631817336990842"><ele>302.0</ele><time>2026-04-25T09:31:18Z</time></trkpt><trkpt lat="45.73384447442694" lon="9.631712070727326"><ele>302.0</ele><time>2026-04-25T09:31:19Z</time></trkpt><trkpt lat="45.733841315537546" lon="9.631616361639907"><ele>302.00000000000006</ele><time>2026-04-25T09:31:20Z</time></trkpt><trkpt lat="45.73383914556193" lon="9.631517976988599"><ele>302.0</ele><time>2026-04-25T09:31:21Z</time></trkpt><trkpt lat="45.73383032713467" lon="9.631421099079988"><ele>302.1666666666667</ele><time>2026-04-25T09:31:22Z</time></trkpt><trkpt lat="45.733817729055595" lon="9.631332050972155"><ele>302.33333333333337</ele><time>2026-04-25T09:31:23Z</time></trkpt><trkpt lat="45.73380129593237" lon="9.631242905544122"><ele>302.5</ele><time>2026-04-25T09:31:24Z</time></trkpt><trkpt lat="45.7337966408542" lon="9.63107469158309"><ele>302.6666666666667</ele><time>2026-04-25T09:31:26Z</time></trkpt><trkpt lat="45.73384361830737" lon="9.630909111673198"><ele>302.8333333333333</ele><time>2026-04-25T09:31:28Z</time></trkpt><trkpt lat="45.73387302679343" lon="9.630820855042245"><ele>303.0</ele><time>2026-04-25T09:31:29Z</time></trkpt><trkpt lat="45.73389977558079" lon="9.630734571932884"><ele>302.7142857142857</ele><time>2026-04-25T09:31:30Z</time></trkpt><trkpt lat="45.73392727495855" lon="9.630649917588324"><ele>302.42857142857144</ele><time>2026-04-25T09:31:31Z</time></trkpt><trkpt lat="45.73395464096192" lon="9.630561766723158"><ele>302.1428571428571</ele><time>2026-04-25T09:31:32Z</time></trkpt><trkpt lat="45.733982151639154" lon="9.630475255627218"><ele>301.8571428571429</ele><time>2026-04-25T09:31:33Z</time></trkpt><trkpt lat="45.73400886545522" lon="9.630383792111486"><ele>301.57142857142856</ele><time>2026-04-25T09:31:34Z</time></trkpt><trkpt lat="45.734037947536486" lon="9.630301750376724"><ele>301.2857142857143</ele><time>2026-04-25T09:31:35Z</time></trkpt><trkpt lat="45.73406260631448" lon="9.630212752091955"><ele>301.0</ele><time>2026-04-25T09:31:36Z</time></trkpt><trkpt lat="45.734091712429716" lon="9.63012715850722"><ele>300.57142857142856</ele><time>2026-04-25T09:31:37Z</time></trkpt><trkpt lat="45.73411943191494" lon="9.630037545174781"><ele>300.1428571428571</ele><time>2026-04-25T09:31:38Z</time></trkpt><trkpt lat="45.734146718143236" lon="9.629949316500193"><ele>299.7142857142857</ele><time>2026-04-25T09:31:39Z</time></trkpt><trkpt lat="45.73417513947561" lon="9.62986189615988"><ele>299.2857142857143</ele><time>2026-04-25T09:31:40Z</time></trkpt><trkpt lat="45.7342043450756" lon="9.629772960509898"><ele>298.85714285714283</ele><time>2026-04-25T09:31:41Z</time></trkpt><trkpt lat="45.734233254080415" lon="9.62968650223244"><ele>298.42857142857144</ele><time>2026-04-25T09:31:42Z</time></trkpt><trkpt lat="45.73426063877333" lon="9.629599313914087"><ele>298.0</ele><time>2026-04-25T09:31:43Z</time></trkpt><trkpt lat="45.73429022671027" lon="9.629512500196176"><ele>297.57142857142856</ele><time>2026-04-25T09:31:44Z</time></trkpt><trkpt lat="45.734318987425326" lon="9.629427114290898"><ele>297.1428571428571</ele><time>2026-04-25T09:31:45Z</time></trkpt><trkpt lat="45.73434602073851" lon="9.62933808786944"><ele>296.7142857142857</ele><time>2026-04-25T09:31:46Z</time></trkpt><trkpt lat="45.734374015553136" lon="9.629249673204844"><ele>296.2857142857143</ele><time>2026-04-25T09:31:47Z</time></trkpt><trkpt lat="45.73440258039334" lon="9.629161258078325"><ele>295.8571428571429</ele><time>2026-04-25T09:31:48Z</time></trkpt><trkpt lat="45.73443078797861" lon="9.629071789566236"><ele>295.42857142857144</ele><time>2026-04-25T09:31:49Z</time></trkpt><trkpt lat="45.73446004658674" lon="9.628986326821282"><ele>295.0</ele><time>2026-04-25T09:31:50Z</time></trkpt><trkpt lat="45.734487824056785" lon="9.628898497127167"><ele>295.00000000000006</ele><time>2026-04-25T09:31:51Z</time></trkpt><trkpt lat="45.73451517741911" lon="9.628810805562637"><ele>295.0</ele><time>2026-04-25T09:31:52Z</time></trkpt><trkpt lat="45.73454476944582" lon="9.62872538985145"><ele>295.0</ele><time>2026-04-25T09:31:53Z</time></trkpt><trkpt lat="45.73457109755481" lon="9.628640336432094"><ele>295.0</ele><time>2026-04-25T09:31:54Z</time></trkpt><trkpt lat="45.73459774360508" lon="9.62855344616758"><ele>295.0</ele><time>2026-04-25T09:31:55Z</time></trkpt><trkpt lat="45.73462455687784" lon="9.628468222534025"><ele>295.00000000000006</ele><time>2026-04-25T09:31:56Z</time></trkpt><trkpt lat="45.7346518079906" lon="9.628386023258658"><ele>295.0</ele><time>2026-04-25T09:31:57Z</time></trkpt><trkpt lat="45.734678647426314" lon="9.62830056923971"><ele>294.6</ele><time>2026-04-25T09:31:58Z</time></trkpt><trkpt lat="45.7347056787446" lon="9.628216762414343"><ele>294.2</ele><time>2026-04-25T09:31:59Z</time></trkpt><trkpt lat="45.73476036349913" lon="9.628054985698313"><ele>293.8</ele><time>2026-04-25T09:32:01Z</time></trkpt><trkpt lat="45.73481316779884" lon="9.627890781723"><ele>293.4</ele><time>2026-04-25T09:32:03Z</time></trkpt><trkpt lat="45.73486462053829" lon="9.627727172735758"><ele>293.0</ele><time>2026-04-25T09:32:05Z</time></trkpt><trkpt lat="45.73488991927905" lon="9.627644539938482"><ele>292.99999999999994</ele><time>2026-04-25T09:32:06Z</time></trkpt><trkpt lat="45.73491588657792" lon="9.627561809570375"><ele>293.0</ele><time>2026-04-25T09:32:07Z</time></trkpt><trkpt lat="45.73494233442648" lon="9.627479839284778"><ele>293.0</ele><time>2026-04-25T09:32:08Z</time></trkpt><trkpt lat="45.73496978520541" lon="9.627398403542662"><ele>293.0</ele><time>2026-04-25T09:32:09Z</time></trkpt><trkpt lat="45.73499602998495" lon="9.627315962662111"><ele>293.0</ele><time>2026-04-25T09:32:10Z</time></trkpt><trkpt lat="45.73502174274269" lon="9.627232981166989"><ele>292.99999999999994</ele><time>2026-04-25T09:32:11Z</time></trkpt><trkpt lat="45.735072063311364" lon="9.62707068735323"><ele>293.0</ele><time>2026-04-25T09:32:13Z</time></trkpt><trkpt lat="45.735097966280655" lon="9.62698819685678"><ele>293.2</ele><time>2026-04-25T09:32:14Z</time></trkpt><trkpt lat="45.73512552142321" lon="9.626906938378468"><ele>293.4</ele><time>2026-04-25T09:32:15Z</time></trkpt><trkpt lat="45.73517693651932" lon="9.626741379204672"><ele>293.59999999999997</ele><time>2026-04-25T09:32:17Z</time></trkpt><trkpt lat="45.73522896570552" lon="9.62658335852163"><ele>293.8</ele><time>2026-04-25T09:32:19Z</time></trkpt><trkpt lat="45.73525164349539" lon="9.626495380490555"><ele>294.0</ele><time>2026-04-25T09:32:20Z</time></trkpt><trkpt lat="45.73530335904033" lon="9.626338785792358"><ele>295.8</ele><time>2026-04-25T09:32:22Z</time></trkpt><trkpt lat="45.73535429234553" lon="9.626176093047471"><ele>297.59999999999997</ele><time>2026-04-25T09:32:24Z</time></trkpt><trkpt lat="45.73540635679224" lon="9.626012100134329"><ele>299.4</ele><time>2026-04-25T09:32:26Z</time></trkpt><trkpt lat="45.73545903317527" lon="9.62585127641429"><ele>301.2</ele><time>2026-04-25T09:32:28Z</time></trkpt><trkpt lat="45.73548756794138" lon="9.625770058127173"><ele>303.0</ele><time>2026-04-25T09:32:29Z</time></trkpt><trkpt lat="45.73554485656332" lon="9.625612504303692"><ele>303.0</ele><time>2026-04-25T09:32:31Z</time></trkpt><trkpt lat="45.73556542807324" lon="9.625527215230196"><ele>303.0</ele><time>2026-04-25T09:32:32Z</time></trkpt><trkpt lat="45.73562210833952" lon="9.62536625092051"><ele>303.0</ele><time>2026-04-25T09:32:34Z</time></trkpt><trkpt lat="45.73567165724986" lon="9.625204595207983"><ele>303.0</ele><time>2026-04-25T09:32:36Z</time></trkpt><trkpt lat="45.73572166122216" lon="9.625048062546222"><ele>303.0</ele><time>2026-04-25T09:32:38Z</time></trkpt><trkpt lat="45.73577370423175" lon="9.624887952472063"><ele>303.0</ele><time>2026-04-25T09:32:40Z</time></trkpt><trkpt lat="45.73580187368782" lon="9.624802894610632"><ele>303.0</ele><time>2026-04-25T09:32:41Z</time></trkpt><trkpt lat="45.73585622070447" lon="9.624640279943684"><ele>303.0</ele><time>2026-04-25T09:32:43Z</time></trkpt><trkpt lat="45.735882054197184" lon="9.624556340128708"><ele>303.0</ele><time>2026-04-25T09:32:44Z</time></trkpt><trkpt lat="45.73590915621019" lon="9.624468157186824"><ele>303.0</ele><time>2026-04-25T09:32:45Z</time></trkpt><trkpt lat="45.735940668335196" lon="9.624385682887768"><ele>303.0</ele><time>2026-04-25T09:32:46Z</time></trkpt><trkpt lat="45.7359706892759" lon="9.624304903114597"><ele>302.8333333333333</ele><time>2026-04-25T09:32:47Z</time></trkpt><trkpt lat="45.736006291857954" lon="9.624225123988863"><ele>302.6666666666667</ele><time>2026-04-25T09:32:48Z</time></trkpt><trkpt lat="45.73604221820593" lon="9.624144189635917"><ele>302.5</ele><time>2026-04-25T09:32:49Z</time></trkpt><trkpt lat="45.73607598308079" lon="9.624067970804749"><ele>302.33333333333337</ele><time>2026-04-25T09:32:50Z</time></trkpt><trkpt lat="45.73610667932351" lon="9.62398827932859"><ele>302.1666666666667</ele><time>2026-04-25T09:32:51Z</time></trkpt><trkpt lat="45.736150956181675" lon="9.623912694975155"><ele>302.0</ele><time>2026-04-25T09:32:52Z</time></trkpt><trkpt lat="45.7362307976022" lon="9.62377257468343"><ele>302.0</ele><time>2026-04-25T09:32:54Z</time></trkpt><trkpt lat="45.7362721327146" lon="9.623689258431227"><ele>302.0</ele><time>2026-04-25T09:32:55Z</time></trkpt><trkpt lat="45.73635615916748" lon="9.623554426825963"><ele>302.0</ele><time>2026-04-25T09:32:57Z</time></trkpt><trkpt lat="45.73640382771972" lon="9.623490274412703"><ele>302.0</ele><time>2026-04-25T09:32:58Z</time></trkpt><trkpt lat="45.736448419645576" lon="9.623422837608505"><ele>302.0</ele><time>2026-04-25T09:32:59Z</time></trkpt><trkpt lat="45.73649901188907" lon="9.623365227506255"><ele>302.0</ele><time>2026-04-25T09:33:00Z</time></trkpt><trkpt lat="45.736547738233256" lon="9.623307542848892"><ele>302.00000000000006</ele><time>2026-04-25T09:33:01Z</time></trkpt><trkpt lat="45.736600929286794" lon="9.623243650200758"><ele>302.0</ele><time>2026-04-25T09:33:02Z</time></trkpt><trkpt lat="45.73665127027891" lon="9.623188206751085"><ele>302.0</ele><time>2026-04-25T09:33:03Z</time></trkpt><trkpt lat="45.73670255098932" lon="9.623135178841444"><ele>302.0</ele><time>2026-04-25T09:33:04Z</time></trkpt><trkpt lat="45.73675631743735" lon="9.623066599175397"><ele>302.0</ele><time>2026-04-25T09:33:05Z</time></trkpt><trkpt lat="45.73681449643188" lon="9.623022609114193"><ele>302.00000000000006</ele><time>2026-04-25T09:33:06Z</time></trkpt><trkpt lat="45.73687078661661" lon="9.622981276734295"><ele>302.0</ele><time>2026-04-25T09:33:07Z</time></trkpt><trkpt lat="45.73693009957536" lon="9.622933912518835"><ele>301.5714285714286</ele><time>2026-04-25T09:33:08Z</time></trkpt><trkpt lat="45.73698837307317" lon="9.62288908606429"><ele>301.14285714285717</ele><time>2026-04-25T09:33:09Z</time></trkpt><trkpt lat="45.73704602112546" lon="9.622845655140551"><ele>300.7142857142857</ele><time>2026-04-25T09:33:10Z</time></trkpt><trkpt lat="45.73710424583219" lon="9.62280176597055"><ele>300.28571428571433</ele><time>2026-04-25T09:33:11Z</time></trkpt><trkpt lat="45.73716232709369" lon="9.622750730940872"><ele>299.8571428571429</ele><time>2026-04-25T09:33:12Z</time></trkpt><trkpt lat="45.73722276640243" lon="9.622716373580433"><ele>299.42857142857144</ele><time>2026-04-25T09:33:13Z</time></trkpt><trkpt lat="45.73728258427592" lon="9.622665195260062"><ele>299.0</ele><time>2026-04-25T09:33:14Z</time></trkpt><trkpt lat="45.73734159474603" lon="9.622625651311502"><ele>298.6666666666667</ele><time>2026-04-25T09:33:15Z</time></trkpt><trkpt lat="45.73740032798397" lon="9.622581840009651"><ele>298.33333333333337</ele><time>2026-04-25T09:33:16Z</time></trkpt><trkpt lat="45.73745669056554" lon="9.622535073642036"><ele>298.0</ele><time>2026-04-25T09:33:17Z</time></trkpt><trkpt lat="45.73751366269602" lon="9.622485803430546"><ele>297.6666666666667</ele><time>2026-04-25T09:33:18Z</time></trkpt><trkpt lat="45.73762707332595" lon="9.622412138308196"><ele>297.3333333333333</ele><time>2026-04-25T09:33:20Z</time></trkpt><trkpt lat="45.73773824990665" lon="9.6223306373705"><ele>297.0</ele><time>2026-04-25T09:33:22Z</time></trkpt><trkpt lat="45.73784270662658" lon="9.622251309516471"><ele>296.8571428571429</ele><time>2026-04-25T09:33:24Z</time></trkpt><trkpt lat="45.73794920555743" lon="9.622176687967935"><ele>296.7142857142857</ele><time>2026-04-25T09:33:26Z</time></trkpt><trkpt lat="45.73801024333779" lon="9.622132763542286"><ele>296.57142857142856</ele><time>2026-04-25T09:33:27Z</time></trkpt><trkpt lat="45.738068040058394" lon="9.622086724528652"><ele>296.42857142857144</ele><time>2026-04-25T09:33:28Z</time></trkpt><trkpt lat="45.73812720070038" lon="9.622045493626766"><ele>296.2857142857143</ele><time>2026-04-25T09:33:29Z</time></trkpt><trkpt lat="45.738182391677206" lon="9.622000692497071"><ele>296.14285714285717</ele><time>2026-04-25T09:33:30Z</time></trkpt><trkpt lat="45.73823836207445" lon="9.621957907194341"><ele>296.0</ele><time>2026-04-25T09:33:31Z</time></trkpt><trkpt lat="45.7383530203912" lon="9.621875158406063"><ele>295.8571428571429</ele><time>2026-04-25T09:33:33Z</time></trkpt><trkpt lat="45.738411349078625" lon="9.62183279326137"><ele>295.7142857142857</ele><time>2026-04-25T09:33:34Z</time></trkpt><trkpt lat="45.738470938892945" lon="9.621786104713376"><ele>295.57142857142856</ele><time>2026-04-25T09:33:35Z</time></trkpt><trkpt lat="45.73853022227694" lon="9.621746685750418"><ele>295.42857142857144</ele><time>2026-04-25T09:33:36Z</time></trkpt><trkpt lat="45.73858912278466" lon="9.621699898363618"><ele>295.2857142857143</ele><time>2026-04-25T09:33:37Z</time></trkpt><trkpt lat="45.73864726857794" lon="9.621657749128575"><ele>295.14285714285717</ele><time>2026-04-25T09:33:38Z</time></trkpt><trkpt lat="45.73870755653127" lon="9.621614053489266"><ele>295.0</ele><time>2026-04-25T09:33:39Z</time></trkpt><trkpt lat="45.73876689863515" lon="9.621566691708317"><ele>295.28571428571433</ele><time>2026-04-25T09:33:40Z</time></trkpt><trkpt lat="45.7388259698515" lon="9.621524571652605"><ele>295.57142857142856</ele><time>2026-04-25T09:33:41Z</time></trkpt><trkpt lat="45.73888636609449" lon="9.62148058372204"><ele>295.8571428571429</ele><time>2026-04-25T09:33:42Z</time></trkpt><trkpt lat="45.73894419914429" lon="9.6214358359485"><ele>296.14285714285717</ele><time>2026-04-25T09:33:43Z</time></trkpt><trkpt lat="45.73900220346419" lon="9.621392442573857"><ele>296.42857142857144</ele><time>2026-04-25T09:33:44Z</time></trkpt><trkpt lat="45.73906036448846" lon="9.621346875637338"><ele>296.7142857142857</ele><time>2026-04-25T09:33:45Z</time></trkpt><trkpt lat="45.73912017498799" lon="9.6213025276242"><ele>297.0</ele><time>2026-04-25T09:33:46Z</time></trkpt><trkpt lat="45.73917974834095" lon="9.621258993365345"><ele>297.0</ele><time>2026-04-25T09:33:47Z</time></trkpt><trkpt lat="45.739236615444845" lon="9.621213964826483"><ele>297.0</ele><time>2026-04-25T09:33:48Z</time></trkpt><trkpt lat="45.739295225889755" lon="9.621173773329042"><ele>297.0</ele><time>2026-04-25T09:33:49Z</time></trkpt><trkpt lat="45.73935300689608" lon="9.621126350530464"><ele>297.0</ele><time>2026-04-25T09:33:50Z</time></trkpt><trkpt lat="45.73941250724649" lon="9.621086743544874"><ele>297.0</ele><time>2026-04-25T09:33:51Z</time></trkpt><trkpt lat="45.739470082648864" lon="9.621047113287172"><ele>297.0</ele><time>2026-04-25T09:33:52Z</time></trkpt><trkpt lat="45.73952989205627" lon="9.621004700886514"><ele>297.0</ele><time>2026-04-25T09:33:53Z</time></trkpt><trkpt lat="45.73958672132491" lon="9.620961787954991"><ele>297.0</ele><time>2026-04-25T09:33:54Z</time></trkpt><trkpt lat="45.73964361372163" lon="9.620920622829281"><ele>297.0</ele><time>2026-04-25T09:33:55Z</time></trkpt><trkpt lat="45.73970468469608" lon="9.620877410233575"><ele>297.0</ele><time>2026-04-25T09:33:56Z</time></trkpt><trkpt lat="45.7397635113497" lon="9.620833934505464"><ele>297.0</ele><time>2026-04-25T09:33:57Z</time></trkpt><trkpt lat="45.73982302991185" lon="9.620792020571765"><ele>297.0</ele><time>2026-04-25T09:33:58Z</time></trkpt><trkpt lat="45.73993865633137" lon="9.62071183344361"><ele>297.0</ele><time>2026-04-25T09:34:00Z</time></trkpt><trkpt lat="45.7400443157819" lon="9.620631566975645"><ele>297.0</ele><time>2026-04-25T09:34:02Z</time></trkpt><trkpt lat="45.74015762827342" lon="9.620552658773633"><ele>297.0</ele><time>2026-04-25T09:34:04Z</time></trkpt><trkpt lat="45.74021330481915" lon="9.620508398708177"><ele>297.0</ele><time>2026-04-25T09:34:05Z</time></trkpt><trkpt lat="45.74032721756023" lon="9.620431092947202"><ele>297.0</ele><time>2026-04-25T09:34:07Z</time></trkpt><trkpt lat="45.74044050051312" lon="9.620348578756795"><ele>297.0</ele><time>2026-04-25T09:34:09Z</time></trkpt><trkpt lat="45.74049812756161" lon="9.620307298941398"><ele>296.8333333333333</ele><time>2026-04-25T09:34:10Z</time></trkpt><trkpt lat="45.74061124091795" lon="9.620224722197838"><ele>296.6666666666667</ele><time>2026-04-25T09:34:12Z</time></trkpt><trkpt lat="45.74066629709925" lon="9.620176905912167"><ele>296.5</ele><time>2026-04-25T09:34:13Z</time></trkpt><trkpt lat="45.7407242753007" lon="9.62013397632514"><ele>296.33333333333337</ele><time>2026-04-25T09:34:14Z</time></trkpt><trkpt lat="45.74078302046563" lon="9.62008916414212"><ele>296.1666666666667</ele><time>2026-04-25T09:34:15Z</time></trkpt><trkpt lat="45.74083913034208" lon="9.620045435157621"><ele>296.0</ele><time>2026-04-25T09:34:16Z</time></trkpt><trkpt lat="45.7408988065277" lon="9.619999208761442"><ele>296.0</ele><time>2026-04-25T09:34:17Z</time></trkpt><trkpt lat="45.740955175182926" lon="9.619958672204406"><ele>296.0</ele><time>2026-04-25T09:34:18Z</time></trkpt><trkpt lat="45.74101264606923" lon="9.619914008361466"><ele>296.0</ele><time>2026-04-25T09:34:19Z</time></trkpt><trkpt lat="45.7410693553102" lon="9.619870829731415"><ele>296.0</ele><time>2026-04-25T09:34:20Z</time></trkpt><trkpt lat="45.741125628314954" lon="9.619828531287395"><ele>296.0</ele><time>2026-04-25T09:34:21Z</time></trkpt><trkpt lat="45.74118664582918" lon="9.619789080685914"><ele>296.0</ele><time>2026-04-25T09:34:22Z</time></trkpt><trkpt lat="45.741242266323624" lon="9.619746197176159"><ele>296.0</ele><time>2026-04-25T09:34:23Z</time></trkpt><trkpt lat="45.741299432678424" lon="9.619701468910657"><ele>295.8571428571429</ele><time>2026-04-25T09:34:24Z</time></trkpt><trkpt lat="45.74135843450092" lon="9.619661135463403"><ele>295.7142857142857</ele><time>2026-04-25T09:34:25Z</time></trkpt><trkpt lat="45.74141636561007" lon="9.619617128551152"><ele>295.57142857142856</ele><time>2026-04-25T09:34:26Z</time></trkpt><trkpt lat="45.741472326107754" lon="9.619573248600695"><ele>295.42857142857144</ele><time>2026-04-25T09:34:27Z</time></trkpt><trkpt lat="45.74152955486678" lon="9.619526999524297"><ele>295.2857142857143</ele><time>2026-04-25T09:34:28Z</time></trkpt><trkpt lat="45.74158607671554" lon="9.619485791041003"><ele>295.14285714285717</ele><time>2026-04-25T09:34:29Z</time></trkpt><trkpt lat="45.741643548216395" lon="9.619441791907512"><ele>295.0</ele><time>2026-04-25T09:34:30Z</time></trkpt><trkpt lat="45.741698721936245" lon="9.619393593962563"><ele>295.00000000000006</ele><time>2026-04-25T09:34:31Z</time></trkpt><trkpt lat="45.741755183750065" lon="9.619347580418799"><ele>295.0</ele><time>2026-04-25T09:34:32Z</time></trkpt><trkpt lat="45.74181054082801" lon="9.619299003011033"><ele>295.0</ele><time>2026-04-25T09:34:33Z</time></trkpt><trkpt lat="45.741865744761995" lon="9.619247684024522"><ele>295.0</ele><time>2026-04-25T09:34:34Z</time></trkpt><trkpt lat="45.741920739416265" lon="9.619196979823624"><ele>295.0</ele><time>2026-04-25T09:34:35Z</time></trkpt><trkpt lat="45.741974749516345" lon="9.619147647808187"><ele>295.00000000000006</ele><time>2026-04-25T09:34:36Z</time></trkpt><trkpt lat="45.74202925521672" lon="9.619096954148102"><ele>295.0</ele><time>2026-04-25T09:34:37Z</time></trkpt><trkpt lat="45.74208171765159" lon="9.619042738938253"><ele>295.14285714285717</ele><time>2026-04-25T09:34:38Z</time></trkpt><trkpt lat="45.74213459030327" lon="9.618988919627347"><ele>295.2857142857143</ele><time>2026-04-25T09:34:39Z</time></trkpt><trkpt lat="45.742187184141756" lon="9.618934025935232"><ele>295.42857142857144</ele><time>2026-04-25T09:34:40Z</time></trkpt><trkpt lat="45.74223760722254" lon="9.61887969214092"><ele>295.57142857142856</ele><time>2026-04-25T09:34:41Z</time></trkpt><trkpt lat="45.74229333416848" lon="9.618825564791441"><ele>295.7142857142857</ele><time>2026-04-25T09:34:42Z</time></trkpt><trkpt lat="45.74234594328762" lon="9.618772563548033"><ele>295.8571428571429</ele><time>2026-04-25T09:34:43Z</time></trkpt><trkpt lat="45.742398751778204" lon="9.618717809453193"><ele>296.0</ele><time>2026-04-25T09:34:44Z</time></trkpt><trkpt lat="45.74245186799959" lon="9.618660740237983"><ele>296.0</ele><time>2026-04-25T09:34:45Z</time></trkpt><trkpt lat="45.74250416813157" lon="9.618605465109827"><ele>296.0</ele><time>2026-04-25T09:34:46Z</time></trkpt><trkpt lat="45.74255689800347" lon="9.618550971448302"><ele>296.0</ele><time>2026-04-25T09:34:47Z</time></trkpt><trkpt lat="45.74261027142388" lon="9.618496981328697"><ele>296.0</ele><time>2026-04-25T09:34:48Z</time></trkpt><trkpt lat="45.742663737516075" lon="9.618446997726569"><ele>296.0</ele><time>2026-04-25T09:34:49Z</time></trkpt><trkpt lat="45.74271628402662" lon="9.618394282474899"><ele>296.0</ele><time>2026-04-25T09:34:50Z</time></trkpt><trkpt lat="45.74276796514808" lon="9.618338496757177"><ele>296.0</ele><time>2026-04-25T09:34:51Z</time></trkpt><trkpt lat="45.74282092569689" lon="9.61828676516165"><ele>296.14285714285717</ele><time>2026-04-25T09:34:52Z</time></trkpt><trkpt lat="45.742873117148335" lon="9.618230994114217"><ele>296.2857142857143</ele><time>2026-04-25T09:34:53Z</time></trkpt><trkpt lat="45.74292568863934" lon="9.61817746080223"><ele>296.42857142857144</ele><time>2026-04-25T09:34:54Z</time></trkpt><trkpt lat="45.7429788818427" lon="9.618125138296346"><ele>296.57142857142856</ele><time>2026-04-25T09:34:55Z</time></trkpt><trkpt lat="45.74303100586332" lon="9.61807033873425"><ele>296.7142857142857</ele><time>2026-04-25T09:34:56Z</time></trkpt><trkpt lat="45.7430837262799" lon="9.618013095676378"><ele>296.8571428571429</ele><time>2026-04-25T09:34:57Z</time></trkpt><trkpt lat="45.74313473633264" lon="9.617958146978378"><ele>297.0</ele><time>2026-04-25T09:34:58Z</time></trkpt><trkpt lat="45.74318782094391" lon="9.617904621873445"><ele>297.0</ele><time>2026-04-25T09:34:59Z</time></trkpt><trkpt lat="45.74323899798053" lon="9.617849467136626"><ele>297.0</ele><time>2026-04-25T09:35:00Z</time></trkpt><trkpt lat="45.743292687664194" lon="9.61779785523504"><ele>297.0</ele><time>2026-04-25T09:35:01Z</time></trkpt><trkpt lat="45.7433449784154" lon="9.617742487172222"><ele>297.0</ele><time>2026-04-25T09:35:02Z</time></trkpt><trkpt lat="45.74339440151513" lon="9.617685519530468"><ele>297.0</ele><time>2026-04-25T09:35:03Z</time></trkpt><trkpt lat="45.743496632150276" lon="9.617586417486514"><ele>297.0</ele><time>2026-04-25T09:35:05Z</time></trkpt><trkpt lat="45.743591247061275" lon="9.617496464102492"><ele>297.1666666666667</ele><time>2026-04-25T09:35:07Z</time></trkpt><trkpt lat="45.74367581545264" lon="9.61740952417999"><ele>297.3333333333333</ele><time>2026-04-25T09:35:09Z</time></trkpt><trkpt lat="45.743778997939735" lon="9.617301845528896"><ele>297.5</ele><time>2026-04-25T09:35:11Z</time></trkpt><trkpt lat="45.74383108505701" lon="9.617249713609061"><ele>297.66666666666663</ele><time>2026-04-25T09:35:12Z</time></trkpt><trkpt lat="45.74388514848963" lon="9.617197573633149"><ele>297.8333333333333</ele><time>2026-04-25T09:35:13Z</time></trkpt><trkpt lat="45.743934082912126" lon="9.617138503220014"><ele>298.0</ele><time>2026-04-25T09:35:14Z</time></trkpt><trkpt lat="45.7439862474295" lon="9.617083268766043"><ele>298.0</ele><time>2026-04-25T09:35:15Z</time></trkpt><trkpt lat="45.744036712660154" lon="9.617024747022533"><ele>298.0</ele><time>2026-04-25T09:35:16Z</time></trkpt><trkpt lat="45.74408927121059" lon="9.616964334511957"><ele>298.0</ele><time>2026-04-25T09:35:17Z</time></trkpt><trkpt lat="45.74413777187954" lon="9.61690189970273"><ele>298.0</ele><time>2026-04-25T09:35:18Z</time></trkpt><trkpt lat="45.74418369249437" lon="9.616838869322144"><ele>298.0</ele><time>2026-04-25T09:35:19Z</time></trkpt><trkpt lat="45.744233182945" lon="9.616775282075999"><ele>298.0</ele><time>2026-04-25T09:35:20Z</time></trkpt><trkpt lat="45.74428244302811" lon="9.616717138434225"><ele>298.0</ele><time>2026-04-25T09:35:21Z</time></trkpt><trkpt lat="45.74433737336204" lon="9.61666339615111"><ele>297.8</ele><time>2026-04-25T09:35:22Z</time></trkpt><trkpt lat="45.74439221557796" lon="9.616614695954"><ele>297.6</ele><time>2026-04-25T09:35:23Z</time></trkpt><trkpt lat="45.74444598204129" lon="9.61655999958085"><ele>297.4</ele><time>2026-04-25T09:35:24Z</time></trkpt><trkpt lat="45.74454781514581" lon="9.616449670911345"><ele>297.2</ele><time>2026-04-25T09:35:26Z</time></trkpt><trkpt lat="45.74465028369497" lon="9.616341407299966"><ele>297.0</ele><time>2026-04-25T09:35:28Z</time></trkpt><trkpt lat="45.744702754605434" lon="9.616288662064848"><ele>297.0</ele><time>2026-04-25T09:35:29Z</time></trkpt><trkpt lat="45.74475366827988" lon="9.616231751334748"><ele>297.0</ele><time>2026-04-25T09:35:30Z</time></trkpt><trkpt lat="45.744854203868464" lon="9.616129019757295"><ele>297.0</ele><time>2026-04-25T09:35:32Z</time></trkpt><trkpt lat="45.74491065280501" lon="9.616077421346203"><ele>297.0</ele><time>2026-04-25T09:35:33Z</time></trkpt><trkpt lat="45.744959796692534" lon="9.616019495546794"><ele>297.0</ele><time>2026-04-25T09:35:34Z</time></trkpt><trkpt lat="45.745008353819095" lon="9.615961250560078"><ele>297.0</ele><time>2026-04-25T09:35:35Z</time></trkpt><trkpt lat="45.74510828207416" lon="9.615861945505737"><ele>296.8</ele><time>2026-04-25T09:35:37Z</time></trkpt><trkpt lat="45.74521018001061" lon="9.615768089209686"><ele>296.6</ele><time>2026-04-25T09:35:39Z</time></trkpt><trkpt lat="45.74526704650582" lon="9.615719523824358"><ele>296.40000000000003</ele><time>2026-04-25T09:35:40Z</time></trkpt><trkpt lat="45.74532279032062" lon="9.615677473684984"><ele>296.2</ele><time>2026-04-25T09:35:41Z</time></trkpt><trkpt lat="45.74543033252194" lon="9.615620601697602"><ele>296.0</ele><time>2026-04-25T09:35:43Z</time></trkpt><trkpt lat="45.745514603843155" lon="9.615603812357897"><ele>296.0</ele><time>2026-04-25T09:35:45Z</time></trkpt><trkpt lat="45.7455994137069" lon="9.615630556103598"><ele>296.0</ele><time>2026-04-25T09:35:47Z</time></trkpt><trkpt lat="45.74566674173939" lon="9.61559994074021"><ele>296.0</ele><time>2026-04-25T09:35:48Z</time></trkpt><trkpt lat="45.74572633492044" lon="9.61555042825757"><ele>296.0</ele><time>2026-04-25T09:35:49Z</time></trkpt><trkpt lat="45.74579303571571" lon="9.615413293743835"><ele>296.0</ele><time>2026-04-25T09:35:51Z</time></trkpt><trkpt lat="45.745809775181606" lon="9.615262301642103"><ele>296.0</ele><time>2026-04-25T09:35:53Z</time></trkpt><trkpt lat="45.74588564834263" lon="9.61515929461698"><ele>296.0</ele><time>2026-04-25T09:35:55Z</time></trkpt><trkpt lat="45.74594212033906" lon="9.615106655294651"><ele>296.0</ele><time>2026-04-25T09:35:56Z</time></trkpt><trkpt lat="45.745994126025344" lon="9.615046402189733"><ele>296.0</ele><time>2026-04-25T09:35:57Z</time></trkpt><trkpt lat="45.746038329012514" lon="9.614975923456065"><ele>296.0</ele><time>2026-04-25T09:35:58Z</time></trkpt><trkpt lat="45.746079334067616" lon="9.6149022039723"><ele>296.0</ele><time>2026-04-25T09:35:59Z</time></trkpt><trkpt lat="45.74612799777182" lon="9.614837209321681"><ele>296.0</ele><time>2026-04-25T09:36:00Z</time></trkpt><trkpt lat="45.74618366698865" lon="9.614784888010536"><ele>296.0</ele><time>2026-04-25T09:36:01Z</time></trkpt><trkpt lat="45.746244251936815" lon="9.614734295091962"><ele>296.0</ele><time>2026-04-25T09:36:02Z</time></trkpt><trkpt lat="45.74630235104521" lon="9.614682986457227"><ele>296.0</ele><time>2026-04-25T09:36:03Z</time></trkpt><trkpt lat="45.74635730313331" lon="9.614624518486416"><ele>296.0</ele><time>2026-04-25T09:36:04Z</time></trkpt><trkpt lat="45.746412027765096" lon="9.614566860476003"><ele>296.0</ele><time>2026-04-25T09:36:05Z</time></trkpt><trkpt lat="45.746468414359065" lon="9.614505880158326"><ele>296.0</ele><time>2026-04-25T09:36:06Z</time></trkpt><trkpt lat="45.74652033832723" lon="9.614444201676895"><ele>296.0</ele><time>2026-04-25T09:36:07Z</time></trkpt><trkpt lat="45.746570378917895" lon="9.614377297019182"><ele>295.5</ele><time>2026-04-25T09:36:08Z</time></trkpt><trkpt lat="45.74661924123163" lon="9.614311522694"><ele>295.0</ele><time>2026-04-25T09:36:09Z</time></trkpt><trkpt lat="45.74669889582059" lon="9.61421646440467"><ele>294.5</ele><time>2026-04-25T09:36:11Z</time></trkpt><trkpt lat="45.7467603585777" lon="9.614168170219921"><ele>294.0</ele><time>2026-04-25T09:36:13Z</time></trkpt><trkpt lat="45.74683574119282" lon="9.614150844008064"><ele>293.5</ele><time>2026-04-25T09:36:16Z</time></trkpt><trkpt lat="45.746901884398966" lon="9.614188885655764"><ele>293.0</ele><time>2026-04-25T09:36:18Z</time></trkpt><trkpt lat="45.7469749547655" lon="9.61417737680508"><ele>293.0</ele><time>2026-04-25T09:36:20Z</time></trkpt><trkpt lat="45.74702171553182" lon="9.614113921076536"><ele>293.0</ele><time>2026-04-25T09:36:22Z</time></trkpt><trkpt lat="45.7470887058686" lon="9.61401633391642"><ele>293.0</ele><time>2026-04-25T09:36:24Z</time></trkpt><trkpt lat="45.747187840967406" lon="9.613923302582519"><ele>293.0</ele><time>2026-04-25T09:36:26Z</time></trkpt><trkpt lat="45.74728463841309" lon="9.61387960150155"><ele>293.0</ele><time>2026-04-25T09:36:28Z</time></trkpt><trkpt lat="45.74736902015091" lon="9.61385183935756"><ele>293.0</ele><time>2026-04-25T09:36:30Z</time></trkpt><trkpt lat="45.747454233322244" lon="9.613797331686472"><ele>293.0</ele><time>2026-04-25T09:36:32Z</time></trkpt><trkpt lat="45.7475344810782" lon="9.613743916036006"><ele>293.0</ele><time>2026-04-25T09:36:34Z</time></trkpt><trkpt lat="45.74762854058747" lon="9.613692714479125"><ele>293.0</ele><time>2026-04-25T09:36:36Z</time></trkpt><trkpt lat="45.747692359132316" lon="9.613679994017444"><ele>293.0</ele><time>2026-04-25T09:36:37Z</time></trkpt><trkpt lat="45.74775715905986" lon="9.613654026925362"><ele>293.0</ele><time>2026-04-25T09:36:38Z</time></trkpt><trkpt lat="45.74782024895416" lon="9.613616182534946"><ele>292.85714285714283</ele><time>2026-04-25T09:36:39Z</time></trkpt><trkpt lat="45.74787911806299" lon="9.613571186509082"><ele>292.7142857142857</ele><time>2026-04-25T09:36:40Z</time></trkpt><trkpt lat="45.74793357062746" lon="9.613518073069265"><ele>292.57142857142856</ele><time>2026-04-25T09:36:41Z</time></trkpt><trkpt lat="45.74799222723409" lon="9.613471303326392"><ele>292.42857142857144</ele><time>2026-04-25T09:36:42Z</time></trkpt><trkpt lat="45.74805586083883" lon="9.61343878407716"><ele>292.2857142857143</ele><time>2026-04-25T09:36:43Z</time></trkpt><trkpt lat="45.74811788483763" lon="9.613410146469267"><ele>292.1428571428571</ele><time>2026-04-25T09:36:44Z</time></trkpt><trkpt lat="45.748182943631136" lon="9.613384504536656"><ele>292.0</ele><time>2026-04-25T09:36:45Z</time></trkpt><trkpt lat="45.748243317903444" lon="9.613349871041986"><ele>292.0</ele><time>2026-04-25T09:36:46Z</time></trkpt><trkpt lat="45.74830205868055" lon="9.613308387638774"><ele>292.0</ele><time>2026-04-25T09:36:47Z</time></trkpt><trkpt lat="45.74836200209659" lon="9.613271726863937"><ele>292.0</ele><time>2026-04-25T09:36:48Z</time></trkpt><trkpt lat="45.748421763408835" lon="9.613237404399147"><ele>292.0</ele><time>2026-04-25T09:36:49Z</time></trkpt><trkpt lat="45.7484827808712" lon="9.613206181608755"><ele>292.0</ele><time>2026-04-25T09:36:50Z</time></trkpt><trkpt lat="45.748541441535956" lon="9.6131661954342"><ele>292.0</ele><time>2026-04-25T09:36:51Z</time></trkpt><trkpt lat="45.74860043686536" lon="9.613132021417767"><ele>292.0</ele><time>2026-04-25T09:36:52Z</time></trkpt><trkpt lat="45.748660695405945" lon="9.613094363156547"><ele>292.2</ele><time>2026-04-25T09:36:53Z</time></trkpt><trkpt lat="45.74877604279263" lon="9.613025082509706"><ele>292.4</ele><time>2026-04-25T09:36:55Z</time></trkpt><trkpt lat="45.74883803608965" lon="9.612989857456977"><ele>292.6</ele><time>2026-04-25T09:36:56Z</time></trkpt><trkpt lat="45.7489535574099" lon="9.612914838664873"><ele>292.8</ele><time>2026-04-25T09:36:58Z</time></trkpt><trkpt lat="45.749070212043385" lon="9.61283983675839"><ele>293.0</ele><time>2026-04-25T09:37:00Z</time></trkpt><trkpt lat="45.74912868697147" lon="9.612805356455173"><ele>293.0</ele><time>2026-04-25T09:37:01Z</time></trkpt><trkpt lat="45.74924490576236" lon="9.612734098537945"><ele>293.0</ele><time>2026-04-25T09:37:03Z</time></trkpt><trkpt lat="45.74936056221283" lon="9.612658646601865"><ele>293.0</ele><time>2026-04-25T09:37:05Z</time></trkpt><trkpt lat="45.749422375081" lon="9.612625566975444"><ele>293.0</ele><time>2026-04-25T09:37:06Z</time></trkpt><trkpt lat="45.74948310756547" lon="9.612591627484488"><ele>293.0</ele><time>2026-04-25T09:37:07Z</time></trkpt><trkpt lat="45.74954242486872" lon="9.61255350883347"><ele>293.1428571428571</ele><time>2026-04-25T09:37:08Z</time></trkpt><trkpt lat="45.74960497059653" lon="9.612518335215109"><ele>293.2857142857143</ele><time>2026-04-25T09:37:09Z</time></trkpt><trkpt lat="45.749666791491315" lon="9.61248679940365"><ele>293.42857142857144</ele><time>2026-04-25T09:37:10Z</time></trkpt><trkpt lat="45.749727108117746" lon="9.61245128230811"><ele>293.57142857142856</ele><time>2026-04-25T09:37:11Z</time></trkpt><trkpt lat="45.74979080095307" lon="9.612421998194398"><ele>293.7142857142857</ele><time>2026-04-25T09:37:12Z</time></trkpt><trkpt lat="45.749853191940915" lon="9.61239599488067"><ele>293.85714285714283</ele><time>2026-04-25T09:37:13Z</time></trkpt><trkpt lat="45.74991744694005" lon="9.612369695762132"><ele>294.0</ele><time>2026-04-25T09:37:14Z</time></trkpt><trkpt lat="45.74997969882534" lon="9.612337220837443"><ele>294.0</ele><time>2026-04-25T09:37:15Z</time></trkpt><trkpt lat="45.750042874682066" lon="9.612305315085228"><ele>294.0</ele><time>2026-04-25T09:37:16Z</time></trkpt><trkpt lat="45.75010517976352" lon="9.612274803730772"><ele>294.0</ele><time>2026-04-25T09:37:17Z</time></trkpt><trkpt lat="45.750168073467506" lon="9.612246268241533"><ele>294.0</ele><time>2026-04-25T09:37:18Z</time></trkpt><trkpt lat="45.75023108458255" lon="9.612214620155772"><ele>294.0</ele><time>2026-04-25T09:37:19Z</time></trkpt><trkpt lat="45.75029356048536" lon="9.612183801148177"><ele>294.0</ele><time>2026-04-25T09:37:20Z</time></trkpt><trkpt lat="45.750358071481706" lon="9.612154998674985"><ele>294.0</ele><time>2026-04-25T09:37:21Z</time></trkpt><trkpt lat="45.7504205291063" lon="9.612130754238834"><ele>293.7142857142857</ele><time>2026-04-25T09:37:22Z</time></trkpt><trkpt lat="45.75048453122354" lon="9.612104973967321"><ele>293.42857142857144</ele><time>2026-04-25T09:37:23Z</time></trkpt><trkpt lat="45.75054899551279" lon="9.612074612591329"><ele>293.1428571428571</ele><time>2026-04-25T09:37:24Z</time></trkpt><trkpt lat="45.7506107466468" lon="9.61204587847451"><ele>292.8571428571429</ele><time>2026-04-25T09:37:25Z</time></trkpt><trkpt lat="45.750674342092104" lon="9.612017103219891"><ele>292.57142857142856</ele><time>2026-04-25T09:37:26Z</time></trkpt><trkpt lat="45.75073919918271" lon="9.611990274040874"><ele>292.2857142857143</ele><time>2026-04-25T09:37:27Z</time></trkpt><trkpt lat="45.750803306056596" lon="9.611953082265247"><ele>292.0</ele><time>2026-04-25T09:37:28Z</time></trkpt><trkpt lat="45.75092013983972" lon="9.61192650662431"><ele>291.66666666666663</ele><time>2026-04-25T09:37:30Z</time></trkpt><trkpt lat="45.75098455823567" lon="9.611877502291406"><ele>291.3333333333333</ele><time>2026-04-25T09:37:31Z</time></trkpt><trkpt lat="45.75110560389677" lon="9.611831051244199"><ele>291.0</ele><time>2026-04-25T09:37:33Z</time></trkpt><trkpt lat="45.751168976633444" lon="9.611798428502269"><ele>290.6666666666667</ele><time>2026-04-25T09:37:34Z</time></trkpt><trkpt lat="45.7512309555219" lon="9.611777391055297"><ele>290.33333333333337</ele><time>2026-04-25T09:37:35Z</time></trkpt><trkpt lat="45.75129201131139" lon="9.611748766414774"><ele>290.0</ele><time>2026-04-25T09:37:36Z</time></trkpt><trkpt lat="45.751410856445" lon="9.61169512973173"><ele>290.0</ele><time>2026-04-25T09:37:38Z</time></trkpt><trkpt lat="45.751525539008085" lon="9.611646939962336"><ele>290.0</ele><time>2026-04-25T09:37:40Z</time></trkpt><trkpt lat="45.75163650212335" lon="9.611595513165065"><ele>290.0</ele><time>2026-04-25T09:37:42Z</time></trkpt><trkpt lat="45.75173220134495" lon="9.611573003757629"><ele>290.0</ele><time>2026-04-25T09:37:44Z</time></trkpt><trkpt lat="45.751816745130135" lon="9.611605554014313"><ele>290.0</ele><time>2026-04-25T09:37:46Z</time></trkpt><trkpt lat="45.75192653836872" lon="9.611443700089394"><ele>290.83333333333337</ele><time>2026-04-25T09:38:57Z</time></trkpt><trkpt lat="45.75202391781496" lon="9.611406166077394"><ele>291.6666666666667</ele><time>2026-04-25T09:38:59Z</time></trkpt><trkpt lat="45.752127929745384" lon="9.611359936580524"><ele>292.5</ele><time>2026-04-25T09:39:01Z</time></trkpt><trkpt lat="45.752190989722195" lon="9.611331431247809"><ele>293.3333333333333</ele><time>2026-04-25T09:39:02Z</time></trkpt><trkpt lat="45.75225555213774" lon="9.61130345513643"><ele>294.16666666666663</ele><time>2026-04-25T09:39:03Z</time></trkpt><trkpt lat="45.75232050999927" lon="9.611268952238072"><ele>295.0</ele><time>2026-04-25T09:39:04Z</time></trkpt><trkpt lat="45.75244196101361" lon="9.61122608069526"><ele>295.0</ele><time>2026-04-25T09:39:06Z</time></trkpt><trkpt lat="45.75250754691954" lon="9.611197471875956"><ele>295.0</ele><time>2026-04-25T09:39:07Z</time></trkpt><trkpt lat="45.75257290683663" lon="9.611165038608755"><ele>295.0</ele><time>2026-04-25T09:39:08Z</time></trkpt><trkpt lat="45.75269600435479" lon="9.611115189733026"><ele>295.0</ele><time>2026-04-25T09:39:10Z</time></trkpt><trkpt lat="45.75275758174059" lon="9.611093345760892"><ele>295.0</ele><time>2026-04-25T09:39:11Z</time></trkpt><trkpt lat="45.752821753259504" lon="9.611065859221277"><ele>295.0</ele><time>2026-04-25T09:39:12Z</time></trkpt><trkpt lat="45.75288518562743" lon="9.611043069813965"><ele>294.28571428571433</ele><time>2026-04-25T09:39:13Z</time></trkpt><trkpt lat="45.75295212524678" lon="9.61102137523648"><ele>293.57142857142856</ele><time>2026-04-25T09:39:14Z</time></trkpt><trkpt lat="45.75301851590031" lon="9.611003051645852"><ele>292.8571428571429</ele><time>2026-04-25T09:39:15Z</time></trkpt><trkpt lat="45.753085105853565" lon="9.610986351210009"><ele>292.14285714285717</ele><time>2026-04-25T09:39:16Z</time></trkpt><trkpt lat="45.75315166109263" lon="9.610972209724725"><ele>291.42857142857144</ele><time>2026-04-25T09:39:17Z</time></trkpt><trkpt lat="45.75321787268877" lon="9.610963467252937"><ele>290.7142857142857</ele><time>2026-04-25T09:39:18Z</time></trkpt><trkpt lat="45.75328501478615" lon="9.61095576497068"><ele>290.0</ele><time>2026-04-25T09:39:19Z</time></trkpt><trkpt lat="45.75334986541726" lon="9.610949122829975"><ele>290.0</ele><time>2026-04-25T09:39:20Z</time></trkpt><trkpt lat="45.753418900796305" lon="9.61096103981359"><ele>290.0</ele><time>2026-04-25T09:39:21Z</time></trkpt><trkpt lat="45.75348260680644" lon="9.610967128383383"><ele>290.0</ele><time>2026-04-25T09:39:22Z</time></trkpt><trkpt lat="45.75354778922523" lon="9.610958992080821"><ele>290.0</ele><time>2026-04-25T09:39:23Z</time></trkpt><trkpt lat="45.753618533810496" lon="9.610972223174098"><ele>290.0</ele><time>2026-04-25T09:39:24Z</time></trkpt><trkpt lat="45.75368674038093" lon="9.610990556806392"><ele>290.0</ele><time>2026-04-25T09:39:25Z</time></trkpt><trkpt lat="45.753752995971695" lon="9.611004523007601"><ele>290.0</ele><time>2026-04-25T09:39:26Z</time></trkpt><trkpt lat="45.753821219101276" lon="9.611019262399608"><ele>289.57142857142856</ele><time>2026-04-25T09:39:27Z</time></trkpt><trkpt lat="45.75388858938848" lon="9.611040914120082"><ele>289.14285714285717</ele><time>2026-04-25T09:39:28Z</time></trkpt><trkpt lat="45.75395711422027" lon="9.611054954467036"><ele>288.7142857142857</ele><time>2026-04-25T09:39:29Z</time></trkpt><trkpt lat="45.75402721942695" lon="9.611067168764311"><ele>288.2857142857143</ele><time>2026-04-25T09:39:30Z</time></trkpt><trkpt lat="45.75409424989934" lon="9.611084776626987"><ele>287.8571428571429</ele><time>2026-04-25T09:39:31Z</time></trkpt><trkpt lat="45.75416533766931" lon="9.611094379103317"><ele>287.42857142857144</ele><time>2026-04-25T09:39:32Z</time></trkpt><trkpt lat="45.75423305195027" lon="9.611099196136026"><ele>287.0</ele><time>2026-04-25T09:39:33Z</time></trkpt><trkpt lat="45.75430515579632" lon="9.611085966750792"><ele>286.5</ele><time>2026-04-25T09:39:34Z</time></trkpt><trkpt lat="45.75437229330688" lon="9.611071044709323"><ele>286.0</ele><time>2026-04-25T09:39:35Z</time></trkpt><trkpt lat="45.754442405262594" lon="9.611036195164274"><ele>285.5</ele><time>2026-04-25T09:39:36Z</time></trkpt><trkpt lat="45.754514728252104" lon="9.611036883086204"><ele>285.0</ele><time>2026-04-25T09:39:37Z</time></trkpt><trkpt lat="45.754648233703364" lon="9.611000779576726"><ele>284.5</ele><time>2026-04-25T09:39:39Z</time></trkpt><trkpt lat="45.75471771699083" lon="9.61098682119866"><ele>284.0</ele><time>2026-04-25T09:39:40Z</time></trkpt><trkpt lat="45.754787064500775" lon="9.610968480008792"><ele>284.0</ele><time>2026-04-25T09:39:41Z</time></trkpt><trkpt lat="45.7548571020135" lon="9.610954732189416"><ele>284.0</ele><time>2026-04-25T09:39:42Z</time></trkpt><trkpt lat="45.75493069234921" lon="9.610935862809376"><ele>284.0</ele><time>2026-04-25T09:39:43Z</time></trkpt><trkpt lat="45.75499993021802" lon="9.610916896955004"><ele>284.0</ele><time>2026-04-25T09:39:44Z</time></trkpt><trkpt lat="45.75506932975151" lon="9.610903730950705"><ele>284.0</ele><time>2026-04-25T09:39:45Z</time></trkpt><trkpt lat="45.755142556073935" lon="9.610886984396888"><ele>284.0</ele><time>2026-04-25T09:39:46Z</time></trkpt><trkpt lat="45.755213882298364" lon="9.610874929713079"><ele>284.0</ele><time>2026-04-25T09:39:47Z</time></trkpt><trkpt lat="45.755285876932106" lon="9.610856953017523"><ele>284.7142857142857</ele><time>2026-04-25T09:39:48Z</time></trkpt><trkpt lat="45.75535657462138" lon="9.610838072422455"><ele>285.4285714285714</ele><time>2026-04-25T09:39:49Z</time></trkpt><trkpt lat="45.75542927610774" lon="9.610821202397833"><ele>286.1428571428571</ele><time>2026-04-25T09:39:50Z</time></trkpt><trkpt lat="45.75550013730055" lon="9.61080133995804"><ele>286.85714285714283</ele><time>2026-04-25T09:39:51Z</time></trkpt><trkpt lat="45.755569507804815" lon="9.61077800832868"><ele>287.57142857142856</ele><time>2026-04-25T09:39:52Z</time></trkpt><trkpt lat="45.75564140259124" lon="9.610757113467223"><ele>288.2857142857143</ele><time>2026-04-25T09:39:53Z</time></trkpt><trkpt lat="45.755712427582324" lon="9.610731563119622"><ele>289.0</ele><time>2026-04-25T09:39:54Z</time></trkpt><trkpt lat="45.75578187453975" lon="9.610702908836046"><ele>289.0</ele><time>2026-04-25T09:39:55Z</time></trkpt><trkpt lat="45.7558516434704" lon="9.610670356648082"><ele>289.0</ele><time>2026-04-25T09:39:56Z</time></trkpt><trkpt lat="45.755919979249825" lon="9.610632398879737"><ele>289.0</ele><time>2026-04-25T09:39:57Z</time></trkpt><trkpt lat="45.75598861033868" lon="9.610590705196095"><ele>289.0</ele><time>2026-04-25T09:39:58Z</time></trkpt><trkpt lat="45.756056274474716" lon="9.610549141542249"><ele>289.0</ele><time>2026-04-25T09:39:59Z</time></trkpt><trkpt lat="45.756126340404975" lon="9.610507272376626"><ele>289.0</ele><time>2026-04-25T09:40:00Z</time></trkpt><trkpt lat="45.75619130546617" lon="9.61045533435142"><ele>289.0</ele><time>2026-04-25T09:40:01Z</time></trkpt><trkpt lat="45.756258915015316" lon="9.610406415955776"><ele>289.42857142857144</ele><time>2026-04-25T09:40:02Z</time></trkpt><trkpt lat="45.756322509452914" lon="9.610353758824752"><ele>289.85714285714283</ele><time>2026-04-25T09:40:03Z</time></trkpt><trkpt lat="45.756388684120225" lon="9.61030121802856"><ele>290.2857142857143</ele><time>2026-04-25T09:40:04Z</time></trkpt><trkpt lat="45.75645079003477" lon="9.610243826990775"><ele>290.7142857142857</ele><time>2026-04-25T09:40:05Z</time></trkpt><trkpt lat="45.756515505081204" lon="9.610187696629517"><ele>291.14285714285717</ele><time>2026-04-25T09:40:06Z</time></trkpt><trkpt lat="45.75657644676488" lon="9.610123848354906"><ele>291.57142857142856</ele><time>2026-04-25T09:40:07Z</time></trkpt><trkpt lat="45.75664110576162" lon="9.610070461741255"><ele>292.0</ele><time>2026-04-25T09:40:08Z</time></trkpt><trkpt lat="45.756703147267025" lon="9.610010350576875"><ele>292.0</ele><time>2026-04-25T09:40:09Z</time></trkpt><trkpt lat="45.7567684740696" lon="9.609950190784648"><ele>292.0</ele><time>2026-04-25T09:40:10Z</time></trkpt><trkpt lat="45.756831694196784" lon="9.609892218887248"><ele>292.0</ele><time>2026-04-25T09:40:11Z</time></trkpt><trkpt lat="45.75689838752291" lon="9.609833113038556"><ele>292.0</ele><time>2026-04-25T09:40:12Z</time></trkpt><trkpt lat="45.75695810495428" lon="9.609780904083406"><ele>292.0</ele><time>2026-04-25T09:40:13Z</time></trkpt><trkpt lat="45.75702889160787" lon="9.609725123810703"><ele>292.0</ele><time>2026-04-25T09:40:14Z</time></trkpt><trkpt lat="45.75709558473822" lon="9.6096706243276"><ele>289.57142857142856</ele><time>2026-04-25T09:40:15Z</time></trkpt><trkpt lat="45.757166339182255" lon="9.609628715057967"><ele>287.14285714285717</ele><time>2026-04-25T09:40:16Z</time></trkpt><trkpt lat="45.75723350912698" lon="9.60958297271918"><ele>284.7142857142857</ele><time>2026-04-25T09:40:17Z</time></trkpt><trkpt lat="45.757301032329146" lon="9.609532143492846"><ele>282.2857142857143</ele><time>2026-04-25T09:40:18Z</time></trkpt><trkpt lat="45.757369498003044" lon="9.609498120581259"><ele>279.85714285714283</ele><time>2026-04-25T09:40:19Z</time></trkpt><trkpt lat="45.75743466988117" lon="9.609471090779392"><ele>277.42857142857144</ele><time>2026-04-25T09:40:20Z</time></trkpt><trkpt lat="45.75750174342661" lon="9.609445652245906"><ele>275.0</ele><time>2026-04-25T09:40:21Z</time></trkpt><trkpt lat="45.75756403692101" lon="9.609419943681463"><ele>275.0</ele><time>2026-04-25T09:40:22Z</time></trkpt><trkpt lat="45.75762711072452" lon="9.609398732784678"><ele>275.0</ele><time>2026-04-25T09:40:23Z</time></trkpt><trkpt lat="45.757689152944785" lon="9.609382707282615"><ele>275.0</ele><time>2026-04-25T09:40:24Z</time></trkpt><trkpt lat="45.75781235726851" lon="9.609358507279392"><ele>275.0</ele><time>2026-04-25T09:40:26Z</time></trkpt><trkpt lat="45.75787367152885" lon="9.609333857608407"><ele>275.0</ele><time>2026-04-25T09:40:27Z</time></trkpt><trkpt lat="45.75793863959182" lon="9.609319605202378"><ele>275.0</ele><time>2026-04-25T09:40:28Z</time></trkpt><trkpt lat="45.75806137909107" lon="9.609274568399398"><ele>278.0</ele><time>2026-04-25T09:40:30Z</time></trkpt><trkpt lat="45.75818200322099" lon="9.609251735948522"><ele>281.0</ele><time>2026-04-25T09:40:32Z</time></trkpt><trkpt lat="45.75830625986116" lon="9.609224050851585"><ele>284.0</ele><time>2026-04-25T09:40:34Z</time></trkpt><trkpt lat="45.75842796376425" lon="9.609189395008633"><ele>287.0</ele><time>2026-04-25T09:40:36Z</time></trkpt><trkpt lat="45.75854958489423" lon="9.609157207303118"><ele>291.4</ele><time>2026-04-25T09:40:38Z</time></trkpt><trkpt lat="45.75867015456696" lon="9.609114854500364"><ele>295.79999999999995</ele><time>2026-04-25T09:40:40Z</time></trkpt><trkpt lat="45.75879207267571" lon="9.609072248587914"><ele>300.2</ele><time>2026-04-25T09:40:42Z</time></trkpt><trkpt lat="45.75890905095532" lon="9.609015772397813"><ele>304.59999999999997</ele><time>2026-04-25T09:40:44Z</time></trkpt><trkpt lat="45.75897136408042" lon="9.608982180348772"><ele>309.0</ele><time>2026-04-25T09:40:45Z</time></trkpt><trkpt lat="45.75908729142288" lon="9.608911083440907"><ele>309.0</ele><time>2026-04-25T09:40:47Z</time></trkpt><trkpt lat="45.759197272701805" lon="9.60882582154804"><ele>309.0</ele><time>2026-04-25T09:40:49Z</time></trkpt><trkpt lat="45.75925387825666" lon="9.608784977626279"><ele>309.0</ele><time>2026-04-25T09:40:50Z</time></trkpt><trkpt lat="45.75930738681983" lon="9.608734132406955"><ele>309.0</ele><time>2026-04-25T09:40:51Z</time></trkpt><trkpt lat="45.7594169485627" lon="9.608647126790144"><ele>309.0</ele><time>2026-04-25T09:40:53Z</time></trkpt><trkpt lat="45.759467197915896" lon="9.608592514055912"><ele>309.0</ele><time>2026-04-25T09:40:54Z</time></trkpt><trkpt lat="45.759518616194235" lon="9.608540356436453"><ele>310.6666666666667</ele><time>2026-04-25T09:40:55Z</time></trkpt><trkpt lat="45.75956978034789" lon="9.608483828476594"><ele>312.3333333333333</ele><time>2026-04-25T09:40:56Z</time></trkpt><trkpt lat="45.75961918784967" lon="9.608423986409596"><ele>314.0</ele><time>2026-04-25T09:40:57Z</time></trkpt><trkpt lat="45.759709324376686" lon="9.608300129067718"><ele>315.66666666666663</ele><time>2026-04-25T09:40:59Z</time></trkpt><trkpt lat="45.75975614807608" lon="9.608234157402647"><ele>317.3333333333333</ele><time>2026-04-25T09:41:00Z</time></trkpt><trkpt lat="45.759843987314504" lon="9.608100932384"><ele>319.0</ele><time>2026-04-25T09:41:02Z</time></trkpt><trkpt lat="45.759880593717256" lon="9.608022463028407"><ele>319.0</ele><time>2026-04-25T09:41:03Z</time></trkpt><trkpt lat="45.75995642993744" lon="9.60787892234244"><ele>319.0</ele><time>2026-04-25T09:41:05Z</time></trkpt><trkpt lat="45.76003039204434" lon="9.60773347334582"><ele>319.0</ele><time>2026-04-25T09:41:07Z</time></trkpt><trkpt lat="45.760066400429075" lon="9.607651382766026"><ele>319.0</ele><time>2026-04-25T09:41:08Z</time></trkpt><trkpt lat="45.76009712143545" lon="9.6075719394949"><ele>319.0</ele><time>2026-04-25T09:41:09Z</time></trkpt><trkpt lat="45.760135001628825" lon="9.607498678962406"><ele>319.0</ele><time>2026-04-25T09:41:10Z</time></trkpt><trkpt lat="45.76016845416896" lon="9.607420868888997"><ele>319.14285714285717</ele><time>2026-04-25T09:41:11Z</time></trkpt><trkpt lat="45.76020433463382" lon="9.607343796920183"><ele>319.2857142857143</ele><time>2026-04-25T09:41:12Z</time></trkpt><trkpt lat="45.76023835647691" lon="9.607264472936391"><ele>319.42857142857144</ele><time>2026-04-25T09:41:13Z</time></trkpt><trkpt lat="45.76028033386681" lon="9.607191973233684"><ele>319.57142857142856</ele><time>2026-04-25T09:41:14Z</time></trkpt><trkpt lat="45.76031454190862" lon="9.607114188084507"><ele>319.7142857142857</ele><time>2026-04-25T09:41:15Z</time></trkpt><trkpt lat="45.76038649907221" lon="9.606964607667825"><ele>319.85714285714283</ele><time>2026-04-25T09:41:17Z</time></trkpt><trkpt lat="45.760420122317576" lon="9.606888087086617"><ele>320.0</ele><time>2026-04-25T09:41:18Z</time></trkpt><trkpt lat="45.7604547355302" lon="9.606811432056968"><ele>320.0</ele><time>2026-04-25T09:41:19Z</time></trkpt><trkpt lat="45.76052525138555" lon="9.606659086253698"><ele>320.0</ele><time>2026-04-25T09:41:21Z</time></trkpt><trkpt lat="45.760595489004494" lon="9.606507875194335"><ele>320.0</ele><time>2026-04-25T09:41:23Z</time></trkpt><trkpt lat="45.760667434452046" lon="9.606359808838295"><ele>320.0</ele><time>2026-04-25T09:41:25Z</time></trkpt><trkpt lat="45.760741540788075" lon="9.606216591619496"><ele>319.0</ele><time>2026-04-25T09:41:27Z</time></trkpt><trkpt lat="45.76082695823446" lon="9.606084540929237"><ele>318.0</ele><time>2026-04-25T09:41:29Z</time></trkpt><trkpt lat="45.760918974968824" lon="9.605970270601732"><ele>317.0</ele><time>2026-04-25T09:41:31Z</time></trkpt><trkpt lat="45.76097264097594" lon="9.60592012832433"><ele>316.0</ele><time>2026-04-25T09:41:32Z</time></trkpt><trkpt lat="45.76108249416685" lon="9.605847825762527"><ele>315.0</ele><time>2026-04-25T09:41:34Z</time></trkpt><trkpt lat="45.761140614502125" lon="9.605809874873879"><ele>315.0</ele><time>2026-04-25T09:41:35Z</time></trkpt><trkpt lat="45.76125500098851" lon="9.605754242652015"><ele>315.0</ele><time>2026-04-25T09:41:37Z</time></trkpt><trkpt lat="45.76131438286673" lon="9.605712393905929"><ele>315.0</ele><time>2026-04-25T09:41:38Z</time></trkpt><trkpt lat="45.76143296891076" lon="9.60565041275578"><ele>315.0</ele><time>2026-04-25T09:41:40Z</time></trkpt><trkpt lat="45.76155012027881" lon="9.605592144296299"><ele>315.0</ele><time>2026-04-25T09:41:42Z</time></trkpt><trkpt lat="45.761612679478404" lon="9.605565556677153"><ele>315.0</ele><time>2026-04-25T09:41:43Z</time></trkpt><trkpt lat="45.761736873561816" lon="9.605542352647399"><ele>315.0</ele><time>2026-04-25T09:41:45Z</time></trkpt><trkpt lat="45.76186095953963" lon="9.605564475153557"><ele>315.0</ele><time>2026-04-25T09:41:47Z</time></trkpt><trkpt lat="45.76197474435823" lon="9.605620154058684"><ele>315.0</ele><time>2026-04-25T09:41:49Z</time></trkpt><trkpt lat="45.76202967270536" lon="9.605666171491931"><ele>315.0</ele><time>2026-04-25T09:41:50Z</time></trkpt><trkpt lat="45.76208202290749" lon="9.605719544106757"><ele>310.5</ele><time>2026-04-25T09:41:51Z</time></trkpt><trkpt lat="45.76217304561927" lon="9.605831345028118"><ele>306.0</ele><time>2026-04-25T09:41:53Z</time></trkpt><trkpt lat="45.76226884566346" lon="9.605946485564498"><ele>301.5</ele><time>2026-04-25T09:41:55Z</time></trkpt><trkpt lat="45.76236824826266" lon="9.606057159828584"><ele>297.0</ele><time>2026-04-25T09:41:57Z</time></trkpt><trkpt lat="45.762461632151" lon="9.60616950396675"><ele>294.4</ele><time>2026-04-25T09:41:59Z</time></trkpt><trkpt lat="45.76254624105854" lon="9.60629563611942"><ele>291.79999999999995</ele><time>2026-04-25T09:42:01Z</time></trkpt><trkpt lat="45.76258756497832" lon="9.606364105840973"><ele>289.2</ele><time>2026-04-25T09:42:02Z</time></trkpt><trkpt lat="45.76265861230233" lon="9.60650624824949"><ele>286.59999999999997</ele><time>2026-04-25T09:42:04Z</time></trkpt><trkpt lat="45.762730072736424" lon="9.606649493357358"><ele>284.0</ele><time>2026-04-25T09:42:06Z</time></trkpt><trkpt lat="45.76279791313657" lon="9.606797134627751"><ele>284.0</ele><time>2026-04-25T09:42:08Z</time></trkpt><trkpt lat="45.762834001105304" lon="9.606872442630475"><ele>284.0</ele><time>2026-04-25T09:42:09Z</time></trkpt><trkpt lat="45.762903373421246" lon="9.60701839343358"><ele>284.0</ele><time>2026-04-25T09:42:11Z</time></trkpt><trkpt lat="45.76294416229231" lon="9.607091646478858"><ele>284.0</ele><time>2026-04-25T09:42:12Z</time></trkpt><trkpt lat="45.76300736979301" lon="9.60724047796605"><ele>284.0</ele><time>2026-04-25T09:42:14Z</time></trkpt><trkpt lat="45.76307081145242" lon="9.607391081516756"><ele>289.5</ele><time>2026-04-25T09:42:16Z</time></trkpt><trkpt lat="45.76314236822967" lon="9.607537725261368"><ele>295.0</ele><time>2026-04-25T09:42:18Z</time></trkpt><trkpt lat="45.76320855520172" lon="9.607680276917687"><ele>300.5</ele><time>2026-04-25T09:42:20Z</time></trkpt><trkpt lat="45.7632864947363" lon="9.607823166548696"><ele>306.0</ele><time>2026-04-25T09:42:22Z</time></trkpt><trkpt lat="45.763364072738376" lon="9.607956054751954"><ele>305.6</ele><time>2026-04-25T09:42:24Z</time></trkpt><trkpt lat="45.763419071401266" lon="9.608022877500707"><ele>305.20000000000005</ele><time>2026-04-25T09:42:25Z</time></trkpt><trkpt lat="45.763502097517275" lon="9.60815468034021"><ele>304.79999999999995</ele><time>2026-04-25T09:42:27Z</time></trkpt><trkpt lat="45.76358862377631" lon="9.60827673291582"><ele>304.4</ele><time>2026-04-25T09:42:29Z</time></trkpt><trkpt lat="45.76366440510173" lon="9.608416375792784"><ele>304.0</ele><time>2026-04-25T09:42:31Z</time></trkpt><trkpt lat="45.763713435978836" lon="9.608477756238539"><ele>304.0</ele><time>2026-04-25T09:42:32Z</time></trkpt><trkpt lat="45.763794226014056" lon="9.608596475505221"><ele>304.0</ele><time>2026-04-25T09:42:34Z</time></trkpt><trkpt lat="45.76384357365255" lon="9.608676003141559"><ele>304.0</ele><time>2026-04-25T09:42:35Z</time></trkpt><trkpt lat="45.76392517279086" lon="9.608801113190095"><ele>304.0</ele><time>2026-04-25T09:42:37Z</time></trkpt><trkpt lat="45.763970670829075" lon="9.608870448636225"><ele>304.0</ele><time>2026-04-25T09:42:38Z</time></trkpt><trkpt lat="45.764010758849025" lon="9.608940928631352"><ele>304.0</ele><time>2026-04-25T09:42:39Z</time></trkpt><trkpt lat="45.76409202967427" lon="9.60907294831769"><ele>304.66666666666663</ele><time>2026-04-25T09:42:41Z</time></trkpt><trkpt lat="45.76414164297162" lon="9.609139788589516"><ele>305.3333333333333</ele><time>2026-04-25T09:42:42Z</time></trkpt><trkpt lat="45.76422045335745" lon="9.609276572587158"><ele>306.0</ele><time>2026-04-25T09:42:44Z</time></trkpt><trkpt lat="45.76426796005979" lon="9.609342476199943"><ele>306.6666666666667</ele><time>2026-04-25T09:42:45Z</time></trkpt><trkpt lat="45.76435376635375" lon="9.609471192742138"><ele>307.33333333333337</ele><time>2026-04-25T09:42:47Z</time></trkpt><trkpt lat="45.76439746224488" lon="9.609540564367334"><ele>308.0</ele><time>2026-04-25T09:42:48Z</time></trkpt><trkpt lat="45.76448170847381" lon="9.609671245902444"><ele>308.0</ele><time>2026-04-25T09:42:50Z</time></trkpt><trkpt lat="45.764565933917865" lon="9.609801509101645"><ele>308.0</ele><time>2026-04-25T09:42:52Z</time></trkpt><trkpt lat="45.7646506875691" lon="9.60993200402171"><ele>308.0</ele><time>2026-04-25T09:42:54Z</time></trkpt><trkpt lat="45.76473288425925" lon="9.610064959029904"><ele>308.0</ele><time>2026-04-25T09:42:56Z</time></trkpt><trkpt lat="45.76477872732252" lon="9.610129193273886"><ele>308.0</ele><time>2026-04-25T09:42:57Z</time></trkpt><trkpt lat="45.76486128384212" lon="9.61026153993721"><ele>307.5</ele><time>2026-04-25T09:42:59Z</time></trkpt><trkpt lat="45.764946882959" lon="9.610394086340014"><ele>307.0</ele><time>2026-04-25T09:43:01Z</time></trkpt><trkpt lat="45.76503332622996" lon="9.610520558828481"><ele>306.5</ele><time>2026-04-25T09:43:03Z</time></trkpt><trkpt lat="45.76511713222876" lon="9.61064886006944"><ele>306.0</ele><time>2026-04-25T09:43:05Z</time></trkpt><trkpt lat="45.765199775508854" lon="9.610779790923864"><ele>306.0</ele><time>2026-04-25T09:43:07Z</time></trkpt><trkpt lat="45.765276590883055" lon="9.610911064052322"><ele>306.0</ele><time>2026-04-25T09:43:09Z</time></trkpt><trkpt lat="45.7653202154694" lon="9.610977187580993"><ele>306.0</ele><time>2026-04-25T09:43:10Z</time></trkpt><trkpt lat="45.7654030123213" lon="9.611102151363399"><ele>306.0</ele><time>2026-04-25T09:43:12Z</time></trkpt><trkpt lat="45.765452545178064" lon="9.611158408786679"><ele>306.0</ele><time>2026-04-25T09:43:13Z</time></trkpt><trkpt lat="45.76550649346061" lon="9.611210799297291"><ele>306.0</ele><time>2026-04-25T09:43:14Z</time></trkpt><trkpt lat="45.76559956225426" lon="9.611304793037004"><ele>304.40000000000003</ele><time>2026-04-25T09:43:16Z</time></trkpt><trkpt lat="45.76566772397266" lon="9.611341657625907"><ele>302.8</ele><time>2026-04-25T09:43:17Z</time></trkpt><trkpt lat="45.76578742814828" lon="9.611391062113027"><ele>301.20000000000005</ele><time>2026-04-25T09:43:19Z</time></trkpt><trkpt lat="45.76591188261134" lon="9.611412256805853"><ele>299.6</ele><time>2026-04-25T09:43:21Z</time></trkpt><trkpt lat="45.76597551982872" lon="9.611409499733604"><ele>298.0</ele><time>2026-04-25T09:43:22Z</time></trkpt><trkpt lat="45.766041112586365" lon="9.611405010002821"><ele>298.0</ele><time>2026-04-25T09:43:23Z</time></trkpt><trkpt lat="45.766105411105585" lon="9.611401350124831"><ele>298.0</ele><time>2026-04-25T09:43:24Z</time></trkpt><trkpt lat="45.76617198679886" lon="9.611385054877541"><ele>298.0</ele><time>2026-04-25T09:43:25Z</time></trkpt><trkpt lat="45.76623550171802" lon="9.611371943788093"><ele>298.0</ele><time>2026-04-25T09:43:26Z</time></trkpt><trkpt lat="45.766300345189805" lon="9.611357633963443"><ele>298.0</ele><time>2026-04-25T09:43:27Z</time></trkpt><trkpt lat="45.766363070877" lon="9.611345489525252"><ele>298.0</ele><time>2026-04-25T09:43:28Z</time></trkpt><trkpt lat="45.7664913921662" lon="9.611320083637805"><ele>298.0</ele><time>2026-04-25T09:43:30Z</time></trkpt><trkpt lat="45.76655719575473" lon="9.611317185899964"><ele>298.0</ele><time>2026-04-25T09:43:31Z</time></trkpt><trkpt lat="45.76661645616625" lon="9.611284173220847"><ele>298.0</ele><time>2026-04-25T09:43:32Z</time></trkpt><trkpt lat="45.7666850444296" lon="9.61127562733876"><ele>298.0</ele><time>2026-04-25T09:43:33Z</time></trkpt><trkpt lat="45.7668076086141" lon="9.611249752259363"><ele>298.0</ele><time>2026-04-25T09:43:35Z</time></trkpt><trkpt lat="45.76693199984366" lon="9.611224344842386"><ele>298.0</ele><time>2026-04-25T09:43:37Z</time></trkpt><trkpt lat="45.76706049139526" lon="9.61119737831315"><ele>298.1428571428571</ele><time>2026-04-25T09:43:39Z</time></trkpt><trkpt lat="45.76718479623405" lon="9.6111732896172"><ele>298.2857142857143</ele><time>2026-04-25T09:43:41Z</time></trkpt><trkpt lat="45.76724935601537" lon="9.611161263147606"><ele>298.42857142857144</ele><time>2026-04-25T09:43:42Z</time></trkpt><trkpt lat="45.76731257826068" lon="9.611145949554782"><ele>298.57142857142856</ele><time>2026-04-25T09:43:43Z</time></trkpt><trkpt lat="45.767376153182965" lon="9.611133625381102"><ele>298.7142857142857</ele><time>2026-04-25T09:43:44Z</time></trkpt><trkpt lat="45.76744066088957" lon="9.61111933706338"><ele>298.85714285714283</ele><time>2026-04-25T09:43:45Z</time></trkpt><trkpt lat="45.76750402902882" lon="9.611104964847831"><ele>299.0</ele><time>2026-04-25T09:43:46Z</time></trkpt><trkpt lat="45.76756856837861" lon="9.61109506686476"><ele>299.0</ele><time>2026-04-25T09:43:47Z</time></trkpt><trkpt lat="45.76763280500924" lon="9.611087114058591"><ele>299.0</ele><time>2026-04-25T09:43:48Z</time></trkpt><trkpt lat="45.7676965217695" lon="9.611072814557655"><ele>299.0</ele><time>2026-04-25T09:43:49Z</time></trkpt><trkpt lat="45.76776362615163" lon="9.611076123650975"><ele>299.0</ele><time>2026-04-25T09:43:50Z</time></trkpt><trkpt lat="45.76788291600367" lon="9.611028033023638"><ele>299.0</ele><time>2026-04-25T09:43:52Z</time></trkpt><trkpt lat="45.76794931181019" lon="9.61103465752328"><ele>299.0</ele><time>2026-04-25T09:43:53Z</time></trkpt><trkpt lat="45.76802118805208" lon="9.611043240138574"><ele>303.0</ele><time>2026-04-25T09:43:54Z</time></trkpt><trkpt lat="45.76807454672544" lon="9.610987595501525"><ele>307.0</ele><time>2026-04-25T09:43:55Z</time></trkpt><trkpt lat="45.7681391094546" lon="9.610985148126336"><ele>311.0</ele><time>2026-04-25T09:43:56Z</time></trkpt><trkpt lat="45.76826189963592" lon="9.610954151239142"><ele>315.0</ele><time>2026-04-25T09:43:58Z</time></trkpt><trkpt lat="45.76838900376835" lon="9.61093261326282"><ele>319.0</ele><time>2026-04-25T09:44:00Z</time></trkpt><trkpt lat="45.76851467047749" lon="9.610929532390388"><ele>319.25</ele><time>2026-04-25T09:44:02Z</time></trkpt><trkpt lat="45.76864064580366" lon="9.610928940201413"><ele>319.5</ele><time>2026-04-25T09:44:04Z</time></trkpt><trkpt lat="45.76877270450363" lon="9.610926353374056"><ele>319.75</ele><time>2026-04-25T09:44:06Z</time></trkpt><trkpt lat="45.76889851910815" lon="9.610951078351565"><ele>320.0</ele><time>2026-04-25T09:44:08Z</time></trkpt><trkpt lat="45.76902233769778" lon="9.610952238327188"><ele>320.0</ele><time>2026-04-25T09:44:10Z</time></trkpt><trkpt lat="45.76908739829038" lon="9.610952680804955"><ele>320.0</ele><time>2026-04-25T09:44:11Z</time></trkpt><trkpt lat="45.769213850936985" lon="9.61096261529097"><ele>320.0</ele><time>2026-04-25T09:44:13Z</time></trkpt><trkpt lat="45.76934083344305" lon="9.61097017702194"><ele>320.0</ele><time>2026-04-25T09:44:15Z</time></trkpt><trkpt lat="45.76946744900431" lon="9.610979841532853"><ele>320.0</ele><time>2026-04-25T09:44:17Z</time></trkpt><trkpt lat="45.76959087027053" lon="9.611003789760638"><ele>318.8</ele><time>2026-04-25T09:44:19Z</time></trkpt><trkpt lat="45.76965249367632" lon="9.611023046623984"><ele>317.6</ele><time>2026-04-25T09:44:20Z</time></trkpt><trkpt lat="45.769770597340944" lon="9.611077116613021"><ele>316.4</ele><time>2026-04-25T09:44:22Z</time></trkpt><trkpt lat="45.76986976153114" lon="9.61117741117749"><ele>315.2</ele><time>2026-04-25T09:44:24Z</time></trkpt><trkpt lat="45.76992141291506" lon="9.611231324692291"><ele>314.0</ele><time>2026-04-25T09:44:25Z</time></trkpt><trkpt lat="45.77001179302266" lon="9.611345194967317"><ele>312.0</ele><time>2026-04-25T09:44:27Z</time></trkpt><trkpt lat="45.77005851771598" lon="9.611406348839521"><ele>310.0</ele><time>2026-04-25T09:44:28Z</time></trkpt><trkpt lat="45.77011649303889" lon="9.611516146117468"><ele>308.0</ele><time>2026-04-25T09:44:30Z</time></trkpt><trkpt lat="45.7701829781638" lon="9.611635349886328"><ele>306.0</ele><time>2026-04-25T09:44:32Z</time></trkpt><trkpt lat="45.77022455814601" lon="9.611708356181014"><ele>304.0</ele><time>2026-04-25T09:44:33Z</time></trkpt><trkpt lat="45.77027548193399" lon="9.61178646250431"><ele>302.0</ele><time>2026-04-25T09:44:34Z</time></trkpt><trkpt lat="45.77032138419412" lon="9.611866960014165"><ele>302.0</ele><time>2026-04-25T09:44:35Z</time></trkpt><trkpt lat="45.77035208802005" lon="9.611978293337623"><ele>302.0</ele><time>2026-04-25T09:44:36Z</time></trkpt><trkpt lat="45.77037968468083" lon="9.61207908088856"><ele>302.0</ele><time>2026-04-25T09:44:37Z</time></trkpt><trkpt lat="45.770393522408334" lon="9.612170185966278"><ele>302.0</ele><time>2026-04-25T09:44:38Z</time></trkpt><trkpt lat="45.77042280342813" lon="9.612277098340545"><ele>302.0</ele><time>2026-04-25T09:44:39Z</time></trkpt><trkpt lat="45.770483751661125" lon="9.612435119913085"><ele>302.0</ele><time>2026-04-25T09:44:41Z</time></trkpt><trkpt lat="45.770513118302716" lon="9.612516141167914"><ele>302.4</ele><time>2026-04-25T09:44:42Z</time></trkpt><trkpt lat="45.77057266226745" lon="9.612669921460121"><ele>302.79999999999995</ele><time>2026-04-25T09:44:44Z</time></trkpt><trkpt lat="45.77060561646429" lon="9.612746847584411"><ele>303.2</ele><time>2026-04-25T09:44:45Z</time></trkpt><trkpt lat="45.77066754785696" lon="9.61290050226926"><ele>303.59999999999997</ele><time>2026-04-25T09:44:47Z</time></trkpt><trkpt lat="45.77070038346916" lon="9.612988183332062"><ele>304.0</ele><time>2026-04-25T09:44:48Z</time></trkpt><trkpt lat="45.77076304762465" lon="9.613142895364327"><ele>307.25</ele><time>2026-04-25T09:44:50Z</time></trkpt><trkpt lat="45.770827231519505" lon="9.613296250452152"><ele>310.5</ele><time>2026-04-25T09:44:52Z</time></trkpt><trkpt lat="45.77089589351051" lon="9.613443860328857"><ele>313.75</ele><time>2026-04-25T09:44:54Z</time></trkpt><trkpt lat="45.77097605338565" lon="9.613581492729567"><ele>317.0</ele><time>2026-04-25T09:44:56Z</time></trkpt><trkpt lat="45.77107769604468" lon="9.613687646641663"><ele>320.5</ele><time>2026-04-25T09:44:58Z</time></trkpt><trkpt lat="45.77113108739632" lon="9.613739672151198"><ele>324.0</ele><time>2026-04-25T09:44:59Z</time></trkpt><trkpt lat="45.77125684037894" lon="9.613829715005565"><ele>327.5</ele><time>2026-04-25T09:45:01Z</time></trkpt><trkpt lat="45.771362574596786" lon="9.613891257546083"><ele>331.0</ele><time>2026-04-25T09:45:03Z</time></trkpt><trkpt lat="45.7714243638825" lon="9.613923666733399"><ele>334.5</ele><time>2026-04-25T09:45:04Z</time></trkpt><trkpt lat="45.771483909722534" lon="9.61395817257729"><ele>338.0</ele><time>2026-04-25T09:45:05Z</time></trkpt><trkpt lat="45.77160023710465" lon="9.614030812854812"><ele>338.0</ele><time>2026-04-25T09:45:07Z</time></trkpt><trkpt lat="45.771657145582395" lon="9.614070707236692"><ele>338.0</ele><time>2026-04-25T09:45:08Z</time></trkpt><trkpt lat="45.77177309687912" lon="9.614137193744487"><ele>338.0</ele><time>2026-04-25T09:45:10Z</time></trkpt><trkpt lat="45.77183121994217" lon="9.614172488530897"><ele>338.0</ele><time>2026-04-25T09:45:11Z</time></trkpt><trkpt lat="45.77193989988992" lon="9.614227980582452"><ele>338.0</ele><time>2026-04-25T09:45:13Z</time></trkpt><trkpt lat="45.77199702207809" lon="9.614274657254862"><ele>338.0</ele><time>2026-04-25T09:45:14Z</time></trkpt><trkpt lat="45.77205581584487" lon="9.614311858806627"><ele>333.2</ele><time>2026-04-25T09:45:15Z</time></trkpt><trkpt lat="45.772171219803525" lon="9.614396746209124"><ele>328.4</ele><time>2026-04-25T09:45:17Z</time></trkpt><trkpt lat="45.7722802511445" lon="9.614480028149043"><ele>323.59999999999997</ele><time>2026-04-25T09:45:19Z</time></trkpt><trkpt lat="45.77233957380395" lon="9.614529893883931"><ele>318.79999999999995</ele><time>2026-04-25T09:45:20Z</time></trkpt><trkpt lat="45.77244818499281" lon="9.614612565625231"><ele>314.0</ele><time>2026-04-25T09:45:22Z</time></trkpt><trkpt lat="45.772557167266164" lon="9.614699787372615"><ele>318.83333333333337</ele><time>2026-04-25T09:45:24Z</time></trkpt><trkpt lat="45.77261847267027" lon="9.614738454578529"><ele>323.6666666666667</ele><time>2026-04-25T09:45:25Z</time></trkpt><trkpt lat="45.77267312006225" lon="9.614796685318016"><ele>328.5</ele><time>2026-04-25T09:45:26Z</time></trkpt><trkpt lat="45.77278205674192" lon="9.61486891494662"><ele>333.3333333333333</ele><time>2026-04-25T09:45:28Z</time></trkpt><trkpt lat="45.772838346337664" lon="9.61491423291952"><ele>338.16666666666663</ele><time>2026-04-25T09:45:29Z</time></trkpt><trkpt lat="45.772954459550434" lon="9.614997330079506"><ele>343.0</ele><time>2026-04-25T09:45:31Z</time></trkpt><trkpt lat="45.77301244155528" lon="9.61503352891051"><ele>343.0</ele><time>2026-04-25T09:45:32Z</time></trkpt><trkpt lat="45.773136750868936" lon="9.615051047816852"><ele>343.0</ele><time>2026-04-25T09:45:34Z</time></trkpt><trkpt lat="45.773201588586176" lon="9.615068647729128"><ele>343.0</ele><time>2026-04-25T09:45:35Z</time></trkpt><trkpt lat="45.77327069756992" lon="9.615067258082975"><ele>343.0</ele><time>2026-04-25T09:45:36Z</time></trkpt><trkpt lat="45.773337993572795" lon="9.615066445125336"><ele>343.0</ele><time>2026-04-25T09:45:37Z</time></trkpt><trkpt lat="45.773401561333834" lon="9.61505558607917"><ele>343.0</ele><time>2026-04-25T09:45:38Z</time></trkpt><trkpt lat="45.7734674911796" lon="9.615051267104212"><ele>342.7142857142857</ele><time>2026-04-25T09:45:39Z</time></trkpt><trkpt lat="45.7735337212872" lon="9.615041420887534"><ele>342.42857142857144</ele><time>2026-04-25T09:45:40Z</time></trkpt><trkpt lat="45.77360074589302" lon="9.615037469254911"><ele>342.1428571428571</ele><time>2026-04-25T09:45:41Z</time></trkpt><trkpt lat="45.77366634329985" lon="9.615028574107546"><ele>341.8571428571429</ele><time>2026-04-25T09:45:42Z</time></trkpt><trkpt lat="45.77372947381264" lon="9.615004323620054"><ele>341.57142857142856</ele><time>2026-04-25T09:45:43Z</time></trkpt><trkpt lat="45.77379425407297" lon="9.615005777374233"><ele>341.2857142857143</ele><time>2026-04-25T09:45:44Z</time></trkpt><trkpt lat="45.773862274795555" lon="9.615005600533387"><ele>341.0</ele><time>2026-04-25T09:45:45Z</time></trkpt><trkpt lat="45.773925328566634" lon="9.614994328071091"><ele>341.0</ele><time>2026-04-25T09:45:46Z</time></trkpt><trkpt lat="45.773987338088624" lon="9.615011613570022"><ele>341.0</ele><time>2026-04-25T09:45:47Z</time></trkpt><trkpt lat="45.77405237802729" lon="9.614991059762405"><ele>341.0</ele><time>2026-04-25T09:45:48Z</time></trkpt><trkpt lat="45.77411583348303" lon="9.61498007588935"><ele>341.0</ele><time>2026-04-25T09:45:49Z</time></trkpt><trkpt lat="45.77423616061194" lon="9.614947689096516"><ele>341.0</ele><time>2026-04-25T09:45:51Z</time></trkpt><trkpt lat="45.774301824823205" lon="9.614925513069966"><ele>341.0</ele><time>2026-04-25T09:45:52Z</time></trkpt><trkpt lat="45.7743648967518" lon="9.614901053678924"><ele>341.0</ele><time>2026-04-25T09:45:53Z</time></trkpt><trkpt lat="45.77442493942306" lon="9.614872445155546"><ele>344.0</ele><time>2026-04-25T09:45:54Z</time></trkpt><trkpt lat="45.77448811614725" lon="9.614845606186782"><ele>347.0</ele><time>2026-04-25T09:45:55Z</time></trkpt><trkpt lat="45.774550524188186" lon="9.614822592725314"><ele>350.0</ele><time>2026-04-25T09:45:56Z</time></trkpt><trkpt lat="45.77461285595742" lon="9.614798125267072"><ele>353.0</ele><time>2026-04-25T09:45:57Z</time></trkpt><trkpt lat="45.77467225833439" lon="9.614762553623962"><ele>356.0</ele><time>2026-04-25T09:45:58Z</time></trkpt><trkpt lat="45.77473329463306" lon="9.614726021434938"><ele>359.0</ele><time>2026-04-25T09:45:59Z</time></trkpt><trkpt lat="45.77479047563395" lon="9.614686040492144"><ele>362.0</ele><time>2026-04-25T09:46:00Z</time></trkpt><trkpt lat="45.77484621950301" lon="9.614630722002355"><ele>362.0</ele><time>2026-04-25T09:46:01Z</time></trkpt><trkpt lat="45.77490061403756" lon="9.614579439430091"><ele>362.0</ele><time>2026-04-25T09:46:02Z</time></trkpt><trkpt lat="45.77495190733111" lon="9.614520008043066"><ele>362.0</ele><time>2026-04-25T09:46:03Z</time></trkpt><trkpt lat="45.7750015293286" lon="9.614460299913594"><ele>362.0</ele><time>2026-04-25T09:46:04Z</time></trkpt><trkpt lat="45.77504775500715" lon="9.614393379388646"><ele>362.0</ele><time>2026-04-25T09:46:05Z</time></trkpt><trkpt lat="45.77514180594438" lon="9.614274725415601"><ele>362.0</ele><time>2026-04-25T09:46:07Z</time></trkpt><trkpt lat="45.77518268999433" lon="9.614204047041092"><ele>360.7142857142857</ele><time>2026-04-25T09:46:08Z</time></trkpt><trkpt lat="45.775236830654705" lon="9.61414938926082"><ele>359.42857142857144</ele><time>2026-04-25T09:46:09Z</time></trkpt><trkpt lat="45.77528064124474" lon="9.614084288910737"><ele>358.1428571428571</ele><time>2026-04-25T09:46:10Z</time></trkpt><trkpt lat="45.77533144809088" lon="9.61401557705705"><ele>356.8571428571429</ele><time>2026-04-25T09:46:11Z</time></trkpt><trkpt lat="45.77537931213349" lon="9.613955416111958"><ele>355.5714285714286</ele><time>2026-04-25T09:46:12Z</time></trkpt><trkpt lat="45.77542546571798" lon="9.613889493164317"><ele>354.2857142857143</ele><time>2026-04-25T09:46:13Z</time></trkpt><trkpt lat="45.775475655614194" lon="9.613822238939102"><ele>353.0</ele><time>2026-04-25T09:46:14Z</time></trkpt><trkpt lat="45.77552323783075" lon="9.613758273270044"><ele>353.0</ele><time>2026-04-25T09:46:15Z</time></trkpt><trkpt lat="45.77557337180107" lon="9.613699855539165"><ele>353.0</ele><time>2026-04-25T09:46:16Z</time></trkpt><trkpt lat="45.77562194926393" lon="9.613637349785462"><ele>353.0</ele><time>2026-04-25T09:46:17Z</time></trkpt><trkpt lat="45.77567600668052" lon="9.613580703790756"><ele>353.0</ele><time>2026-04-25T09:46:18Z</time></trkpt><trkpt lat="45.77573118779605" lon="9.613521273604501"><ele>353.0</ele><time>2026-04-25T09:46:19Z</time></trkpt><trkpt lat="45.775790425280164" lon="9.613478957563304"><ele>353.0</ele><time>2026-04-25T09:46:20Z</time></trkpt><trkpt lat="45.77584385158144" lon="9.613429212655365"><ele>353.0</ele><time>2026-04-25T09:46:21Z</time></trkpt><trkpt lat="45.77590522419317" lon="9.613393930901708"><ele>350.5</ele><time>2026-04-25T09:46:22Z</time></trkpt><trkpt lat="45.775964510714076" lon="9.61333017137568"><ele>348.0</ele><time>2026-04-25T09:46:23Z</time></trkpt><trkpt lat="45.77608603830781" lon="9.613278139333687"><ele>345.5</ele><time>2026-04-25T09:46:25Z</time></trkpt><trkpt lat="45.77615326816825" lon="9.613267422276408"><ele>343.0</ele><time>2026-04-25T09:46:26Z</time></trkpt><trkpt lat="45.77621420642047" lon="9.613232013296054"><ele>340.5</ele><time>2026-04-25T09:46:27Z</time></trkpt><trkpt lat="45.776278340882676" lon="9.613210545188926"><ele>338.0</ele><time>2026-04-25T09:46:28Z</time></trkpt><trkpt lat="45.77640561453498" lon="9.613164564692305"><ele>338.0</ele><time>2026-04-25T09:46:30Z</time></trkpt><trkpt lat="45.77652948944389" lon="9.61311205305154"><ele>338.0</ele><time>2026-04-25T09:46:32Z</time></trkpt><trkpt lat="45.77659286188416" lon="9.613091582670382"><ele>338.0</ele><time>2026-04-25T09:46:33Z</time></trkpt><trkpt lat="45.77665737512635" lon="9.613075446448217"><ele>338.0</ele><time>2026-04-25T09:46:34Z</time></trkpt><trkpt lat="45.7767196247045" lon="9.613052981164468"><ele>338.0</ele><time>2026-04-25T09:46:35Z</time></trkpt><trkpt lat="45.77678564657654" lon="9.613060555724998"><ele>338.0</ele><time>2026-04-25T09:46:36Z</time></trkpt><trkpt lat="45.776856280696634" lon="9.613075410857533"><ele>337.83333333333337</ele><time>2026-04-25T09:46:37Z</time></trkpt><trkpt lat="45.7769199865991" lon="9.613060095054946"><ele>337.6666666666667</ele><time>2026-04-25T09:46:38Z</time></trkpt><trkpt lat="45.77699110944293" lon="9.613079008105268"><ele>337.5</ele><time>2026-04-25T09:46:39Z</time></trkpt><trkpt lat="45.777114938479" lon="9.613116398597638"><ele>337.3333333333333</ele><time>2026-04-25T09:46:41Z</time></trkpt><trkpt lat="45.777177837265356" lon="9.613187961146938"><ele>337.16666666666663</ele><time>2026-04-25T09:46:42Z</time></trkpt><trkpt lat="45.77724932938052" lon="9.613210533063356"><ele>337.0</ele><time>2026-04-25T09:46:43Z</time></trkpt><trkpt lat="45.77732983190564" lon="9.613250388171029"><ele>337.0</ele><time>2026-04-25T09:46:45Z</time></trkpt><trkpt lat="45.77742112020806" lon="9.613277012096624"><ele>337.0</ele><time>2026-04-25T09:46:46Z</time></trkpt><trkpt lat="45.77751410013833" lon="9.613348994238233"><ele>337.0</ele><time>2026-04-25T09:46:47Z</time></trkpt><trkpt lat="45.77759989044966" lon="9.613377755182116"><ele>337.0</ele><time>2026-04-25T09:46:48Z</time></trkpt><trkpt lat="45.77771546664886" lon="9.613441749253639"><ele>337.0</ele><time>2026-04-25T09:46:51Z</time></trkpt><trkpt lat="45.77777560984684" lon="9.613478030870645"><ele>335.8333333333333</ele><time>2026-04-25T09:46:52Z</time></trkpt><trkpt lat="45.77788719012624" lon="9.613536762688819"><ele>334.66666666666663</ele><time>2026-04-25T09:46:54Z</time></trkpt><trkpt lat="45.77795858411101" lon="9.613566459008062"><ele>333.5</ele><time>2026-04-25T09:46:55Z</time></trkpt><trkpt lat="45.77806978867128" lon="9.613633408919368"><ele>332.3333333333333</ele><time>2026-04-25T09:46:57Z</time></trkpt><trkpt lat="45.778129790133534" lon="9.61366722679618"><ele>331.1666666666667</ele><time>2026-04-25T09:46:58Z</time></trkpt><trkpt lat="45.77818857547086" lon="9.613701533823999"><ele>330.0</ele><time>2026-04-25T09:46:59Z</time></trkpt><trkpt lat="45.77824993034371" lon="9.613730920730703"><ele>330.4</ele><time>2026-04-25T09:47:00Z</time></trkpt><trkpt lat="45.77830952731582" lon="9.613760011086443"><ele>330.8</ele><time>2026-04-25T09:47:01Z</time></trkpt><trkpt lat="45.778428947586704" lon="9.613824360133036"><ele>331.20000000000005</ele><time>2026-04-25T09:47:03Z</time></trkpt><trkpt lat="45.778544910376795" lon="9.613883442458715"><ele>331.6</ele><time>2026-04-25T09:47:05Z</time></trkpt><trkpt lat="45.778611189299156" lon="9.613912781169544"><ele>332.0</ele><time>2026-04-25T09:47:06Z</time></trkpt><trkpt lat="45.778672705795444" lon="9.613949790934432"><ele>332.0</ele><time>2026-04-25T09:47:07Z</time></trkpt><trkpt lat="45.77878775026153" lon="9.614009953230532"><ele>332.0</ele><time>2026-04-25T09:47:09Z</time></trkpt><trkpt lat="45.77885029705855" lon="9.614046835681425"><ele>332.0</ele><time>2026-04-25T09:47:10Z</time></trkpt><trkpt lat="45.778972318713976" lon="9.614110130494929"><ele>332.0</ele><time>2026-04-25T09:47:12Z</time></trkpt><trkpt lat="45.77903671084185" lon="9.61414195326013"><ele>332.0</ele><time>2026-04-25T09:47:13Z</time></trkpt><trkpt lat="45.779097243445854" lon="9.614175105016857"><ele>332.0</ele><time>2026-04-25T09:47:14Z</time></trkpt><trkpt lat="45.779159213210455" lon="9.614209904731"><ele>332.0</ele><time>2026-04-25T09:47:15Z</time></trkpt><trkpt lat="45.77922236018418" lon="9.614243520997768"><ele>332.0</ele><time>2026-04-25T09:47:16Z</time></trkpt><trkpt lat="45.779334882380546" lon="9.614322395547356"><ele>332.0</ele><time>2026-04-25T09:47:18Z</time></trkpt><trkpt lat="45.77943860922844" lon="9.61443721798473"><ele>332.0</ele><time>2026-04-25T09:47:20Z</time></trkpt><trkpt lat="45.77948195696272" lon="9.61450469500574"><ele>326.6</ele><time>2026-04-25T09:47:21Z</time></trkpt><trkpt lat="45.77952366690845" lon="9.614575419295885"><ele>321.20000000000005</ele><time>2026-04-25T09:47:22Z</time></trkpt><trkpt lat="45.77955578464802" lon="9.614656906450971"><ele>315.8</ele><time>2026-04-25T09:47:23Z</time></trkpt><trkpt lat="45.77963303119235" lon="9.61481779326713"><ele>310.4</ele><time>2026-04-25T09:47:25Z</time></trkpt><trkpt lat="45.77966237068717" lon="9.614997680328527"><ele>305.0</ele><time>2026-04-25T09:47:27Z</time></trkpt><trkpt lat="45.779664178193265" lon="9.615091006735712"><ele>305.0</ele><time>2026-04-25T09:47:28Z</time></trkpt><trkpt lat="45.77966762605011" lon="9.615187177259903"><ele>305.0</ele><time>2026-04-25T09:47:29Z</time></trkpt><trkpt lat="45.77966735890721" lon="9.61528131007704"><ele>305.0</ele><time>2026-04-25T09:47:30Z</time></trkpt><trkpt lat="45.77967419511848" lon="9.615373658231368"><ele>305.0</ele><time>2026-04-25T09:47:31Z</time></trkpt><trkpt lat="45.77968509607804" lon="9.615470268131348"><ele>305.0</ele><time>2026-04-25T09:47:32Z</time></trkpt><trkpt lat="45.77969731228042" lon="9.615652049686162"><ele>305.0</ele><time>2026-04-25T09:47:34Z</time></trkpt><trkpt lat="45.77970623579248" lon="9.615841264878558"><ele>307.2</ele><time>2026-04-25T09:47:36Z</time></trkpt><trkpt lat="45.779719294935425" lon="9.616028214200659"><ele>309.4</ele><time>2026-04-25T09:47:38Z</time></trkpt><trkpt lat="45.779724654439825" lon="9.616118493912863"><ele>311.6</ele><time>2026-04-25T09:47:39Z</time></trkpt><trkpt lat="45.77972358350577" lon="9.616218038440088"><ele>313.8</ele><time>2026-04-25T09:47:40Z</time></trkpt><trkpt lat="45.779744114531795" lon="9.616407761659936"><ele>316.0</ele><time>2026-04-25T09:47:42Z</time></trkpt><trkpt lat="45.77974157712161" lon="9.616586453680448"><ele>316.16666666666663</ele><time>2026-04-25T09:47:44Z</time></trkpt><trkpt lat="45.77975795764149" lon="9.616679115533527"><ele>316.3333333333333</ele><time>2026-04-25T09:47:45Z</time></trkpt><trkpt lat="45.77975735650628" lon="9.616770824404805"><ele>316.5</ele><time>2026-04-25T09:47:46Z</time></trkpt><trkpt lat="45.779758120287774" lon="9.616953615667992"><ele>316.6666666666667</ele><time>2026-04-25T09:47:48Z</time></trkpt><trkpt lat="45.779789535493556" lon="9.617043623898544"><ele>316.83333333333337</ele><time>2026-04-25T09:47:49Z</time></trkpt><trkpt lat="45.77979358832737" lon="9.617139194691596"><ele>317.0</ele><time>2026-04-25T09:47:50Z</time></trkpt><trkpt lat="45.77980105373842" lon="9.617230125980202"><ele>317.5</ele><time>2026-04-25T09:47:51Z</time></trkpt><trkpt lat="45.779807769165934" lon="9.617328059387294"><ele>318.0</ele><time>2026-04-25T09:47:52Z</time></trkpt><trkpt lat="45.779838017335095" lon="9.617513851408578"><ele>318.5</ele><time>2026-04-25T09:47:54Z</time></trkpt><trkpt lat="45.77984690751333" lon="9.617611926521867"><ele>319.0</ele><time>2026-04-25T09:47:55Z</time></trkpt><trkpt lat="45.77985203452421" lon="9.61770836724815"><ele>319.5</ele><time>2026-04-25T09:47:56Z</time></trkpt><trkpt lat="45.779851913726475" lon="9.61781172493313"><ele>320.0</ele><time>2026-04-25T09:47:57Z</time></trkpt><trkpt lat="45.77984942047755" lon="9.617908297190043"><ele>320.2</ele><time>2026-04-25T09:47:58Z</time></trkpt><trkpt lat="45.779845136808575" lon="9.618010101169672"><ele>320.4</ele><time>2026-04-25T09:47:59Z</time></trkpt><trkpt lat="45.779827925913125" lon="9.618196013539961"><ele>320.6</ele><time>2026-04-25T09:48:01Z</time></trkpt><trkpt lat="45.779830492114655" lon="9.618286610199284"><ele>320.8</ele><time>2026-04-25T09:48:02Z</time></trkpt><trkpt lat="45.77982564814918" lon="9.618378718674943"><ele>321.0</ele><time>2026-04-25T09:48:03Z</time></trkpt><trkpt lat="45.779821569205176" lon="9.618556974857132"><ele>321.3333333333333</ele><time>2026-04-25T09:48:05Z</time></trkpt><trkpt lat="45.779817649521" lon="9.618651409237028"><ele>321.6666666666667</ele><time>2026-04-25T09:48:06Z</time></trkpt><trkpt lat="45.779839654151395" lon="9.618833256329227"><ele>322.0</ele><time>2026-04-25T09:48:08Z</time></trkpt><trkpt lat="45.77986930666382" lon="9.618916636133797"><ele>322.33333333333337</ele><time>2026-04-25T09:48:09Z</time></trkpt><trkpt lat="45.7799113463377" lon="9.618990735600656"><ele>322.6666666666667</ele><time>2026-04-25T09:48:10Z</time></trkpt><trkpt lat="45.77995380999761" lon="9.619148160137511"><ele>323.0</ele><time>2026-04-25T09:48:12Z</time></trkpt><trkpt lat="45.77998845648688" lon="9.61923363327727"><ele>323.00000000000006</ele><time>2026-04-25T09:48:13Z</time></trkpt><trkpt lat="45.78004452907384" lon="9.619387845125313"><ele>323.0</ele><time>2026-04-25T09:48:15Z</time></trkpt><trkpt lat="45.78007873950849" lon="9.619464628799"><ele>323.0</ele><time>2026-04-25T09:48:16Z</time></trkpt><trkpt lat="45.78011454936045" lon="9.619541592472626"><ele>323.0</ele><time>2026-04-25T09:48:17Z</time></trkpt><trkpt lat="45.780151051472835" lon="9.619618258470943"><ele>323.0</ele><time>2026-04-25T09:48:18Z</time></trkpt><trkpt lat="45.78018325960603" lon="9.619696388039019"><ele>323.00000000000006</ele><time>2026-04-25T09:48:19Z</time></trkpt><trkpt lat="45.78021990157667" lon="9.619775416693429"><ele>323.0</ele><time>2026-04-25T09:48:20Z</time></trkpt><trkpt lat="45.78028797454842" lon="9.619930421969048"><ele>323.2</ele><time>2026-04-25T09:48:22Z</time></trkpt><trkpt lat="45.780319959004586" lon="9.620010990568145"><ele>323.4</ele><time>2026-04-25T09:48:23Z</time></trkpt><trkpt lat="45.78035318308085" lon="9.620090260775287"><ele>323.59999999999997</ele><time>2026-04-25T09:48:24Z</time></trkpt><trkpt lat="45.78041645197478" lon="9.62024995071359"><ele>323.79999999999995</ele><time>2026-04-25T09:48:26Z</time></trkpt><trkpt lat="45.78045510165995" lon="9.620325331866441"><ele>324.0</ele><time>2026-04-25T09:48:27Z</time></trkpt><trkpt lat="45.78052513391093" lon="9.620478561688836"><ele>324.0</ele><time>2026-04-25T09:48:29Z</time></trkpt><trkpt lat="45.78058827905034" lon="9.620628557468546"><ele>324.0</ele><time>2026-04-25T09:48:31Z</time></trkpt><trkpt lat="45.78062515328289" lon="9.620715179741616"><ele>324.0</ele><time>2026-04-25T09:48:32Z</time></trkpt><trkpt lat="45.780696056266265" lon="9.620866085915528"><ele>324.0</ele><time>2026-04-25T09:48:34Z</time></trkpt><trkpt lat="45.780725445607516" lon="9.620946666568157"><ele>324.0</ele><time>2026-04-25T09:48:35Z</time></trkpt><trkpt lat="45.7807610390719" lon="9.621023309388098"><ele>324.0</ele><time>2026-04-25T09:48:36Z</time></trkpt><trkpt lat="45.78082745023377" lon="9.621181614356136"><ele>325.0</ele><time>2026-04-25T09:48:38Z</time></trkpt><trkpt lat="45.7808584392435" lon="9.621261382191078"><ele>326.0</ele><time>2026-04-25T09:48:39Z</time></trkpt><trkpt lat="45.780929085173355" lon="9.62141197661559"><ele>327.0</ele><time>2026-04-25T09:48:41Z</time></trkpt><trkpt lat="45.78096784653043" lon="9.621512922158571"><ele>328.0</ele><time>2026-04-25T09:48:42Z</time></trkpt><trkpt lat="45.78102534030308" lon="9.621659479084279"><ele>329.0</ele><time>2026-04-25T09:48:44Z</time></trkpt><trkpt lat="45.7810616922514" lon="9.62173454888373"><ele>327.7142857142857</ele><time>2026-04-25T09:48:45Z</time></trkpt><trkpt lat="45.781094979100445" lon="9.621828182526166"><ele>326.42857142857144</ele><time>2026-04-25T09:48:46Z</time></trkpt><trkpt lat="45.78113629044394" lon="9.621907252661929"><ele>325.1428571428571</ele><time>2026-04-25T09:48:47Z</time></trkpt><trkpt lat="45.781169769992616" lon="9.621988198849028"><ele>323.8571428571429</ele><time>2026-04-25T09:48:48Z</time></trkpt><trkpt lat="45.78120264919568" lon="9.622070551210106"><ele>322.57142857142856</ele><time>2026-04-25T09:48:49Z</time></trkpt><trkpt lat="45.78123553481459" lon="9.622152211306485"><ele>321.2857142857143</ele><time>2026-04-25T09:48:50Z</time></trkpt><trkpt lat="45.78127586769945" lon="9.622228644947235"><ele>320.0</ele><time>2026-04-25T09:48:51Z</time></trkpt><trkpt lat="45.78130737023879" lon="9.622314959449046"><ele>320.0</ele><time>2026-04-25T09:48:52Z</time></trkpt><trkpt lat="45.78137107470697" lon="9.622468634595032"><ele>320.0</ele><time>2026-04-25T09:48:54Z</time></trkpt><trkpt lat="45.78141044676131" lon="9.622558339598912"><ele>320.0</ele><time>2026-04-25T09:48:55Z</time></trkpt><trkpt lat="45.78144336881532" lon="9.622638013303087"><ele>320.0</ele><time>2026-04-25T09:48:56Z</time></trkpt><trkpt lat="45.78150595958372" lon="9.622797818468094"><ele>320.0</ele><time>2026-04-25T09:48:58Z</time></trkpt><trkpt lat="45.78154112003636" lon="9.622880345920652"><ele>320.6</ele><time>2026-04-25T09:48:59Z</time></trkpt><trkpt lat="45.7816129805614" lon="9.623026237931635"><ele>321.2</ele><time>2026-04-25T09:49:01Z</time></trkpt><trkpt lat="45.7816395143172" lon="9.62311219456699"><ele>321.79999999999995</ele><time>2026-04-25T09:49:02Z</time></trkpt><trkpt lat="45.78167898187332" lon="9.623196415705499"><ele>322.4</ele><time>2026-04-25T09:49:03Z</time></trkpt><trkpt lat="45.78174857146504" lon="9.623345182560978"><ele>323.0</ele><time>2026-04-25T09:49:05Z</time></trkpt><trkpt lat="45.78178511207065" lon="9.623420836435201"><ele>323.0</ele><time>2026-04-25T09:49:06Z</time></trkpt><trkpt lat="45.78182284584097" lon="9.623501397300549"><ele>323.0</ele><time>2026-04-25T09:49:07Z</time></trkpt><trkpt lat="45.78185824558768" lon="9.623579943817633"><ele>323.0</ele><time>2026-04-25T09:49:08Z</time></trkpt><trkpt lat="45.781900495665276" lon="9.623653721837774"><ele>323.0</ele><time>2026-04-25T09:49:09Z</time></trkpt><trkpt lat="45.781942894107026" lon="9.62373002981148"><ele>323.0</ele><time>2026-04-25T09:49:10Z</time></trkpt><trkpt lat="45.781985172596265" lon="9.623803921177506"><ele>323.0</ele><time>2026-04-25T09:49:11Z</time></trkpt><trkpt lat="45.782054981579805" lon="9.623955233969333"><ele>322.8571428571429</ele><time>2026-04-25T09:49:13Z</time></trkpt><trkpt lat="45.78208887290712" lon="9.624037413758288"><ele>322.7142857142857</ele><time>2026-04-25T09:49:14Z</time></trkpt><trkpt lat="45.78211783333527" lon="9.624120653941473"><ele>322.57142857142856</ele><time>2026-04-25T09:49:15Z</time></trkpt><trkpt lat="45.782145129214186" lon="9.624206318468648"><ele>322.42857142857144</ele><time>2026-04-25T09:49:16Z</time></trkpt><trkpt lat="45.78217677724118" lon="9.624288820380123"><ele>322.2857142857143</ele><time>2026-04-25T09:49:17Z</time></trkpt><trkpt lat="45.78220265047139" lon="9.62437340323567"><ele>322.14285714285717</ele><time>2026-04-25T09:49:18Z</time></trkpt><trkpt lat="45.782228927686496" lon="9.62445887351995"><ele>322.0</ele><time>2026-04-25T09:49:19Z</time></trkpt><trkpt lat="45.78225176795322" lon="9.624545041974477"><ele>322.0</ele><time>2026-04-25T09:49:20Z</time></trkpt><trkpt lat="45.78228076951553" lon="9.624627582444054"><ele>322.0</ele><time>2026-04-25T09:49:21Z</time></trkpt><trkpt lat="45.782321120026" lon="9.624708632446707"><ele>322.0</ele><time>2026-04-25T09:49:22Z</time></trkpt><trkpt lat="45.782365644746385" lon="9.624784437920718"><ele>322.0</ele><time>2026-04-25T09:49:23Z</time></trkpt><trkpt lat="45.78246205810391" lon="9.624911452056164"><ele>322.0</ele><time>2026-04-25T09:49:25Z</time></trkpt><trkpt lat="45.78251410957214" lon="9.624971156999948"><ele>322.0</ele><time>2026-04-25T09:49:26Z</time></trkpt><trkpt lat="45.78256205344374" lon="9.625032841133832"><ele>322.0</ele><time>2026-04-25T09:49:27Z</time></trkpt><trkpt lat="45.782606975757886" lon="9.62510348848067"><ele>322.0</ele><time>2026-04-25T09:49:28Z</time></trkpt><trkpt lat="45.78266828817889" lon="9.625167867871129"><ele>322.0</ele><time>2026-04-25T09:49:29Z</time></trkpt><trkpt lat="45.78270942864079" lon="9.625237543849908"><ele>322.0</ele><time>2026-04-25T09:49:30Z</time></trkpt><trkpt lat="45.78275504605074" lon="9.625318413776547"><ele>322.0</ele><time>2026-04-25T09:49:31Z</time></trkpt><trkpt lat="45.78279943895064" lon="9.62539880636813"><ele>322.0</ele><time>2026-04-25T09:49:32Z</time></trkpt><trkpt lat="45.78284411968495" lon="9.625482283322777"><ele>322.0</ele><time>2026-04-25T09:49:33Z</time></trkpt><trkpt lat="45.78289047779493" lon="9.625558885947877"><ele>319.66666666666663</ele><time>2026-04-25T09:49:34Z</time></trkpt><trkpt lat="45.782937069140246" lon="9.625639877429991"><ele>317.3333333333333</ele><time>2026-04-25T09:49:35Z</time></trkpt><trkpt lat="45.78298429843158" lon="9.625724774170115"><ele>315.0</ele><time>2026-04-25T09:49:36Z</time></trkpt><trkpt lat="45.78302434272249" lon="9.625817726313768"><ele>312.6666666666667</ele><time>2026-04-25T09:49:37Z</time></trkpt><trkpt lat="45.78306758117909" lon="9.625911031011293"><ele>310.33333333333337</ele><time>2026-04-25T09:49:38Z</time></trkpt><trkpt lat="45.783117822889466" lon="9.626001638292731"><ele>308.0</ele><time>2026-04-25T09:49:39Z</time></trkpt><trkpt lat="45.78316393038153" lon="9.626090145628085"><ele>310.5</ele><time>2026-04-25T09:49:40Z</time></trkpt><trkpt lat="45.783214962002155" lon="9.626191035891843"><ele>313.0</ele><time>2026-04-25T09:49:41Z</time></trkpt><trkpt lat="45.7832575885651" lon="9.62628517646283"><ele>315.5</ele><time>2026-04-25T09:49:42Z</time></trkpt><trkpt lat="45.78330014889888" lon="9.626392181332056"><ele>318.0</ele><time>2026-04-25T09:49:43Z</time></trkpt><trkpt lat="45.78333508807613" lon="9.626501258316635"><ele>320.5</ele><time>2026-04-25T09:49:44Z</time></trkpt><trkpt lat="45.78336714040585" lon="9.626615247803056"><ele>323.0</ele><time>2026-04-25T09:49:45Z</time></trkpt><trkpt lat="45.783393939243254" lon="9.626732999369452"><ele>323.0</ele><time>2026-04-25T09:49:46Z</time></trkpt><trkpt lat="45.783418611192324" lon="9.626849026320741"><ele>323.0</ele><time>2026-04-25T09:49:47Z</time></trkpt><trkpt lat="45.783455147606894" lon="9.626963483761504"><ele>323.0</ele><time>2026-04-25T09:49:48Z</time></trkpt><trkpt lat="45.78350393311309" lon="9.627079039897628"><ele>323.0</ele><time>2026-04-25T09:49:49Z</time></trkpt><trkpt lat="45.78354495479267" lon="9.627193797963008"><ele>323.0</ele><time>2026-04-25T09:49:50Z</time></trkpt><trkpt lat="45.78360133071019" lon="9.627300653825976"><ele>321.2</ele><time>2026-04-25T09:49:51Z</time></trkpt><trkpt lat="45.78366366686129" lon="9.62740418238419"><ele>319.4</ele><time>2026-04-25T09:49:52Z</time></trkpt><trkpt lat="45.78373143651552" lon="9.627494966332039"><ele>317.59999999999997</ele><time>2026-04-25T09:49:53Z</time></trkpt><trkpt lat="45.78380621919063" lon="9.627573482945303"><ele>315.79999999999995</ele><time>2026-04-25T09:49:54Z</time></trkpt><trkpt lat="45.78388683508128" lon="9.627642637143724"><ele>314.0</ele><time>2026-04-25T09:49:55Z</time></trkpt><trkpt lat="45.78396377393939" lon="9.62770192568512"><ele>314.0</ele><time>2026-04-25T09:49:56Z</time></trkpt><trkpt lat="45.7840387921967" lon="9.62776481838802"><ele>314.0</ele><time>2026-04-25T09:49:57Z</time></trkpt><trkpt lat="45.7841210896274" lon="9.627842271884196"><ele>314.0</ele><time>2026-04-25T09:49:58Z</time></trkpt><trkpt lat="45.784208767521356" lon="9.627941509355322"><ele>314.0</ele><time>2026-04-25T09:49:59Z</time></trkpt><trkpt lat="45.78428793094638" lon="9.628036085171287"><ele>314.0</ele><time>2026-04-25T09:50:00Z</time></trkpt><trkpt lat="45.78435531543563" lon="9.628137899849909"><ele>313.0</ele><time>2026-04-25T09:50:01Z</time></trkpt><trkpt lat="45.784416656422295" lon="9.628226654100116"><ele>312.0</ele><time>2026-04-25T09:50:02Z</time></trkpt><trkpt lat="45.784482920071135" lon="9.628319786693696"><ele>311.0</ele><time>2026-04-25T09:50:03Z</time></trkpt><trkpt lat="45.78455140888804" lon="9.628416337307106"><ele>310.0</ele><time>2026-04-25T09:50:04Z</time></trkpt><trkpt lat="45.784621052148815" lon="9.628508823997661"><ele>309.0</ele><time>2026-04-25T09:50:05Z</time></trkpt><trkpt lat="45.784697946234225" lon="9.628592539680925"><ele>313.6</ele><time>2026-04-25T09:50:06Z</time></trkpt><trkpt lat="45.78477296845143" lon="9.628671319498677"><ele>318.2</ele><time>2026-04-25T09:50:07Z</time></trkpt><trkpt lat="45.78484975525057" lon="9.628755437295755"><ele>322.8</ele><time>2026-04-25T09:50:08Z</time></trkpt><trkpt lat="45.78493253959415" lon="9.628828199462678"><ele>327.40000000000003</ele><time>2026-04-25T09:50:09Z</time></trkpt><trkpt lat="45.78501507194987" lon="9.628906049012032"><ele>332.0</ele><time>2026-04-25T09:50:10Z</time></trkpt><trkpt lat="45.785096211329346" lon="9.628978656623453"><ele>327.6</ele><time>2026-04-25T09:50:11Z</time></trkpt><trkpt lat="45.78518053464092" lon="9.629050956385624"><ele>323.20000000000005</ele><time>2026-04-25T09:50:12Z</time></trkpt><trkpt lat="45.78526247567994" lon="9.629126901353192"><ele>318.8</ele><time>2026-04-25T09:50:13Z</time></trkpt><trkpt lat="45.78535305189624" lon="9.629201072275785"><ele>314.4</ele><time>2026-04-25T09:50:14Z</time></trkpt><trkpt lat="45.78544008942566" lon="9.629272916890454"><ele>310.0</ele><time>2026-04-25T09:50:15Z</time></trkpt><trkpt lat="45.785527817713266" lon="9.629346926350648"><ele>310.0</ele><time>2026-04-25T09:50:16Z</time></trkpt><trkpt lat="45.78561593857211" lon="9.629423521614159"><ele>310.0</ele><time>2026-04-25T09:50:17Z</time></trkpt><trkpt lat="45.7857038180979" lon="9.62950610237523"><ele>310.0</ele><time>2026-04-25T09:50:18Z</time></trkpt><trkpt lat="45.78579132877711" lon="9.629584124283024"><ele>310.0</ele><time>2026-04-25T09:50:19Z</time></trkpt><trkpt lat="45.7858842437875" lon="9.629662045864537"><ele>310.0</ele><time>2026-04-25T09:50:20Z</time></trkpt><trkpt lat="45.7859727369151" lon="9.62974037030175"><ele>308.0</ele><time>2026-04-25T09:50:21Z</time></trkpt><trkpt lat="45.78606001019642" lon="9.629822046407147"><ele>306.0</ele><time>2026-04-25T09:50:22Z</time></trkpt><trkpt lat="45.78614239708394" lon="9.629901723771935"><ele>304.0</ele><time>2026-04-25T09:50:23Z</time></trkpt><trkpt lat="45.786218067058165" lon="9.629980852542799"><ele>302.0</ele><time>2026-04-25T09:50:24Z</time></trkpt><trkpt lat="45.78629188324767" lon="9.630056635789376"><ele>300.0</ele><time>2026-04-25T09:50:25Z</time></trkpt><trkpt lat="45.78636546748462" lon="9.63013132035321"><ele>300.0</ele><time>2026-04-25T09:50:26Z</time></trkpt><trkpt lat="45.78643487862878" lon="9.6302036024358"><ele>300.0</ele><time>2026-04-25T09:50:27Z</time></trkpt><trkpt lat="45.78650058016516" lon="9.63027526438718"><ele>300.0</ele><time>2026-04-25T09:50:28Z</time></trkpt><trkpt lat="45.78656684322314" lon="9.630337014525193"><ele>300.0</ele><time>2026-04-25T09:50:29Z</time></trkpt><trkpt lat="45.78663057317414" lon="9.630393681956775"><ele>300.0</ele><time>2026-04-25T09:50:30Z</time></trkpt><trkpt lat="45.786691380332" lon="9.63045437739492"><ele>300.0</ele><time>2026-04-25T09:50:31Z</time></trkpt><trkpt lat="45.78675260627555" lon="9.630512646575058"><ele>299.5</ele><time>2026-04-25T09:50:32Z</time></trkpt><trkpt lat="45.786812901514054" lon="9.630570650070482"><ele>299.0</ele><time>2026-04-25T09:50:33Z</time></trkpt><trkpt lat="45.786870142543805" lon="9.630626656121214"><ele>298.5</ele><time>2026-04-25T09:50:34Z</time></trkpt><trkpt lat="45.78696836198474" lon="9.630744198577784"><ele>298.0</ele><time>2026-04-25T09:50:36Z</time></trkpt><trkpt lat="45.787024724847946" lon="9.630812463803306"><ele>297.5</ele><time>2026-04-25T09:50:37Z</time></trkpt><trkpt lat="45.787079320400345" lon="9.630875281345011"><ele>297.0</ele><time>2026-04-25T09:50:38Z</time></trkpt><trkpt lat="45.78711289389518" lon="9.63095421216912"><ele>300.8333333333333</ele><time>2026-04-25T09:50:39Z</time></trkpt><trkpt lat="45.78715077150308" lon="9.631036969264345"><ele>304.6666666666667</ele><time>2026-04-25T09:50:40Z</time></trkpt><trkpt lat="45.7871761669768" lon="9.631126637621035"><ele>308.5</ele><time>2026-04-25T09:50:41Z</time></trkpt><trkpt lat="45.78721597850485" lon="9.631298629674093"><ele>312.33333333333337</ele><time>2026-04-25T09:50:43Z</time></trkpt><trkpt lat="45.78723163498386" lon="9.631392122090187"><ele>316.1666666666667</ele><time>2026-04-25T09:50:44Z</time></trkpt><trkpt lat="45.78724765128262" lon="9.631484322055572"><ele>320.0</ele><time>2026-04-25T09:50:45Z</time></trkpt><trkpt lat="45.78726238792838" lon="9.631574576695984"><ele>320.0</ele><time>2026-04-25T09:50:46Z</time></trkpt><trkpt lat="45.787270860255624" lon="9.631666550704818"><ele>320.0</ele><time>2026-04-25T09:50:47Z</time></trkpt><trkpt lat="45.787273916699085" lon="9.631760376044257"><ele>320.0</ele><time>2026-04-25T09:50:48Z</time></trkpt><trkpt lat="45.78727904793252" lon="9.631856221881408"><ele>320.0</ele><time>2026-04-25T09:50:49Z</time></trkpt><trkpt lat="45.787284131830354" lon="9.631951939759686"><ele>320.0</ele><time>2026-04-25T09:50:50Z</time></trkpt><trkpt lat="45.78729125172854" lon="9.632047288738274"><ele>320.0</ele><time>2026-04-25T09:50:51Z</time></trkpt><trkpt lat="45.78729495480203" lon="9.632143658638451"><ele>320.0</ele><time>2026-04-25T09:50:52Z</time></trkpt><trkpt lat="45.78729907048856" lon="9.632241142254841"><ele>320.85714285714283</ele><time>2026-04-25T09:50:53Z</time></trkpt><trkpt lat="45.787306096259044" lon="9.632337745789556"><ele>321.7142857142857</ele><time>2026-04-25T09:50:54Z</time></trkpt><trkpt lat="45.7873213780347" lon="9.632433606064724"><ele>322.57142857142856</ele><time>2026-04-25T09:50:55Z</time></trkpt><trkpt lat="45.78734160324242" lon="9.632526309692832"><ele>323.42857142857144</ele><time>2026-04-25T09:50:56Z</time></trkpt><trkpt lat="45.78736495418546" lon="9.632620072253987"><ele>324.2857142857143</ele><time>2026-04-25T09:50:57Z</time></trkpt><trkpt lat="45.78738770889772" lon="9.632712354757432"><ele>325.14285714285717</ele><time>2026-04-25T09:50:58Z</time></trkpt><trkpt lat="45.787410142998056" lon="9.632808025452535"><ele>326.0</ele><time>2026-04-25T09:50:59Z</time></trkpt><trkpt lat="45.78742877979579" lon="9.632897593956882"><ele>323.14285714285717</ele><time>2026-04-25T09:51:00Z</time></trkpt><trkpt lat="45.78745286770608" lon="9.632989085021206"><ele>320.2857142857143</ele><time>2026-04-25T09:51:01Z</time></trkpt><trkpt lat="45.78747201365684" lon="9.633085063541959"><ele>317.42857142857144</ele><time>2026-04-25T09:51:02Z</time></trkpt><trkpt lat="45.7874924476249" lon="9.633177685184366"><ele>314.57142857142856</ele><time>2026-04-25T09:51:03Z</time></trkpt><trkpt lat="45.78751041247125" lon="9.633271605365834"><ele>311.7142857142857</ele><time>2026-04-25T09:51:04Z</time></trkpt><trkpt lat="45.78752928810796" lon="9.633367676738462"><ele>308.85714285714283</ele><time>2026-04-25T09:51:05Z</time></trkpt><trkpt lat="45.78754870934267" lon="9.633458902633878"><ele>306.0</ele><time>2026-04-25T09:51:06Z</time></trkpt><trkpt lat="45.78757083927388" lon="9.633553712242868"><ele>304.2857142857143</ele><time>2026-04-25T09:51:07Z</time></trkpt><trkpt lat="45.78758620885601" lon="9.633645511262428"><ele>302.57142857142856</ele><time>2026-04-25T09:51:08Z</time></trkpt><trkpt lat="45.787600898344934" lon="9.63374131402678"><ele>300.8571428571429</ele><time>2026-04-25T09:51:09Z</time></trkpt><trkpt lat="45.78761600977751" lon="9.633833826021993"><ele>299.1428571428571</ele><time>2026-04-25T09:51:10Z</time></trkpt><trkpt lat="45.78763177846435" lon="9.633924468399439"><ele>297.42857142857144</ele><time>2026-04-25T09:51:11Z</time></trkpt><trkpt lat="45.787651569342884" lon="9.63401022681819"><ele>295.7142857142857</ele><time>2026-04-25T09:51:12Z</time></trkpt><trkpt lat="45.7876693453484" lon="9.634100931813029"><ele>294.0</ele><time>2026-04-25T09:51:13Z</time></trkpt><trkpt lat="45.787690826426505" lon="9.634191416551666"><ele>305.0</ele><time>2026-04-25T09:51:14Z</time></trkpt><trkpt lat="45.78771873775715" lon="9.63427383579343"><ele>316.0</ele><time>2026-04-25T09:51:15Z</time></trkpt><trkpt lat="45.78777710947886" lon="9.634429283096036"><ele>327.0</ele><time>2026-04-25T09:51:17Z</time></trkpt><trkpt lat="45.78784993821401" lon="9.63458006704465"><ele>338.0</ele><time>2026-04-25T09:51:19Z</time></trkpt><trkpt lat="45.78791804001987" lon="9.63474004594959"><ele>349.0</ele><time>2026-04-25T09:51:21Z</time></trkpt><trkpt lat="45.787952501769965" lon="9.634821651338351"><ele>348.99999999999994</ele><time>2026-04-25T09:51:22Z</time></trkpt><trkpt lat="45.787993453280066" lon="9.63490540304626"><ele>349.0</ele><time>2026-04-25T09:51:23Z</time></trkpt><trkpt lat="45.788027512266225" lon="9.634998852923058"><ele>349.0</ele><time>2026-04-25T09:51:24Z</time></trkpt><trkpt lat="45.78805489788164" lon="9.63509723670504"><ele>349.0</ele><time>2026-04-25T09:51:25Z</time></trkpt><trkpt lat="45.788080705836464" lon="9.63520163436737"><ele>349.0</ele><time>2026-04-25T09:51:26Z</time></trkpt><trkpt lat="45.7881068044522" lon="9.635301331037518"><ele>348.99999999999994</ele><time>2026-04-25T09:51:27Z</time></trkpt><trkpt lat="45.78812934891405" lon="9.635391193557025"><ele>349.0</ele><time>2026-04-25T09:51:28Z</time></trkpt><trkpt lat="45.78815626241436" lon="9.63549600236914"><ele>344.4285714285714</ele><time>2026-04-25T09:51:29Z</time></trkpt><trkpt lat="45.78817800177593" lon="9.635595741205499"><ele>339.85714285714283</ele><time>2026-04-25T09:51:30Z</time></trkpt><trkpt lat="45.78820023651075" lon="9.635697845495754"><ele>335.2857142857143</ele><time>2026-04-25T09:51:31Z</time></trkpt><trkpt lat="45.78821558095969" lon="9.635801542777944"><ele>330.71428571428567</ele><time>2026-04-25T09:51:32Z</time></trkpt><trkpt lat="45.78823221268711" lon="9.635903929910217"><ele>326.1428571428571</ele><time>2026-04-25T09:51:33Z</time></trkpt><trkpt lat="45.78825177657064" lon="9.636006463159093"><ele>321.57142857142856</ele><time>2026-04-25T09:51:34Z</time></trkpt><trkpt lat="45.78827393108686" lon="9.636107418775127"><ele>317.0</ele><time>2026-04-25T09:51:35Z</time></trkpt><trkpt lat="45.788298652259805" lon="9.636205926522939"><ele>318.8571428571429</ele><time>2026-04-25T09:51:36Z</time></trkpt><trkpt lat="45.78832984425515" lon="9.636299622853423"><ele>320.7142857142857</ele><time>2026-04-25T09:51:37Z</time></trkpt><trkpt lat="45.788364927728786" lon="9.636390420133253"><ele>322.57142857142856</ele><time>2026-04-25T09:51:38Z</time></trkpt><trkpt lat="45.78840386970411" lon="9.636474538932665"><ele>324.42857142857144</ele><time>2026-04-25T09:51:39Z</time></trkpt><trkpt lat="45.78844712795674" lon="9.636552611786477"><ele>326.2857142857143</ele><time>2026-04-25T09:51:40Z</time></trkpt><trkpt lat="45.78849508823766" lon="9.63662226156697"><ele>328.14285714285717</ele><time>2026-04-25T09:51:41Z</time></trkpt><trkpt lat="45.788540836674706" lon="9.63669623908469"><ele>330.0</ele><time>2026-04-25T09:51:42Z</time></trkpt><trkpt lat="45.788591190749685" lon="9.636773997649174"><ele>330.00000000000006</ele><time>2026-04-25T09:51:43Z</time></trkpt><trkpt lat="45.78864199641741" lon="9.636848428628507"><ele>330.0</ele><time>2026-04-25T09:51:44Z</time></trkpt><trkpt lat="45.78869025167679" lon="9.636924628221855"><ele>330.0</ele><time>2026-04-25T09:51:45Z</time></trkpt><trkpt lat="45.78873263828181" lon="9.63699858266086"><ele>330.0</ele><time>2026-04-25T09:51:46Z</time></trkpt><trkpt lat="45.78875085016018" lon="9.637102066767367"><ele>330.0</ele><time>2026-04-25T09:51:47Z</time></trkpt><trkpt lat="45.7887868691289" lon="9.63720557494416"><ele>330.00000000000006</ele><time>2026-04-25T09:51:48Z</time></trkpt><trkpt lat="45.78882818936317" lon="9.637295143233455"><ele>330.0</ele><time>2026-04-25T09:51:49Z</time></trkpt><trkpt lat="45.7888727202279" lon="9.637369340500323"><ele>325.28571428571433</ele><time>2026-04-25T09:51:50Z</time></trkpt><trkpt lat="45.788916127217846" lon="9.637461606429412"><ele>320.57142857142856</ele><time>2026-04-25T09:51:51Z</time></trkpt><trkpt lat="45.78895993240212" lon="9.63754255949627"><ele>315.8571428571429</ele><time>2026-04-25T09:51:52Z</time></trkpt><trkpt lat="45.78900524175778" lon="9.637622227376493"><ele>311.14285714285717</ele><time>2026-04-25T09:51:53Z</time></trkpt><trkpt lat="45.78904881455944" lon="9.637703154565001"><ele>306.42857142857144</ele><time>2026-04-25T09:51:54Z</time></trkpt><trkpt lat="45.789082996235955" lon="9.63778721979546"><ele>301.7142857142857</ele><time>2026-04-25T09:51:55Z</time></trkpt><trkpt lat="45.7891124383094" lon="9.637868711042323"><ele>297.0</ele><time>2026-04-25T09:51:56Z</time></trkpt><trkpt lat="45.789141712185895" lon="9.637958425577215"><ele>296.0</ele><time>2026-04-25T09:51:57Z</time></trkpt><trkpt lat="45.78916810562769" lon="9.63804369404476"><ele>295.0</ele><time>2026-04-25T09:51:58Z</time></trkpt><trkpt lat="45.78920078678893" lon="9.638129598697859"><ele>294.0</ele><time>2026-04-25T09:51:59Z</time></trkpt><trkpt lat="45.789227388723496" lon="9.638216823795045"><ele>293.0</ele><time>2026-04-25T09:52:00Z</time></trkpt><trkpt lat="45.78926621984654" lon="9.638390692174138"><ele>292.0</ele><time>2026-04-25T09:52:02Z</time></trkpt><trkpt lat="45.78926234309927" lon="9.638570578215118"><ele>292.2857142857143</ele><time>2026-04-25T09:52:04Z</time></trkpt><trkpt lat="45.78922577079403" lon="9.63874195694371"><ele>292.57142857142856</ele><time>2026-04-25T09:52:06Z</time></trkpt><trkpt lat="45.78923428651489" lon="9.63883808996635"><ele>292.8571428571429</ele><time>2026-04-25T09:52:07Z</time></trkpt><trkpt lat="45.78925375640459" lon="9.638923980013027"><ele>293.1428571428571</ele><time>2026-04-25T09:52:08Z</time></trkpt><trkpt lat="45.78928467614772" lon="9.63900447327533"><ele>293.42857142857144</ele><time>2026-04-25T09:52:09Z</time></trkpt><trkpt lat="45.789317512385395" lon="9.639085124494239"><ele>293.7142857142857</ele><time>2026-04-25T09:52:10Z</time></trkpt><trkpt lat="45.789347348050036" lon="9.63916663183154"><ele>294.0</ele><time>2026-04-25T09:52:11Z</time></trkpt><trkpt lat="45.78935857237761" lon="9.639267135338432"><ele>294.3333333333333</ele><time>2026-04-25T09:52:12Z</time></trkpt><trkpt lat="45.789388420355394" lon="9.639355961339671"><ele>294.6666666666667</ele><time>2026-04-25T09:52:13Z</time></trkpt><trkpt lat="45.78947463311947" lon="9.63950649524922"><ele>295.0</ele><time>2026-04-25T09:52:15Z</time></trkpt><trkpt lat="45.789529215696604" lon="9.639568019872264"><ele>295.33333333333337</ele><time>2026-04-25T09:52:16Z</time></trkpt><trkpt lat="45.78959542399606" lon="9.639623213217735"><ele>295.6666666666667</ele><time>2026-04-25T09:52:17Z</time></trkpt><trkpt lat="45.78965761698544" lon="9.639668944670387"><ele>296.0</ele><time>2026-04-25T09:52:18Z</time></trkpt><trkpt lat="45.7897181196948" lon="9.639719499604087"><ele>296.0</ele><time>2026-04-25T09:52:19Z</time></trkpt><trkpt lat="45.78977245374906" lon="9.639776815277157"><ele>296.0</ele><time>2026-04-25T09:52:20Z</time></trkpt><trkpt lat="45.789824404493345" lon="9.639847779909127"><ele>296.0</ele><time>2026-04-25T09:52:21Z</time></trkpt><trkpt lat="45.78985974678214" lon="9.639928748363332"><ele>296.0</ele><time>2026-04-25T09:52:22Z</time></trkpt><trkpt lat="45.78988481789046" lon="9.640017866921994"><ele>296.0</ele><time>2026-04-25T09:52:23Z</time></trkpt><trkpt lat="45.789908588639555" lon="9.640107516254883"><ele>296.0</ele><time>2026-04-25T09:52:24Z</time></trkpt><trkpt lat="45.78993473745919" lon="9.640195500580349"><ele>296.0</ele><time>2026-04-25T09:52:25Z</time></trkpt><trkpt lat="45.78996068271129" lon="9.640280851395843"><ele>295.0</ele><time>2026-04-25T09:52:26Z</time></trkpt><trkpt lat="45.78998679842305" lon="9.640370765225313"><ele>294.0</ele><time>2026-04-25T09:52:27Z</time></trkpt><trkpt lat="45.79004303284152" lon="9.64053705907124"><ele>293.0</ele><time>2026-04-25T09:52:29Z</time></trkpt><trkpt lat="45.790070609514174" lon="9.640619946616765"><ele>292.0</ele><time>2026-04-25T09:52:30Z</time></trkpt><trkpt lat="45.79010108657371" lon="9.640705983586518"><ele>291.0</ele><time>2026-04-25T09:52:31Z</time></trkpt><trkpt lat="45.79013167100126" lon="9.640788692196416"><ele>290.0</ele><time>2026-04-25T09:52:32Z</time></trkpt><trkpt lat="45.79016011446137" lon="9.640870232057368"><ele>290.83333333333337</ele><time>2026-04-25T09:52:33Z</time></trkpt><trkpt lat="45.79019352964843" lon="9.64095229292304"><ele>291.6666666666667</ele><time>2026-04-25T09:52:34Z</time></trkpt><trkpt lat="45.790221004098434" lon="9.641036326202508"><ele>292.5</ele><time>2026-04-25T09:52:35Z</time></trkpt><trkpt lat="45.79025386672751" lon="9.641124053537945"><ele>293.3333333333333</ele><time>2026-04-25T09:52:36Z</time></trkpt><trkpt lat="45.79031188086162" lon="9.64127911397049"><ele>294.16666666666663</ele><time>2026-04-25T09:52:38Z</time></trkpt><trkpt lat="45.790374658894294" lon="9.641435405213475"><ele>295.0</ele><time>2026-04-25T09:52:40Z</time></trkpt><trkpt lat="45.790404846307126" lon="9.641515106038986"><ele>295.0</ele><time>2026-04-25T09:52:41Z</time></trkpt><trkpt lat="45.79043308718661" lon="9.64159607185646"><ele>295.0</ele><time>2026-04-25T09:52:42Z</time></trkpt><trkpt lat="45.790461523815445" lon="9.641678935813516"><ele>295.0</ele><time>2026-04-25T09:52:43Z</time></trkpt><trkpt lat="45.790523387395204" lon="9.641831810744206"><ele>295.0</ele><time>2026-04-25T09:52:45Z</time></trkpt><trkpt lat="45.790556720446155" lon="9.641914419622955"><ele>295.0</ele><time>2026-04-25T09:52:46Z</time></trkpt><trkpt lat="45.790607904065524" lon="9.642077509922792"><ele>295.0</ele><time>2026-04-25T09:52:48Z</time></trkpt><trkpt lat="45.79063142290046" lon="9.642164911245057"><ele>294.6</ele><time>2026-04-25T09:52:49Z</time></trkpt><trkpt lat="45.79067291129941" lon="9.642335778788736"><ele>294.2</ele><time>2026-04-25T09:52:51Z</time></trkpt><trkpt lat="45.79070013838256" lon="9.642427869903438"><ele>293.8</ele><time>2026-04-25T09:52:52Z</time></trkpt><trkpt lat="45.7907354163264" lon="9.642598314297675"><ele>293.4</ele><time>2026-04-25T09:52:54Z</time></trkpt><trkpt lat="45.790741920951575" lon="9.642769275165291"><ele>293.0</ele><time>2026-04-25T09:52:56Z</time></trkpt><trkpt lat="45.79078074291249" lon="9.642944029044493"><ele>293.0</ele><time>2026-04-25T09:52:58Z</time></trkpt><trkpt lat="45.790797228080265" lon="9.643034315584035"><ele>293.0</ele><time>2026-04-25T09:52:59Z</time></trkpt><trkpt lat="45.79082609442463" lon="9.643213875007032"><ele>293.0</ele><time>2026-04-25T09:53:01Z</time></trkpt><trkpt lat="45.79085904451254" lon="9.643386651669413"><ele>293.0</ele><time>2026-04-25T09:53:03Z</time></trkpt><trkpt lat="45.790898789164615" lon="9.643556536188646"><ele>293.0</ele><time>2026-04-25T09:53:05Z</time></trkpt><trkpt lat="45.790922110472174" lon="9.64364044428308"><ele>293.1666666666667</ele><time>2026-04-25T09:53:06Z</time></trkpt><trkpt lat="45.79094588670466" lon="9.643728037737718"><ele>293.33333333333337</ele><time>2026-04-25T09:53:07Z</time></trkpt><trkpt lat="45.79096185395699" lon="9.643818251244438"><ele>293.5</ele><time>2026-04-25T09:53:08Z</time></trkpt><trkpt lat="45.7909934517788" lon="9.643989918712215"><ele>293.6666666666667</ele><time>2026-04-25T09:53:10Z</time></trkpt><trkpt lat="45.79101642636743" lon="9.64417038456114"><ele>293.8333333333333</ele><time>2026-04-25T09:53:12Z</time></trkpt><trkpt lat="45.79102915494274" lon="9.644260983857349"><ele>294.0</ele><time>2026-04-25T09:53:13Z</time></trkpt><trkpt lat="45.791044409794836" lon="9.644354426735168"><ele>295.3333333333333</ele><time>2026-04-25T09:53:14Z</time></trkpt><trkpt lat="45.791085541834455" lon="9.644523320102593"><ele>296.6666666666667</ele><time>2026-04-25T09:53:16Z</time></trkpt><trkpt lat="45.791110043313324" lon="9.644609295765216"><ele>298.0</ele><time>2026-04-25T09:53:17Z</time></trkpt><trkpt lat="45.79116082754035" lon="9.644784419031184"><ele>299.33333333333337</ele><time>2026-04-25T09:53:19Z</time></trkpt><trkpt lat="45.79118261980594" lon="9.644869326725278"><ele>300.6666666666667</ele><time>2026-04-25T09:53:20Z</time></trkpt><trkpt lat="45.79120302516632" lon="9.644956358406057"><ele>302.0</ele><time>2026-04-25T09:53:21Z</time></trkpt><trkpt lat="45.791244182890026" lon="9.645136773717763"><ele>302.0</ele><time>2026-04-25T09:53:23Z</time></trkpt><trkpt lat="45.791262455806" lon="9.645224973098316"><ele>302.0</ele><time>2026-04-25T09:53:24Z</time></trkpt><trkpt lat="45.79129847880655" lon="9.645396057683877"><ele>302.0</ele><time>2026-04-25T09:53:26Z</time></trkpt><trkpt lat="45.79131568771746" lon="9.64548417666307"><ele>302.0</ele><time>2026-04-25T09:53:27Z</time></trkpt><trkpt lat="45.79136666633345" lon="9.645648498375023"><ele>302.0</ele><time>2026-04-25T09:53:29Z</time></trkpt><trkpt lat="45.79138118842561" lon="9.645736697123377"><ele>302.0</ele><time>2026-04-25T09:53:30Z</time></trkpt><trkpt lat="45.79142082716819" lon="9.645911136621857"><ele>301.33333333333337</ele><time>2026-04-25T09:53:32Z</time></trkpt><trkpt lat="45.79147381076404" lon="9.646069848865029"><ele>300.6666666666667</ele><time>2026-04-25T09:53:34Z</time></trkpt><trkpt lat="45.79148373599687" lon="9.646162877796975"><ele>300.0</ele><time>2026-04-25T09:53:35Z</time></trkpt><trkpt lat="45.791501528002605" lon="9.64624998749392"><ele>299.3333333333333</ele><time>2026-04-25T09:53:36Z</time></trkpt><trkpt lat="45.79152436626733" lon="9.64634254544212"><ele>298.66666666666663</ele><time>2026-04-25T09:53:37Z</time></trkpt><trkpt lat="45.79156019047138" lon="9.646518264049828"><ele>298.0</ele><time>2026-04-25T09:53:39Z</time></trkpt><trkpt lat="45.791593305926085" lon="9.646691094787997"><ele>298.0</ele><time>2026-04-25T09:53:41Z</time></trkpt><trkpt lat="45.79161528009719" lon="9.646788537318823"><ele>298.0</ele><time>2026-04-25T09:53:42Z</time></trkpt><trkpt lat="45.79164078963236" lon="9.646871196490029"><ele>298.0</ele><time>2026-04-25T09:53:43Z</time></trkpt><trkpt lat="45.79165045721095" lon="9.646963823314326"><ele>298.0</ele><time>2026-04-25T09:53:44Z</time></trkpt><trkpt lat="45.791683056863356" lon="9.647053169576761"><ele>298.0</ele><time>2026-04-25T09:53:45Z</time></trkpt><trkpt lat="45.791712867391645" lon="9.647146727642296"><ele>298.0</ele><time>2026-04-25T09:53:46Z</time></trkpt><trkpt lat="45.79173629855343" lon="9.647329958691433"><ele>297.8333333333333</ele><time>2026-04-25T09:53:48Z</time></trkpt><trkpt lat="45.79175485452306" lon="9.647420807832706"><ele>297.66666666666663</ele><time>2026-04-25T09:53:49Z</time></trkpt><trkpt lat="45.79177467470764" lon="9.647520826374517"><ele>297.5</ele><time>2026-04-25T09:53:50Z</time></trkpt><trkpt lat="45.79179012613944" lon="9.647613207085582"><ele>297.3333333333333</ele><time>2026-04-25T09:53:51Z</time></trkpt><trkpt lat="45.79181052046898" lon="9.647701700340818"><ele>297.1666666666667</ele><time>2026-04-25T09:53:52Z</time></trkpt><trkpt lat="45.79182660724054" lon="9.647792027793423"><ele>297.0</ele><time>2026-04-25T09:53:53Z</time></trkpt><trkpt lat="45.791859037206834" lon="9.647966373204092"><ele>299.4</ele><time>2026-04-25T09:53:55Z</time></trkpt><trkpt lat="45.791877814480166" lon="9.648066545730423"><ele>301.79999999999995</ele><time>2026-04-25T09:53:56Z</time></trkpt><trkpt lat="45.791904187348216" lon="9.648236669343238"><ele>304.2</ele><time>2026-04-25T09:53:58Z</time></trkpt><trkpt lat="45.791921330803724" lon="9.648325944256017"><ele>306.59999999999997</ele><time>2026-04-25T09:53:59Z</time></trkpt><trkpt lat="45.79194749657749" lon="9.648505282386344"><ele>309.0</ele><time>2026-04-25T09:54:01Z</time></trkpt><trkpt lat="45.79196504637184" lon="9.648595318230718"><ele>308.5</ele><time>2026-04-25T09:54:02Z</time></trkpt><trkpt lat="45.7919822472204" lon="9.64877562138375"><ele>308.0</ele><time>2026-04-25T09:54:04Z</time></trkpt><trkpt lat="45.79200048978799" lon="9.648950770445436"><ele>307.5</ele><time>2026-04-25T09:54:06Z</time></trkpt><trkpt lat="45.792012995542095" lon="9.649129061604228"><ele>307.0</ele><time>2026-04-25T09:54:08Z</time></trkpt><trkpt lat="45.79204341518144" lon="9.649303462693505"><ele>306.0</ele><time>2026-04-25T09:54:10Z</time></trkpt><trkpt lat="45.79206413448176" lon="9.649477872423642"><ele>305.0</ele><time>2026-04-25T09:54:12Z</time></trkpt><trkpt lat="45.79209031653184" lon="9.6496582420155"><ele>304.0</ele><time>2026-04-25T09:54:14Z</time></trkpt><trkpt lat="45.79210818153758" lon="9.64975057091563"><ele>303.0</ele><time>2026-04-25T09:54:15Z</time></trkpt><trkpt lat="45.792129658448424" lon="9.649940899181573"><ele>303.0</ele><time>2026-04-25T09:54:17Z</time></trkpt><trkpt lat="45.792170812843885" lon="9.650112309969588"><ele>303.0</ele><time>2026-04-25T09:54:19Z</time></trkpt><trkpt lat="45.79219303105242" lon="9.650286879835654"><ele>303.0</ele><time>2026-04-25T09:54:21Z</time></trkpt><trkpt lat="45.79221258053485" lon="9.650383468079795"><ele>303.0</ele><time>2026-04-25T09:54:22Z</time></trkpt><trkpt lat="45.79223474011582" lon="9.650470694807371"><ele>303.0</ele><time>2026-04-25T09:54:23Z</time></trkpt><trkpt lat="45.792252864271624" lon="9.65056245889155"><ele>302.42857142857144</ele><time>2026-04-25T09:54:24Z</time></trkpt><trkpt lat="45.79226794911502" lon="9.650654117224581"><ele>301.85714285714283</ele><time>2026-04-25T09:54:25Z</time></trkpt><trkpt lat="45.79229616351266" lon="9.650824800984875"><ele>301.2857142857143</ele><time>2026-04-25T09:54:27Z</time></trkpt><trkpt lat="45.79231517448562" lon="9.650914255710905"><ele>300.7142857142857</ele><time>2026-04-25T09:54:28Z</time></trkpt><trkpt lat="45.792332213525356" lon="9.651001180031205"><ele>300.14285714285717</ele><time>2026-04-25T09:54:29Z</time></trkpt><trkpt lat="45.79234766184338" lon="9.651091008298906"><ele>299.57142857142856</ele><time>2026-04-25T09:54:30Z</time></trkpt><trkpt lat="45.7923669467488" lon="9.651181665126467"><ele>299.0</ele><time>2026-04-25T09:54:31Z</time></trkpt><trkpt lat="45.7923862407947" lon="9.651274349779253"><ele>299.0</ele><time>2026-04-25T09:54:32Z</time></trkpt><trkpt lat="45.79240369485174" lon="9.651363654925895"><ele>299.0</ele><time>2026-04-25T09:54:33Z</time></trkpt><trkpt lat="45.79243455250182" lon="9.65153950582812"><ele>299.0</ele><time>2026-04-25T09:54:35Z</time></trkpt><trkpt lat="45.792454414383265" lon="9.651628683882425"><ele>299.0</ele><time>2026-04-25T09:54:36Z</time></trkpt><trkpt lat="45.792474630640086" lon="9.651715567767887"><ele>299.0</ele><time>2026-04-25T09:54:37Z</time></trkpt><trkpt lat="45.79249874596122" lon="9.651892501278983"><ele>299.0</ele><time>2026-04-25T09:54:39Z</time></trkpt><trkpt lat="45.79251931688187" lon="9.651982469927367"><ele>299.0</ele><time>2026-04-25T09:54:40Z</time></trkpt><trkpt lat="45.79254503717673" lon="9.652073734885292"><ele>299.0</ele><time>2026-04-25T09:54:41Z</time></trkpt><trkpt lat="45.79257241284935" lon="9.65224146584716"><ele>299.0</ele><time>2026-04-25T09:54:43Z</time></trkpt><trkpt lat="45.79258989261494" lon="9.65233884072577"><ele>299.0</ele><time>2026-04-25T09:54:44Z</time></trkpt><trkpt lat="45.79262613363546" lon="9.652509309735985"><ele>299.0</ele><time>2026-04-25T09:54:46Z</time></trkpt><trkpt lat="45.79264437387837" lon="9.652605111033942"><ele>300.2</ele><time>2026-04-25T09:54:47Z</time></trkpt><trkpt lat="45.79267932823289" lon="9.652784232153795"><ele>301.4</ele><time>2026-04-25T09:54:49Z</time></trkpt><trkpt lat="45.792707968594584" lon="9.652945041360862"><ele>302.6</ele><time>2026-04-25T09:54:51Z</time></trkpt><trkpt lat="45.79272962966262" lon="9.653038494024045"><ele>303.8</ele><time>2026-04-25T09:54:52Z</time></trkpt><trkpt lat="45.7927614897453" lon="9.65320550968815"><ele>305.0</ele><time>2026-04-25T09:54:54Z</time></trkpt><trkpt lat="45.792785631577324" lon="9.653298882842138"><ele>305.0</ele><time>2026-04-25T09:54:55Z</time></trkpt><trkpt lat="45.792802358240664" lon="9.65339167355567"><ele>305.0</ele><time>2026-04-25T09:54:56Z</time></trkpt><trkpt lat="45.79282732761477" lon="9.653479051620018"><ele>305.0</ele><time>2026-04-25T09:54:57Z</time></trkpt><trkpt lat="45.792841815076436" lon="9.653572401604292"><ele>305.0</ele><time>2026-04-25T09:54:58Z</time></trkpt><trkpt lat="45.792878922937625" lon="9.65374918084441"><ele>305.0</ele><time>2026-04-25T09:55:00Z</time></trkpt><trkpt lat="45.79289387021323" lon="9.653839383321117"><ele>305.0</ele><time>2026-04-25T09:55:01Z</time></trkpt><trkpt lat="45.7929270483553" lon="9.654014743176333"><ele>305.0</ele><time>2026-04-25T09:55:03Z</time></trkpt><trkpt lat="45.79293928718938" lon="9.654110491820822"><ele>305.0</ele><time>2026-04-25T09:55:04Z</time></trkpt><trkpt lat="45.79296254369692" lon="9.65419928979127"><ele>305.0</ele><time>2026-04-25T09:55:05Z</time></trkpt><trkpt lat="45.792978767358086" lon="9.654291754802184"><ele>305.0</ele><time>2026-04-25T09:55:06Z</time></trkpt><trkpt lat="45.79300361025441" lon="9.65437988883218"><ele>305.0</ele><time>2026-04-25T09:55:07Z</time></trkpt><trkpt lat="45.79303400986961" lon="9.654561624169546"><ele>305.0</ele><time>2026-04-25T09:55:09Z</time></trkpt><trkpt lat="45.793037763086446" lon="9.65465691734189"><ele>305.0</ele><time>2026-04-25T09:55:10Z</time></trkpt><trkpt lat="45.79303970100936" lon="9.654750005453685"><ele>305.0</ele><time>2026-04-25T09:55:11Z</time></trkpt><trkpt lat="45.79304833283123" lon="9.654846078955355"><ele>305.0</ele><time>2026-04-25T09:55:12Z</time></trkpt><trkpt lat="45.79305562538286" lon="9.654939760730766"><ele>305.0</ele><time>2026-04-25T09:55:13Z</time></trkpt><trkpt lat="45.79307011970262" lon="9.655037421274178"><ele>305.0</ele><time>2026-04-25T09:55:14Z</time></trkpt><trkpt lat="45.79307792327547" lon="9.655128142313679"><ele>305.0</ele><time>2026-04-25T09:55:15Z</time></trkpt><trkpt lat="45.7930879610975" lon="9.65521978629743"><ele>305.0</ele><time>2026-04-25T09:55:16Z</time></trkpt><trkpt lat="45.79309810382078" lon="9.655310734376636"><ele>304.83333333333337</ele><time>2026-04-25T09:55:17Z</time></trkpt><trkpt lat="45.79312346070315" lon="9.6553980055209"><ele>304.6666666666667</ele><time>2026-04-25T09:55:18Z</time></trkpt><trkpt lat="45.79313534167152" lon="9.655501766152186"><ele>304.5</ele><time>2026-04-25T09:55:19Z</time></trkpt><trkpt lat="45.793145020006314" lon="9.65568171868712"><ele>304.3333333333333</ele><time>2026-04-25T09:55:21Z</time></trkpt><trkpt lat="45.79315056184401" lon="9.655774989713418"><ele>304.16666666666663</ele><time>2026-04-25T09:55:22Z</time></trkpt><trkpt lat="45.79315869033454" lon="9.655865639033573"><ele>304.0</ele><time>2026-04-25T09:55:23Z</time></trkpt><trkpt lat="45.793165991509426" lon="9.655955601691558"><ele>304.3333333333333</ele><time>2026-04-25T09:55:24Z</time></trkpt><trkpt lat="45.793180187838516" lon="9.656136631291588"><ele>304.66666666666663</ele><time>2026-04-25T09:55:26Z</time></trkpt><trkpt lat="45.79318944776447" lon="9.656226794511516"><ele>305.0</ele><time>2026-04-25T09:55:27Z</time></trkpt><trkpt lat="45.7931976436977" lon="9.656316763803762"><ele>305.3333333333333</ele><time>2026-04-25T09:55:28Z</time></trkpt><trkpt lat="45.79320499144885" lon="9.656408033374337"><ele>305.6666666666667</ele><time>2026-04-25T09:55:29Z</time></trkpt><trkpt lat="45.79321368866789" lon="9.656498546405212"><ele>306.0</ele><time>2026-04-25T09:55:30Z</time></trkpt><trkpt lat="45.79322506843005" lon="9.656676699268143"><ele>306.0</ele><time>2026-04-25T09:55:32Z</time></trkpt><trkpt lat="45.79323414285363" lon="9.656766476002868"><ele>306.0</ele><time>2026-04-25T09:55:33Z</time></trkpt><trkpt lat="45.793237267752176" lon="9.656858295881833"><ele>306.0</ele><time>2026-04-25T09:55:34Z</time></trkpt><trkpt lat="45.79324425191465" lon="9.656948856165153"><ele>306.0</ele><time>2026-04-25T09:55:35Z</time></trkpt><trkpt lat="45.79325178940504" lon="9.657128644525143"><ele>306.0</ele><time>2026-04-25T09:55:37Z</time></trkpt><trkpt lat="45.7932633020321" lon="9.65721783136383"><ele>306.0</ele><time>2026-04-25T09:55:38Z</time></trkpt><trkpt lat="45.79327108923977" lon="9.657401059807952"><ele>305.75</ele><time>2026-04-25T09:55:40Z</time></trkpt><trkpt lat="45.79328067012399" lon="9.65758161400286"><ele>305.5</ele><time>2026-04-25T09:55:42Z</time></trkpt><trkpt lat="45.793292162491746" lon="9.65776273251902"><ele>305.25</ele><time>2026-04-25T09:55:44Z</time></trkpt><trkpt lat="45.79329502652571" lon="9.65794225689158"><ele>305.0</ele><time>2026-04-25T09:55:46Z</time></trkpt><trkpt lat="45.79331464433783" lon="9.658115943500002"><ele>305.0</ele><time>2026-04-25T09:55:48Z</time></trkpt><trkpt lat="45.79331152773755" lon="9.658298741751214"><ele>305.0</ele><time>2026-04-25T09:55:50Z</time></trkpt><trkpt lat="45.79331123824024" lon="9.658391861493591"><ele>305.0</ele><time>2026-04-25T09:55:51Z</time></trkpt><trkpt lat="45.793312194757256" lon="9.658488506634901"><ele>305.0</ele><time>2026-04-25T09:55:52Z</time></trkpt><trkpt lat="45.793314293659215" lon="9.658672410612482"><ele>305.0</ele><time>2026-04-25T09:55:54Z</time></trkpt><trkpt lat="45.79330909567743" lon="9.658845625709908"><ele>305.0</ele><time>2026-04-25T09:55:56Z</time></trkpt><trkpt lat="45.79331132066198" lon="9.658942578675685"><ele>305.0</ele><time>2026-04-25T09:55:57Z</time></trkpt><trkpt lat="45.793312477326964" lon="9.659035343807133"><ele>305.0</ele><time>2026-04-25T09:55:58Z</time></trkpt><trkpt lat="45.79331292904392" lon="9.659213925072555"><ele>305.0</ele><time>2026-04-25T09:56:00Z</time></trkpt><trkpt lat="45.793297742235424" lon="9.659305343640678"><ele>305.0</ele><time>2026-04-25T09:56:01Z</time></trkpt><trkpt lat="45.79323044325306" lon="9.659451997521224"><ele>305.0</ele><time>2026-04-25T09:56:03Z</time></trkpt><trkpt lat="45.79316942587662" lon="9.659492565858738"><ele>305.42857142857144</ele><time>2026-04-25T09:56:04Z</time></trkpt><trkpt lat="45.79311072825508" lon="9.659533093524674"><ele>305.85714285714283</ele><time>2026-04-25T09:56:05Z</time></trkpt><trkpt lat="45.7930489608269" lon="9.659568050662514"><ele>306.2857142857143</ele><time>2026-04-25T09:56:06Z</time></trkpt><trkpt lat="45.79298990703401" lon="9.659607507636029"><ele>306.7142857142857</ele><time>2026-04-25T09:56:07Z</time></trkpt><trkpt lat="45.792931786290104" lon="9.65964489788357"><ele>307.1428571428571</ele><time>2026-04-25T09:56:08Z</time></trkpt><trkpt lat="45.79287600517203" lon="9.659691790867234"><ele>307.57142857142856</ele><time>2026-04-25T09:56:09Z</time></trkpt><trkpt lat="45.79281792835536" lon="9.659737428980407"><ele>308.0</ele><time>2026-04-25T09:56:10Z</time></trkpt><trkpt lat="45.79270663113606" lon="9.659829374962394"><ele>307.42857142857144</ele><time>2026-04-25T09:56:12Z</time></trkpt><trkpt lat="45.792649966860715" lon="9.659874050741571"><ele>306.8571428571429</ele><time>2026-04-25T09:56:13Z</time></trkpt><trkpt lat="45.792596676621095" lon="9.659923920186406"><ele>306.2857142857143</ele><time>2026-04-25T09:56:14Z</time></trkpt><trkpt lat="45.79254781995898" lon="9.65998256522561"><ele>305.7142857142857</ele><time>2026-04-25T09:56:15Z</time></trkpt><trkpt lat="45.79250278177589" lon="9.660051052752166"><ele>305.14285714285717</ele><time>2026-04-25T09:56:16Z</time></trkpt><trkpt lat="45.79246316770873" lon="9.660124338534473"><ele>304.57142857142856</ele><time>2026-04-25T09:56:17Z</time></trkpt><trkpt lat="45.79242527776335" lon="9.660201467426605"><ele>304.0</ele><time>2026-04-25T09:56:18Z</time></trkpt><trkpt lat="45.79237645385329" lon="9.660362789145813"><ele>304.0</ele><time>2026-04-25T09:56:20Z</time></trkpt><trkpt lat="45.792356956433636" lon="9.660457357728626"><ele>304.0</ele><time>2026-04-25T09:56:21Z</time></trkpt><trkpt lat="45.79234420442331" lon="9.660549840939332"><ele>304.0</ele><time>2026-04-25T09:56:22Z</time></trkpt><trkpt lat="45.792326258645" lon="9.66072703492393"><ele>304.0</ele><time>2026-04-25T09:56:24Z</time></trkpt><trkpt lat="45.79231746637344" lon="9.660817513864044"><ele>304.0</ele><time>2026-04-25T09:56:25Z</time></trkpt><trkpt lat="45.79230321314196" lon="9.660910588323928"><ele>304.0</ele><time>2026-04-25T09:56:26Z</time></trkpt><trkpt lat="45.79228336810398" lon="9.661013178969508"><ele>304.0</ele><time>2026-04-25T09:56:27Z</time></trkpt><trkpt lat="45.79226750368172" lon="9.661105516840726"><ele>304.0</ele><time>2026-04-25T09:56:28Z</time></trkpt><trkpt lat="45.7922677039114" lon="9.661263630203974"><ele>304.0</ele><time>2026-04-25T09:56:30Z</time></trkpt><trkpt lat="45.792240981010245" lon="9.661363679711632"><ele>304.0</ele><time>2026-04-25T09:56:31Z</time></trkpt><trkpt lat="45.792224457033505" lon="9.661541969360746"><ele>304.0</ele><time>2026-04-25T09:56:33Z</time></trkpt><trkpt lat="45.79221149527609" lon="9.661720712913926"><ele>304.8</ele><time>2026-04-25T09:56:35Z</time></trkpt><trkpt lat="45.792197901357454" lon="9.661817173029503"><ele>305.59999999999997</ele><time>2026-04-25T09:56:36Z</time></trkpt><trkpt lat="45.792186367460964" lon="9.661917384958093"><ele>306.4</ele><time>2026-04-25T09:56:37Z</time></trkpt><trkpt lat="45.79216963477173" lon="9.662095458209524"><ele>307.2</ele><time>2026-04-25T09:56:39Z</time></trkpt><trkpt lat="45.792183150964014" lon="9.662184232515052"><ele>308.0</ele><time>2026-04-25T09:56:40Z</time></trkpt><trkpt lat="45.79216312433109" lon="9.66236722713936"><ele>308.4</ele><time>2026-04-25T09:56:42Z</time></trkpt><trkpt lat="45.79215624498887" lon="9.662544898448974"><ele>308.8</ele><time>2026-04-25T09:56:44Z</time></trkpt><trkpt lat="45.79214810989256" lon="9.662724459051663"><ele>309.2</ele><time>2026-04-25T09:56:46Z</time></trkpt><trkpt lat="45.792141383840736" lon="9.662901603908496"><ele>309.6</ele><time>2026-04-25T09:56:48Z</time></trkpt><trkpt lat="45.79214204815275" lon="9.662996052466557"><ele>310.0</ele><time>2026-04-25T09:56:49Z</time></trkpt><trkpt lat="45.792135995521114" lon="9.663176565983635"><ele>310.0</ele><time>2026-04-25T09:56:51Z</time></trkpt><trkpt lat="45.7921350354768" lon="9.66335514098027"><ele>310.0</ele><time>2026-04-25T09:56:53Z</time></trkpt><trkpt lat="45.79213742538728" lon="9.663542308162116"><ele>310.0</ele><time>2026-04-25T09:56:55Z</time></trkpt><trkpt lat="45.792139750783676" lon="9.663720940433826"><ele>310.0</ele><time>2026-04-25T09:56:57Z</time></trkpt><trkpt lat="45.79214227496351" lon="9.663811398150104"><ele>310.0</ele><time>2026-04-25T09:56:58Z</time></trkpt><trkpt lat="45.792147156244575" lon="9.66390521903542"><ele>310.0</ele><time>2026-04-25T09:56:59Z</time></trkpt><trkpt lat="45.79215739608016" lon="9.66399441495023"><ele>310.0</ele><time>2026-04-25T09:57:00Z</time></trkpt><trkpt lat="45.792190269885594" lon="9.664161381987135"><ele>310.0</ele><time>2026-04-25T09:57:02Z</time></trkpt><trkpt lat="45.79220850421211" lon="9.664258903117068"><ele>310.0</ele><time>2026-04-25T09:57:03Z</time></trkpt><trkpt lat="45.792231747568096" lon="9.66434858521085"><ele>310.0</ele><time>2026-04-25T09:57:04Z</time></trkpt><trkpt lat="45.79226230231006" lon="9.66443008864342"><ele>310.0</ele><time>2026-04-25T09:57:05Z</time></trkpt><trkpt lat="45.792324621542164" lon="9.664583554709356"><ele>310.0</ele><time>2026-04-25T09:57:07Z</time></trkpt><trkpt lat="45.79236631525056" lon="9.66475093631013"><ele>310.0</ele><time>2026-04-25T09:57:09Z</time></trkpt><trkpt lat="45.79239083054937" lon="9.664839147436574"><ele>310.0</ele><time>2026-04-25T09:57:10Z</time></trkpt><trkpt lat="45.79245013483471" lon="9.664996085688777"><ele>310.0</ele><time>2026-04-25T09:57:12Z</time></trkpt><trkpt lat="45.792499134452534" lon="9.665151324180963"><ele>310.0</ele><time>2026-04-25T09:57:14Z</time></trkpt><trkpt lat="45.792526278029015" lon="9.665239334230325"><ele>310.25</ele><time>2026-04-25T09:57:15Z</time></trkpt><trkpt lat="45.79257455121706" lon="9.665405261745017"><ele>310.5</ele><time>2026-04-25T09:57:17Z</time></trkpt><trkpt lat="45.79262650527168" lon="9.665568891804982"><ele>310.75</ele><time>2026-04-25T09:57:19Z</time></trkpt><trkpt lat="45.792677788012305" lon="9.6657367633007"><ele>311.0</ele><time>2026-04-25T09:57:21Z</time></trkpt><trkpt lat="45.79273672783633" lon="9.665898241039853"><ele>312.0</ele><time>2026-04-25T09:57:23Z</time></trkpt><trkpt lat="45.792790083979355" lon="9.666060154715863"><ele>313.0</ele><time>2026-04-25T09:57:25Z</time></trkpt><trkpt lat="45.79283765402454" lon="9.6662177657831"><ele>314.0</ele><time>2026-04-25T09:57:27Z</time></trkpt><trkpt lat="45.79288560197704" lon="9.666375105857627"><ele>315.0</ele><time>2026-04-25T09:57:29Z</time></trkpt><trkpt lat="45.792914047525386" lon="9.666459625858307"><ele>316.0</ele><time>2026-04-25T09:57:30Z</time></trkpt><trkpt lat="45.79296506962518" lon="9.666622576310836"><ele>316.2</ele><time>2026-04-25T09:57:32Z</time></trkpt><trkpt lat="45.79299483617835" lon="9.666703358665485"><ele>316.40000000000003</ele><time>2026-04-25T09:57:33Z</time></trkpt><trkpt lat="45.79304446098574" lon="9.6668622912689"><ele>316.6</ele><time>2026-04-25T09:57:35Z</time></trkpt><trkpt lat="45.79307648463397" lon="9.666944841043366"><ele>316.8</ele><time>2026-04-25T09:57:36Z</time></trkpt><trkpt lat="45.793125648743" lon="9.667108302757857"><ele>317.0</ele><time>2026-04-25T09:57:38Z</time></trkpt><trkpt lat="45.793182596695566" lon="9.667267288570557"><ele>317.2</ele><time>2026-04-25T09:57:40Z</time></trkpt><trkpt lat="45.79320843190177" lon="9.667355336665837"><ele>317.4</ele><time>2026-04-25T09:57:41Z</time></trkpt><trkpt lat="45.79326521751081" lon="9.6675130905108"><ele>317.6</ele><time>2026-04-25T09:57:43Z</time></trkpt><trkpt lat="45.793317721619324" lon="9.66767311978287"><ele>317.8</ele><time>2026-04-25T09:57:45Z</time></trkpt><trkpt lat="45.79337353357011" lon="9.667833225934825"><ele>318.0</ele><time>2026-04-25T09:57:47Z</time></trkpt><trkpt lat="45.79342676053712" lon="9.667989010276372"><ele>318.0</ele><time>2026-04-25T09:57:49Z</time></trkpt><trkpt lat="45.793454424361734" lon="9.66807121942166"><ele>318.0</ele><time>2026-04-25T09:57:50Z</time></trkpt><trkpt lat="45.793524607956606" lon="9.66822535617413"><ele>318.0</ele><time>2026-04-25T09:57:52Z</time></trkpt><trkpt lat="45.793597119047384" lon="9.668366216792734"><ele>318.0</ele><time>2026-04-25T09:57:54Z</time></trkpt><trkpt lat="45.79368195488162" lon="9.668502027403711"><ele>318.0</ele><time>2026-04-25T09:57:56Z</time></trkpt><trkpt lat="45.79373113857595" lon="9.668559636128135"><ele>318.25</ele><time>2026-04-25T09:57:57Z</time></trkpt><trkpt lat="45.79384019511059" lon="9.668657819013966"><ele>318.5</ele><time>2026-04-25T09:57:59Z</time></trkpt><trkpt lat="45.793945516109005" lon="9.668774061266115"><ele>318.75</ele><time>2026-04-25T09:58:01Z</time></trkpt><trkpt lat="45.794051326529406" lon="9.668877942365791"><ele>319.0</ele><time>2026-04-25T09:58:03Z</time></trkpt><trkpt lat="45.7941553947031" lon="9.668990769042821"><ele>319.0</ele><time>2026-04-25T09:58:05Z</time></trkpt><trkpt lat="45.79420400271128" lon="9.669050248889443"><ele>319.0</ele><time>2026-04-25T09:58:06Z</time></trkpt><trkpt lat="45.79429982548859" lon="9.669167123086732"><ele>319.0</ele><time>2026-04-25T09:58:08Z</time></trkpt><trkpt lat="45.79436032815964" lon="9.66921998888218"><ele>319.0</ele><time>2026-04-25T09:58:09Z</time></trkpt><trkpt lat="45.79446752972237" lon="9.669310429881117"><ele>319.0</ele><time>2026-04-25T09:58:11Z</time></trkpt><trkpt lat="45.79452623450839" lon="9.669353345548831"><ele>319.66666666666663</ele><time>2026-04-25T09:58:12Z</time></trkpt><trkpt lat="45.79458345023026" lon="9.669396201726956"><ele>320.3333333333333</ele><time>2026-04-25T09:58:13Z</time></trkpt><trkpt lat="45.794639956667794" lon="9.66943630794031"><ele>321.0</ele><time>2026-04-25T09:58:14Z</time></trkpt><trkpt lat="45.79469911731079" lon="9.66946849008626"><ele>321.6666666666667</ele><time>2026-04-25T09:58:15Z</time></trkpt><trkpt lat="45.794822148159284" lon="9.66953597391834"><ele>322.33333333333337</ele><time>2026-04-25T09:58:17Z</time></trkpt><trkpt lat="45.79493790324056" lon="9.66958568704728"><ele>323.0</ele><time>2026-04-25T09:58:19Z</time></trkpt><trkpt lat="45.7949959324187" lon="9.669625274648576"><ele>321.4</ele><time>2026-04-25T09:58:20Z</time></trkpt><trkpt lat="45.79508758891442" lon="9.669745775795674"><ele>319.79999999999995</ele><time>2026-04-25T09:58:22Z</time></trkpt><trkpt lat="45.7951811701777" lon="9.669858418709461"><ele>318.2</ele><time>2026-04-25T09:58:24Z</time></trkpt><trkpt lat="45.79524475818844" lon="9.670013311877875"><ele>316.6</ele><time>2026-04-25T09:58:26Z</time></trkpt><trkpt lat="45.79527394698962" lon="9.670095377158708"><ele>315.0</ele><time>2026-04-25T09:58:27Z</time></trkpt><trkpt lat="45.79532557812335" lon="9.670260691456745"><ele>314.8</ele><time>2026-04-25T09:58:29Z</time></trkpt><trkpt lat="45.79536245695268" lon="9.670339827295706"><ele>314.6</ele><time>2026-04-25T09:58:30Z</time></trkpt><trkpt lat="45.7954082068285" lon="9.670501860468622"><ele>314.4</ele><time>2026-04-25T09:58:32Z</time></trkpt><trkpt lat="45.79544581934626" lon="9.670580642024847"><ele>314.2</ele><time>2026-04-25T09:58:33Z</time></trkpt><trkpt lat="45.79549904583088" lon="9.670734306300309"><ele>314.0</ele><time>2026-04-25T09:58:35Z</time></trkpt><trkpt lat="45.79554959404733" lon="9.670893919708995"><ele>314.0</ele><time>2026-04-25T09:58:37Z</time></trkpt><trkpt lat="45.79557592136414" lon="9.670976292741035"><ele>314.0</ele><time>2026-04-25T09:58:38Z</time></trkpt><trkpt lat="45.79563216800845" lon="9.671121944760639"><ele>314.0</ele><time>2026-04-25T09:58:40Z</time></trkpt><trkpt lat="45.795682103877006" lon="9.67125158217812"><ele>314.0</ele><time>2026-04-25T09:58:42Z</time></trkpt><trkpt lat="45.79572960738098" lon="9.671395841814233"><ele>314.0</ele><time>2026-04-25T09:58:44Z</time></trkpt><trkpt lat="45.79580138666134" lon="9.67149916134417"><ele>317.4</ele><time>2026-04-25T09:58:46Z</time></trkpt><trkpt lat="45.795909896175466" lon="9.6715292530402"><ele>320.79999999999995</ele><time>2026-04-25T09:58:48Z</time></trkpt><trkpt lat="45.79601013411417" lon="9.67150217153657"><ele>324.20000000000005</ele><time>2026-04-25T09:58:50Z</time></trkpt><trkpt lat="45.79611889838464" lon="9.671478026261912"><ele>327.6</ele><time>2026-04-25T09:58:52Z</time></trkpt><trkpt lat="45.79616305530892" lon="9.671606991559475"><ele>331.0</ele><time>2026-04-25T09:58:54Z</time></trkpt><trkpt lat="45.796077235262146" lon="9.67170075328533"><ele>331.0</ele><time>2026-04-25T09:58:56Z</time></trkpt><trkpt lat="45.79597393745952" lon="9.671741935947061"><ele>331.0</ele><time>2026-04-25T09:58:58Z</time></trkpt><trkpt lat="45.79587798696355" lon="9.671837360605164"><ele>331.0</ele><time>2026-04-25T09:59:00Z</time></trkpt><trkpt lat="45.795781416813455" lon="9.671926430935144"><ele>331.0</ele><time>2026-04-25T09:59:02Z</time></trkpt><trkpt lat="45.79569098486347" lon="9.672025907741274"><ele>336.0</ele><time>2026-04-25T09:59:04Z</time></trkpt><trkpt lat="45.795608573111906" lon="9.672131566123976"><ele>341.0</ele><time>2026-04-25T09:59:06Z</time></trkpt><trkpt lat="45.79553487732698" lon="9.672258637309053"><ele>346.0</ele><time>2026-04-25T09:59:08Z</time></trkpt><trkpt lat="45.7954575470663" lon="9.672380016695078"><ele>351.0</ele><time>2026-04-25T09:59:10Z</time></trkpt><trkpt lat="45.795386429082335" lon="9.672516830670206"><ele>351.0</ele><time>2026-04-25T09:59:12Z</time></trkpt><trkpt lat="45.795353907133574" lon="9.672677833759831"><ele>351.0</ele><time>2026-04-25T09:59:14Z</time></trkpt><trkpt lat="45.795352473232086" lon="9.67284638424998"><ele>351.0</ele><time>2026-04-25T09:59:16Z</time></trkpt><trkpt lat="45.79536361830374" lon="9.673016608904957"><ele>351.0</ele><time>2026-04-25T09:59:18Z</time></trkpt><trkpt lat="45.79537730768475" lon="9.673180479403875"><ele>354.0</ele><time>2026-04-25T09:59:20Z</time></trkpt><trkpt lat="45.79538520781793" lon="9.673347229340562"><ele>357.0</ele><time>2026-04-25T09:59:22Z</time></trkpt><trkpt lat="45.7953684880194" lon="9.673509509372478"><ele>360.0</ele><time>2026-04-25T09:59:24Z</time></trkpt><trkpt lat="45.795350140730235" lon="9.673669936005046"><ele>363.0</ele><time>2026-04-25T09:59:26Z</time></trkpt><trkpt lat="45.79543845185487" lon="9.673777612991387"><ele>362.99999999999994</ele><time>2026-04-25T09:59:28Z</time></trkpt><trkpt lat="45.79550426526884" lon="9.673748109057916"><ele>363.0</ele><time>2026-04-25T09:59:29Z</time></trkpt><trkpt lat="45.795542163680004" lon="9.673674622406777"><ele>363.0</ele><time>2026-04-25T09:59:30Z</time></trkpt><trkpt lat="45.79554155126731" lon="9.673578411515884"><ele>363.0</ele><time>2026-04-25T09:59:31Z</time></trkpt><trkpt lat="45.79552558210383" lon="9.673486350381445"><ele>363.0</ele><time>2026-04-25T09:59:32Z</time></trkpt><trkpt lat="45.795505861066275" lon="9.673398241936457"><ele>362.99999999999994</ele><time>2026-04-25T09:59:33Z</time></trkpt><trkpt lat="45.79549074282417" lon="9.673306233445054"><ele>363.0</ele><time>2026-04-25T09:59:34Z</time></trkpt><trkpt lat="45.79547979215768" lon="9.673140372775972"><ele>363.0</ele><time>2026-04-25T09:59:36Z</time></trkpt><trkpt lat="45.79548319141927" lon="9.673041013896343"><ele>363.0</ele><time>2026-04-25T09:59:37Z</time></trkpt><trkpt lat="45.795488020512806" lon="9.672879306166127"><ele>363.0</ele><time>2026-04-25T09:59:39Z</time></trkpt><trkpt lat="45.79550404232442" lon="9.672710722642792"><ele>363.0</ele><time>2026-04-25T09:59:41Z</time></trkpt><trkpt lat="45.79557523737001" lon="9.672577634841929"><ele>363.0</ele><time>2026-04-25T09:59:43Z</time></trkpt><trkpt lat="45.795666407556" lon="9.672469575598058"><ele>363.25</ele><time>2026-04-25T09:59:45Z</time></trkpt><trkpt lat="45.79576382018877" lon="9.672371836080599"><ele>363.5</ele><time>2026-04-25T09:59:47Z</time></trkpt><trkpt lat="45.795858626470036" lon="9.672274646221952"><ele>363.75</ele><time>2026-04-25T09:59:49Z</time></trkpt><trkpt lat="45.79596141429675" lon="9.672193761491432"><ele>364.0</ele><time>2026-04-25T09:59:51Z</time></trkpt><trkpt lat="45.796075886381665" lon="9.672147168505274"><ele>364.0</ele><time>2026-04-25T09:59:53Z</time></trkpt><trkpt lat="45.796191426082906" lon="9.672107885530773"><ele>364.0</ele><time>2026-04-25T09:59:55Z</time></trkpt><trkpt lat="45.79630693171342" lon="9.672069146300007"><ele>364.0</ele><time>2026-04-25T09:59:57Z</time></trkpt><trkpt lat="45.79642355258315" lon="9.672033157074498"><ele>364.0</ele><time>2026-04-25T09:59:59Z</time></trkpt><trkpt lat="45.79653826458486" lon="9.671983845959499"><ele>364.0</ele><time>2026-04-25T10:00:01Z</time></trkpt><trkpt lat="45.79664788795575" lon="9.671969588219039"><ele>364.0</ele><time>2026-04-25T10:00:03Z</time></trkpt><trkpt lat="45.79675375129236" lon="9.672000917394024"><ele>364.0</ele><time>2026-04-25T10:00:05Z</time></trkpt><trkpt lat="45.7968713855004" lon="9.672027915361648"><ele>364.0</ele><time>2026-04-25T10:00:07Z</time></trkpt><trkpt lat="45.7969946381773" lon="9.671984671863061"><ele>361.79999999999995</ele><time>2026-04-25T10:00:09Z</time></trkpt><trkpt lat="45.79710612515098" lon="9.671914083333675"><ele>359.59999999999997</ele><time>2026-04-25T10:00:11Z</time></trkpt><trkpt lat="45.79716678251711" lon="9.671885426829933"><ele>357.4</ele><time>2026-04-25T10:00:12Z</time></trkpt><trkpt lat="45.79728168491577" lon="9.671857452831134"><ele>355.2</ele><time>2026-04-25T10:00:14Z</time></trkpt><trkpt lat="45.79734620211931" lon="9.671853005927801"><ele>353.0</ele><time>2026-04-25T10:00:15Z</time></trkpt><trkpt lat="45.79746186713947" lon="9.671855309803274"><ele>353.0</ele><time>2026-04-25T10:00:17Z</time></trkpt><trkpt lat="45.7975268458292" lon="9.671850795866034"><ele>353.0</ele><time>2026-04-25T10:00:18Z</time></trkpt><trkpt lat="45.79764930704507" lon="9.671835045652845"><ele>353.0</ele><time>2026-04-25T10:00:20Z</time></trkpt><trkpt lat="45.79776142614385" lon="9.671809759223297"><ele>353.0</ele><time>2026-04-25T10:00:22Z</time></trkpt><trkpt lat="45.79787697548176" lon="9.67179111953107"><ele>353.0</ele><time>2026-04-25T10:00:24Z</time></trkpt><trkpt lat="45.79798690038083" lon="9.671811921219993"><ele>353.2</ele><time>2026-04-25T10:00:26Z</time></trkpt><trkpt lat="45.79804163069168" lon="9.671873125989906"><ele>353.4</ele><time>2026-04-25T10:00:27Z</time></trkpt><trkpt lat="45.798138033557684" lon="9.671981024593501"><ele>353.59999999999997</ele><time>2026-04-25T10:00:29Z</time></trkpt><trkpt lat="45.79823289134648" lon="9.672078741190207"><ele>353.79999999999995</ele><time>2026-04-25T10:00:31Z</time></trkpt><trkpt lat="45.798332461025026" lon="9.672181222787616"><ele>354.0</ele><time>2026-04-25T10:00:33Z</time></trkpt><trkpt lat="45.7984322914155" lon="9.672274907686443"><ele>357.5</ele><time>2026-04-25T10:00:35Z</time></trkpt><trkpt lat="45.79852605550513" lon="9.672380959833824"><ele>361.0</ele><time>2026-04-25T10:00:37Z</time></trkpt><trkpt lat="45.79862633376363" lon="9.672470349937933"><ele>364.5</ele><time>2026-04-25T10:00:39Z</time></trkpt><trkpt lat="45.798739502516014" lon="9.672536421676979"><ele>368.0</ele><time>2026-04-25T10:00:41Z</time></trkpt><trkpt lat="45.79885821868659" lon="9.672556925052168"><ele>368.0</ele><time>2026-04-25T10:00:43Z</time></trkpt><trkpt lat="45.798978183142225" lon="9.672572376314434"><ele>368.0</ele><time>2026-04-25T10:00:45Z</time></trkpt><trkpt lat="45.79905131387064" lon="9.672694528196688"><ele>368.0</ele><time>2026-04-25T10:00:47Z</time></trkpt><trkpt lat="45.7990182347612" lon="9.672781278068232"><ele>368.0</ele><time>2026-04-25T10:00:48Z</time></trkpt><trkpt lat="45.798952619730834" lon="9.672827123299475"><ele>368.0</ele><time>2026-04-25T10:00:49Z</time></trkpt><trkpt lat="45.79888698371123" lon="9.672818647798735"><ele>368.0</ele><time>2026-04-25T10:00:50Z</time></trkpt><trkpt lat="45.798820866910376" lon="9.672781581172297"><ele>368.0</ele><time>2026-04-25T10:00:51Z</time></trkpt><trkpt lat="45.79870611026678" lon="9.672767070983772"><ele>368.0</ele><time>2026-04-25T10:00:53Z</time></trkpt><trkpt lat="45.798591524359374" lon="9.672754990621252"><ele>368.0</ele><time>2026-04-25T10:00:55Z</time></trkpt><trkpt lat="45.79847233058451" lon="9.67277201299841"><ele>368.0</ele><time>2026-04-25T10:00:57Z</time></trkpt><trkpt lat="45.79836916217089" lon="9.672854420652612"><ele>371.25</ele><time>2026-04-25T10:00:59Z</time></trkpt><trkpt lat="45.79828957540282" lon="9.672987422851032"><ele>374.5</ele><time>2026-04-25T10:01:01Z</time></trkpt><trkpt lat="45.79824553320589" lon="9.673150137100997"><ele>377.75</ele><time>2026-04-25T10:01:03Z</time></trkpt><trkpt lat="45.7981887809074" lon="9.67329939302862"><ele>381.0</ele><time>2026-04-25T10:01:05Z</time></trkpt><trkpt lat="45.79809890029261" lon="9.673408840262066"><ele>381.0</ele><time>2026-04-25T10:01:07Z</time></trkpt><trkpt lat="45.79798100096413" lon="9.673454047806434"><ele>381.0</ele><time>2026-04-25T10:01:09Z</time></trkpt><trkpt lat="45.79786112742073" lon="9.673419609478369"><ele>381.0</ele><time>2026-04-25T10:01:11Z</time></trkpt><trkpt lat="45.79775429564375" lon="9.673349475298728"><ele>381.0</ele><time>2026-04-25T10:01:13Z</time></trkpt><trkpt lat="45.797643584834866" lon="9.673290654193098"><ele>381.75</ele><time>2026-04-25T10:01:15Z</time></trkpt><trkpt lat="45.79752902206664" lon="9.673227182257126"><ele>382.5</ele><time>2026-04-25T10:01:17Z</time></trkpt><trkpt lat="45.79741613828546" lon="9.673170447972504"><ele>383.25</ele><time>2026-04-25T10:01:19Z</time></trkpt><trkpt lat="45.797296903621486" lon="9.673167859100488"><ele>384.0</ele><time>2026-04-25T10:01:21Z</time></trkpt><trkpt lat="45.797182777224435" lon="9.673236845363807"><ele>384.0</ele><time>2026-04-25T10:01:23Z</time></trkpt><trkpt lat="45.797083586677154" lon="9.67334430207954"><ele>384.0</ele><time>2026-04-25T10:01:25Z</time></trkpt><trkpt lat="45.797029043649836" lon="9.673496285722516"><ele>384.0</ele><time>2026-04-25T10:01:27Z</time></trkpt><trkpt lat="45.797006388618755" lon="9.673665764241303"><ele>384.0</ele><time>2026-04-25T10:01:29Z</time></trkpt><trkpt lat="45.79700723725484" lon="9.67383671014503"><ele>386.79999999999995</ele><time>2026-04-25T10:01:31Z</time></trkpt><trkpt lat="45.797021619488056" lon="9.674003987079505"><ele>389.59999999999997</ele><time>2026-04-25T10:01:33Z</time></trkpt><trkpt lat="45.79704076869743" lon="9.674166504348525"><ele>392.4</ele><time>2026-04-25T10:01:35Z</time></trkpt><trkpt lat="45.79707060125895" lon="9.674327077330403"><ele>395.2</ele><time>2026-04-25T10:01:37Z</time></trkpt><trkpt lat="45.797087440051605" lon="9.674418085336633"><ele>398.0</ele><time>2026-04-25T10:01:38Z</time></trkpt><trkpt lat="45.7971147945223" lon="9.67458045293568"><ele>398.5</ele><time>2026-04-25T10:01:40Z</time></trkpt><trkpt lat="45.79714638502677" lon="9.674743814305032"><ele>399.0</ele><time>2026-04-25T10:01:42Z</time></trkpt><trkpt lat="45.79717694085799" lon="9.674903333999058"><ele>399.5</ele><time>2026-04-25T10:01:44Z</time></trkpt><trkpt lat="45.79720260992134" lon="9.675059244683354"><ele>400.0</ele><time>2026-04-25T10:01:46Z</time></trkpt><trkpt lat="45.79723239128182" lon="9.675218509609635"><ele>401.25</ele><time>2026-04-25T10:01:48Z</time></trkpt><trkpt lat="45.79724252417681" lon="9.675380910530773"><ele>402.5</ele><time>2026-04-25T10:01:50Z</time></trkpt><trkpt lat="45.797257816930305" lon="9.675552035142587"><ele>403.75</ele><time>2026-04-25T10:01:52Z</time></trkpt><trkpt lat="45.79725729849015" lon="9.675710132501997"><ele>405.0</ele><time>2026-04-25T10:01:54Z</time></trkpt><trkpt lat="45.7972645865111" lon="9.675878157119653"><ele>405.0</ele><time>2026-04-25T10:01:56Z</time></trkpt><trkpt lat="45.79727044875168" lon="9.676039189224467"><ele>405.0</ele><time>2026-04-25T10:01:58Z</time></trkpt><trkpt lat="45.79725015438897" lon="9.676206383117021"><ele>405.0</ele><time>2026-04-25T10:02:00Z</time></trkpt><trkpt lat="45.79719641876146" lon="9.676360548596485"><ele>405.0</ele><time>2026-04-25T10:02:02Z</time></trkpt><trkpt lat="45.79712162185176" lon="9.676492735419426"><ele>405.6</ele><time>2026-04-25T10:02:04Z</time></trkpt><trkpt lat="45.797076141598396" lon="9.676557064901498"><ele>406.2</ele><time>2026-04-25T10:02:05Z</time></trkpt><trkpt lat="45.79698938051754" lon="9.676659767292675"><ele>406.79999999999995</ele><time>2026-04-25T10:02:07Z</time></trkpt><trkpt lat="45.79690519255746" lon="9.67675603618712"><ele>407.4</ele><time>2026-04-25T10:02:09Z</time></trkpt><trkpt lat="45.79681736723564" lon="9.67688247659791"><ele>408.0</ele><time>2026-04-25T10:02:11Z</time></trkpt><trkpt lat="45.79676493667007" lon="9.676952541494344"><ele>408.4</ele><time>2026-04-25T10:02:12Z</time></trkpt><trkpt lat="45.796680155897015" lon="9.67704980019516"><ele>408.79999999999995</ele><time>2026-04-25T10:02:14Z</time></trkpt><trkpt lat="45.79659344967933" lon="9.677158478615858"><ele>409.2</ele><time>2026-04-25T10:02:16Z</time></trkpt><trkpt lat="45.79651522393769" lon="9.677279569523442"><ele>409.6</ele><time>2026-04-25T10:02:18Z</time></trkpt><trkpt lat="45.79647457422809" lon="9.677351431497774"><ele>410.0</ele><time>2026-04-25T10:02:19Z</time></trkpt><trkpt lat="45.79637875536816" lon="9.677461807031396"><ele>409.99999999999994</ele><time>2026-04-25T10:02:21Z</time></trkpt><trkpt lat="45.7962829218949" lon="9.677570474706965"><ele>410.0</ele><time>2026-04-25T10:02:23Z</time></trkpt><trkpt lat="45.79623391074637" lon="9.677631140411599"><ele>410.0</ele><time>2026-04-25T10:02:24Z</time></trkpt><trkpt lat="45.7961871819474" lon="9.67769225330434"><ele>410.0</ele><time>2026-04-25T10:02:25Z</time></trkpt><trkpt lat="45.79614360007436" lon="9.677760333398522"><ele>409.99999999999994</ele><time>2026-04-25T10:02:26Z</time></trkpt><trkpt lat="45.796096639327956" lon="9.67782366498672"><ele>410.0</ele><time>2026-04-25T10:02:27Z</time></trkpt><trkpt lat="45.79601402158565" lon="9.677962558075526"><ele>409.6</ele><time>2026-04-25T10:02:29Z</time></trkpt><trkpt lat="45.79596934508151" lon="9.678029057084556"><ele>409.2</ele><time>2026-04-25T10:02:30Z</time></trkpt><trkpt lat="45.795888831098424" lon="9.678170211305437"><ele>408.79999999999995</ele><time>2026-04-25T10:02:32Z</time></trkpt><trkpt lat="45.79581534646176" lon="9.678304793994833"><ele>408.4</ele><time>2026-04-25T10:02:34Z</time></trkpt><trkpt lat="45.79573783420416" lon="9.67844006922337"><ele>408.0</ele><time>2026-04-25T10:02:36Z</time></trkpt><trkpt lat="45.79569916185" lon="9.678511497313444"><ele>408.5</ele><time>2026-04-25T10:02:37Z</time></trkpt><trkpt lat="45.795626407626585" lon="9.678650349472525"><ele>409.0</ele><time>2026-04-25T10:02:39Z</time></trkpt><trkpt lat="45.79555942833375" lon="9.678785487605746"><ele>409.5</ele><time>2026-04-25T10:02:41Z</time></trkpt><trkpt lat="45.79548610663437" lon="9.67891480969589"><ele>410.0</ele><time>2026-04-25T10:02:43Z</time></trkpt><trkpt lat="45.795428371841275" lon="9.679062676457638"><ele>410.0</ele><time>2026-04-25T10:02:45Z</time></trkpt><trkpt lat="45.795408178889616" lon="9.679233256829237"><ele>410.0</ele><time>2026-04-25T10:02:47Z</time></trkpt><trkpt lat="45.795419635387425" lon="9.679323617502323"><ele>410.0</ele><time>2026-04-25T10:02:48Z</time></trkpt><trkpt lat="45.79548733623817" lon="9.679464146046666"><ele>410.0</ele><time>2026-04-25T10:02:50Z</time></trkpt><trkpt lat="45.795598081907954" lon="9.679534052440902"><ele>410.0</ele><time>2026-04-25T10:02:52Z</time></trkpt><trkpt lat="45.795719616495276" lon="9.679532941149603"><ele>410.5</ele><time>2026-04-25T10:02:54Z</time></trkpt><trkpt lat="45.79583330110714" lon="9.679504779116806"><ele>411.0</ele><time>2026-04-25T10:02:56Z</time></trkpt><trkpt lat="45.79594463182463" lon="9.67946411175243"><ele>411.5</ele><time>2026-04-25T10:02:58Z</time></trkpt><trkpt lat="45.79605179464115" lon="9.679405214665037"><ele>412.0</ele><time>2026-04-25T10:03:00Z</time></trkpt><trkpt lat="45.796166784159986" lon="9.679381259199593"><ele>413.20000000000005</ele><time>2026-04-25T10:03:02Z</time></trkpt><trkpt lat="45.79627376401064" lon="9.679369347649278"><ele>414.4</ele><time>2026-04-25T10:03:04Z</time></trkpt><trkpt lat="45.79633839979962" lon="9.679349793775467"><ele>415.6</ele><time>2026-04-25T10:03:05Z</time></trkpt><trkpt lat="45.796430706283616" lon="9.67926382646557"><ele>416.79999999999995</ele><time>2026-04-25T10:03:07Z</time></trkpt><trkpt lat="45.79651744657049" lon="9.67913808200027"><ele>418.0</ele><time>2026-04-25T10:03:09Z</time></trkpt><trkpt lat="45.79661920675976" lon="9.679049679813545"><ele>418.0</ele><time>2026-04-25T10:03:11Z</time></trkpt><trkpt lat="45.796736618041436" lon="9.679011967780232"><ele>418.0</ele><time>2026-04-25T10:03:13Z</time></trkpt><trkpt lat="45.796849441207" lon="9.678960915825314"><ele>418.0</ele><time>2026-04-25T10:03:15Z</time></trkpt><trkpt lat="45.79697099429764" lon="9.678937637438509"><ele>418.0</ele><time>2026-04-25T10:03:17Z</time></trkpt><trkpt lat="45.79709039057137" lon="9.67893574712128"><ele>420.0</ele><time>2026-04-25T10:03:19Z</time></trkpt><trkpt lat="45.79720459839441" lon="9.678976336419863"><ele>422.0</ele><time>2026-04-25T10:03:21Z</time></trkpt><trkpt lat="45.79732023765004" lon="9.679020800828724"><ele>424.0</ele><time>2026-04-25T10:03:23Z</time></trkpt><trkpt lat="45.79743482478822" lon="9.679062866004028"><ele>426.0</ele><time>2026-04-25T10:03:25Z</time></trkpt><trkpt lat="45.79755115783061" lon="9.679098397667149"><ele>426.0</ele><time>2026-04-25T10:03:27Z</time></trkpt><trkpt lat="45.797662152076725" lon="9.67911203115421"><ele>426.0</ele><time>2026-04-25T10:03:29Z</time></trkpt><trkpt lat="45.79772791758514" lon="9.679112617308657"><ele>426.0</ele><time>2026-04-25T10:03:30Z</time></trkpt><trkpt lat="45.7978453070159" lon="9.679094024622568"><ele>426.0</ele><time>2026-04-25T10:03:32Z</time></trkpt><trkpt lat="45.797961651926244" lon="9.67911346395283"><ele>426.0</ele><time>2026-04-25T10:03:34Z</time></trkpt><trkpt lat="45.7980296018722" lon="9.679257233073425"><ele>428.5</ele><time>2026-04-25T10:03:36Z</time></trkpt><trkpt lat="45.798024916482596" lon="9.679421857126444"><ele>431.0</ele><time>2026-04-25T10:03:38Z</time></trkpt><trkpt lat="45.79793099274929" lon="9.679529937598124"><ele>433.5</ele><time>2026-04-25T10:03:40Z</time></trkpt><trkpt lat="45.79781803507598" lon="9.679580287371301"><ele>436.0</ele><time>2026-04-25T10:03:42Z</time></trkpt><trkpt lat="45.79770233918697" lon="9.679601123937273"><ele>437.0</ele><time>2026-04-25T10:03:44Z</time></trkpt><trkpt lat="45.79758860055617" lon="9.679618674330134"><ele>438.0</ele><time>2026-04-25T10:03:46Z</time></trkpt><trkpt lat="45.797472522826695" lon="9.679648779474308"><ele>439.0</ele><time>2026-04-25T10:03:48Z</time></trkpt><trkpt lat="45.797360782623294" lon="9.679648826122422"><ele>440.0</ele><time>2026-04-25T10:03:50Z</time></trkpt><trkpt lat="45.79727610797012" lon="9.679750401863283"><ele>439.99999999999994</ele><time>2026-04-25T10:03:52Z</time></trkpt><trkpt lat="45.79728903067382" lon="9.679842941717515"><ele>440.0</ele><time>2026-04-25T10:03:53Z</time></trkpt><trkpt lat="45.79732611610745" lon="9.679922355093778"><ele>440.0</ele><time>2026-04-25T10:03:54Z</time></trkpt><trkpt lat="45.79738805715799" lon="9.679946495817214"><ele>440.0</ele><time>2026-04-25T10:03:55Z</time></trkpt><trkpt lat="45.79745288688821" lon="9.679943444787583"><ele>439.99999999999994</ele><time>2026-04-25T10:03:56Z</time></trkpt><trkpt lat="45.797573210980474" lon="9.679902623440267"><ele>440.0</ele><time>2026-04-25T10:03:58Z</time></trkpt><trkpt lat="45.79768948793221" lon="9.679871179165424"><ele>442.2</ele><time>2026-04-25T10:04:00Z</time></trkpt><trkpt lat="45.79779267059069" lon="9.679832408871782"><ele>444.4</ele><time>2026-04-25T10:04:02Z</time></trkpt><trkpt lat="45.79790400889086" lon="9.679803998267568"><ele>446.6</ele><time>2026-04-25T10:04:04Z</time></trkpt><trkpt lat="45.79796716272242" lon="9.679781546181658"><ele>448.8</ele><time>2026-04-25T10:04:05Z</time></trkpt><trkpt lat="45.79803007909697" lon="9.679758963316981"><ele>451.0</ele><time>2026-04-25T10:04:06Z</time></trkpt><trkpt lat="45.798145133567985" lon="9.67967872753111"><ele>451.0</ele><time>2026-04-25T10:04:08Z</time></trkpt><trkpt lat="45.79820057137061" lon="9.679630113505896"><ele>451.0</ele><time>2026-04-25T10:04:09Z</time></trkpt><trkpt lat="45.79830022413204" lon="9.679524538202017"><ele>451.0</ele><time>2026-04-25T10:04:11Z</time></trkpt><trkpt lat="45.798396276676286" lon="9.679428905609145"><ele>451.0</ele><time>2026-04-25T10:04:13Z</time></trkpt><trkpt lat="45.79849522090452" lon="9.679337465314314"><ele>451.0</ele><time>2026-04-25T10:04:15Z</time></trkpt><trkpt lat="45.79859987853915" lon="9.67926843488429"><ele>449.25</ele><time>2026-04-25T10:04:17Z</time></trkpt><trkpt lat="45.798710626408926" lon="9.679235087125134"><ele>447.5</ele><time>2026-04-25T10:04:19Z</time></trkpt><trkpt lat="45.79882670389395" lon="9.67923566349337"><ele>445.75</ele><time>2026-04-25T10:04:21Z</time></trkpt><trkpt lat="45.798945802530355" lon="9.679231354748907"><ele>444.0</ele><time>2026-04-25T10:04:23Z</time></trkpt><trkpt lat="45.799060533996276" lon="9.679204501795791"><ele>444.0</ele><time>2026-04-25T10:04:25Z</time></trkpt><trkpt lat="45.799169164564304" lon="9.679130150661084"><ele>444.0</ele><time>2026-04-25T10:04:27Z</time></trkpt><trkpt lat="45.79927139675831" lon="9.679054619541159"><ele>444.0</ele><time>2026-04-25T10:04:29Z</time></trkpt><trkpt lat="45.79939289780227" lon="9.679022321998046"><ele>444.0</ele><time>2026-04-25T10:04:31Z</time></trkpt><trkpt lat="45.799500944335975" lon="9.679064603482107"><ele>444.79999999999995</ele><time>2026-04-25T10:04:33Z</time></trkpt><trkpt lat="45.79959928382299" lon="9.679151971882554"><ele>445.59999999999997</ele><time>2026-04-25T10:04:35Z</time></trkpt><trkpt lat="45.79965602023483" lon="9.679289894782316"><ele>446.4</ele><time>2026-04-25T10:04:37Z</time></trkpt><trkpt lat="45.79969700067438" lon="9.679436440779677"><ele>447.2</ele><time>2026-04-25T10:04:39Z</time></trkpt><trkpt lat="45.79972721061083" lon="9.679585740663928"><ele>448.0</ele><time>2026-04-25T10:04:41Z</time></trkpt><trkpt lat="45.799802552613095" lon="9.679704661546321"><ele>454.25</ele><time>2026-04-25T10:04:43Z</time></trkpt><trkpt lat="45.79991285599493" lon="9.679717353888808"><ele>460.5</ele><time>2026-04-25T10:04:45Z</time></trkpt><trkpt lat="45.800015183682454" lon="9.67961936151334"><ele>466.75</ele><time>2026-04-25T10:04:47Z</time></trkpt><trkpt lat="45.80009452735789" lon="9.679503627129014"><ele>473.0</ele><time>2026-04-25T10:04:49Z</time></trkpt><trkpt lat="45.80019912277433" lon="9.679440068177982"><ele>470.4</ele><time>2026-04-25T10:04:51Z</time></trkpt><trkpt lat="45.80031108220605" lon="9.679424780266157"><ele>467.79999999999995</ele><time>2026-04-25T10:04:53Z</time></trkpt><trkpt lat="45.80042132500101" lon="9.679428305397115"><ele>465.2</ele><time>2026-04-25T10:04:55Z</time></trkpt><trkpt lat="45.80053265071936" lon="9.679429540420124"><ele>462.6</ele><time>2026-04-25T10:04:57Z</time></trkpt><trkpt lat="45.80064173999229" lon="9.679423773637577"><ele>460.0</ele><time>2026-04-25T10:04:59Z</time></trkpt><trkpt lat="45.800751592144245" lon="9.679395325155719"><ele>460.0</ele><time>2026-04-25T10:05:01Z</time></trkpt><trkpt lat="45.80085826752667" lon="9.679342554118852"><ele>460.0</ele><time>2026-04-25T10:05:03Z</time></trkpt><trkpt lat="45.800958560394484" lon="9.679260348309588"><ele>460.0</ele><time>2026-04-25T10:05:05Z</time></trkpt><trkpt lat="45.80103144103976" lon="9.679138272633615"><ele>460.0</ele><time>2026-04-25T10:05:07Z</time></trkpt><trkpt lat="45.80110109733165" lon="9.679009457884076"><ele>460.0</ele><time>2026-04-25T10:05:09Z</time></trkpt><trkpt lat="45.80120327577661" lon="9.678938546554113"><ele>460.0</ele><time>2026-04-25T10:05:11Z</time></trkpt><trkpt lat="45.80131795635378" lon="9.678933272704066"><ele>460.0</ele><time>2026-04-25T10:05:13Z</time></trkpt><trkpt lat="45.801412469998255" lon="9.67903124341554"><ele>460.0</ele><time>2026-04-25T10:05:15Z</time></trkpt><trkpt lat="45.80147500125172" lon="9.67917035942636"><ele>460.0</ele><time>2026-04-25T10:05:17Z</time></trkpt><trkpt lat="45.80152918283146" lon="9.679302136602784"><ele>460.0</ele><time>2026-04-25T10:05:19Z</time></trkpt><trkpt lat="45.80155644814363" lon="9.679461087807578"><ele>460.0</ele><time>2026-04-25T10:05:21Z</time></trkpt><trkpt lat="45.80158044579539" lon="9.679621615791236"><ele>460.0</ele><time>2026-04-25T10:05:23Z</time></trkpt><trkpt lat="45.80162020130329" lon="9.679776337246803"><ele>462.5</ele><time>2026-04-25T10:05:25Z</time></trkpt><trkpt lat="45.80167170687813" lon="9.679921296558696"><ele>465.0</ele><time>2026-04-25T10:05:27Z</time></trkpt><trkpt lat="45.80175108061137" lon="9.680041600061484"><ele>467.5</ele><time>2026-04-25T10:05:29Z</time></trkpt><trkpt lat="45.80184467203899" lon="9.680142614380173"><ele>470.0</ele><time>2026-04-25T10:05:31Z</time></trkpt><trkpt lat="45.80195004043482" lon="9.680222486721037"><ele>475.25</ele><time>2026-04-25T10:05:33Z</time></trkpt><trkpt lat="45.802047437432094" lon="9.680295297620447"><ele>480.5</ele><time>2026-04-25T10:05:35Z</time></trkpt><trkpt lat="45.802151719394885" lon="9.680359893875746"><ele>485.75</ele><time>2026-04-25T10:05:37Z</time></trkpt><trkpt lat="45.80226280206037" lon="9.680423757674829"><ele>491.0</ele><time>2026-04-25T10:05:39Z</time></trkpt><trkpt lat="45.80237520855756" lon="9.680472847277493"><ele>491.0</ele><time>2026-04-25T10:05:41Z</time></trkpt><trkpt lat="45.80248300667138" lon="9.680538305285417"><ele>491.0</ele><time>2026-04-25T10:05:43Z</time></trkpt><trkpt lat="45.80259655900055" lon="9.680583157079068"><ele>491.0</ele><time>2026-04-25T10:05:45Z</time></trkpt><trkpt lat="45.802712893333286" lon="9.680587984412481"><ele>491.0</ele><time>2026-04-25T10:05:47Z</time></trkpt><trkpt lat="45.80282203679793" lon="9.68055366110281"><ele>492.0</ele><time>2026-04-25T10:05:49Z</time></trkpt><trkpt lat="45.8029241234892" lon="9.680509101765649"><ele>493.0</ele><time>2026-04-25T10:05:51Z</time></trkpt><trkpt lat="45.80298620479394" lon="9.68047839609898"><ele>494.0</ele><time>2026-04-25T10:05:52Z</time></trkpt><trkpt lat="45.803086873951095" lon="9.680417712562937"><ele>495.0</ele><time>2026-04-25T10:05:54Z</time></trkpt><trkpt lat="45.80319892126748" lon="9.680360617648109"><ele>496.0</ele><time>2026-04-25T10:05:56Z</time></trkpt><trkpt lat="45.80330151799646" lon="9.680293154140822"><ele>492.5</ele><time>2026-04-25T10:05:58Z</time></trkpt><trkpt lat="45.803403941138065" lon="9.680234212749292"><ele>489.0</ele><time>2026-04-25T10:06:00Z</time></trkpt><trkpt lat="45.803508172565245" lon="9.680172954502675"><ele>485.5</ele><time>2026-04-25T10:06:02Z</time></trkpt><trkpt lat="45.80361417670468" lon="9.680108685444823"><ele>482.0</ele><time>2026-04-25T10:06:04Z</time></trkpt><trkpt lat="45.803716820577904" lon="9.680041522956603"><ele>481.0</ele><time>2026-04-25T10:06:06Z</time></trkpt><trkpt lat="45.80379745204402" lon="9.680015119673834"><ele>480.00000000000006</ele><time>2026-04-25T10:06:08Z</time></trkpt><trkpt lat="45.80385647774811" lon="9.680111038808011"><ele>479.00000000000006</ele><time>2026-04-25T10:06:09Z</time></trkpt><trkpt lat="45.8039147932869" lon="9.680182449883002"><ele>478.0</ele><time>2026-04-25T10:06:10Z</time></trkpt><trkpt lat="45.803795428144866" lon="9.680260300180064"><ele>477.0</ele><time>2026-04-25T10:06:11Z</time></trkpt><trkpt lat="45.80373149714034" lon="9.680301341158454"><ele>477.0</ele><time>2026-04-25T10:06:12Z</time></trkpt><trkpt lat="45.8036688043131" lon="9.68032629599422"><ele>477.00000000000006</ele><time>2026-04-25T10:06:13Z</time></trkpt><trkpt lat="45.80356062546769" lon="9.68036740239084"><ele>477.00000000000006</ele><time>2026-04-25T10:06:15Z</time></trkpt><trkpt lat="45.80345620847031" lon="9.68045130656733"><ele>477.0</ele><time>2026-04-25T10:06:17Z</time></trkpt><trkpt lat="45.803354999502574" lon="9.680532914965596"><ele>477.0</ele><time>2026-04-25T10:06:19Z</time></trkpt><trkpt lat="45.80326632141636" lon="9.680627632143866"><ele>480.8</ele><time>2026-04-25T10:06:21Z</time></trkpt><trkpt lat="45.80319243323262" lon="9.680742302365536"><ele>484.6</ele><time>2026-04-25T10:06:23Z</time></trkpt><trkpt lat="45.803107317497705" lon="9.680845355354457"><ele>488.40000000000003</ele><time>2026-04-25T10:06:25Z</time></trkpt><trkpt lat="45.80303020318544" lon="9.680957969700113"><ele>492.20000000000005</ele><time>2026-04-25T10:06:27Z</time></trkpt><trkpt lat="45.80296282614731" lon="9.68108685336188"><ele>496.0</ele><time>2026-04-25T10:06:29Z</time></trkpt><trkpt lat="45.80290213547411" lon="9.681233051691233"><ele>496.8</ele><time>2026-04-25T10:06:31Z</time></trkpt><trkpt lat="45.80284628379827" lon="9.681368957068855"><ele>497.6</ele><time>2026-04-25T10:06:33Z</time></trkpt><trkpt lat="45.8027932589236" lon="9.681510988709382"><ele>498.4</ele><time>2026-04-25T10:06:35Z</time></trkpt><trkpt lat="45.80273142286948" lon="9.681641162739254"><ele>499.2</ele><time>2026-04-25T10:06:37Z</time></trkpt><trkpt lat="45.80263787674578" lon="9.68172155066264"><ele>500.0</ele><time>2026-04-25T10:06:39Z</time></trkpt><trkpt lat="45.802531443031405" lon="9.681761746565591"><ele>503.0</ele><time>2026-04-25T10:06:41Z</time></trkpt><trkpt lat="45.802424330458656" lon="9.681788056573861"><ele>506.0</ele><time>2026-04-25T10:06:43Z</time></trkpt><trkpt lat="45.80231601830397" lon="9.681768504384499"><ele>509.0</ele><time>2026-04-25T10:06:45Z</time></trkpt><trkpt lat="45.8022051630009" lon="9.681738861513425"><ele>512.0</ele><time>2026-04-25T10:06:47Z</time></trkpt><trkpt lat="45.802098817364474" lon="9.68170940797047"><ele>515.0</ele><time>2026-04-25T10:06:49Z</time></trkpt><trkpt lat="45.80199099318848" lon="9.681675084422254"><ele>515.0</ele><time>2026-04-25T10:06:51Z</time></trkpt><trkpt lat="45.80187791441295" lon="9.681619583935378"><ele>515.0</ele><time>2026-04-25T10:06:53Z</time></trkpt><trkpt lat="45.80176915074673" lon="9.681595693367724"><ele>515.0</ele><time>2026-04-25T10:06:55Z</time></trkpt><trkpt lat="45.80166662705032" lon="9.681521067127829"><ele>515.0</ele><time>2026-04-25T10:06:57Z</time></trkpt><trkpt lat="45.80157390506986" lon="9.681461367537947"><ele>515.0</ele><time>2026-04-25T10:06:59Z</time></trkpt><trkpt lat="45.801475702129586" lon="9.681395781442736"><ele>518.4</ele><time>2026-04-25T10:07:01Z</time></trkpt><trkpt lat="45.80138070426689" lon="9.681325329027242"><ele>521.8</ele><time>2026-04-25T10:07:03Z</time></trkpt><trkpt lat="45.80129073019632" lon="9.681249943570505"><ele>525.2</ele><time>2026-04-25T10:07:05Z</time></trkpt><trkpt lat="45.80119169329655" lon="9.68118383920995"><ele>528.6</ele><time>2026-04-25T10:07:07Z</time></trkpt><trkpt lat="45.80108537153315" lon="9.681144280250125"><ele>532.0</ele><time>2026-04-25T10:07:09Z</time></trkpt><trkpt lat="45.80097897267806" lon="9.681156110122924"><ele>536.4</ele><time>2026-04-25T10:07:11Z</time></trkpt><trkpt lat="45.800874316079046" lon="9.681173948342398"><ele>540.8000000000001</ele><time>2026-04-25T10:07:13Z</time></trkpt><trkpt lat="45.80077166311513" lon="9.681213005040396"><ele>545.2</ele><time>2026-04-25T10:07:15Z</time></trkpt><trkpt lat="45.80067311540001" lon="9.681265885924592"><ele>549.6</ele><time>2026-04-25T10:07:17Z</time></trkpt><trkpt lat="45.80056753092405" lon="9.681307298575403"><ele>554.0</ele><time>2026-04-25T10:07:19Z</time></trkpt><trkpt lat="45.80050393352909" lon="9.681308453089308"><ele>554.0</ele><time>2026-04-25T10:07:20Z</time></trkpt><trkpt lat="45.8004027281509" lon="9.681356654223572"><ele>554.0</ele><time>2026-04-25T10:07:22Z</time></trkpt><trkpt lat="45.80029260959547" lon="9.68139497433485"><ele>554.0</ele><time>2026-04-25T10:07:24Z</time></trkpt><trkpt lat="45.8001964965217" lon="9.681430413562461"><ele>554.0</ele><time>2026-04-25T10:07:26Z</time></trkpt><trkpt lat="45.80012631156382" lon="9.681443450423231"><ele>554.0</ele><time>2026-04-25T10:07:27Z</time></trkpt><trkpt lat="45.80002985397191" lon="9.681467928449004"><ele>553.4</ele><time>2026-04-25T10:07:29Z</time></trkpt><trkpt lat="45.79991922793575" lon="9.681481303968733"><ele>552.8</ele><time>2026-04-25T10:07:31Z</time></trkpt><trkpt lat="45.79984990420977" lon="9.68146103217507"><ele>552.2</ele><time>2026-04-25T10:07:32Z</time></trkpt><trkpt lat="45.79975465597876" lon="9.681493859686947"><ele>551.6</ele><time>2026-04-25T10:07:34Z</time></trkpt><trkpt lat="45.799644893266176" lon="9.68148926559606"><ele>551.0</ele><time>2026-04-25T10:07:36Z</time></trkpt><trkpt lat="45.799535578017874" lon="9.68149146102855"><ele>551.0</ele><time>2026-04-25T10:07:38Z</time></trkpt><trkpt lat="45.799428378409125" lon="9.681493913847127"><ele>551.0</ele><time>2026-04-25T10:07:40Z</time></trkpt><trkpt lat="45.799318553531165" lon="9.681503351697886"><ele>551.0</ele><time>2026-04-25T10:07:42Z</time></trkpt><trkpt lat="45.7992541933398" lon="9.681511811690903"><ele>551.0</ele><time>2026-04-25T10:07:43Z</time></trkpt><trkpt lat="45.799152190413764" lon="9.681544345774714"><ele>551.0</ele><time>2026-04-25T10:07:45Z</time></trkpt><trkpt lat="45.79903970905147" lon="9.681580841739063"><ele>549.75</ele><time>2026-04-25T10:07:47Z</time></trkpt><trkpt lat="45.79893047519524" lon="9.681626943184835"><ele>548.5</ele><time>2026-04-25T10:07:49Z</time></trkpt><trkpt lat="45.798808373930946" lon="9.681681499845174"><ele>547.25</ele><time>2026-04-25T10:07:51Z</time></trkpt><trkpt lat="45.79871249714092" lon="9.681757627232397"><ele>546.0</ele><time>2026-04-25T10:07:53Z</time></trkpt><trkpt lat="45.79864893883865" lon="9.681896906891698"><ele>551.2</ele><time>2026-04-25T10:07:55Z</time></trkpt><trkpt lat="45.798608062908706" lon="9.68204684554804"><ele>556.4000000000001</ele><time>2026-04-25T10:07:57Z</time></trkpt><trkpt lat="45.79858260087132" lon="9.682202979937353"><ele>561.6</ele><time>2026-04-25T10:07:59Z</time></trkpt><trkpt lat="45.79859312914565" lon="9.682372915388449"><ele>566.8000000000001</ele><time>2026-04-25T10:08:01Z</time></trkpt><trkpt lat="45.79861277601996" lon="9.68251737307958"><ele>572.0</ele><time>2026-04-25T10:08:03Z</time></trkpt><trkpt lat="45.798657805953056" lon="9.682671212659017"><ele>572.0</ele><time>2026-04-25T10:08:05Z</time></trkpt><trkpt lat="45.798703490547204" lon="9.68281946867413"><ele>572.0</ele><time>2026-04-25T10:08:07Z</time></trkpt><trkpt lat="45.79875033468702" lon="9.682970827176222"><ele>572.0</ele><time>2026-04-25T10:08:09Z</time></trkpt><trkpt lat="45.79878790126101" lon="9.683121865173502"><ele>572.0</ele><time>2026-04-25T10:08:11Z</time></trkpt><trkpt lat="45.798808073320785" lon="9.683288018533316"><ele>572.0</ele><time>2026-04-25T10:08:13Z</time></trkpt><trkpt lat="45.7988181624662" lon="9.683453734214865"><ele>572.0</ele><time>2026-04-25T10:08:15Z</time></trkpt><trkpt lat="45.79883821677652" lon="9.683606706717764"><ele>572.0</ele><time>2026-04-25T10:08:17Z</time></trkpt><trkpt lat="45.79885467795819" lon="9.683762165213157"><ele>572.0</ele><time>2026-04-25T10:08:19Z</time></trkpt><trkpt lat="45.798893635371975" lon="9.683907259480796"><ele>572.0</ele><time>2026-04-25T10:08:21Z</time></trkpt><trkpt lat="45.798974362624485" lon="9.684043399209157"><ele>570.75</ele><time>2026-04-25T10:08:23Z</time></trkpt><trkpt lat="45.79905937996903" lon="9.68415665634803"><ele>569.5</ele><time>2026-04-25T10:08:25Z</time></trkpt><trkpt lat="45.799148971830434" lon="9.684261082648412"><ele>568.25</ele><time>2026-04-25T10:08:27Z</time></trkpt><trkpt lat="45.79922967569583" lon="9.6843847826781"><ele>567.0</ele><time>2026-04-25T10:08:29Z</time></trkpt><trkpt lat="45.799311399611724" lon="9.684491564580485"><ele>571.2</ele><time>2026-04-25T10:08:31Z</time></trkpt><trkpt lat="45.79938674514751" lon="9.684616660421135"><ele>575.4000000000001</ele><time>2026-04-25T10:08:33Z</time></trkpt><trkpt lat="45.799464196090895" lon="9.684729544801487"><ele>579.5999999999999</ele><time>2026-04-25T10:08:35Z</time></trkpt><trkpt lat="45.799541232158596" lon="9.684840510256612"><ele>583.8</ele><time>2026-04-25T10:08:37Z</time></trkpt><trkpt lat="45.79962268610734" lon="9.684955423146219"><ele>588.0</ele><time>2026-04-25T10:08:39Z</time></trkpt><trkpt lat="45.79968016991853" lon="9.685086071342221"><ele>588.0</ele><time>2026-04-25T10:08:41Z</time></trkpt><trkpt lat="45.79968424596161" lon="9.685241968043943"><ele>588.0</ele><time>2026-04-25T10:08:43Z</time></trkpt><trkpt lat="45.799653615551996" lon="9.685399516410687"><ele>588.0</ele><time>2026-04-25T10:08:45Z</time></trkpt><trkpt lat="45.799596491034336" lon="9.68554088843389"><ele>588.0</ele><time>2026-04-25T10:08:47Z</time></trkpt><trkpt lat="45.79952376055932" lon="9.685670045330092"><ele>590.0</ele><time>2026-04-25T10:08:49Z</time></trkpt><trkpt lat="45.79944850524459" lon="9.68579887844502"><ele>592.0</ele><time>2026-04-25T10:08:51Z</time></trkpt><trkpt lat="45.79935802811876" lon="9.685895037290356"><ele>594.0</ele><time>2026-04-25T10:08:53Z</time></trkpt><trkpt lat="45.79925320165725" lon="9.685990121452098"><ele>596.0</ele><time>2026-04-25T10:08:55Z</time></trkpt><trkpt lat="45.79914639449119" lon="9.686075734879093"><ele>594.25</ele><time>2026-04-25T10:08:57Z</time></trkpt><trkpt lat="45.79903087837457" lon="9.686124863632404"><ele>592.5</ele><time>2026-04-25T10:08:59Z</time></trkpt><trkpt lat="45.79891646301986" lon="9.68617920174607"><ele>590.75</ele><time>2026-04-25T10:09:01Z</time></trkpt><trkpt lat="45.79880433360514" lon="9.686235241381436"><ele>589.0</ele><time>2026-04-25T10:09:03Z</time></trkpt><trkpt lat="45.79869713711587" lon="9.68628121241495"><ele>589.0</ele><time>2026-04-25T10:09:05Z</time></trkpt><trkpt lat="45.79859662183039" lon="9.686360641046413"><ele>589.0</ele><time>2026-04-25T10:09:07Z</time></trkpt><trkpt lat="45.79849505721215" lon="9.686449677771364"><ele>589.0</ele><time>2026-04-25T10:09:09Z</time></trkpt><trkpt lat="45.79841180278808" lon="9.686537634336672"><ele>589.0</ele><time>2026-04-25T10:09:11Z</time></trkpt><trkpt lat="45.798314799433804" lon="9.686617924786676"><ele>589.0</ele><time>2026-04-25T10:09:13Z</time></trkpt><trkpt lat="45.79821769508985" lon="9.68669673331928"><ele>589.75</ele><time>2026-04-25T10:09:15Z</time></trkpt><trkpt lat="45.79812254559286" lon="9.686774390754131"><ele>590.5</ele><time>2026-04-25T10:09:17Z</time></trkpt><trkpt lat="45.79803050629397" lon="9.686868933197484"><ele>591.25</ele><time>2026-04-25T10:09:19Z</time></trkpt><trkpt lat="45.79797265115417" lon="9.687010547498465"><ele>592.0</ele><time>2026-04-25T10:09:21Z</time></trkpt><trkpt lat="45.797997594831855" lon="9.687168925554"><ele>592.0</ele><time>2026-04-25T10:09:23Z</time></trkpt><trkpt lat="45.798099844730245" lon="9.687257659068601"><ele>592.0</ele><time>2026-04-25T10:09:25Z</time></trkpt><trkpt lat="45.798218031587105" lon="9.687247976491223"><ele>592.0</ele><time>2026-04-25T10:09:27Z</time></trkpt><trkpt lat="45.798332277835" lon="9.687213602236673"><ele>592.0</ele><time>2026-04-25T10:09:29Z</time></trkpt><trkpt lat="45.798442714921265" lon="9.687159365998555"><ele>597.0</ele><time>2026-04-25T10:09:31Z</time></trkpt><trkpt lat="45.798551622889896" lon="9.68710743583983"><ele>602.0</ele><time>2026-04-25T10:09:33Z</time></trkpt><trkpt lat="45.798665670655595" lon="9.687055489528207"><ele>607.0</ele><time>2026-04-25T10:09:35Z</time></trkpt><trkpt lat="45.79877805441017" lon="9.686994623282086"><ele>612.0</ele><time>2026-04-25T10:09:37Z</time></trkpt><trkpt lat="45.7988940508997" lon="9.686946940932266"><ele>606.25</ele><time>2026-04-25T10:09:39Z</time></trkpt><trkpt lat="45.79900410542382" lon="9.686889841058637"><ele>600.5</ele><time>2026-04-25T10:09:41Z</time></trkpt><trkpt lat="45.799116920277086" lon="9.686831785313322"><ele>594.75</ele><time>2026-04-25T10:09:43Z</time></trkpt><trkpt lat="45.79922178064065" lon="9.686776654884083"><ele>589.0</ele><time>2026-04-25T10:09:45Z</time></trkpt><trkpt lat="45.799328988034766" lon="9.686709470572122"><ele>595.75</ele><time>2026-04-25T10:09:47Z</time></trkpt><trkpt lat="45.79943115618071" lon="9.68663472204806"><ele>602.5</ele><time>2026-04-25T10:09:49Z</time></trkpt><trkpt lat="45.79953156651207" lon="9.686539133633705"><ele>609.25</ele><time>2026-04-25T10:09:51Z</time></trkpt><trkpt lat="45.7996321984867" lon="9.686448992947938"><ele>616.0</ele><time>2026-04-25T10:09:53Z</time></trkpt><trkpt lat="45.799728120248474" lon="9.686351218748014"><ele>616.0</ele><time>2026-04-25T10:09:55Z</time></trkpt><trkpt lat="45.799831094924656" lon="9.686256524956656"><ele>616.0</ele><time>2026-04-25T10:09:57Z</time></trkpt><trkpt lat="45.79992691390893" lon="9.686170475199917"><ele>616.0</ele><time>2026-04-25T10:09:59Z</time></trkpt><trkpt lat="45.800026540848634" lon="9.686063356455806"><ele>616.0</ele><time>2026-04-25T10:10:01Z</time></trkpt><trkpt lat="45.800132895178095" lon="9.685981138412755"><ele>618.4</ele><time>2026-04-25T10:10:03Z</time></trkpt><trkpt lat="45.80018954521808" lon="9.68594043860801"><ele>620.8</ele><time>2026-04-25T10:10:04Z</time></trkpt><trkpt lat="45.800273258792394" lon="9.68581799895221"><ele>623.1999999999999</ele><time>2026-04-25T10:10:06Z</time></trkpt><trkpt lat="45.8003423950779" lon="9.685675118703251"><ele>625.6</ele><time>2026-04-25T10:10:08Z</time></trkpt><trkpt lat="45.800408123947115" lon="9.685539879468218"><ele>628.0</ele><time>2026-04-25T10:10:10Z</time></trkpt><trkpt lat="45.80049122967596" lon="9.685421500409104"><ele>628.0</ele><time>2026-04-25T10:10:12Z</time></trkpt><trkpt lat="45.80052975516841" lon="9.68534387591679"><ele>628.0</ele><time>2026-04-25T10:10:13Z</time></trkpt><trkpt lat="45.80058456828006" lon="9.685192738451073"><ele>628.0</ele><time>2026-04-25T10:10:15Z</time></trkpt><trkpt lat="45.80060566666118" lon="9.685105837103489"><ele>628.0</ele><time>2026-04-25T10:10:16Z</time></trkpt><trkpt lat="45.80062895644534" lon="9.68493554721452"><ele>628.0</ele><time>2026-04-25T10:10:18Z</time></trkpt><trkpt lat="45.80062735772235" lon="9.68477246775992"><ele>626.5</ele><time>2026-04-25T10:10:20Z</time></trkpt><trkpt lat="45.800601916396694" lon="9.684595416238448"><ele>625.0</ele><time>2026-04-25T10:10:22Z</time></trkpt><trkpt lat="45.800568044108715" lon="9.684429661561827"><ele>623.5</ele><time>2026-04-25T10:10:24Z</time></trkpt><trkpt lat="45.800542731821345" lon="9.684258853541703"><ele>622.0</ele><time>2026-04-25T10:10:26Z</time></trkpt><trkpt lat="45.80052192020869" lon="9.684088196528581"><ele>622.0</ele><time>2026-04-25T10:10:28Z</time></trkpt><trkpt lat="45.800501235111724" lon="9.683922992273118"><ele>622.0</ele><time>2026-04-25T10:10:30Z</time></trkpt><trkpt lat="45.800493100610176" lon="9.6837510525185"><ele>622.0</ele><time>2026-04-25T10:10:32Z</time></trkpt><trkpt lat="45.80048625060434" lon="9.683578826558676"><ele>622.0</ele><time>2026-04-25T10:10:34Z</time></trkpt><trkpt lat="45.80048598266803" lon="9.683424378047981"><ele>621.8000000000001</ele><time>2026-04-25T10:10:36Z</time></trkpt><trkpt lat="45.80048210552121" lon="9.683291145645995"><ele>621.6</ele><time>2026-04-25T10:10:38Z</time></trkpt><trkpt lat="45.8004791498036" lon="9.68312847979373"><ele>621.4000000000001</ele><time>2026-04-25T10:10:40Z</time></trkpt><trkpt lat="45.80057517421466" lon="9.683039328061119"><ele>621.2</ele><time>2026-04-25T10:10:42Z</time></trkpt><trkpt lat="45.80063905816541" lon="9.683081306677387"><ele>621.0</ele><time>2026-04-25T10:10:43Z</time></trkpt><trkpt lat="45.80066149106293" lon="9.683188260609526"><ele>621.0</ele><time>2026-04-25T10:10:44Z</time></trkpt><trkpt lat="45.800681021263465" lon="9.683274757152699"><ele>621.0</ele><time>2026-04-25T10:10:45Z</time></trkpt><trkpt lat="45.80069592736682" lon="9.683442770663923"><ele>621.0</ele><time>2026-04-25T10:10:47Z</time></trkpt><trkpt lat="45.800713068255114" lon="9.683608426681227"><ele>621.0</ele><time>2026-04-25T10:10:49Z</time></trkpt><trkpt lat="45.80072490724495" lon="9.683771010465804"><ele>621.0</ele><time>2026-04-25T10:10:51Z</time></trkpt><trkpt lat="45.800741849162335" lon="9.683937671845703"><ele>621.2</ele><time>2026-04-25T10:10:53Z</time></trkpt><trkpt lat="45.80077525910096" lon="9.684092328154321"><ele>621.4000000000001</ele><time>2026-04-25T10:10:55Z</time></trkpt><trkpt lat="45.800816655911" lon="9.684243086731895"><ele>621.6</ele><time>2026-04-25T10:10:57Z</time></trkpt><trkpt lat="45.80085981863048" lon="9.684388950310325"><ele>621.8000000000001</ele><time>2026-04-25T10:10:59Z</time></trkpt><trkpt lat="45.80090097564547" lon="9.684533531028533"><ele>622.0</ele><time>2026-04-25T10:11:01Z</time></trkpt><trkpt lat="45.80094887875891" lon="9.684675789068953"><ele>622.0</ele><time>2026-04-25T10:11:03Z</time></trkpt><trkpt lat="45.80099404608489" lon="9.684823084170601"><ele>622.0</ele><time>2026-04-25T10:11:05Z</time></trkpt><trkpt lat="45.80103619348357" lon="9.684973244310884"><ele>622.0</ele><time>2026-04-25T10:11:07Z</time></trkpt><trkpt lat="45.80107528799673" lon="9.685117332654157"><ele>622.0</ele><time>2026-04-25T10:11:09Z</time></trkpt><trkpt lat="45.801108684792446" lon="9.685272813920076"><ele>622.0</ele><time>2026-04-25T10:11:11Z</time></trkpt><trkpt lat="45.801152804582856" lon="9.685421250684346"><ele>623.0</ele><time>2026-04-25T10:11:13Z</time></trkpt><trkpt lat="45.80119189753343" lon="9.68556663036269"><ele>624.0</ele><time>2026-04-25T10:11:15Z</time></trkpt><trkpt lat="45.801223098963746" lon="9.685723766753163"><ele>625.0</ele><time>2026-04-25T10:11:17Z</time></trkpt><trkpt lat="45.80125785374077" lon="9.685877015368677"><ele>626.0</ele><time>2026-04-25T10:11:19Z</time></trkpt><trkpt lat="45.80128225133151" lon="9.686031899434177"><ele>627.0</ele><time>2026-04-25T10:11:21Z</time></trkpt><trkpt lat="45.80130315355119" lon="9.686195860487015"><ele>628.0</ele><time>2026-04-25T10:11:23Z</time></trkpt><trkpt lat="45.80131679126914" lon="9.686354715534549"><ele>629.0</ele><time>2026-04-25T10:11:25Z</time></trkpt><trkpt lat="45.80132539873107" lon="9.686522906383328"><ele>630.0</ele><time>2026-04-25T10:11:27Z</time></trkpt><trkpt lat="45.80133687961114" lon="9.686689154320387"><ele>631.0</ele><time>2026-04-25T10:11:29Z</time></trkpt><trkpt lat="45.80134482118538" lon="9.68685481012013"><ele>632.75</ele><time>2026-04-25T10:11:31Z</time></trkpt><trkpt lat="45.80135051956157" lon="9.68702812471478"><ele>634.5</ele><time>2026-04-25T10:11:33Z</time></trkpt><trkpt lat="45.80135508110115" lon="9.687197844669928"><ele>636.25</ele><time>2026-04-25T10:11:35Z</time></trkpt><trkpt lat="45.80136026895319" lon="9.687362462900632"><ele>638.0</ele><time>2026-04-25T10:11:37Z</time></trkpt><trkpt lat="45.801372918656746" lon="9.687529423884312"><ele>638.0</ele><time>2026-04-25T10:11:39Z</time></trkpt><trkpt lat="45.80137467305783" lon="9.687681328049582"><ele>638.0</ele><time>2026-04-25T10:11:41Z</time></trkpt><trkpt lat="45.801379527369434" lon="9.68784692986893"><ele>638.0</ele><time>2026-04-25T10:11:43Z</time></trkpt><trkpt lat="45.801385545487136" lon="9.68801351598758"><ele>638.0</ele><time>2026-04-25T10:11:45Z</time></trkpt><trkpt lat="45.801394136906424" lon="9.688178115000223"><ele>638.8</ele><time>2026-04-25T10:11:47Z</time></trkpt><trkpt lat="45.8014087445172" lon="9.688354660310393"><ele>639.5999999999999</ele><time>2026-04-25T10:11:49Z</time></trkpt><trkpt lat="45.801432727516556" lon="9.688510795077333"><ele>640.4000000000001</ele><time>2026-04-25T10:11:51Z</time></trkpt><trkpt lat="45.801463933428074" lon="9.688655818768826"><ele>641.2</ele><time>2026-04-25T10:11:53Z</time></trkpt><trkpt lat="45.80148283232213" lon="9.688745863603252"><ele>642.0</ele><time>2026-04-25T10:11:54Z</time></trkpt><trkpt lat="45.80152830288937" lon="9.688902396465046"><ele>644.4000000000001</ele><time>2026-04-25T10:11:56Z</time></trkpt><trkpt lat="45.80156106911526" lon="9.689056056546535"><ele>646.8000000000001</ele><time>2026-04-25T10:11:58Z</time></trkpt><trkpt lat="45.801603287630826" lon="9.689199322150255"><ele>649.2</ele><time>2026-04-25T10:12:00Z</time></trkpt><trkpt lat="45.80164583772656" lon="9.689346938477225"><ele>651.6</ele><time>2026-04-25T10:12:02Z</time></trkpt><trkpt lat="45.801672160767694" lon="9.689503121065567"><ele>654.0</ele><time>2026-04-25T10:12:04Z</time></trkpt><trkpt lat="45.801680719544905" lon="9.689662996360491"><ele>656.0</ele><time>2026-04-25T10:12:06Z</time></trkpt><trkpt lat="45.80169577145688" lon="9.689816767891005"><ele>658.0</ele><time>2026-04-25T10:12:08Z</time></trkpt><trkpt lat="45.801717276445835" lon="9.68996853510557"><ele>660.0</ele><time>2026-04-25T10:12:10Z</time></trkpt><trkpt lat="45.8017368313575" lon="9.690128251655326"><ele>662.0</ele><time>2026-04-25T10:12:12Z</time></trkpt><trkpt lat="45.8017531430371" lon="9.690280195496431"><ele>664.0</ele><time>2026-04-25T10:12:14Z</time></trkpt><trkpt lat="45.80175619915739" lon="9.69043511364189"><ele>664.4000000000001</ele><time>2026-04-25T10:12:16Z</time></trkpt><trkpt lat="45.80174463618637" lon="9.690593744720276"><ele>664.8</ele><time>2026-04-25T10:12:18Z</time></trkpt><trkpt lat="45.80172405989204" lon="9.690751207217488"><ele>665.2</ele><time>2026-04-25T10:12:20Z</time></trkpt><trkpt lat="45.80166506262041" lon="9.690878366227631"><ele>665.5999999999999</ele><time>2026-04-25T10:12:22Z</time></trkpt><trkpt lat="45.80160418966009" lon="9.691014987058207"><ele>666.0</ele><time>2026-04-25T10:12:24Z</time></trkpt><trkpt lat="45.80157810980025" lon="9.69117581523773"><ele>666.75</ele><time>2026-04-25T10:12:26Z</time></trkpt><trkpt lat="45.801566937705914" lon="9.691341237750654"><ele>667.5</ele><time>2026-04-25T10:12:28Z</time></trkpt><trkpt lat="45.80156738654494" lon="9.691505970138657"><ele>668.25</ele><time>2026-04-25T10:12:30Z</time></trkpt><trkpt lat="45.801572730375774" lon="9.691666541818622"><ele>669.0</ele><time>2026-04-25T10:12:32Z</time></trkpt><trkpt lat="45.80157380149481" lon="9.691825583168095"><ele>669.5</ele><time>2026-04-25T10:12:34Z</time></trkpt><trkpt lat="45.80155832375868" lon="9.691983318037732"><ele>670.0</ele><time>2026-04-25T10:12:36Z</time></trkpt><trkpt lat="45.80153669025476" lon="9.69214641131584"><ele>670.5</ele><time>2026-04-25T10:12:38Z</time></trkpt><trkpt lat="45.801492152079106" lon="9.69229469895716"><ele>671.0</ele><time>2026-04-25T10:12:40Z</time></trkpt><trkpt lat="45.801469779730645" lon="9.692454567910914"><ele>671.0</ele><time>2026-04-25T10:12:42Z</time></trkpt><trkpt lat="45.80143014955366" lon="9.692602388047542"><ele>671.0</ele><time>2026-04-25T10:12:44Z</time></trkpt><trkpt lat="45.8013954960377" lon="9.69275525763028"><ele>671.0</ele><time>2026-04-25T10:12:46Z</time></trkpt><trkpt lat="45.801353310570654" lon="9.69289122651042"><ele>671.0</ele><time>2026-04-25T10:12:48Z</time></trkpt><trkpt lat="45.80134513675584" lon="9.69298708209144"><ele>671.0</ele><time>2026-04-25T10:12:49Z</time></trkpt><trkpt lat="45.80131027132625" lon="9.693138941560253"><ele>670.75</ele><time>2026-04-25T10:12:51Z</time></trkpt><trkpt lat="45.801270977485316" lon="9.693286842581752"><ele>670.5</ele><time>2026-04-25T10:12:53Z</time></trkpt><trkpt lat="45.80125317746452" lon="9.693453529440065"><ele>670.25</ele><time>2026-04-25T10:12:55Z</time></trkpt><trkpt lat="45.80123490074322" lon="9.69361274249388"><ele>670.0</ele><time>2026-04-25T10:12:57Z</time></trkpt><trkpt lat="45.801225742932075" lon="9.693771457910794"><ele>671.2</ele><time>2026-04-25T10:12:59Z</time></trkpt><trkpt lat="45.80122511191505" lon="9.693928542267464"><ele>672.4</ele><time>2026-04-25T10:13:01Z</time></trkpt><trkpt lat="45.80122746399304" lon="9.694090450257857"><ele>673.5999999999999</ele><time>2026-04-25T10:13:03Z</time></trkpt><trkpt lat="45.80123497837121" lon="9.694246911382887"><ele>674.8</ele><time>2026-04-25T10:13:05Z</time></trkpt><trkpt lat="45.80122978994834" lon="9.694405967420003"><ele>676.0</ele><time>2026-04-25T10:13:07Z</time></trkpt><trkpt lat="45.801223495858025" lon="9.694560861979015"><ele>677.0</ele><time>2026-04-25T10:13:09Z</time></trkpt><trkpt lat="45.80122179689274" lon="9.694713836573802"><ele>678.0</ele><time>2026-04-25T10:13:11Z</time></trkpt><trkpt lat="45.801222514206934" lon="9.694863480453632"><ele>679.0</ele><time>2026-04-25T10:13:13Z</time></trkpt><trkpt lat="45.8012113697928" lon="9.694991306136416"><ele>680.0</ele><time>2026-04-25T10:13:15Z</time></trkpt><trkpt lat="45.80119961001369" lon="9.695088571635623"><ele>681.0</ele><time>2026-04-25T10:13:18Z</time></trkpt><trkpt lat="45.801232885456066" lon="9.695186440001034"><ele>682.0</ele><time>2026-04-25T10:14:11Z</time></trkpt><trkpt lat="45.8012142769009" lon="9.695273005174021"><ele>683.6</ele><time>2026-04-25T10:14:13Z</time></trkpt><trkpt lat="45.80120335667415" lon="9.695384691265128"><ele>685.2</ele><time>2026-04-25T10:14:15Z</time></trkpt><trkpt lat="45.80121119206888" lon="9.695498956154522"><ele>686.8</ele><time>2026-04-25T10:14:17Z</time></trkpt><trkpt lat="45.80121031142727" lon="9.695643564568348"><ele>688.4</ele><time>2026-04-25T10:14:19Z</time></trkpt><trkpt lat="45.80121092198402" lon="9.69580402196089"><ele>690.0</ele><time>2026-04-25T10:14:21Z</time></trkpt><trkpt lat="45.801198790729686" lon="9.695962296046288"><ele>690.5</ele><time>2026-04-25T10:14:23Z</time></trkpt><trkpt lat="45.80118429066393" lon="9.696122742976005"><ele>691.0</ele><time>2026-04-25T10:14:25Z</time></trkpt><trkpt lat="45.80114347902172" lon="9.696273540407141"><ele>691.5</ele><time>2026-04-25T10:14:27Z</time></trkpt><trkpt lat="45.801099691861765" lon="9.696424948939027"><ele>692.0</ele><time>2026-04-25T10:14:29Z</time></trkpt><trkpt lat="45.801039544532806" lon="9.696556512641264"><ele>696.4000000000001</ele><time>2026-04-25T10:14:31Z</time></trkpt><trkpt lat="45.80098012323894" lon="9.696698514050043"><ele>700.8000000000001</ele><time>2026-04-25T10:14:33Z</time></trkpt><trkpt lat="45.800925554437654" lon="9.69683730714173"><ele>705.2</ele><time>2026-04-25T10:14:35Z</time></trkpt><trkpt lat="45.800891005337526" lon="9.696991563196447"><ele>709.6</ele><time>2026-04-25T10:14:37Z</time></trkpt><trkpt lat="45.80087219393319" lon="9.697143455183694"><ele>714.0</ele><time>2026-04-25T10:14:39Z</time></trkpt><trkpt lat="45.80084519926271" lon="9.69729852383128"><ele>714.4000000000001</ele><time>2026-04-25T10:14:41Z</time></trkpt><trkpt lat="45.80083065975261" lon="9.697456900866253"><ele>714.8</ele><time>2026-04-25T10:14:43Z</time></trkpt><trkpt lat="45.80083407386111" lon="9.697620535461908"><ele>715.2</ele><time>2026-04-25T10:14:45Z</time></trkpt><trkpt lat="45.80085338257853" lon="9.69777008624866"><ele>715.5999999999999</ele><time>2026-04-25T10:14:47Z</time></trkpt><trkpt lat="45.80087557393707" lon="9.697920793196351"><ele>716.0</ele><time>2026-04-25T10:14:49Z</time></trkpt><trkpt lat="45.800866056930495" lon="9.698073033213708"><ele>716.0</ele><time>2026-04-25T10:14:51Z</time></trkpt><trkpt lat="45.80077275300584" lon="9.69816337854816"><ele>716.0</ele><time>2026-04-25T10:14:53Z</time></trkpt><trkpt lat="45.80067632008554" lon="9.698086768414846"><ele>716.0</ele><time>2026-04-25T10:14:55Z</time></trkpt><trkpt lat="45.80066389568648" lon="9.697986698535676"><ele>716.0</ele><time>2026-04-25T10:14:56Z</time></trkpt><trkpt lat="45.80066112068288" lon="9.697890927098813"><ele>716.0</ele><time>2026-04-25T10:14:57Z</time></trkpt><trkpt lat="45.800657631063764" lon="9.697725176086985"><ele>716.0</ele><time>2026-04-25T10:14:59Z</time></trkpt><trkpt lat="45.800661717641006" lon="9.697555483766063"><ele>716.0</ele><time>2026-04-25T10:15:01Z</time></trkpt><trkpt lat="45.80065927124906" lon="9.697384239108347"><ele>716.0</ele><time>2026-04-25T10:15:03Z</time></trkpt><trkpt lat="45.80066141704529" lon="9.69721672462949"><ele>716.0</ele><time>2026-04-25T10:15:05Z</time></trkpt><trkpt lat="45.80063046496434" lon="9.697054447470633"><ele>716.0</ele><time>2026-04-25T10:15:07Z</time></trkpt><trkpt lat="45.80054953718367" lon="9.696938337671035"><ele>716.0</ele><time>2026-04-25T10:15:09Z</time></trkpt><trkpt lat="45.80049422030035" lon="9.69689041856461"><ele>716.0</ele><time>2026-04-25T10:15:10Z</time></trkpt><trkpt lat="45.80043240004526" lon="9.696868561372643"><ele>716.0</ele><time>2026-04-25T10:15:11Z</time></trkpt><trkpt lat="45.80031616583492" lon="9.696835404482343"><ele>716.0</ele><time>2026-04-25T10:15:13Z</time></trkpt><trkpt lat="45.80019447956034" lon="9.696822960111655"><ele>717.0</ele><time>2026-04-25T10:15:15Z</time></trkpt><trkpt lat="45.800078813497954" lon="9.696815308281957"><ele>718.0</ele><time>2026-04-25T10:15:17Z</time></trkpt><trkpt lat="45.79996616348721" lon="9.696807913684586"><ele>719.0</ele><time>2026-04-25T10:15:19Z</time></trkpt><trkpt lat="45.799854520278885" lon="9.69681298211441"><ele>720.0</ele><time>2026-04-25T10:15:21Z</time></trkpt><trkpt lat="45.79974318233278" lon="9.696811780476605"><ele>720.0</ele><time>2026-04-25T10:15:23Z</time></trkpt><trkpt lat="45.79963239803528" lon="9.696803310725626"><ele>720.0</ele><time>2026-04-25T10:15:25Z</time></trkpt><trkpt lat="45.799525410086815" lon="9.696804661596905"><ele>720.0</ele><time>2026-04-25T10:15:27Z</time></trkpt><trkpt lat="45.79941199039684" lon="9.696808477553303"><ele>720.0</ele><time>2026-04-25T10:15:29Z</time></trkpt><trkpt lat="45.79929984846815" lon="9.696804401002144"><ele>720.0</ele><time>2026-04-25T10:15:31Z</time></trkpt><trkpt lat="45.79918737587177" lon="9.696802930442567"><ele>720.3333333333334</ele><time>2026-04-25T10:15:33Z</time></trkpt><trkpt lat="45.7990817109402" lon="9.696856188723805"><ele>720.6666666666666</ele><time>2026-04-25T10:15:35Z</time></trkpt><trkpt lat="45.79904144017372" lon="9.697010072629581"><ele>721.0</ele><time>2026-04-25T10:15:37Z</time></trkpt><trkpt lat="45.799082540484186" lon="9.697092408920268"><ele>721.3333333333333</ele><time>2026-04-25T10:15:38Z</time></trkpt><trkpt lat="45.799144027566555" lon="9.6971302102239"><ele>721.6666666666666</ele><time>2026-04-25T10:15:39Z</time></trkpt><trkpt lat="45.79921170266106" lon="9.697134205846181"><ele>722.0</ele><time>2026-04-25T10:15:40Z</time></trkpt><trkpt lat="45.79933109962712" lon="9.697147488800528"><ele>724.5</ele><time>2026-04-25T10:15:42Z</time></trkpt><trkpt lat="45.799438895198776" lon="9.697174730884964"><ele>727.0</ele><time>2026-04-25T10:15:44Z</time></trkpt><trkpt lat="45.79955168782829" lon="9.697230444623063"><ele>729.5</ele><time>2026-04-25T10:15:46Z</time></trkpt><trkpt lat="45.799657946385715" lon="9.697289088191834"><ele>732.0</ele><time>2026-04-25T10:15:48Z</time></trkpt><trkpt lat="45.79975545054388" lon="9.697370183966793"><ele>732.0</ele><time>2026-04-25T10:15:50Z</time></trkpt><trkpt lat="45.799838393947105" lon="9.697484181025505"><ele>732.0</ele><time>2026-04-25T10:15:52Z</time></trkpt><trkpt lat="45.79990769832085" lon="9.697604390445324"><ele>732.0</ele><time>2026-04-25T10:15:54Z</time></trkpt><trkpt lat="45.79996633953874" lon="9.6977373834046"><ele>732.0</ele><time>2026-04-25T10:15:56Z</time></trkpt><trkpt lat="45.80000053307254" lon="9.697888188662164"><ele>732.0</ele><time>2026-04-25T10:15:58Z</time></trkpt><trkpt lat="45.80001143074506" lon="9.698045665404871"><ele>734.75</ele><time>2026-04-25T10:16:00Z</time></trkpt><trkpt lat="45.80000356845263" lon="9.698204753416261"><ele>737.5</ele><time>2026-04-25T10:16:02Z</time></trkpt><trkpt lat="45.79999256874846" lon="9.698365079999684"><ele>740.25</ele><time>2026-04-25T10:16:04Z</time></trkpt><trkpt lat="45.79998026828511" lon="9.698529673700335"><ele>743.0</ele><time>2026-04-25T10:16:06Z</time></trkpt><trkpt lat="45.79996292730421" lon="9.698689099540703"><ele>744.5999999999999</ele><time>2026-04-25T10:16:08Z</time></trkpt><trkpt lat="45.799956533655255" lon="9.698850649496748"><ele>746.1999999999999</ele><time>2026-04-25T10:16:10Z</time></trkpt><trkpt lat="45.799965635569635" lon="9.69900916958496"><ele>747.8</ele><time>2026-04-25T10:16:12Z</time></trkpt><trkpt lat="45.79998190932188" lon="9.699166557540932"><ele>749.4</ele><time>2026-04-25T10:16:14Z</time></trkpt><trkpt lat="45.80001942493528" lon="9.699318277428173"><ele>751.0</ele><time>2026-04-25T10:16:16Z</time></trkpt><trkpt lat="45.80007998477092" lon="9.699453107558298"><ele>751.25</ele><time>2026-04-25T10:16:18Z</time></trkpt><trkpt lat="45.800145804511274" lon="9.699584597858832"><ele>751.5</ele><time>2026-04-25T10:16:20Z</time></trkpt><trkpt lat="45.80021369656489" lon="9.699713549169882"><ele>751.75</ele><time>2026-04-25T10:16:22Z</time></trkpt><trkpt lat="45.800284647964205" lon="9.699840653093815"><ele>752.0</ele><time>2026-04-25T10:16:24Z</time></trkpt><trkpt lat="45.80035648127587" lon="9.699961486700966"><ele>752.0</ele><time>2026-04-25T10:16:26Z</time></trkpt><trkpt lat="45.800427204184345" lon="9.700084041594627"><ele>752.0</ele><time>2026-04-25T10:16:28Z</time></trkpt><trkpt lat="45.8004967190188" lon="9.700210869885593"><ele>752.0</ele><time>2026-04-25T10:16:30Z</time></trkpt><trkpt lat="45.80056611331996" lon="9.70034606427935"><ele>752.0</ele><time>2026-04-25T10:16:32Z</time></trkpt><trkpt lat="45.8006386853755" lon="9.700471309044627"><ele>754.8</ele><time>2026-04-25T10:16:34Z</time></trkpt><trkpt lat="45.80070922643716" lon="9.700592687649255"><ele>757.6</ele><time>2026-04-25T10:16:36Z</time></trkpt><trkpt lat="45.800780185430824" lon="9.700714786693885"><ele>760.4</ele><time>2026-04-25T10:16:38Z</time></trkpt><trkpt lat="45.80085053186688" lon="9.70083247593762"><ele>763.1999999999999</ele><time>2026-04-25T10:16:40Z</time></trkpt><trkpt lat="45.8009114994297" lon="9.70096133843724"><ele>766.0</ele><time>2026-04-25T10:16:42Z</time></trkpt><trkpt lat="45.80091191283769" lon="9.701113662657187"><ele>766.0</ele><time>2026-04-25T10:16:44Z</time></trkpt><trkpt lat="45.80086497142419" lon="9.701177312823859"><ele>766.0</ele><time>2026-04-25T10:16:45Z</time></trkpt><trkpt lat="45.800801832010194" lon="9.701194343619614"><ele>766.0</ele><time>2026-04-25T10:16:46Z</time></trkpt><trkpt lat="45.80074024878267" lon="9.701148821587815"><ele>766.0</ele><time>2026-04-25T10:16:47Z</time></trkpt><trkpt lat="45.80069319343922" lon="9.70108002176987"><ele>766.0</ele><time>2026-04-25T10:16:48Z</time></trkpt><trkpt lat="45.80061351870481" lon="9.700950640584622"><ele>766.0</ele><time>2026-04-25T10:16:50Z</time></trkpt><trkpt lat="45.80052187267648" lon="9.7008430878647"><ele>766.0</ele><time>2026-04-25T10:16:52Z</time></trkpt><trkpt lat="45.80046945668451" lon="9.700792474656083"><ele>766.0</ele><time>2026-04-25T10:16:53Z</time></trkpt><trkpt lat="45.80036139500866" lon="9.700717978332596"><ele>766.0</ele><time>2026-04-25T10:16:55Z</time></trkpt><trkpt lat="45.80025386219794" lon="9.700644670315295"><ele>766.0</ele><time>2026-04-25T10:16:57Z</time></trkpt><trkpt lat="45.80014967885301" lon="9.700574920770046"><ele>766.0</ele><time>2026-04-25T10:16:59Z</time></trkpt><trkpt lat="45.80004981080771" lon="9.700497802229155"><ele>765.4</ele><time>2026-04-25T10:17:01Z</time></trkpt><trkpt lat="45.79994898066454" lon="9.700429309150925"><ele>764.8</ele><time>2026-04-25T10:17:03Z</time></trkpt><trkpt lat="45.799850085466424" lon="9.700349909964816"><ele>764.1999999999999</ele><time>2026-04-25T10:17:05Z</time></trkpt><trkpt lat="45.799758896952056" lon="9.700260524378518"><ele>763.5999999999999</ele><time>2026-04-25T10:17:07Z</time></trkpt><trkpt lat="45.79967612643737" lon="9.700158834593092"><ele>763.0</ele><time>2026-04-25T10:17:09Z</time></trkpt><trkpt lat="45.7995956329849" lon="9.700054010319196"><ele>763.0</ele><time>2026-04-25T10:17:11Z</time></trkpt><trkpt lat="45.799494526136336" lon="9.699988647914598"><ele>763.0</ele><time>2026-04-25T10:17:13Z</time></trkpt><trkpt lat="45.79943478165432" lon="9.70001741739317"><ele>763.0</ele><time>2026-04-25T10:17:14Z</time></trkpt><trkpt lat="45.79938641924378" lon="9.70017690153967"><ele>763.0</ele><time>2026-04-25T10:17:16Z</time></trkpt><trkpt lat="45.79941134955097" lon="9.70026295604852"><ele>763.0</ele><time>2026-04-25T10:17:17Z</time></trkpt><trkpt lat="45.799459906228826" lon="9.700331532185778"><ele>763.0</ele><time>2026-04-25T10:17:18Z</time></trkpt><trkpt lat="45.79955919731117" lon="9.700431258593282"><ele>766.25</ele><time>2026-04-25T10:17:20Z</time></trkpt><trkpt lat="45.799641015226406" lon="9.700549766388905"><ele>769.5</ele><time>2026-04-25T10:17:22Z</time></trkpt><trkpt lat="45.799719569604484" lon="9.700668841534913"><ele>772.75</ele><time>2026-04-25T10:17:24Z</time></trkpt><trkpt lat="45.79977963911969" lon="9.700806551960206"><ele>776.0</ele><time>2026-04-25T10:17:26Z</time></trkpt><trkpt lat="45.79981352706864" lon="9.700954348506812"><ele>780.8</ele><time>2026-04-25T10:17:28Z</time></trkpt><trkpt lat="45.79983248628138" lon="9.701114089245822"><ele>785.5999999999999</ele><time>2026-04-25T10:17:30Z</time></trkpt><trkpt lat="45.799861460149515" lon="9.701267438775888"><ele>790.4</ele><time>2026-04-25T10:17:32Z</time></trkpt><trkpt lat="45.79990672714617" lon="9.701410018684623"><ele>795.2</ele><time>2026-04-25T10:17:34Z</time></trkpt><trkpt lat="45.79995694136913" lon="9.701550515989112"><ele>800.0</ele><time>2026-04-25T10:17:36Z</time></trkpt><trkpt lat="45.80002448664746" lon="9.701679367949223"><ele>800.0</ele><time>2026-04-25T10:17:38Z</time></trkpt><trkpt lat="45.800093715815365" lon="9.701801740947015"><ele>800.0</ele><time>2026-04-25T10:17:40Z</time></trkpt><trkpt lat="45.80016578412715" lon="9.701910504870508"><ele>800.0</ele><time>2026-04-25T10:17:42Z</time></trkpt><trkpt lat="45.80024540891961" lon="9.702027584419588"><ele>800.0</ele><time>2026-04-25T10:17:44Z</time></trkpt><trkpt lat="45.80032699074629" lon="9.702143669467606"><ele>800.0</ele><time>2026-04-25T10:17:46Z</time></trkpt><trkpt lat="45.80038449608248" lon="9.702254230551834"><ele>800.0</ele><time>2026-04-25T10:17:48Z</time></trkpt><trkpt lat="45.800415491304555" lon="9.702341524725181"><ele>800.0</ele><time>2026-04-25T10:17:49Z</time></trkpt><trkpt lat="45.800480771714604" lon="9.702384954204657"><ele>800.0</ele><time>2026-04-25T10:17:50Z</time></trkpt><trkpt lat="45.800556427872074" lon="9.702491860401684"><ele>800.0</ele><time>2026-04-25T10:17:52Z</time></trkpt><trkpt lat="45.80063570651255" lon="9.702621703682599"><ele>800.0</ele><time>2026-04-25T10:17:54Z</time></trkpt><trkpt lat="45.80072279410546" lon="9.702722042983103"><ele>803.2</ele><time>2026-04-25T10:17:56Z</time></trkpt><trkpt lat="45.80080379696913" lon="9.702834561122463"><ele>806.4</ele><time>2026-04-25T10:17:58Z</time></trkpt><trkpt lat="45.800837296536685" lon="9.702915048095907"><ele>809.5999999999999</ele><time>2026-04-25T10:17:59Z</time></trkpt><trkpt lat="45.80092632852056" lon="9.70301542201956"><ele>812.8</ele><time>2026-04-25T10:18:01Z</time></trkpt><trkpt lat="45.80096980220388" lon="9.70308368434264"><ele>816.0</ele><time>2026-04-25T10:18:02Z</time></trkpt><trkpt lat="45.801049042114634" lon="9.703191728936202"><ele>816.0</ele><time>2026-04-25T10:18:04Z</time></trkpt><trkpt lat="45.801106424684015" lon="9.70325522043673"><ele>816.0</ele><time>2026-04-25T10:18:05Z</time></trkpt><trkpt lat="45.8012038611465" lon="9.703335265257625"><ele>816.0</ele><time>2026-04-25T10:18:07Z</time></trkpt><trkpt lat="45.80131015236311" lon="9.703401901168192"><ele>816.0</ele><time>2026-04-25T10:18:09Z</time></trkpt><trkpt lat="45.80141390896451" lon="9.703427434505334"><ele>816.0</ele><time>2026-04-25T10:18:11Z</time></trkpt><trkpt lat="45.80147773689988" lon="9.703421106111598"><ele>816.0</ele><time>2026-04-25T10:18:12Z</time></trkpt><trkpt lat="45.80159512879368" lon="9.703408211993459"><ele>816.0</ele><time>2026-04-25T10:18:14Z</time></trkpt><trkpt lat="45.80170748364724" lon="9.70339513381404"><ele>816.0</ele><time>2026-04-25T10:18:16Z</time></trkpt><trkpt lat="45.801824957181196" lon="9.70338842092585"><ele>816.0</ele><time>2026-04-25T10:18:18Z</time></trkpt><trkpt lat="45.80193870975141" lon="9.703377969374474"><ele>814.75</ele><time>2026-04-25T10:18:20Z</time></trkpt><trkpt lat="45.802054489819355" lon="9.703375902888492"><ele>813.5</ele><time>2026-04-25T10:18:22Z</time></trkpt><trkpt lat="45.80216142944541" lon="9.703358722905806"><ele>812.25</ele><time>2026-04-25T10:18:24Z</time></trkpt><trkpt lat="45.80226022144134" lon="9.703440297316785"><ele>811.0</ele><time>2026-04-25T10:18:26Z</time></trkpt><trkpt lat="45.802219446182406" lon="9.703597441725568"><ele>812.0</ele><time>2026-04-25T10:18:28Z</time></trkpt><trkpt lat="45.80214981102488" lon="9.70359941044448"><ele>813.0</ele><time>2026-04-25T10:18:29Z</time></trkpt><trkpt lat="45.80208067061276" lon="9.703589425941916"><ele>814.0</ele><time>2026-04-25T10:18:30Z</time></trkpt><trkpt lat="45.802016941988754" lon="9.703582795662388"><ele>815.0</ele><time>2026-04-25T10:18:31Z</time></trkpt><trkpt lat="45.80189259102043" lon="9.703585076827457"><ele>816.0</ele><time>2026-04-25T10:18:33Z</time></trkpt><trkpt lat="45.80176625444117" lon="9.703577343969894"><ele>816.0</ele><time>2026-04-25T10:18:35Z</time></trkpt><trkpt lat="45.80164630139123" lon="9.70357383281685"><ele>816.0</ele><time>2026-04-25T10:18:37Z</time></trkpt><trkpt lat="45.80152530665393" lon="9.70363109617579"><ele>816.0</ele><time>2026-04-25T10:18:39Z</time></trkpt><trkpt lat="45.80142640040102" lon="9.703680516419448"><ele>816.0</ele><time>2026-04-25T10:18:41Z</time></trkpt><trkpt lat="45.80131957114661" lon="9.703708499042117"><ele>821.8</ele><time>2026-04-25T10:18:43Z</time></trkpt><trkpt lat="45.80121052832326" lon="9.703698121669849"><ele>827.5999999999999</ele><time>2026-04-25T10:18:45Z</time></trkpt><trkpt lat="45.80110337347523" lon="9.703681628810534"><ele>833.4</ele><time>2026-04-25T10:18:47Z</time></trkpt><trkpt lat="45.80099722321483" lon="9.703664563374595"><ele>839.2</ele><time>2026-04-25T10:18:49Z</time></trkpt><trkpt lat="45.80093352776312" lon="9.70364298906053"><ele>845.0</ele><time>2026-04-25T10:18:50Z</time></trkpt><trkpt lat="45.80086709465343" lon="9.70362543903866"><ele>842.2</ele><time>2026-04-25T10:18:51Z</time></trkpt><trkpt lat="45.80078400300975" lon="9.703550643261977"><ele>839.4</ele><time>2026-04-25T10:18:53Z</time></trkpt><trkpt lat="45.800689900231426" lon="9.703462210625156"><ele>836.5999999999999</ele><time>2026-04-25T10:18:55Z</time></trkpt><trkpt lat="45.800595274675516" lon="9.70338899229766"><ele>833.8</ele><time>2026-04-25T10:18:57Z</time></trkpt><trkpt lat="45.80049666173551" lon="9.703324883581136"><ele>831.0</ele><time>2026-04-25T10:18:59Z</time></trkpt><trkpt lat="45.80039405583183" lon="9.703266681216272"><ele>831.0</ele><time>2026-04-25T10:19:01Z</time></trkpt><trkpt lat="45.80029034798066" lon="9.703219477680543"><ele>831.0</ele><time>2026-04-25T10:19:03Z</time></trkpt><trkpt lat="45.80018507387624" lon="9.703174808869363"><ele>831.0</ele><time>2026-04-25T10:19:05Z</time></trkpt><trkpt lat="45.80007744428539" lon="9.703132464057122"><ele>831.0</ele><time>2026-04-25T10:19:07Z</time></trkpt><trkpt lat="45.7999723676831" lon="9.703132791308242"><ele>831.0</ele><time>2026-04-25T10:19:09Z</time></trkpt><trkpt lat="45.79986888434484" lon="9.703210120072594"><ele>832.0</ele><time>2026-04-25T10:19:11Z</time></trkpt><trkpt lat="45.799829825071576" lon="9.703282852673585"><ele>833.0</ele><time>2026-04-25T10:19:12Z</time></trkpt><trkpt lat="45.79981819460161" lon="9.70344221740573"><ele>834.0</ele><time>2026-04-25T10:19:14Z</time></trkpt><trkpt lat="45.79986242722437" lon="9.70358839795036"><ele>835.0</ele><time>2026-04-25T10:19:16Z</time></trkpt><trkpt lat="45.7999505910663" lon="9.703700433656193"><ele>836.0</ele><time>2026-04-25T10:19:18Z</time></trkpt><trkpt lat="45.80003649360274" lon="9.703806113005388"><ele>836.0</ele><time>2026-04-25T10:19:20Z</time></trkpt><trkpt lat="45.80012823306488" lon="9.703901810968958"><ele>836.0</ele><time>2026-04-25T10:19:22Z</time></trkpt><trkpt lat="45.800216862579056" lon="9.704001795590257"><ele>836.0</ele><time>2026-04-25T10:19:24Z</time></trkpt><trkpt lat="45.80030289504595" lon="9.70410247314264"><ele>836.0</ele><time>2026-04-25T10:19:26Z</time></trkpt><trkpt lat="45.800390694056105" lon="9.704215346588317"><ele>838.25</ele><time>2026-04-25T10:19:28Z</time></trkpt><trkpt lat="45.800480020037874" lon="9.704328939443473"><ele>840.5</ele><time>2026-04-25T10:19:30Z</time></trkpt><trkpt lat="45.80056450187398" lon="9.704421937369831"><ele>842.75</ele><time>2026-04-25T10:19:32Z</time></trkpt><trkpt lat="45.80064540665869" lon="9.704528442770377"><ele>845.0</ele><time>2026-04-25T10:19:34Z</time></trkpt><trkpt lat="45.8007175189956" lon="9.704665285870327"><ele>847.2</ele><time>2026-04-25T10:19:36Z</time></trkpt><trkpt lat="45.80073288855464" lon="9.704819934888533"><ele>849.4</ele><time>2026-04-25T10:19:38Z</time></trkpt><trkpt lat="45.80072233830202" lon="9.704979751795724"><ele>851.5999999999999</ele><time>2026-04-25T10:19:40Z</time></trkpt><trkpt lat="45.80069235604404" lon="9.705137982694053"><ele>853.8</ele><time>2026-04-25T10:19:42Z</time></trkpt><trkpt lat="45.80067988369562" lon="9.705301076126737"><ele>856.0</ele><time>2026-04-25T10:19:44Z</time></trkpt><trkpt lat="45.80065754677032" lon="9.705456252726856"><ele>857.5</ele><time>2026-04-25T10:19:46Z</time></trkpt><trkpt lat="45.800635738338364" lon="9.705615046885766"><ele>859.0</ele><time>2026-04-25T10:19:48Z</time></trkpt><trkpt lat="45.80064809661619" lon="9.705781446293413"><ele>860.5</ele><time>2026-04-25T10:19:50Z</time></trkpt><trkpt lat="45.80068589410809" lon="9.705939258310282"><ele>862.0</ele><time>2026-04-25T10:19:52Z</time></trkpt><trkpt lat="45.80073460840974" lon="9.706093243333058"><ele>863.75</ele><time>2026-04-25T10:19:54Z</time></trkpt><trkpt lat="45.800781587738314" lon="9.706239877771885"><ele>865.5</ele><time>2026-04-25T10:19:56Z</time></trkpt><trkpt lat="45.800825049546866" lon="9.70639558820261"><ele>867.25</ele><time>2026-04-25T10:19:58Z</time></trkpt><trkpt lat="45.800848168482936" lon="9.70655778716"><ele>869.0</ele><time>2026-04-25T10:20:00Z</time></trkpt><trkpt lat="45.80085551293527" lon="9.706722835079308"><ele>869.0</ele><time>2026-04-25T10:20:02Z</time></trkpt><trkpt lat="45.80083951829631" lon="9.706887334039072"><ele>869.0</ele><time>2026-04-25T10:20:04Z</time></trkpt><trkpt lat="45.80080340701375" lon="9.707044680038686"><ele>869.0</ele><time>2026-04-25T10:20:06Z</time></trkpt><trkpt lat="45.80075145182301" lon="9.707192759889983"><ele>869.0</ele><time>2026-04-25T10:20:08Z</time></trkpt><trkpt lat="45.80068674168899" lon="9.70732210450931"><ele>871.0</ele><time>2026-04-25T10:20:10Z</time></trkpt><trkpt lat="45.80061032335579" lon="9.70743692840131"><ele>873.0000000000001</ele><time>2026-04-25T10:20:12Z</time></trkpt><trkpt lat="45.80052706676334" lon="9.707541740371402"><ele>875.0000000000001</ele><time>2026-04-25T10:20:14Z</time></trkpt><trkpt lat="45.8004434022381" lon="9.707649445034775"><ele>877.0</ele><time>2026-04-25T10:20:16Z</time></trkpt><trkpt lat="45.80036154769841" lon="9.707762953436795"><ele>879.0</ele><time>2026-04-25T10:20:18Z</time></trkpt><trkpt lat="45.800280731863104" lon="9.707871399470289"><ele>880.4000000000001</ele><time>2026-04-25T10:20:20Z</time></trkpt><trkpt lat="45.80018872321539" lon="9.70795550843477"><ele>881.8000000000001</ele><time>2026-04-25T10:20:22Z</time></trkpt><trkpt lat="45.800103516609724" lon="9.708057921318193"><ele>883.1999999999999</ele><time>2026-04-25T10:20:24Z</time></trkpt><trkpt lat="45.800020567937125" lon="9.708154936777884"><ele>884.5999999999999</ele><time>2026-04-25T10:20:26Z</time></trkpt><trkpt lat="45.79992842827522" lon="9.708246559861823"><ele>886.0</ele><time>2026-04-25T10:20:28Z</time></trkpt><trkpt lat="45.79983926965916" lon="9.708340758409596"><ele>885.9999999999999</ele><time>2026-04-25T10:20:30Z</time></trkpt><trkpt lat="45.79981124433519" lon="9.708492307755195"><ele>886.0</ele><time>2026-04-25T10:20:32Z</time></trkpt><trkpt lat="45.79984300049372" lon="9.708572438542749"><ele>886.0</ele><time>2026-04-25T10:20:33Z</time></trkpt><trkpt lat="45.79995033849525" lon="9.708662076505176"><ele>886.0</ele><time>2026-04-25T10:20:35Z</time></trkpt><trkpt lat="45.80001579077501" lon="9.708650377090727"><ele>885.9999999999999</ele><time>2026-04-25T10:20:36Z</time></trkpt><trkpt lat="45.80007520755457" lon="9.708611404572178"><ele>886.0</ele><time>2026-04-25T10:20:37Z</time></trkpt><trkpt lat="45.800184766139715" lon="9.708529377582323"><ele>888.0</ele><time>2026-04-25T10:20:39Z</time></trkpt><trkpt lat="45.80028893361585" lon="9.70845275800296"><ele>889.9999999999999</ele><time>2026-04-25T10:20:41Z</time></trkpt><trkpt lat="45.800354579929646" lon="9.70843645395108"><ele>891.9999999999999</ele><time>2026-04-25T10:20:42Z</time></trkpt><trkpt lat="45.800469685503" lon="9.708445395658515"><ele>894.0</ele><time>2026-04-25T10:20:44Z</time></trkpt><trkpt lat="45.800584949728815" lon="9.70845393237433"><ele>896.0</ele><time>2026-04-25T10:20:46Z</time></trkpt><trkpt lat="45.80069920153788" lon="9.70848599916719"><ele>896.0</ele><time>2026-04-25T10:20:48Z</time></trkpt><trkpt lat="45.80080961715873" lon="9.708521627326187"><ele>896.0</ele><time>2026-04-25T10:20:50Z</time></trkpt><trkpt lat="45.80092238888676" lon="9.708557523054443"><ele>896.0</ele><time>2026-04-25T10:20:52Z</time></trkpt><trkpt lat="45.80103406135317" lon="9.708590640442425"><ele>896.0</ele><time>2026-04-25T10:20:54Z</time></trkpt><trkpt lat="45.80114350563551" lon="9.70865105980857"><ele>896.5</ele><time>2026-04-25T10:20:56Z</time></trkpt><trkpt lat="45.80123861476776" lon="9.708737120279096"><ele>897.0</ele><time>2026-04-25T10:20:58Z</time></trkpt><trkpt lat="45.80131261053778" lon="9.708868310703629"><ele>897.5</ele><time>2026-04-25T10:21:00Z</time></trkpt><trkpt lat="45.80134942871833" lon="9.70903277663567"><ele>898.0</ele><time>2026-04-25T10:21:02Z</time></trkpt><trkpt lat="45.8013652267499" lon="9.709197860673186"><ele>898.0</ele><time>2026-04-25T10:21:04Z</time></trkpt><trkpt lat="45.801362169361354" lon="9.709362236038658"><ele>898.0</ele><time>2026-04-25T10:21:06Z</time></trkpt><trkpt lat="45.80135702937443" lon="9.709529940987323"><ele>898.0</ele><time>2026-04-25T10:21:08Z</time></trkpt><trkpt lat="45.801361647588706" lon="9.709694415360191"><ele>898.0</ele><time>2026-04-25T10:21:10Z</time></trkpt><trkpt lat="45.8013589385013" lon="9.709854394937874"><ele>899.8</ele><time>2026-04-25T10:21:12Z</time></trkpt><trkpt lat="45.80134816109255" lon="9.710012307135848"><ele>901.5999999999999</ele><time>2026-04-25T10:21:14Z</time></trkpt><trkpt lat="45.80134688839584" lon="9.710172133571154"><ele>903.4000000000001</ele><time>2026-04-25T10:21:16Z</time></trkpt><trkpt lat="45.801345651492035" lon="9.710330364147595"><ele>905.2</ele><time>2026-04-25T10:21:18Z</time></trkpt><trkpt lat="45.80131684236732" lon="9.710479165679406"><ele>907.0</ele><time>2026-04-25T10:21:20Z</time></trkpt><trkpt lat="45.80127522360716" lon="9.710626477136135"><ele>908.4000000000001</ele><time>2026-04-25T10:21:22Z</time></trkpt><trkpt lat="45.801222840282136" lon="9.71076690505954"><ele>909.8000000000001</ele><time>2026-04-25T10:21:24Z</time></trkpt><trkpt lat="45.801166821130096" lon="9.710900574010138"><ele>911.2</ele><time>2026-04-25T10:21:26Z</time></trkpt><trkpt lat="45.80111337886647" lon="9.711035550273431"><ele>912.6</ele><time>2026-04-25T10:21:28Z</time></trkpt><trkpt lat="45.80106064464244" lon="9.711168818490142"><ele>914.0</ele><time>2026-04-25T10:21:30Z</time></trkpt><trkpt lat="45.801014224108464" lon="9.711305534463353"><ele>916.4000000000001</ele><time>2026-04-25T10:21:32Z</time></trkpt><trkpt lat="45.800969414388284" lon="9.711444949644452"><ele>918.8000000000001</ele><time>2026-04-25T10:21:34Z</time></trkpt><trkpt lat="45.8009402888822" lon="9.711595383296427"><ele>921.1999999999999</ele><time>2026-04-25T10:21:36Z</time></trkpt><trkpt lat="45.800911432256505" lon="9.711741380902296"><ele>923.5999999999999</ele><time>2026-04-25T10:21:38Z</time></trkpt><trkpt lat="45.80088354324783" lon="9.711881732945873"><ele>926.0</ele><time>2026-04-25T10:21:40Z</time></trkpt><trkpt lat="45.8008690955679" lon="9.71202315521228"><ele>926.5999999999999</ele><time>2026-04-25T10:21:42Z</time></trkpt><trkpt lat="45.80085816677711" lon="9.712162234774285"><ele>927.1999999999999</ele><time>2026-04-25T10:21:44Z</time></trkpt><trkpt lat="45.80085308953061" lon="9.712309469940923"><ele>927.8000000000001</ele><time>2026-04-25T10:21:46Z</time></trkpt><trkpt lat="45.80085472361503" lon="9.712469647135215"><ele>928.4000000000001</ele><time>2026-04-25T10:21:48Z</time></trkpt><trkpt lat="45.800842868806896" lon="9.712628988490554"><ele>929.0</ele><time>2026-04-25T10:21:50Z</time></trkpt><trkpt lat="45.800815390853636" lon="9.712792932372974"><ele>929.25</ele><time>2026-04-25T10:21:52Z</time></trkpt><trkpt lat="45.80078695763001" lon="9.71295279772786"><ele>929.5</ele><time>2026-04-25T10:21:54Z</time></trkpt><trkpt lat="45.8007494861502" lon="9.713112915882729"><ele>929.75</ele><time>2026-04-25T10:21:56Z</time></trkpt><trkpt lat="45.80071590789814" lon="9.71326594496779"><ele>930.0</ele><time>2026-04-25T10:21:58Z</time></trkpt><trkpt lat="45.800680388600526" lon="9.713420386095365"><ele>930.0</ele><time>2026-04-25T10:22:00Z</time></trkpt><trkpt lat="45.80064110490944" lon="9.713569717612017"><ele>930.0</ele><time>2026-04-25T10:22:02Z</time></trkpt><trkpt lat="45.800603708526296" lon="9.71372125178917"><ele>930.0</ele><time>2026-04-25T10:22:04Z</time></trkpt><trkpt lat="45.80056912447528" lon="9.71386805576666"><ele>930.0</ele><time>2026-04-25T10:22:06Z</time></trkpt><trkpt lat="45.80053331267936" lon="9.714013390931441"><ele>930.0</ele><time>2026-04-25T10:22:08Z</time></trkpt><trkpt lat="45.80049005940602" lon="9.714155255977497"><ele>932.2</ele><time>2026-04-25T10:22:10Z</time></trkpt><trkpt lat="45.80045075588642" lon="9.714305173281664"><ele>934.4</ele><time>2026-04-25T10:22:12Z</time></trkpt><trkpt lat="45.800419967130644" lon="9.714443080993608"><ele>936.5999999999999</ele><time>2026-04-25T10:22:14Z</time></trkpt><trkpt lat="45.80037994808275" lon="9.714585595435832"><ele>938.8</ele><time>2026-04-25T10:22:16Z</time></trkpt><trkpt lat="45.800342066870286" lon="9.714738150973641"><ele>941.0</ele><time>2026-04-25T10:22:18Z</time></trkpt><trkpt lat="45.80030906803952" lon="9.714884347496291"><ele>943.8</ele><time>2026-04-25T10:22:20Z</time></trkpt><trkpt lat="45.80029156969244" lon="9.715033341923926"><ele>946.5999999999999</ele><time>2026-04-25T10:22:22Z</time></trkpt><trkpt lat="45.800289061429915" lon="9.71517612602594"><ele>949.4</ele><time>2026-04-25T10:22:24Z</time></trkpt><trkpt lat="45.80030149317334" lon="9.715324823070386"><ele>952.2</ele><time>2026-04-25T10:22:26Z</time></trkpt><trkpt lat="45.800303548566816" lon="9.715466523226185"><ele>955.0</ele><time>2026-04-25T10:22:28Z</time></trkpt><trkpt lat="45.80030996706951" lon="9.71559718001167"><ele>956.4</ele><time>2026-04-25T10:22:30Z</time></trkpt><trkpt lat="45.8003096686175" lon="9.715735700798584"><ele>957.8</ele><time>2026-04-25T10:22:32Z</time></trkpt><trkpt lat="45.80030692928429" lon="9.715867475522026"><ele>959.2</ele><time>2026-04-25T10:22:34Z</time></trkpt><trkpt lat="45.800302507652184" lon="9.716008029898914"><ele>960.6</ele><time>2026-04-25T10:22:36Z</time></trkpt><trkpt lat="45.80031773533079" lon="9.71616046129954"><ele>962.0</ele><time>2026-04-25T10:22:38Z</time></trkpt><trkpt lat="45.80034576886157" lon="9.716320831815555"><ele>962.0000000000001</ele><time>2026-04-25T10:22:40Z</time></trkpt><trkpt lat="45.80037816243107" lon="9.71648613260548"><ele>962.0</ele><time>2026-04-25T10:22:42Z</time></trkpt><trkpt lat="45.800415784481835" lon="9.716639053054697"><ele>962.0</ele><time>2026-04-25T10:22:44Z</time></trkpt><trkpt lat="45.80043225381905" lon="9.716727627804243"><ele>962.0</ele><time>2026-04-25T10:22:45Z</time></trkpt><trkpt lat="45.800466022606095" lon="9.716805552566452"><ele>962.0000000000001</ele><time>2026-04-25T10:22:46Z</time></trkpt><trkpt lat="45.800478307024704" lon="9.716910704043224"><ele>962.0</ele><time>2026-04-25T10:22:47Z</time></trkpt><trkpt lat="45.80047950680301" lon="9.717020847442223"><ele>962.0000000000001</ele><time>2026-04-25T10:22:48Z</time></trkpt><trkpt lat="45.8004691331217" lon="9.717128027389114"><ele>962.0</ele><time>2026-04-25T10:22:49Z</time></trkpt><trkpt lat="45.80042964837948" lon="9.717231027402718"><ele>962.0</ele><time>2026-04-25T10:22:50Z</time></trkpt><trkpt lat="45.80037601525296" lon="9.717324205479496"><ele>962.0</ele><time>2026-04-25T10:22:51Z</time></trkpt><trkpt lat="45.800308282384506" lon="9.717394369161216"><ele>962.0000000000001</ele><time>2026-04-25T10:22:52Z</time></trkpt><trkpt lat="45.80022969823703" lon="9.717461908787966"><ele>962.0</ele><time>2026-04-25T10:22:53Z</time></trkpt><trkpt lat="45.80016220309133" lon="9.717538267128196"><ele>958.5000000000001</ele><time>2026-04-25T10:22:54Z</time></trkpt><trkpt lat="45.800098308159946" lon="9.717614720862604"><ele>955.0</ele><time>2026-04-25T10:22:55Z</time></trkpt><trkpt lat="45.80001935277461" lon="9.717756046350898"><ele>951.5</ele><time>2026-04-25T10:22:57Z</time></trkpt><trkpt lat="45.80000136524567" lon="9.717862436628321"><ele>948.0</ele><time>2026-04-25T10:22:59Z</time></trkpt><trkpt lat="45.800001812377104" lon="9.717972998804608"><ele>944.5000000000001</ele><time>2026-04-25T10:25:04Z</time></trkpt><trkpt lat="45.80006617529791" lon="9.718003288544114"><ele>941.0</ele><time>2026-04-25T10:25:07Z</time></trkpt><trkpt lat="45.79999607142056" lon="9.717979313081981"><ele>940.9999999999999</ele><time>2026-04-25T10:26:38Z</time></trkpt><trkpt lat="45.79999674920247" lon="9.717851724450561"><ele>941.0</ele><time>2026-04-25T10:26:42Z</time></trkpt><trkpt lat="45.79997757065712" lon="9.717740949416564"><ele>940.9999999999999</ele><time>2026-04-25T10:26:45Z</time></trkpt><trkpt lat="45.79999885871303" lon="9.71764999848643"><ele>940.9999999999999</ele><time>2026-04-25T10:26:49Z</time></trkpt><trkpt lat="45.800013549785604" lon="9.71774228164881"><ele>941.0</ele><time>2026-04-25T10:26:51Z</time></trkpt><trkpt lat="45.799991507013985" lon="9.717851159291223"><ele>940.9999999999999</ele><time>2026-04-25T10:26:53Z</time></trkpt><trkpt lat="45.79995049347869" lon="9.717922670919714"><ele>940.9999999999999</ele><time>2026-04-25T10:26:56Z</time></trkpt><trkpt lat="45.79987694045583" lon="9.718016166512754"><ele>941.0000000000001</ele><time>2026-04-25T10:26:59Z</time></trkpt><trkpt lat="45.79978142080856" lon="9.718069982773423"><ele>941.0</ele><time>2026-04-25T10:27:01Z</time></trkpt><trkpt lat="45.7997222204136" lon="9.718147247668094"><ele>941.0</ele><time>2026-04-25T10:27:03Z</time></trkpt><trkpt lat="45.79967881839508" lon="9.71822183003151"><ele>941.0</ele><time>2026-04-25T10:27:05Z</time></trkpt><trkpt lat="45.7996549714188" lon="9.718313813520059"><ele>941.0000000000001</ele><time>2026-04-25T10:27:08Z</time></trkpt><trkpt lat="45.79970324065629" lon="9.718411332678944"><ele>941.0</ele><time>2026-04-25T10:27:11Z</time></trkpt><trkpt lat="45.79970611065267" lon="9.718535203442572"><ele>941.5999999999999</ele><time>2026-04-25T10:27:14Z</time></trkpt><trkpt lat="45.79961302674164" lon="9.718576343096958"><ele>942.1999999999999</ele><time>2026-04-25T10:27:16Z</time></trkpt><trkpt lat="45.79951610511591" lon="9.718632574998797"><ele>942.8000000000001</ele><time>2026-04-25T10:27:18Z</time></trkpt><trkpt lat="45.79947481823815" lon="9.718714663042672"><ele>943.4000000000001</ele><time>2026-04-25T10:27:20Z</time></trkpt><trkpt lat="45.799449771427135" lon="9.718853914006878"><ele>944.0</ele><time>2026-04-25T10:27:23Z</time></trkpt><trkpt lat="45.799448307862335" lon="9.71898521470128"><ele>944.0</ele><time>2026-04-25T10:27:25Z</time></trkpt><trkpt lat="45.79944304125282" lon="9.719086364985717"><ele>944.0000000000001</ele><time>2026-04-25T10:27:27Z</time></trkpt><trkpt lat="45.79937682043048" lon="9.71915545393905"><ele>944.0000000000001</ele><time>2026-04-25T10:27:29Z</time></trkpt><trkpt lat="45.799289649198535" lon="9.719122305819083"><ele>944.0</ele><time>2026-04-25T10:27:31Z</time></trkpt><trkpt lat="45.79923378878035" lon="9.719007551186726"><ele>944.0</ele><time>2026-04-25T10:27:33Z</time></trkpt><trkpt lat="45.799133131283455" lon="9.71892725268348"><ele>943.2</ele><time>2026-04-25T10:27:35Z</time></trkpt><trkpt lat="45.799022829150694" lon="9.718877380645619"><ele>942.4000000000001</ele><time>2026-04-25T10:27:37Z</time></trkpt><trkpt lat="45.79894171671669" lon="9.71887114992924"><ele>941.6</ele><time>2026-04-25T10:27:39Z</time></trkpt><trkpt lat="45.79885942512" lon="9.71889465772754"><ele>940.8</ele><time>2026-04-25T10:27:41Z</time></trkpt><trkpt lat="45.79874044900145" lon="9.718896357498757"><ele>940.0</ele><time>2026-04-25T10:27:43Z</time></trkpt><trkpt lat="45.798636409053366" lon="9.718927776885312"><ele>940.0</ele><time>2026-04-25T10:27:45Z</time></trkpt><trkpt lat="45.798556407610626" lon="9.718943257106872"><ele>940.0</ele><time>2026-04-25T10:27:47Z</time></trkpt><trkpt lat="45.79849675283405" lon="9.719009272167575"><ele>940.0</ele><time>2026-04-25T10:27:49Z</time></trkpt><trkpt lat="45.79843838914658" lon="9.719123699227156"><ele>940.0</ele><time>2026-04-25T10:27:51Z</time></trkpt><trkpt lat="45.798355794901845" lon="9.719219473492231"><ele>940.0</ele><time>2026-04-25T10:27:53Z</time></trkpt><trkpt lat="45.79827742616362" lon="9.719314751426614"><ele>938.4</ele><time>2026-04-25T10:27:55Z</time></trkpt><trkpt lat="45.798184565578055" lon="9.719395111710442"><ele>936.8</ele><time>2026-04-25T10:27:57Z</time></trkpt><trkpt lat="45.798096130063094" lon="9.719458547954108"><ele>935.2</ele><time>2026-04-25T10:27:59Z</time></trkpt><trkpt lat="45.798037959734344" lon="9.719521439620024"><ele>933.6</ele><time>2026-04-25T10:28:01Z</time></trkpt><trkpt lat="45.7979416941065" lon="9.719524297758651"><ele>932.0</ele><time>2026-04-25T10:28:03Z</time></trkpt><trkpt lat="45.79782511803465" lon="9.71954485785691"><ele>931.8</ele><time>2026-04-25T10:28:05Z</time></trkpt><trkpt lat="45.797725183894165" lon="9.719614333200541"><ele>931.6</ele><time>2026-04-25T10:28:07Z</time></trkpt><trkpt lat="45.79763758659477" lon="9.719644955932644"><ele>931.3999999999999</ele><time>2026-04-25T10:28:09Z</time></trkpt><trkpt lat="45.79756780499859" lon="9.719712253041166"><ele>931.1999999999999</ele><time>2026-04-25T10:28:12Z</time></trkpt><trkpt lat="45.79751544310747" lon="9.719799987800043"><ele>931.0</ele><time>2026-04-25T10:28:14Z</time></trkpt><trkpt lat="45.797466136550035" lon="9.719919001208625"><ele>930.9999999999999</ele><time>2026-04-25T10:28:16Z</time></trkpt><trkpt lat="45.79743792964761" lon="9.720016584861394"><ele>931.0</ele><time>2026-04-25T10:28:18Z</time></trkpt><trkpt lat="45.797440633859836" lon="9.720147567268867"><ele>931.0</ele><time>2026-04-25T10:28:20Z</time></trkpt><trkpt lat="45.79747712400233" lon="9.720285113517575"><ele>931.0</ele><time>2026-04-25T10:28:22Z</time></trkpt><trkpt lat="45.79744905799685" lon="9.720403539953557"><ele>930.9999999999999</ele><time>2026-04-25T10:28:24Z</time></trkpt><trkpt lat="45.79743456778176" lon="9.720526388437776"><ele>931.0</ele><time>2026-04-25T10:28:26Z</time></trkpt><trkpt lat="45.79739807369454" lon="9.72062335995197"><ele>935.3333333333333</ele><time>2026-04-25T10:28:28Z</time></trkpt><trkpt lat="45.79732809161645" lon="9.720683300617393"><ele>939.6666666666666</ele><time>2026-04-25T10:28:30Z</time></trkpt><trkpt lat="45.79726032170842" lon="9.72076534940236"><ele>944.0</ele><time>2026-04-25T10:28:32Z</time></trkpt><trkpt lat="45.79721741180289" lon="9.720872922497428"><ele>948.3333333333333</ele><time>2026-04-25T10:28:34Z</time></trkpt><trkpt lat="45.79718387837316" lon="9.721015227185042"><ele>952.6666666666666</ele><time>2026-04-25T10:28:36Z</time></trkpt><trkpt lat="45.797136048305745" lon="9.72111373663986"><ele>957.0</ele><time>2026-04-25T10:28:38Z</time></trkpt><trkpt lat="45.797048721624506" lon="9.72115202302967"><ele>961.2</ele><time>2026-04-25T10:28:40Z</time></trkpt><trkpt lat="45.79695703038418" lon="9.721145140598537"><ele>965.4000000000001</ele><time>2026-04-25T10:28:42Z</time></trkpt><trkpt lat="45.796867250359874" lon="9.72123488342548"><ele>969.5999999999999</ele><time>2026-04-25T10:28:44Z</time></trkpt><trkpt lat="45.79678580928936" lon="9.72127456448432"><ele>973.8</ele><time>2026-04-25T10:28:46Z</time></trkpt><trkpt lat="45.79669711449859" lon="9.721382433403566"><ele>978.0</ele><time>2026-04-25T10:28:48Z</time></trkpt><trkpt lat="45.79662644638768" lon="9.721516933283494"><ele>976.1666666666666</ele><time>2026-04-25T10:28:50Z</time></trkpt><trkpt lat="45.796567406074296" lon="9.721636945127575"><ele>974.3333333333333</ele><time>2026-04-25T10:28:52Z</time></trkpt><trkpt lat="45.796540341998785" lon="9.721736531071208"><ele>972.5</ele><time>2026-04-25T10:28:54Z</time></trkpt><trkpt lat="45.796514381637444" lon="9.721821197683411"><ele>970.6666666666666</ele><time>2026-04-25T10:28:56Z</time></trkpt><trkpt lat="45.79651584859859" lon="9.721918809286006"><ele>968.8333333333333</ele><time>2026-04-25T10:28:58Z</time></trkpt><trkpt lat="45.79651646948673" lon="9.72202088047524"><ele>967.0</ele><time>2026-04-25T10:29:01Z</time></trkpt><trkpt lat="45.7964553959398" lon="9.72211132339708"><ele>966.9999999999999</ele><time>2026-04-25T10:29:04Z</time></trkpt><trkpt lat="45.796395941621036" lon="9.722178379044884"><ele>967.0</ele><time>2026-04-25T10:29:07Z</time></trkpt><trkpt lat="45.79635545090504" lon="9.722255037335168"><ele>967.0</ele><time>2026-04-25T10:29:09Z</time></trkpt><trkpt lat="45.79630448935404" lon="9.722385792766897"><ele>967.0</ele><time>2026-04-25T10:29:12Z</time></trkpt><trkpt lat="45.79626268136176" lon="9.72246981368661"><ele>966.9999999999999</ele><time>2026-04-25T10:29:14Z</time></trkpt><trkpt lat="45.79620000704808" lon="9.722533077961646"><ele>967.0</ele><time>2026-04-25T10:29:16Z</time></trkpt><trkpt lat="45.79608220534273" lon="9.722612693921404"><ele>968.6666666666666</ele><time>2026-04-25T10:29:18Z</time></trkpt><trkpt lat="45.79598891428177" lon="9.722690443075125"><ele>970.3333333333333</ele><time>2026-04-25T10:29:20Z</time></trkpt><trkpt lat="45.7959263845483" lon="9.722739430662896"><ele>972.0</ele><time>2026-04-25T10:29:22Z</time></trkpt><trkpt lat="45.79586614703137" lon="9.722792617311777"><ele>973.6666666666667</ele><time>2026-04-25T10:29:52Z</time></trkpt><trkpt lat="45.79580032868222" lon="9.722831023223565"><ele>975.3333333333334</ele><time>2026-04-25T10:29:54Z</time></trkpt><trkpt lat="45.795714432761486" lon="9.722875955757239"><ele>977.0</ele><time>2026-04-25T10:29:56Z</time></trkpt><trkpt lat="45.79563563930025" lon="9.722907047400925"><ele>977.0000000000001</ele><time>2026-04-25T10:29:58Z</time></trkpt><trkpt lat="45.795571984445715" lon="9.722941750107239"><ele>977.0</ele><time>2026-04-25T10:30:00Z</time></trkpt><trkpt lat="45.795511721370765" lon="9.723004463920203"><ele>977.0000000000001</ele><time>2026-04-25T10:30:02Z</time></trkpt><trkpt lat="45.7954482871312" lon="9.723026442067457"><ele>977.0000000000001</ele><time>2026-04-25T10:30:04Z</time></trkpt><trkpt lat="45.79537558914965" lon="9.723030880532432"><ele>977.0</ele><time>2026-04-25T10:30:06Z</time></trkpt><trkpt lat="45.79529663849874" lon="9.723039267649995"><ele>977.0000000000001</ele><time>2026-04-25T10:30:08Z</time></trkpt><trkpt lat="45.79522333298754" lon="9.72308944306558"><ele>977.0000000000001</ele><time>2026-04-25T10:30:10Z</time></trkpt><trkpt lat="45.79515324753071" lon="9.72315317726274"><ele>972.857142857143</ele><time>2026-04-25T10:30:12Z</time></trkpt><trkpt lat="45.79508996066043" lon="9.72320985651391"><ele>968.7142857142858</ele><time>2026-04-25T10:30:14Z</time></trkpt><trkpt lat="45.79503321542934" lon="9.723249053023233"><ele>964.5714285714286</ele><time>2026-04-25T10:30:16Z</time></trkpt><trkpt lat="45.79495698084485" lon="9.723294190533577"><ele>960.4285714285714</ele><time>2026-04-25T10:30:19Z</time></trkpt><trkpt lat="45.79490147122963" lon="9.723351246907077"><ele>956.2857142857142</ele><time>2026-04-25T10:30:23Z</time></trkpt><trkpt lat="45.79483424837009" lon="9.723313564884352"><ele>952.142857142857</ele><time>2026-04-25T10:30:36Z</time></trkpt><trkpt lat="45.794775285027555" lon="9.723351748773469"><ele>947.9999999999999</ele><time>2026-04-25T10:30:48Z</time></trkpt><trkpt lat="45.79474509628427" lon="9.7234463241495"><ele>948.0</ele><time>2026-04-25T10:32:25Z</time></trkpt><trkpt lat="45.79472526594767" lon="9.723536961582116"><ele>948.0</ele><time>2026-04-25T10:32:27Z</time></trkpt><trkpt lat="45.79473033034115" lon="9.723659346766038"><ele>948.0</ele><time>2026-04-25T10:32:30Z</time></trkpt><trkpt lat="45.79474560348778" lon="9.723754642447526"><ele>948.0</ele><time>2026-04-25T10:32:32Z</time></trkpt><trkpt lat="45.7947432451598" lon="9.723876755262857"><ele>948.0</ele><time>2026-04-25T10:32:34Z</time></trkpt><trkpt lat="45.79476743036508" lon="9.724007231585862"><ele>948.0</ele><time>2026-04-25T10:32:36Z</time></trkpt><trkpt lat="45.79477683144498" lon="9.72412050611603"><ele>951.5</ele><time>2026-04-25T10:32:38Z</time></trkpt><trkpt lat="45.79476305508228" lon="9.724240016547697"><ele>955.0</ele><time>2026-04-25T10:32:40Z</time></trkpt><trkpt lat="45.79473395850168" lon="9.724341579688032"><ele>958.5</ele><time>2026-04-25T10:32:42Z</time></trkpt><trkpt lat="45.79469604565933" lon="9.724444530066537"><ele>962.0</ele><time>2026-04-25T10:32:44Z</time></trkpt><trkpt lat="45.79465453146766" lon="9.724524668410043"><ele>965.5</ele><time>2026-04-25T10:32:46Z</time></trkpt><trkpt lat="45.79464134811038" lon="9.72462869148523"><ele>969.0</ele><time>2026-04-25T10:32:49Z</time></trkpt><trkpt lat="45.79461220487679" lon="9.724717424565686"><ele>967.8333333333334</ele><time>2026-04-25T10:32:52Z</time></trkpt><trkpt lat="45.7946020851744" lon="9.72482510162366"><ele>966.6666666666667</ele><time>2026-04-25T10:33:19Z</time></trkpt><trkpt lat="45.79457189687893" lon="9.724937988289192"><ele>965.5</ele><time>2026-04-25T10:33:21Z</time></trkpt><trkpt lat="45.7945444422862" lon="9.725044027280164"><ele>964.3333333333334</ele><time>2026-04-25T10:33:23Z</time></trkpt><trkpt lat="45.79452249277601" lon="9.725153328699463"><ele>963.1666666666667</ele><time>2026-04-25T10:33:25Z</time></trkpt><trkpt lat="45.79447960408855" lon="9.72524055074479"><ele>962.0</ele><time>2026-04-25T10:33:28Z</time></trkpt><trkpt lat="45.794426231182904" lon="9.725325760237691"><ele>962.0000000000001</ele><time>2026-04-25T10:33:31Z</time></trkpt><trkpt lat="45.79438505129884" lon="9.725409857101793"><ele>962.0</ele><time>2026-04-25T10:33:33Z</time></trkpt><trkpt lat="45.79432221197416" lon="9.72544020929638"><ele>962.0</ele><time>2026-04-25T10:33:35Z</time></trkpt><trkpt lat="45.79424890781051" lon="9.725504673929468"><ele>962.0</ele><time>2026-04-25T10:33:37Z</time></trkpt><trkpt lat="45.79419241336659" lon="9.725562710727216"><ele>962.0000000000001</ele><time>2026-04-25T10:33:39Z</time></trkpt><trkpt lat="45.794128358773364" lon="9.725664154057647"><ele>962.0</ele><time>2026-04-25T10:33:41Z</time></trkpt><trkpt lat="45.79403554305793" lon="9.725789245327569"><ele>960.8333333333334</ele><time>2026-04-25T10:33:43Z</time></trkpt><trkpt lat="45.79398789874212" lon="9.72585579518858"><ele>959.6666666666667</ele><time>2026-04-25T10:33:44Z</time></trkpt><trkpt lat="45.79393716473942" lon="9.725920534949555"><ele>958.5</ele><time>2026-04-25T10:33:45Z</time></trkpt><trkpt lat="45.79388440239411" lon="9.725976614248303"><ele>957.3333333333333</ele><time>2026-04-25T10:33:46Z</time></trkpt><trkpt lat="45.79383810701412" lon="9.726054932706052"><ele>956.1666666666666</ele><time>2026-04-25T10:33:47Z</time></trkpt><trkpt lat="45.7937523733203" lon="9.726195475868805"><ele>955.0</ele><time>2026-04-25T10:33:49Z</time></trkpt><trkpt lat="45.79367443063073" lon="9.726333661087644"><ele>956.1666666666666</ele><time>2026-04-25T10:33:51Z</time></trkpt><trkpt lat="45.79363126401353" lon="9.726400594204875"><ele>957.3333333333333</ele><time>2026-04-25T10:33:52Z</time></trkpt><trkpt lat="45.79358953748911" lon="9.726473259582901"><ele>958.5</ele><time>2026-04-25T10:33:53Z</time></trkpt><trkpt lat="45.79350404472696" lon="9.726602502551358"><ele>959.6666666666667</ele><time>2026-04-25T10:33:55Z</time></trkpt><trkpt lat="45.79342327366863" lon="9.72673540352436"><ele>960.8333333333334</ele><time>2026-04-25T10:33:57Z</time></trkpt><trkpt lat="45.79337980064019" lon="9.726804748114299"><ele>962.0</ele><time>2026-04-25T10:33:58Z</time></trkpt><trkpt lat="45.79336028283952" lon="9.726967121005767"><ele>962.0000000000001</ele><time>2026-04-25T10:34:00Z</time></trkpt><trkpt lat="45.79334150328808" lon="9.727074633680791"><ele>962.0</ele><time>2026-04-25T10:34:01Z</time></trkpt><trkpt lat="45.79333967696683" lon="9.727171547100838"><ele>962.0</ele><time>2026-04-25T10:34:02Z</time></trkpt><trkpt lat="45.793338336182366" lon="9.727266691778329"><ele>962.0</ele><time>2026-04-25T10:34:03Z</time></trkpt><trkpt lat="45.79333009643914" lon="9.727361340409153"><ele>962.0000000000001</ele><time>2026-04-25T10:34:04Z</time></trkpt><trkpt lat="45.79331809523719" lon="9.727452250526916"><ele>962.0</ele><time>2026-04-25T10:34:05Z</time></trkpt><trkpt lat="45.79327562010714" lon="9.727620729585778"><ele>958.25</ele><time>2026-04-25T10:34:07Z</time></trkpt><trkpt lat="45.79323422191086" lon="9.727791277183263"><ele>954.5</ele><time>2026-04-25T10:34:09Z</time></trkpt><trkpt lat="45.793188709588065" lon="9.727967774547462"><ele>950.75</ele><time>2026-04-25T10:34:11Z</time></trkpt><trkpt lat="45.793127934697516" lon="9.72812928563689"><ele>947.0</ele><time>2026-04-25T10:34:13Z</time></trkpt><trkpt lat="45.79309324212356" lon="9.728215880955892"><ele>947.0000000000001</ele><time>2026-04-25T10:34:14Z</time></trkpt><trkpt lat="45.79305454991236" lon="9.72829722707307"><ele>947.0</ele><time>2026-04-25T10:34:15Z</time></trkpt><trkpt lat="45.793009632001564" lon="9.728378075264565"><ele>947.0</ele><time>2026-04-25T10:34:16Z</time></trkpt><trkpt lat="45.79296267427371" lon="9.728454123881884"><ele>947.0</ele><time>2026-04-25T10:34:17Z</time></trkpt><trkpt lat="45.79289665066555" lon="9.728528898363674"><ele>947.0000000000001</ele><time>2026-04-25T10:34:18Z</time></trkpt><trkpt lat="45.79285901041408" lon="9.72862776823056"><ele>947.0</ele><time>2026-04-25T10:34:19Z</time></trkpt><trkpt lat="45.792834933201064" lon="9.728733146040847"><ele>943.5000000000001</ele><time>2026-04-25T10:34:20Z</time></trkpt><trkpt lat="45.79281917518223" lon="9.728842259456297"><ele>940.0</ele><time>2026-04-25T10:34:21Z</time></trkpt><trkpt lat="45.7928145929611" lon="9.728948982566378"><ele>936.5</ele><time>2026-04-25T10:34:22Z</time></trkpt><trkpt lat="45.79281703086506" lon="9.729062817075317"><ele>933.0</ele><time>2026-04-25T10:34:23Z</time></trkpt><trkpt lat="45.79281181196973" lon="9.72916857831541"><ele>929.5000000000001</ele><time>2026-04-25T10:34:24Z</time></trkpt><trkpt lat="45.792797094424856" lon="9.729274401740545"><ele>926.0</ele><time>2026-04-25T10:34:25Z</time></trkpt><trkpt lat="45.792742403479394" lon="9.729357356602607"><ele>926.5714285714286</ele><time>2026-04-25T10:34:26Z</time></trkpt><trkpt lat="45.792683428572545" lon="9.729426768200206"><ele>927.1428571428571</ele><time>2026-04-25T10:34:27Z</time></trkpt><trkpt lat="45.79261547363097" lon="9.729478703104785"><ele>927.7142857142857</ele><time>2026-04-25T10:34:28Z</time></trkpt><trkpt lat="45.792545144684716" lon="9.729520212482903"><ele>928.2857142857142</ele><time>2026-04-25T10:34:29Z</time></trkpt><trkpt lat="45.79247329217568" lon="9.72955372537548"><ele>928.8571428571429</ele><time>2026-04-25T10:34:30Z</time></trkpt><trkpt lat="45.792399501694895" lon="9.729569486437095"><ele>929.4285714285713</ele><time>2026-04-25T10:34:31Z</time></trkpt><trkpt lat="45.792331844128164" lon="9.729581183657395"><ele>930.0</ele><time>2026-04-25T10:34:32Z</time></trkpt><trkpt lat="45.79225884438957" lon="9.729600585190163"><ele>930.0</ele><time>2026-04-25T10:34:33Z</time></trkpt><trkpt lat="45.79218536069805" lon="9.72961997786462"><ele>930.0</ele><time>2026-04-25T10:34:34Z</time></trkpt><trkpt lat="45.79211474668216" lon="9.729654220657629"><ele>930.0</ele><time>2026-04-25T10:34:35Z</time></trkpt><trkpt lat="45.79204685667329" lon="9.72969740704406"><ele>930.0</ele><time>2026-04-25T10:34:36Z</time></trkpt><trkpt lat="45.79198447908232" lon="9.72974740904475"><ele>930.0</ele><time>2026-04-25T10:34:37Z</time></trkpt><trkpt lat="45.7919225533129" lon="9.729809826666878"><ele>930.0</ele><time>2026-04-25T10:34:38Z</time></trkpt><trkpt lat="45.791862125417644" lon="9.729868821129186"><ele>930.0</ele><time>2026-04-25T10:34:39Z</time></trkpt><trkpt lat="45.79180414079417" lon="9.729940346031908"><ele>930.3333333333334</ele><time>2026-04-25T10:34:40Z</time></trkpt><trkpt lat="45.79175703464714" lon="9.730029986772271"><ele>930.6666666666667</ele><time>2026-04-25T10:34:41Z</time></trkpt><trkpt lat="45.79172298429825" lon="9.730129555686952"><ele>931.0</ele><time>2026-04-25T10:34:42Z</time></trkpt><trkpt lat="45.791691853543504" lon="9.7302275899275"><ele>931.3333333333334</ele><time>2026-04-25T10:34:43Z</time></trkpt><trkpt lat="45.791660577841284" lon="9.730329108863243"><ele>931.6666666666667</ele><time>2026-04-25T10:34:44Z</time></trkpt><trkpt lat="45.79163065728614" lon="9.730429014698645"><ele>932.0</ele><time>2026-04-25T10:34:45Z</time></trkpt><trkpt lat="45.79160200546463" lon="9.730538337814677"><ele>932.0000000000001</ele><time>2026-04-25T10:34:46Z</time></trkpt><trkpt lat="45.79157374529265" lon="9.730636009864178"><ele>932.0</ele><time>2026-04-25T10:34:47Z</time></trkpt><trkpt lat="45.791497964341914" lon="9.730759291619766"><ele>932.0</ele><time>2026-04-25T10:34:49Z</time></trkpt><trkpt lat="45.79137424014793" lon="9.730764716434209"><ele>932.0</ele><time>2026-04-25T10:34:51Z</time></trkpt><trkpt lat="45.79131176410133" lon="9.730723789970945"><ele>932.0000000000001</ele><time>2026-04-25T10:34:52Z</time></trkpt><trkpt lat="45.7912596758221" lon="9.730659550115757"><ele>932.0</ele><time>2026-04-25T10:34:53Z</time></trkpt><trkpt lat="45.79120424053667" lon="9.730593174805556"><ele>932.0000000000001</ele><time>2026-04-25T10:34:54Z</time></trkpt><trkpt lat="45.79114265084078" lon="9.730525948375247"><ele>932.0</ele><time>2026-04-25T10:34:55Z</time></trkpt><trkpt lat="45.79106864358963" lon="9.730475721446053"><ele>932.0</ele><time>2026-04-25T10:34:56Z</time></trkpt><trkpt lat="45.79098406357033" lon="9.730448605629826"><ele>932.0</ele><time>2026-04-25T10:34:57Z</time></trkpt><trkpt lat="45.790890061981806" lon="9.730460353551067"><ele>932.0000000000001</ele><time>2026-04-25T10:34:58Z</time></trkpt><trkpt lat="45.7907942137401" lon="9.730499282789912"><ele>932.0</ele><time>2026-04-25T10:34:59Z</time></trkpt><trkpt lat="45.79071185595007" lon="9.730520365984292"><ele>931.1428571428571</ele><time>2026-04-25T10:35:00Z</time></trkpt><trkpt lat="45.790634383909286" lon="9.730510518088277"><ele>930.2857142857142</ele><time>2026-04-25T10:35:01Z</time></trkpt><trkpt lat="45.79056488990411" lon="9.730484378670345"><ele>929.4285714285713</ele><time>2026-04-25T10:35:02Z</time></trkpt><trkpt lat="45.79050741506471" lon="9.730443409751597"><ele>928.5714285714286</ele><time>2026-04-25T10:35:03Z</time></trkpt><trkpt lat="45.79045171602417" lon="9.730391176073107"><ele>927.7142857142856</ele><time>2026-04-25T10:35:04Z</time></trkpt><trkpt lat="45.7903886561341" lon="9.730349639840293"><ele>926.8571428571428</ele><time>2026-04-25T10:35:05Z</time></trkpt><trkpt lat="45.79031155802535" lon="9.730360427649892"><ele>926.0</ele><time>2026-04-25T10:35:06Z</time></trkpt><trkpt lat="45.790235131620136" lon="9.73042537353889"><ele>925.1999999999999</ele><time>2026-04-25T10:35:07Z</time></trkpt><trkpt lat="45.790167919064345" lon="9.730503521456223"><ele>924.3999999999999</ele><time>2026-04-25T10:35:08Z</time></trkpt><trkpt lat="45.79009414450039" lon="9.730556842476684"><ele>923.6</ele><time>2026-04-25T10:35:09Z</time></trkpt><trkpt lat="45.79001390002864" lon="9.730592989088262"><ele>922.8</ele><time>2026-04-25T10:35:10Z</time></trkpt><trkpt lat="45.78989749514882" lon="9.730562146123338"><ele>922.0</ele><time>2026-04-25T10:35:12Z</time></trkpt><trkpt lat="45.7897732187518" lon="9.73051951322893"><ele>921.9999999999999</ele><time>2026-04-25T10:35:14Z</time></trkpt><trkpt lat="45.78970891326803" lon="9.73057018404512"><ele>922.0</ele><time>2026-04-25T10:35:15Z</time></trkpt><trkpt lat="45.78965217751711" lon="9.730632455229413"><ele>922.0</ele><time>2026-04-25T10:35:16Z</time></trkpt><trkpt lat="45.7895990372933" lon="9.730688606277893"><ele>922.0</ele><time>2026-04-25T10:35:17Z</time></trkpt><trkpt lat="45.789479482838466" lon="9.730749266892284"><ele>921.9999999999999</ele><time>2026-04-25T10:35:19Z</time></trkpt><trkpt lat="45.78941426432927" lon="9.730776408316764"><ele>922.0</ele><time>2026-04-25T10:35:20Z</time></trkpt><trkpt lat="45.789355470213465" lon="9.730825561989354"><ele>925.9999999999999</ele><time>2026-04-25T10:35:21Z</time></trkpt><trkpt lat="45.7893128143155" lon="9.73089345069719"><ele>930.0</ele><time>2026-04-25T10:35:22Z</time></trkpt><trkpt lat="45.78928503954089" lon="9.730983090749145"><ele>934.0</ele><time>2026-04-25T10:35:23Z</time></trkpt><trkpt lat="45.7893032355249" lon="9.73116925485276"><ele>938.0</ele><time>2026-04-25T10:35:25Z</time></trkpt><trkpt lat="45.78934349186546" lon="9.731273370075264"><ele>941.9999999999999</ele><time>2026-04-25T10:35:26Z</time></trkpt><trkpt lat="45.789369007009235" lon="9.73138745241465"><ele>946.0</ele><time>2026-04-25T10:35:27Z</time></trkpt><trkpt lat="45.78937968349262" lon="9.731507290888494"><ele>946.0</ele><time>2026-04-25T10:35:28Z</time></trkpt><trkpt lat="45.789378937309515" lon="9.731625965400584"><ele>946.0</ele><time>2026-04-25T10:35:29Z</time></trkpt><trkpt lat="45.78937701431177" lon="9.731728792065871"><ele>946.0</ele><time>2026-04-25T10:35:30Z</time></trkpt><trkpt lat="45.78935955092384" lon="9.731827939553678"><ele>946.0</ele><time>2026-04-25T10:35:31Z</time></trkpt><trkpt lat="45.78933042426473" lon="9.73191318804641"><ele>946.0</ele><time>2026-04-25T10:35:32Z</time></trkpt><trkpt lat="45.789299724222964" lon="9.732000790011169"><ele>946.0</ele><time>2026-04-25T10:35:33Z</time></trkpt><trkpt lat="45.78929270136999" lon="9.732115177512082"><ele>946.0</ele><time>2026-04-25T10:35:34Z</time></trkpt><trkpt lat="45.789324288002824" lon="9.732229569237727"><ele>935.5999999999999</ele><time>2026-04-25T10:35:35Z</time></trkpt><trkpt lat="45.78937158040615" lon="9.732346661611876"><ele>925.1999999999999</ele><time>2026-04-25T10:35:36Z</time></trkpt><trkpt lat="45.78941962834532" lon="9.732461654216241"><ele>914.8000000000001</ele><time>2026-04-25T10:35:37Z</time></trkpt><trkpt lat="45.78946358458412" lon="9.732581038116004"><ele>904.4000000000001</ele><time>2026-04-25T10:35:38Z</time></trkpt><trkpt lat="45.78950374365364" lon="9.732709474183174"><ele>894.0</ele><time>2026-04-25T10:35:39Z</time></trkpt><trkpt lat="45.789536924435396" lon="9.732844626247875"><ele>894.0</ele><time>2026-04-25T10:35:40Z</time></trkpt><trkpt lat="45.78957117608128" lon="9.732982261896266"><ele>894.0000000000001</ele><time>2026-04-25T10:35:41Z</time></trkpt><trkpt lat="45.78961115554326" lon="9.73310799728381"><ele>894.0000000000001</ele><time>2026-04-25T10:35:42Z</time></trkpt><trkpt lat="45.7896711101987" lon="9.733227120904317"><ele>894.0</ele><time>2026-04-25T10:35:43Z</time></trkpt><trkpt lat="45.7897347303899" lon="9.733334513623118"><ele>894.0</ele><time>2026-04-25T10:35:44Z</time></trkpt><trkpt lat="45.78978442310049" lon="9.733459531961001"><ele>893.6666666666666</ele><time>2026-04-25T10:35:45Z</time></trkpt><trkpt lat="45.789824444489476" lon="9.733590278102035"><ele>893.3333333333333</ele><time>2026-04-25T10:35:46Z</time></trkpt><trkpt lat="45.78985886870361" lon="9.733710012514724"><ele>893.0</ele><time>2026-04-25T10:35:47Z</time></trkpt><trkpt lat="45.78988819929211" lon="9.733817028750277"><ele>892.6666666666666</ele><time>2026-04-25T10:35:48Z</time></trkpt><trkpt lat="45.78991443721031" lon="9.733909251780755"><ele>892.3333333333333</ele><time>2026-04-25T10:35:49Z</time></trkpt><trkpt lat="45.789942299909434" lon="9.734003273028712"><ele>892.0</ele><time>2026-04-25T10:35:50Z</time></trkpt><trkpt lat="45.789944933843664" lon="9.734121940253917"><ele>892.0</ele><time>2026-04-25T10:35:51Z</time></trkpt><trkpt lat="45.789934757861104" lon="9.734232773416629"><ele>892.0</ele><time>2026-04-25T10:35:52Z</time></trkpt><trkpt lat="45.78991790068232" lon="9.734329047717857"><ele>892.0</ele><time>2026-04-25T10:35:53Z</time></trkpt><trkpt lat="45.78988742774916" lon="9.734408253578193"><ele>892.0</ele><time>2026-04-25T10:35:54Z</time></trkpt><trkpt lat="45.789826602485874" lon="9.734473654440874"><ele>892.0</ele><time>2026-04-25T10:35:55Z</time></trkpt><trkpt lat="45.78975177506206" lon="9.734526510506837"><ele>892.0</ele><time>2026-04-25T10:35:56Z</time></trkpt><trkpt lat="45.789685797951385" lon="9.734564663912852"><ele>892.0</ele><time>2026-04-25T10:35:57Z</time></trkpt><trkpt lat="45.78967041777472" lon="9.734690998761277"><ele>891.9999999999999</ele><time>2026-04-25T10:35:59Z</time></trkpt><trkpt lat="45.789731551012245" lon="9.7347206643098"><ele>892.0</ele><time>2026-04-25T10:36:00Z</time></trkpt><trkpt lat="45.789831598639196" lon="9.734627867283447"><ele>892.0</ele><time>2026-04-25T10:36:02Z</time></trkpt><trkpt lat="45.78993602399613" lon="9.734540071310581"><ele>892.0</ele><time>2026-04-25T10:36:04Z</time></trkpt><trkpt lat="45.789993812441246" lon="9.734498360644473"><ele>891.9999999999999</ele><time>2026-04-25T10:36:05Z</time></trkpt><trkpt lat="45.79004469430466" lon="9.734441195483846"><ele>892.0</ele><time>2026-04-25T10:36:06Z</time></trkpt><trkpt lat="45.790084022643235" lon="9.734366298138251"><ele>891.9999999999999</ele><time>2026-04-25T10:36:07Z</time></trkpt><trkpt lat="45.79010896263467" lon="9.734257679140793"><ele>892.0</ele><time>2026-04-25T10:36:08Z</time></trkpt><trkpt lat="45.79013266564929" lon="9.734146711304046"><ele>892.0</ele><time>2026-04-25T10:36:09Z</time></trkpt><trkpt lat="45.79015410241416" lon="9.734027216024575"><ele>892.0</ele><time>2026-04-25T10:36:10Z</time></trkpt><trkpt lat="45.790161344576994" lon="9.733930324889645"><ele>891.9999999999999</ele><time>2026-04-25T10:36:11Z</time></trkpt><trkpt lat="45.790142508286415" lon="9.733843392546735"><ele>892.0</ele><time>2026-04-25T10:36:12Z</time></trkpt><trkpt lat="45.79010703909431" lon="9.733686136679392"><ele>891.9999999999999</ele><time>2026-04-25T10:36:14Z</time></trkpt><trkpt lat="45.79008922990923" lon="9.733579198449528"><ele>892.0</ele><time>2026-04-25T10:36:15Z</time></trkpt><trkpt lat="45.790076772890366" lon="9.733482481700277"><ele>892.0</ele><time>2026-04-25T10:36:16Z</time></trkpt><trkpt lat="45.7900615157312" lon="9.733325877073073"><ele>892.0</ele><time>2026-04-25T10:36:18Z</time></trkpt><trkpt lat="45.7900552650046" lon="9.733197885394329"><ele>891.9999999999999</ele><time>2026-04-25T10:36:20Z</time></trkpt><trkpt lat="45.7900333030952" lon="9.73306626382445"><ele>892.0</ele><time>2026-04-25T10:36:23Z</time></trkpt><trkpt lat="45.790034230589896" lon="9.732946230520469"><ele>892.2857142857142</ele><time>2026-04-25T10:36:26Z</time></trkpt><trkpt lat="45.79001402801993" lon="9.732860715315931"><ele>892.5714285714286</ele><time>2026-04-25T10:36:54Z</time></trkpt><trkpt lat="45.79000833544885" lon="9.73295661005173"><ele>892.8571428571429</ele><time>2026-04-25T10:37:19Z</time></trkpt><trkpt lat="45.79000072481726" lon="9.73305220371515"><ele>893.1428571428571</ele><time>2026-04-25T10:37:37Z</time></trkpt><trkpt lat="45.79005615890182" lon="9.733096034343523"><ele>893.4285714285714</ele><time>2026-04-25T10:37:43Z</time></trkpt><trkpt lat="45.79004564631757" lon="9.73294605550017"><ele>893.7142857142857</ele><time>2026-04-25T10:38:05Z</time></trkpt><trkpt lat="45.7900275152386" lon="9.732856792089013"><ele>894.0</ele><time>2026-04-25T10:38:12Z</time></trkpt><trkpt lat="45.78996542602295" lon="9.732882903387422"><ele>893.9999999999999</ele><time>2026-04-25T10:38:20Z</time></trkpt><trkpt lat="45.78990107901549" lon="9.732864361926286"><ele>894.0</ele><time>2026-04-25T10:38:28Z</time></trkpt><trkpt lat="45.78986439209554" lon="9.732783166952741"><ele>894.0</ele><time>2026-04-25T10:38:36Z</time></trkpt><trkpt lat="45.78982893881059" lon="9.732702955715846"><ele>894.0</ele><time>2026-04-25T10:39:07Z</time></trkpt><trkpt lat="45.78982199702689" lon="9.732600903940856"><ele>894.0</ele><time>2026-04-25T10:39:10Z</time></trkpt><trkpt lat="45.78981990396929" lon="9.732500496414678"><ele>893.9999999999999</ele><time>2026-04-25T10:39:13Z</time></trkpt><trkpt lat="45.78980772513395" lon="9.732367835326418"><ele>894.0</ele><time>2026-04-25T10:39:26Z</time></trkpt><trkpt lat="45.78982422607322" lon="9.73227882920901"><ele>892.5</ele><time>2026-04-25T10:39:28Z</time></trkpt><trkpt lat="45.78985615134508" lon="9.732159234855297"><ele>891.0</ele><time>2026-04-25T10:39:31Z</time></trkpt><trkpt lat="45.789874572636585" lon="9.732037427879836"><ele>889.5</ele><time>2026-04-25T10:39:34Z</time></trkpt><trkpt lat="45.789900519625284" lon="9.731931370602096"><ele>888.0</ele><time>2026-04-25T10:39:37Z</time></trkpt><trkpt lat="45.789875393922244" lon="9.73204328056261"><ele>886.5</ele><time>2026-04-25T10:40:46Z</time></trkpt><trkpt lat="45.78985558272937" lon="9.732174260160935"><ele>885.0</ele><time>2026-04-25T10:40:49Z</time></trkpt><trkpt lat="45.78983134517399" lon="9.732290915150957"><ele>885.0</ele><time>2026-04-25T10:40:51Z</time></trkpt><trkpt lat="45.78981495147502" lon="9.73239926046514"><ele>885.0</ele><time>2026-04-25T10:40:53Z</time></trkpt><trkpt lat="45.789820499381975" lon="9.732498096070037"><ele>885.0</ele><time>2026-04-25T10:40:55Z</time></trkpt><trkpt lat="45.789837324108035" lon="9.732608859737088"><ele>885.0</ele><time>2026-04-25T10:40:57Z</time></trkpt><trkpt lat="45.78985185093624" lon="9.732721195008958"><ele>885.0</ele><time>2026-04-25T10:40:59Z</time></trkpt><trkpt lat="45.78988850878952" lon="9.73284109995751"><ele>885.0</ele><time>2026-04-25T10:41:02Z</time></trkpt><trkpt lat="45.789925314359444" lon="9.732926411175923"><ele>886.8</ele><time>2026-04-25T10:41:04Z</time></trkpt><trkpt lat="45.789994806472684" lon="9.732990635590568"><ele>888.6</ele><time>2026-04-25T10:41:06Z</time></trkpt><trkpt lat="45.790049458871536" lon="9.733100502957923"><ele>890.4000000000001</ele><time>2026-04-25T10:41:09Z</time></trkpt><trkpt lat="45.7900721564367" lon="9.733227813552789"><ele>892.2</ele><time>2026-04-25T10:41:11Z</time></trkpt><trkpt lat="45.79007098198248" lon="9.733376950055955"><ele>894.0</ele><time>2026-04-25T10:41:13Z</time></trkpt><trkpt lat="45.79007682889264" lon="9.733524827297368"><ele>893.6</ele><time>2026-04-25T10:41:15Z</time></trkpt><trkpt lat="45.790097228562296" lon="9.733667188949797"><ele>893.2</ele><time>2026-04-25T10:41:17Z</time></trkpt><trkpt lat="45.790118761897304" lon="9.73380450229107"><ele>892.8000000000001</ele><time>2026-04-25T10:41:19Z</time></trkpt><trkpt lat="45.7901252864247" lon="9.733939922453958"><ele>892.4000000000001</ele><time>2026-04-25T10:41:21Z</time></trkpt><trkpt lat="45.790109172544504" lon="9.734084304631269"><ele>892.0</ele><time>2026-04-25T10:41:23Z</time></trkpt><trkpt lat="45.790082030113474" lon="9.734220457779784"><ele>892.0</ele><time>2026-04-25T10:41:25Z</time></trkpt><trkpt lat="45.79005928821408" lon="9.734361650032335"><ele>892.0</ele><time>2026-04-25T10:41:27Z</time></trkpt><trkpt lat="45.789991909543446" lon="9.734477038487656"><ele>892.0</ele><time>2026-04-25T10:41:29Z</time></trkpt><trkpt lat="45.789893445643344" lon="9.734536839758645"><ele>892.0</ele><time>2026-04-25T10:41:31Z</time></trkpt><trkpt lat="45.78980961141308" lon="9.734624807197854"><ele>892.0</ele><time>2026-04-25T10:41:33Z</time></trkpt><trkpt lat="45.78972493725018" lon="9.734674158186884"><ele>892.0</ele><time>2026-04-25T10:41:35Z</time></trkpt><trkpt lat="45.78970459609461" lon="9.734555165474827"><ele>892.0</ele><time>2026-04-25T10:41:37Z</time></trkpt><trkpt lat="45.78980233737618" lon="9.734496460115778"><ele>892.0</ele><time>2026-04-25T10:41:39Z</time></trkpt><trkpt lat="45.789885483436684" lon="9.734425235760689"><ele>892.0</ele><time>2026-04-25T10:41:41Z</time></trkpt><trkpt lat="45.78994193931283" lon="9.73431459394124"><ele>892.0</ele><time>2026-04-25T10:41:43Z</time></trkpt><trkpt lat="45.789956299226496" lon="9.734176110757211"><ele>892.0</ele><time>2026-04-25T10:41:45Z</time></trkpt><trkpt lat="45.789956547705195" lon="9.734037831686424"><ele>892.0</ele><time>2026-04-25T10:41:47Z</time></trkpt><trkpt lat="45.78994541447151" lon="9.733903991624842"><ele>892.0</ele><time>2026-04-25T10:41:49Z</time></trkpt><trkpt lat="45.789901811664116" lon="9.733759054444402"><ele>892.0</ele><time>2026-04-25T10:41:51Z</time></trkpt><trkpt lat="45.78984650011716" lon="9.733625867259747"><ele>892.0</ele><time>2026-04-25T10:41:53Z</time></trkpt><trkpt lat="45.789801694935846" lon="9.733495956217736"><ele>892.4000000000001</ele><time>2026-04-25T10:41:55Z</time></trkpt><trkpt lat="45.78975884768152" lon="9.733351505407196"><ele>892.8000000000001</ele><time>2026-04-25T10:41:57Z</time></trkpt><trkpt lat="45.78969273531253" lon="9.733239447397805"><ele>893.2</ele><time>2026-04-25T10:41:59Z</time></trkpt><trkpt lat="45.789638423693475" lon="9.733094432027714"><ele>893.6</ele><time>2026-04-25T10:42:01Z</time></trkpt><trkpt lat="45.78958375530387" lon="9.732962976104368"><ele>894.0</ele><time>2026-04-25T10:42:03Z</time></trkpt><trkpt lat="45.78954417190294" lon="9.732813061014406"><ele>891.75</ele><time>2026-04-25T10:42:05Z</time></trkpt><trkpt lat="45.789503247747156" lon="9.732673489379552"><ele>889.5</ele><time>2026-04-25T10:42:07Z</time></trkpt><trkpt lat="45.78945576239942" lon="9.732519810820492"><ele>887.25</ele><time>2026-04-25T10:42:09Z</time></trkpt><trkpt lat="45.78941082814257" lon="9.732369542116231"><ele>885.0</ele><time>2026-04-25T10:42:11Z</time></trkpt><trkpt lat="45.78935895648982" lon="9.732218660082305"><ele>886.8</ele><time>2026-04-25T10:42:13Z</time></trkpt><trkpt lat="45.78931529553269" lon="9.73208048783198"><ele>888.6</ele><time>2026-04-25T10:42:15Z</time></trkpt><trkpt lat="45.78932275420355" lon="9.731918022914154"><ele>890.4000000000001</ele><time>2026-04-25T10:42:17Z</time></trkpt><trkpt lat="45.78936908220988" lon="9.73178236374563"><ele>892.2</ele><time>2026-04-25T10:42:19Z</time></trkpt><trkpt lat="45.7894084339184" lon="9.731636412185903"><ele>894.0</ele><time>2026-04-25T10:42:21Z</time></trkpt><trkpt lat="45.78939580898376" lon="9.731482724672498"><ele>894.0</ele><time>2026-04-25T10:42:23Z</time></trkpt><trkpt lat="45.789375199638435" lon="9.731332063032406"><ele>894.0000000000001</ele><time>2026-04-25T10:42:25Z</time></trkpt><trkpt lat="45.78934696315172" lon="9.731185248109648"><ele>894.0000000000001</ele><time>2026-04-25T10:42:27Z</time></trkpt><trkpt lat="45.78931538467898" lon="9.731035966248418"><ele>894.0</ele><time>2026-04-25T10:42:29Z</time></trkpt><trkpt lat="45.78934133018798" lon="9.730899674829422"><ele>894.0</ele><time>2026-04-25T10:42:31Z</time></trkpt><trkpt lat="45.789399489865545" lon="9.730825849667177"><ele>901.0</ele><time>2026-04-25T10:42:33Z</time></trkpt><trkpt lat="45.789482419612575" lon="9.730748892379003"><ele>908.0</ele><time>2026-04-25T10:42:35Z</time></trkpt><trkpt lat="45.7895919905401" lon="9.730690645606273"><ele>915.0</ele><time>2026-04-25T10:42:37Z</time></trkpt><trkpt lat="45.78970294568843" lon="9.730619903042724"><ele>922.0</ele><time>2026-04-25T10:42:39Z</time></trkpt><trkpt lat="45.78980814958818" lon="9.730534473448985"><ele>922.0</ele><time>2026-04-25T10:42:41Z</time></trkpt><trkpt lat="45.789869604540115" lon="9.730512599794801"><ele>922.0</ele><time>2026-04-25T10:42:42Z</time></trkpt><trkpt lat="45.78997950056863" lon="9.730582030617677"><ele>922.0</ele><time>2026-04-25T10:42:44Z</time></trkpt><trkpt lat="45.79010155946652" lon="9.730572971573316"><ele>922.0</ele><time>2026-04-25T10:42:46Z</time></trkpt><trkpt lat="45.79015860259328" lon="9.730534474938315"><ele>922.0</ele><time>2026-04-25T10:42:47Z</time></trkpt><trkpt lat="45.790254033654556" lon="9.730441166330895"><ele>923.0</ele><time>2026-04-25T10:42:49Z</time></trkpt><trkpt lat="45.79035215422971" lon="9.730383995226566"><ele>924.0</ele><time>2026-04-25T10:42:51Z</time></trkpt><trkpt lat="45.79046818385121" lon="9.73039352373058"><ele>925.0</ele><time>2026-04-25T10:42:53Z</time></trkpt><trkpt lat="45.79056350795454" lon="9.730483487875127"><ele>926.0</ele><time>2026-04-25T10:42:55Z</time></trkpt><trkpt lat="45.7906724158817" lon="9.730541893784217"><ele>926.0</ele><time>2026-04-25T10:42:57Z</time></trkpt><trkpt lat="45.79079466652855" lon="9.730523442168598"><ele>926.0</ele><time>2026-04-25T10:42:59Z</time></trkpt><trkpt lat="45.7909098185323" lon="9.730493167947168"><ele>926.0</ele><time>2026-04-25T10:43:01Z</time></trkpt><trkpt lat="45.791023690256964" lon="9.730486136642666"><ele>926.0</ele><time>2026-04-25T10:43:03Z</time></trkpt><trkpt lat="45.7911362621793" lon="9.730540456017541"><ele>927.5</ele><time>2026-04-25T10:43:05Z</time></trkpt><trkpt lat="45.79123364205147" lon="9.730637544055895"><ele>929.0</ele><time>2026-04-25T10:43:07Z</time></trkpt><trkpt lat="45.7913199904627" lon="9.730728287200769"><ele>930.5</ele><time>2026-04-25T10:43:09Z</time></trkpt><trkpt lat="45.791421779282196" lon="9.730798486413894"><ele>932.0</ele><time>2026-04-25T10:43:11Z</time></trkpt><trkpt lat="45.79153092109208" lon="9.7307609803393"><ele>932.0</ele><time>2026-04-25T10:43:13Z</time></trkpt><trkpt lat="45.791595957368266" lon="9.73063540756993"><ele>932.0</ele><time>2026-04-25T10:43:15Z</time></trkpt><trkpt lat="45.791645747617935" lon="9.730481142244216"><ele>932.0</ele><time>2026-04-25T10:43:17Z</time></trkpt><trkpt lat="45.791691403334774" lon="9.730326737270625"><ele>932.0</ele><time>2026-04-25T10:43:19Z</time></trkpt><trkpt lat="45.79174448103921" lon="9.730173635059595"><ele>931.6</ele><time>2026-04-25T10:43:21Z</time></trkpt><trkpt lat="45.791807648270414" lon="9.730021614879252"><ele>931.2</ele><time>2026-04-25T10:43:23Z</time></trkpt><trkpt lat="45.79188434158989" lon="9.729886875567313"><ele>930.8</ele><time>2026-04-25T10:43:25Z</time></trkpt><trkpt lat="45.791988530258145" lon="9.729801781392345"><ele>930.4</ele><time>2026-04-25T10:43:27Z</time></trkpt><trkpt lat="45.79204336499584" lon="9.729750969186176"><ele>930.0</ele><time>2026-04-25T10:43:28Z</time></trkpt><trkpt lat="45.7921523130242" lon="9.729684224265046"><ele>930.0</ele><time>2026-04-25T10:43:30Z</time></trkpt><trkpt lat="45.79226032619482" lon="9.729637718436715"><ele>930.0</ele><time>2026-04-25T10:43:32Z</time></trkpt><trkpt lat="45.7923247185795" lon="9.729628273024652"><ele>930.0</ele><time>2026-04-25T10:43:33Z</time></trkpt><trkpt lat="45.79244339808208" lon="9.729597326946534"><ele>930.0</ele><time>2026-04-25T10:43:35Z</time></trkpt><trkpt lat="45.79256039361689" lon="9.729559497664933"><ele>930.0</ele><time>2026-04-25T10:43:37Z</time></trkpt><trkpt lat="45.79266894810861" lon="9.729473275661277"><ele>929.2</ele><time>2026-04-25T10:43:39Z</time></trkpt><trkpt lat="45.79271703063787" lon="9.729413515028876"><ele>928.4</ele><time>2026-04-25T10:43:40Z</time></trkpt><trkpt lat="45.792784073484235" lon="9.729270604653454"><ele>927.5999999999999</ele><time>2026-04-25T10:43:42Z</time></trkpt><trkpt lat="45.79280235389438" lon="9.729097815435303"><ele>926.8</ele><time>2026-04-25T10:43:44Z</time></trkpt><trkpt lat="45.792812754089084" lon="9.728923202828675"><ele>926.0</ele><time>2026-04-25T10:43:46Z</time></trkpt><trkpt lat="45.792836299056546" lon="9.728756333777223"><ele>926.0</ele><time>2026-04-25T10:43:48Z</time></trkpt><trkpt lat="45.79289290534147" lon="9.728597033394001"><ele>925.9999999999999</ele><time>2026-04-25T10:43:50Z</time></trkpt><trkpt lat="45.792958568662364" lon="9.728454797842206"><ele>925.9999999999999</ele><time>2026-04-25T10:43:52Z</time></trkpt><trkpt lat="45.79303865443517" lon="9.728323773287817"><ele>926.0</ele><time>2026-04-25T10:43:54Z</time></trkpt><trkpt lat="45.79309043106219" lon="9.72825051056383"><ele>926.0</ele><time>2026-04-25T10:43:55Z</time></trkpt><trkpt lat="45.79315301268959" lon="9.728097176504642"><ele>930.1999999999999</ele><time>2026-04-25T10:43:57Z</time></trkpt><trkpt lat="45.79320465668024" lon="9.727934136462851"><ele>934.3999999999999</ele><time>2026-04-25T10:43:59Z</time></trkpt><trkpt lat="45.79324805758518" lon="9.727773772368263"><ele>938.6</ele><time>2026-04-25T10:44:01Z</time></trkpt><trkpt lat="45.79327243473968" lon="9.727685480133404"><ele>942.8</ele><time>2026-04-25T10:44:02Z</time></trkpt><trkpt lat="45.79331684931297" lon="9.727524391113281"><ele>947.0</ele><time>2026-04-25T10:44:04Z</time></trkpt><trkpt lat="45.79334408413669" lon="9.727439034645151"><ele>949.5000000000001</ele><time>2026-04-25T10:44:05Z</time></trkpt><trkpt lat="45.79335466030297" lon="9.72734865286421"><ele>952.0</ele><time>2026-04-25T10:44:06Z</time></trkpt><trkpt lat="45.79336730440396" lon="9.727256116277568"><ele>954.5</ele><time>2026-04-25T10:44:07Z</time></trkpt><trkpt lat="45.79337017750203" lon="9.72716269313453"><ele>957.0</ele><time>2026-04-25T10:44:08Z</time></trkpt><trkpt lat="45.793385641705136" lon="9.727073471071309"><ele>959.5000000000001</ele><time>2026-04-25T10:44:09Z</time></trkpt><trkpt lat="45.79341433656456" lon="9.726894291351494"><ele>962.0</ele><time>2026-04-25T10:44:11Z</time></trkpt><trkpt lat="45.79347068329658" lon="9.726731865477277"><ele>958.0</ele><time>2026-04-25T10:44:13Z</time></trkpt><trkpt lat="45.79355430685542" lon="9.726596490253248"><ele>954.0</ele><time>2026-04-25T10:44:15Z</time></trkpt><trkpt lat="45.79363581707677" lon="9.726489494329057"><ele>950.0</ele><time>2026-04-25T10:44:17Z</time></trkpt><trkpt lat="45.79370686088073" lon="9.726393569937098"><ele>946.0</ele><time>2026-04-25T10:44:19Z</time></trkpt><trkpt lat="45.79375742674642" lon="9.726294619499571"><ele>942.0</ele><time>2026-04-25T10:44:21Z</time></trkpt><trkpt lat="45.79382482882927" lon="9.72616712089689"><ele>944.6</ele><time>2026-04-25T10:44:23Z</time></trkpt><trkpt lat="45.79390267522556" lon="9.726036876585187"><ele>947.2</ele><time>2026-04-25T10:44:25Z</time></trkpt><trkpt lat="45.793982287187205" lon="9.725913992766271"><ele>949.8</ele><time>2026-04-25T10:44:27Z</time></trkpt><trkpt lat="45.79406136965834" lon="9.725812665242191"><ele>952.4</ele><time>2026-04-25T10:44:29Z</time></trkpt><trkpt lat="45.794137348827945" lon="9.725737611400103"><ele>955.0</ele><time>2026-04-25T10:44:31Z</time></trkpt><trkpt lat="45.794196854182054" lon="9.725667849393835"><ele>955.0</ele><time>2026-04-25T10:44:33Z</time></trkpt><trkpt lat="45.79419561941908" lon="9.725555766151919"><ele>955.0</ele><time>2026-04-25T10:44:36Z</time></trkpt><trkpt lat="45.79409090460319" lon="9.725578727681095"><ele>955.0</ele><time>2026-04-25T10:44:38Z</time></trkpt><trkpt lat="45.79401069802011" lon="9.725676377240937"><ele>955.0</ele><time>2026-04-25T10:44:40Z</time></trkpt><trkpt lat="45.79392289662535" lon="9.725776583515513"><ele>955.0</ele><time>2026-04-25T10:44:42Z</time></trkpt><trkpt lat="45.79381483180255" lon="9.725849537006592"><ele>955.0</ele><time>2026-04-25T10:44:44Z</time></trkpt><trkpt lat="45.793718534684466" lon="9.725896504872791"><ele>955.0</ele><time>2026-04-25T10:44:46Z</time></trkpt><trkpt lat="45.79362077741793" lon="9.725960017116618"><ele>955.0</ele><time>2026-04-25T10:44:48Z</time></trkpt><trkpt lat="45.793518993711835" lon="9.726023820460275"><ele>955.0</ele><time>2026-04-25T10:44:50Z</time></trkpt><trkpt lat="45.793416700014106" lon="9.72608887264158"><ele>955.0</ele><time>2026-04-25T10:44:52Z</time></trkpt><trkpt lat="45.79331545822307" lon="9.726167980553901"><ele>957.8</ele><time>2026-04-25T10:44:54Z</time></trkpt><trkpt lat="45.79321290681523" lon="9.72623391103304"><ele>960.6</ele><time>2026-04-25T10:44:56Z</time></trkpt><trkpt lat="45.79311096780564" lon="9.726301479604945"><ele>963.4000000000001</ele><time>2026-04-25T10:44:58Z</time></trkpt><trkpt lat="45.79300898069208" lon="9.72637453790155"><ele>966.2</ele><time>2026-04-25T10:45:00Z</time></trkpt><trkpt lat="45.79291123946478" lon="9.726435504312638"><ele>969.0</ele><time>2026-04-25T10:45:02Z</time></trkpt><trkpt lat="45.792817607901505" lon="9.726506560364422"><ele>969.0</ele><time>2026-04-25T10:45:04Z</time></trkpt><trkpt lat="45.792732614716876" lon="9.726598606166304"><ele>969.0</ele><time>2026-04-25T10:45:06Z</time></trkpt><trkpt lat="45.79271103379973" lon="9.72676531941983"><ele>969.0</ele><time>2026-04-25T10:45:08Z</time></trkpt><trkpt lat="45.792746258754015" lon="9.726931718004888"><ele>969.0</ele><time>2026-04-25T10:45:10Z</time></trkpt><trkpt lat="45.79274192070249" lon="9.727092799050597"><ele>967.6</ele><time>2026-04-25T10:45:12Z</time></trkpt><trkpt lat="45.79271662061308" lon="9.727245889251265"><ele>966.2</ele><time>2026-04-25T10:45:14Z</time></trkpt><trkpt lat="45.79267862491455" lon="9.72739089462582"><ele>964.8000000000001</ele><time>2026-04-25T10:45:16Z</time></trkpt><trkpt lat="45.792633364336204" lon="9.727543815061745"><ele>963.4000000000001</ele><time>2026-04-25T10:45:18Z</time></trkpt><trkpt lat="45.79257941741528" lon="9.727669435587474"><ele>962.0</ele><time>2026-04-25T10:45:20Z</time></trkpt><trkpt lat="45.79248084549595" lon="9.72765185928906"><ele>967.5000000000001</ele><time>2026-04-25T10:45:22Z</time></trkpt><trkpt lat="45.79246941134702" lon="9.72756297321586"><ele>973.0</ele><time>2026-04-25T10:45:23Z</time></trkpt><trkpt lat="45.79251039054129" lon="9.72748899291202"><ele>978.5</ele><time>2026-04-25T10:45:24Z</time></trkpt><trkpt lat="45.79257116994774" lon="9.727451840324875"><ele>984.0</ele><time>2026-04-25T10:45:25Z</time></trkpt><trkpt lat="45.79261343780501" lon="9.727312808333258"><ele>989.5000000000001</ele><time>2026-04-25T10:45:27Z</time></trkpt><trkpt lat="45.79261805529991" lon="9.727152135818805"><ele>995.0</ele><time>2026-04-25T10:45:29Z</time></trkpt><trkpt lat="45.79258931082134" lon="9.72700898411874"><ele>995.0</ele><time>2026-04-25T10:45:31Z</time></trkpt><trkpt lat="45.792475699065946" lon="9.726971527439426"><ele>995.0</ele><time>2026-04-25T10:45:33Z</time></trkpt><trkpt lat="45.79241986564499" lon="9.727022397159233"><ele>995.0</ele><time>2026-04-25T10:45:34Z</time></trkpt><trkpt lat="45.792331030152795" lon="9.72712053468118"><ele>995.0</ele><time>2026-04-25T10:45:36Z</time></trkpt><trkpt lat="45.79223395664519" lon="9.727196452286682"><ele>995.0</ele><time>2026-04-25T10:45:38Z</time></trkpt><trkpt lat="45.79214862074664" lon="9.727271138497862"><ele>995.0</ele><time>2026-04-25T10:45:40Z</time></trkpt><trkpt lat="45.79205707007423" lon="9.727324994881645"><ele>995.0</ele><time>2026-04-25T10:45:42Z</time></trkpt><trkpt lat="45.79195225407587" lon="9.727317051815609"><ele>995.0</ele><time>2026-04-25T10:45:44Z</time></trkpt><trkpt lat="45.79184884070322" lon="9.727285504856923"><ele>995.0</ele><time>2026-04-25T10:45:46Z</time></trkpt><trkpt lat="45.791736434196565" lon="9.727282300713114"><ele>995.0</ele><time>2026-04-25T10:45:48Z</time></trkpt><trkpt lat="45.791625699631" lon="9.727309529935493"><ele>998.0</ele><time>2026-04-25T10:45:50Z</time></trkpt><trkpt lat="45.7915235603798" lon="9.72733678471694"><ele>1001.0</ele><time>2026-04-25T10:45:52Z</time></trkpt><trkpt lat="45.79142149166739" lon="9.727403990285428"><ele>1004.0</ele><time>2026-04-25T10:45:54Z</time></trkpt><trkpt lat="45.791321319977314" lon="9.727460167507436"><ele>1007.0</ele><time>2026-04-25T10:45:56Z</time></trkpt><trkpt lat="45.791225911633084" lon="9.72754657634849"><ele>1010.0</ele><time>2026-04-25T10:45:58Z</time></trkpt><trkpt lat="45.791140152698155" lon="9.727648814900371"><ele>1012.5</ele><time>2026-04-25T10:46:00Z</time></trkpt><trkpt lat="45.79104582735246" lon="9.727735170243891"><ele>1015.0</ele><time>2026-04-25T10:46:02Z</time></trkpt><trkpt lat="45.7909555502186" lon="9.727827952221986"><ele>1017.5</ele><time>2026-04-25T10:46:04Z</time></trkpt><trkpt lat="45.79085705366876" lon="9.727911668956477"><ele>1020.0</ele><time>2026-04-25T10:46:06Z</time></trkpt><trkpt lat="45.790750237653874" lon="9.727982145417569"><ele>1022.5</ele><time>2026-04-25T10:46:08Z</time></trkpt><trkpt lat="45.790645396733574" lon="9.728033578703148"><ele>1025.0</ele><time>2026-04-25T10:46:10Z</time></trkpt><trkpt lat="45.79053246990208" lon="9.728066350284465"><ele>1027.5</ele><time>2026-04-25T10:46:12Z</time></trkpt><trkpt lat="45.79041774197987" lon="9.728031111241776"><ele>1030.0</ele><time>2026-04-25T10:46:14Z</time></trkpt><trkpt lat="45.790304122039664" lon="9.728020053324018"><ele>1030.0</ele><time>2026-04-25T10:46:16Z</time></trkpt><trkpt lat="45.790198555529955" lon="9.728074645069077"><ele>1030.0</ele><time>2026-04-25T10:46:18Z</time></trkpt><trkpt lat="45.79009411507694" lon="9.728138741407099"><ele>1030.0</ele><time>2026-04-25T10:46:20Z</time></trkpt><trkpt lat="45.789991976779945" lon="9.728191691278141"><ele>1030.0</ele><time>2026-04-25T10:46:22Z</time></trkpt><trkpt lat="45.78988610440694" lon="9.728242784002301"><ele>1030.0</ele><time>2026-04-25T10:46:24Z</time></trkpt><trkpt lat="45.78977424927847" lon="9.728245372094658"><ele>1029.2</ele><time>2026-04-25T10:46:26Z</time></trkpt><trkpt lat="45.789652633701344" lon="9.728224251602267"><ele>1028.4</ele><time>2026-04-25T10:46:28Z</time></trkpt><trkpt lat="45.789552737018845" lon="9.728212455455274"><ele>1027.6</ele><time>2026-04-25T10:46:30Z</time></trkpt><trkpt lat="45.789445931459" lon="9.728192782130403"><ele>1026.8</ele><time>2026-04-25T10:46:32Z</time></trkpt><trkpt lat="45.789340660581956" lon="9.728168055520726"><ele>1026.0</ele><time>2026-04-25T10:46:34Z</time></trkpt><trkpt lat="45.78923144757737" lon="9.728127279082804"><ele>1025.8</ele><time>2026-04-25T10:46:36Z</time></trkpt><trkpt lat="45.78913040070059" lon="9.72807023384164"><ele>1025.6</ele><time>2026-04-25T10:46:38Z</time></trkpt><trkpt lat="45.789027832195046" lon="9.728000389043311"><ele>1025.4</ele><time>2026-04-25T10:46:40Z</time></trkpt><trkpt lat="45.78893268537002" lon="9.727909674950277"><ele>1025.2</ele><time>2026-04-25T10:46:42Z</time></trkpt><trkpt lat="45.78886799644515" lon="9.727786869387357"><ele>1025.0</ele><time>2026-04-25T10:46:44Z</time></trkpt><trkpt lat="45.788799184496455" lon="9.727666242033564"><ele>1025.0</ele><time>2026-04-25T10:46:46Z</time></trkpt><trkpt lat="45.78870929458677" lon="9.72758412559041"><ele>1025.0</ele><time>2026-04-25T10:46:48Z</time></trkpt><trkpt lat="45.78859158731939" lon="9.727620675752243"><ele>1025.0</ele><time>2026-04-25T10:46:50Z</time></trkpt><trkpt lat="45.78849451854194" lon="9.727719768886493"><ele>1025.0</ele><time>2026-04-25T10:46:52Z</time></trkpt><trkpt lat="45.78838780415961" lon="9.7277846362979"><ele>1033.0</ele><time>2026-04-25T10:46:54Z</time></trkpt><trkpt lat="45.78827722348295" lon="9.727825154403043"><ele>1041.0</ele><time>2026-04-25T10:46:56Z</time></trkpt><trkpt lat="45.78816224363653" lon="9.72783214290099"><ele>1049.0</ele><time>2026-04-25T10:46:58Z</time></trkpt><trkpt lat="45.78805181216189" lon="9.72782600904607"><ele>1057.0</ele><time>2026-04-25T10:47:00Z</time></trkpt><trkpt lat="45.78794424900859" lon="9.727832069761087"><ele>1065.0</ele><time>2026-04-25T10:47:02Z</time></trkpt><trkpt lat="45.78783855449136" lon="9.727883133081814"><ele>1065.0</ele><time>2026-04-25T10:47:04Z</time></trkpt><trkpt lat="45.787796653412414" lon="9.727952659396387"><ele>1065.0</ele><time>2026-04-25T10:47:05Z</time></trkpt><trkpt lat="45.78772727183212" lon="9.72809007075066"><ele>1065.0</ele><time>2026-04-25T10:47:07Z</time></trkpt><trkpt lat="45.78762753096938" lon="9.728175204752658"><ele>1065.0</ele><time>2026-04-25T10:47:09Z</time></trkpt><trkpt lat="45.78751536941122" lon="9.728211230377843"><ele>1065.0</ele><time>2026-04-25T10:47:11Z</time></trkpt><trkpt lat="45.78740256169547" lon="9.72821385082049"><ele>1066.8</ele><time>2026-04-25T10:47:13Z</time></trkpt><trkpt lat="45.787320878686536" lon="9.728094039065102"><ele>1068.6</ele><time>2026-04-25T10:47:15Z</time></trkpt><trkpt lat="45.78726859701927" lon="9.727935829583243"><ele>1070.4</ele><time>2026-04-25T10:47:17Z</time></trkpt><trkpt lat="45.7871498825623" lon="9.727949243222202"><ele>1072.2</ele><time>2026-04-25T10:47:19Z</time></trkpt><trkpt lat="45.78713455153286" lon="9.728038822137682"><ele>1074.0</ele><time>2026-04-25T10:47:20Z</time></trkpt><trkpt lat="45.787171403104004" lon="9.728128024581302"><ele>1074.0</ele><time>2026-04-25T10:47:21Z</time></trkpt><trkpt lat="45.7872299612253" lon="9.728184694678292"><ele>1074.0</ele><time>2026-04-25T10:47:22Z</time></trkpt><trkpt lat="45.78728816199053" lon="9.728320212731498"><ele>1074.0</ele><time>2026-04-25T10:47:24Z</time></trkpt><trkpt lat="45.78735524894232" lon="9.728460770183611"><ele>1074.0</ele><time>2026-04-25T10:47:26Z</time></trkpt><trkpt lat="45.78747208007886" lon="9.728509612435326"><ele>1074.0</ele><time>2026-04-25T10:47:28Z</time></trkpt><trkpt lat="45.78758736057719" lon="9.728506855576457"><ele>1071.75</ele><time>2026-04-25T10:47:30Z</time></trkpt><trkpt lat="45.78770039253956" lon="9.728505347832073"><ele>1069.5</ele><time>2026-04-25T10:47:32Z</time></trkpt><trkpt lat="45.78780986033691" lon="9.728457312456431"><ele>1067.25</ele><time>2026-04-25T10:47:34Z</time></trkpt><trkpt lat="45.78790517534164" lon="9.728364212804948"><ele>1065.0</ele><time>2026-04-25T10:47:36Z</time></trkpt><trkpt lat="45.78797995138238" lon="9.728244849079738"><ele>1065.0</ele><time>2026-04-25T10:47:38Z</time></trkpt><trkpt lat="45.78808628881407" lon="9.72825838170907"><ele>1065.0</ele><time>2026-04-25T10:47:40Z</time></trkpt><trkpt lat="45.788113407122005" lon="9.72834129251739"><ele>1065.0</ele><time>2026-04-25T10:47:41Z</time></trkpt><trkpt lat="45.788087492509995" lon="9.728424389087232"><ele>1065.0</ele><time>2026-04-25T10:47:42Z</time></trkpt><trkpt lat="45.78803184719293" lon="9.728481896334502"><ele>1065.0</ele><time>2026-04-25T10:47:43Z</time></trkpt><trkpt lat="45.78792715691478" lon="9.728561260018042"><ele>1065.0</ele><time>2026-04-25T10:47:45Z</time></trkpt><trkpt lat="45.787837412058366" lon="9.728661764851719"><ele>1062.0</ele><time>2026-04-25T10:47:47Z</time></trkpt><trkpt lat="45.78774658154966" lon="9.72876659741697"><ele>1059.0</ele><time>2026-04-25T10:47:49Z</time></trkpt><trkpt lat="45.787674121614145" lon="9.728889736217285"><ele>1056.0</ele><time>2026-04-25T10:47:51Z</time></trkpt><trkpt lat="45.78763442238162" lon="9.729038756827666"><ele>1053.0</ele><time>2026-04-25T10:47:53Z</time></trkpt><trkpt lat="45.787583432508555" lon="9.729183874505198"><ele>1057.0</ele><time>2026-04-25T10:47:55Z</time></trkpt><trkpt lat="45.78750377687903" lon="9.72930381289"><ele>1061.0</ele><time>2026-04-25T10:47:57Z</time></trkpt><trkpt lat="45.78739626693941" lon="9.729378014984961"><ele>1065.0</ele><time>2026-04-25T10:47:59Z</time></trkpt><trkpt lat="45.78728650630425" lon="9.729461282730725"><ele>1069.0</ele><time>2026-04-25T10:48:01Z</time></trkpt><trkpt lat="45.78719360456883" lon="9.729549515959013"><ele>1069.0</ele><time>2026-04-25T10:48:03Z</time></trkpt><trkpt lat="45.78710091889502" lon="9.729661133523516"><ele>1069.0</ele><time>2026-04-25T10:48:05Z</time></trkpt><trkpt lat="45.78700915054655" lon="9.72978469842586"><ele>1069.0</ele><time>2026-04-25T10:48:07Z</time></trkpt><trkpt lat="45.78692872604342" lon="9.729908732502965"><ele>1069.0</ele><time>2026-04-25T10:48:09Z</time></trkpt><trkpt lat="45.786854560608354" lon="9.730040763093074"><ele>1079.75</ele><time>2026-04-25T10:48:11Z</time></trkpt><trkpt lat="45.78681735564779" lon="9.730191457491637"><ele>1090.5</ele><time>2026-04-25T10:48:13Z</time></trkpt><trkpt lat="45.786796981632634" lon="9.730357974808548"><ele>1101.25</ele><time>2026-04-25T10:48:15Z</time></trkpt><trkpt lat="45.78680819269479" lon="9.730519054208528"><ele>1112.0</ele><time>2026-04-25T10:48:17Z</time></trkpt><trkpt lat="45.78683266780326" lon="9.730678497390963"><ele>1112.0</ele><time>2026-04-25T10:48:19Z</time></trkpt><trkpt lat="45.78684317777481" lon="9.730837056684113"><ele>1112.0</ele><time>2026-04-25T10:48:21Z</time></trkpt><trkpt lat="45.786819401494995" lon="9.73099765938862"><ele>1112.0</ele><time>2026-04-25T10:48:23Z</time></trkpt><trkpt lat="45.78676180033043" lon="9.731135686208573"><ele>1112.0</ele><time>2026-04-25T10:48:25Z</time></trkpt><trkpt lat="45.78670014553491" lon="9.731155027065027"><ele>1112.0</ele><time>2026-04-25T10:48:26Z</time></trkpt><trkpt lat="45.78663008315902" lon="9.731142344502228"><ele>1107.5714285714284</ele><time>2026-04-25T10:48:27Z</time></trkpt><trkpt lat="45.78656130545493" lon="9.731111057198"><ele>1103.142857142857</ele><time>2026-04-25T10:48:28Z</time></trkpt><trkpt lat="45.78649439425142" lon="9.73108941930676"><ele>1098.7142857142858</ele><time>2026-04-25T10:48:29Z</time></trkpt><trkpt lat="45.78642641440343" lon="9.731092701405183"><ele>1094.2857142857142</ele><time>2026-04-25T10:48:30Z</time></trkpt><trkpt lat="45.786356053698746" lon="9.731115483503004"><ele>1089.857142857143</ele><time>2026-04-25T10:48:31Z</time></trkpt><trkpt lat="45.786293719803425" lon="9.731148920853954"><ele>1085.4285714285713</ele><time>2026-04-25T10:48:32Z</time></trkpt><trkpt lat="45.78623893668744" lon="9.731218725177216"><ele>1081.0</ele><time>2026-04-25T10:48:33Z</time></trkpt><trkpt lat="45.78618588855377" lon="9.731279125911545"><ele>1081.0</ele><time>2026-04-25T10:48:34Z</time></trkpt><trkpt lat="45.78613032699814" lon="9.731323964702618"><ele>1081.0</ele><time>2026-04-25T10:48:35Z</time></trkpt><trkpt lat="45.78601211917207" lon="9.731364943555008"><ele>1081.0</ele><time>2026-04-25T10:48:37Z</time></trkpt><trkpt lat="45.78594908262482" lon="9.731381129206788"><ele>1081.0</ele><time>2026-04-25T10:48:38Z</time></trkpt><trkpt lat="45.785824677075176" lon="9.731367710217418"><ele>1081.0</ele><time>2026-04-25T10:48:40Z</time></trkpt><trkpt lat="45.785767065110946" lon="9.731328237152958"><ele>1081.0</ele><time>2026-04-25T10:48:41Z</time></trkpt><trkpt lat="45.78565618376428" lon="9.731239790028287"><ele>1081.4285714285713</ele><time>2026-04-25T10:48:43Z</time></trkpt><trkpt lat="45.78559011384588" lon="9.731220490346141"><ele>1081.857142857143</ele><time>2026-04-25T10:48:44Z</time></trkpt><trkpt lat="45.78551902035216" lon="9.731230409793973"><ele>1082.2857142857142</ele><time>2026-04-25T10:48:45Z</time></trkpt><trkpt lat="45.78545023814159" lon="9.731279675669802"><ele>1082.7142857142858</ele><time>2026-04-25T10:48:46Z</time></trkpt><trkpt lat="45.78539648725838" lon="9.731353580405147"><ele>1083.142857142857</ele><time>2026-04-25T10:48:47Z</time></trkpt><trkpt lat="45.785343519382856" lon="9.73142836834418"><ele>1083.5714285714284</ele><time>2026-04-25T10:48:48Z</time></trkpt><trkpt lat="45.785275705923425" lon="9.731476779164764"><ele>1084.0</ele><time>2026-04-25T10:48:49Z</time></trkpt><trkpt lat="45.78520612306234" lon="9.731507223911919"><ele>1084.6666666666665</ele><time>2026-04-25T10:48:50Z</time></trkpt><trkpt lat="45.785130487951335" lon="9.73151272914857"><ele>1085.3333333333333</ele><time>2026-04-25T10:48:51Z</time></trkpt><trkpt lat="45.78505086274838" lon="9.731502986995768"><ele>1086.0</ele><time>2026-04-25T10:48:52Z</time></trkpt><trkpt lat="45.784978476893116" lon="9.731461289162404"><ele>1086.6666666666667</ele><time>2026-04-25T10:48:53Z</time></trkpt><trkpt lat="45.78492481636828" lon="9.731376913122325"><ele>1087.3333333333335</ele><time>2026-04-25T10:48:54Z</time></trkpt><trkpt lat="45.78490461665674" lon="9.731279371076246"><ele>1088.0</ele><time>2026-04-25T10:48:55Z</time></trkpt><trkpt lat="45.784900425161574" lon="9.731171562248498"><ele>1088.0</ele><time>2026-04-25T10:48:56Z</time></trkpt><trkpt lat="45.78488796063886" lon="9.731057559432456"><ele>1088.0</ele><time>2026-04-25T10:48:57Z</time></trkpt><trkpt lat="45.78485715935912" lon="9.730941173153393"><ele>1088.0</ele><time>2026-04-25T10:48:58Z</time></trkpt><trkpt lat="45.78482200499812" lon="9.730823920163305"><ele>1088.0</ele><time>2026-04-25T10:48:59Z</time></trkpt><trkpt lat="45.78477432108726" lon="9.730705130880542"><ele>1088.0</ele><time>2026-04-25T10:49:00Z</time></trkpt><trkpt lat="45.784720678817926" lon="9.730587216813444"><ele>1089.8</ele><time>2026-04-25T10:49:01Z</time></trkpt><trkpt lat="45.78466847110039" lon="9.730466681329194"><ele>1091.6</ele><time>2026-04-25T10:49:02Z</time></trkpt><trkpt lat="45.784626406377136" lon="9.730343273425358"><ele>1093.4</ele><time>2026-04-25T10:49:03Z</time></trkpt><trkpt lat="45.78459157788288" lon="9.73021503688862"><ele>1095.2</ele><time>2026-04-25T10:49:04Z</time></trkpt><trkpt lat="45.78454383411084" lon="9.73009151119755"><ele>1097.0</ele><time>2026-04-25T10:49:05Z</time></trkpt><trkpt lat="45.78449149893327" lon="9.72997209670891"><ele>1098.5</ele><time>2026-04-25T10:49:06Z</time></trkpt><trkpt lat="45.78445100459334" lon="9.729875371694382"><ele>1100.0</ele><time>2026-04-25T10:49:07Z</time></trkpt><trkpt lat="45.7844134173921" lon="9.729762507690747"><ele>1101.5</ele><time>2026-04-25T10:49:08Z</time></trkpt><trkpt lat="45.784381608891884" lon="9.729650465870161"><ele>1103.0</ele><time>2026-04-25T10:49:09Z</time></trkpt><trkpt lat="45.7843487643164" lon="9.729555839269795"><ele>1104.5</ele><time>2026-04-25T10:49:10Z</time></trkpt><trkpt lat="45.7842973463316" lon="9.72946592064425"><ele>1106.0</ele><time>2026-04-25T10:49:11Z</time></trkpt><trkpt lat="45.78422558526655" lon="9.72938503524369"><ele>1102.8333333333335</ele><time>2026-04-25T10:49:12Z</time></trkpt><trkpt lat="45.78414844189035" lon="9.729320390153568"><ele>1099.6666666666667</ele><time>2026-04-25T10:49:13Z</time></trkpt><trkpt lat="45.78407690332629" lon="9.729266884978502"><ele>1096.5</ele><time>2026-04-25T10:49:14Z</time></trkpt><trkpt lat="45.78401284151147" lon="9.72921908580048"><ele>1093.3333333333333</ele><time>2026-04-25T10:49:15Z</time></trkpt><trkpt lat="45.78393820368749" lon="9.729126019340798"><ele>1090.1666666666665</ele><time>2026-04-25T10:49:17Z</time></trkpt><trkpt lat="45.78387153937288" lon="9.729222001015012"><ele>1087.0</ele><time>2026-04-25T10:49:19Z</time></trkpt><trkpt lat="45.78390495887605" lon="9.729316220547775"><ele>1087.0</ele><time>2026-04-25T10:49:20Z</time></trkpt><trkpt lat="45.78396519648156" lon="9.729360602922076"><ele>1087.0</ele><time>2026-04-25T10:49:21Z</time></trkpt><trkpt lat="45.78401329724037" lon="9.729420849875892"><ele>1087.0</ele><time>2026-04-25T10:49:22Z</time></trkpt><trkpt lat="45.78404501781081" lon="9.729502137683035"><ele>1087.0</ele><time>2026-04-25T10:49:23Z</time></trkpt><trkpt lat="45.78407694514199" lon="9.729591167784983"><ele>1087.0</ele><time>2026-04-25T10:49:24Z</time></trkpt><trkpt lat="45.78409662866645" lon="9.729702108249903"><ele>1087.0</ele><time>2026-04-25T10:49:25Z</time></trkpt><trkpt lat="45.784113875154326" lon="9.729810911744416"><ele>1087.0</ele><time>2026-04-25T10:49:26Z</time></trkpt><trkpt lat="45.78411330337619" lon="9.729929547848036"><ele>1084.2</ele><time>2026-04-25T10:49:27Z</time></trkpt><trkpt lat="45.78410827487059" lon="9.730058856004216"><ele>1081.4</ele><time>2026-04-25T10:49:28Z</time></trkpt><trkpt lat="45.78408962112878" lon="9.730179473768636"><ele>1078.6</ele><time>2026-04-25T10:49:29Z</time></trkpt><trkpt lat="45.78407334099882" lon="9.73030509141636"><ele>1075.8</ele><time>2026-04-25T10:49:30Z</time></trkpt><trkpt lat="45.78407804121528" lon="9.730438625169606"><ele>1073.0</ele><time>2026-04-25T10:49:31Z</time></trkpt><trkpt lat="45.784097920209184" lon="9.730565564779976"><ele>1072.1666666666667</ele><time>2026-04-25T10:49:32Z</time></trkpt><trkpt lat="45.78413710628767" lon="9.730692290388557"><ele>1071.3333333333335</ele><time>2026-04-25T10:49:33Z</time></trkpt><trkpt lat="45.78419262256043" lon="9.730801874313238"><ele>1070.5</ele><time>2026-04-25T10:49:34Z</time></trkpt><trkpt lat="45.78424726453849" lon="9.730891431330665"><ele>1069.6666666666667</ele><time>2026-04-25T10:49:35Z</time></trkpt><trkpt lat="45.78427428378534" lon="9.73100004117326"><ele>1068.8333333333333</ele><time>2026-04-25T10:49:36Z</time></trkpt><trkpt lat="45.78428707433224" lon="9.731110556770698"><ele>1068.0</ele><time>2026-04-25T10:49:37Z</time></trkpt><trkpt lat="45.78429140304343" lon="9.731212429064843"><ele>1068.0</ele><time>2026-04-25T10:49:38Z</time></trkpt><trkpt lat="45.784291784134325" lon="9.731302959544633"><ele>1068.0</ele><time>2026-04-25T10:49:39Z</time></trkpt><trkpt lat="45.78425515141985" lon="9.73138449907094"><ele>1068.0</ele><time>2026-04-25T10:49:40Z</time></trkpt><trkpt lat="45.78419273721047" lon="9.73145346946629"><ele>1068.0</ele><time>2026-04-25T10:49:41Z</time></trkpt><trkpt lat="45.78411265203056" lon="9.731518073783185"><ele>1068.0</ele><time>2026-04-25T10:49:42Z</time></trkpt><trkpt lat="45.78404541121676" lon="9.73158381157954"><ele>1068.0</ele><time>2026-04-25T10:49:43Z</time></trkpt><trkpt lat="45.78398709135853" lon="9.73167314037437"><ele>1068.0</ele><time>2026-04-25T10:49:44Z</time></trkpt><trkpt lat="45.78394890671669" lon="9.7317601095477"><ele>1068.0</ele><time>2026-04-25T10:49:45Z</time></trkpt><trkpt lat="45.783902015286955" lon="9.731890335868817"><ele>1068.0</ele><time>2026-04-25T10:49:47Z</time></trkpt><trkpt lat="45.78385101957561" lon="9.732028719367678"><ele>1068.0</ele><time>2026-04-25T10:49:49Z</time></trkpt><trkpt lat="45.78380337639135" lon="9.732181667583632"><ele>1068.0</ele><time>2026-04-25T10:49:51Z</time></trkpt><trkpt lat="45.783765765561434" lon="9.732338746936888"><ele>1068.4</ele><time>2026-04-25T10:49:53Z</time></trkpt><trkpt lat="45.7837299131014" lon="9.732499030884659"><ele>1068.8</ele><time>2026-04-25T10:49:55Z</time></trkpt><trkpt lat="45.78369048023117" lon="9.732633320046757"><ele>1069.2</ele><time>2026-04-25T10:49:57Z</time></trkpt><trkpt lat="45.783660841479154" lon="9.732747247441425"><ele>1069.6</ele><time>2026-04-25T10:49:59Z</time></trkpt><trkpt lat="45.78365269075314" lon="9.732862560329135"><ele>1070.0</ele><time>2026-04-25T10:50:01Z</time></trkpt><trkpt lat="45.783671172800986" lon="9.73299274446923"><ele>1068.1666666666667</ele><time>2026-04-25T10:50:03Z</time></trkpt><trkpt lat="45.78369046880173" lon="9.73308055469591"><ele>1066.3333333333335</ele><time>2026-04-25T10:50:04Z</time></trkpt><trkpt lat="45.78369830538879" lon="9.733182786499006"><ele>1064.5</ele><time>2026-04-25T10:50:05Z</time></trkpt><trkpt lat="45.78368373195347" lon="9.733289885399625"><ele>1062.6666666666667</ele><time>2026-04-25T10:50:06Z</time></trkpt><trkpt lat="45.783641600665476" lon="9.733378088856805"><ele>1060.8333333333333</ele><time>2026-04-25T10:50:07Z</time></trkpt><trkpt lat="45.78356958541566" lon="9.733468365233545"><ele>1059.0</ele><time>2026-04-25T10:50:08Z</time></trkpt><trkpt lat="45.783482137042114" lon="9.733539677849674"><ele>1053.2</ele><time>2026-04-25T10:50:09Z</time></trkpt><trkpt lat="45.7833962870711" lon="9.733632210591187"><ele>1047.4</ele><time>2026-04-25T10:50:10Z</time></trkpt><trkpt lat="45.783328710526746" lon="9.733751427347322"><ele>1041.6</ele><time>2026-04-25T10:50:11Z</time></trkpt><trkpt lat="45.783276377205596" lon="9.733889348870608"><ele>1035.8</ele><time>2026-04-25T10:50:12Z</time></trkpt><trkpt lat="45.78322195918022" lon="9.733997148784931"><ele>1030.0</ele><time>2026-04-25T10:50:13Z</time></trkpt><trkpt lat="45.78316331336981" lon="9.734067485837036"><ele>1030.0</ele><time>2026-04-25T10:50:14Z</time></trkpt><trkpt lat="45.78309369071095" lon="9.734122050500277"><ele>1030.0</ele><time>2026-04-25T10:50:15Z</time></trkpt><trkpt lat="45.78299575294201" lon="9.734160777069635"><ele>1030.0</ele><time>2026-04-25T10:50:16Z</time></trkpt><trkpt lat="45.78288503595548" lon="9.73418792202552"><ele>1030.0</ele><time>2026-04-25T10:50:17Z</time></trkpt><trkpt lat="45.78277277396804" lon="9.734214914284564"><ele>1030.0</ele><time>2026-04-25T10:50:18Z</time></trkpt><trkpt lat="45.78266306552222" lon="9.734283509534563"><ele>1025.8</ele><time>2026-04-25T10:50:19Z</time></trkpt><trkpt lat="45.78256925118041" lon="9.734373067282817"><ele>1021.6</ele><time>2026-04-25T10:50:20Z</time></trkpt><trkpt lat="45.782488385009536" lon="9.734451186860133"><ele>1017.4000000000001</ele><time>2026-04-25T10:50:21Z</time></trkpt><trkpt lat="45.7824203134668" lon="9.734533829120469"><ele>1013.2</ele><time>2026-04-25T10:50:22Z</time></trkpt><trkpt lat="45.782360463949935" lon="9.734640074226675"><ele>1009.0</ele><time>2026-04-25T10:50:23Z</time></trkpt><trkpt lat="45.78228522200652" lon="9.7347194824623"><ele>1009.0</ele><time>2026-04-25T10:50:24Z</time></trkpt><trkpt lat="45.78219995490878" lon="9.734790900922542"><ele>1009.0000000000001</ele><time>2026-04-25T10:50:25Z</time></trkpt><trkpt lat="45.78212083244198" lon="9.734899278086198"><ele>1009.0000000000001</ele><time>2026-04-25T10:50:26Z</time></trkpt><trkpt lat="45.782043107889336" lon="9.7350308305574"><ele>1009.0</ele><time>2026-04-25T10:50:27Z</time></trkpt><trkpt lat="45.781969422106556" lon="9.735163777201649"><ele>1009.0</ele><time>2026-04-25T10:50:28Z</time></trkpt><trkpt lat="45.78190926666213" lon="9.73528854443809"><ele>1012.6</ele><time>2026-04-25T10:50:29Z</time></trkpt><trkpt lat="45.78185091417704" lon="9.735425045193027"><ele>1016.2</ele><time>2026-04-25T10:50:30Z</time></trkpt><trkpt lat="45.78180479518519" lon="9.735556656955115"><ele>1019.8000000000001</ele><time>2026-04-25T10:50:31Z</time></trkpt><trkpt lat="45.781761664279514" lon="9.735693045690471"><ele>1023.4000000000001</ele><time>2026-04-25T10:50:32Z</time></trkpt><trkpt lat="45.781728231439025" lon="9.735839833421734"><ele>1027.0</ele><time>2026-04-25T10:50:33Z</time></trkpt><trkpt lat="45.781724417091965" lon="9.73599430125331"><ele>1023.2</ele><time>2026-04-25T10:50:34Z</time></trkpt><trkpt lat="45.78173485099664" lon="9.736135950211468"><ele>1019.4000000000001</ele><time>2026-04-25T10:50:35Z</time></trkpt><trkpt lat="45.78172242062225" lon="9.736255508936877"><ele>1015.5999999999999</ele><time>2026-04-25T10:50:36Z</time></trkpt><trkpt lat="45.78175422674512" lon="9.736385569803732"><ele>1011.8</ele><time>2026-04-25T10:50:37Z</time></trkpt><trkpt lat="45.781804413755935" lon="9.7365248584762"><ele>1008.0</ele><time>2026-04-25T10:50:38Z</time></trkpt><trkpt lat="45.781858782149634" lon="9.736647892895732"><ele>998.0</ele><time>2026-04-25T10:50:39Z</time></trkpt><trkpt lat="45.78191361044093" lon="9.736775321977175"><ele>988.0</ele><time>2026-04-25T10:50:40Z</time></trkpt><trkpt lat="45.78195663063719" lon="9.736867073728995"><ele>978.0</ele><time>2026-04-25T10:50:41Z</time></trkpt><trkpt lat="45.781989684989554" lon="9.736953125159134"><ele>968.0</ele><time>2026-04-25T10:50:42Z</time></trkpt><trkpt lat="45.78201987441309" lon="9.737104475142985"><ele>958.0</ele><time>2026-04-25T10:50:44Z</time></trkpt><trkpt lat="45.78193468013541" lon="9.737252271145644"><ele>954.8</ele><time>2026-04-25T10:50:46Z</time></trkpt><trkpt lat="45.78185015121429" lon="9.73731102208859"><ele>951.5999999999999</ele><time>2026-04-25T10:50:47Z</time></trkpt><trkpt lat="45.781760043715934" lon="9.73735775342136"><ele>948.4000000000001</ele><time>2026-04-25T10:50:48Z</time></trkpt><trkpt lat="45.78165866957273" lon="9.737400553386614"><ele>945.2</ele><time>2026-04-25T10:50:49Z</time></trkpt><trkpt lat="45.78156238794797" lon="9.737453819750348"><ele>942.0</ele><time>2026-04-25T10:50:50Z</time></trkpt><trkpt lat="45.78147679839842" lon="9.737525706153347"><ele>946.8</ele><time>2026-04-25T10:50:51Z</time></trkpt><trkpt lat="45.781403336647195" lon="9.737610046590019"><ele>951.6</ele><time>2026-04-25T10:50:52Z</time></trkpt><trkpt lat="45.78135107692876" lon="9.737682387337335"><ele>956.3999999999999</ele><time>2026-04-25T10:50:53Z</time></trkpt><trkpt lat="45.78133982248049" lon="9.737866478516484"><ele>961.1999999999999</ele><time>2026-04-25T10:50:55Z</time></trkpt><trkpt lat="45.78137930517294" lon="9.737973768171635"><ele>966.0</ele><time>2026-04-25T10:50:56Z</time></trkpt><trkpt lat="45.78142162799699" lon="9.738089612950088"><ele>966.0</ele><time>2026-04-25T10:50:57Z</time></trkpt><trkpt lat="45.78143992672109" lon="9.738220963954106"><ele>966.0</ele><time>2026-04-25T10:50:58Z</time></trkpt><trkpt lat="45.78145510711211" lon="9.7383529218234"><ele>966.0</ele><time>2026-04-25T10:50:59Z</time></trkpt><trkpt lat="45.78148112859476" lon="9.738478262584115"><ele>966.0</ele><time>2026-04-25T10:51:00Z</time></trkpt><trkpt lat="45.781499162527204" lon="9.738581109576593"><ele>966.0</ele><time>2026-04-25T10:51:01Z</time></trkpt><trkpt lat="45.78150033450612" lon="9.738674984560024"><ele>966.0</ele><time>2026-04-25T10:51:02Z</time></trkpt><trkpt lat="45.78147973580971" lon="9.738793097515941"><ele>962.1999999999999</ele><time>2026-04-25T10:51:03Z</time></trkpt><trkpt lat="45.78143753598648" lon="9.738918056955049"><ele>958.3999999999999</ele><time>2026-04-25T10:51:04Z</time></trkpt><trkpt lat="45.78139335867269" lon="9.739045802461954"><ele>954.6</ele><time>2026-04-25T10:51:05Z</time></trkpt><trkpt lat="45.78135049765138" lon="9.739155713589966"><ele>950.8</ele><time>2026-04-25T10:51:06Z</time></trkpt><trkpt lat="45.78130587647094" lon="9.739256295499729"><ele>947.0</ele><time>2026-04-25T10:51:07Z</time></trkpt><trkpt lat="45.781266846192246" lon="9.739382290787136"><ele>944.2</ele><time>2026-04-25T10:51:08Z</time></trkpt><trkpt lat="45.781256929559774" lon="9.739535476472478"><ele>941.4000000000001</ele><time>2026-04-25T10:51:09Z</time></trkpt><trkpt lat="45.781264383593204" lon="9.73970296505514"><ele>938.5999999999999</ele><time>2026-04-25T10:51:10Z</time></trkpt><trkpt lat="45.78125472644776" lon="9.739835526603734"><ele>935.8</ele><time>2026-04-25T10:51:11Z</time></trkpt><trkpt lat="45.78124893686267" lon="9.739957749938707"><ele>933.0</ele><time>2026-04-25T10:51:12Z</time></trkpt><trkpt lat="45.781218609058314" lon="9.740067533090249"><ele>933.0</ele><time>2026-04-25T10:51:13Z</time></trkpt><trkpt lat="45.7811681532668" lon="9.740167489113228"><ele>933.0</ele><time>2026-04-25T10:51:14Z</time></trkpt><trkpt lat="45.781127953986726" lon="9.740244552243649"><ele>933.0</ele><time>2026-04-25T10:51:15Z</time></trkpt><trkpt lat="45.78116740532466" lon="9.740362077421146"><ele>933.0</ele><time>2026-04-25T10:51:17Z</time></trkpt><trkpt lat="45.78124352295043" lon="9.740349148062997"><ele>933.0</ele><time>2026-04-25T10:51:18Z</time></trkpt><trkpt lat="45.781306544066226" lon="9.740276675942548"><ele>933.0</ele><time>2026-04-25T10:51:19Z</time></trkpt><trkpt lat="45.78136004173542" lon="9.740187578700825"><ele>933.0</ele><time>2026-04-25T10:51:20Z</time></trkpt><trkpt lat="45.781397834699916" lon="9.74009795653413"><ele>933.0</ele><time>2026-04-25T10:51:21Z</time></trkpt><trkpt lat="45.781479117351275" lon="9.740062535532635"><ele>933.0</ele><time>2026-04-25T10:51:23Z</time></trkpt><trkpt lat="45.78150467931042" lon="9.740207385766949"><ele>933.0</ele><time>2026-04-25T10:51:25Z</time></trkpt><trkpt lat="45.78146215999465" lon="9.740302952124273"><ele>933.0</ele><time>2026-04-25T10:51:26Z</time></trkpt><trkpt lat="45.781412260485666" lon="9.740393808475282"><ele>933.0</ele><time>2026-04-25T10:51:27Z</time></trkpt><trkpt lat="45.78134938541489" lon="9.740480580686702"><ele>930.2</ele><time>2026-04-25T10:51:28Z</time></trkpt><trkpt lat="45.78127984893896" lon="9.740553637813628"><ele>927.4</ele><time>2026-04-25T10:51:29Z</time></trkpt><trkpt lat="45.78120324147843" lon="9.740631962484374"><ele>924.6000000000001</ele><time>2026-04-25T10:51:30Z</time></trkpt><trkpt lat="45.781147823702376" lon="9.740755493532784"><ele>921.8000000000001</ele><time>2026-04-25T10:51:31Z</time></trkpt><trkpt lat="45.78111492746871" lon="9.740911495564248"><ele>919.0</ele><time>2026-04-25T10:51:32Z</time></trkpt><trkpt lat="45.781101274067616" lon="9.741081740425493"><ele>916.25</ele><time>2026-04-25T10:51:33Z</time></trkpt><trkpt lat="45.781078276287545" lon="9.74124609419786"><ele>913.5</ele><time>2026-04-25T10:51:34Z</time></trkpt><trkpt lat="45.78105457032164" lon="9.741398743885048"><ele>910.75</ele><time>2026-04-25T10:51:35Z</time></trkpt><trkpt lat="45.78104004122041" lon="9.741560668675884"><ele>908.0</ele><time>2026-04-25T10:51:36Z</time></trkpt><trkpt lat="45.78105075710646" lon="9.741723072438232"><ele>908.0</ele><time>2026-04-25T10:51:37Z</time></trkpt><trkpt lat="45.781085063836144" lon="9.741886989270682"><ele>908.0</ele><time>2026-04-25T10:51:38Z</time></trkpt><trkpt lat="45.78113807926611" lon="9.742035326806487"><ele>908.0</ele><time>2026-04-25T10:51:39Z</time></trkpt><trkpt lat="45.78120130210914" lon="9.74217521313631"><ele>908.0</ele><time>2026-04-25T10:51:40Z</time></trkpt><trkpt lat="45.78125463150313" lon="9.74232468866342"><ele>908.0</ele><time>2026-04-25T10:51:41Z</time></trkpt><trkpt lat="45.781285967930195" lon="9.742495261188692"><ele>908.0</ele><time>2026-04-25T10:51:42Z</time></trkpt><trkpt lat="45.78130562844352" lon="9.74267593047354"><ele>908.0</ele><time>2026-04-25T10:51:43Z</time></trkpt><trkpt lat="45.78132601725825" lon="9.742859237775987"><ele>908.0</ele><time>2026-04-25T10:51:44Z</time></trkpt><trkpt lat="45.7813429761358" lon="9.743053841216604"><ele>908.75</ele><time>2026-04-25T10:51:45Z</time></trkpt><trkpt lat="45.78135695615864" lon="9.743248796562854"><ele>909.5</ele><time>2026-04-25T10:51:46Z</time></trkpt><trkpt lat="45.781361184049594" lon="9.743446368811282"><ele>910.25</ele><time>2026-04-25T10:51:47Z</time></trkpt><trkpt lat="45.781354152544466" lon="9.743635244535149"><ele>911.0</ele><time>2026-04-25T10:51:48Z</time></trkpt><trkpt lat="45.781341213647316" lon="9.743808756519586"><ele>911.5000000000001</ele><time>2026-04-25T10:51:49Z</time></trkpt><trkpt lat="45.78132760102893" lon="9.74395446959744"><ele>912.0</ele><time>2026-04-25T10:51:50Z</time></trkpt><trkpt lat="45.781320934251994" lon="9.744084689976276"><ele>912.5</ele><time>2026-04-25T10:51:51Z</time></trkpt><trkpt lat="45.78131139370536" lon="9.744202256281147"><ele>913.0</ele><time>2026-04-25T10:51:52Z</time></trkpt><trkpt lat="45.78130372170663" lon="9.744308292085838"><ele>913.5000000000001</ele><time>2026-04-25T10:51:53Z</time></trkpt><trkpt lat="45.78129104241652" lon="9.74439694332908"><ele>914.0</ele><time>2026-04-25T10:51:54Z</time></trkpt><trkpt lat="45.78127672592254" lon="9.744551582158103"><ele>915.5000000000001</ele><time>2026-04-25T10:51:56Z</time></trkpt><trkpt lat="45.78126331292766" lon="9.744720632234156"><ele>917.0</ele><time>2026-04-25T10:51:58Z</time></trkpt><trkpt lat="45.78121890159277" lon="9.744822746674894"><ele>918.5</ele><time>2026-04-25T10:52:00Z</time></trkpt><trkpt lat="45.78111185237303" lon="9.744786471077928"><ele>920.0</ele><time>2026-04-25T10:52:02Z</time></trkpt><trkpt lat="45.78105100428558" lon="9.744752280973332"><ele>921.5000000000001</ele><time>2026-04-25T10:52:03Z</time></trkpt><trkpt lat="45.78098415460708" lon="9.74472714936145"><ele>923.0</ele><time>2026-04-25T10:52:04Z</time></trkpt><trkpt lat="45.780920779582495" lon="9.744700970494195"><ele>924.3333333333334</ele><time>2026-04-25T10:52:05Z</time></trkpt><trkpt lat="45.780863124395026" lon="9.744659851903979"><ele>925.6666666666667</ele><time>2026-04-25T10:52:06Z</time></trkpt><trkpt lat="45.78080348022714" lon="9.744626805674956"><ele>927.0</ele><time>2026-04-25T10:52:07Z</time></trkpt><trkpt lat="45.78073857099448" lon="9.74460974303427"><ele>928.3333333333333</ele><time>2026-04-25T10:52:08Z</time></trkpt><trkpt lat="45.78067192519783" lon="9.744585512362073"><ele>929.6666666666666</ele><time>2026-04-25T10:52:09Z</time></trkpt><trkpt lat="45.78055166781415" lon="9.744520953854494"><ele>931.0</ele><time>2026-04-25T10:52:11Z</time></trkpt><trkpt lat="45.7804903371265" lon="9.744493079528652"><ele>930.9999999999999</ele><time>2026-04-25T10:52:12Z</time></trkpt><trkpt lat="45.78042566391435" lon="9.744473464778526"><ele>931.0</ele><time>2026-04-25T10:52:13Z</time></trkpt><trkpt lat="45.780359152604724" lon="9.74445528181174"><ele>931.0</ele><time>2026-04-25T10:52:14Z</time></trkpt><trkpt lat="45.78029182263233" lon="9.744453280139998"><ele>931.0</ele><time>2026-04-25T10:52:15Z</time></trkpt><trkpt lat="45.78022457052674" lon="9.744452862535047"><ele>930.9999999999999</ele><time>2026-04-25T10:52:16Z</time></trkpt><trkpt lat="45.780096625187596" lon="9.744443278909326"><ele>931.0</ele><time>2026-04-25T10:52:18Z</time></trkpt><trkpt lat="45.78003163169453" lon="9.744447126589455"><ele>930.0</ele><time>2026-04-25T10:52:19Z</time></trkpt><trkpt lat="45.77996766824431" lon="9.744436194156238"><ele>929.0</ele><time>2026-04-25T10:52:20Z</time></trkpt><trkpt lat="45.779900988065506" lon="9.744434981934829"><ele>928.0</ele><time>2026-04-25T10:52:21Z</time></trkpt><trkpt lat="45.779836136958416" lon="9.744417183322284"><ele>927.0</ele><time>2026-04-25T10:52:22Z</time></trkpt><trkpt lat="45.77977439226603" lon="9.74437945445459"><ele>926.0</ele><time>2026-04-25T10:52:23Z</time></trkpt><trkpt lat="45.7797191331819" lon="9.744333962261098"><ele>925.0</ele><time>2026-04-25T10:52:24Z</time></trkpt><trkpt lat="45.77966192532763" lon="9.744291761441263"><ele>924.0</ele><time>2026-04-25T10:52:25Z</time></trkpt><trkpt lat="45.77955475701784" lon="9.744212200058325"><ele>923.6</ele><time>2026-04-25T10:52:27Z</time></trkpt><trkpt lat="45.77945059535709" lon="9.744135014329872"><ele>923.2</ele><time>2026-04-25T10:52:29Z</time></trkpt><trkpt lat="45.77934604886617" lon="9.744080830850065"><ele>922.8000000000001</ele><time>2026-04-25T10:52:31Z</time></trkpt><trkpt lat="45.779245916975825" lon="9.744029782342809"><ele>922.4000000000001</ele><time>2026-04-25T10:52:33Z</time></trkpt><trkpt lat="45.77913836115414" lon="9.744003918169327"><ele>922.0</ele><time>2026-04-25T10:52:35Z</time></trkpt><trkpt lat="45.77907143417793" lon="9.743996364275285"><ele>922.0</ele><time>2026-04-25T10:52:36Z</time></trkpt><trkpt lat="45.779002886235446" lon="9.743978757314178"><ele>922.0000000000001</ele><time>2026-04-25T10:52:37Z</time></trkpt><trkpt lat="45.77893732529474" lon="9.743939671588258"><ele>922.0</ele><time>2026-04-25T10:52:38Z</time></trkpt><trkpt lat="45.778881035136244" lon="9.743874027922384"><ele>922.0</ele><time>2026-04-25T10:52:39Z</time></trkpt><trkpt lat="45.77882729493017" lon="9.743806500633031"><ele>922.0000000000001</ele><time>2026-04-25T10:52:40Z</time></trkpt><trkpt lat="45.778761033300654" lon="9.74375146082114"><ele>922.0</ele><time>2026-04-25T10:52:41Z</time></trkpt><trkpt lat="45.778694247199724" lon="9.743703406691237"><ele>922.0</ele><time>2026-04-25T10:52:42Z</time></trkpt><trkpt lat="45.778623984664065" lon="9.743672961320323"><ele>921.9999999999999</ele><time>2026-04-25T10:52:43Z</time></trkpt><trkpt lat="45.77854774359316" lon="9.743659138066091"><ele>922.0</ele><time>2026-04-25T10:52:44Z</time></trkpt><trkpt lat="45.778469646254905" lon="9.743663288088788"><ele>922.0</ele><time>2026-04-25T10:52:45Z</time></trkpt><trkpt lat="45.77838683063922" lon="9.743667158999957"><ele>922.0</ele><time>2026-04-25T10:52:46Z</time></trkpt><trkpt lat="45.77830669468593" lon="9.74367234684802"><ele>921.9999999999999</ele><time>2026-04-25T10:52:47Z</time></trkpt><trkpt lat="45.77822259521308" lon="9.743670125939312"><ele>922.0</ele><time>2026-04-25T10:52:48Z</time></trkpt><trkpt lat="45.77813979214823" lon="9.74367199467458"><ele>920.6666666666666</ele><time>2026-04-25T10:52:49Z</time></trkpt><trkpt lat="45.77805398874925" lon="9.74366448188703"><ele>919.3333333333333</ele><time>2026-04-25T10:52:50Z</time></trkpt><trkpt lat="45.77796843768504" lon="9.743651978423017"><ele>918.0</ele><time>2026-04-25T10:52:51Z</time></trkpt><trkpt lat="45.777882789218374" lon="9.743637968535614"><ele>916.6666666666667</ele><time>2026-04-25T10:52:52Z</time></trkpt><trkpt lat="45.777797109190416" lon="9.743616832415166"><ele>915.3333333333334</ele><time>2026-04-25T10:52:53Z</time></trkpt><trkpt lat="45.77771505299588" lon="9.743576526673033"><ele>914.0</ele><time>2026-04-25T10:52:54Z</time></trkpt><trkpt lat="45.777632593805755" lon="9.743528613253188"><ele>912.8333333333334</ele><time>2026-04-25T10:52:55Z</time></trkpt><trkpt lat="45.777551959821885" lon="9.743476407556097"><ele>911.6666666666667</ele><time>2026-04-25T10:52:56Z</time></trkpt><trkpt lat="45.77746896889287" lon="9.743421625674644"><ele>910.5</ele><time>2026-04-25T10:52:57Z</time></trkpt><trkpt lat="45.777383365243686" lon="9.743366449961462"><ele>909.3333333333333</ele><time>2026-04-25T10:52:58Z</time></trkpt><trkpt lat="45.7773114664319" lon="9.743299342208354"><ele>908.1666666666666</ele><time>2026-04-25T10:52:59Z</time></trkpt><trkpt lat="45.777257307512116" lon="9.74323771718535"><ele>907.0</ele><time>2026-04-25T10:53:00Z</time></trkpt><trkpt lat="45.77722456877871" lon="9.743152066402072"><ele>906.9999999999999</ele><time>2026-04-25T10:53:01Z</time></trkpt><trkpt lat="45.77721773379643" lon="9.743047210356684"><ele>907.0</ele><time>2026-04-25T10:53:02Z</time></trkpt><trkpt lat="45.77722926934815" lon="9.742935133319893"><ele>907.0</ele><time>2026-04-25T10:53:03Z</time></trkpt><trkpt lat="45.77724458295045" lon="9.742824648094377"><ele>907.0</ele><time>2026-04-25T10:53:04Z</time></trkpt><trkpt lat="45.777254454773896" lon="9.74271581629207"><ele>906.9999999999999</ele><time>2026-04-25T10:53:05Z</time></trkpt><trkpt lat="45.777261924346455" lon="9.742598777499913"><ele>907.0</ele><time>2026-04-25T10:53:06Z</time></trkpt><trkpt lat="45.77726310012576" lon="9.742488091004818"><ele>908.9999999999999</ele><time>2026-04-25T10:53:07Z</time></trkpt><trkpt lat="45.7772530534234" lon="9.742373194182901"><ele>911.0</ele><time>2026-04-25T10:53:08Z</time></trkpt><trkpt lat="45.777237718680155" lon="9.742258352070976"><ele>913.0</ele><time>2026-04-25T10:53:09Z</time></trkpt><trkpt lat="45.777207856016844" lon="9.742146243722692"><ele>915.0</ele><time>2026-04-25T10:53:10Z</time></trkpt><trkpt lat="45.777168288194744" lon="9.74203769927096"><ele>916.9999999999999</ele><time>2026-04-25T10:53:11Z</time></trkpt><trkpt lat="45.77712425327793" lon="9.741928333380255"><ele>919.0</ele><time>2026-04-25T10:53:12Z</time></trkpt><trkpt lat="45.77707976563987" lon="9.741816513357128"><ele>919.6</ele><time>2026-04-25T10:53:13Z</time></trkpt><trkpt lat="45.77704673008008" lon="9.741696619760049"><ele>920.2</ele><time>2026-04-25T10:53:14Z</time></trkpt><trkpt lat="45.777030554914774" lon="9.741566081942596"><ele>920.8000000000001</ele><time>2026-04-25T10:53:15Z</time></trkpt><trkpt lat="45.77702412912189" lon="9.741434279242215"><ele>921.4000000000001</ele><time>2026-04-25T10:53:16Z</time></trkpt><trkpt lat="45.77702833440584" lon="9.741300345465039"><ele>922.0</ele><time>2026-04-25T10:53:17Z</time></trkpt><trkpt lat="45.777033664176514" lon="9.741164129841975"><ele>923.0</ele><time>2026-04-25T10:53:18Z</time></trkpt><trkpt lat="45.77703921819825" lon="9.741029840088355"><ele>924.0</ele><time>2026-04-25T10:53:19Z</time></trkpt><trkpt lat="45.77704895048884" lon="9.740891717218881"><ele>925.0</ele><time>2026-04-25T10:53:20Z</time></trkpt><trkpt lat="45.777061958480445" lon="9.740756035213156"><ele>926.0</ele><time>2026-04-25T10:53:21Z</time></trkpt><trkpt lat="45.77708091858112" lon="9.740620653982699"><ele>927.0</ele><time>2026-04-25T10:53:22Z</time></trkpt><trkpt lat="45.77710561373587" lon="9.740488383482637"><ele>927.0</ele><time>2026-04-25T10:53:23Z</time></trkpt><trkpt lat="45.777126136483744" lon="9.74035820499491"><ele>927.0</ele><time>2026-04-25T10:53:24Z</time></trkpt><trkpt lat="45.777147824399485" lon="9.740227089044513"><ele>927.0</ele><time>2026-04-25T10:53:25Z</time></trkpt><trkpt lat="45.777164302495365" lon="9.74009388036436"><ele>927.0</ele><time>2026-04-25T10:53:26Z</time></trkpt><trkpt lat="45.777160892521024" lon="9.739961069625233"><ele>927.0</ele><time>2026-04-25T10:53:27Z</time></trkpt><trkpt lat="45.77713260905338" lon="9.73983277441008"><ele>927.0</ele><time>2026-04-25T10:53:28Z</time></trkpt><trkpt lat="45.77706413004338" lon="9.73972911448444"><ele>927.0</ele><time>2026-04-25T10:53:29Z</time></trkpt><trkpt lat="45.776973593103776" lon="9.739666210356493"><ele>927.0</ele><time>2026-04-25T10:53:30Z</time></trkpt><trkpt lat="45.77687554873597" lon="9.739638957430692"><ele>927.0</ele><time>2026-04-25T10:53:31Z</time></trkpt><trkpt lat="45.77677879248117" lon="9.739618619105675"><ele>927.0</ele><time>2026-04-25T10:53:32Z</time></trkpt><trkpt lat="45.776682154263945" lon="9.739597799375993"><ele>921.8</ele><time>2026-04-25T10:53:33Z</time></trkpt><trkpt lat="45.77658287527077" lon="9.739582708087093"><ele>916.6</ele><time>2026-04-25T10:53:34Z</time></trkpt><trkpt lat="45.77648001149328" lon="9.739595118982468"><ele>911.3999999999999</ele><time>2026-04-25T10:53:35Z</time></trkpt><trkpt lat="45.77638290938531" lon="9.739646666915682"><ele>906.1999999999999</ele><time>2026-04-25T10:53:36Z</time></trkpt><trkpt lat="45.77630024716922" lon="9.73974311856791"><ele>901.0</ele><time>2026-04-25T10:53:37Z</time></trkpt><trkpt lat="45.776224386980985" lon="9.739851835542312"><ele>901.0</ele><time>2026-04-25T10:53:38Z</time></trkpt><trkpt lat="45.776147052226875" lon="9.739954776135171"><ele>900.9999999999999</ele><time>2026-04-25T10:53:39Z</time></trkpt><trkpt lat="45.77606111097675" lon="9.740045090120478"><ele>900.9999999999999</ele><time>2026-04-25T10:53:40Z</time></trkpt><trkpt lat="45.775964916645194" lon="9.740114426703906"><ele>901.0</ele><time>2026-04-25T10:53:41Z</time></trkpt><trkpt lat="45.77586370647237" lon="9.740169402161206"><ele>901.0</ele><time>2026-04-25T10:53:42Z</time></trkpt><trkpt lat="45.77575738375956" lon="9.740195794700655"><ele>895.1999999999999</ele><time>2026-04-25T10:53:43Z</time></trkpt><trkpt lat="45.77565366506577" lon="9.7402362596293"><ele>889.3999999999999</ele><time>2026-04-25T10:53:44Z</time></trkpt><trkpt lat="45.77555326560366" lon="9.740294882498997"><ele>883.6</ele><time>2026-04-25T10:53:45Z</time></trkpt><trkpt lat="45.77546496133628" lon="9.74038749793028"><ele>877.8</ele><time>2026-04-25T10:53:46Z</time></trkpt><trkpt lat="45.77539282182776" lon="9.740502194980273"><ele>872.0</ele><time>2026-04-25T10:53:47Z</time></trkpt><trkpt lat="45.7753310976202" lon="9.740629839956314"><ele>872.0</ele><time>2026-04-25T10:53:48Z</time></trkpt><trkpt lat="45.77527014638978" lon="9.740757649731913"><ele>872.0</ele><time>2026-04-25T10:53:49Z</time></trkpt><trkpt lat="45.7752065424501" lon="9.740885749692257"><ele>872.0</ele><time>2026-04-25T10:53:50Z</time></trkpt><trkpt lat="45.77514150396433" lon="9.741009667569445"><ele>872.0</ele><time>2026-04-25T10:53:51Z</time></trkpt><trkpt lat="45.77506948309207" lon="9.741125705746475"><ele>872.0</ele><time>2026-04-25T10:53:52Z</time></trkpt><trkpt lat="45.77498785834469" lon="9.74122952395215"><ele>870.25</ele><time>2026-04-25T10:53:53Z</time></trkpt><trkpt lat="45.7748886549973" lon="9.741308555753488"><ele>868.5</ele><time>2026-04-25T10:53:54Z</time></trkpt><trkpt lat="45.7747752026461" lon="9.741337408653628"><ele>866.75</ele><time>2026-04-25T10:53:55Z</time></trkpt><trkpt lat="45.77466173259386" lon="9.74132769375076"><ele>865.0</ele><time>2026-04-25T10:53:56Z</time></trkpt><trkpt lat="45.77455138967108" lon="9.74130362733758"><ele>865.0</ele><time>2026-04-25T10:53:57Z</time></trkpt><trkpt lat="45.77444436320775" lon="9.741340137563169"><ele>865.0</ele><time>2026-04-25T10:53:58Z</time></trkpt><trkpt lat="45.774355607322654" lon="9.741430263023204"><ele>865.0</ele><time>2026-04-25T10:53:59Z</time></trkpt><trkpt lat="45.77428439259786" lon="9.741548660983216"><ele>865.0</ele><time>2026-04-25T10:54:00Z</time></trkpt><trkpt lat="45.774215173067624" lon="9.74167021663654"><ele>865.0</ele><time>2026-04-25T10:54:01Z</time></trkpt><trkpt lat="45.77413278271727" lon="9.74177714072659"><ele>861.0</ele><time>2026-04-25T10:54:02Z</time></trkpt><trkpt lat="45.774048978237765" lon="9.74188778766401"><ele>857.0</ele><time>2026-04-25T10:54:03Z</time></trkpt><trkpt lat="45.773956115671055" lon="9.741984399555875"><ele>853.0</ele><time>2026-04-25T10:54:04Z</time></trkpt><trkpt lat="45.77385245529256" lon="9.742048381619922"><ele>849.0</ele><time>2026-04-25T10:54:05Z</time></trkpt><trkpt lat="45.77373840934219" lon="9.742076477430755"><ele>849.0</ele><time>2026-04-25T10:54:06Z</time></trkpt><trkpt lat="45.77362121530444" lon="9.742053752660565"><ele>849.0</ele><time>2026-04-25T10:54:07Z</time></trkpt><trkpt lat="45.77350514666324" lon="9.742010527280293"><ele>849.0</ele><time>2026-04-25T10:54:08Z</time></trkpt><trkpt lat="45.77338826423594" lon="9.74200347586062"><ele>849.0</ele><time>2026-04-25T10:54:09Z</time></trkpt><trkpt lat="45.773273434658066" lon="9.742030686680083"><ele>850.25</ele><time>2026-04-25T10:54:10Z</time></trkpt><trkpt lat="45.77316029058694" lon="9.742083306088743"><ele>851.5</ele><time>2026-04-25T10:54:11Z</time></trkpt><trkpt lat="45.773046764868724" lon="9.742126202375061"><ele>852.75</ele><time>2026-04-25T10:54:12Z</time></trkpt><trkpt lat="45.77292984071368" lon="9.742147306956726"><ele>854.0</ele><time>2026-04-25T10:54:13Z</time></trkpt><trkpt lat="45.77281218387049" lon="9.742164266566693"><ele>854.0</ele><time>2026-04-25T10:54:14Z</time></trkpt><trkpt lat="45.77269607602584" lon="9.742149093810731"><ele>854.0</ele><time>2026-04-25T10:54:15Z</time></trkpt><trkpt lat="45.772581309100524" lon="9.742117230541627"><ele>854.0</ele><time>2026-04-25T10:54:16Z</time></trkpt><trkpt lat="45.77246576425936" lon="9.742105097797102"><ele>854.0</ele><time>2026-04-25T10:54:17Z</time></trkpt><trkpt lat="45.77234990764703" lon="9.742128994099762"><ele>852.5</ele><time>2026-04-25T10:54:18Z</time></trkpt><trkpt lat="45.77223787274884" lon="9.742173116242435"><ele>851.0</ele><time>2026-04-25T10:54:19Z</time></trkpt><trkpt lat="45.772124698936665" lon="9.742217915096052"><ele>849.5</ele><time>2026-04-25T10:54:20Z</time></trkpt><trkpt lat="45.77201323499498" lon="9.742266832044217"><ele>848.0</ele><time>2026-04-25T10:54:21Z</time></trkpt><trkpt lat="45.771903822875444" lon="9.742322304225937"><ele>847.5</ele><time>2026-04-25T10:54:22Z</time></trkpt><trkpt lat="45.77179706875182" lon="9.742389538360497"><ele>847.0</ele><time>2026-04-25T10:54:23Z</time></trkpt><trkpt lat="45.77168461412765" lon="9.742455598188563"><ele>846.5</ele><time>2026-04-25T10:54:24Z</time></trkpt><trkpt lat="45.77157131213653" lon="9.742509899241393"><ele>846.0</ele><time>2026-04-25T10:54:25Z</time></trkpt><trkpt lat="45.77145429020405" lon="9.742553896575917"><ele>846.0</ele><time>2026-04-25T10:54:26Z</time></trkpt><trkpt lat="45.77134569422598" lon="9.742587000917702"><ele>846.0</ele><time>2026-04-25T10:54:27Z</time></trkpt><trkpt lat="45.771250325826955" lon="9.742603007216095"><ele>846.0</ele><time>2026-04-25T10:54:28Z</time></trkpt><trkpt lat="45.77117484691578" lon="9.74259132322963"><ele>846.0</ele><time>2026-04-25T10:54:29Z</time></trkpt><trkpt lat="45.77111687334381" lon="9.742518712553078"><ele>846.0</ele><time>2026-04-25T10:54:30Z</time></trkpt><trkpt lat="45.77108189031842" lon="9.742389924617857"><ele>846.0</ele><time>2026-04-25T10:54:31Z</time></trkpt><trkpt lat="45.77106583562566" lon="9.742255549620362"><ele>846.0</ele><time>2026-04-25T10:54:32Z</time></trkpt><trkpt lat="45.77107148480873" lon="9.742120270926257"><ele>846.0</ele><time>2026-04-25T10:54:33Z</time></trkpt><trkpt lat="45.7710624811343" lon="9.741989819411993"><ele>846.0</ele><time>2026-04-25T10:54:34Z</time></trkpt><trkpt lat="45.77105286833878" lon="9.741853263131778"><ele>846.0</ele><time>2026-04-25T10:54:35Z</time></trkpt><trkpt lat="45.771049137762915" lon="9.741713808746525"><ele>851.0</ele><time>2026-04-25T10:54:36Z</time></trkpt><trkpt lat="45.77105117046888" lon="9.741571881461482"><ele>856.0</ele><time>2026-04-25T10:54:37Z</time></trkpt><trkpt lat="45.77107929352662" lon="9.741430741417771"><ele>860.9999999999999</ele><time>2026-04-25T10:54:38Z</time></trkpt><trkpt lat="45.77112175538926" lon="9.741299594990851"><ele>866.0</ele><time>2026-04-25T10:54:39Z</time></trkpt><trkpt lat="45.77118179772057" lon="9.741178686474102"><ele>871.0</ele><time>2026-04-25T10:54:40Z</time></trkpt><trkpt lat="45.77124066774317" lon="9.741058613842739"><ele>867.5999999999999</ele><time>2026-04-25T10:54:41Z</time></trkpt><trkpt lat="45.771293737774926" lon="9.740926079135486"><ele>864.1999999999999</ele><time>2026-04-25T10:54:42Z</time></trkpt><trkpt lat="45.771351788240445" lon="9.740798909717117"><ele>860.8000000000001</ele><time>2026-04-25T10:54:43Z</time></trkpt><trkpt lat="45.77141728549402" lon="9.740715241293458"><ele>857.4000000000001</ele><time>2026-04-25T10:54:44Z</time></trkpt><trkpt lat="45.771479834048236" lon="9.740670678159038"><ele>854.0</ele><time>2026-04-25T10:54:45Z</time></trkpt><trkpt lat="45.771517922318644" lon="9.740535696625725"><ele>854.0000000000001</ele><time>2026-04-25T10:54:47Z</time></trkpt><trkpt lat="45.77145956707207" lon="9.740484563872721"><ele>854.0</ele><time>2026-04-25T10:54:48Z</time></trkpt><trkpt lat="45.77138638497777" lon="9.740517982463908"><ele>854.0</ele><time>2026-04-25T10:54:49Z</time></trkpt><trkpt lat="45.77132658094782" lon="9.740592995489065"><ele>854.0</ele><time>2026-04-25T10:54:50Z</time></trkpt><trkpt lat="45.77127124531779" lon="9.740666407741896"><ele>854.0000000000001</ele><time>2026-04-25T10:54:51Z</time></trkpt><trkpt lat="45.77122482967624" lon="9.740748656831512"><ele>854.0</ele><time>2026-04-25T10:54:52Z</time></trkpt><trkpt lat="45.77118645413348" lon="9.740844362909643"><ele>854.0000000000001</ele><time>2026-04-25T10:54:53Z</time></trkpt><trkpt lat="45.77114221857381" lon="9.74094665956997"><ele>854.0</ele><time>2026-04-25T10:54:54Z</time></trkpt><trkpt lat="45.77108479178974" lon="9.741036935593009"><ele>854.0</ele><time>2026-04-25T10:54:55Z</time></trkpt><trkpt lat="45.77102384417373" lon="9.74112481170142"><ele>854.0</ele><time>2026-04-25T10:54:56Z</time></trkpt><trkpt lat="45.77097434630669" lon="9.741224174354198"><ele>854.0000000000001</ele><time>2026-04-25T10:54:57Z</time></trkpt><trkpt lat="45.770932088757526" lon="9.741331439488242"><ele>854.0</ele><time>2026-04-25T10:54:58Z</time></trkpt><trkpt lat="45.77088759670287" lon="9.741440313913563"><ele>850.8000000000001</ele><time>2026-04-25T10:54:59Z</time></trkpt><trkpt lat="45.77085391752361" lon="9.741561339156362"><ele>847.6000000000001</ele><time>2026-04-25T10:55:00Z</time></trkpt><trkpt lat="45.770833749975324" lon="9.741691183193868"><ele>844.4</ele><time>2026-04-25T10:55:01Z</time></trkpt><trkpt lat="45.770824468096166" lon="9.741820407591309"><ele>841.2</ele><time>2026-04-25T10:55:02Z</time></trkpt><trkpt lat="45.77081099278967" lon="9.741955939810687"><ele>838.0</ele><time>2026-04-25T10:55:03Z</time></trkpt><trkpt lat="45.77079419250389" lon="9.742089980756024"><ele>838.0</ele><time>2026-04-25T10:55:04Z</time></trkpt><trkpt lat="45.770754834382174" lon="9.742222163617857"><ele>838.0</ele><time>2026-04-25T10:55:05Z</time></trkpt><trkpt lat="45.77069118012712" lon="9.74233755498032"><ele>838.0</ele><time>2026-04-25T10:55:06Z</time></trkpt><trkpt lat="45.77061237691746" lon="9.74243245168242"><ele>838.0</ele><time>2026-04-25T10:55:07Z</time></trkpt><trkpt lat="45.77052346993829" lon="9.742502219657307"><ele>838.0</ele><time>2026-04-25T10:55:08Z</time></trkpt><trkpt lat="45.77043412638688" lon="9.742534749185213"><ele>837.9999999999999</ele><time>2026-04-25T10:55:09Z</time></trkpt><trkpt lat="45.7703592542994" lon="9.7425607207649"><ele>838.0</ele><time>2026-04-25T10:55:10Z</time></trkpt><trkpt lat="45.770293478607414" lon="9.7426158440852"><ele>838.0</ele><time>2026-04-25T10:55:11Z</time></trkpt><trkpt lat="45.77025409213072" lon="9.74270686931973"><ele>838.0</ele><time>2026-04-25T10:55:12Z</time></trkpt><trkpt lat="45.77026246381006" lon="9.742819156638403"><ele>837.9999999999999</ele><time>2026-04-25T10:55:13Z</time></trkpt><trkpt lat="45.77031729764303" lon="9.742911816942641"><ele>838.0</ele><time>2026-04-25T10:55:14Z</time></trkpt><trkpt lat="45.77037327252717" lon="9.742995848696609"><ele>835.3333333333333</ele><time>2026-04-25T10:55:15Z</time></trkpt><trkpt lat="45.77042349626785" lon="9.743090843193473"><ele>832.6666666666666</ele><time>2026-04-25T10:55:16Z</time></trkpt><trkpt lat="45.770472583551665" lon="9.743188881996392"><ele>830.0</ele><time>2026-04-25T10:55:17Z</time></trkpt><trkpt lat="45.77053099629633" lon="9.74328249530399"><ele>827.3333333333333</ele><time>2026-04-25T10:55:18Z</time></trkpt><trkpt lat="45.77059197890643" lon="9.743375489158623"><ele>824.6666666666666</ele><time>2026-04-25T10:55:19Z</time></trkpt><trkpt lat="45.77065508488087" lon="9.743450397886724"><ele>822.0</ele><time>2026-04-25T10:55:20Z</time></trkpt><trkpt lat="45.77068749090908" lon="9.74357041809644"><ele>822.0</ele><time>2026-04-25T10:55:22Z</time></trkpt><trkpt lat="45.77059314143808" lon="9.7435960575475"><ele>822.0</ele><time>2026-04-25T10:55:24Z</time></trkpt><trkpt lat="45.770543621255" lon="9.743518744771146"><ele>822.0</ele><time>2026-04-25T10:55:25Z</time></trkpt><trkpt lat="45.77051258371982" lon="9.743424997898005"><ele>822.0</ele><time>2026-04-25T10:55:26Z</time></trkpt><trkpt lat="45.770464016926766" lon="9.743354566091506"><ele>822.0</ele><time>2026-04-25T10:55:27Z</time></trkpt><trkpt lat="45.77041557371928" lon="9.743281543425276"><ele>822.0</ele><time>2026-04-25T10:55:28Z</time></trkpt><trkpt lat="45.77036460063734" lon="9.743207954684639"><ele>822.0</ele><time>2026-04-25T10:55:29Z</time></trkpt><trkpt lat="45.7703070229575" lon="9.743139642910403"><ele>822.0</ele><time>2026-04-25T10:55:30Z</time></trkpt><trkpt lat="45.77024982560156" lon="9.743066951718449"><ele>822.0</ele><time>2026-04-25T10:55:31Z</time></trkpt><trkpt lat="45.77019084708839" lon="9.742988389776713"><ele>822.0</ele><time>2026-04-25T10:55:32Z</time></trkpt><trkpt lat="45.770126384943474" lon="9.742917872797296"><ele>822.0</ele><time>2026-04-25T10:55:33Z</time></trkpt><trkpt lat="45.77006724729728" lon="9.742828560172871"><ele>822.0</ele><time>2026-04-25T10:55:34Z</time></trkpt><trkpt lat="45.77001998239525" lon="9.742732167088297"><ele>825.2</ele><time>2026-04-25T10:55:35Z</time></trkpt><trkpt lat="45.77000099799585" lon="9.74261192424239"><ele>828.4000000000001</ele><time>2026-04-25T10:55:36Z</time></trkpt><trkpt lat="45.77001320026361" lon="9.742489604435214"><ele>831.5999999999999</ele><time>2026-04-25T10:55:37Z</time></trkpt><trkpt lat="45.770060525786526" lon="9.742375188807928"><ele>834.8</ele><time>2026-04-25T10:55:38Z</time></trkpt><trkpt lat="45.77013888925005" lon="9.742291342405327"><ele>838.0</ele><time>2026-04-25T10:55:39Z</time></trkpt><trkpt lat="45.770225226736564" lon="9.742233754866918"><ele>838.0</ele><time>2026-04-25T10:55:40Z</time></trkpt><trkpt lat="45.77030401959302" lon="9.74218492610037"><ele>838.0</ele><time>2026-04-25T10:55:41Z</time></trkpt><trkpt lat="45.770381171528456" lon="9.742112548758952"><ele>838.0</ele><time>2026-04-25T10:55:42Z</time></trkpt><trkpt lat="45.770440500875715" lon="9.742019297655608"><ele>838.0</ele><time>2026-04-25T10:55:43Z</time></trkpt><trkpt lat="45.77047569516154" lon="9.741881041241898"><ele>838.0</ele><time>2026-04-25T10:55:44Z</time></trkpt><trkpt lat="45.77049769191268" lon="9.741741930641755"><ele>836.5999999999999</ele><time>2026-04-25T10:55:45Z</time></trkpt><trkpt lat="45.77051156768409" lon="9.74159835587102"><ele>835.1999999999999</ele><time>2026-04-25T10:55:46Z</time></trkpt><trkpt lat="45.770544593562526" lon="9.741457193923944"><ele>833.8</ele><time>2026-04-25T10:55:47Z</time></trkpt><trkpt lat="45.77060807062881" lon="9.74133498573176"><ele>832.4</ele><time>2026-04-25T10:55:48Z</time></trkpt><trkpt lat="45.77067043444791" lon="9.741211093541436"><ele>831.0</ele><time>2026-04-25T10:55:49Z</time></trkpt><trkpt lat="45.77071910175929" lon="9.741073915737008"><ele>827.0</ele><time>2026-04-25T10:55:50Z</time></trkpt><trkpt lat="45.77075208826391" lon="9.74092593967748"><ele>823.0</ele><time>2026-04-25T10:55:51Z</time></trkpt><trkpt lat="45.770785598631754" lon="9.740773421988996"><ele>819.0</ele><time>2026-04-25T10:55:52Z</time></trkpt><trkpt lat="45.770830394313265" lon="9.740625154925555"><ele>815.0</ele><time>2026-04-25T10:55:53Z</time></trkpt><trkpt lat="45.77088165349855" lon="9.740486064703697"><ele>811.0</ele><time>2026-04-25T10:55:54Z</time></trkpt><trkpt lat="45.770930844528976" lon="9.740378638724543"><ele>810.9999999999999</ele><time>2026-04-25T10:55:55Z</time></trkpt><trkpt lat="45.77097031073493" lon="9.740299165969295"><ele>811.0</ele><time>2026-04-25T10:55:56Z</time></trkpt><trkpt lat="45.77092304025321" lon="9.740165917464491"><ele>811.0</ele><time>2026-04-25T10:55:58Z</time></trkpt><trkpt lat="45.770859385506306" lon="9.740191430887625"><ele>811.0</ele><time>2026-04-25T10:55:59Z</time></trkpt><trkpt lat="45.77081586907607" lon="9.740297567560164"><ele>810.9999999999999</ele><time>2026-04-25T10:56:00Z</time></trkpt><trkpt lat="45.7707927266517" lon="9.74040103664753"><ele>811.0</ele><time>2026-04-25T10:56:01Z</time></trkpt><trkpt lat="45.77076518514407" lon="9.740487148335635"><ele>810.9999999999999</ele><time>2026-04-25T10:56:02Z</time></trkpt><trkpt lat="45.770730517364704" lon="9.74058556848819"><ele>811.0</ele><time>2026-04-25T10:56:03Z</time></trkpt><trkpt lat="45.770692113302765" lon="9.740685100447186"><ele>811.0</ele><time>2026-04-25T10:56:04Z</time></trkpt><trkpt lat="45.770652178142505" lon="9.740785477886417"><ele>811.0</ele><time>2026-04-25T10:56:05Z</time></trkpt><trkpt lat="45.77061245929634" lon="9.740889898209527"><ele>810.9999999999999</ele><time>2026-04-25T10:56:06Z</time></trkpt><trkpt lat="45.770570359027914" lon="9.740992845481165"><ele>811.0</ele><time>2026-04-25T10:56:07Z</time></trkpt><trkpt lat="45.77051642914188" lon="9.741101161579946"><ele>815.0</ele><time>2026-04-25T10:56:08Z</time></trkpt><trkpt lat="45.77044896513042" lon="9.741203878913986"><ele>819.0</ele><time>2026-04-25T10:56:09Z</time></trkpt><trkpt lat="45.77037488255635" lon="9.741277228833429"><ele>823.0</ele><time>2026-04-25T10:56:10Z</time></trkpt><trkpt lat="45.770311728943874" lon="9.741366243230432"><ele>827.0</ele><time>2026-04-25T10:56:11Z</time></trkpt><trkpt lat="45.770277799836535" lon="9.741494491732745"><ele>831.0</ele><time>2026-04-25T10:56:12Z</time></trkpt><trkpt lat="45.77026460119808" lon="9.741642672969776"><ele>831.0</ele><time>2026-04-25T10:56:13Z</time></trkpt><trkpt lat="45.770233880677715" lon="9.741766056467755"><ele>831.0</ele><time>2026-04-25T10:56:14Z</time></trkpt><trkpt lat="45.770155409502266" lon="9.741860717914342"><ele>831.0</ele><time>2026-04-25T10:56:15Z</time></trkpt><trkpt lat="45.77004829104469" lon="9.741893957274625"><ele>831.0</ele><time>2026-04-25T10:56:16Z</time></trkpt><trkpt lat="45.76995219054212" lon="9.741932296427661"><ele>831.0</ele><time>2026-04-25T10:56:17Z</time></trkpt><trkpt lat="45.769865108832676" lon="9.741994792975795"><ele>824.5999999999999</ele><time>2026-04-25T10:56:18Z</time></trkpt><trkpt lat="45.769789811306694" lon="9.742086472352224"><ele>818.2</ele><time>2026-04-25T10:56:19Z</time></trkpt><trkpt lat="45.7697167156428" lon="9.742197257881221"><ele>811.8</ele><time>2026-04-25T10:56:20Z</time></trkpt><trkpt lat="45.76964679019008" lon="9.742288091962175"><ele>805.4000000000001</ele><time>2026-04-25T10:56:21Z</time></trkpt><trkpt lat="45.769578330525576" lon="9.742391934386307"><ele>799.0</ele><time>2026-04-25T10:56:22Z</time></trkpt><trkpt lat="45.769519761778604" lon="9.742530117554171"><ele>799.0</ele><time>2026-04-25T10:56:23Z</time></trkpt><trkpt lat="45.76946838226046" lon="9.742683595427865"><ele>799.0</ele><time>2026-04-25T10:56:24Z</time></trkpt><trkpt lat="45.76944751577636" lon="9.74280405908072"><ele>799.0</ele><time>2026-04-25T10:56:25Z</time></trkpt><trkpt lat="45.76944993680179" lon="9.742960362747072"><ele>799.0</ele><time>2026-04-25T10:56:26Z</time></trkpt><trkpt lat="45.76948258698556" lon="9.743109004292958"><ele>799.0</ele><time>2026-04-25T10:56:27Z</time></trkpt><trkpt lat="45.76954626618184" lon="9.743233328790332"><ele>798.0</ele><time>2026-04-25T10:56:28Z</time></trkpt><trkpt lat="45.769623015719866" lon="9.743348604036822"><ele>797.0</ele><time>2026-04-25T10:56:29Z</time></trkpt><trkpt lat="45.769701265771864" lon="9.743460400254419"><ele>796.0</ele><time>2026-04-25T10:56:30Z</time></trkpt><trkpt lat="45.76977612197032" lon="9.743579225461868"><ele>795.0</ele><time>2026-04-25T10:56:31Z</time></trkpt><trkpt lat="45.76985665363902" lon="9.74369093859283"><ele>794.0</ele><time>2026-04-25T10:56:32Z</time></trkpt><trkpt lat="45.769939044900184" lon="9.743799461817838"><ele>789.8000000000001</ele><time>2026-04-25T10:56:33Z</time></trkpt><trkpt lat="45.77001622514119" lon="9.743905102256672"><ele>785.6</ele><time>2026-04-25T10:56:34Z</time></trkpt><trkpt lat="45.770066133995286" lon="9.744022605107107"><ele>781.4</ele><time>2026-04-25T10:56:35Z</time></trkpt><trkpt lat="45.77007775962111" lon="9.744169754152393"><ele>777.2</ele><time>2026-04-25T10:56:36Z</time></trkpt><trkpt lat="45.770059288307216" lon="9.744321923872239"><ele>773.0</ele><time>2026-04-25T10:56:37Z</time></trkpt><trkpt lat="45.77008137231466" lon="9.744464114319559"><ele>773.5999999999999</ele><time>2026-04-25T10:56:38Z</time></trkpt><trkpt lat="45.770132063515405" lon="9.744599896159027"><ele>774.1999999999999</ele><time>2026-04-25T10:56:39Z</time></trkpt><trkpt lat="45.77019538113414" lon="9.744725101991495"><ele>774.8</ele><time>2026-04-25T10:56:40Z</time></trkpt><trkpt lat="45.77026671425571" lon="9.744840190292237"><ele>775.4</ele><time>2026-04-25T10:56:41Z</time></trkpt><trkpt lat="45.77030825359336" lon="9.744977220024932"><ele>776.0</ele><time>2026-04-25T10:56:42Z</time></trkpt><trkpt lat="45.77030891828001" lon="9.745133958637698"><ele>771.4</ele><time>2026-04-25T10:56:43Z</time></trkpt><trkpt lat="45.77027648636039" lon="9.745284442988034"><ele>766.8</ele><time>2026-04-25T10:56:44Z</time></trkpt><trkpt lat="45.77023413403998" lon="9.745421463394925"><ele>762.1999999999999</ele><time>2026-04-25T10:56:45Z</time></trkpt><trkpt lat="45.770187868121994" lon="9.745553285283867"><ele>757.5999999999999</ele><time>2026-04-25T10:56:46Z</time></trkpt><trkpt lat="45.77013588858695" lon="9.7456909251004"><ele>753.0</ele><time>2026-04-25T10:56:47Z</time></trkpt><trkpt lat="45.77006942737939" lon="9.745815231918609"><ele>753.0</ele><time>2026-04-25T10:56:48Z</time></trkpt><trkpt lat="45.76999119117895" lon="9.745951530532958"><ele>753.0</ele><time>2026-04-25T10:56:49Z</time></trkpt><trkpt lat="45.76991613879505" lon="9.746076006500134"><ele>753.0</ele><time>2026-04-25T10:56:50Z</time></trkpt><trkpt lat="45.76981841652865" lon="9.746178071376256"><ele>753.0</ele><time>2026-04-25T10:56:51Z</time></trkpt><trkpt lat="45.76971913319912" lon="9.746266407760475"><ele>751.0</ele><time>2026-04-25T10:56:52Z</time></trkpt><trkpt lat="45.769612304798756" lon="9.746340037847823"><ele>749.0</ele><time>2026-04-25T10:56:53Z</time></trkpt><trkpt lat="45.76951559478268" lon="9.746428549579115"><ele>747.0</ele><time>2026-04-25T10:56:54Z</time></trkpt><trkpt lat="45.76943326703391" lon="9.746522518693034"><ele>745.0</ele><time>2026-04-25T10:56:55Z</time></trkpt><trkpt lat="45.76936067600811" lon="9.746597908114998"><ele>743.0</ele><time>2026-04-25T10:56:56Z</time></trkpt><trkpt lat="45.769259511003895" lon="9.746595656857906"><ele>743.0</ele><time>2026-04-25T10:56:58Z</time></trkpt><trkpt lat="45.769286081315805" lon="9.746447497101112"><ele>743.0</ele><time>2026-04-25T10:57:00Z</time></trkpt><trkpt lat="45.76936672503109" lon="9.74642675283787"><ele>743.0</ele><time>2026-04-25T10:57:01Z</time></trkpt><trkpt lat="45.76944413199079" lon="9.74641119499069"><ele>743.0</ele><time>2026-04-25T10:57:02Z</time></trkpt><trkpt lat="45.76951183121658" lon="9.746361974015025"><ele>743.0</ele><time>2026-04-25T10:57:03Z</time></trkpt><trkpt lat="45.76957395728756" lon="9.746301148742388"><ele>743.0</ele><time>2026-04-25T10:57:04Z</time></trkpt><trkpt lat="45.76963094261598" lon="9.746229097385225"><ele>742.3333333333333</ele><time>2026-04-25T10:57:05Z</time></trkpt><trkpt lat="45.76968603279578" lon="9.746147687354549"><ele>741.6666666666666</ele><time>2026-04-25T10:57:06Z</time></trkpt><trkpt lat="45.769735428657306" lon="9.74605521709621"><ele>741.0</ele><time>2026-04-25T10:57:07Z</time></trkpt><trkpt lat="45.76978818435148" lon="9.745964300346738"><ele>740.3333333333334</ele><time>2026-04-25T10:57:08Z</time></trkpt><trkpt lat="45.769844927721294" lon="9.745868484176185"><ele>739.6666666666667</ele><time>2026-04-25T10:57:09Z</time></trkpt><trkpt lat="45.76990139445296" lon="9.745761923947827"><ele>739.0</ele><time>2026-04-25T10:57:10Z</time></trkpt><trkpt lat="45.769944601465895" lon="9.745646714824733"><ele>741.8000000000001</ele><time>2026-04-25T10:57:11Z</time></trkpt><trkpt lat="45.769972164529875" lon="9.745515000964518"><ele>744.6</ele><time>2026-04-25T10:57:12Z</time></trkpt><trkpt lat="45.769986679222434" lon="9.745372137285234"><ele>747.4</ele><time>2026-04-25T10:57:13Z</time></trkpt><trkpt lat="45.76998519490675" lon="9.745235100931515"><ele>750.2</ele><time>2026-04-25T10:57:14Z</time></trkpt><trkpt lat="45.7699438035378" lon="9.74510075033608"><ele>753.0</ele><time>2026-04-25T10:57:15Z</time></trkpt><trkpt lat="45.76987104193891" lon="9.744992474578849"><ele>754.2</ele><time>2026-04-25T10:57:16Z</time></trkpt><trkpt lat="45.769786762995736" lon="9.744908021261471"><ele>755.4</ele><time>2026-04-25T10:57:17Z</time></trkpt><trkpt lat="45.76971326696201" lon="9.74481833788805"><ele>756.6</ele><time>2026-04-25T10:57:18Z</time></trkpt><trkpt lat="45.76965225378389" lon="9.7446998614197"><ele>757.8000000000001</ele><time>2026-04-25T10:57:19Z</time></trkpt><trkpt lat="45.76960916512573" lon="9.74456982650843"><ele>759.0</ele><time>2026-04-25T10:57:20Z</time></trkpt><trkpt lat="45.769584985603736" lon="9.74442181548091"><ele>761.8000000000001</ele><time>2026-04-25T10:57:21Z</time></trkpt><trkpt lat="45.769552759469" lon="9.744277905868035"><ele>764.6</ele><time>2026-04-25T10:57:22Z</time></trkpt><trkpt lat="45.76950022134003" lon="9.744150324983838"><ele>767.4</ele><time>2026-04-25T10:57:23Z</time></trkpt><trkpt lat="45.76942297432552" lon="9.744041074863647"><ele>770.2</ele><time>2026-04-25T10:57:24Z</time></trkpt><trkpt lat="45.76933420029409" lon="9.743950560235373"><ele>773.0</ele><time>2026-04-25T10:57:25Z</time></trkpt><trkpt lat="45.769241703221894" lon="9.743864474841592"><ele>769.2</ele><time>2026-04-25T10:57:26Z</time></trkpt><trkpt lat="45.76914041209318" lon="9.743802585294185"><ele>765.4</ele><time>2026-04-25T10:57:27Z</time></trkpt><trkpt lat="45.76904646273521" lon="9.74372508726603"><ele>761.6</ele><time>2026-04-25T10:57:28Z</time></trkpt><trkpt lat="45.76896148866014" lon="9.743622672833647"><ele>757.8000000000001</ele><time>2026-04-25T10:57:29Z</time></trkpt><trkpt lat="45.76888683734539" lon="9.74349877987523"><ele>754.0</ele><time>2026-04-25T10:57:30Z</time></trkpt><trkpt lat="45.768824220344385" lon="9.743363585108705"><ele>754.0</ele><time>2026-04-25T10:57:31Z</time></trkpt><trkpt lat="45.76878816017141" lon="9.74322213081563"><ele>754.0</ele><time>2026-04-25T10:57:32Z</time></trkpt><trkpt lat="45.768783008185764" lon="9.743090720462888"><ele>754.0</ele><time>2026-04-25T10:57:33Z</time></trkpt><trkpt lat="45.768799459315844" lon="9.742982303196612"><ele>754.0</ele><time>2026-04-25T10:57:34Z</time></trkpt><trkpt lat="45.76875469659555" lon="9.742860597603554"><ele>754.0</ele><time>2026-04-25T10:57:36Z</time></trkpt><trkpt lat="45.76869296001976" lon="9.742878522150365"><ele>754.0</ele><time>2026-04-25T10:57:37Z</time></trkpt><trkpt lat="45.76865422044618" lon="9.742962844679923"><ele>754.0</ele><time>2026-04-25T10:57:38Z</time></trkpt><trkpt lat="45.76865936659405" lon="9.743077082803776"><ele>754.0</ele><time>2026-04-25T10:57:39Z</time></trkpt><trkpt lat="45.768684114456185" lon="9.743176177136743"><ele>754.0</ele><time>2026-04-25T10:57:40Z</time></trkpt><trkpt lat="45.76869477202374" lon="9.74327565497282"><ele>754.0</ele><time>2026-04-25T10:57:41Z</time></trkpt><trkpt lat="45.76870897628033" lon="9.743380245528511"><ele>754.0</ele><time>2026-04-25T10:57:42Z</time></trkpt><trkpt lat="45.76872884284725" lon="9.743484444530091"><ele>754.0</ele><time>2026-04-25T10:57:43Z</time></trkpt><trkpt lat="45.76875785723684" lon="9.74358973220746"><ele>750.8333333333334</ele><time>2026-04-25T10:57:44Z</time></trkpt><trkpt lat="45.768797251889595" lon="9.743690622497523"><ele>747.6666666666667</ele><time>2026-04-25T10:57:45Z</time></trkpt><trkpt lat="45.768848091042294" lon="9.743786851890219"><ele>744.5</ele><time>2026-04-25T10:57:46Z</time></trkpt><trkpt lat="45.76890972489088" lon="9.743874355181777"><ele>741.3333333333334</ele><time>2026-04-25T10:57:47Z</time></trkpt><trkpt lat="45.768971698718104" lon="9.743965209348069"><ele>738.1666666666666</ele><time>2026-04-25T10:57:48Z</time></trkpt><trkpt lat="45.76903080899561" lon="9.744058394628713"><ele>735.0</ele><time>2026-04-25T10:57:49Z</time></trkpt><trkpt lat="45.76909363272688" lon="9.744155125323418"><ele>735.0</ele><time>2026-04-25T10:57:50Z</time></trkpt><trkpt lat="45.76916126144061" lon="9.7442524194191"><ele>735.0</ele><time>2026-04-25T10:57:51Z</time></trkpt><trkpt lat="45.76922848553327" lon="9.74435072161102"><ele>735.0</ele><time>2026-04-25T10:57:52Z</time></trkpt><trkpt lat="45.76927252078237" lon="9.744475238129562"><ele>735.0</ele><time>2026-04-25T10:57:53Z</time></trkpt><trkpt lat="45.76928361826711" lon="9.744616880038171"><ele>735.0</ele><time>2026-04-25T10:57:54Z</time></trkpt><trkpt lat="45.76928893805954" lon="9.744756581167765"><ele>732.0</ele><time>2026-04-25T10:57:55Z</time></trkpt><trkpt lat="45.76929777985794" lon="9.74489994087756"><ele>729.0</ele><time>2026-04-25T10:57:56Z</time></trkpt><trkpt lat="45.76932334364497" lon="9.745036676721982"><ele>726.0</ele><time>2026-04-25T10:57:57Z</time></trkpt><trkpt lat="45.769361733227896" lon="9.74516930582837"><ele>723.0</ele><time>2026-04-25T10:57:58Z</time></trkpt><trkpt lat="45.76938891612074" lon="9.745294163933313"><ele>720.0</ele><time>2026-04-25T10:57:59Z</time></trkpt><trkpt lat="45.76938532170237" lon="9.745413964038349"><ele>721.5</ele><time>2026-04-25T10:58:00Z</time></trkpt><trkpt lat="45.76934522545569" lon="9.745519063786912"><ele>723.0</ele><time>2026-04-25T10:58:01Z</time></trkpt><trkpt lat="45.769276664866744" lon="9.745593260122483"><ele>724.5</ele><time>2026-04-25T10:58:02Z</time></trkpt><trkpt lat="45.769201358719464" lon="9.74564365712142"><ele>726.0</ele><time>2026-04-25T10:58:03Z</time></trkpt><trkpt lat="45.769126939377536" lon="9.745704588168692"><ele>727.5</ele><time>2026-04-25T10:58:04Z</time></trkpt><trkpt lat="45.769051909224586" lon="9.74576472555117"><ele>729.0</ele><time>2026-04-25T10:58:05Z</time></trkpt><trkpt lat="45.76897282100585" lon="9.745822402644471"><ele>729.0</ele><time>2026-04-25T10:58:06Z</time></trkpt><trkpt lat="45.76888922543845" lon="9.74587517977226"><ele>729.0</ele><time>2026-04-25T10:58:07Z</time></trkpt><trkpt lat="45.76880233360742" lon="9.745921085758276"><ele>729.0</ele><time>2026-04-25T10:58:08Z</time></trkpt><trkpt lat="45.76871257775873" lon="9.74595974639769"><ele>729.0</ele><time>2026-04-25T10:58:09Z</time></trkpt><trkpt lat="45.768622726262315" lon="9.746002189902082"><ele>729.0</ele><time>2026-04-25T10:58:10Z</time></trkpt><trkpt lat="45.76853263127336" lon="9.746059836010438"><ele>726.4000000000001</ele><time>2026-04-25T10:58:11Z</time></trkpt><trkpt lat="45.76844252008847" lon="9.746125477666789"><ele>723.8</ele><time>2026-04-25T10:58:12Z</time></trkpt><trkpt lat="45.7683565899828" lon="9.746198295736624"><ele>721.2</ele><time>2026-04-25T10:58:13Z</time></trkpt><trkpt lat="45.76828939986146" lon="9.746311550872514"><ele>718.5999999999999</ele><time>2026-04-25T10:58:14Z</time></trkpt><trkpt lat="45.7682489910048" lon="9.74645056813092"><ele>716.0</ele><time>2026-04-25T10:58:15Z</time></trkpt><trkpt lat="45.76821813245453" lon="9.746595759931356"><ele>716.0</ele><time>2026-04-25T10:58:16Z</time></trkpt><trkpt lat="45.768192303687556" lon="9.746738068757663"><ele>716.0</ele><time>2026-04-25T10:58:17Z</time></trkpt><trkpt lat="45.76816377214143" lon="9.746880151211718"><ele>716.0</ele><time>2026-04-25T10:58:18Z</time></trkpt><trkpt lat="45.768132516828466" lon="9.74702240985947"><ele>716.0</ele><time>2026-04-25T10:58:19Z</time></trkpt><trkpt lat="45.76809972783183" lon="9.747163062890552"><ele>716.0</ele><time>2026-04-25T10:58:20Z</time></trkpt><trkpt lat="45.76806731510695" lon="9.747306445207014"><ele>715.3333333333333</ele><time>2026-04-25T10:58:21Z</time></trkpt><trkpt lat="45.76803325979398" lon="9.747448656602192"><ele>714.6666666666666</ele><time>2026-04-25T10:58:22Z</time></trkpt><trkpt lat="45.768001777806376" lon="9.747586043951463"><ele>714.0</ele><time>2026-04-25T10:58:23Z</time></trkpt><trkpt lat="45.767983643953755" lon="9.747719094122822"><ele>713.3333333333334</ele><time>2026-04-25T10:58:24Z</time></trkpt><trkpt lat="45.76797640861647" lon="9.747835557641034"><ele>712.6666666666667</ele><time>2026-04-25T10:58:25Z</time></trkpt><trkpt lat="45.76796368887991" lon="9.74792665878371"><ele>712.0</ele><time>2026-04-25T10:58:26Z</time></trkpt><trkpt lat="45.76787794801246" lon="9.747951010865206"><ele>712.0</ele><time>2026-04-25T10:58:28Z</time></trkpt><trkpt lat="45.76788389953525" lon="9.747762309162958"><ele>712.0</ele><time>2026-04-25T10:58:30Z</time></trkpt><trkpt lat="45.767929914828386" lon="9.747664374770446"><ele>712.0</ele><time>2026-04-25T10:58:31Z</time></trkpt><trkpt lat="45.76795621823106" lon="9.747566617156016"><ele>712.0</ele><time>2026-04-25T10:58:32Z</time></trkpt><trkpt lat="45.76798513483295" lon="9.747465937603408"><ele>712.0</ele><time>2026-04-25T10:58:33Z</time></trkpt><trkpt lat="45.76800694598301" lon="9.747356896391159"><ele>712.0</ele><time>2026-04-25T10:58:34Z</time></trkpt><trkpt lat="45.76802153592748" lon="9.747243060111227"><ele>712.6666666666667</ele><time>2026-04-25T10:58:35Z</time></trkpt><trkpt lat="45.768029072195915" lon="9.74712344334311"><ele>713.3333333333334</ele><time>2026-04-25T10:58:36Z</time></trkpt><trkpt lat="45.768031521539825" lon="9.746999054036435"><ele>714.0</ele><time>2026-04-25T10:58:37Z</time></trkpt><trkpt lat="45.768034169829924" lon="9.746869496066648"><ele>714.6666666666666</ele><time>2026-04-25T10:58:38Z</time></trkpt><trkpt lat="45.768042278119964" lon="9.746738389635507"><ele>715.3333333333333</ele><time>2026-04-25T10:58:39Z</time></trkpt><trkpt lat="45.76805863068048" lon="9.746605417996411"><ele>716.0</ele><time>2026-04-25T10:58:40Z</time></trkpt><trkpt lat="45.76807770286615" lon="9.746470697500088"><ele>716.0</ele><time>2026-04-25T10:58:41Z</time></trkpt><trkpt lat="45.76808935013074" lon="9.74633077821696"><ele>716.0</ele><time>2026-04-25T10:58:42Z</time></trkpt><trkpt lat="45.76811263002916" lon="9.746190553759327"><ele>716.0</ele><time>2026-04-25T10:58:43Z</time></trkpt><trkpt lat="45.768157318650935" lon="9.746056083211585"><ele>716.0</ele><time>2026-04-25T10:58:44Z</time></trkpt><trkpt lat="45.76821456008798" lon="9.745928881835606"><ele>716.0</ele><time>2026-04-25T10:58:45Z</time></trkpt><trkpt lat="45.76828471774466" lon="9.745822213639254"><ele>718.5999999999999</ele><time>2026-04-25T10:58:46Z</time></trkpt><trkpt lat="45.76836331323668" lon="9.74572917795097"><ele>721.2</ele><time>2026-04-25T10:58:47Z</time></trkpt><trkpt lat="45.768448892099926" lon="9.745632752020226"><ele>723.8</ele><time>2026-04-25T10:58:48Z</time></trkpt><trkpt lat="45.76853715001942" lon="9.745545613764685"><ele>726.4000000000001</ele><time>2026-04-25T10:58:49Z</time></trkpt><trkpt lat="45.76863119660554" lon="9.74546667321221"><ele>729.0</ele><time>2026-04-25T10:58:50Z</time></trkpt><trkpt lat="45.76871862952406" lon="9.745393973558894"><ele>729.0</ele><time>2026-04-25T10:58:51Z</time></trkpt><trkpt lat="45.76877676399815" lon="9.74531109590004"><ele>729.0</ele><time>2026-04-25T10:58:52Z</time></trkpt><trkpt lat="45.76879183018382" lon="9.745203963866885"><ele>729.0</ele><time>2026-04-25T10:58:53Z</time></trkpt><trkpt lat="45.76875661844305" lon="9.745090445079478"><ele>729.0</ele><time>2026-04-25T10:58:54Z</time></trkpt><trkpt lat="45.768705540442326" lon="9.744992057296994"><ele>729.0</ele><time>2026-04-25T10:58:55Z</time></trkpt><trkpt lat="45.76865648802167" lon="9.744892321315964"><ele>729.0</ele><time>2026-04-25T10:58:56Z</time></trkpt><trkpt lat="45.7685990938601" lon="9.74480261662788"><ele>727.2</ele><time>2026-04-25T10:58:57Z</time></trkpt><trkpt lat="45.76853814319555" lon="9.74470705315431"><ele>725.4000000000001</ele><time>2026-04-25T10:58:58Z</time></trkpt><trkpt lat="45.76846692795389" lon="9.744624023265198"><ele>723.6</ele><time>2026-04-25T10:58:59Z</time></trkpt><trkpt lat="45.76839388987502" lon="9.744542106083268"><ele>721.8</ele><time>2026-04-25T10:59:00Z</time></trkpt><trkpt lat="45.76832026160203" lon="9.744456163020073"><ele>720.0</ele><time>2026-04-25T10:59:01Z</time></trkpt><trkpt lat="45.76824810013262" lon="9.744363658070114"><ele>716.1666666666666</ele><time>2026-04-25T10:59:02Z</time></trkpt><trkpt lat="45.76817321112869" lon="9.744270213530113"><ele>712.3333333333334</ele><time>2026-04-25T10:59:03Z</time></trkpt><trkpt lat="45.768100353715745" lon="9.744181767428755"><ele>708.5</ele><time>2026-04-25T10:59:04Z</time></trkpt><trkpt lat="45.76803671623968" lon="9.744092380990145"><ele>704.6666666666667</ele><time>2026-04-25T10:59:05Z</time></trkpt><trkpt lat="45.767974119237266" lon="9.744002010868586"><ele>700.8333333333334</ele><time>2026-04-25T10:59:06Z</time></trkpt><trkpt lat="45.76792435384175" lon="9.743922009089959"><ele>697.0</ele><time>2026-04-25T10:59:07Z</time></trkpt><trkpt lat="45.7678886232299" lon="9.743835379494083"><ele>697.0</ele><time>2026-04-25T10:59:08Z</time></trkpt><trkpt lat="45.76787753762903" lon="9.743745850138277"><ele>697.0</ele><time>2026-04-25T10:59:09Z</time></trkpt><trkpt lat="45.76787822800537" lon="9.74358335526215"><ele>697.0</ele><time>2026-04-25T10:59:11Z</time></trkpt><trkpt lat="45.76780149824379" lon="9.743494457892771"><ele>697.0</ele><time>2026-04-25T10:59:13Z</time></trkpt><trkpt lat="45.76772712145817" lon="9.743628622151284"><ele>697.0</ele><time>2026-04-25T10:59:15Z</time></trkpt><trkpt lat="45.76774143726184" lon="9.743734872049558"><ele>697.0</ele><time>2026-04-25T10:59:16Z</time></trkpt><trkpt lat="45.76776017867523" lon="9.74383333266012"><ele>697.0</ele><time>2026-04-25T10:59:17Z</time></trkpt><trkpt lat="45.76778281467528" lon="9.743933307711517"><ele>697.0</ele><time>2026-04-25T10:59:18Z</time></trkpt><trkpt lat="45.76781775126125" lon="9.744032612415761"><ele>697.0</ele><time>2026-04-25T10:59:19Z</time></trkpt><trkpt lat="45.76785414651345" lon="9.744137275686466"><ele>697.0</ele><time>2026-04-25T10:59:20Z</time></trkpt><trkpt lat="45.7678937619181" lon="9.744244735575654"><ele>697.0</ele><time>2026-04-25T10:59:21Z</time></trkpt><trkpt lat="45.76793870912878" lon="9.744348341764095"><ele>695.0</ele><time>2026-04-25T10:59:22Z</time></trkpt><trkpt lat="45.76798666897459" lon="9.744457141371443"><ele>693.0</ele><time>2026-04-25T10:59:23Z</time></trkpt><trkpt lat="45.768038099961856" lon="9.744562941627697"><ele>691.0</ele><time>2026-04-25T10:59:24Z</time></trkpt><trkpt lat="45.768095445612815" lon="9.744668321021516"><ele>689.0</ele><time>2026-04-25T10:59:25Z</time></trkpt><trkpt lat="45.768160626902976" lon="9.744774272085175"><ele>687.0</ele><time>2026-04-25T10:59:26Z</time></trkpt><trkpt lat="45.76822708620974" lon="9.744870468682954"><ele>687.0</ele><time>2026-04-25T10:59:27Z</time></trkpt><trkpt lat="45.768281177757444" lon="9.74495540465011"><ele>687.0</ele><time>2026-04-25T10:59:28Z</time></trkpt><trkpt lat="45.768278496136695" lon="9.745126829063613"><ele>687.0</ele><time>2026-04-25T10:59:30Z</time></trkpt><trkpt lat="45.76821906035542" lon="9.745187060842703"><ele>687.0</ele><time>2026-04-25T10:59:31Z</time></trkpt><trkpt lat="45.76814707870159" lon="9.745214455752182"><ele>687.0</ele><time>2026-04-25T10:59:32Z</time></trkpt><trkpt lat="45.76808015262148" lon="9.745250251087603"><ele>687.0</ele><time>2026-04-25T10:59:33Z</time></trkpt><trkpt lat="45.768016056878444" lon="9.745300712275785"><ele>689.5</ele><time>2026-04-25T10:59:34Z</time></trkpt><trkpt lat="45.76795360896992" lon="9.745361504544798"><ele>692.0</ele><time>2026-04-25T10:59:35Z</time></trkpt><trkpt lat="45.76789373332534" lon="9.745451931645077"><ele>694.5</ele><time>2026-04-25T10:59:36Z</time></trkpt><trkpt lat="45.767840285557035" lon="9.745563658616527"><ele>697.0</ele><time>2026-04-25T10:59:37Z</time></trkpt><trkpt lat="45.767797043578206" lon="9.745677034851422"><ele>699.5</ele><time>2026-04-25T10:59:38Z</time></trkpt><trkpt lat="45.767751323573094" lon="9.745800193850114"><ele>702.0</ele><time>2026-04-25T10:59:39Z</time></trkpt><trkpt lat="45.7676994504284" lon="9.745906387394921"><ele>695.8</ele><time>2026-04-25T10:59:40Z</time></trkpt><trkpt lat="45.7676495770764" lon="9.746015453467601"><ele>689.6</ele><time>2026-04-25T10:59:41Z</time></trkpt><trkpt lat="45.76760476441674" lon="9.746128964839869"><ele>683.4</ele><time>2026-04-25T10:59:42Z</time></trkpt><trkpt lat="45.76756635405468" lon="9.746251322510231"><ele>677.1999999999999</ele><time>2026-04-25T10:59:43Z</time></trkpt><trkpt lat="45.767535271298456" lon="9.746381355583166"><ele>671.0</ele><time>2026-04-25T10:59:44Z</time></trkpt><trkpt lat="45.76751169394505" lon="9.746515113151082"><ele>671.0</ele><time>2026-04-25T10:59:45Z</time></trkpt><trkpt lat="45.76749599424591" lon="9.746653662241348"><ele>671.0</ele><time>2026-04-25T10:59:46Z</time></trkpt><trkpt lat="45.76748105203895" lon="9.746794569773744"><ele>671.0</ele><time>2026-04-25T10:59:47Z</time></trkpt><trkpt lat="45.76745911973474" lon="9.746935140425979"><ele>671.0</ele><time>2026-04-25T10:59:48Z</time></trkpt><trkpt lat="45.76742190835028" lon="9.747069736335051"><ele>671.0</ele><time>2026-04-25T10:59:49Z</time></trkpt><trkpt lat="45.76736951745766" lon="9.747196761700772"><ele>672.0</ele><time>2026-04-25T10:59:50Z</time></trkpt><trkpt lat="45.76731262308967" lon="9.747320842403553"><ele>673.0</ele><time>2026-04-25T10:59:51Z</time></trkpt><trkpt lat="45.767254740639125" lon="9.747448756677528"><ele>674.0</ele><time>2026-04-25T10:59:52Z</time></trkpt><trkpt lat="45.767198969045" lon="9.74757863984871"><ele>675.0</ele><time>2026-04-25T10:59:53Z</time></trkpt><trkpt lat="45.76714803840449" lon="9.747711574845457"><ele>676.0</ele><time>2026-04-25T10:59:54Z</time></trkpt><trkpt lat="45.767112965124355" lon="9.747850687066109"><ele>676.0</ele><time>2026-04-25T10:59:55Z</time></trkpt><trkpt lat="45.76710749669914" lon="9.747999258720531"><ele>676.0</ele><time>2026-04-25T10:59:56Z</time></trkpt><trkpt lat="45.76711190949051" lon="9.74813955825133"><ele>676.0</ele><time>2026-04-25T10:59:57Z</time></trkpt><trkpt lat="45.76713860825518" lon="9.748257532961375"><ele>676.0</ele><time>2026-04-25T10:59:58Z</time></trkpt><trkpt lat="45.767141016500034" lon="9.748355200778992"><ele>676.0</ele><time>2026-04-25T10:59:59Z</time></trkpt><trkpt lat="45.76710979377965" lon="9.748463341834084"><ele>676.0</ele><time>2026-04-25T11:00:00Z</time></trkpt><trkpt lat="45.76699743749615" lon="9.748482831280711"><ele>676.0</ele><time>2026-04-25T11:00:02Z</time></trkpt><trkpt lat="45.766968945357505" lon="9.74838802529288"><ele>676.0</ele><time>2026-04-25T11:00:03Z</time></trkpt><trkpt lat="45.76698134136719" lon="9.748269563579385"><ele>676.0</ele><time>2026-04-25T11:00:04Z</time></trkpt><trkpt lat="45.767003697280224" lon="9.748181713666705"><ele>676.0</ele><time>2026-04-25T11:00:05Z</time></trkpt><trkpt lat="45.767013333486" lon="9.748081359696876"><ele>676.0</ele><time>2026-04-25T11:00:06Z</time></trkpt><trkpt lat="45.7670263872725" lon="9.747974246327335"><ele>676.0</ele><time>2026-04-25T11:00:07Z</time></trkpt><trkpt lat="45.76704516210708" lon="9.747866247672368"><ele>676.0</ele><time>2026-04-25T11:00:08Z</time></trkpt><trkpt lat="45.76706393217926" lon="9.747752832300796"><ele>676.8</ele><time>2026-04-25T11:00:09Z</time></trkpt><trkpt lat="45.76708601122685" lon="9.747636190574571"><ele>677.5999999999999</ele><time>2026-04-25T11:00:10Z</time></trkpt><trkpt lat="45.767114630654454" lon="9.74751775319112"><ele>678.4</ele><time>2026-04-25T11:00:11Z</time></trkpt><trkpt lat="45.767146771217575" lon="9.747393358102105"><ele>679.2</ele><time>2026-04-25T11:00:12Z</time></trkpt><trkpt lat="45.76718266467635" lon="9.747268244094784"><ele>680.0</ele><time>2026-04-25T11:00:13Z</time></trkpt><trkpt lat="45.76722093430709" lon="9.74714341797176"><ele>680.0</ele><time>2026-04-25T11:00:14Z</time></trkpt><trkpt lat="45.76725400840069" lon="9.747009972838251"><ele>680.0</ele><time>2026-04-25T11:00:15Z</time></trkpt><trkpt lat="45.7672802914454" lon="9.746872938525055"><ele>680.0</ele><time>2026-04-25T11:00:16Z</time></trkpt><trkpt lat="45.767294059180145" lon="9.746729048903926"><ele>680.0</ele><time>2026-04-25T11:00:17Z</time></trkpt><trkpt lat="45.76729137995218" lon="9.746580837194161"><ele>680.0</ele><time>2026-04-25T11:00:18Z</time></trkpt><trkpt lat="45.767278979849095" lon="9.746429968680618"><ele>678.2</ele><time>2026-04-25T11:00:19Z</time></trkpt><trkpt lat="45.76727078791013" lon="9.746275485664826"><ele>676.4</ele><time>2026-04-25T11:00:20Z</time></trkpt><trkpt lat="45.76726375039432" lon="9.746115123900726"><ele>674.5999999999999</ele><time>2026-04-25T11:00:21Z</time></trkpt><trkpt lat="45.767246126086526" lon="9.745961125760195"><ele>672.8</ele><time>2026-04-25T11:00:22Z</time></trkpt><trkpt lat="45.76722873504221" lon="9.745802736712514"><ele>671.0</ele><time>2026-04-25T11:00:23Z</time></trkpt><trkpt lat="45.767211088034486" lon="9.745645717927935"><ele>669.25</ele><time>2026-04-25T11:00:24Z</time></trkpt><trkpt lat="45.767206373959425" lon="9.745479890947939"><ele>667.5</ele><time>2026-04-25T11:00:25Z</time></trkpt><trkpt lat="45.76719986716268" lon="9.745318615594478"><ele>665.75</ele><time>2026-04-25T11:00:26Z</time></trkpt><trkpt lat="45.76717764161543" lon="9.745163664955822"><ele>664.0</ele><time>2026-04-25T11:00:27Z</time></trkpt><trkpt lat="45.76712682287979" lon="9.745019205078565"><ele>663.6</ele><time>2026-04-25T11:00:28Z</time></trkpt><trkpt lat="45.767065754623424" lon="9.744886923673347"><ele>663.2</ele><time>2026-04-25T11:00:29Z</time></trkpt><trkpt lat="45.767031760951" lon="9.744754429302237"><ele>662.8000000000001</ele><time>2026-04-25T11:00:30Z</time></trkpt><trkpt lat="45.76703795124486" lon="9.744601661631878"><ele>662.4000000000001</ele><time>2026-04-25T11:00:31Z</time></trkpt><trkpt lat="45.76707029116121" lon="9.74445206004216"><ele>662.0</ele><time>2026-04-25T11:00:32Z</time></trkpt><trkpt lat="45.76708006233567" lon="9.744304667259128"><ele>662.0</ele><time>2026-04-25T11:00:33Z</time></trkpt><trkpt lat="45.76708689814662" lon="9.744184251640009"><ele>662.0</ele><time>2026-04-25T11:00:34Z</time></trkpt><trkpt lat="45.767069179232564" lon="9.74409569683032"><ele>662.0</ele><time>2026-04-25T11:00:35Z</time></trkpt><trkpt lat="45.76700965067008" lon="9.744061896874756"><ele>662.0</ele><time>2026-04-25T11:00:36Z</time></trkpt><trkpt lat="45.76693868709922" lon="9.744097125499163"><ele>662.0</ele><time>2026-04-25T11:00:37Z</time></trkpt><trkpt lat="45.766903296345816" lon="9.744217641556482"><ele>662.0</ele><time>2026-04-25T11:00:38Z</time></trkpt><trkpt lat="45.76691019327744" lon="9.74433865275821"><ele>661.1666666666666</ele><time>2026-04-25T11:00:39Z</time></trkpt><trkpt lat="45.76693583136579" lon="9.74445604460601"><ele>660.3333333333333</ele><time>2026-04-25T11:00:40Z</time></trkpt><trkpt lat="45.76693385874583" lon="9.744563828654245"><ele>659.5</ele><time>2026-04-25T11:00:41Z</time></trkpt><trkpt lat="45.766928581452" lon="9.744680353739332"><ele>658.6666666666666</ele><time>2026-04-25T11:00:42Z</time></trkpt><trkpt lat="45.76693005249173" lon="9.74480023997933"><ele>657.8333333333334</ele><time>2026-04-25T11:00:43Z</time></trkpt><trkpt lat="45.76693656838572" lon="9.74492512149535"><ele>657.0</ele><time>2026-04-25T11:00:44Z</time></trkpt><trkpt lat="45.76695128709021" lon="9.745051927048722"><ele>657.0</ele><time>2026-04-25T11:00:45Z</time></trkpt><trkpt lat="45.76696612120038" lon="9.745179694023344"><ele>657.0</ele><time>2026-04-25T11:00:46Z</time></trkpt><trkpt lat="45.766968688880176" lon="9.745313415762299"><ele>657.0</ele><time>2026-04-25T11:00:47Z</time></trkpt><trkpt lat="45.766941351262524" lon="9.745441795162208"><ele>657.0</ele><time>2026-04-25T11:00:48Z</time></trkpt><trkpt lat="45.76689365381177" lon="9.745561126663974"><ele>657.0</ele><time>2026-04-25T11:00:49Z</time></trkpt><trkpt lat="45.76685917985819" lon="9.74567842926363"><ele>658.4000000000001</ele><time>2026-04-25T11:00:50Z</time></trkpt><trkpt lat="45.76686698099" lon="9.745825477733124"><ele>659.8000000000001</ele><time>2026-04-25T11:00:51Z</time></trkpt><trkpt lat="45.76688263340075" lon="9.745970496411452"><ele>661.2</ele><time>2026-04-25T11:00:52Z</time></trkpt><trkpt lat="45.76690581483008" lon="9.746116640077286"><ele>662.6</ele><time>2026-04-25T11:00:53Z</time></trkpt><trkpt lat="45.76692376535125" lon="9.74626549518998"><ele>664.0</ele><time>2026-04-25T11:00:54Z</time></trkpt><trkpt lat="45.76690451795831" lon="9.74643166747609"><ele>665.4000000000001</ele><time>2026-04-25T11:00:55Z</time></trkpt><trkpt lat="45.76686340079009" lon="9.746586635934129"><ele>666.8</ele><time>2026-04-25T11:00:56Z</time></trkpt><trkpt lat="45.76682101709534" lon="9.746740097053133"><ele>668.2</ele><time>2026-04-25T11:00:57Z</time></trkpt><trkpt lat="45.76678982755129" lon="9.746884433971882"><ele>669.5999999999999</ele><time>2026-04-25T11:00:58Z</time></trkpt><trkpt lat="45.76675667299601" lon="9.74703026790675"><ele>671.0</ele><time>2026-04-25T11:00:59Z</time></trkpt><trkpt lat="45.766721386892165" lon="9.74715986730634"><ele>664.1666666666666</ele><time>2026-04-25T11:01:00Z</time></trkpt><trkpt lat="45.76668927960957" lon="9.747278615162084"><ele>657.3333333333333</ele><time>2026-04-25T11:01:01Z</time></trkpt><trkpt lat="45.76665956707236" lon="9.747401155520285"><ele>650.5</ele><time>2026-04-25T11:01:02Z</time></trkpt><trkpt lat="45.766638229946516" lon="9.747505964413394"><ele>643.6666666666666</ele><time>2026-04-25T11:01:03Z</time></trkpt><trkpt lat="45.76661355645079" lon="9.747613983551144"><ele>636.8333333333334</ele><time>2026-04-25T11:01:04Z</time></trkpt><trkpt lat="45.76659724897035" lon="9.747728222334974"><ele>630.0</ele><time>2026-04-25T11:01:05Z</time></trkpt><trkpt lat="45.766594778869354" lon="9.747846935831475"><ele>630.0</ele><time>2026-04-25T11:01:06Z</time></trkpt><trkpt lat="45.766605814819734" lon="9.747969870184974"><ele>630.0</ele><time>2026-04-25T11:01:07Z</time></trkpt><trkpt lat="45.766623268791385" lon="9.748094149656596"><ele>630.0</ele><time>2026-04-25T11:01:08Z</time></trkpt><trkpt lat="45.766611178506494" lon="9.74822416597309"><ele>630.0</ele><time>2026-04-25T11:01:09Z</time></trkpt><trkpt lat="45.76658330656177" lon="9.748351658738688"><ele>630.0</ele><time>2026-04-25T11:01:10Z</time></trkpt><trkpt lat="45.76656366573962" lon="9.74846760252056"><ele>630.0</ele><time>2026-04-25T11:01:11Z</time></trkpt><trkpt lat="45.76656006648056" lon="9.7486118194056"><ele>626.4</ele><time>2026-04-25T11:01:12Z</time></trkpt><trkpt lat="45.76656249189241" lon="9.748747937867297"><ele>622.8</ele><time>2026-04-25T11:01:13Z</time></trkpt><trkpt lat="45.76650434055571" lon="9.74889296208596"><ele>619.2</ele><time>2026-04-25T11:01:15Z</time></trkpt><trkpt lat="45.766413513899124" lon="9.74878552187889"><ele>615.6</ele><time>2026-04-25T11:01:17Z</time></trkpt><trkpt lat="45.76642384909952" lon="9.748666673320642"><ele>612.0</ele><time>2026-04-25T11:01:18Z</time></trkpt><trkpt lat="45.76645083507922" lon="9.748560784799421"><ele>615.0</ele><time>2026-04-25T11:01:19Z</time></trkpt><trkpt lat="45.76647689891832" lon="9.748464984274362"><ele>618.0</ele><time>2026-04-25T11:01:20Z</time></trkpt><trkpt lat="45.76650103434845" lon="9.748365530422486"><ele>621.0</ele><time>2026-04-25T11:01:21Z</time></trkpt><trkpt lat="45.76652351174365" lon="9.748260773657941"><ele>624.0</ele><time>2026-04-25T11:01:22Z</time></trkpt><trkpt lat="45.766542328840295" lon="9.748148584227346"><ele>627.0</ele><time>2026-04-25T11:01:23Z</time></trkpt><trkpt lat="45.76654830887" lon="9.748031181615673"><ele>630.0</ele><time>2026-04-25T11:01:24Z</time></trkpt><trkpt lat="45.76654436614294" lon="9.747911214686317"><ele>630.0</ele><time>2026-04-25T11:01:25Z</time></trkpt><trkpt lat="45.76652883079026" lon="9.747792020786894"><ele>630.0</ele><time>2026-04-25T11:01:26Z</time></trkpt><trkpt lat="45.766508191017806" lon="9.747665283938522"><ele>630.0</ele><time>2026-04-25T11:01:27Z</time></trkpt><trkpt lat="45.76650460927433" lon="9.74752750573496"><ele>630.0</ele><time>2026-04-25T11:01:28Z</time></trkpt><trkpt lat="45.76650935353107" lon="9.747392613036629"><ele>630.0</ele><time>2026-04-25T11:01:29Z</time></trkpt><trkpt lat="45.76650864237924" lon="9.747251225846586"><ele>629.0</ele><time>2026-04-25T11:01:30Z</time></trkpt><trkpt lat="45.766514331156486" lon="9.747113846263167"><ele>628.0</ele><time>2026-04-25T11:01:31Z</time></trkpt><trkpt lat="45.7665284965747" lon="9.746975115738834"><ele>627.0</ele><time>2026-04-25T11:01:32Z</time></trkpt><trkpt lat="45.76655604973633" lon="9.746836302204331"><ele>626.0</ele><time>2026-04-25T11:01:33Z</time></trkpt><trkpt lat="45.76660367187586" lon="9.746698600456842"><ele>625.0</ele><time>2026-04-25T11:01:34Z</time></trkpt><trkpt lat="45.76663595980941" lon="9.746554324687109"><ele>624.2</ele><time>2026-04-25T11:01:35Z</time></trkpt><trkpt lat="45.76663281871729" lon="9.7464002871575"><ele>623.4</ele><time>2026-04-25T11:01:36Z</time></trkpt><trkpt lat="45.76660060267795" lon="9.746246162464283"><ele>622.6</ele><time>2026-04-25T11:01:37Z</time></trkpt><trkpt lat="45.76655845094725" lon="9.746114587404271"><ele>621.8</ele><time>2026-04-25T11:01:38Z</time></trkpt><trkpt lat="45.766530796561085" lon="9.74596760832048"><ele>621.0</ele><time>2026-04-25T11:01:39Z</time></trkpt><trkpt lat="45.76650696083513" lon="9.745821578526545"><ele>620.6</ele><time>2026-04-25T11:01:40Z</time></trkpt><trkpt lat="45.76648070810783" lon="9.745676990154182"><ele>620.2</ele><time>2026-04-25T11:01:41Z</time></trkpt><trkpt lat="45.766474210961086" lon="9.745526811901987"><ele>619.8</ele><time>2026-04-25T11:01:42Z</time></trkpt><trkpt lat="45.766493392510085" lon="9.74537497041189"><ele>619.4</ele><time>2026-04-25T11:01:43Z</time></trkpt><trkpt lat="45.76650538303015" lon="9.745215430443512"><ele>619.0</ele><time>2026-04-25T11:01:44Z</time></trkpt><trkpt lat="45.7664809289335" lon="9.745059749516118"><ele>618.8</ele><time>2026-04-25T11:01:45Z</time></trkpt><trkpt lat="45.76643272035017" lon="9.744904582100254"><ele>618.5999999999999</ele><time>2026-04-25T11:01:46Z</time></trkpt><trkpt lat="45.7663902891322" lon="9.74476094958387"><ele>618.4</ele><time>2026-04-25T11:01:47Z</time></trkpt><trkpt lat="45.766386537983585" lon="9.744620850895908"><ele>618.1999999999999</ele><time>2026-04-25T11:01:48Z</time></trkpt><trkpt lat="45.766419342360315" lon="9.744501827171822"><ele>618.0</ele><time>2026-04-25T11:01:49Z</time></trkpt><trkpt lat="45.76641545451295" lon="9.744403483017507"><ele>618.0</ele><time>2026-04-25T11:01:50Z</time></trkpt><trkpt lat="45.76635853352973" lon="9.74435788586905"><ele>618.0</ele><time>2026-04-25T11:01:51Z</time></trkpt><trkpt lat="45.766278753912644" lon="9.744399985405288"><ele>618.0</ele><time>2026-04-25T11:01:52Z</time></trkpt><trkpt lat="45.76623559399708" lon="9.744503570148709"><ele>618.0</ele><time>2026-04-25T11:01:53Z</time></trkpt><trkpt lat="45.76623732655052" lon="9.74463377578301"><ele>618.0</ele><time>2026-04-25T11:01:54Z</time></trkpt><trkpt lat="45.76625203029316" lon="9.744747624628603"><ele>618.0</ele><time>2026-04-25T11:01:55Z</time></trkpt><trkpt lat="45.76627621151209" lon="9.744855437959467"><ele>618.0</ele><time>2026-04-25T11:01:56Z</time></trkpt><trkpt lat="45.76631816044279" lon="9.744961793555868"><ele>618.0</ele><time>2026-04-25T11:01:57Z</time></trkpt><trkpt lat="45.76635932747727" lon="9.745072471088372"><ele>618.0</ele><time>2026-04-25T11:01:58Z</time></trkpt><trkpt lat="45.76638015704996" lon="9.745192630303814"><ele>618.0</ele><time>2026-04-25T11:01:59Z</time></trkpt><trkpt lat="45.766372024924614" lon="9.745319799321129"><ele>618.0</ele><time>2026-04-25T11:02:00Z</time></trkpt><trkpt lat="45.76633935781353" lon="9.74544852613376"><ele>618.0</ele><time>2026-04-25T11:02:01Z</time></trkpt><trkpt lat="45.76629821409404" lon="9.745576898063153"><ele>618.1999999999999</ele><time>2026-04-25T11:02:02Z</time></trkpt><trkpt lat="45.766281335473295" lon="9.745705797480579"><ele>618.4</ele><time>2026-04-25T11:02:03Z</time></trkpt><trkpt lat="45.76627799561052" lon="9.745842758071486"><ele>618.5999999999999</ele><time>2026-04-25T11:02:04Z</time></trkpt><trkpt lat="45.76628842345325" lon="9.745957691061491"><ele>618.8</ele><time>2026-04-25T11:02:05Z</time></trkpt><trkpt lat="45.766285024490244" lon="9.746112981807814"><ele>619.0</ele><time>2026-04-25T11:02:06Z</time></trkpt><trkpt lat="45.76628606574051" lon="9.746260410244274"><ele>619.4</ele><time>2026-04-25T11:02:07Z</time></trkpt><trkpt lat="45.766283842440096" lon="9.746411694208847"><ele>619.8</ele><time>2026-04-25T11:02:08Z</time></trkpt><trkpt lat="45.76625966882728" lon="9.746562275607456"><ele>620.2</ele><time>2026-04-25T11:02:09Z</time></trkpt><trkpt lat="45.76619887808247" lon="9.746703846791771"><ele>620.6</ele><time>2026-04-25T11:02:10Z</time></trkpt><trkpt lat="45.76613363870047" lon="9.746826246539612"><ele>621.0</ele><time>2026-04-25T11:02:11Z</time></trkpt><trkpt lat="45.76608690315712" lon="9.746977096284311"><ele>622.0</ele><time>2026-04-25T11:02:12Z</time></trkpt><trkpt lat="45.76605775803237" lon="9.747135930819493"><ele>623.0</ele><time>2026-04-25T11:02:13Z</time></trkpt><trkpt lat="45.76603766857032" lon="9.747294072704562"><ele>624.0</ele><time>2026-04-25T11:02:14Z</time></trkpt><trkpt lat="45.7660271609109" lon="9.747454723628687"><ele>625.0</ele><time>2026-04-25T11:02:15Z</time></trkpt><trkpt lat="45.76603014993455" lon="9.74761965538782"><ele>626.25</ele><time>2026-04-25T11:02:16Z</time></trkpt><trkpt lat="45.76604823217558" lon="9.747782060036368"><ele>627.5</ele><time>2026-04-25T11:02:17Z</time></trkpt><trkpt lat="45.76606743434423" lon="9.747944006277091"><ele>628.75</ele><time>2026-04-25T11:02:18Z</time></trkpt><trkpt lat="45.766064265798796" lon="9.748111152856302"><ele>630.0</ele><time>2026-04-25T11:02:19Z</time></trkpt><trkpt lat="45.76601959748245" lon="9.7482557635467"><ele>615.75</ele><time>2026-04-25T11:02:20Z</time></trkpt><trkpt lat="45.765981253127805" lon="9.748416766403492"><ele>601.5</ele><time>2026-04-25T11:02:21Z</time></trkpt><trkpt lat="45.765966859212696" lon="9.748579016661802"><ele>587.25</ele><time>2026-04-25T11:02:22Z</time></trkpt><trkpt lat="45.76595968664417" lon="9.748744304141752"><ele>573.0</ele><time>2026-04-25T11:02:23Z</time></trkpt><trkpt lat="45.7659553009113" lon="9.748900699388816"><ele>573.0</ele><time>2026-04-25T11:02:24Z</time></trkpt><trkpt lat="45.76596535584489" lon="9.74905622612407"><ele>573.0</ele><time>2026-04-25T11:02:25Z</time></trkpt><trkpt lat="45.76599911958505" lon="9.749186805652906"><ele>573.0</ele><time>2026-04-25T11:02:26Z</time></trkpt><trkpt lat="45.76606065698017" lon="9.749286398943582"><ele>573.0</ele><time>2026-04-25T11:02:27Z</time></trkpt><trkpt lat="45.7660823519998" lon="9.74941425837765"><ele>573.0</ele><time>2026-04-25T11:02:29Z</time></trkpt><trkpt lat="45.76601975814305" lon="9.749437648379235"><ele>572.0</ele><time>2026-04-25T11:02:30Z</time></trkpt><trkpt lat="45.765955199135334" lon="9.749364298205512"><ele>571.0</ele><time>2026-04-25T11:02:31Z</time></trkpt><trkpt lat="45.76591766378641" lon="9.749255707400813"><ele>570.0</ele><time>2026-04-25T11:02:32Z</time></trkpt><trkpt lat="45.76590874432177" lon="9.749134681276992"><ele>569.0</ele><time>2026-04-25T11:02:33Z</time></trkpt><trkpt lat="45.765900190224215" lon="9.74901867876166"><ele>568.0</ele><time>2026-04-25T11:02:34Z</time></trkpt><trkpt lat="45.765890705388436" lon="9.748901396127401"><ele>567.0</ele><time>2026-04-25T11:02:35Z</time></trkpt><trkpt lat="45.76588513242529" lon="9.74877644873129"><ele>567.0</ele><time>2026-04-25T11:02:36Z</time></trkpt><trkpt lat="45.76588536312355" lon="9.748651557117793"><ele>567.0</ele><time>2026-04-25T11:02:37Z</time></trkpt><trkpt lat="45.7658820084943" lon="9.748514132546301"><ele>567.0</ele><time>2026-04-25T11:02:38Z</time></trkpt><trkpt lat="45.76586614866481" lon="9.748374843156514"><ele>567.0</ele><time>2026-04-25T11:02:39Z</time></trkpt><trkpt lat="45.76585950742933" lon="9.748234073517754"><ele>567.0</ele><time>2026-04-25T11:02:40Z</time></trkpt><trkpt lat="45.765871303657946" lon="9.748091797127284"><ele>568.0</ele><time>2026-04-25T11:02:41Z</time></trkpt><trkpt lat="45.76589699502264" lon="9.747953609302883"><ele>569.0</ele><time>2026-04-25T11:02:42Z</time></trkpt><trkpt lat="45.7658984612109" lon="9.747811645005223"><ele>570.0</ele><time>2026-04-25T11:02:43Z</time></trkpt><trkpt lat="45.76587512178554" lon="9.747665094029548"><ele>571.0</ele><time>2026-04-25T11:02:44Z</time></trkpt><trkpt lat="45.7658123121108" lon="9.747546784308332"><ele>572.0</ele><time>2026-04-25T11:02:45Z</time></trkpt><trkpt lat="45.76577537544347" lon="9.747411101602633"><ele>572.0</ele><time>2026-04-25T11:02:46Z</time></trkpt><trkpt lat="45.765749131471104" lon="9.747261816696026"><ele>572.0</ele><time>2026-04-25T11:02:47Z</time></trkpt><trkpt lat="45.76574008744301" lon="9.747100074654785"><ele>572.0</ele><time>2026-04-25T11:02:48Z</time></trkpt><trkpt lat="45.76574932745873" lon="9.74693681053913"><ele>572.0</ele><time>2026-04-25T11:02:49Z</time></trkpt><trkpt lat="45.765776970874526" lon="9.746773525047445"><ele>572.0</ele><time>2026-04-25T11:02:50Z</time></trkpt><trkpt lat="45.76579184248756" lon="9.746611403613421"><ele>572.0</ele><time>2026-04-25T11:02:51Z</time></trkpt><trkpt lat="45.765787708998474" lon="9.746454557707096"><ele>572.0</ele><time>2026-04-25T11:02:52Z</time></trkpt><trkpt lat="45.76577019264313" lon="9.746293340516626"><ele>572.0</ele><time>2026-04-25T11:02:53Z</time></trkpt><trkpt lat="45.76575079205741" lon="9.746135691988593"><ele>572.0</ele><time>2026-04-25T11:02:54Z</time></trkpt><trkpt lat="45.76572452684897" lon="9.745976334733841"><ele>572.0</ele><time>2026-04-25T11:02:55Z</time></trkpt><trkpt lat="45.76569466292087" lon="9.745818659143987"><ele>572.0</ele><time>2026-04-25T11:02:56Z</time></trkpt><trkpt lat="45.76566552682779" lon="9.745660175984836"><ele>572.0</ele><time>2026-04-25T11:02:57Z</time></trkpt><trkpt lat="45.76564389217915" lon="9.74549252404983"><ele>572.0</ele><time>2026-04-25T11:02:58Z</time></trkpt><trkpt lat="45.76562005290486" lon="9.745329281363825"><ele>573.2</ele><time>2026-04-25T11:02:59Z</time></trkpt><trkpt lat="45.76558387691164" lon="9.745171606374672"><ele>574.4000000000001</ele><time>2026-04-25T11:03:00Z</time></trkpt><trkpt lat="45.76552488471206" lon="9.745030465335384"><ele>575.5999999999999</ele><time>2026-04-25T11:03:01Z</time></trkpt><trkpt lat="45.76542946415212" lon="9.74494314892071"><ele>576.8</ele><time>2026-04-25T11:03:02Z</time></trkpt><trkpt lat="45.765330351137926" lon="9.744896754319745"><ele>578.0</ele><time>2026-04-25T11:03:03Z</time></trkpt><trkpt lat="45.76522503767912" lon="9.744886847429441"><ele>574.0</ele><time>2026-04-25T11:03:04Z</time></trkpt><trkpt lat="45.76511887460198" lon="9.744918803369531"><ele>570.0</ele><time>2026-04-25T11:03:05Z</time></trkpt><trkpt lat="45.76502214959658" lon="9.74496353856289"><ele>566.0</ele><time>2026-04-25T11:03:06Z</time></trkpt><trkpt lat="45.764924172470025" lon="9.745020376922776"><ele>562.0</ele><time>2026-04-25T11:03:07Z</time></trkpt><trkpt lat="45.7648367488063" lon="9.745117932052224"><ele>558.0</ele><time>2026-04-25T11:03:08Z</time></trkpt><trkpt lat="45.76477254800762" lon="9.745248017253617"><ele>555.0</ele><time>2026-04-25T11:03:09Z</time></trkpt><trkpt lat="45.7647251410442" lon="9.745403470731372"><ele>552.0</ele><time>2026-04-25T11:03:10Z</time></trkpt><trkpt lat="45.7646814199186" lon="9.745557721953979"><ele>549.0</ele><time>2026-04-25T11:03:11Z</time></trkpt><trkpt lat="45.76464686805492" lon="9.745706120943913"><ele>546.0</ele><time>2026-04-25T11:03:12Z</time></trkpt><trkpt lat="45.76460717155211" lon="9.745853755319308"><ele>546.0</ele><time>2026-04-25T11:03:13Z</time></trkpt><trkpt lat="45.76454603268809" lon="9.745992190549067"><ele>546.0</ele><time>2026-04-25T11:03:14Z</time></trkpt><trkpt lat="45.764451550582315" lon="9.746104861218424"><ele>546.0</ele><time>2026-04-25T11:03:15Z</time></trkpt><trkpt lat="45.76434922908116" lon="9.746188587468769"><ele>546.0</ele><time>2026-04-25T11:03:16Z</time></trkpt><trkpt lat="45.76423738046738" lon="9.746253766532282"><ele>544.25</ele><time>2026-04-25T11:03:17Z</time></trkpt><trkpt lat="45.76412892785194" lon="9.746316499413023"><ele>542.5</ele><time>2026-04-25T11:03:18Z</time></trkpt><trkpt lat="45.76402454013101" lon="9.746369134172445"><ele>540.75</ele><time>2026-04-25T11:03:19Z</time></trkpt><trkpt lat="45.7639107925626" lon="9.746405458753314"><ele>539.0</ele><time>2026-04-25T11:03:20Z</time></trkpt><trkpt lat="45.76378633407476" lon="9.74640033698956"><ele>539.0</ele><time>2026-04-25T11:03:21Z</time></trkpt><trkpt lat="45.76366453816315" lon="9.746367518224838"><ele>539.0</ele><time>2026-04-25T11:03:22Z</time></trkpt><trkpt lat="45.76354151544383" lon="9.746352614571395"><ele>539.0</ele><time>2026-04-25T11:03:23Z</time></trkpt><trkpt lat="45.76342263053326" lon="9.746348284238334"><ele>539.0</ele><time>2026-04-25T11:03:24Z</time></trkpt><trkpt lat="45.76330299395011" lon="9.746373550900241"><ele>538.2</ele><time>2026-04-25T11:03:25Z</time></trkpt><trkpt lat="45.76319260970611" lon="9.746405324405039"><ele>537.4</ele><time>2026-04-25T11:03:26Z</time></trkpt><trkpt lat="45.76310538084828" lon="9.746451397789205"><ele>536.6</ele><time>2026-04-25T11:03:27Z</time></trkpt><trkpt lat="45.763037054504" lon="9.746539318625784"><ele>535.8</ele><time>2026-04-25T11:03:28Z</time></trkpt><trkpt lat="45.7629959966978" lon="9.74667519872146"><ele>535.0</ele><time>2026-04-25T11:03:29Z</time></trkpt><trkpt lat="45.762973805535054" lon="9.746826824294397"><ele>534.0</ele><time>2026-04-25T11:03:30Z</time></trkpt><trkpt lat="45.76293693527036" lon="9.746959396741813"><ele>533.0</ele><time>2026-04-25T11:03:31Z</time></trkpt><trkpt lat="45.76286678335754" lon="9.747076318306299"><ele>532.0</ele><time>2026-04-25T11:03:32Z</time></trkpt><trkpt lat="45.762775884667036" lon="9.747161394894036"><ele>531.0</ele><time>2026-04-25T11:03:33Z</time></trkpt><trkpt lat="45.762678408273736" lon="9.747232110968286"><ele>530.0</ele><time>2026-04-25T11:03:34Z</time></trkpt><trkpt lat="45.76259450038748" lon="9.747319449487659"><ele>530.0</ele><time>2026-04-25T11:03:35Z</time></trkpt><trkpt lat="45.7625170452083" lon="9.747423923933146"><ele>530.0</ele><time>2026-04-25T11:03:36Z</time></trkpt><trkpt lat="45.7624382545945" lon="9.747534850919559"><ele>530.0</ele><time>2026-04-25T11:03:37Z</time></trkpt><trkpt lat="45.76236480302514" lon="9.747647423862695"><ele>530.0</ele><time>2026-04-25T11:03:38Z</time></trkpt><trkpt lat="45.76229142903954" lon="9.747764195475503"><ele>530.0</ele><time>2026-04-25T11:03:39Z</time></trkpt><trkpt lat="45.76221200688468" lon="9.747876084363028"><ele>526.25</ele><time>2026-04-25T11:03:40Z</time></trkpt><trkpt lat="45.76213674599142" lon="9.747996081755876"><ele>522.5</ele><time>2026-04-25T11:03:41Z</time></trkpt><trkpt lat="45.76205434066554" lon="9.748113742896404"><ele>518.75</ele><time>2026-04-25T11:03:42Z</time></trkpt><trkpt lat="45.761971266580986" lon="9.74822298892129"><ele>515.0</ele><time>2026-04-25T11:03:43Z</time></trkpt><trkpt lat="45.76188670475236" lon="9.748331260745665"><ele>515.0</ele><time>2026-04-25T11:03:44Z</time></trkpt><trkpt lat="45.761801837829736" lon="9.748439346465332"><ele>515.0</ele><time>2026-04-25T11:03:45Z</time></trkpt><trkpt lat="45.76171361648829" lon="9.748544478963817"><ele>515.0</ele><time>2026-04-25T11:03:46Z</time></trkpt><trkpt lat="45.76162924158454" lon="9.748647245239068"><ele>515.0</ele><time>2026-04-25T11:03:47Z</time></trkpt><trkpt lat="45.761542355019685" lon="9.74874887587734"><ele>515.0</ele><time>2026-04-25T11:03:48Z</time></trkpt><trkpt lat="45.76145860188827" lon="9.748851293552743"><ele>515.0</ele><time>2026-04-25T11:03:49Z</time></trkpt><trkpt lat="45.76138127051133" lon="9.748972052306293"><ele>515.0</ele><time>2026-04-25T11:03:50Z</time></trkpt><trkpt lat="45.761323069580904" lon="9.749109122933085"><ele>515.0</ele><time>2026-04-25T11:03:51Z</time></trkpt><trkpt lat="45.76126664881137" lon="9.749253730687695"><ele>516.25</ele><time>2026-04-25T11:03:52Z</time></trkpt><trkpt lat="45.76120625491458" lon="9.749397862462198"><ele>517.5</ele><time>2026-04-25T11:03:53Z</time></trkpt><trkpt lat="45.76114525731519" lon="9.749544132415119"><ele>518.75</ele><time>2026-04-25T11:03:54Z</time></trkpt><trkpt lat="45.76109165514657" lon="9.749686195072755"><ele>520.0</ele><time>2026-04-25T11:03:55Z</time></trkpt><trkpt lat="45.76102998993266" lon="9.7498310146359"><ele>520.0</ele><time>2026-04-25T11:03:56Z</time></trkpt><trkpt lat="45.76095744787429" lon="9.7499787062408"><ele>520.0</ele><time>2026-04-25T11:03:57Z</time></trkpt><trkpt lat="45.76087972794933" lon="9.750120557378699"><ele>520.0</ele><time>2026-04-25T11:03:58Z</time></trkpt><trkpt lat="45.760806540875635" lon="9.750270743345013"><ele>520.0</ele><time>2026-04-25T11:03:59Z</time></trkpt><trkpt lat="45.76071825407842" lon="9.750411558517143"><ele>514.0</ele><time>2026-04-25T11:04:00Z</time></trkpt><trkpt lat="45.76064216300421" lon="9.750551932656787"><ele>508.0</ele><time>2026-04-25T11:04:01Z</time></trkpt><trkpt lat="45.76056532460021" lon="9.750701366755706"><ele>502.0</ele><time>2026-04-25T11:04:02Z</time></trkpt><trkpt lat="45.76049476045906" lon="9.750853578887131"><ele>496.0</ele><time>2026-04-25T11:04:03Z</time></trkpt><trkpt lat="45.76042563314332" lon="9.750994390650689"><ele>496.50000000000006</ele><time>2026-04-25T11:04:04Z</time></trkpt><trkpt lat="45.76036399745826" lon="9.751117042269152"><ele>497.0</ele><time>2026-04-25T11:04:05Z</time></trkpt><trkpt lat="45.760311254152846" lon="9.751222925939071"><ele>497.5</ele><time>2026-04-25T11:04:06Z</time></trkpt><trkpt lat="45.760252075382006" lon="9.75130622181656"><ele>498.0</ele><time>2026-04-25T11:04:07Z</time></trkpt><trkpt lat="45.76017996552347" lon="9.7513518510636"><ele>498.50000000000006</ele><time>2026-04-25T11:04:08Z</time></trkpt><trkpt lat="45.76009867267056" lon="9.751360715316654"><ele>499.0</ele><time>2026-04-25T11:04:09Z</time></trkpt><trkpt lat="45.7600131611367" lon="9.751386045254693"><ele>499.00000000000006</ele><time>2026-04-25T11:04:10Z</time></trkpt><trkpt lat="45.759940925080414" lon="9.75142145045391"><ele>499.0</ele><time>2026-04-25T11:04:11Z</time></trkpt><trkpt lat="45.75986964146875" lon="9.751487953123158"><ele>499.0</ele><time>2026-04-25T11:04:12Z</time></trkpt><trkpt lat="45.759797384961374" lon="9.751577697131554"><ele>499.0</ele><time>2026-04-25T11:04:13Z</time></trkpt><trkpt lat="45.75972247291818" lon="9.7516525301387"><ele>499.00000000000006</ele><time>2026-04-25T11:04:14Z</time></trkpt><trkpt lat="45.759638871909864" lon="9.751724030822935"><ele>499.0</ele><time>2026-04-25T11:04:15Z</time></trkpt><trkpt lat="45.75955681105478" lon="9.751781498558165"><ele>499.00000000000006</ele><time>2026-04-25T11:04:16Z</time></trkpt><trkpt lat="45.759482917883055" lon="9.751815099453472"><ele>499.0</ele><time>2026-04-25T11:04:17Z</time></trkpt><trkpt lat="45.75943049705739" lon="9.751896094145788"><ele>499.0</ele><time>2026-04-25T11:04:18Z</time></trkpt><trkpt lat="45.75948499002358" lon="9.752042502555728"><ele>499.0</ele><time>2026-04-25T11:04:20Z</time></trkpt><trkpt lat="45.7595497809993" lon="9.752034879892836"><ele>499.00000000000006</ele><time>2026-04-25T11:04:21Z</time></trkpt><trkpt lat="45.75960698007835" lon="9.751960288956267"><ele>499.0</ele><time>2026-04-25T11:04:22Z</time></trkpt><trkpt lat="45.75966362791286" lon="9.751897664633796"><ele>499.00000000000006</ele><time>2026-04-25T11:04:23Z</time></trkpt><trkpt lat="45.75971734137565" lon="9.751838990431802"><ele>499.0</ele><time>2026-04-25T11:04:24Z</time></trkpt><trkpt lat="45.75977522260743" lon="9.751779865956737"><ele>499.0</ele><time>2026-04-25T11:04:25Z</time></trkpt><trkpt lat="45.75984596933769" lon="9.751717573461528"><ele>499.0</ele><time>2026-04-25T11:04:26Z</time></trkpt><trkpt lat="45.75990851193802" lon="9.751642931954951"><ele>499.00000000000006</ele><time>2026-04-25T11:04:27Z</time></trkpt><trkpt lat="45.75995991758331" lon="9.751568692249306"><ele>499.0</ele><time>2026-04-25T11:04:28Z</time></trkpt><trkpt lat="45.76006280793419" lon="9.751590612187282"><ele>499.00000000000006</ele><time>2026-04-25T11:04:30Z</time></trkpt><trkpt lat="45.76006291305944" lon="9.751682996549576"><ele>499.0</ele><time>2026-04-25T11:04:31Z</time></trkpt><trkpt lat="45.760006511234515" lon="9.751750680749183"><ele>499.0</ele><time>2026-04-25T11:04:32Z</time></trkpt><trkpt lat="45.75992376824295" lon="9.751768746272864"><ele>499.0</ele><time>2026-04-25T11:04:33Z</time></trkpt><trkpt lat="45.75980386344347" lon="9.751868453373808"><ele>499.00000000000006</ele><time>2026-04-25T11:04:35Z</time></trkpt><trkpt lat="45.75973481681702" lon="9.751929042839135"><ele>499.0</ele><time>2026-04-25T11:04:36Z</time></trkpt><trkpt lat="45.759665322060634" lon="9.751989128993886"><ele>496.50000000000006</ele><time>2026-04-25T11:04:37Z</time></trkpt><trkpt lat="45.759591566668796" lon="9.752052703371852"><ele>494.0</ele><time>2026-04-25T11:04:38Z</time></trkpt><trkpt lat="45.75951722613365" lon="9.752113074854828"><ele>491.5</ele><time>2026-04-25T11:04:39Z</time></trkpt><trkpt lat="45.75943841612241" lon="9.752167839778322"><ele>489.0</ele><time>2026-04-25T11:04:40Z</time></trkpt><trkpt lat="45.75935687366349" lon="9.752222030904015"><ele>486.50000000000006</ele><time>2026-04-25T11:04:41Z</time></trkpt><trkpt lat="45.759273834305205" lon="9.752278993490348"><ele>484.0</ele><time>2026-04-25T11:04:42Z</time></trkpt><trkpt lat="45.75918769561369" lon="9.75233259138617"><ele>484.0</ele><time>2026-04-25T11:04:43Z</time></trkpt><trkpt lat="45.75910386765763" lon="9.752367435722885"><ele>484.0</ele><time>2026-04-25T11:04:44Z</time></trkpt><trkpt lat="45.75901080735281" lon="9.752379772064703"><ele>484.0</ele><time>2026-04-25T11:04:45Z</time></trkpt><trkpt lat="45.75891886348241" lon="9.752347645426598"><ele>484.0</ele><time>2026-04-25T11:04:46Z</time></trkpt><trkpt lat="45.75882684717814" lon="9.752306552209404"><ele>484.0</ele><time>2026-04-25T11:04:47Z</time></trkpt><trkpt lat="45.75872044926627" lon="9.752303386758841"><ele>484.0</ele><time>2026-04-25T11:04:48Z</time></trkpt><trkpt lat="45.7586273067701" lon="9.7523408747553"><ele>484.0</ele><time>2026-04-25T11:04:49Z</time></trkpt><trkpt lat="45.75854495818904" lon="9.752427533560041"><ele>484.0</ele><time>2026-04-25T11:04:50Z</time></trkpt><trkpt lat="45.75848894340433" lon="9.75254752643513"><ele>484.0</ele><time>2026-04-25T11:04:51Z</time></trkpt><trkpt lat="45.758442190245084" lon="9.75267754628827"><ele>484.0</ele><time>2026-04-25T11:04:52Z</time></trkpt><trkpt lat="45.75837868783727" lon="9.752802120670044"><ele>483.50000000000006</ele><time>2026-04-25T11:04:53Z</time></trkpt><trkpt lat="45.75830998086946" lon="9.752898654486517"><ele>483.0</ele><time>2026-04-25T11:04:54Z</time></trkpt><trkpt lat="45.7582696094962" lon="9.753059033685608"><ele>482.5</ele><time>2026-04-25T11:04:56Z</time></trkpt><trkpt lat="45.75832730493224" lon="9.75312974603958"><ele>482.0</ele><time>2026-04-25T11:04:57Z</time></trkpt><trkpt lat="45.758394281248606" lon="9.753089869506935"><ele>481.50000000000006</ele><time>2026-04-25T11:04:58Z</time></trkpt><trkpt lat="45.75843490518964" lon="9.752989442104182"><ele>481.0</ele><time>2026-04-25T11:04:59Z</time></trkpt><trkpt lat="45.75847664384471" lon="9.752893259614888"><ele>481.00000000000006</ele><time>2026-04-25T11:05:00Z</time></trkpt><trkpt lat="45.75851671915837" lon="9.752811365219614"><ele>481.0</ele><time>2026-04-25T11:05:01Z</time></trkpt><trkpt lat="45.75855958448863" lon="9.75274207345223"><ele>481.0</ele><time>2026-04-25T11:05:02Z</time></trkpt><trkpt lat="45.75859946433713" lon="9.752656661479383"><ele>481.0</ele><time>2026-04-25T11:05:03Z</time></trkpt><trkpt lat="45.75866657102537" lon="9.752552908820615"><ele>481.00000000000006</ele><time>2026-04-25T11:05:05Z</time></trkpt><trkpt lat="45.7587101223216" lon="9.752687925560146"><ele>481.0</ele><time>2026-04-25T11:05:07Z</time></trkpt><trkpt lat="45.75866457309607" lon="9.752781312930036"><ele>481.00000000000006</ele><time>2026-04-25T11:05:08Z</time></trkpt><trkpt lat="45.75859411391937" lon="9.752851406469519"><ele>481.0</ele><time>2026-04-25T11:05:09Z</time></trkpt><trkpt lat="45.75854700170665" lon="9.752930083368907"><ele>481.0</ele><time>2026-04-25T11:05:10Z</time></trkpt><trkpt lat="45.75850209162448" lon="9.753011508320089"><ele>481.0</ele><time>2026-04-25T11:05:11Z</time></trkpt><trkpt lat="45.758456926914135" lon="9.753090806954628"><ele>481.00000000000006</ele><time>2026-04-25T11:05:12Z</time></trkpt><trkpt lat="45.75840537902929" lon="9.753165954069212"><ele>481.0</ele><time>2026-04-25T11:05:13Z</time></trkpt><trkpt lat="45.75834919174299" lon="9.753241738946436"><ele>481.00000000000006</ele><time>2026-04-25T11:05:14Z</time></trkpt><trkpt lat="45.758295897622205" lon="9.753321349968653"><ele>481.0</ele><time>2026-04-25T11:05:15Z</time></trkpt><trkpt lat="45.75824414122772" lon="9.75340844808525"><ele>481.0</ele><time>2026-04-25T11:05:16Z</time></trkpt><trkpt lat="45.75819454489584" lon="9.753498015508713"><ele>481.0</ele><time>2026-04-25T11:05:17Z</time></trkpt><trkpt lat="45.75814142628265" lon="9.753583871074728"><ele>481.00000000000006</ele><time>2026-04-25T11:05:18Z</time></trkpt><trkpt lat="45.75808827166508" lon="9.753677513436216"><ele>481.0</ele><time>2026-04-25T11:05:19Z</time></trkpt><trkpt lat="45.75803988469033" lon="9.753776081467487"><ele>476.4</ele><time>2026-04-25T11:05:20Z</time></trkpt><trkpt lat="45.757983911589974" lon="9.753870212140866"><ele>471.8</ele><time>2026-04-25T11:05:21Z</time></trkpt><trkpt lat="45.75793125269394" lon="9.7539737956746"><ele>467.19999999999993</ele><time>2026-04-25T11:05:22Z</time></trkpt><trkpt lat="45.757884713189945" lon="9.754090213715783"><ele>462.59999999999997</ele><time>2026-04-25T11:05:23Z</time></trkpt><trkpt lat="45.75782712203368" lon="9.754209881750867"><ele>458.0</ele><time>2026-04-25T11:05:24Z</time></trkpt><trkpt lat="45.757771009144584" lon="9.75431772848215"><ele>459.2</ele><time>2026-04-25T11:05:25Z</time></trkpt><trkpt lat="45.75770624410587" lon="9.754410370982837"><ele>460.4</ele><time>2026-04-25T11:05:26Z</time></trkpt><trkpt lat="45.75763600520117" lon="9.754504386859024"><ele>461.59999999999997</ele><time>2026-04-25T11:05:27Z</time></trkpt><trkpt lat="45.757559854650594" lon="9.754586359754835"><ele>462.79999999999995</ele><time>2026-04-25T11:05:28Z</time></trkpt><trkpt lat="45.757473237716255" lon="9.754647280712554"><ele>464.0</ele><time>2026-04-25T11:05:29Z</time></trkpt><trkpt lat="45.75738273903641" lon="9.75468886411978"><ele>463.99999999999994</ele><time>2026-04-25T11:05:30Z</time></trkpt><trkpt lat="45.757310701297584" lon="9.754738316493338"><ele>464.0</ele><time>2026-04-25T11:05:31Z</time></trkpt><trkpt lat="45.75724541745133" lon="9.754873548454828"><ele>464.0</ele><time>2026-04-25T11:05:33Z</time></trkpt><trkpt lat="45.75729632590828" lon="9.754947628839988"><ele>464.0</ele><time>2026-04-25T11:05:34Z</time></trkpt><trkpt lat="45.757381227392116" lon="9.75495505450303"><ele>463.99999999999994</ele><time>2026-04-25T11:05:35Z</time></trkpt><trkpt lat="45.757454702598395" lon="9.754894273095383"><ele>464.0</ele><time>2026-04-25T11:05:36Z</time></trkpt><trkpt lat="45.75750778898295" lon="9.754809350054703"><ele>464.00000000000006</ele><time>2026-04-25T11:05:37Z</time></trkpt><trkpt lat="45.75755883679653" lon="9.754744097470192"><ele>464.0</ele><time>2026-04-25T11:05:38Z</time></trkpt><trkpt lat="45.757619292576756" lon="9.754684383233313"><ele>464.00000000000006</ele><time>2026-04-25T11:05:39Z</time></trkpt><trkpt lat="45.757681246442694" lon="9.754626959060802"><ele>464.00000000000006</ele><time>2026-04-25T11:05:40Z</time></trkpt><trkpt lat="45.75773968478911" lon="9.754553252722644"><ele>464.0</ele><time>2026-04-25T11:05:41Z</time></trkpt><trkpt lat="45.75779568071459" lon="9.754472929622738"><ele>464.00000000000006</ele><time>2026-04-25T11:05:42Z</time></trkpt><trkpt lat="45.75784913410642" lon="9.754412160128554"><ele>464.00000000000006</ele><time>2026-04-25T11:05:43Z</time></trkpt><trkpt lat="45.75794061354589" lon="9.754487250397512"><ele>463.99999999999994</ele><time>2026-04-25T11:05:45Z</time></trkpt><trkpt lat="45.757924629568734" lon="9.754590566267284"><ele>464.0</ele><time>2026-04-25T11:05:46Z</time></trkpt><trkpt lat="45.75785105335383" lon="9.754675456685298"><ele>464.0</ele><time>2026-04-25T11:05:47Z</time></trkpt><trkpt lat="45.757785346220714" lon="9.75472792201376"><ele>464.0</ele><time>2026-04-25T11:05:48Z</time></trkpt><trkpt lat="45.75773348017695" lon="9.75479153683101"><ele>463.99999999999994</ele><time>2026-04-25T11:05:49Z</time></trkpt><trkpt lat="45.757677195046924" lon="9.754867853552652"><ele>464.0</ele><time>2026-04-25T11:05:50Z</time></trkpt><trkpt lat="45.75761169669058" lon="9.754944907219356"><ele>464.0</ele><time>2026-04-25T11:05:51Z</time></trkpt><trkpt lat="45.75754281063387" lon="9.755021024788048"><ele>464.0</ele><time>2026-04-25T11:05:52Z</time></trkpt><trkpt lat="45.75747144988709" lon="9.755101051429296"><ele>464.0</ele><time>2026-04-25T11:05:53Z</time></trkpt><trkpt lat="45.757399625789745" lon="9.755169434556104"><ele>464.0</ele><time>2026-04-25T11:05:54Z</time></trkpt><trkpt lat="45.75732521340641" lon="9.755247034032317"><ele>464.0</ele><time>2026-04-25T11:05:55Z</time></trkpt><trkpt lat="45.75724903480158" lon="9.755325406543248"><ele>459.2</ele><time>2026-04-25T11:05:56Z</time></trkpt><trkpt lat="45.75717368111209" lon="9.755409338116538"><ele>454.4</ele><time>2026-04-25T11:05:57Z</time></trkpt><trkpt lat="45.75709831378585" lon="9.755495851525474"><ele>449.6</ele><time>2026-04-25T11:05:58Z</time></trkpt><trkpt lat="45.757024799678526" lon="9.755586196873033"><ele>444.8</ele><time>2026-04-25T11:05:59Z</time></trkpt><trkpt lat="45.75695290207239" lon="9.755697307540556"><ele>440.0</ele><time>2026-04-25T11:06:00Z</time></trkpt><trkpt lat="45.75688503814213" lon="9.75580180690022"><ele>441.2</ele><time>2026-04-25T11:06:01Z</time></trkpt><trkpt lat="45.7568214471182" lon="9.75591808736832"><ele>442.4</ele><time>2026-04-25T11:06:02Z</time></trkpt><trkpt lat="45.756757278350356" lon="9.756037260906712"><ele>443.6</ele><time>2026-04-25T11:06:03Z</time></trkpt><trkpt lat="45.75668883143188" lon="9.75616325843159"><ele>444.8</ele><time>2026-04-25T11:06:04Z</time></trkpt><trkpt lat="45.75662688016518" lon="9.756279215651888"><ele>446.0</ele><time>2026-04-25T11:06:05Z</time></trkpt><trkpt lat="45.75657786571944" lon="9.756421274522262"><ele>446.0</ele><time>2026-04-25T11:06:06Z</time></trkpt><trkpt lat="45.756527312457834" lon="9.756557552223148"><ele>446.0</ele><time>2026-04-25T11:06:07Z</time></trkpt><trkpt lat="45.756465591168336" lon="9.756685912818082"><ele>446.0</ele><time>2026-04-25T11:06:08Z</time></trkpt><trkpt lat="45.756389890832075" lon="9.756804306899449"><ele>446.0</ele><time>2026-04-25T11:06:09Z</time></trkpt><trkpt lat="45.756297328586754" lon="9.75688894801203"><ele>446.0</ele><time>2026-04-25T11:06:10Z</time></trkpt><trkpt lat="45.75619671507619" lon="9.756976396680475"><ele>444.0</ele><time>2026-04-25T11:06:11Z</time></trkpt><trkpt lat="45.75609957282212" lon="9.757066135247916"><ele>442.0</ele><time>2026-04-25T11:06:12Z</time></trkpt><trkpt lat="45.755994686183" lon="9.757131417655026"><ele>440.0</ele><time>2026-04-25T11:06:13Z</time></trkpt><trkpt lat="45.75588516551079" lon="9.75717046995364"><ele>438.0</ele><time>2026-04-25T11:06:14Z</time></trkpt><trkpt lat="45.75577253286941" lon="9.75720138375863"><ele>438.0</ele><time>2026-04-25T11:06:15Z</time></trkpt><trkpt lat="45.755659252663605" lon="9.757220627818809"><ele>438.0</ele><time>2026-04-25T11:06:16Z</time></trkpt><trkpt lat="45.75554435780822" lon="9.757226593036117"><ele>438.0</ele><time>2026-04-25T11:06:17Z</time></trkpt><trkpt lat="45.75543089826445" lon="9.757238526534872"><ele>438.0</ele><time>2026-04-25T11:06:18Z</time></trkpt><trkpt lat="45.75532241344826" lon="9.757289345256448"><ele>438.0</ele><time>2026-04-25T11:06:19Z</time></trkpt><trkpt lat="45.75522829097416" lon="9.75739005665236"><ele>438.0</ele><time>2026-04-25T11:06:20Z</time></trkpt><trkpt lat="45.75516108254105" lon="9.757530281852185"><ele>438.0</ele><time>2026-04-25T11:06:21Z</time></trkpt><trkpt lat="45.75511086484632" lon="9.757681836787787"><ele>438.0</ele><time>2026-04-25T11:06:22Z</time></trkpt><trkpt lat="45.75504687561557" lon="9.757825900492485"><ele>436.25</ele><time>2026-04-25T11:06:23Z</time></trkpt><trkpt lat="45.75497122983654" lon="9.757965208240485"><ele>434.5</ele><time>2026-04-25T11:06:24Z</time></trkpt><trkpt lat="45.75489001008536" lon="9.758091649149929"><ele>432.75</ele><time>2026-04-25T11:06:25Z</time></trkpt><trkpt lat="45.75481728519144" lon="9.758228216945684"><ele>431.0</ele><time>2026-04-25T11:06:26Z</time></trkpt><trkpt lat="45.754758020276824" lon="9.758375960454012"><ele>431.0</ele><time>2026-04-25T11:06:27Z</time></trkpt><trkpt lat="45.754699973265595" lon="9.758529923662389"><ele>431.0</ele><time>2026-04-25T11:06:28Z</time></trkpt><trkpt lat="45.75463843959147" lon="9.758673441982085"><ele>431.0</ele><time>2026-04-25T11:06:29Z</time></trkpt><trkpt lat="45.75457206101962" lon="9.75881136914932"><ele>431.0</ele><time>2026-04-25T11:06:30Z</time></trkpt><trkpt lat="45.754503000234784" lon="9.758943095097576"><ele>431.0</ele><time>2026-04-25T11:06:31Z</time></trkpt><trkpt lat="45.75440597897852" lon="9.7590490940393"><ele>431.0</ele><time>2026-04-25T11:06:32Z</time></trkpt><trkpt lat="45.75431836970862" lon="9.759164771106066"><ele>431.0</ele><time>2026-04-25T11:06:33Z</time></trkpt><trkpt lat="45.75423820397169" lon="9.759260540740488"><ele>431.0</ele><time>2026-04-25T11:06:34Z</time></trkpt><trkpt lat="45.754156589796075" lon="9.759330015566347"><ele>431.0</ele><time>2026-04-25T11:06:35Z</time></trkpt><trkpt lat="45.75406000725346" lon="9.759362437113964"><ele>425.6</ele><time>2026-04-25T11:06:36Z</time></trkpt><trkpt lat="45.753957151422085" lon="9.759378225855038"><ele>420.20000000000005</ele><time>2026-04-25T11:06:37Z</time></trkpt><trkpt lat="45.75385126608673" lon="9.759385261975618"><ele>414.79999999999995</ele><time>2026-04-25T11:06:38Z</time></trkpt><trkpt lat="45.75375087573223" lon="9.759399355950208"><ele>409.4</ele><time>2026-04-25T11:06:39Z</time></trkpt><trkpt lat="45.753651690951614" lon="9.759433775172468"><ele>404.0</ele><time>2026-04-25T11:06:40Z</time></trkpt><trkpt lat="45.753558636045994" lon="9.759496891438172"><ele>407.0</ele><time>2026-04-25T11:06:41Z</time></trkpt><trkpt lat="45.75346487880922" lon="9.759565264510902"><ele>410.0</ele><time>2026-04-25T11:06:42Z</time></trkpt><trkpt lat="45.7533728514289" lon="9.759638240071029"><ele>413.0</ele><time>2026-04-25T11:06:43Z</time></trkpt><trkpt lat="45.75328113099197" lon="9.759712914359076"><ele>416.0</ele><time>2026-04-25T11:06:44Z</time></trkpt><trkpt lat="45.75319714440779" lon="9.7598054238693"><ele>419.0</ele><time>2026-04-25T11:06:45Z</time></trkpt><trkpt lat="45.75311380736664" lon="9.75990571054476"><ele>419.0</ele><time>2026-04-25T11:06:46Z</time></trkpt><trkpt lat="45.75302658689262" lon="9.7599958796508"><ele>419.0</ele><time>2026-04-25T11:06:47Z</time></trkpt><trkpt lat="45.75292559037246" lon="9.760053241970233"><ele>419.0</ele><time>2026-04-25T11:06:48Z</time></trkpt><trkpt lat="45.75281792326401" lon="9.760092081378948"><ele>419.0</ele><time>2026-04-25T11:06:49Z</time></trkpt><trkpt lat="45.75271681504187" lon="9.760124797254903"><ele>419.0</ele><time>2026-04-25T11:06:50Z</time></trkpt><trkpt lat="45.75261577732545" lon="9.76017768460502"><ele>414.79999999999995</ele><time>2026-04-25T11:06:51Z</time></trkpt><trkpt lat="45.752522713401554" lon="9.760235491267906"><ele>410.59999999999997</ele><time>2026-04-25T11:06:52Z</time></trkpt><trkpt lat="45.75242480302325" lon="9.760284868142683"><ele>406.4</ele><time>2026-04-25T11:06:53Z</time></trkpt><trkpt lat="45.75232047271526" lon="9.760314407327005"><ele>402.2</ele><time>2026-04-25T11:06:54Z</time></trkpt><trkpt lat="45.752218272426326" lon="9.760321480863299"><ele>398.0</ele><time>2026-04-25T11:06:55Z</time></trkpt><trkpt lat="45.752117151568335" lon="9.760325366806576"><ele>398.0</ele><time>2026-04-25T11:06:56Z</time></trkpt><trkpt lat="45.75201879432762" lon="9.760337089739425"><ele>398.0</ele><time>2026-04-25T11:06:57Z</time></trkpt><trkpt lat="45.751920200163674" lon="9.760358086247827"><ele>398.0</ele><time>2026-04-25T11:06:58Z</time></trkpt><trkpt lat="45.75182019222581" lon="9.760382230059648"><ele>398.0</ele><time>2026-04-25T11:06:59Z</time></trkpt><trkpt lat="45.75171926250016" lon="9.760406331184294"><ele>398.0</ele><time>2026-04-25T11:07:00Z</time></trkpt><trkpt lat="45.751618519783946" lon="9.760430245907664"><ele>395.79999999999995</ele><time>2026-04-25T11:07:01Z</time></trkpt><trkpt lat="45.75151744067503" lon="9.760458438909675"><ele>393.6</ele><time>2026-04-25T11:07:02Z</time></trkpt><trkpt lat="45.75141465501483" lon="9.760485772880171"><ele>391.4</ele><time>2026-04-25T11:07:03Z</time></trkpt><trkpt lat="45.751310947611536" lon="9.760505507321483"><ele>389.20000000000005</ele><time>2026-04-25T11:07:04Z</time></trkpt><trkpt lat="45.75120183431932" lon="9.760507700361494"><ele>387.0</ele><time>2026-04-25T11:07:05Z</time></trkpt><trkpt lat="45.75109421348079" lon="9.760487062078267"><ele>384.6</ele><time>2026-04-25T11:07:06Z</time></trkpt><trkpt lat="45.7509923974872" lon="9.760450897682487"><ele>382.20000000000005</ele><time>2026-04-25T11:07:07Z</time></trkpt><trkpt lat="45.75089445407505" lon="9.760394966390232"><ele>379.8</ele><time>2026-04-25T11:07:08Z</time></trkpt><trkpt lat="45.75080072186498" lon="9.760330643303956"><ele>377.4</ele><time>2026-04-25T11:07:09Z</time></trkpt><trkpt lat="45.75070835754094" lon="9.760265931724344"><ele>375.0</ele><time>2026-04-25T11:07:10Z</time></trkpt><trkpt lat="45.75061548644975" lon="9.76020449911344"><ele>379.2</ele><time>2026-04-25T11:07:11Z</time></trkpt><trkpt lat="45.75052010794563" lon="9.76014925921554"><ele>383.4</ele><time>2026-04-25T11:07:12Z</time></trkpt><trkpt lat="45.750424266370864" lon="9.760103479504165"><ele>387.6</ele><time>2026-04-25T11:07:13Z</time></trkpt><trkpt lat="45.75033139634888" lon="9.760045750828796"><ele>391.8</ele><time>2026-04-25T11:07:14Z</time></trkpt><trkpt lat="45.750239181991795" lon="9.759990715309236"><ele>396.0</ele><time>2026-04-25T11:07:15Z</time></trkpt><trkpt lat="45.75014922798126" lon="9.759935454298436"><ele>396.0</ele><time>2026-04-25T11:07:16Z</time></trkpt><trkpt lat="45.75006091751147" lon="9.759876088196359"><ele>396.0</ele><time>2026-04-25T11:07:17Z</time></trkpt><trkpt lat="45.74997470561997" lon="9.759813105434915"><ele>396.0</ele><time>2026-04-25T11:07:18Z</time></trkpt><trkpt lat="45.74988888657283" lon="9.759747057588289"><ele>396.0</ele><time>2026-04-25T11:07:19Z</time></trkpt><trkpt lat="45.74980021724826" lon="9.759689154404269"><ele>396.0</ele><time>2026-04-25T11:07:20Z</time></trkpt><trkpt lat="45.74971475481148" lon="9.759630663135507"><ele>396.0</ele><time>2026-04-25T11:07:21Z</time></trkpt><trkpt lat="45.74962849170746" lon="9.759574322160471"><ele>396.0</ele><time>2026-04-25T11:07:22Z</time></trkpt><trkpt lat="45.749545065783714" lon="9.759512334913234"><ele>396.0</ele><time>2026-04-25T11:07:23Z</time></trkpt><trkpt lat="45.749468447768216" lon="9.759427493849488"><ele>396.0</ele><time>2026-04-25T11:07:24Z</time></trkpt><trkpt lat="45.749397027211785" lon="9.759336857623849"><ele>396.0</ele><time>2026-04-25T11:07:25Z</time></trkpt><trkpt lat="45.74932411157257" lon="9.759257667023913"><ele>395.4</ele><time>2026-04-25T11:07:26Z</time></trkpt><trkpt lat="45.749247153416874" lon="9.759189610947653"><ele>394.8</ele><time>2026-04-25T11:07:27Z</time></trkpt><trkpt lat="45.74916252538982" lon="9.759136591808728"><ele>394.2</ele><time>2026-04-25T11:07:28Z</time></trkpt><trkpt lat="45.749073540577854" lon="9.759097668669886"><ele>393.59999999999997</ele><time>2026-04-25T11:07:29Z</time></trkpt><trkpt lat="45.74898128905949" lon="9.759082704219326"><ele>393.0</ele><time>2026-04-25T11:07:30Z</time></trkpt><trkpt lat="45.748885007155295" lon="9.759095668472494"><ele>393.0</ele><time>2026-04-25T11:07:31Z</time></trkpt><trkpt lat="45.74879015093888" lon="9.759098569385433"><ele>393.0</ele><time>2026-04-25T11:07:32Z</time></trkpt><trkpt lat="45.748702128084396" lon="9.759091539293804"><ele>393.0</ele><time>2026-04-25T11:07:33Z</time></trkpt><trkpt lat="45.74860545017668" lon="9.75908944442761"><ele>393.0</ele><time>2026-04-25T11:07:34Z</time></trkpt><trkpt lat="45.748514091742095" lon="9.759084625694527"><ele>393.0</ele><time>2026-04-25T11:07:35Z</time></trkpt><trkpt lat="45.74841975909599" lon="9.759074333756198"><ele>391.79999999999995</ele><time>2026-04-25T11:07:36Z</time></trkpt><trkpt lat="45.748324850213095" lon="9.759044414098001"><ele>390.6</ele><time>2026-04-25T11:07:37Z</time></trkpt><trkpt lat="45.74823883108598" lon="9.758977804077194"><ele>389.4</ele><time>2026-04-25T11:07:38Z</time></trkpt><trkpt lat="45.74815686067252" lon="9.758888636175728"><ele>388.20000000000005</ele><time>2026-04-25T11:07:39Z</time></trkpt><trkpt lat="45.748094930525994" lon="9.758786726656698"><ele>387.0</ele><time>2026-04-25T11:07:40Z</time></trkpt><trkpt lat="45.74803590344448" lon="9.758682497658155"><ele>387.0</ele><time>2026-04-25T11:07:41Z</time></trkpt><trkpt lat="45.7479617469807" lon="9.758606465482742"><ele>387.0</ele><time>2026-04-25T11:07:42Z</time></trkpt><trkpt lat="45.7478816363945" lon="9.758553886095546"><ele>387.0</ele><time>2026-04-25T11:07:43Z</time></trkpt><trkpt lat="45.747793148920586" lon="9.75851395313324"><ele>387.0</ele><time>2026-04-25T11:07:44Z</time></trkpt><trkpt lat="45.74770369179822" lon="9.758470137855209"><ele>387.0</ele><time>2026-04-25T11:07:45Z</time></trkpt><trkpt lat="45.74761407221715" lon="9.758432031248729"><ele>385.0</ele><time>2026-04-25T11:07:46Z</time></trkpt><trkpt lat="45.74752254935465" lon="9.758412193732223"><ele>383.0</ele><time>2026-04-25T11:07:47Z</time></trkpt><trkpt lat="45.74743082588384" lon="9.758390157844316"><ele>381.0</ele><time>2026-04-25T11:07:48Z</time></trkpt><trkpt lat="45.74733685870425" lon="9.758376767228036"><ele>379.0</ele><time>2026-04-25T11:07:49Z</time></trkpt><trkpt lat="45.747244761608265" lon="9.758367870255807"><ele>377.0</ele><time>2026-04-25T11:07:50Z</time></trkpt><trkpt lat="45.747153850267765" lon="9.75839006906399"><ele>377.0</ele><time>2026-04-25T11:07:51Z</time></trkpt><trkpt lat="45.74705529285403" lon="9.758404674913054"><ele>377.0</ele><time>2026-04-25T11:07:52Z</time></trkpt><trkpt lat="45.74696274117375" lon="9.758421236533147"><ele>377.0</ele><time>2026-04-25T11:07:53Z</time></trkpt><trkpt lat="45.74686879697065" lon="9.758438704354262"><ele>377.0</ele><time>2026-04-25T11:07:54Z</time></trkpt><trkpt lat="45.74677528077278" lon="9.7584610044315"><ele>377.0</ele><time>2026-04-25T11:07:55Z</time></trkpt><trkpt lat="45.746676503666876" lon="9.758487263017216"><ele>378.8</ele><time>2026-04-25T11:07:56Z</time></trkpt><trkpt lat="45.74658648694395" lon="9.758532845449112"><ele>380.6</ele><time>2026-04-25T11:07:57Z</time></trkpt><trkpt lat="45.74649542235849" lon="9.758594864105524"><ele>382.40000000000003</ele><time>2026-04-25T11:07:58Z</time></trkpt><trkpt lat="45.74640418936372" lon="9.758664385981264"><ele>384.20000000000005</ele><time>2026-04-25T11:07:59Z</time></trkpt><trkpt lat="45.74630998694074" lon="9.758706788628416"><ele>386.0</ele><time>2026-04-25T11:08:00Z</time></trkpt><trkpt lat="45.74621014546799" lon="9.758730734856874"><ele>386.0</ele><time>2026-04-25T11:08:01Z</time></trkpt><trkpt lat="45.74612351996456" lon="9.75874571808685"><ele>386.0</ele><time>2026-04-25T11:08:02Z</time></trkpt><trkpt lat="45.74603897767226" lon="9.758789341748749"><ele>386.0</ele><time>2026-04-25T11:08:03Z</time></trkpt><trkpt lat="45.74597266985661" lon="9.758884852816834"><ele>386.0</ele><time>2026-04-25T11:08:04Z</time></trkpt><trkpt lat="45.74594718184164" lon="9.759038525716157"><ele>386.0</ele><time>2026-04-25T11:08:05Z</time></trkpt><trkpt lat="45.74595809364205" lon="9.75919884875824"><ele>380.20000000000005</ele><time>2026-04-25T11:08:06Z</time></trkpt><trkpt lat="45.74596356323858" lon="9.759347865840176"><ele>374.40000000000003</ele><time>2026-04-25T11:08:07Z</time></trkpt><trkpt lat="45.74596906364927" lon="9.759484321401775"><ele>368.6</ele><time>2026-04-25T11:08:08Z</time></trkpt><trkpt lat="45.74597069539171" lon="9.759633977550966"><ele>362.8</ele><time>2026-04-25T11:08:09Z</time></trkpt><trkpt lat="45.745979901075" lon="9.75978896913674"><ele>357.0</ele><time>2026-04-25T11:08:10Z</time></trkpt><trkpt lat="45.74602176528102" lon="9.759910997860151"><ele>355.8</ele><time>2026-04-25T11:08:11Z</time></trkpt><trkpt lat="45.74607145906288" lon="9.760022470947588"><ele>354.6</ele><time>2026-04-25T11:08:12Z</time></trkpt><trkpt lat="45.74613484342332" lon="9.760122439875266"><ele>353.40000000000003</ele><time>2026-04-25T11:08:13Z</time></trkpt><trkpt lat="45.74621384245442" lon="9.760211480851126"><ele>352.20000000000005</ele><time>2026-04-25T11:08:14Z</time></trkpt><trkpt lat="45.746302473567255" lon="9.760287534423972"><ele>351.0</ele><time>2026-04-25T11:08:15Z</time></trkpt><trkpt lat="45.74639721357918" lon="9.760355622114238"><ele>351.0</ele><time>2026-04-25T11:08:16Z</time></trkpt><trkpt lat="45.7464957927587" lon="9.760420111951671"><ele>351.0</ele><time>2026-04-25T11:08:17Z</time></trkpt><trkpt lat="45.74659373539335" lon="9.760496528923408"><ele>351.0</ele><time>2026-04-25T11:08:18Z</time></trkpt><trkpt lat="45.74669220830703" lon="9.760582185355727"><ele>351.0</ele><time>2026-04-25T11:08:19Z</time></trkpt><trkpt lat="45.746790610032384" lon="9.76067007526302"><ele>348.5</ele><time>2026-04-25T11:08:20Z</time></trkpt><trkpt lat="45.7468921845222" lon="9.760757649739597"><ele>346.0</ele><time>2026-04-25T11:08:21Z</time></trkpt><trkpt lat="45.74699270790978" lon="9.760854592213242"><ele>343.5</ele><time>2026-04-25T11:08:22Z</time></trkpt><trkpt lat="45.747093867196305" lon="9.760958115888377"><ele>341.0</ele><time>2026-04-25T11:08:23Z</time></trkpt><trkpt lat="45.74720176781152" lon="9.76105255620467"><ele>341.0</ele><time>2026-04-25T11:08:24Z</time></trkpt><trkpt lat="45.747312247301856" lon="9.761134647894949"><ele>341.0</ele><time>2026-04-25T11:08:25Z</time></trkpt><trkpt lat="45.74741504250724" lon="9.761215908344672"><ele>341.0</ele><time>2026-04-25T11:08:26Z</time></trkpt><trkpt lat="45.74751260418601" lon="9.761304217940271"><ele>341.0</ele><time>2026-04-25T11:08:27Z</time></trkpt><trkpt lat="45.747601911511886" lon="9.761386898317982"><ele>341.0</ele><time>2026-04-25T11:08:28Z</time></trkpt><trkpt lat="45.74768148245264" lon="9.761472289567008"><ele>341.0</ele><time>2026-04-25T11:08:29Z</time></trkpt><trkpt lat="45.74774800345381" lon="9.761566226896813"><ele>341.0</ele><time>2026-04-25T11:08:30Z</time></trkpt><trkpt lat="45.74780398608816" lon="9.761657315255533"><ele>341.0</ele><time>2026-04-25T11:08:31Z</time></trkpt><trkpt lat="45.747870444174794" lon="9.761709704156662"><ele>341.0</ele><time>2026-04-25T11:08:32Z</time></trkpt><trkpt lat="45.747955608158385" lon="9.761718969538967"><ele>341.0</ele><time>2026-04-25T11:08:33Z</time></trkpt><trkpt lat="45.74804688153994" lon="9.76166666884172"><ele>340.83333333333337</ele><time>2026-04-25T11:08:34Z</time></trkpt><trkpt lat="45.74812755920969" lon="9.761569080487416"><ele>340.6666666666667</ele><time>2026-04-25T11:08:35Z</time></trkpt><trkpt lat="45.7481937417845" lon="9.761446704017239"><ele>340.5</ele><time>2026-04-25T11:08:36Z</time></trkpt><trkpt lat="45.74825985053341" lon="9.761364704983151"><ele>340.3333333333333</ele><time>2026-04-25T11:08:37Z</time></trkpt><trkpt lat="45.748327492719284" lon="9.761333872879606"><ele>340.16666666666663</ele><time>2026-04-25T11:08:38Z</time></trkpt><trkpt lat="45.7483896495947" lon="9.761349343363197"><ele>340.0</ele><time>2026-04-25T11:08:39Z</time></trkpt><trkpt lat="45.7484384782306" lon="9.761421586697837"><ele>340.0</ele><time>2026-04-25T11:08:40Z</time></trkpt><trkpt lat="45.74843336918063" lon="9.761528900350916"><ele>340.0</ele><time>2026-04-25T11:08:41Z</time></trkpt><trkpt lat="45.748374609771105" lon="9.761630839010552"><ele>340.0</ele><time>2026-04-25T11:08:42Z</time></trkpt><trkpt lat="45.748296128123236" lon="9.76167950586279"><ele>340.0</ele><time>2026-04-25T11:08:43Z</time></trkpt><trkpt lat="45.74822644239689" lon="9.761720101407063"><ele>340.0</ele><time>2026-04-25T11:08:44Z</time></trkpt><trkpt lat="45.748162291045894" lon="9.761771257574779"><ele>340.0</ele><time>2026-04-25T11:08:45Z</time></trkpt><trkpt lat="45.748101739877676" lon="9.761822791154362"><ele>340.0</ele><time>2026-04-25T11:08:46Z</time></trkpt><trkpt lat="45.74804469236347" lon="9.761863912124063"><ele>340.0</ele><time>2026-04-25T11:08:47Z</time></trkpt><trkpt lat="45.7479841002348" lon="9.761897392772333"><ele>340.0</ele><time>2026-04-25T11:08:48Z</time></trkpt><trkpt lat="45.74791471481551" lon="9.761919716573525"><ele>340.0</ele><time>2026-04-25T11:08:49Z</time></trkpt><trkpt lat="45.74784727734748" lon="9.761943330465796"><ele>340.0</ele><time>2026-04-25T11:08:50Z</time></trkpt><trkpt lat="45.74778042213646" lon="9.761970922840923"><ele>340.0</ele><time>2026-04-25T11:08:51Z</time></trkpt><trkpt lat="45.74771670505495" lon="9.76198100021843"><ele>340.0</ele><time>2026-04-25T11:08:52Z</time></trkpt><trkpt lat="45.74764333795067" lon="9.761994892520377"><ele>340.14285714285717</ele><time>2026-04-25T11:08:53Z</time></trkpt><trkpt lat="45.74757353886049" lon="9.762005001702159"><ele>340.2857142857143</ele><time>2026-04-25T11:08:54Z</time></trkpt><trkpt lat="45.747498148444066" lon="9.7620047569074"><ele>340.42857142857144</ele><time>2026-04-25T11:08:55Z</time></trkpt><trkpt lat="45.7474243558137" lon="9.761991296209295"><ele>340.57142857142856</ele><time>2026-04-25T11:08:56Z</time></trkpt><trkpt lat="45.74735482445108" lon="9.761948564002674"><ele>340.7142857142857</ele><time>2026-04-25T11:08:57Z</time></trkpt><trkpt lat="45.747290775238966" lon="9.761892570241539"><ele>340.85714285714283</ele><time>2026-04-25T11:08:58Z</time></trkpt><trkpt lat="45.74722719837222" lon="9.761835665394733"><ele>341.0</ele><time>2026-04-25T11:08:59Z</time></trkpt><trkpt lat="45.74715876371022" lon="9.7617950556552"><ele>341.0</ele><time>2026-04-25T11:09:00Z</time></trkpt><trkpt lat="45.74709688945033" lon="9.761739113046257"><ele>341.0</ele><time>2026-04-25T11:09:01Z</time></trkpt><trkpt lat="45.747025813632604" lon="9.76169203957202"><ele>341.0</ele><time>2026-04-25T11:09:02Z</time></trkpt><trkpt lat="45.74695339561755" lon="9.761641894202603"><ele>341.0</ele><time>2026-04-25T11:09:03Z</time></trkpt><trkpt lat="45.74687703813323" lon="9.761614921195253"><ele>341.0</ele><time>2026-04-25T11:09:04Z</time></trkpt><trkpt lat="45.74680075738707" lon="9.761588273349963"><ele>341.0</ele><time>2026-04-25T11:09:05Z</time></trkpt><trkpt lat="45.74672409687305" lon="9.761563343518926"><ele>339.6666666666667</ele><time>2026-04-25T11:09:06Z</time></trkpt><trkpt lat="45.746645008441796" lon="9.761535286964056"><ele>338.33333333333337</ele><time>2026-04-25T11:09:07Z</time></trkpt><trkpt lat="45.746563587190295" lon="9.761529236048961"><ele>337.0</ele><time>2026-04-25T11:09:08Z</time></trkpt><trkpt lat="45.746490677745896" lon="9.76155854440416"><ele>335.6666666666667</ele><time>2026-04-25T11:09:09Z</time></trkpt><trkpt lat="45.74644169678141" lon="9.76165432660055"><ele>334.3333333333333</ele><time>2026-04-25T11:09:10Z</time></trkpt><trkpt lat="45.746403512492876" lon="9.761772123859515"><ele>333.0</ele><time>2026-04-25T11:09:11Z</time></trkpt><trkpt lat="45.746398237830455" lon="9.761879221573922"><ele>332.0</ele><time>2026-04-25T11:09:12Z</time></trkpt><trkpt lat="45.74636519447187" lon="9.7619605430109"><ele>331.0</ele><time>2026-04-25T11:09:13Z</time></trkpt><trkpt lat="45.74630051474815" lon="9.762023607333742"><ele>330.0</ele><time>2026-04-25T11:09:14Z</time></trkpt><trkpt lat="45.74622786655575" lon="9.762064794809556"><ele>329.0</ele><time>2026-04-25T11:09:15Z</time></trkpt><trkpt lat="45.746155566906126" lon="9.762103980460736"><ele>328.0</ele><time>2026-04-25T11:09:16Z</time></trkpt><trkpt lat="45.74608459228422" lon="9.762149782019943"><ele>327.0</ele><time>2026-04-25T11:09:17Z</time></trkpt><trkpt lat="45.74597722018423" lon="9.762210313168202"><ele>327.0</ele><time>2026-04-25T11:09:19Z</time></trkpt><trkpt lat="45.745920537157936" lon="9.762255191308927"><ele>327.0</ele><time>2026-04-25T11:09:20Z</time></trkpt><trkpt lat="45.7458173109632" lon="9.762320280943873"><ele>327.0</ele><time>2026-04-25T11:09:22Z</time></trkpt><trkpt lat="45.745724968246776" lon="9.762300136489811"><ele>327.0</ele><time>2026-04-25T11:09:24Z</time></trkpt><trkpt lat="45.74564185792076" lon="9.762251621814718"><ele>327.0</ele><time>2026-04-25T11:09:26Z</time></trkpt><trkpt lat="45.7455350844611" lon="9.762180643743168"><ele>327.0</ele><time>2026-04-25T11:09:28Z</time></trkpt><trkpt lat="45.745489331551305" lon="9.762115346960213"><ele>327.0</ele><time>2026-04-25T11:09:29Z</time></trkpt><trkpt lat="45.745432529103844" lon="9.762072391588388"><ele>327.0</ele><time>2026-04-25T11:09:30Z</time></trkpt><trkpt lat="45.74537185853814" lon="9.762033157260808"><ele>327.0</ele><time>2026-04-25T11:09:31Z</time></trkpt><trkpt lat="45.74526163740008" lon="9.761933228150637"><ele>327.0</ele><time>2026-04-25T11:09:33Z</time></trkpt><trkpt lat="45.745200943586156" lon="9.761892694204864"><ele>327.0</ele><time>2026-04-25T11:09:34Z</time></trkpt><trkpt lat="45.74514074191398" lon="9.761852593651838"><ele>326.7142857142857</ele><time>2026-04-25T11:09:35Z</time></trkpt><trkpt lat="45.74508148960289" lon="9.76181420383844"><ele>326.42857142857144</ele><time>2026-04-25T11:09:36Z</time></trkpt><trkpt lat="45.74501577053868" lon="9.761782026125088"><ele>326.1428571428571</ele><time>2026-04-25T11:09:37Z</time></trkpt><trkpt lat="45.74495885992047" lon="9.761737359041005"><ele>325.8571428571429</ele><time>2026-04-25T11:09:38Z</time></trkpt><trkpt lat="45.744902403228686" lon="9.761685565044735"><ele>325.5714285714286</ele><time>2026-04-25T11:09:39Z</time></trkpt><trkpt lat="45.74484250092312" lon="9.761641376543105"><ele>325.2857142857143</ele><time>2026-04-25T11:09:40Z</time></trkpt><trkpt lat="45.74478286674253" lon="9.761595609416903"><ele>325.0</ele><time>2026-04-25T11:09:41Z</time></trkpt><trkpt lat="45.744721307989195" lon="9.761552501691868"><ele>325.0</ele><time>2026-04-25T11:09:42Z</time></trkpt><trkpt lat="45.74465936919552" lon="9.761503310669747"><ele>325.0</ele><time>2026-04-25T11:09:43Z</time></trkpt><trkpt lat="45.744602551215834" lon="9.761445132013423"><ele>325.0</ele><time>2026-04-25T11:09:44Z</time></trkpt><trkpt lat="45.74454848841476" lon="9.761378284148874"><ele>325.0</ele><time>2026-04-25T11:09:45Z</time></trkpt><trkpt lat="45.74449528764898" lon="9.761313058367714"><ele>325.0</ele><time>2026-04-25T11:09:46Z</time></trkpt><trkpt lat="45.744446513694285" lon="9.761247782413497"><ele>325.0</ele><time>2026-04-25T11:09:47Z</time></trkpt><trkpt lat="45.74434857679275" lon="9.761186347616286"><ele>324.0</ele><time>2026-04-25T11:09:49Z</time></trkpt><trkpt lat="45.74425836134817" lon="9.761244426539415"><ele>323.0</ele><time>2026-04-25T11:09:51Z</time></trkpt><trkpt lat="45.744227412463374" lon="9.761335486078407"><ele>322.0</ele><time>2026-04-25T11:09:52Z</time></trkpt><trkpt lat="45.744224676115714" lon="9.761443749009802"><ele>321.0</ele><time>2026-04-25T11:09:53Z</time></trkpt><trkpt lat="45.74424423973953" lon="9.76153817047686"><ele>320.0</ele><time>2026-04-25T11:09:54Z</time></trkpt><trkpt lat="45.744262815599946" lon="9.761713402144698"><ele>319.0</ele><time>2026-04-25T11:09:56Z</time></trkpt><trkpt lat="45.74425719656962" lon="9.761804510311308"><ele>319.0</ele><time>2026-04-25T11:09:57Z</time></trkpt><trkpt lat="45.74425221933404" lon="9.761896438590819"><ele>319.0</ele><time>2026-04-25T11:09:58Z</time></trkpt><trkpt lat="45.74425085094524" lon="9.761987842014754"><ele>319.0</ele><time>2026-04-25T11:09:59Z</time></trkpt><trkpt lat="45.74418115490611" lon="9.762083159700431"><ele>319.0</ele><time>2026-04-25T11:10:01Z</time></trkpt><trkpt lat="45.74411972753599" lon="9.762037655386447"><ele>319.0</ele><time>2026-04-25T11:10:02Z</time></trkpt><trkpt lat="45.7440533995155" lon="9.761980851040622"><ele>319.0</ele><time>2026-04-25T11:10:03Z</time></trkpt><trkpt lat="45.743999349182175" lon="9.761920454955327"><ele>319.0</ele><time>2026-04-25T11:10:04Z</time></trkpt><trkpt lat="45.74394503599809" lon="9.761861579873385"><ele>319.0</ele><time>2026-04-25T11:10:05Z</time></trkpt><trkpt lat="45.74389161337447" lon="9.761799575334447"><ele>319.0</ele><time>2026-04-25T11:10:06Z</time></trkpt><trkpt lat="45.743833912996756" lon="9.761748453202761"><ele>319.0</ele><time>2026-04-25T11:10:07Z</time></trkpt><trkpt lat="45.74378033960664" lon="9.761684238100578"><ele>319.0</ele><time>2026-04-25T11:10:08Z</time></trkpt><trkpt lat="45.74372037275216" lon="9.761626486039436"><ele>319.0</ele><time>2026-04-25T11:10:09Z</time></trkpt><trkpt lat="45.743661647790915" lon="9.761569050149033"><ele>319.0</ele><time>2026-04-25T11:10:10Z</time></trkpt><trkpt lat="45.7435928514431" lon="9.761533459282562"><ele>319.0</ele><time>2026-04-25T11:10:11Z</time></trkpt><trkpt lat="45.74351863126001" lon="9.761522175089505"><ele>317.8333333333333</ele><time>2026-04-25T11:10:12Z</time></trkpt><trkpt lat="45.74344338360746" lon="9.761533060020618"><ele>316.66666666666663</ele><time>2026-04-25T11:10:13Z</time></trkpt><trkpt lat="45.74336780040924" lon="9.761543859781321"><ele>315.5</ele><time>2026-04-25T11:10:14Z</time></trkpt><trkpt lat="45.74329057425821" lon="9.761548476247798"><ele>314.3333333333333</ele><time>2026-04-25T11:10:15Z</time></trkpt><trkpt lat="45.743210387738664" lon="9.761548152684131"><ele>313.1666666666667</ele><time>2026-04-25T11:10:16Z</time></trkpt><trkpt lat="45.74312600074834" lon="9.761548352870184"><ele>312.0</ele><time>2026-04-25T11:10:17Z</time></trkpt><trkpt lat="45.743042547163704" lon="9.761558773546527"><ele>312.0</ele><time>2026-04-25T11:10:18Z</time></trkpt><trkpt lat="45.742958704958745" lon="9.761569229196308"><ele>312.0</ele><time>2026-04-25T11:10:19Z</time></trkpt><trkpt lat="45.74287412416275" lon="9.761574432742648"><ele>312.0</ele><time>2026-04-25T11:10:20Z</time></trkpt><trkpt lat="45.74278856724718" lon="9.761580614814866"><ele>312.0</ele><time>2026-04-25T11:10:21Z</time></trkpt><trkpt lat="45.74270266670387" lon="9.761586738776545"><ele>312.0</ele><time>2026-04-25T11:10:22Z</time></trkpt><trkpt lat="45.74262081682335" lon="9.761598027697804"><ele>312.0</ele><time>2026-04-25T11:10:23Z</time></trkpt><trkpt lat="45.742533843555826" lon="9.761612333141382"><ele>311.3333333333333</ele><time>2026-04-25T11:10:24Z</time></trkpt><trkpt lat="45.74245329400307" lon="9.761629652541359"><ele>310.6666666666667</ele><time>2026-04-25T11:10:25Z</time></trkpt><trkpt lat="45.742372333063365" lon="9.761651840046333"><ele>310.0</ele><time>2026-04-25T11:10:26Z</time></trkpt><trkpt lat="45.742293760472606" lon="9.761673988421192"><ele>309.33333333333337</ele><time>2026-04-25T11:10:27Z</time></trkpt><trkpt lat="45.742216921420464" lon="9.761692134368737"><ele>308.6666666666667</ele><time>2026-04-25T11:10:28Z</time></trkpt><trkpt lat="45.74214082459346" lon="9.76170395793837"><ele>308.0</ele><time>2026-04-25T11:10:29Z</time></trkpt><trkpt lat="45.742066069014435" lon="9.761724057523057"><ele>308.0</ele><time>2026-04-25T11:10:30Z</time></trkpt><trkpt lat="45.74200223278304" lon="9.761778037023703"><ele>308.0</ele><time>2026-04-25T11:10:31Z</time></trkpt><trkpt lat="45.74193912584566" lon="9.761832080225798"><ele>308.0</ele><time>2026-04-25T11:10:32Z</time></trkpt><trkpt lat="45.74187943085294" lon="9.761887017195592"><ele>308.0</ele><time>2026-04-25T11:10:33Z</time></trkpt><trkpt lat="45.74182137035867" lon="9.761942852659859"><ele>308.0</ele><time>2026-04-25T11:10:34Z</time></trkpt><trkpt lat="45.74175806305508" lon="9.761985235284328"><ele>308.0</ele><time>2026-04-25T11:10:35Z</time></trkpt><trkpt lat="45.741696963613016" lon="9.762023766482308"><ele>308.0</ele><time>2026-04-25T11:10:36Z</time></trkpt><trkpt lat="45.74163431852066" lon="9.762062264316143"><ele>307.42857142857144</ele><time>2026-04-25T11:10:37Z</time></trkpt><trkpt lat="45.74157395783587" lon="9.762096924302629"><ele>306.8571428571429</ele><time>2026-04-25T11:10:38Z</time></trkpt><trkpt lat="45.74151164567935" lon="9.762132870192913"><ele>306.2857142857143</ele><time>2026-04-25T11:10:39Z</time></trkpt><trkpt lat="45.741448280479865" lon="9.762163765989513"><ele>305.7142857142857</ele><time>2026-04-25T11:10:40Z</time></trkpt><trkpt lat="45.74138361890445" lon="9.762194113860426"><ele>305.14285714285717</ele><time>2026-04-25T11:10:41Z</time></trkpt><trkpt lat="45.74132213481857" lon="9.762229350055781"><ele>304.57142857142856</ele><time>2026-04-25T11:10:42Z</time></trkpt><trkpt lat="45.74126055641937" lon="9.762260937966829"><ele>304.0</ele><time>2026-04-25T11:10:43Z</time></trkpt><trkpt lat="45.741194382320245" lon="9.762277119760654"><ele>304.0</ele><time>2026-04-25T11:10:44Z</time></trkpt><trkpt lat="45.7411293778125" lon="9.762292635965478"><ele>304.0</ele><time>2026-04-25T11:10:45Z</time></trkpt><trkpt lat="45.741066175119244" lon="9.762323386945054"><ele>304.0</ele><time>2026-04-25T11:10:46Z</time></trkpt><trkpt lat="45.74101360696772" lon="9.762383601534655"><ele>304.0</ele><time>2026-04-25T11:10:47Z</time></trkpt><trkpt lat="45.74096782981695" lon="9.762459230143966"><ele>304.0</ele><time>2026-04-25T11:10:48Z</time></trkpt><trkpt lat="45.74093104997664" lon="9.762541854320734"><ele>304.0</ele><time>2026-04-25T11:10:49Z</time></trkpt><trkpt lat="45.74088059100053" lon="9.762611551638305"><ele>304.0</ele><time>2026-04-25T11:10:50Z</time></trkpt><trkpt lat="45.74081710188077" lon="9.762670676251423"><ele>303.85714285714283</ele><time>2026-04-25T11:10:51Z</time></trkpt><trkpt lat="45.740752338528424" lon="9.762708462080063"><ele>303.7142857142857</ele><time>2026-04-25T11:10:52Z</time></trkpt><trkpt lat="45.74068956502107" lon="9.762752585506599"><ele>303.57142857142856</ele><time>2026-04-25T11:10:53Z</time></trkpt><trkpt lat="45.74062551547809" lon="9.762803213355888"><ele>303.42857142857144</ele><time>2026-04-25T11:10:54Z</time></trkpt><trkpt lat="45.74056139581704" lon="9.762855346482748"><ele>303.2857142857143</ele><time>2026-04-25T11:10:55Z</time></trkpt><trkpt lat="45.74049252730753" lon="9.762905415988975"><ele>303.14285714285717</ele><time>2026-04-25T11:10:56Z</time></trkpt><trkpt lat="45.74043172062776" lon="9.762957379089555"><ele>303.0</ele><time>2026-04-25T11:10:57Z</time></trkpt><trkpt lat="45.74036366151199" lon="9.763006817472137"><ele>303.0</ele><time>2026-04-25T11:10:58Z</time></trkpt><trkpt lat="45.74030303380931" lon="9.76305704919817"><ele>303.0</ele><time>2026-04-25T11:10:59Z</time></trkpt><trkpt lat="45.74024108045694" lon="9.763099473171023"><ele>303.0</ele><time>2026-04-25T11:11:00Z</time></trkpt><trkpt lat="45.74018061497382" lon="9.76313590136237"><ele>303.0</ele><time>2026-04-25T11:11:01Z</time></trkpt><trkpt lat="45.740121228125645" lon="9.76317951692283"><ele>303.0</ele><time>2026-04-25T11:11:02Z</time></trkpt><trkpt lat="45.74000733064473" lon="9.763255558907414"><ele>303.0</ele><time>2026-04-25T11:11:04Z</time></trkpt><trkpt lat="45.73995106699449" lon="9.763299520199107"><ele>302.6</ele><time>2026-04-25T11:11:05Z</time></trkpt><trkpt lat="45.73983660709428" lon="9.7633749683908"><ele>302.20000000000005</ele><time>2026-04-25T11:11:07Z</time></trkpt><trkpt lat="45.73977753272572" lon="9.76341440751303"><ele>301.8</ele><time>2026-04-25T11:11:08Z</time></trkpt><trkpt lat="45.739657102950815" lon="9.763459675011234"><ele>301.40000000000003</ele><time>2026-04-25T11:11:10Z</time></trkpt><trkpt lat="45.73955669686422" lon="9.763531054219413"><ele>301.0</ele><time>2026-04-25T11:11:12Z</time></trkpt><trkpt lat="45.739452131650445" lon="9.763542189743374"><ele>300.3333333333333</ele><time>2026-04-25T11:11:14Z</time></trkpt><trkpt lat="45.73936579976165" lon="9.7636073698258"><ele>299.66666666666663</ele><time>2026-04-25T11:11:16Z</time></trkpt><trkpt lat="45.73928995115884" lon="9.763664706044057"><ele>299.0</ele><time>2026-04-25T11:11:18Z</time></trkpt><trkpt lat="45.73919831227184" lon="9.76370079127474"><ele>298.3333333333333</ele><time>2026-04-25T11:11:20Z</time></trkpt><trkpt lat="45.73913462888109" lon="9.763694160342368"><ele>297.6666666666667</ele><time>2026-04-25T11:11:21Z</time></trkpt><trkpt lat="45.739074943638926" lon="9.763659558268888"><ele>297.0</ele><time>2026-04-25T11:11:22Z</time></trkpt><trkpt lat="45.739024372327144" lon="9.76359789311653"><ele>297.0</ele><time>2026-04-25T11:11:23Z</time></trkpt><trkpt lat="45.7389856801641" lon="9.763522788789441"><ele>297.0</ele><time>2026-04-25T11:11:24Z</time></trkpt><trkpt lat="45.73895497028125" lon="9.763439599282759"><ele>297.0</ele><time>2026-04-25T11:11:25Z</time></trkpt><trkpt lat="45.73893017186708" lon="9.763349043600433"><ele>297.0</ele><time>2026-04-25T11:11:26Z</time></trkpt><trkpt lat="45.738886705665074" lon="9.763180901776865"><ele>297.0</ele><time>2026-04-25T11:11:28Z</time></trkpt><trkpt lat="45.73887679885683" lon="9.763087427759304"><ele>297.0</ele><time>2026-04-25T11:11:29Z</time></trkpt><trkpt lat="45.73887280018541" lon="9.762997053202314"><ele>297.0</ele><time>2026-04-25T11:11:30Z</time></trkpt><trkpt lat="45.738866195565045" lon="9.762900140415137"><ele>297.0</ele><time>2026-04-25T11:11:31Z</time></trkpt><trkpt lat="45.73885543582934" lon="9.762805885024642"><ele>297.0</ele><time>2026-04-25T11:11:32Z</time></trkpt><trkpt lat="45.73884305792942" lon="9.762708720215466"><ele>297.0</ele><time>2026-04-25T11:11:33Z</time></trkpt><trkpt lat="45.73882703075304" lon="9.762611321939113"><ele>297.0</ele><time>2026-04-25T11:11:34Z</time></trkpt><trkpt lat="45.73880929064534" lon="9.762511927765956"><ele>297.0</ele><time>2026-04-25T11:11:35Z</time></trkpt><trkpt lat="45.73878634235012" lon="9.762420433559999"><ele>297.0</ele><time>2026-04-25T11:11:36Z</time></trkpt><trkpt lat="45.73876234287746" lon="9.76232207946719"><ele>296.8</ele><time>2026-04-25T11:11:37Z</time></trkpt><trkpt lat="45.73873841849916" lon="9.7622295699696"><ele>296.6</ele><time>2026-04-25T11:11:38Z</time></trkpt><trkpt lat="45.738649893768944" lon="9.762128718726618"><ele>296.40000000000003</ele><time>2026-04-25T11:11:40Z</time></trkpt><trkpt lat="45.73858224002665" lon="9.762133382561533"><ele>296.2</ele><time>2026-04-25T11:11:41Z</time></trkpt><trkpt lat="45.73845863762717" lon="9.762116115677717"><ele>296.0</ele><time>2026-04-25T11:11:43Z</time></trkpt><trkpt lat="45.738328631395355" lon="9.762092888521636"><ele>295.33333333333337</ele><time>2026-04-25T11:11:45Z</time></trkpt><trkpt lat="45.73826573579474" lon="9.762082630536689"><ele>294.6666666666667</ele><time>2026-04-25T11:11:46Z</time></trkpt><trkpt lat="45.738202595384855" lon="9.762073199530745"><ele>294.0</ele><time>2026-04-25T11:11:47Z</time></trkpt><trkpt lat="45.73813946262298" lon="9.762065703412363"><ele>293.3333333333333</ele><time>2026-04-25T11:11:48Z</time></trkpt><trkpt lat="45.73802284623537" lon="9.762037491264431"><ele>292.66666666666663</ele><time>2026-04-25T11:11:50Z</time></trkpt><trkpt lat="45.73793177587495" lon="9.762025664057925"><ele>292.0</ele><time>2026-04-25T11:11:52Z</time></trkpt><trkpt lat="45.737853445189565" lon="9.762055190091091"><ele>292.0</ele><time>2026-04-25T11:11:54Z</time></trkpt><trkpt lat="45.737805414996885" lon="9.761962471436174"><ele>292.0</ele><time>2026-04-25T11:11:56Z</time></trkpt><trkpt lat="45.73781130161558" lon="9.761863614792448"><ele>292.0</ele><time>2026-04-25T11:11:57Z</time></trkpt><trkpt lat="45.73780331193284" lon="9.761768852050066"><ele>292.0</ele><time>2026-04-25T11:11:58Z</time></trkpt><trkpt lat="45.73779413549119" lon="9.761673165671992"><ele>292.0</ele><time>2026-04-25T11:11:59Z</time></trkpt><trkpt lat="45.73778607814543" lon="9.761581738174213"><ele>292.0</ele><time>2026-04-25T11:12:00Z</time></trkpt><trkpt lat="45.737778557491474" lon="9.76148886147923"><ele>292.0</ele><time>2026-04-25T11:12:01Z</time></trkpt><trkpt lat="45.737765864131276" lon="9.76130512911783"><ele>292.0</ele><time>2026-04-25T11:12:03Z</time></trkpt><trkpt lat="45.73775179286302" lon="9.761211014640066"><ele>292.0</ele><time>2026-04-25T11:12:04Z</time></trkpt><trkpt lat="45.73774030654336" lon="9.76111910265718"><ele>292.0</ele><time>2026-04-25T11:12:05Z</time></trkpt><trkpt lat="45.737730260904925" lon="9.76102731493873"><ele>292.0</ele><time>2026-04-25T11:12:06Z</time></trkpt><trkpt lat="45.737719999097074" lon="9.760935832011572"><ele>292.0</ele><time>2026-04-25T11:12:07Z</time></trkpt><trkpt lat="45.73770543444101" lon="9.760847078289059"><ele>292.0</ele><time>2026-04-25T11:12:08Z</time></trkpt><trkpt lat="45.73769118277202" lon="9.760757683231564"><ele>292.0</ele><time>2026-04-25T11:12:09Z</time></trkpt><trkpt lat="45.737673712667814" lon="9.760667329113636"><ele>292.7142857142857</ele><time>2026-04-25T11:12:10Z</time></trkpt><trkpt lat="45.7376570736849" lon="9.760578931948169"><ele>293.42857142857144</ele><time>2026-04-25T11:12:11Z</time></trkpt><trkpt lat="45.7376396939776" lon="9.760490329054667"><ele>294.14285714285717</ele><time>2026-04-25T11:12:12Z</time></trkpt><trkpt lat="45.73759889219843" lon="9.760318131371417"><ele>294.8571428571429</ele><time>2026-04-25T11:12:14Z</time></trkpt><trkpt lat="45.7375781345671" lon="9.760231297669593"><ele>295.5714285714286</ele><time>2026-04-25T11:12:15Z</time></trkpt><trkpt lat="45.73755250143298" lon="9.760148908058715"><ele>296.2857142857143</ele><time>2026-04-25T11:12:16Z</time></trkpt><trkpt lat="45.737526226076334" lon="9.760063577283647"><ele>297.0</ele><time>2026-04-25T11:12:17Z</time></trkpt><trkpt lat="45.7374996980847" lon="9.759980025702484"><ele>297.0</ele><time>2026-04-25T11:12:18Z</time></trkpt><trkpt lat="45.73747697295435" lon="9.759895630238653"><ele>297.0</ele><time>2026-04-25T11:12:19Z</time></trkpt><trkpt lat="45.737429658590315" lon="9.759732719163235"><ele>297.0</ele><time>2026-04-25T11:12:21Z</time></trkpt><trkpt lat="45.737407249007155" lon="9.759647508497501"><ele>297.0</ele><time>2026-04-25T11:12:22Z</time></trkpt><trkpt lat="45.7373553421497" lon="9.759484098352258"><ele>297.0</ele><time>2026-04-25T11:12:24Z</time></trkpt><trkpt lat="45.737307278269746" lon="9.75933101554636"><ele>296.5</ele><time>2026-04-25T11:12:26Z</time></trkpt><trkpt lat="45.73726331953041" lon="9.75917196607863"><ele>296.0</ele><time>2026-04-25T11:12:28Z</time></trkpt><trkpt lat="45.7372387061484" lon="9.759085780603515"><ele>295.5</ele><time>2026-04-25T11:12:29Z</time></trkpt><trkpt lat="45.7371845501016" lon="9.75894592250478"><ele>295.0</ele><time>2026-04-25T11:12:31Z</time></trkpt><trkpt lat="45.73715179592489" lon="9.758867312647498"><ele>294.5</ele><time>2026-04-25T11:12:32Z</time></trkpt><trkpt lat="45.73711180226562" lon="9.75878661931456"><ele>294.0</ele><time>2026-04-25T11:12:33Z</time></trkpt><trkpt lat="45.737070424155" lon="9.758708544903712"><ele>294.0</ele><time>2026-04-25T11:12:34Z</time></trkpt><trkpt lat="45.73703231514283" lon="9.75863135215129"><ele>294.0</ele><time>2026-04-25T11:12:35Z</time></trkpt><trkpt lat="45.73699319967495" lon="9.758553826256737"><ele>294.0</ele><time>2026-04-25T11:12:36Z</time></trkpt><trkpt lat="45.736917249345254" lon="9.758401584298959"><ele>294.0</ele><time>2026-04-25T11:12:38Z</time></trkpt><trkpt lat="45.736884317832434" lon="9.75831872555847"><ele>294.0</ele><time>2026-04-25T11:12:39Z</time></trkpt><trkpt lat="45.736855637510146" lon="9.758237038717713"><ele>294.0</ele><time>2026-04-25T11:12:40Z</time></trkpt><trkpt lat="45.73678083691432" lon="9.758095281070394"><ele>294.2857142857143</ele><time>2026-04-25T11:12:42Z</time></trkpt><trkpt lat="45.73674746901458" lon="9.758018186168066"><ele>294.57142857142856</ele><time>2026-04-25T11:12:43Z</time></trkpt><trkpt lat="45.73670918282072" lon="9.757945105601488"><ele>294.8571428571429</ele><time>2026-04-25T11:12:44Z</time></trkpt><trkpt lat="45.73666755553807" lon="9.757863734672268"><ele>295.1428571428571</ele><time>2026-04-25T11:12:45Z</time></trkpt><trkpt lat="45.7366279223554" lon="9.757788973638338"><ele>295.42857142857144</ele><time>2026-04-25T11:12:46Z</time></trkpt><trkpt lat="45.73659047798618" lon="9.757710645516598"><ele>295.7142857142857</ele><time>2026-04-25T11:12:47Z</time></trkpt><trkpt lat="45.73655283753588" lon="9.757634959873073"><ele>296.0</ele><time>2026-04-25T11:12:48Z</time></trkpt><trkpt lat="45.73651361517271" lon="9.757562715916812"><ele>296.0</ele><time>2026-04-25T11:12:49Z</time></trkpt><trkpt lat="45.736471111568726" lon="9.757494357438723"><ele>296.0</ele><time>2026-04-25T11:12:50Z</time></trkpt><trkpt lat="45.736385902928056" lon="9.757359823569042"><ele>296.0</ele><time>2026-04-25T11:12:52Z</time></trkpt><trkpt lat="45.73633138635129" lon="9.757304946919826"><ele>296.0</ele><time>2026-04-25T11:12:53Z</time></trkpt><trkpt lat="45.736269576076324" lon="9.757277779193299"><ele>296.0</ele><time>2026-04-25T11:12:54Z</time></trkpt><trkpt lat="45.73619669980952" lon="9.757293153642514"><ele>296.0</ele><time>2026-04-25T11:12:55Z</time></trkpt><trkpt lat="45.73612575978944" lon="9.757288694615712"><ele>296.0</ele><time>2026-04-25T11:12:56Z</time></trkpt><trkpt lat="45.73606277843887" lon="9.757258214170477"><ele>296.0</ele><time>2026-04-25T11:12:57Z</time></trkpt><trkpt lat="45.73599970353769" lon="9.757243604497457"><ele>296.0</ele><time>2026-04-25T11:12:58Z</time></trkpt><trkpt lat="45.73593777697623" lon="9.757224571466919"><ele>296.0</ele><time>2026-04-25T11:12:59Z</time></trkpt><trkpt lat="45.735873342904284" lon="9.757207452231436"><ele>296.0</ele><time>2026-04-25T11:13:00Z</time></trkpt><trkpt lat="45.735806581428584" lon="9.757200414794967"><ele>296.0</ele><time>2026-04-25T11:13:01Z</time></trkpt><trkpt lat="45.73574142827372" lon="9.757192510377624"><ele>296.0</ele><time>2026-04-25T11:13:02Z</time></trkpt><trkpt lat="45.73561337870929" lon="9.757198448836549"><ele>297.0</ele><time>2026-04-25T11:13:04Z</time></trkpt><trkpt lat="45.735488960908604" lon="9.757210232425216"><ele>298.0</ele><time>2026-04-25T11:13:06Z</time></trkpt><trkpt lat="45.735423691532255" lon="9.757220129277698"><ele>299.0</ele><time>2026-04-25T11:13:07Z</time></trkpt><trkpt lat="45.735360744939506" lon="9.75722180959228"><ele>300.0</ele><time>2026-04-25T11:13:08Z</time></trkpt><trkpt lat="45.73523325251292" lon="9.757231980828621"><ele>301.0</ele><time>2026-04-25T11:13:10Z</time></trkpt><trkpt lat="45.73516903499746" lon="9.757238389091587"><ele>302.0</ele><time>2026-04-25T11:13:11Z</time></trkpt><trkpt lat="45.73504638249987" lon="9.757252795237774"><ele>303.0</ele><time>2026-04-25T11:13:13Z</time></trkpt><trkpt lat="45.734978099172324" lon="9.757258658668784"><ele>304.0</ele><time>2026-04-25T11:13:14Z</time></trkpt><trkpt lat="45.734914443415285" lon="9.757261052006488"><ele>305.0</ele><time>2026-04-25T11:13:15Z</time></trkpt><trkpt lat="45.73479075869861" lon="9.75726522176643"><ele>306.0</ele><time>2026-04-25T11:13:17Z</time></trkpt><trkpt lat="45.73466351189568" lon="9.757279293728384"><ele>307.0</ele><time>2026-04-25T11:13:19Z</time></trkpt><trkpt lat="45.7345437041996" lon="9.757283398109804"><ele>307.0</ele><time>2026-04-25T11:13:21Z</time></trkpt><trkpt lat="45.734422676526194" lon="9.757301204951933"><ele>307.0</ele><time>2026-04-25T11:13:23Z</time></trkpt><trkpt lat="45.734304565834655" lon="9.757314538599609"><ele>307.0</ele><time>2026-04-25T11:13:25Z</time></trkpt><trkpt lat="45.73418998332702" lon="9.75735699178936"><ele>307.0</ele><time>2026-04-25T11:13:27Z</time></trkpt><trkpt lat="45.734076273772914" lon="9.757429608075906"><ele>307.0</ele><time>2026-04-25T11:13:29Z</time></trkpt><trkpt lat="45.733959721388" lon="9.757518341044525"><ele>307.0</ele><time>2026-04-25T11:13:31Z</time></trkpt><trkpt lat="45.73384008460994" lon="9.757594123905736"><ele>307.0</ele><time>2026-04-25T11:13:33Z</time></trkpt><trkpt lat="45.733717492190465" lon="9.757662052572147"><ele>307.0</ele><time>2026-04-25T11:13:35Z</time></trkpt><trkpt lat="45.73365784599022" lon="9.757694225594335"><ele>306.8333333333333</ele><time>2026-04-25T11:13:36Z</time></trkpt><trkpt lat="45.73358932213268" lon="9.757724517171454"><ele>306.66666666666663</ele><time>2026-04-25T11:13:37Z</time></trkpt><trkpt lat="45.73352813684123" lon="9.757750867994073"><ele>306.5</ele><time>2026-04-25T11:13:38Z</time></trkpt><trkpt lat="45.73346597236625" lon="9.757786884652644"><ele>306.3333333333333</ele><time>2026-04-25T11:13:39Z</time></trkpt><trkpt lat="45.73340735911909" lon="9.757820848625448"><ele>306.1666666666667</ele><time>2026-04-25T11:13:40Z</time></trkpt><trkpt lat="45.73328817811434" lon="9.757876598154192"><ele>306.0</ele><time>2026-04-25T11:13:42Z</time></trkpt><trkpt lat="45.7332262214304" lon="9.757920540742907"><ele>306.0</ele><time>2026-04-25T11:13:43Z</time></trkpt><trkpt lat="45.73316955799798" lon="9.757971585772106"><ele>306.0</ele><time>2026-04-25T11:13:44Z</time></trkpt><trkpt lat="45.7331119185665" lon="9.758017051234075"><ele>306.0</ele><time>2026-04-25T11:13:45Z</time></trkpt><trkpt lat="45.73305405182511" lon="9.75805304551146"><ele>306.0</ele><time>2026-04-25T11:13:46Z</time></trkpt><trkpt lat="45.73293182459583" lon="9.758150951307394"><ele>306.0</ele><time>2026-04-25T11:13:48Z</time></trkpt><trkpt lat="45.732818971400334" lon="9.758228124255504"><ele>305.5</ele><time>2026-04-25T11:13:50Z</time></trkpt><trkpt lat="45.732709680767265" lon="9.758304964115306"><ele>305.0</ele><time>2026-04-25T11:13:52Z</time></trkpt><trkpt lat="45.73264773778359" lon="9.758359252381142"><ele>304.5</ele><time>2026-04-25T11:13:53Z</time></trkpt><trkpt lat="45.73252794435144" lon="9.75841997233108"><ele>304.0</ele><time>2026-04-25T11:13:55Z</time></trkpt><trkpt lat="45.73240484378804" lon="9.758477486147735"><ele>304.0</ele><time>2026-04-25T11:13:57Z</time></trkpt><trkpt lat="45.7323402738499" lon="9.75851389705197"><ele>304.0</ele><time>2026-04-25T11:13:58Z</time></trkpt><trkpt lat="45.73221563743261" lon="9.758569659372444"><ele>304.0</ele><time>2026-04-25T11:14:00Z</time></trkpt><trkpt lat="45.732152350998284" lon="9.758600943996266"><ele>304.0</ele><time>2026-04-25T11:14:01Z</time></trkpt><trkpt lat="45.73201738637588" lon="9.75863741752412"><ele>304.0</ele><time>2026-04-25T11:14:03Z</time></trkpt><trkpt lat="45.731902668317375" lon="9.75868190841291"><ele>304.5</ele><time>2026-04-25T11:14:05Z</time></trkpt><trkpt lat="45.731834689005346" lon="9.758717733958608"><ele>305.0</ele><time>2026-04-25T11:14:06Z</time></trkpt><trkpt lat="45.73177180394875" lon="9.758712097763278"><ele>305.5</ele><time>2026-04-25T11:14:07Z</time></trkpt><trkpt lat="45.731704707277984" lon="9.75874296090792"><ele>306.0</ele><time>2026-04-25T11:14:08Z</time></trkpt><trkpt lat="45.73163727533898" lon="9.758737224909565"><ele>306.5</ele><time>2026-04-25T11:14:09Z</time></trkpt><trkpt lat="45.73150576829705" lon="9.758763342206384"><ele>307.0</ele><time>2026-04-25T11:14:11Z</time></trkpt><trkpt lat="45.73143877289836" lon="9.758787907054733"><ele>307.0</ele><time>2026-04-25T11:14:12Z</time></trkpt><trkpt lat="45.73131762429656" lon="9.75880205595907"><ele>307.0</ele><time>2026-04-25T11:14:14Z</time></trkpt><trkpt lat="45.73125320452297" lon="9.758819198248572"><ele>307.0</ele><time>2026-04-25T11:14:15Z</time></trkpt><trkpt lat="45.73119133610775" lon="9.758842544534245"><ele>307.0</ele><time>2026-04-25T11:14:16Z</time></trkpt><trkpt lat="45.731077614405855" lon="9.758900073280529"><ele>307.0</ele><time>2026-04-25T11:14:18Z</time></trkpt><trkpt lat="45.7310081536798" lon="9.758923485460675"><ele>307.0</ele><time>2026-04-25T11:14:19Z</time></trkpt><trkpt lat="45.73090433072211" lon="9.759002517324904"><ele>306.8333333333333</ele><time>2026-04-25T11:14:21Z</time></trkpt><trkpt lat="45.7308452108389" lon="9.759036379787572"><ele>306.66666666666663</ele><time>2026-04-25T11:14:22Z</time></trkpt><trkpt lat="45.73073358637991" lon="9.759110122037962"><ele>306.5</ele><time>2026-04-25T11:14:24Z</time></trkpt><trkpt lat="45.73066988991223" lon="9.759133832790925"><ele>306.3333333333333</ele><time>2026-04-25T11:14:25Z</time></trkpt><trkpt lat="45.730609029113936" lon="9.759189111804643"><ele>306.1666666666667</ele><time>2026-04-25T11:14:26Z</time></trkpt><trkpt lat="45.73049187688718" lon="9.759208298927216"><ele>306.0</ele><time>2026-04-25T11:14:28Z</time></trkpt><trkpt lat="45.730426447579106" lon="9.759224907517334"><ele>306.0</ele><time>2026-04-25T11:14:29Z</time></trkpt><trkpt lat="45.73034953596241" lon="9.759246689207005"><ele>306.0</ele><time>2026-04-25T11:14:30Z</time></trkpt><trkpt lat="45.73023752450063" lon="9.759259726681305"><ele>306.0</ele><time>2026-04-25T11:14:32Z</time></trkpt><trkpt lat="45.73010687728802" lon="9.759274066798392"><ele>306.0</ele><time>2026-04-25T11:14:34Z</time></trkpt><trkpt lat="45.72998168303494" lon="9.759292247211926"><ele>306.0</ele><time>2026-04-25T11:14:36Z</time></trkpt><trkpt lat="45.729854214101714" lon="9.759302072149556"><ele>306.0</ele><time>2026-04-25T11:14:38Z</time></trkpt><trkpt lat="45.729784359655476" lon="9.759287891244668"><ele>306.0</ele><time>2026-04-25T11:14:39Z</time></trkpt><trkpt lat="45.72965820891847" lon="9.759304725338886"><ele>306.0</ele><time>2026-04-25T11:14:41Z</time></trkpt><trkpt lat="45.72959345218239" lon="9.759301860249874"><ele>306.0</ele><time>2026-04-25T11:14:42Z</time></trkpt><trkpt lat="45.72947118239009" lon="9.759304172429689"><ele>306.0</ele><time>2026-04-25T11:14:44Z</time></trkpt><trkpt lat="45.729405277420994" lon="9.759313912821954"><ele>305.8</ele><time>2026-04-25T11:14:45Z</time></trkpt><trkpt lat="45.72933945276908" lon="9.7593189230864"><ele>305.6</ele><time>2026-04-25T11:14:46Z</time></trkpt><trkpt lat="45.72921359098836" lon="9.759334223139412"><ele>305.4</ele><time>2026-04-25T11:14:48Z</time></trkpt><trkpt lat="45.729089667028596" lon="9.759366188521547"><ele>305.2</ele><time>2026-04-25T11:14:50Z</time></trkpt><trkpt lat="45.72901938614091" lon="9.759389892268237"><ele>305.0</ele><time>2026-04-25T11:14:51Z</time></trkpt><trkpt lat="45.72895472794717" lon="9.759380328614062"><ele>306.0</ele><time>2026-04-25T11:14:52Z</time></trkpt><trkpt lat="45.72883684452539" lon="9.759440823058451"><ele>307.0</ele><time>2026-04-25T11:14:54Z</time></trkpt><trkpt lat="45.72877017342277" lon="9.759488033574549"><ele>308.0</ele><time>2026-04-25T11:14:55Z</time></trkpt><trkpt lat="45.72866069589205" lon="9.759543967790906"><ele>309.0</ele><time>2026-04-25T11:14:57Z</time></trkpt><trkpt lat="45.728596942135674" lon="9.759571473233215"><ele>310.0</ele><time>2026-04-25T11:14:58Z</time></trkpt><trkpt lat="45.72853079462743" lon="9.759597146972185"><ele>310.0</ele><time>2026-04-25T11:14:59Z</time></trkpt><trkpt lat="45.72842585891467" lon="9.759667934587734"><ele>310.0</ele><time>2026-04-25T11:15:01Z</time></trkpt><trkpt lat="45.72836291726004" lon="9.759696701621268"><ele>310.0</ele><time>2026-04-25T11:15:02Z</time></trkpt><trkpt lat="45.72830102976573" lon="9.75973068857539"><ele>310.0</ele><time>2026-04-25T11:15:03Z</time></trkpt><trkpt lat="45.72818528081323" lon="9.759789721269716"><ele>310.0</ele><time>2026-04-25T11:15:05Z</time></trkpt><trkpt lat="45.728123838950765" lon="9.75982123932267"><ele>310.0</ele><time>2026-04-25T11:15:06Z</time></trkpt><trkpt lat="45.728006298845536" lon="9.759880776340403"><ele>310.0</ele><time>2026-04-25T11:15:08Z</time></trkpt><trkpt lat="45.727885324979766" lon="9.759937272511428"><ele>310.0</ele><time>2026-04-25T11:15:10Z</time></trkpt><trkpt lat="45.72782444647586" lon="9.759961236235416"><ele>310.0</ele><time>2026-04-25T11:15:11Z</time></trkpt><trkpt lat="45.72770528248655" lon="9.76002034051509"><ele>310.0</ele><time>2026-04-25T11:15:13Z</time></trkpt><trkpt lat="45.72758783064684" lon="9.760092596582767"><ele>310.0</ele><time>2026-04-25T11:15:15Z</time></trkpt><trkpt lat="45.72746672289856" lon="9.760137734268046"><ele>310.0</ele><time>2026-04-25T11:15:17Z</time></trkpt><trkpt lat="45.727346405884056" lon="9.760185753148408"><ele>310.0</ele><time>2026-04-25T11:15:19Z</time></trkpt><trkpt lat="45.7272231313371" lon="9.760235904675504"><ele>310.0</ele><time>2026-04-25T11:15:21Z</time></trkpt><trkpt lat="45.72710046609526" lon="9.760269916056384"><ele>310.0</ele><time>2026-04-25T11:15:23Z</time></trkpt><trkpt lat="45.72703685088063" lon="9.760286341275306"><ele>310.0</ele><time>2026-04-25T11:15:24Z</time></trkpt><trkpt lat="45.72691391690132" lon="9.76031455350691"><ele>310.5</ele><time>2026-04-25T11:15:26Z</time></trkpt><trkpt lat="45.72679072344904" lon="9.760359539245748"><ele>311.0</ele><time>2026-04-25T11:15:28Z</time></trkpt><trkpt lat="45.72672931979604" lon="9.760380384321643"><ele>311.5</ele><time>2026-04-25T11:15:29Z</time></trkpt><trkpt lat="45.7266677048653" lon="9.76040709414876"><ele>312.0</ele><time>2026-04-25T11:15:30Z</time></trkpt><trkpt lat="45.7266075862216" lon="9.760437427825888"><ele>312.5</ele><time>2026-04-25T11:15:31Z</time></trkpt><trkpt lat="45.72649214685765" lon="9.760485902568226"><ele>313.0</ele><time>2026-04-25T11:15:33Z</time></trkpt><trkpt lat="45.72642638240476" lon="9.760507433989448"><ele>313.0</ele><time>2026-04-25T11:15:34Z</time></trkpt><trkpt lat="45.72630520782974" lon="9.76055331588131"><ele>313.0</ele><time>2026-04-25T11:15:36Z</time></trkpt><trkpt lat="45.72624301210205" lon="9.760574231619051"><ele>313.0</ele><time>2026-04-25T11:15:37Z</time></trkpt><trkpt lat="45.726123964874425" lon="9.760623229901224"><ele>313.0</ele><time>2026-04-25T11:15:39Z</time></trkpt><trkpt lat="45.72600401905071" lon="9.760673248942217"><ele>313.0</ele><time>2026-04-25T11:15:41Z</time></trkpt><trkpt lat="45.72588544432407" lon="9.760725474352075"><ele>312.4</ele><time>2026-04-25T11:15:43Z</time></trkpt><trkpt lat="45.72576576067283" lon="9.760778707990132"><ele>311.8</ele><time>2026-04-25T11:15:45Z</time></trkpt><trkpt lat="45.72565715504123" lon="9.760865609262947"><ele>311.2</ele><time>2026-04-25T11:15:47Z</time></trkpt><trkpt lat="45.72559130993643" lon="9.760852624858797"><ele>310.6</ele><time>2026-04-25T11:15:48Z</time></trkpt><trkpt lat="45.72552816405645" lon="9.760887223335535"><ele>310.0</ele><time>2026-04-25T11:15:49Z</time></trkpt><trkpt lat="45.725466725240885" lon="9.760922525569256"><ele>310.0</ele><time>2026-04-25T11:15:50Z</time></trkpt><trkpt lat="45.72534745813336" lon="9.76097304185367"><ele>310.0</ele><time>2026-04-25T11:15:52Z</time></trkpt><trkpt lat="45.72528396724124" lon="9.761005172252686"><ele>310.0</ele><time>2026-04-25T11:15:53Z</time></trkpt><trkpt lat="45.72517757094908" lon="9.761061498908607"><ele>310.0</ele><time>2026-04-25T11:15:55Z</time></trkpt><trkpt lat="45.725117921578715" lon="9.761110007015224"><ele>310.0</ele><time>2026-04-25T11:15:56Z</time></trkpt><trkpt lat="45.725003000045255" lon="9.761186918795383"><ele>310.8333333333333</ele><time>2026-04-25T11:15:58Z</time></trkpt><trkpt lat="45.72494275527006" lon="9.761220661663156"><ele>311.66666666666663</ele><time>2026-04-25T11:15:59Z</time></trkpt><trkpt lat="45.724843159798695" lon="9.761314248431468"><ele>312.5</ele><time>2026-04-25T11:16:01Z</time></trkpt><trkpt lat="45.72479275959562" lon="9.761369856167777"><ele>313.3333333333333</ele><time>2026-04-25T11:16:02Z</time></trkpt><trkpt lat="45.724710199366484" lon="9.761494160907713"><ele>314.1666666666667</ele><time>2026-04-25T11:16:04Z</time></trkpt><trkpt lat="45.72465684361546" lon="9.761558214424998"><ele>315.0</ele><time>2026-04-25T11:16:05Z</time></trkpt><trkpt lat="45.724582254525636" lon="9.761699430341935"><ele>315.0</ele><time>2026-04-25T11:16:07Z</time></trkpt><trkpt lat="45.72452174972185" lon="9.76185435563285"><ele>315.0</ele><time>2026-04-25T11:16:09Z</time></trkpt><trkpt lat="45.72446062710306" lon="9.761995743959016"><ele>315.0</ele><time>2026-04-25T11:16:11Z</time></trkpt><trkpt lat="45.724424754429364" lon="9.76207779103112"><ele>315.0</ele><time>2026-04-25T11:16:12Z</time></trkpt><trkpt lat="45.72436245332711" lon="9.7622320046231"><ele>315.0</ele><time>2026-04-25T11:16:14Z</time></trkpt><trkpt lat="45.72429048064775" lon="9.762382503801271"><ele>314.8</ele><time>2026-04-25T11:16:16Z</time></trkpt><trkpt lat="45.72421802901899" lon="9.762513332956974"><ele>314.6</ele><time>2026-04-25T11:16:18Z</time></trkpt><trkpt lat="45.72417263660104" lon="9.762579614944897"><ele>314.4</ele><time>2026-04-25T11:16:19Z</time></trkpt><trkpt lat="45.724087515506675" lon="9.762701428225418"><ele>314.2</ele><time>2026-04-25T11:16:21Z</time></trkpt><trkpt lat="45.723993396995255" lon="9.762800411848222"><ele>314.0</ele><time>2026-04-25T11:16:23Z</time></trkpt><trkpt lat="45.723940469247374" lon="9.762865312515755"><ele>314.2</ele><time>2026-04-25T11:16:24Z</time></trkpt><trkpt lat="45.723843659987544" lon="9.76296550362154"><ele>314.4</ele><time>2026-04-25T11:16:26Z</time></trkpt><trkpt lat="45.723792439399695" lon="9.763020605461168"><ele>314.6</ele><time>2026-04-25T11:16:27Z</time></trkpt><trkpt lat="45.72369437863322" lon="9.763124063939847"><ele>314.8</ele><time>2026-04-25T11:16:29Z</time></trkpt><trkpt lat="45.72360148983426" lon="9.763245889469612"><ele>315.0</ele><time>2026-04-25T11:16:31Z</time></trkpt><trkpt lat="45.72351495107154" lon="9.76336936896643"><ele>315.0</ele><time>2026-04-25T11:16:33Z</time></trkpt><trkpt lat="45.723425566341525" lon="9.763486369324308"><ele>315.0</ele><time>2026-04-25T11:16:35Z</time></trkpt><trkpt lat="45.72334862782976" lon="9.763610116400598"><ele>315.0</ele><time>2026-04-25T11:16:37Z</time></trkpt><trkpt lat="45.72325449075799" lon="9.76372688885077"><ele>315.0</ele><time>2026-04-25T11:16:39Z</time></trkpt><trkpt lat="45.72320928450886" lon="9.763794894334138"><ele>315.0</ele><time>2026-04-25T11:16:40Z</time></trkpt><trkpt lat="45.72311831814861" lon="9.763906809153335"><ele>314.8</ele><time>2026-04-25T11:16:42Z</time></trkpt><trkpt lat="45.7230221250616" lon="9.764015092011839"><ele>314.6</ele><time>2026-04-25T11:16:44Z</time></trkpt><trkpt lat="45.722947330087166" lon="9.764140712798296"><ele>314.4</ele><time>2026-04-25T11:16:46Z</time></trkpt><trkpt lat="45.722878777142846" lon="9.764180627091932"><ele>314.2</ele><time>2026-04-25T11:16:47Z</time></trkpt><trkpt lat="45.72282220762211" lon="9.76422398281714"><ele>314.0</ele><time>2026-04-25T11:16:48Z</time></trkpt><trkpt lat="45.7227228832494" lon="9.764317132431344"><ele>315.0</ele><time>2026-04-25T11:16:50Z</time></trkpt><trkpt lat="45.72262341598281" lon="9.76442140240768"><ele>316.0</ele><time>2026-04-25T11:16:52Z</time></trkpt><trkpt lat="45.72252452815885" lon="9.764520998814572"><ele>317.0</ele><time>2026-04-25T11:16:54Z</time></trkpt><trkpt lat="45.72242654170899" lon="9.764620121651662"><ele>318.0</ele><time>2026-04-25T11:16:56Z</time></trkpt><trkpt lat="45.72237283227665" lon="9.764667678384704"><ele>319.0</ele><time>2026-04-25T11:16:57Z</time></trkpt><trkpt lat="45.722276226532315" lon="9.764737004883052"><ele>319.0</ele><time>2026-04-25T11:16:59Z</time></trkpt><trkpt lat="45.72222515731229" lon="9.764797639338022"><ele>319.0</ele><time>2026-04-25T11:17:00Z</time></trkpt><trkpt lat="45.72212432782229" lon="9.76489159114128"><ele>319.0</ele><time>2026-04-25T11:17:02Z</time></trkpt><trkpt lat="45.72202389063152" lon="9.764993158005316"><ele>319.0</ele><time>2026-04-25T11:17:04Z</time></trkpt><trkpt lat="45.721967685420424" lon="9.765042720033465"><ele>319.0</ele><time>2026-04-25T11:17:05Z</time></trkpt><trkpt lat="45.721919171667906" lon="9.765101760211536"><ele>319.0</ele><time>2026-04-25T11:17:06Z</time></trkpt><trkpt lat="45.721815790836786" lon="9.765199708073713"><ele>319.0</ele><time>2026-04-25T11:17:08Z</time></trkpt><trkpt lat="45.721766779297795" lon="9.765263195951427"><ele>319.0</ele><time>2026-04-25T11:17:09Z</time></trkpt><trkpt lat="45.7216648518765" lon="9.765355400570938"><ele>319.0</ele><time>2026-04-25T11:17:11Z</time></trkpt><trkpt lat="45.72156605452886" lon="9.76546254763114"><ele>319.0</ele><time>2026-04-25T11:17:13Z</time></trkpt><trkpt lat="45.721513926424855" lon="9.765515549363524"><ele>319.0</ele><time>2026-04-25T11:17:14Z</time></trkpt><trkpt lat="45.7214133564253" lon="9.765623688785592"><ele>319.0</ele><time>2026-04-25T11:17:16Z</time></trkpt><trkpt lat="45.7213173377275" lon="9.765722941917106"><ele>319.0</ele><time>2026-04-25T11:17:18Z</time></trkpt><trkpt lat="45.721266264748685" lon="9.765788172604925"><ele>319.0</ele><time>2026-04-25T11:17:19Z</time></trkpt><trkpt lat="45.72116752235297" lon="9.765896701794347"><ele>319.0</ele><time>2026-04-25T11:17:21Z</time></trkpt><trkpt lat="45.721074173613864" lon="9.766006855941221"><ele>319.0</ele><time>2026-04-25T11:17:23Z</time></trkpt><trkpt lat="45.720984382294404" lon="9.76612704074828"><ele>319.6</ele><time>2026-04-25T11:17:25Z</time></trkpt><trkpt lat="45.72089027184173" lon="9.766238762432373"><ele>320.2</ele><time>2026-04-25T11:17:27Z</time></trkpt><trkpt lat="45.7208015175602" lon="9.766355908673551"><ele>320.8</ele><time>2026-04-25T11:17:29Z</time></trkpt><trkpt lat="45.72075327787068" lon="9.76641608265516"><ele>321.40000000000003</ele><time>2026-04-25T11:17:30Z</time></trkpt><trkpt lat="45.72066335443759" lon="9.766534764426362"><ele>322.0</ele><time>2026-04-25T11:17:32Z</time></trkpt><trkpt lat="45.72057456659563" lon="9.7666506828048"><ele>322.0</ele><time>2026-04-25T11:17:34Z</time></trkpt><trkpt lat="45.72052164088829" lon="9.766707818171795"><ele>322.0</ele><time>2026-04-25T11:17:35Z</time></trkpt><trkpt lat="45.72042148519848" lon="9.766803973863906"><ele>322.0</ele><time>2026-04-25T11:17:37Z</time></trkpt><trkpt lat="45.72032177729385" lon="9.766906380634524"><ele>322.0</ele><time>2026-04-25T11:17:39Z</time></trkpt><trkpt lat="45.7202229033625" lon="9.766997410603286"><ele>322.0</ele><time>2026-04-25T11:17:41Z</time></trkpt><trkpt lat="45.72013265296259" lon="9.76711543341961"><ele>322.8</ele><time>2026-04-25T11:17:43Z</time></trkpt><trkpt lat="45.72001979954269" lon="9.76719456457432"><ele>323.6</ele><time>2026-04-25T11:17:45Z</time></trkpt><trkpt lat="45.71995025975178" lon="9.767208662403444"><ele>324.40000000000003</ele><time>2026-04-25T11:17:46Z</time></trkpt><trkpt lat="45.71992130220879" lon="9.767306041033615"><ele>325.20000000000005</ele><time>2026-04-25T11:17:47Z</time></trkpt><trkpt lat="45.71982037875036" lon="9.767404803743554"><ele>326.0</ele><time>2026-04-25T11:17:49Z</time></trkpt><trkpt lat="45.719711846916546" lon="9.76749922721305"><ele>326.0</ele><time>2026-04-25T11:17:51Z</time></trkpt><trkpt lat="45.719644246866615" lon="9.767630121058506"><ele>326.0</ele><time>2026-04-25T11:17:53Z</time></trkpt><trkpt lat="45.719561385090174" lon="9.767656739750727"><ele>326.0</ele><time>2026-04-25T11:17:54Z</time></trkpt><trkpt lat="45.719464895115514" lon="9.767761198429215"><ele>326.0</ele><time>2026-04-25T11:17:56Z</time></trkpt><trkpt lat="45.71936824877476" lon="9.767859081475992"><ele>326.0</ele><time>2026-04-25T11:17:58Z</time></trkpt><trkpt lat="45.71931549446095" lon="9.767910066341223"><ele>325.4</ele><time>2026-04-25T11:17:59Z</time></trkpt><trkpt lat="45.719215975900646" lon="9.768007245496111"><ele>324.8</ele><time>2026-04-25T11:18:01Z</time></trkpt><trkpt lat="45.719164543571914" lon="9.768060455801926"><ele>324.2</ele><time>2026-04-25T11:18:02Z</time></trkpt><trkpt lat="45.71906164693216" lon="9.768164635771653"><ele>323.59999999999997</ele><time>2026-04-25T11:18:04Z</time></trkpt><trkpt lat="45.71895804704698" lon="9.768260616778512"><ele>323.0</ele><time>2026-04-25T11:18:06Z</time></trkpt><trkpt lat="45.718858581399694" lon="9.76836314370525"><ele>323.0</ele><time>2026-04-25T11:18:08Z</time></trkpt><trkpt lat="45.718760131131006" lon="9.768458029605181"><ele>323.0</ele><time>2026-04-25T11:18:10Z</time></trkpt><trkpt lat="45.71866984330411" lon="9.76854616487624"><ele>323.0</ele><time>2026-04-25T11:18:12Z</time></trkpt><trkpt lat="45.71857218248895" lon="9.768640992349798"><ele>323.0</ele><time>2026-04-25T11:18:14Z</time></trkpt><trkpt lat="45.71848124866598" lon="9.768724066859612"><ele>322.79999999999995</ele><time>2026-04-25T11:18:16Z</time></trkpt><trkpt lat="45.71839058288755" lon="9.7688192008264"><ele>322.6</ele><time>2026-04-25T11:18:18Z</time></trkpt><trkpt lat="45.71834233280605" lon="9.768878247617785"><ele>322.4</ele><time>2026-04-25T11:18:19Z</time></trkpt><trkpt lat="45.718256789724116" lon="9.76899177103647"><ele>322.20000000000005</ele><time>2026-04-25T11:18:21Z</time></trkpt><trkpt lat="45.71817950910682" lon="9.769096339091853"><ele>322.0</ele><time>2026-04-25T11:18:23Z</time></trkpt><trkpt lat="45.718107466178665" lon="9.769196650901181"><ele>322.0</ele><time>2026-04-25T11:18:25Z</time></trkpt><trkpt lat="45.718018347175196" lon="9.769308434344364"><ele>322.0</ele><time>2026-04-25T11:18:27Z</time></trkpt><trkpt lat="45.717979723970664" lon="9.769380703193852"><ele>322.0</ele><time>2026-04-25T11:18:28Z</time></trkpt><trkpt lat="45.71793809716883" lon="9.769449305480483"><ele>322.0</ele><time>2026-04-25T11:18:29Z</time></trkpt><trkpt lat="45.717853662507764" lon="9.769572039541922"><ele>322.0</ele><time>2026-04-25T11:18:31Z</time></trkpt><trkpt lat="45.717810010351485" lon="9.76963801938904"><ele>322.0</ele><time>2026-04-25T11:18:32Z</time></trkpt><trkpt lat="45.71776930589429" lon="9.769712589856839"><ele>322.25</ele><time>2026-04-25T11:18:33Z</time></trkpt><trkpt lat="45.71768305112151" lon="9.76985071451194"><ele>322.5</ele><time>2026-04-25T11:18:35Z</time></trkpt><trkpt lat="45.717605433740616" lon="9.769979157791946"><ele>322.75</ele><time>2026-04-25T11:18:37Z</time></trkpt><trkpt lat="45.71752731900377" lon="9.770112087687835"><ele>323.0</ele><time>2026-04-25T11:18:39Z</time></trkpt><trkpt lat="45.7174510337246" lon="9.770244278402272"><ele>323.59999999999997</ele><time>2026-04-25T11:18:41Z</time></trkpt><trkpt lat="45.71738629034464" lon="9.770363953194021"><ele>324.2</ele><time>2026-04-25T11:18:43Z</time></trkpt><trkpt lat="45.717313175701975" lon="9.77049734077756"><ele>324.8</ele><time>2026-04-25T11:18:45Z</time></trkpt><trkpt lat="45.717241168322914" lon="9.770622620008904"><ele>325.4</ele><time>2026-04-25T11:18:47Z</time></trkpt><trkpt lat="45.71717111495703" lon="9.770722057841786"><ele>326.0</ele><time>2026-04-25T11:18:49Z</time></trkpt><trkpt lat="45.717079770629624" lon="9.770821981709766"><ele>326.0</ele><time>2026-04-25T11:18:51Z</time></trkpt><trkpt lat="45.71707039497593" lon="9.770913414929545"><ele>326.0</ele><time>2026-04-25T11:18:52Z</time></trkpt><trkpt lat="45.717008816037456" lon="9.771018913882335"><ele>326.0</ele><time>2026-04-25T11:18:54Z</time></trkpt><trkpt lat="45.716961300070004" lon="9.771184036741264"><ele>326.0</ele><time>2026-04-25T11:18:56Z</time></trkpt><trkpt lat="45.71692647529511" lon="9.771293097033421"><ele>326.0</ele><time>2026-04-25T11:18:57Z</time></trkpt><trkpt lat="45.71699922418829" lon="9.771382769479807"><ele>326.6</ele><time>2026-04-25T11:18:59Z</time></trkpt><trkpt lat="45.71705823319251" lon="9.77141662208381"><ele>327.20000000000005</ele><time>2026-04-25T11:19:00Z</time></trkpt><trkpt lat="45.71717498795193" lon="9.771444734364994"><ele>327.79999999999995</ele><time>2026-04-25T11:19:02Z</time></trkpt><trkpt lat="45.717280766457705" lon="9.771476389452905"><ele>328.4</ele><time>2026-04-25T11:19:04Z</time></trkpt><trkpt lat="45.71738222761444" lon="9.771505274147689"><ele>329.0</ele><time>2026-04-25T11:19:06Z</time></trkpt><trkpt lat="45.717481316899764" lon="9.771477266767517"><ele>329.0</ele><time>2026-04-25T11:19:08Z</time></trkpt><trkpt lat="45.71754271429663" lon="9.771314777120741"><ele>329.0</ele><time>2026-04-25T11:19:10Z</time></trkpt><trkpt lat="45.71756287998354" lon="9.7711661792439"><ele>329.0</ele><time>2026-04-25T11:19:12Z</time></trkpt><trkpt lat="45.717613450156996" lon="9.77103600033986"><ele>329.0</ele><time>2026-04-25T11:19:14Z</time></trkpt><trkpt lat="45.71765335575923" lon="9.770961915656786"><ele>329.0</ele><time>2026-04-25T11:19:15Z</time></trkpt><trkpt lat="45.717737022724265" lon="9.770839172102153"><ele>330.0</ele><time>2026-04-25T11:19:17Z</time></trkpt><trkpt lat="45.71782013164274" lon="9.770714831349304"><ele>331.0</ele><time>2026-04-25T11:19:19Z</time></trkpt><trkpt lat="45.71789220735031" lon="9.770592614986853"><ele>332.0</ele><time>2026-04-25T11:19:21Z</time></trkpt><trkpt lat="45.71799816939332" lon="9.770584423894345"><ele>333.0</ele><time>2026-04-25T11:19:23Z</time></trkpt><trkpt lat="45.71808942514714" lon="9.770679041454018"><ele>333.0</ele><time>2026-04-25T11:19:25Z</time></trkpt><trkpt lat="45.718164534555164" lon="9.770745164405326"><ele>333.0</ele><time>2026-04-25T11:19:27Z</time></trkpt><trkpt lat="45.718242108131136" lon="9.770804312691762"><ele>333.0</ele><time>2026-04-25T11:19:29Z</time></trkpt><trkpt lat="45.71831299438793" lon="9.770852329974089"><ele>333.0</ele><time>2026-04-25T11:19:31Z</time></trkpt><trkpt lat="45.71838038002356" lon="9.770888594308397"><ele>333.0</ele><time>2026-04-25T11:19:33Z</time></trkpt><trkpt lat="45.71843593587597" lon="9.770954675013751"><ele>333.0</ele><time>2026-04-25T11:19:35Z</time></trkpt><trkpt lat="45.71851947302773" lon="9.770984191074088"><ele>333.0</ele><time>2026-04-25T11:19:38Z</time></trkpt><trkpt lat="45.71857282612493" lon="9.770912664506339"><ele>343.0</ele><time>2026-04-25T11:19:41Z</time></trkpt><trkpt lat="45.71861323832915" lon="9.770813211062812"><ele>343.0</ele><time>2026-04-25T11:19:44Z</time></trkpt></trkseg></trk></gpx>